<?xml version='1.0' encoding='UTF-8'?><gpx version="1.1" creator="JPX - https://github.com/jenetics/jpx" xmlns="http://www.topografix.com/GPX/1/1"><trk><trkseg><trkpt lat="53.644388" lon="-1.8461695"><ele>183.0</ele><time>2026-03-22T16:52:48.912Z</time></trkpt><trkpt lat="53.6443898" lon="-1.8460505"><ele>183.0</ele><time>2026-03-22T16:54:39.926Z</time></trkpt><trkpt lat="53.6443232" lon="-1.8461252"><ele>183.0</ele><time>2026-03-22T16:55:08.923Z</time></trkpt><trkpt lat="53.6442834" lon="-1.8462716"><ele>183.0</ele><time>2026-03-22T16:55:10.924Z</time></trkpt><trkpt lat="53.6442491" lon="-1.8464047"><ele>183.0</ele><time>2026-03-22T16:55:12.922Z</time></trkpt><trkpt lat="53.6442043" lon="-1.8465732"><ele>183.0</ele><time>2026-03-22T16:55:13.919Z</time></trkpt><trkpt lat="53.6441787" lon="-1.8466803"><ele>183.0</ele><time>2026-03-22T16:55:14.923Z</time></trkpt><trkpt lat="53.6441556" lon="-1.8467887"><ele>183.0</ele><time>2026-03-22T16:55:15.922Z</time></trkpt><trkpt lat="53.644132" lon="-1.846888"><ele>183.0</ele><time>2026-03-22T16:55:16.921Z</time></trkpt><trkpt lat="53.6440874" lon="-1.8470674"><ele>183.0</ele><time>2026-03-22T16:55:18.921Z</time></trkpt><trkpt lat="53.6440223" lon="-1.8472198"><ele>183.0</ele><time>2026-03-22T16:55:20.921Z</time></trkpt><trkpt lat="53.6439786" lon="-1.8473583"><ele>183.5</ele><time>2026-03-22T16:55:22.921Z</time></trkpt><trkpt lat="53.6439692" lon="-1.8475167"><ele>184.0</ele><time>2026-03-22T16:55:24.92Z</time></trkpt><trkpt lat="53.6439703" lon="-1.847656"><ele>184.5</ele><time>2026-03-22T16:55:26.917Z</time></trkpt><trkpt lat="53.6440146" lon="-1.8477787"><ele>185.0</ele><time>2026-03-22T16:55:29.918Z</time></trkpt><trkpt lat="53.6440981" lon="-1.8478347"><ele>185.5</ele><time>2026-03-22T16:55:31.922Z</time></trkpt><trkpt lat="53.6441631" lon="-1.8478602"><ele>186.0</ele><time>2026-03-22T16:55:32.922Z</time></trkpt><trkpt lat="53.6442361" lon="-1.8478952"><ele>186.33333333333334</ele><time>2026-03-22T16:55:33.924Z</time></trkpt><trkpt lat="53.6443122" lon="-1.8479412"><ele>186.66666666666666</ele><time>2026-03-22T16:55:34.917Z</time></trkpt><trkpt lat="53.6443753" lon="-1.8479925"><ele>187.0</ele><time>2026-03-22T16:55:35.923Z</time></trkpt><trkpt lat="53.6444317" lon="-1.8480437"><ele>187.33333333333331</ele><time>2026-03-22T16:55:36.922Z</time></trkpt><trkpt lat="53.6445253" lon="-1.848135"><ele>187.66666666666666</ele><time>2026-03-22T16:55:38.922Z</time></trkpt><trkpt lat="53.6445775" lon="-1.8482059"><ele>188.0</ele><time>2026-03-22T16:55:40.924Z</time></trkpt><trkpt lat="53.6446476" lon="-1.8480622"><ele>188.0</ele><time>2026-03-22T16:56:40.93Z</time></trkpt><trkpt lat="53.6446829" lon="-1.8479436"><ele>188.0</ele><time>2026-03-22T16:56:41.925Z</time></trkpt><trkpt lat="53.6447162" lon="-1.8478386"><ele>188.0</ele><time>2026-03-22T16:56:42.927Z</time></trkpt><trkpt lat="53.6447749" lon="-1.8476689"><ele>188.0</ele><time>2026-03-22T16:56:44.921Z</time></trkpt><trkpt lat="53.644804" lon="-1.8475585"><ele>188.0</ele><time>2026-03-22T16:56:45.923Z</time></trkpt><trkpt lat="53.6448312" lon="-1.8474433"><ele>188.0</ele><time>2026-03-22T16:56:46.923Z</time></trkpt><trkpt lat="53.6448549" lon="-1.8473394"><ele>187.5</ele><time>2026-03-22T16:56:47.923Z</time></trkpt><trkpt lat="53.6448784" lon="-1.847216"><ele>187.0</ele><time>2026-03-22T16:56:48.928Z</time></trkpt><trkpt lat="53.6449018" lon="-1.8470923"><ele>186.5</ele><time>2026-03-22T16:56:49.928Z</time></trkpt><trkpt lat="53.6449141" lon="-1.8469692"><ele>186.0</ele><time>2026-03-22T16:56:50.921Z</time></trkpt><trkpt lat="53.6449253" lon="-1.8468561"><ele>185.5</ele><time>2026-03-22T16:56:51.922Z</time></trkpt><trkpt lat="53.6449519" lon="-1.8466673"><ele>185.0</ele><time>2026-03-22T16:56:53.924Z</time></trkpt><trkpt lat="53.644974" lon="-1.8465421"><ele>184.5</ele><time>2026-03-22T16:56:54.924Z</time></trkpt><trkpt lat="53.6449868" lon="-1.8463811"><ele>184.0</ele><time>2026-03-22T16:56:55.924Z</time></trkpt><trkpt lat="53.64501" lon="-1.8461759"><ele>183.5</ele><time>2026-03-22T16:56:56.926Z</time></trkpt><trkpt lat="53.6450478" lon="-1.8459594"><ele>183.0</ele><time>2026-03-22T16:56:57.926Z</time></trkpt><trkpt lat="53.6450747" lon="-1.8457791"><ele>182.5</ele><time>2026-03-22T16:56:58.924Z</time></trkpt><trkpt lat="53.6451071" lon="-1.845626"><ele>182.0</ele><time>2026-03-22T16:56:59.921Z</time></trkpt><trkpt lat="53.6451298" lon="-1.8454921"><ele>181.5</ele><time>2026-03-22T16:57:00.922Z</time></trkpt><trkpt lat="53.6451492" lon="-1.845368"><ele>181.0</ele><time>2026-03-22T16:57:01.925Z</time></trkpt><trkpt lat="53.6451639" lon="-1.8452474"><ele>180.5</ele><time>2026-03-22T16:57:02.925Z</time></trkpt><trkpt lat="53.6451755" lon="-1.845131"><ele>180.0</ele><time>2026-03-22T16:57:03.927Z</time></trkpt><trkpt lat="53.6451876" lon="-1.8450198"><ele>179.57142857142856</ele><time>2026-03-22T16:57:04.926Z</time></trkpt><trkpt lat="53.6452029" lon="-1.8449032"><ele>179.14285714285717</ele><time>2026-03-22T16:57:05.924Z</time></trkpt><trkpt lat="53.6452151" lon="-1.8447863"><ele>178.71428571428572</ele><time>2026-03-22T16:57:06.925Z</time></trkpt><trkpt lat="53.6452279" lon="-1.8446682"><ele>178.28571428571428</ele><time>2026-03-22T16:57:07.919Z</time></trkpt><trkpt lat="53.6452412" lon="-1.8445441"><ele>177.85714285714283</ele><time>2026-03-22T16:57:08.925Z</time></trkpt><trkpt lat="53.6452502" lon="-1.8444176"><ele>177.42857142857144</ele><time>2026-03-22T16:57:09.922Z</time></trkpt><trkpt lat="53.6452535" lon="-1.8442887"><ele>177.0</ele><time>2026-03-22T16:57:10.923Z</time></trkpt><trkpt lat="53.6452504" lon="-1.8441604"><ele>176.66666666666666</ele><time>2026-03-22T16:57:11.923Z</time></trkpt><trkpt lat="53.6452402" lon="-1.8440325"><ele>176.33333333333334</ele><time>2026-03-22T16:57:12.923Z</time></trkpt><trkpt lat="53.645228" lon="-1.8439029"><ele>176.0</ele><time>2026-03-22T16:57:13.924Z</time></trkpt><trkpt lat="53.6452146" lon="-1.8437778"><ele>175.66666666666669</ele><time>2026-03-22T16:57:14.924Z</time></trkpt><trkpt lat="53.6452045" lon="-1.8436494"><ele>175.33333333333334</ele><time>2026-03-22T16:57:15.923Z</time></trkpt><trkpt lat="53.6451948" lon="-1.8435274"><ele>175.0</ele><time>2026-03-22T16:57:16.922Z</time></trkpt><trkpt lat="53.645186" lon="-1.8434042"><ele>174.33333333333334</ele><time>2026-03-22T16:57:17.922Z</time></trkpt><trkpt lat="53.6451782" lon="-1.8432813"><ele>173.66666666666669</ele><time>2026-03-22T16:57:18.924Z</time></trkpt><trkpt lat="53.6451707" lon="-1.8431582"><ele>173.0</ele><time>2026-03-22T16:57:19.923Z</time></trkpt><trkpt lat="53.6451732" lon="-1.8429575"><ele>172.33333333333334</ele><time>2026-03-22T16:57:21.923Z</time></trkpt><trkpt lat="53.6451778" lon="-1.8428456"><ele>171.66666666666666</ele><time>2026-03-22T16:57:22.924Z</time></trkpt><trkpt lat="53.6451853" lon="-1.8427186"><ele>171.0</ele><time>2026-03-22T16:57:23.925Z</time></trkpt><trkpt lat="53.6452072" lon="-1.8425797"><ele>170.4</ele><time>2026-03-22T16:57:24.92Z</time></trkpt><trkpt lat="53.6452399" lon="-1.8424341"><ele>169.8</ele><time>2026-03-22T16:57:25.927Z</time></trkpt><trkpt lat="53.6452767" lon="-1.842296"><ele>169.20000000000002</ele><time>2026-03-22T16:57:26.925Z</time></trkpt><trkpt lat="53.645314" lon="-1.842146"><ele>168.60000000000002</ele><time>2026-03-22T16:57:27.924Z</time></trkpt><trkpt lat="53.64538" lon="-1.8419849"><ele>168.0</ele><time>2026-03-22T16:57:28.924Z</time></trkpt><trkpt lat="53.6454237" lon="-1.8417982"><ele>167.0</ele><time>2026-03-22T16:57:29.922Z</time></trkpt><trkpt lat="53.6454664" lon="-1.8415923"><ele>166.0</ele><time>2026-03-22T16:57:30.926Z</time></trkpt><trkpt lat="53.6455076" lon="-1.8413864"><ele>165.0</ele><time>2026-03-22T16:57:31.929Z</time></trkpt><trkpt lat="53.6455456" lon="-1.8411972"><ele>164.0</ele><time>2026-03-22T16:57:32.926Z</time></trkpt><trkpt lat="53.6455833" lon="-1.841042"><ele>163.83333333333331</ele><time>2026-03-22T16:57:33.922Z</time></trkpt><trkpt lat="53.6456134" lon="-1.8409146"><ele>163.66666666666666</ele><time>2026-03-22T16:57:34.923Z</time></trkpt><trkpt lat="53.6456319" lon="-1.8407996"><ele>163.5</ele><time>2026-03-22T16:57:35.924Z</time></trkpt><trkpt lat="53.6456463" lon="-1.8406796"><ele>163.33333333333334</ele><time>2026-03-22T16:57:36.923Z</time></trkpt><trkpt lat="53.6456632" lon="-1.8405448"><ele>163.16666666666669</ele><time>2026-03-22T16:57:37.923Z</time></trkpt><trkpt lat="53.6456859" lon="-1.840396"><ele>163.0</ele><time>2026-03-22T16:57:38.923Z</time></trkpt><trkpt lat="53.6457157" lon="-1.8402345"><ele>162.0</ele><time>2026-03-22T16:57:39.921Z</time></trkpt><trkpt lat="53.6457482" lon="-1.8400551"><ele>161.0</ele><time>2026-03-22T16:57:40.923Z</time></trkpt><trkpt lat="53.6457816" lon="-1.839862"><ele>160.0</ele><time>2026-03-22T16:57:41.922Z</time></trkpt><trkpt lat="53.6458101" lon="-1.8396568"><ele>159.0</ele><time>2026-03-22T16:57:42.921Z</time></trkpt><trkpt lat="53.6458346" lon="-1.8394561"><ele>157.75</ele><time>2026-03-22T16:57:43.923Z</time></trkpt><trkpt lat="53.6458684" lon="-1.8392605"><ele>156.5</ele><time>2026-03-22T16:57:44.923Z</time></trkpt><trkpt lat="53.6459208" lon="-1.8390701"><ele>155.25</ele><time>2026-03-22T16:57:45.924Z</time></trkpt><trkpt lat="53.6459831" lon="-1.8388764"><ele>154.0</ele><time>2026-03-22T16:57:46.922Z</time></trkpt><trkpt lat="53.6460538" lon="-1.8386728"><ele>153.0</ele><time>2026-03-22T16:57:47.922Z</time></trkpt><trkpt lat="53.6461201" lon="-1.8384509"><ele>152.0</ele><time>2026-03-22T16:57:48.926Z</time></trkpt><trkpt lat="53.6461771" lon="-1.8382113"><ele>151.0</ele><time>2026-03-22T16:57:49.924Z</time></trkpt><trkpt lat="53.6462144" lon="-1.8379526"><ele>150.5</ele><time>2026-03-22T16:57:50.923Z</time></trkpt><trkpt lat="53.6462285" lon="-1.8376877"><ele>150.0</ele><time>2026-03-22T16:57:51.923Z</time></trkpt><trkpt lat="53.6462215" lon="-1.837444"><ele>149.5</ele><time>2026-03-22T16:57:52.923Z</time></trkpt><trkpt lat="53.6461915" lon="-1.8372575"><ele>149.0</ele><time>2026-03-22T16:57:53.923Z</time></trkpt><trkpt lat="53.6461655" lon="-1.8371317"><ele>148.6</ele><time>2026-03-22T16:57:54.925Z</time></trkpt><trkpt lat="53.6461421" lon="-1.8370276"><ele>148.2</ele><time>2026-03-22T16:57:55.921Z</time></trkpt><trkpt lat="53.6461149" lon="-1.836827"><ele>147.79999999999998</ele><time>2026-03-22T16:57:57.92Z</time></trkpt><trkpt lat="53.6461038" lon="-1.8366967"><ele>147.4</ele><time>2026-03-22T16:57:58.919Z</time></trkpt><trkpt lat="53.6460885" lon="-1.8365025"><ele>147.0</ele><time>2026-03-22T16:57:59.922Z</time></trkpt><trkpt lat="53.6460689" lon="-1.8362752"><ele>144.25</ele><time>2026-03-22T16:58:00.921Z</time></trkpt><trkpt lat="53.6460436" lon="-1.8360474"><ele>141.5</ele><time>2026-03-22T16:58:01.919Z</time></trkpt><trkpt lat="53.6460013" lon="-1.835805"><ele>138.75</ele><time>2026-03-22T16:58:02.923Z</time></trkpt><trkpt lat="53.6459445" lon="-1.8355722"><ele>136.0</ele><time>2026-03-22T16:58:03.924Z</time></trkpt><trkpt lat="53.645877" lon="-1.8353455"><ele>135.5</ele><time>2026-03-22T16:58:04.924Z</time></trkpt><trkpt lat="53.6458003" lon="-1.8351155"><ele>135.0</ele><time>2026-03-22T16:58:05.915Z</time></trkpt><trkpt lat="53.6457292" lon="-1.834902"><ele>134.5</ele><time>2026-03-22T16:58:06.924Z</time></trkpt><trkpt lat="53.645671" lon="-1.8346875"><ele>134.0</ele><time>2026-03-22T16:58:07.924Z</time></trkpt><trkpt lat="53.6456242" lon="-1.8344752"><ele>134.75</ele><time>2026-03-22T16:58:08.919Z</time></trkpt><trkpt lat="53.6455851" lon="-1.8342676"><ele>135.5</ele><time>2026-03-22T16:58:09.919Z</time></trkpt><trkpt lat="53.6455605" lon="-1.8340618"><ele>136.25</ele><time>2026-03-22T16:58:10.923Z</time></trkpt><trkpt lat="53.6455598" lon="-1.8338463"><ele>137.0</ele><time>2026-03-22T16:58:11.921Z</time></trkpt><trkpt lat="53.645573" lon="-1.8336303"><ele>138.75</ele><time>2026-03-22T16:58:12.924Z</time></trkpt><trkpt lat="53.6455889" lon="-1.8334079"><ele>140.5</ele><time>2026-03-22T16:58:13.926Z</time></trkpt><trkpt lat="53.6456292" lon="-1.8331729"><ele>142.25</ele><time>2026-03-22T16:58:14.926Z</time></trkpt><trkpt lat="53.6456338" lon="-1.8329391"><ele>144.0</ele><time>2026-03-22T16:58:15.923Z</time></trkpt><trkpt lat="53.6456285" lon="-1.8327013"><ele>145.5</ele><time>2026-03-22T16:58:16.921Z</time></trkpt><trkpt lat="53.6456238" lon="-1.8324741"><ele>147.0</ele><time>2026-03-22T16:58:17.92Z</time></trkpt><trkpt lat="53.6456349" lon="-1.8322669"><ele>148.5</ele><time>2026-03-22T16:58:18.921Z</time></trkpt><trkpt lat="53.6456828" lon="-1.8320865"><ele>150.0</ele><time>2026-03-22T16:58:19.922Z</time></trkpt><trkpt lat="53.6457544" lon="-1.8319122"><ele>150.5</ele><time>2026-03-22T16:58:20.92Z</time></trkpt><trkpt lat="53.6458094" lon="-1.8317531"><ele>151.0</ele><time>2026-03-22T16:58:21.911Z</time></trkpt><trkpt lat="53.6458251" lon="-1.8316315"><ele>151.5</ele><time>2026-03-22T16:58:22.917Z</time></trkpt><trkpt lat="53.6457801" lon="-1.83147"><ele>152.0</ele><time>2026-03-22T16:58:24.918Z</time></trkpt><trkpt lat="53.6457932" lon="-1.8313593"><ele>152.5</ele><time>2026-03-22T16:58:27.919Z</time></trkpt><trkpt lat="53.645885" lon="-1.8313788"><ele>153.0</ele><time>2026-03-22T16:58:29.918Z</time></trkpt><trkpt lat="53.6459515" lon="-1.8314046"><ele>153.0</ele><time>2026-03-22T16:58:30.919Z</time></trkpt><trkpt lat="53.6460602" lon="-1.8315472"><ele>153.0</ele><time>2026-03-22T16:58:31.919Z</time></trkpt><trkpt lat="53.6461947" lon="-1.831757"><ele>153.0</ele><time>2026-03-22T16:58:32.918Z</time></trkpt><trkpt lat="53.6462981" lon="-1.8319534"><ele>157.66666666666666</ele><time>2026-03-22T16:58:33.919Z</time></trkpt><trkpt lat="53.6464009" lon="-1.8322061"><ele>162.33333333333331</ele><time>2026-03-22T16:58:34.919Z</time></trkpt><trkpt lat="53.6465042" lon="-1.8323992"><ele>167.0</ele><time>2026-03-22T16:58:35.92Z</time></trkpt><trkpt lat="53.6466209" lon="-1.8326018"><ele>165.0</ele><time>2026-03-22T16:58:36.919Z</time></trkpt><trkpt lat="53.6467336" lon="-1.8327993"><ele>163.0</ele><time>2026-03-22T16:58:37.918Z</time></trkpt><trkpt lat="53.6468506" lon="-1.8329814"><ele>161.0</ele><time>2026-03-22T16:58:38.916Z</time></trkpt><trkpt lat="53.6469507" lon="-1.8331533"><ele>165.25</ele><time>2026-03-22T16:58:39.917Z</time></trkpt><trkpt lat="53.6470422" lon="-1.8333413"><ele>169.5</ele><time>2026-03-22T16:58:40.92Z</time></trkpt><trkpt lat="53.6471576" lon="-1.8335051"><ele>173.75</ele><time>2026-03-22T16:58:41.916Z</time></trkpt><trkpt lat="53.6472714" lon="-1.833666"><ele>178.0</ele><time>2026-03-22T16:58:42.915Z</time></trkpt><trkpt lat="53.6473842" lon="-1.833831"><ele>178.0</ele><time>2026-03-22T16:58:43.917Z</time></trkpt><trkpt lat="53.6474991" lon="-1.8340256"><ele>178.0</ele><time>2026-03-22T16:58:44.915Z</time></trkpt><trkpt lat="53.6476028" lon="-1.8342183"><ele>178.0</ele><time>2026-03-22T16:58:45.916Z</time></trkpt><trkpt lat="53.6477041" lon="-1.8344205"><ele>181.5</ele><time>2026-03-22T16:58:46.919Z</time></trkpt><trkpt lat="53.6477994" lon="-1.8346155"><ele>185.0</ele><time>2026-03-22T16:58:47.92Z</time></trkpt><trkpt lat="53.647897" lon="-1.8348021"><ele>188.5</ele><time>2026-03-22T16:58:48.92Z</time></trkpt><trkpt lat="53.6480032" lon="-1.8349792"><ele>192.0</ele><time>2026-03-22T16:58:49.916Z</time></trkpt><trkpt lat="53.6481182" lon="-1.8351793"><ele>192.0</ele><time>2026-03-22T16:58:50.917Z</time></trkpt><trkpt lat="53.6482229" lon="-1.8353712"><ele>192.0</ele><time>2026-03-22T16:58:51.918Z</time></trkpt><trkpt lat="53.6483405" lon="-1.8355846"><ele>192.0</ele><time>2026-03-22T16:58:52.919Z</time></trkpt><trkpt lat="53.6484555" lon="-1.8357971"><ele>189.0</ele><time>2026-03-22T16:58:53.92Z</time></trkpt><trkpt lat="53.6485846" lon="-1.8360181"><ele>186.0</ele><time>2026-03-22T16:58:54.918Z</time></trkpt><trkpt lat="53.6487015" lon="-1.8362379"><ele>183.0</ele><time>2026-03-22T16:58:55.919Z</time></trkpt><trkpt lat="53.648828" lon="-1.8364564"><ele>190.0</ele><time>2026-03-22T16:58:56.923Z</time></trkpt><trkpt lat="53.6489534" lon="-1.8366611"><ele>197.0</ele><time>2026-03-22T16:58:57.92Z</time></trkpt><trkpt lat="53.6490713" lon="-1.8368739"><ele>204.0</ele><time>2026-03-22T16:58:58.924Z</time></trkpt><trkpt lat="53.6491846" lon="-1.8370575"><ele>204.0</ele><time>2026-03-22T16:58:59.921Z</time></trkpt><trkpt lat="53.6492923" lon="-1.8372077"><ele>204.0</ele><time>2026-03-22T16:59:00.922Z</time></trkpt><trkpt lat="53.6493863" lon="-1.8373068"><ele>204.0</ele><time>2026-03-22T16:59:01.929Z</time></trkpt><trkpt lat="53.6494719" lon="-1.8373572"><ele>204.0</ele><time>2026-03-22T16:59:02.927Z</time></trkpt><trkpt lat="53.6495434" lon="-1.8374239"><ele>204.0</ele><time>2026-03-22T16:59:03.924Z</time></trkpt><trkpt lat="53.6496143" lon="-1.8375229"><ele>206.39999999999998</ele><time>2026-03-22T16:59:04.925Z</time></trkpt><trkpt lat="53.6496831" lon="-1.8376344"><ele>208.8</ele><time>2026-03-22T16:59:05.925Z</time></trkpt><trkpt lat="53.6497477" lon="-1.8377803"><ele>211.20000000000002</ele><time>2026-03-22T16:59:06.924Z</time></trkpt><trkpt lat="53.6498116" lon="-1.8379433"><ele>213.60000000000002</ele><time>2026-03-22T16:59:07.926Z</time></trkpt><trkpt lat="53.6498796" lon="-1.8381245"><ele>216.0</ele><time>2026-03-22T16:59:08.925Z</time></trkpt><trkpt lat="53.6499662" lon="-1.8383177"><ele>214.5</ele><time>2026-03-22T16:59:09.924Z</time></trkpt><trkpt lat="53.6500583" lon="-1.8385222"><ele>213.0</ele><time>2026-03-22T16:59:10.924Z</time></trkpt><trkpt lat="53.6501512" lon="-1.838732"><ele>211.5</ele><time>2026-03-22T16:59:11.925Z</time></trkpt><trkpt lat="53.6502362" lon="-1.8389238"><ele>210.0</ele><time>2026-03-22T16:59:12.922Z</time></trkpt><trkpt lat="53.6503092" lon="-1.8390906"><ele>211.8</ele><time>2026-03-22T16:59:13.925Z</time></trkpt><trkpt lat="53.6503547" lon="-1.8392207"><ele>213.6</ele><time>2026-03-22T16:59:14.923Z</time></trkpt><trkpt lat="53.6504051" lon="-1.8393907"><ele>215.39999999999998</ele><time>2026-03-22T16:59:16.925Z</time></trkpt><trkpt lat="53.6504619" lon="-1.8395244"><ele>217.2</ele><time>2026-03-22T16:59:18.924Z</time></trkpt><trkpt lat="53.6505216" lon="-1.8396748"><ele>219.0</ele><time>2026-03-22T16:59:20.923Z</time></trkpt><trkpt lat="53.6505717" lon="-1.8398618"><ele>219.0</ele><time>2026-03-22T16:59:22.925Z</time></trkpt><trkpt lat="53.6506009" lon="-1.8399641"><ele>219.0</ele><time>2026-03-22T16:59:23.922Z</time></trkpt><trkpt lat="53.6506369" lon="-1.8400524"><ele>219.0</ele><time>2026-03-22T16:59:24.922Z</time></trkpt><trkpt lat="53.650715" lon="-1.8402205"><ele>219.0</ele><time>2026-03-22T16:59:26.923Z</time></trkpt><trkpt lat="53.6507595" lon="-1.8403194"><ele>219.0</ele><time>2026-03-22T16:59:27.924Z</time></trkpt><trkpt lat="53.6508151" lon="-1.8404381"><ele>219.0</ele><time>2026-03-22T16:59:28.924Z</time></trkpt><trkpt lat="53.650882" lon="-1.8405876"><ele>218.5</ele><time>2026-03-22T16:59:29.922Z</time></trkpt><trkpt lat="53.6509539" lon="-1.8407602"><ele>218.0</ele><time>2026-03-22T16:59:30.923Z</time></trkpt><trkpt lat="53.6510309" lon="-1.8409492"><ele>217.5</ele><time>2026-03-22T16:59:31.924Z</time></trkpt><trkpt lat="53.6511148" lon="-1.8411586"><ele>217.0</ele><time>2026-03-22T16:59:32.927Z</time></trkpt><trkpt lat="53.6512021" lon="-1.8413724"><ele>218.39999999999998</ele><time>2026-03-22T16:59:33.925Z</time></trkpt><trkpt lat="53.65128" lon="-1.8415589"><ele>219.79999999999998</ele><time>2026-03-22T16:59:34.924Z</time></trkpt><trkpt lat="53.6513426" lon="-1.8417025"><ele>221.2</ele><time>2026-03-22T16:59:35.925Z</time></trkpt><trkpt lat="53.6513929" lon="-1.8418067"><ele>222.6</ele><time>2026-03-22T16:59:36.925Z</time></trkpt><trkpt lat="53.6514362" lon="-1.8418913"><ele>224.0</ele><time>2026-03-22T16:59:37.923Z</time></trkpt><trkpt lat="53.6514859" lon="-1.8419744"><ele>224.0</ele><time>2026-03-22T16:59:38.924Z</time></trkpt><trkpt lat="53.6515406" lon="-1.8420779"><ele>224.0</ele><time>2026-03-22T16:59:39.925Z</time></trkpt><trkpt lat="53.6516055" lon="-1.842209"><ele>224.0</ele><time>2026-03-22T16:59:40.925Z</time></trkpt><trkpt lat="53.6516939" lon="-1.8423643"><ele>224.0</ele><time>2026-03-22T16:59:41.92Z</time></trkpt><trkpt lat="53.6517978" lon="-1.8425385"><ele>226.33333333333334</ele><time>2026-03-22T16:59:42.922Z</time></trkpt><trkpt lat="53.6519063" lon="-1.8427326"><ele>228.66666666666669</ele><time>2026-03-22T16:59:43.924Z</time></trkpt><trkpt lat="53.6520283" lon="-1.842927"><ele>231.0</ele><time>2026-03-22T16:59:44.922Z</time></trkpt><trkpt lat="53.6521623" lon="-1.8431303"><ele>231.0</ele><time>2026-03-22T16:59:45.923Z</time></trkpt><trkpt lat="53.652293" lon="-1.8433514"><ele>231.0</ele><time>2026-03-22T16:59:46.919Z</time></trkpt><trkpt lat="53.6524289" lon="-1.8435967"><ele>231.0</ele><time>2026-03-22T16:59:47.92Z</time></trkpt><trkpt lat="53.652567" lon="-1.8438556"><ele>228.66666666666669</ele><time>2026-03-22T16:59:48.921Z</time></trkpt><trkpt lat="53.6527032" lon="-1.8441186"><ele>226.33333333333334</ele><time>2026-03-22T16:59:49.922Z</time></trkpt><trkpt lat="53.6528356" lon="-1.8443791"><ele>224.0</ele><time>2026-03-22T16:59:50.921Z</time></trkpt><trkpt lat="53.6529611" lon="-1.8446373"><ele>226.66666666666669</ele><time>2026-03-22T16:59:51.922Z</time></trkpt><trkpt lat="53.6530791" lon="-1.8448845"><ele>229.33333333333331</ele><time>2026-03-22T16:59:52.919Z</time></trkpt><trkpt lat="53.6531912" lon="-1.8451203"><ele>232.0</ele><time>2026-03-22T16:59:53.922Z</time></trkpt><trkpt lat="53.653297" lon="-1.8453451"><ele>232.0</ele><time>2026-03-22T16:59:54.921Z</time></trkpt><trkpt lat="53.6533976" lon="-1.8455636"><ele>232.0</ele><time>2026-03-22T16:59:55.922Z</time></trkpt><trkpt lat="53.6534984" lon="-1.8457736"><ele>232.0</ele><time>2026-03-22T16:59:56.922Z</time></trkpt><trkpt lat="53.6536016" lon="-1.8459745"><ele>234.5</ele><time>2026-03-22T16:59:57.923Z</time></trkpt><trkpt lat="53.6536974" lon="-1.8461604"><ele>237.0</ele><time>2026-03-22T16:59:58.923Z</time></trkpt><trkpt lat="53.6537946" lon="-1.846346"><ele>239.5</ele><time>2026-03-22T16:59:59.923Z</time></trkpt><trkpt lat="53.6538873" lon="-1.8464958"><ele>242.0</ele><time>2026-03-22T17:00:00.921Z</time></trkpt><trkpt lat="53.6539549" lon="-1.8466074"><ele>242.0</ele><time>2026-03-22T17:00:01.915Z</time></trkpt><trkpt lat="53.6540107" lon="-1.8466804"><ele>242.0</ele><time>2026-03-22T17:00:03.916Z</time></trkpt><trkpt lat="53.6541074" lon="-1.8468371"><ele>242.0</ele><time>2026-03-22T17:00:13.924Z</time></trkpt><trkpt lat="53.6541745" lon="-1.846967"><ele>242.0</ele><time>2026-03-22T17:00:14.923Z</time></trkpt><trkpt lat="53.6542516" lon="-1.8470986"><ele>242.0</ele><time>2026-03-22T17:00:15.923Z</time></trkpt><trkpt lat="53.6543271" lon="-1.8472006"><ele>241.39999999999998</ele><time>2026-03-22T17:00:16.922Z</time></trkpt><trkpt lat="53.6543793" lon="-1.8472726"><ele>240.79999999999998</ele><time>2026-03-22T17:00:17.921Z</time></trkpt><trkpt lat="53.6544478" lon="-1.8473329"><ele>240.2</ele><time>2026-03-22T17:00:19.92Z</time></trkpt><trkpt lat="53.6545352" lon="-1.8473631"><ele>239.6</ele><time>2026-03-22T17:00:21.923Z</time></trkpt><trkpt lat="53.6546509" lon="-1.8472289"><ele>239.0</ele><time>2026-03-22T17:00:23.922Z</time></trkpt><trkpt lat="53.6547199" lon="-1.8471005"><ele>242.66666666666669</ele><time>2026-03-22T17:00:24.922Z</time></trkpt><trkpt lat="53.6548065" lon="-1.8469458"><ele>246.33333333333331</ele><time>2026-03-22T17:00:25.923Z</time></trkpt><trkpt lat="53.6549142" lon="-1.8467608"><ele>250.0</ele><time>2026-03-22T17:00:26.922Z</time></trkpt><trkpt lat="53.6550347" lon="-1.8465411"><ele>250.0</ele><time>2026-03-22T17:00:27.923Z</time></trkpt><trkpt lat="53.6551518" lon="-1.8463251"><ele>250.0</ele><time>2026-03-22T17:00:28.925Z</time></trkpt><trkpt lat="53.6552718" lon="-1.8461116"><ele>250.0</ele><time>2026-03-22T17:00:29.923Z</time></trkpt><trkpt lat="53.6553836" lon="-1.8459126"><ele>250.0</ele><time>2026-03-22T17:00:30.923Z</time></trkpt><trkpt lat="53.6554953" lon="-1.8457166"><ele>250.0</ele><time>2026-03-22T17:00:31.925Z</time></trkpt><trkpt lat="53.6556019" lon="-1.8455207"><ele>250.0</ele><time>2026-03-22T17:00:32.924Z</time></trkpt><trkpt lat="53.6557106" lon="-1.8453225"><ele>250.0</ele><time>2026-03-22T17:00:33.925Z</time></trkpt><trkpt lat="53.655823" lon="-1.8451331"><ele>250.0</ele><time>2026-03-22T17:00:34.926Z</time></trkpt><trkpt lat="53.655935" lon="-1.8449481"><ele>250.0</ele><time>2026-03-22T17:00:35.921Z</time></trkpt><trkpt lat="53.6560465" lon="-1.8447584"><ele>249.75</ele><time>2026-03-22T17:00:36.922Z</time></trkpt><trkpt lat="53.6561527" lon="-1.8445723"><ele>249.5</ele><time>2026-03-22T17:00:37.926Z</time></trkpt><trkpt lat="53.6562508" lon="-1.8444017"><ele>249.25</ele><time>2026-03-22T17:00:38.922Z</time></trkpt><trkpt lat="53.6563381" lon="-1.8442568"><ele>249.0</ele><time>2026-03-22T17:00:39.925Z</time></trkpt><trkpt lat="53.6564142" lon="-1.8441426"><ele>248.6</ele><time>2026-03-22T17:00:40.925Z</time></trkpt><trkpt lat="53.656473" lon="-1.844061"><ele>248.2</ele><time>2026-03-22T17:00:41.917Z</time></trkpt><trkpt lat="53.6565528" lon="-1.8439752"><ele>247.79999999999998</ele><time>2026-03-22T17:00:43.925Z</time></trkpt><trkpt lat="53.6566255" lon="-1.8439228"><ele>247.39999999999998</ele><time>2026-03-22T17:00:47.925Z</time></trkpt><trkpt lat="53.656661" lon="-1.843736"><ele>247.0</ele><time>2026-03-22T17:00:49.927Z</time></trkpt><trkpt lat="53.6566519" lon="-1.8435677"><ele>246.33333333333331</ele><time>2026-03-22T17:00:50.923Z</time></trkpt><trkpt lat="53.6566211" lon="-1.8433242"><ele>245.66666666666669</ele><time>2026-03-22T17:00:51.923Z</time></trkpt><trkpt lat="53.6565725" lon="-1.8430837"><ele>245.0</ele><time>2026-03-22T17:00:52.924Z</time></trkpt><trkpt lat="53.6565238" lon="-1.8428352"><ele>244.6</ele><time>2026-03-22T17:00:53.927Z</time></trkpt><trkpt lat="53.6564778" lon="-1.8426219"><ele>244.2</ele><time>2026-03-22T17:00:54.925Z</time></trkpt><trkpt lat="53.6564333" lon="-1.8424373"><ele>243.8</ele><time>2026-03-22T17:00:55.927Z</time></trkpt><trkpt lat="53.6563844" lon="-1.8423007"><ele>243.4</ele><time>2026-03-22T17:00:56.924Z</time></trkpt><trkpt lat="53.6563238" lon="-1.8422217"><ele>243.0</ele><time>2026-03-22T17:00:57.923Z</time></trkpt><trkpt lat="53.6562598" lon="-1.8422067"><ele>243.0</ele><time>2026-03-22T17:00:58.923Z</time></trkpt><trkpt lat="53.6561831" lon="-1.8423862"><ele>243.0</ele><time>2026-03-22T17:01:00.922Z</time></trkpt><trkpt lat="53.6561703" lon="-1.8425392"><ele>243.0</ele><time>2026-03-22T17:01:02.924Z</time></trkpt><trkpt lat="53.6562168" lon="-1.8426534"><ele>243.0</ele><time>2026-03-22T17:01:05.923Z</time></trkpt><trkpt lat="53.6562183" lon="-1.8427791"><ele>243.0</ele><time>2026-03-22T17:02:40.927Z</time></trkpt><trkpt lat="53.6562028" lon="-1.8428843"><ele>243.0</ele><time>2026-03-22T17:02:46.917Z</time></trkpt><trkpt lat="53.656205" lon="-1.8427385"><ele>243.0</ele><time>2026-03-22T17:03:12.923Z</time></trkpt><trkpt lat="53.6562361" lon="-1.8426392"><ele>243.0</ele><time>2026-03-22T17:03:18.927Z</time></trkpt><trkpt lat="53.6561641" lon="-1.8426128"><ele>243.0</ele><time>2026-03-22T17:03:46.922Z</time></trkpt><trkpt lat="53.6562181" lon="-1.8427002"><ele>243.0</ele><time>2026-03-22T17:04:05.924Z</time></trkpt><trkpt lat="53.6561963" lon="-1.8428296"><ele>243.0</ele><time>2026-03-22T17:04:09.923Z</time></trkpt><trkpt lat="53.6562732" lon="-1.8428027"><ele>243.0</ele><time>2026-03-22T17:05:48.921Z</time></trkpt><trkpt lat="53.6563575" lon="-1.8429025"><ele>243.5</ele><time>2026-03-22T17:05:51.926Z</time></trkpt><trkpt lat="53.6563907" lon="-1.8430223"><ele>244.0</ele><time>2026-03-22T17:05:52.926Z</time></trkpt><trkpt lat="53.6564314" lon="-1.8432159"><ele>244.5</ele><time>2026-03-22T17:05:53.921Z</time></trkpt><trkpt lat="53.6564777" lon="-1.8434736"><ele>245.0</ele><time>2026-03-22T17:05:54.924Z</time></trkpt><trkpt lat="53.656529" lon="-1.8437799"><ele>245.66666666666669</ele><time>2026-03-22T17:05:55.924Z</time></trkpt><trkpt lat="53.6565969" lon="-1.8441244"><ele>246.33333333333331</ele><time>2026-03-22T17:05:56.924Z</time></trkpt><trkpt lat="53.6566622" lon="-1.8444795"><ele>247.0</ele><time>2026-03-22T17:05:57.924Z</time></trkpt><trkpt lat="53.6567193" lon="-1.8448054"><ele>247.66666666666666</ele><time>2026-03-22T17:05:58.927Z</time></trkpt><trkpt lat="53.6567701" lon="-1.8451063"><ele>248.33333333333331</ele><time>2026-03-22T17:05:59.923Z</time></trkpt><trkpt lat="53.6568191" lon="-1.8453901"><ele>249.0</ele><time>2026-03-22T17:06:00.924Z</time></trkpt><trkpt lat="53.6568653" lon="-1.8456629"><ele>249.33333333333331</ele><time>2026-03-22T17:06:01.92Z</time></trkpt><trkpt lat="53.6569062" lon="-1.8459331"><ele>249.66666666666666</ele><time>2026-03-22T17:06:02.928Z</time></trkpt><trkpt lat="53.6569465" lon="-1.8462085"><ele>250.0</ele><time>2026-03-22T17:06:03.925Z</time></trkpt><trkpt lat="53.6569881" lon="-1.8464859"><ele>251.0</ele><time>2026-03-22T17:06:04.927Z</time></trkpt><trkpt lat="53.6570298" lon="-1.8467601"><ele>252.0</ele><time>2026-03-22T17:06:05.928Z</time></trkpt><trkpt lat="53.6570727" lon="-1.8470301"><ele>253.0</ele><time>2026-03-22T17:06:06.927Z</time></trkpt><trkpt lat="53.6571133" lon="-1.8472972"><ele>254.0</ele><time>2026-03-22T17:06:07.928Z</time></trkpt><trkpt lat="53.6571518" lon="-1.8475576"><ele>255.0</ele><time>2026-03-22T17:06:08.926Z</time></trkpt><trkpt lat="53.6571911" lon="-1.8478121"><ele>256.0</ele><time>2026-03-22T17:06:09.926Z</time></trkpt><trkpt lat="53.657229" lon="-1.8480599"><ele>256.5</ele><time>2026-03-22T17:06:10.928Z</time></trkpt><trkpt lat="53.6572667" lon="-1.8482923"><ele>257.0</ele><time>2026-03-22T17:06:11.923Z</time></trkpt><trkpt lat="53.6573023" lon="-1.8485049"><ele>257.5</ele><time>2026-03-22T17:06:12.922Z</time></trkpt><trkpt lat="53.657336" lon="-1.8487025"><ele>258.0</ele><time>2026-03-22T17:06:13.922Z</time></trkpt><trkpt lat="53.6573701" lon="-1.8488941"><ele>258.25</ele><time>2026-03-22T17:06:14.923Z</time></trkpt><trkpt lat="53.6574042" lon="-1.8490894"><ele>258.5</ele><time>2026-03-22T17:06:15.926Z</time></trkpt><trkpt lat="53.6574384" lon="-1.8492774"><ele>258.75</ele><time>2026-03-22T17:06:16.926Z</time></trkpt><trkpt lat="53.6574719" lon="-1.8494664"><ele>259.0</ele><time>2026-03-22T17:06:17.925Z</time></trkpt><trkpt lat="53.6575063" lon="-1.8496587"><ele>259.5</ele><time>2026-03-22T17:06:18.925Z</time></trkpt><trkpt lat="53.6575441" lon="-1.8498582"><ele>260.0</ele><time>2026-03-22T17:06:19.925Z</time></trkpt><trkpt lat="53.6575829" lon="-1.8500723"><ele>260.5</ele><time>2026-03-22T17:06:20.925Z</time></trkpt><trkpt lat="53.6576242" lon="-1.8502918"><ele>261.0</ele><time>2026-03-22T17:06:21.927Z</time></trkpt><trkpt lat="53.6576636" lon="-1.850509"><ele>261.0</ele><time>2026-03-22T17:06:22.926Z</time></trkpt><trkpt lat="53.6576995" lon="-1.8507157"><ele>261.0</ele><time>2026-03-22T17:06:23.924Z</time></trkpt><trkpt lat="53.657738" lon="-1.8509121"><ele>261.0</ele><time>2026-03-22T17:06:24.925Z</time></trkpt><trkpt lat="53.6577715" lon="-1.851105"><ele>261.0</ele><time>2026-03-22T17:06:25.925Z</time></trkpt><trkpt lat="53.6578005" lon="-1.8512926"><ele>262.0</ele><time>2026-03-22T17:06:26.926Z</time></trkpt><trkpt lat="53.6578267" lon="-1.851468"><ele>263.0</ele><time>2026-03-22T17:06:27.925Z</time></trkpt><trkpt lat="53.6578496" lon="-1.8516243"><ele>264.0</ele><time>2026-03-22T17:06:28.924Z</time></trkpt><trkpt lat="53.6578649" lon="-1.8517597"><ele>265.0</ele><time>2026-03-22T17:06:29.924Z</time></trkpt><trkpt lat="53.6578668" lon="-1.8518785"><ele>266.0</ele><time>2026-03-22T17:06:30.924Z</time></trkpt><trkpt lat="53.6578513" lon="-1.8520832"><ele>266.0</ele><time>2026-03-22T17:06:32.928Z</time></trkpt><trkpt lat="53.6578503" lon="-1.8522105"><ele>266.0</ele><time>2026-03-22T17:06:33.93Z</time></trkpt><trkpt lat="53.6578694" lon="-1.8523664"><ele>266.0</ele><time>2026-03-22T17:06:34.928Z</time></trkpt><trkpt lat="53.6579214" lon="-1.8525426"><ele>266.0</ele><time>2026-03-22T17:06:35.927Z</time></trkpt><trkpt lat="53.6580004" lon="-1.8527309"><ele>266.0</ele><time>2026-03-22T17:06:36.93Z</time></trkpt><trkpt lat="53.6580859" lon="-1.8529445"><ele>265.25</ele><time>2026-03-22T17:06:37.927Z</time></trkpt><trkpt lat="53.6581589" lon="-1.8531744"><ele>264.5</ele><time>2026-03-22T17:06:38.929Z</time></trkpt><trkpt lat="53.6582039" lon="-1.8533946"><ele>263.75</ele><time>2026-03-22T17:06:39.928Z</time></trkpt><trkpt lat="53.6582379" lon="-1.8536037"><ele>263.0</ele><time>2026-03-22T17:06:40.926Z</time></trkpt><trkpt lat="53.6582596" lon="-1.8537815"><ele>262.33333333333337</ele><time>2026-03-22T17:06:41.921Z</time></trkpt><trkpt lat="53.6582597" lon="-1.8539331"><ele>261.6666666666667</ele><time>2026-03-22T17:06:42.923Z</time></trkpt><trkpt lat="53.6582513" lon="-1.8540739"><ele>261.0</ele><time>2026-03-22T17:06:43.926Z</time></trkpt><trkpt lat="53.6582311" lon="-1.8542165"><ele>260.3333333333333</ele><time>2026-03-22T17:06:44.924Z</time></trkpt><trkpt lat="53.6582067" lon="-1.8543517"><ele>259.66666666666663</ele><time>2026-03-22T17:06:45.923Z</time></trkpt><trkpt lat="53.6581831" lon="-1.8544833"><ele>259.0</ele><time>2026-03-22T17:06:46.923Z</time></trkpt><trkpt lat="53.6581555" lon="-1.8546228"><ele>259.0</ele><time>2026-03-22T17:06:47.923Z</time></trkpt><trkpt lat="53.6581284" lon="-1.8547691"><ele>259.0</ele><time>2026-03-22T17:06:48.922Z</time></trkpt><trkpt lat="53.6581079" lon="-1.8549416"><ele>259.0</ele><time>2026-03-22T17:06:49.922Z</time></trkpt><trkpt lat="53.6580866" lon="-1.8550992"><ele>259.0</ele><time>2026-03-22T17:06:50.92Z</time></trkpt><trkpt lat="53.658064" lon="-1.8552499"><ele>259.0</ele><time>2026-03-22T17:06:51.92Z</time></trkpt><trkpt lat="53.6580357" lon="-1.8553871"><ele>259.0</ele><time>2026-03-22T17:06:52.921Z</time></trkpt><trkpt lat="53.6580011" lon="-1.8555154"><ele>259.0</ele><time>2026-03-22T17:06:53.924Z</time></trkpt><trkpt lat="53.6579656" lon="-1.8556323"><ele>259.0</ele><time>2026-03-22T17:06:54.919Z</time></trkpt><trkpt lat="53.6579311" lon="-1.8557469"><ele>259.0</ele><time>2026-03-22T17:06:55.921Z</time></trkpt><trkpt lat="53.6578972" lon="-1.8558581"><ele>259.0</ele><time>2026-03-22T17:06:56.921Z</time></trkpt><trkpt lat="53.6578599" lon="-1.8559766"><ele>259.0</ele><time>2026-03-22T17:06:57.92Z</time></trkpt><trkpt lat="53.6578229" lon="-1.8560905"><ele>259.59999999999997</ele><time>2026-03-22T17:06:58.922Z</time></trkpt><trkpt lat="53.6577889" lon="-1.8561803"><ele>260.2</ele><time>2026-03-22T17:06:59.92Z</time></trkpt><trkpt lat="53.6577006" lon="-1.8562807"><ele>260.79999999999995</ele><time>2026-03-22T17:07:01.919Z</time></trkpt><trkpt lat="53.6576209" lon="-1.8562421"><ele>261.4</ele><time>2026-03-22T17:07:02.926Z</time></trkpt><trkpt lat="53.6575303" lon="-1.8561679"><ele>262.0</ele><time>2026-03-22T17:07:03.926Z</time></trkpt><trkpt lat="53.6574347" lon="-1.8561093"><ele>259.4</ele><time>2026-03-22T17:07:04.927Z</time></trkpt><trkpt lat="53.6573461" lon="-1.8560919"><ele>256.79999999999995</ele><time>2026-03-22T17:07:05.924Z</time></trkpt><trkpt lat="53.6572575" lon="-1.8561145"><ele>254.2</ele><time>2026-03-22T17:07:06.925Z</time></trkpt><trkpt lat="53.6571695" lon="-1.8561765"><ele>251.6</ele><time>2026-03-22T17:07:07.924Z</time></trkpt><trkpt lat="53.6571245" lon="-1.856299"><ele>249.0</ele><time>2026-03-22T17:07:08.926Z</time></trkpt><trkpt lat="53.6570883" lon="-1.8564501"><ele>249.0</ele><time>2026-03-22T17:07:09.926Z</time></trkpt><trkpt lat="53.6570546" lon="-1.8565959"><ele>248.99999999999997</ele><time>2026-03-22T17:07:10.924Z</time></trkpt><trkpt lat="53.6570166" lon="-1.8567388"><ele>248.99999999999997</ele><time>2026-03-22T17:07:11.921Z</time></trkpt><trkpt lat="53.6569869" lon="-1.8568846"><ele>249.0</ele><time>2026-03-22T17:07:12.922Z</time></trkpt><trkpt lat="53.6569621" lon="-1.8570443"><ele>249.0</ele><time>2026-03-22T17:07:13.924Z</time></trkpt><trkpt lat="53.6569416" lon="-1.8572181"><ele>245.79999999999998</ele><time>2026-03-22T17:07:14.925Z</time></trkpt><trkpt lat="53.6569243" lon="-1.8573742"><ele>242.59999999999997</ele><time>2026-03-22T17:07:15.924Z</time></trkpt><trkpt lat="53.6569086" lon="-1.8575267"><ele>239.4</ele><time>2026-03-22T17:07:16.924Z</time></trkpt><trkpt lat="53.6568984" lon="-1.8576764"><ele>236.2</ele><time>2026-03-22T17:07:17.923Z</time></trkpt><trkpt lat="53.6568885" lon="-1.8578451"><ele>233.0</ele><time>2026-03-22T17:07:18.924Z</time></trkpt><trkpt lat="53.6568977" lon="-1.8580023"><ele>233.0</ele><time>2026-03-22T17:07:19.919Z</time></trkpt><trkpt lat="53.6568828" lon="-1.8581381"><ele>233.0</ele><time>2026-03-22T17:07:20.923Z</time></trkpt><trkpt lat="53.656872" lon="-1.8582531"><ele>233.0</ele><time>2026-03-22T17:07:21.921Z</time></trkpt><trkpt lat="53.6568451" lon="-1.8584447"><ele>233.0</ele><time>2026-03-22T17:07:23.923Z</time></trkpt><trkpt lat="53.6567846" lon="-1.8585753"><ele>233.0</ele><time>2026-03-22T17:07:25.927Z</time></trkpt><trkpt lat="53.6566735" lon="-1.8586133"><ele>232.8</ele><time>2026-03-22T17:07:27.922Z</time></trkpt><trkpt lat="53.6565515" lon="-1.8585695"><ele>232.60000000000002</ele><time>2026-03-22T17:07:29.925Z</time></trkpt><trkpt lat="53.6564566" lon="-1.8585342"><ele>232.39999999999998</ele><time>2026-03-22T17:07:31.932Z</time></trkpt><trkpt lat="53.6563255" lon="-1.8585547"><ele>232.2</ele><time>2026-03-22T17:07:33.926Z</time></trkpt><trkpt lat="53.6562442" lon="-1.858596"><ele>232.0</ele><time>2026-03-22T17:07:34.926Z</time></trkpt><trkpt lat="53.6561612" lon="-1.8586828"><ele>229.0</ele><time>2026-03-22T17:07:35.927Z</time></trkpt><trkpt lat="53.6560809" lon="-1.8588096"><ele>226.0</ele><time>2026-03-22T17:07:36.931Z</time></trkpt><trkpt lat="53.6560115" lon="-1.8589478"><ele>223.0</ele><time>2026-03-22T17:07:37.92Z</time></trkpt><trkpt lat="53.6559502" lon="-1.8590836"><ele>220.0</ele><time>2026-03-22T17:07:38.929Z</time></trkpt><trkpt lat="53.6558958" lon="-1.8592027"><ele>217.0</ele><time>2026-03-22T17:07:39.927Z</time></trkpt><trkpt lat="53.6558419" lon="-1.8593066"><ele>217.0</ele><time>2026-03-22T17:07:40.926Z</time></trkpt><trkpt lat="53.6557922" lon="-1.8593935"><ele>217.0</ele><time>2026-03-22T17:07:41.922Z</time></trkpt><trkpt lat="53.6557405" lon="-1.8594614"><ele>217.0</ele><time>2026-03-22T17:07:42.923Z</time></trkpt><trkpt lat="53.6556842" lon="-1.8595165"><ele>217.0</ele><time>2026-03-22T17:07:43.926Z</time></trkpt><trkpt lat="53.6556236" lon="-1.8595607"><ele>217.0</ele><time>2026-03-22T17:07:44.923Z</time></trkpt><trkpt lat="53.6555605" lon="-1.8596003"><ele>217.0</ele><time>2026-03-22T17:07:45.925Z</time></trkpt><trkpt lat="53.6554998" lon="-1.8596336"><ele>217.0</ele><time>2026-03-22T17:07:46.925Z</time></trkpt><trkpt lat="53.6554302" lon="-1.8597057"><ele>217.0</ele><time>2026-03-22T17:07:48.924Z</time></trkpt><trkpt lat="53.6554064" lon="-1.8599011"><ele>217.0</ele><time>2026-03-22T17:07:50.924Z</time></trkpt><trkpt lat="53.6553811" lon="-1.8601023"><ele>217.0</ele><time>2026-03-22T17:07:52.924Z</time></trkpt><trkpt lat="53.6553651" lon="-1.8602269"><ele>217.0</ele><time>2026-03-22T17:07:53.917Z</time></trkpt><trkpt lat="53.6553485" lon="-1.8603971"><ele>217.0</ele><time>2026-03-22T17:07:54.923Z</time></trkpt><trkpt lat="53.6553266" lon="-1.8606015"><ele>217.75</ele><time>2026-03-22T17:07:55.921Z</time></trkpt><trkpt lat="53.6553112" lon="-1.8608117"><ele>218.5</ele><time>2026-03-22T17:07:56.921Z</time></trkpt><trkpt lat="53.6552974" lon="-1.8610146"><ele>219.25</ele><time>2026-03-22T17:07:57.921Z</time></trkpt><trkpt lat="53.6552998" lon="-1.8611967"><ele>220.0</ele><time>2026-03-22T17:07:58.924Z</time></trkpt><trkpt lat="53.6553194" lon="-1.8613585"><ele>220.0</ele><time>2026-03-22T17:07:59.924Z</time></trkpt><trkpt lat="53.6553537" lon="-1.8614882"><ele>220.0</ele><time>2026-03-22T17:08:00.921Z</time></trkpt><trkpt lat="53.655403" lon="-1.8616268"><ele>220.0</ele><time>2026-03-22T17:08:02.925Z</time></trkpt><trkpt lat="53.6552848" lon="-1.8616421"><ele>220.0</ele><time>2026-03-22T17:08:06.929Z</time></trkpt><trkpt lat="53.6552068" lon="-1.8615982"><ele>220.0</ele><time>2026-03-22T17:08:07.926Z</time></trkpt><trkpt lat="53.6551376" lon="-1.8615245"><ele>220.6</ele><time>2026-03-22T17:08:08.93Z</time></trkpt><trkpt lat="53.655069" lon="-1.8614216"><ele>221.2</ele><time>2026-03-22T17:08:09.928Z</time></trkpt><trkpt lat="53.6550141" lon="-1.8613405"><ele>221.8</ele><time>2026-03-22T17:08:10.928Z</time></trkpt><trkpt lat="53.6549173" lon="-1.8612901"><ele>222.4</ele><time>2026-03-22T17:08:12.922Z</time></trkpt><trkpt lat="53.6548229" lon="-1.8613905"><ele>223.0</ele><time>2026-03-22T17:08:14.921Z</time></trkpt><trkpt lat="53.6547572" lon="-1.8615672"><ele>222.99999999999997</ele><time>2026-03-22T17:08:16.922Z</time></trkpt><trkpt lat="53.6547468" lon="-1.8616868"><ele>223.0</ele><time>2026-03-22T17:08:17.924Z</time></trkpt><trkpt lat="53.6547333" lon="-1.8618152"><ele>223.0</ele><time>2026-03-22T17:08:18.925Z</time></trkpt><trkpt lat="53.6547071" lon="-1.861947"><ele>223.0</ele><time>2026-03-22T17:08:19.922Z</time></trkpt><trkpt lat="53.6546729" lon="-1.8620606"><ele>222.99999999999997</ele><time>2026-03-22T17:08:20.92Z</time></trkpt><trkpt lat="53.6546341" lon="-1.8621685"><ele>223.0</ele><time>2026-03-22T17:08:21.923Z</time></trkpt><trkpt lat="53.6545974" lon="-1.8622666"><ele>223.57142857142856</ele><time>2026-03-22T17:08:22.924Z</time></trkpt><trkpt lat="53.6545674" lon="-1.8623721"><ele>224.14285714285714</ele><time>2026-03-22T17:08:23.924Z</time></trkpt><trkpt lat="53.6545302" lon="-1.8624904"><ele>224.71428571428572</ele><time>2026-03-22T17:08:24.924Z</time></trkpt><trkpt lat="53.6544878" lon="-1.8625992"><ele>225.28571428571428</ele><time>2026-03-22T17:08:25.924Z</time></trkpt><trkpt lat="53.6544502" lon="-1.8626954"><ele>225.8571428571429</ele><time>2026-03-22T17:08:26.924Z</time></trkpt><trkpt lat="53.6544127" lon="-1.862798"><ele>226.42857142857144</ele><time>2026-03-22T17:08:27.925Z</time></trkpt><trkpt lat="53.6543813" lon="-1.8628971"><ele>227.0</ele><time>2026-03-22T17:08:28.925Z</time></trkpt><trkpt lat="53.6543504" lon="-1.8629911"><ele>229.16666666666669</ele><time>2026-03-22T17:08:29.924Z</time></trkpt><trkpt lat="53.6542937" lon="-1.8631641"><ele>231.33333333333334</ele><time>2026-03-22T17:08:31.93Z</time></trkpt><trkpt lat="53.6542331" lon="-1.8633307"><ele>233.5</ele><time>2026-03-22T17:08:33.928Z</time></trkpt><trkpt lat="53.6542001" lon="-1.8634272"><ele>235.66666666666669</ele><time>2026-03-22T17:08:34.93Z</time></trkpt><trkpt lat="53.6541674" lon="-1.8635241"><ele>237.83333333333334</ele><time>2026-03-22T17:08:35.928Z</time></trkpt><trkpt lat="53.6541372" lon="-1.8636245"><ele>240.0</ele><time>2026-03-22T17:08:36.926Z</time></trkpt><trkpt lat="53.6541081" lon="-1.8637253"><ele>240.16666666666666</ele><time>2026-03-22T17:08:37.926Z</time></trkpt><trkpt lat="53.654081" lon="-1.8638239"><ele>240.33333333333331</ele><time>2026-03-22T17:08:38.92Z</time></trkpt><trkpt lat="53.6540383" lon="-1.8639965"><ele>240.5</ele><time>2026-03-22T17:08:40.93Z</time></trkpt><trkpt lat="53.6539921" lon="-1.8641503"><ele>240.66666666666666</ele><time>2026-03-22T17:08:42.918Z</time></trkpt><trkpt lat="53.6539548" lon="-1.8642654"><ele>240.83333333333331</ele><time>2026-03-22T17:08:45.925Z</time></trkpt><trkpt lat="53.6539398" lon="-1.8643969"><ele>241.0</ele><time>2026-03-22T17:08:57.924Z</time></trkpt><trkpt lat="53.6539076" lon="-1.8645228"><ele>241.5</ele><time>2026-03-22T17:09:00.923Z</time></trkpt><trkpt lat="53.6538522" lon="-1.8647283"><ele>242.0</ele><time>2026-03-22T17:09:02.928Z</time></trkpt><trkpt lat="53.6537979" lon="-1.8648705"><ele>242.5</ele><time>2026-03-22T17:09:03.93Z</time></trkpt><trkpt lat="53.6537309" lon="-1.8650155"><ele>243.0</ele><time>2026-03-22T17:09:04.928Z</time></trkpt><trkpt lat="53.6536538" lon="-1.8651596"><ele>245.75</ele><time>2026-03-22T17:09:05.924Z</time></trkpt><trkpt lat="53.6535818" lon="-1.8653116"><ele>248.5</ele><time>2026-03-22T17:09:06.928Z</time></trkpt><trkpt lat="53.6535247" lon="-1.8654649"><ele>251.25</ele><time>2026-03-22T17:09:07.928Z</time></trkpt><trkpt lat="53.6534879" lon="-1.8656549"><ele>254.0</ele><time>2026-03-22T17:09:08.929Z</time></trkpt><trkpt lat="53.6534663" lon="-1.8658421"><ele>253.6</ele><time>2026-03-22T17:09:09.928Z</time></trkpt><trkpt lat="53.6534537" lon="-1.8660248"><ele>253.2</ele><time>2026-03-22T17:09:10.927Z</time></trkpt><trkpt lat="53.6534379" lon="-1.8662126"><ele>252.79999999999998</ele><time>2026-03-22T17:09:11.923Z</time></trkpt><trkpt lat="53.6533999" lon="-1.8663857"><ele>252.39999999999998</ele><time>2026-03-22T17:09:12.92Z</time></trkpt><trkpt lat="53.653348" lon="-1.8665596"><ele>252.0</ele><time>2026-03-22T17:09:13.917Z</time></trkpt><trkpt lat="53.6532984" lon="-1.8667507"><ele>252.0</ele><time>2026-03-22T17:09:14.924Z</time></trkpt><trkpt lat="53.6532489" lon="-1.8669386"><ele>252.0</ele><time>2026-03-22T17:09:15.923Z</time></trkpt><trkpt lat="53.6532005" lon="-1.8671199"><ele>252.0</ele><time>2026-03-22T17:09:16.924Z</time></trkpt><trkpt lat="53.6531522" lon="-1.8672987"><ele>252.0</ele><time>2026-03-22T17:09:17.922Z</time></trkpt><trkpt lat="53.6531035" lon="-1.8674661"><ele>251.8</ele><time>2026-03-22T17:09:18.925Z</time></trkpt><trkpt lat="53.653056" lon="-1.8676266"><ele>251.6</ele><time>2026-03-22T17:09:19.925Z</time></trkpt><trkpt lat="53.6529912" lon="-1.8677631"><ele>251.40000000000003</ele><time>2026-03-22T17:09:20.927Z</time></trkpt><trkpt lat="53.6529136" lon="-1.8678721"><ele>251.20000000000002</ele><time>2026-03-22T17:09:21.922Z</time></trkpt><trkpt lat="53.652828" lon="-1.8679527"><ele>251.0</ele><time>2026-03-22T17:09:22.925Z</time></trkpt><trkpt lat="53.6527399" lon="-1.8680052"><ele>252.50000000000003</ele><time>2026-03-22T17:09:23.923Z</time></trkpt><trkpt lat="53.6526587" lon="-1.8680327"><ele>254.0</ele><time>2026-03-22T17:09:24.924Z</time></trkpt><trkpt lat="53.6525845" lon="-1.8680226"><ele>255.5</ele><time>2026-03-22T17:09:25.918Z</time></trkpt><trkpt lat="53.6525163" lon="-1.8679559"><ele>257.0</ele><time>2026-03-22T17:09:26.924Z</time></trkpt><trkpt lat="53.652452" lon="-1.8678364"><ele>258.5</ele><time>2026-03-22T17:09:27.923Z</time></trkpt><trkpt lat="53.6523788" lon="-1.8676992"><ele>260.0</ele><time>2026-03-22T17:09:28.926Z</time></trkpt><trkpt lat="53.6522919" lon="-1.8675687"><ele>260.5</ele><time>2026-03-22T17:09:29.925Z</time></trkpt><trkpt lat="53.6521941" lon="-1.8674756"><ele>261.0</ele><time>2026-03-22T17:09:30.924Z</time></trkpt><trkpt lat="53.652086" lon="-1.8674215"><ele>261.5</ele><time>2026-03-22T17:09:31.927Z</time></trkpt><trkpt lat="53.6519782" lon="-1.8674059"><ele>262.0</ele><time>2026-03-22T17:09:32.924Z</time></trkpt><trkpt lat="53.6518574" lon="-1.8674039"><ele>264.8</ele><time>2026-03-22T17:09:33.927Z</time></trkpt><trkpt lat="53.6517293" lon="-1.8673979"><ele>267.6</ele><time>2026-03-22T17:09:34.924Z</time></trkpt><trkpt lat="53.6516073" lon="-1.8673859"><ele>270.40000000000003</ele><time>2026-03-22T17:09:35.923Z</time></trkpt><trkpt lat="53.651503" lon="-1.8673791"><ele>273.2</ele><time>2026-03-22T17:09:36.927Z</time></trkpt><trkpt lat="53.6514212" lon="-1.8674044"><ele>276.0</ele><time>2026-03-22T17:09:37.925Z</time></trkpt><trkpt lat="53.6513681" lon="-1.8674769"><ele>276.0</ele><time>2026-03-22T17:09:38.929Z</time></trkpt><trkpt lat="53.6513165" lon="-1.8675693"><ele>276.0</ele><time>2026-03-22T17:09:39.928Z</time></trkpt><trkpt lat="53.6512655" lon="-1.8676693"><ele>276.0</ele><time>2026-03-22T17:09:40.927Z</time></trkpt><trkpt lat="53.6511989" lon="-1.8677704"><ele>276.0</ele><time>2026-03-22T17:09:41.919Z</time></trkpt><trkpt lat="53.6511256" lon="-1.86787"><ele>276.0</ele><time>2026-03-22T17:09:42.917Z</time></trkpt><trkpt lat="53.65105" lon="-1.8679548"><ele>276.0</ele><time>2026-03-22T17:09:43.925Z</time></trkpt><trkpt lat="53.6509723" lon="-1.868039"><ele>277.6</ele><time>2026-03-22T17:09:44.924Z</time></trkpt><trkpt lat="53.6508965" lon="-1.8681344"><ele>279.20000000000005</ele><time>2026-03-22T17:09:45.923Z</time></trkpt><trkpt lat="53.6508253" lon="-1.8682394"><ele>280.79999999999995</ele><time>2026-03-22T17:09:46.925Z</time></trkpt><trkpt lat="53.6507552" lon="-1.8683572"><ele>282.4</ele><time>2026-03-22T17:09:47.927Z</time></trkpt><trkpt lat="53.6506843" lon="-1.8684902"><ele>284.0</ele><time>2026-03-22T17:09:48.93Z</time></trkpt><trkpt lat="53.6506187" lon="-1.8686197"><ele>284.0</ele><time>2026-03-22T17:09:49.924Z</time></trkpt><trkpt lat="53.6505478" lon="-1.8687517"><ele>284.0</ele><time>2026-03-22T17:09:50.925Z</time></trkpt><trkpt lat="53.650476" lon="-1.8688779"><ele>284.0</ele><time>2026-03-22T17:09:51.923Z</time></trkpt><trkpt lat="53.650416" lon="-1.8689844"><ele>284.0</ele><time>2026-03-22T17:09:52.923Z</time></trkpt><trkpt lat="53.6503551" lon="-1.8690799"><ele>284.0</ele><time>2026-03-22T17:09:54.923Z</time></trkpt><trkpt lat="53.6503446" lon="-1.8688718"><ele>284.0</ele><time>2026-03-22T17:09:57.924Z</time></trkpt><trkpt lat="53.6503596" lon="-1.8687488"><ele>284.0</ele><time>2026-03-22T17:09:58.923Z</time></trkpt><trkpt lat="53.6503763" lon="-1.8686261"><ele>284.0</ele><time>2026-03-22T17:09:59.926Z</time></trkpt><trkpt lat="53.6503898" lon="-1.868496"><ele>284.0</ele><time>2026-03-22T17:10:00.925Z</time></trkpt><trkpt lat="53.6504031" lon="-1.8683463"><ele>284.0</ele><time>2026-03-22T17:10:01.927Z</time></trkpt><trkpt lat="53.6504192" lon="-1.8681858"><ele>284.0</ele><time>2026-03-22T17:10:02.928Z</time></trkpt><trkpt lat="53.6504355" lon="-1.8680231"><ele>285.2</ele><time>2026-03-22T17:10:03.926Z</time></trkpt><trkpt lat="53.6504531" lon="-1.8678698"><ele>286.4</ele><time>2026-03-22T17:10:04.925Z</time></trkpt><trkpt lat="53.6504737" lon="-1.8677199"><ele>287.6</ele><time>2026-03-22T17:10:05.93Z</time></trkpt><trkpt lat="53.6504952" lon="-1.8675669"><ele>288.8</ele><time>2026-03-22T17:10:06.922Z</time></trkpt><trkpt lat="53.6505202" lon="-1.8674113"><ele>290.0</ele><time>2026-03-22T17:10:07.927Z</time></trkpt><trkpt lat="53.6505392" lon="-1.8672425"><ele>291.6</ele><time>2026-03-22T17:10:08.927Z</time></trkpt><trkpt lat="53.6505423" lon="-1.8670583"><ele>293.2</ele><time>2026-03-22T17:10:09.927Z</time></trkpt><trkpt lat="53.6505337" lon="-1.866874"><ele>294.8</ele><time>2026-03-22T17:10:10.926Z</time></trkpt><trkpt lat="53.6505161" lon="-1.866713"><ele>296.4</ele><time>2026-03-22T17:10:11.918Z</time></trkpt><trkpt lat="53.6504725" lon="-1.8666015"><ele>298.0</ele><time>2026-03-22T17:10:12.925Z</time></trkpt><trkpt lat="53.6503963" lon="-1.8665357"><ele>300.0</ele><time>2026-03-22T17:10:13.929Z</time></trkpt><trkpt lat="53.6503016" lon="-1.8664763"><ele>302.0</ele><time>2026-03-22T17:10:14.926Z</time></trkpt><trkpt lat="53.6501934" lon="-1.8664227"><ele>304.0</ele><time>2026-03-22T17:10:15.927Z</time></trkpt><trkpt lat="53.6500798" lon="-1.8663845"><ele>306.0</ele><time>2026-03-22T17:10:16.921Z</time></trkpt><trkpt lat="53.6499592" lon="-1.8663431"><ele>310.5</ele><time>2026-03-22T17:10:17.925Z</time></trkpt><trkpt lat="53.6498268" lon="-1.8662886"><ele>315.0</ele><time>2026-03-22T17:10:18.927Z</time></trkpt><trkpt lat="53.6496897" lon="-1.8662217"><ele>319.5</ele><time>2026-03-22T17:10:19.928Z</time></trkpt><trkpt lat="53.6495712" lon="-1.8661551"><ele>324.0</ele><time>2026-03-22T17:10:20.927Z</time></trkpt><trkpt lat="53.6494715" lon="-1.8660997"><ele>324.6</ele><time>2026-03-22T17:10:21.925Z</time></trkpt><trkpt lat="53.6493846" lon="-1.8660501"><ele>325.2</ele><time>2026-03-22T17:10:22.928Z</time></trkpt><trkpt lat="53.649294" lon="-1.8660061"><ele>325.8</ele><time>2026-03-22T17:10:23.925Z</time></trkpt><trkpt lat="53.6491975" lon="-1.8659665"><ele>326.40000000000003</ele><time>2026-03-22T17:10:24.927Z</time></trkpt><trkpt lat="53.6490952" lon="-1.8659397"><ele>327.0</ele><time>2026-03-22T17:10:25.926Z</time></trkpt><trkpt lat="53.6489894" lon="-1.8659301"><ele>327.0</ele><time>2026-03-22T17:10:26.926Z</time></trkpt><trkpt lat="53.64888" lon="-1.8659298"><ele>327.0</ele><time>2026-03-22T17:10:27.926Z</time></trkpt><trkpt lat="53.64877" lon="-1.8659327"><ele>327.0</ele><time>2026-03-22T17:10:28.927Z</time></trkpt><trkpt lat="53.6486676" lon="-1.8659386"><ele>327.0</ele><time>2026-03-22T17:10:29.927Z</time></trkpt><trkpt lat="53.648585" lon="-1.8659401"><ele>327.0</ele><time>2026-03-22T17:10:30.926Z</time></trkpt><trkpt lat="53.6484791" lon="-1.8659325"><ele>327.0</ele><time>2026-03-22T17:10:32.931Z</time></trkpt><trkpt lat="53.6484095" lon="-1.8659226"><ele>327.0</ele><time>2026-03-22T17:10:34.931Z</time></trkpt><trkpt lat="53.6483323" lon="-1.8660198"><ele>327.0</ele><time>2026-03-22T17:11:28.926Z</time></trkpt><trkpt lat="53.6483023" lon="-1.8661452"><ele>327.0</ele><time>2026-03-22T17:11:29.927Z</time></trkpt><trkpt lat="53.6482812" lon="-1.8663219"><ele>327.0</ele><time>2026-03-22T17:11:30.928Z</time></trkpt><trkpt lat="53.6482634" lon="-1.8665242"><ele>327.5</ele><time>2026-03-22T17:11:31.931Z</time></trkpt><trkpt lat="53.6482396" lon="-1.8667462"><ele>328.0</ele><time>2026-03-22T17:11:32.931Z</time></trkpt><trkpt lat="53.6482095" lon="-1.8669797"><ele>328.5</ele><time>2026-03-22T17:11:33.932Z</time></trkpt><trkpt lat="53.6481762" lon="-1.8672208"><ele>329.0</ele><time>2026-03-22T17:11:34.93Z</time></trkpt><trkpt lat="53.6481419" lon="-1.867467"><ele>331.33333333333337</ele><time>2026-03-22T17:11:35.929Z</time></trkpt><trkpt lat="53.6481061" lon="-1.8677197"><ele>333.6666666666667</ele><time>2026-03-22T17:11:36.931Z</time></trkpt><trkpt lat="53.6480679" lon="-1.8679745"><ele>336.0</ele><time>2026-03-22T17:11:37.923Z</time></trkpt><trkpt lat="53.6480285" lon="-1.8682349"><ele>337.0</ele><time>2026-03-22T17:11:38.931Z</time></trkpt><trkpt lat="53.6479899" lon="-1.8684945"><ele>338.0</ele><time>2026-03-22T17:11:39.932Z</time></trkpt><trkpt lat="53.6479487" lon="-1.8687599"><ele>339.0</ele><time>2026-03-22T17:11:40.933Z</time></trkpt><trkpt lat="53.6479073" lon="-1.8690211"><ele>339.0</ele><time>2026-03-22T17:11:41.927Z</time></trkpt><trkpt lat="53.6478674" lon="-1.8692718"><ele>339.0</ele><time>2026-03-22T17:11:42.925Z</time></trkpt><trkpt lat="53.6478279" lon="-1.8695063"><ele>339.0</ele><time>2026-03-22T17:11:43.924Z</time></trkpt><trkpt lat="53.647794" lon="-1.8697443"><ele>339.0</ele><time>2026-03-22T17:11:44.926Z</time></trkpt><trkpt lat="53.6477655" lon="-1.8699796"><ele>340.5</ele><time>2026-03-22T17:11:45.925Z</time></trkpt><trkpt lat="53.6477365" lon="-1.8702075"><ele>342.0</ele><time>2026-03-22T17:11:46.929Z</time></trkpt><trkpt lat="53.6477087" lon="-1.8704295"><ele>343.5</ele><time>2026-03-22T17:11:47.928Z</time></trkpt><trkpt lat="53.6476826" lon="-1.8706487"><ele>345.0</ele><time>2026-03-22T17:11:48.926Z</time></trkpt><trkpt lat="53.647657" lon="-1.8708699"><ele>345.5</ele><time>2026-03-22T17:11:49.93Z</time></trkpt><trkpt lat="53.647628" lon="-1.8710997"><ele>346.0</ele><time>2026-03-22T17:11:50.929Z</time></trkpt><trkpt lat="53.6475974" lon="-1.8713259"><ele>346.5</ele><time>2026-03-22T17:11:51.93Z</time></trkpt><trkpt lat="53.6475705" lon="-1.8715296"><ele>347.0</ele><time>2026-03-22T17:11:52.929Z</time></trkpt><trkpt lat="53.6475482" lon="-1.8717055"><ele>347.20000000000005</ele><time>2026-03-22T17:11:53.93Z</time></trkpt><trkpt lat="53.6475266" lon="-1.8718456"><ele>347.4</ele><time>2026-03-22T17:11:54.927Z</time></trkpt><trkpt lat="53.647505" lon="-1.871981"><ele>347.6</ele><time>2026-03-22T17:11:56.929Z</time></trkpt><trkpt lat="53.6474249" lon="-1.8719719"><ele>347.79999999999995</ele><time>2026-03-22T17:11:59.927Z</time></trkpt><trkpt lat="53.6473532" lon="-1.8718961"><ele>348.0</ele><time>2026-03-22T17:12:00.928Z</time></trkpt><trkpt lat="53.6472486" lon="-1.8718104"><ele>348.0</ele><time>2026-03-22T17:12:01.933Z</time></trkpt><trkpt lat="53.6471189" lon="-1.8717508"><ele>348.0</ele><time>2026-03-22T17:12:02.935Z</time></trkpt><trkpt lat="53.6469586" lon="-1.8717371"><ele>348.0</ele><time>2026-03-22T17:12:03.933Z</time></trkpt><trkpt lat="53.6467728" lon="-1.8717696"><ele>349.3333333333333</ele><time>2026-03-22T17:12:04.933Z</time></trkpt><trkpt lat="53.6465918" lon="-1.8718276"><ele>350.66666666666663</ele><time>2026-03-22T17:12:05.928Z</time></trkpt><trkpt lat="53.6464312" lon="-1.8718848"><ele>352.0</ele><time>2026-03-22T17:12:06.932Z</time></trkpt><trkpt lat="53.6462882" lon="-1.8719418"><ele>352.0</ele><time>2026-03-22T17:12:07.934Z</time></trkpt><trkpt lat="53.6461604" lon="-1.8719949"><ele>352.0</ele><time>2026-03-22T17:12:08.934Z</time></trkpt><trkpt lat="53.6460526" lon="-1.8720389"><ele>352.0</ele><time>2026-03-22T17:12:09.93Z</time></trkpt><trkpt lat="53.645953" lon="-1.8720794"><ele>352.0</ele><time>2026-03-22T17:12:10.93Z</time></trkpt><trkpt lat="53.645854" lon="-1.872102"><ele>352.0</ele><time>2026-03-22T17:12:11.925Z</time></trkpt><trkpt lat="53.6457497" lon="-1.8720983"><ele>351.3333333333333</ele><time>2026-03-22T17:12:12.924Z</time></trkpt><trkpt lat="53.6456243" lon="-1.8720781"><ele>350.6666666666667</ele><time>2026-03-22T17:12:13.926Z</time></trkpt><trkpt lat="53.6454661" lon="-1.8720538"><ele>350.0</ele><time>2026-03-22T17:12:14.925Z</time></trkpt><trkpt lat="53.6452794" lon="-1.8720185"><ele>350.0</ele><time>2026-03-22T17:12:15.92Z</time></trkpt><trkpt lat="53.6450862" lon="-1.8719817"><ele>350.0</ele><time>2026-03-22T17:12:16.928Z</time></trkpt><trkpt lat="53.6448965" lon="-1.8719466"><ele>350.0</ele><time>2026-03-22T17:12:17.928Z</time></trkpt><trkpt lat="53.6447158" lon="-1.8719119"><ele>350.0</ele><time>2026-03-22T17:12:18.923Z</time></trkpt><trkpt lat="53.6445404" lon="-1.8718834"><ele>350.0</ele><time>2026-03-22T17:12:19.926Z</time></trkpt><trkpt lat="53.6443716" lon="-1.8718562"><ele>350.0</ele><time>2026-03-22T17:12:20.928Z</time></trkpt><trkpt lat="53.6442061" lon="-1.8718314"><ele>350.33333333333337</ele><time>2026-03-22T17:12:21.928Z</time></trkpt><trkpt lat="53.6440457" lon="-1.8718044"><ele>350.6666666666667</ele><time>2026-03-22T17:12:22.929Z</time></trkpt><trkpt lat="53.6438891" lon="-1.8717777"><ele>351.0</ele><time>2026-03-22T17:12:23.927Z</time></trkpt><trkpt lat="53.6437322" lon="-1.8717506"><ele>349.5</ele><time>2026-03-22T17:12:24.929Z</time></trkpt><trkpt lat="53.6435793" lon="-1.8717276"><ele>348.0</ele><time>2026-03-22T17:12:25.928Z</time></trkpt><trkpt lat="53.6434357" lon="-1.8717058"><ele>346.5</ele><time>2026-03-22T17:12:26.929Z</time></trkpt><trkpt lat="53.6433024" lon="-1.8716914"><ele>345.0</ele><time>2026-03-22T17:12:27.927Z</time></trkpt><trkpt lat="53.6431753" lon="-1.8716929"><ele>345.0</ele><time>2026-03-22T17:12:28.929Z</time></trkpt><trkpt lat="53.6430495" lon="-1.8717039"><ele>345.0</ele><time>2026-03-22T17:12:29.927Z</time></trkpt><trkpt lat="53.6429349" lon="-1.8717543"><ele>345.0</ele><time>2026-03-22T17:12:30.929Z</time></trkpt><trkpt lat="53.6428522" lon="-1.8718546"><ele>345.0</ele><time>2026-03-22T17:12:31.929Z</time></trkpt><trkpt lat="53.6427946" lon="-1.8719773"><ele>345.0</ele><time>2026-03-22T17:12:32.93Z</time></trkpt><trkpt lat="53.6427496" lon="-1.8720756"><ele>345.0</ele><time>2026-03-22T17:12:33.931Z</time></trkpt><trkpt lat="53.6426844" lon="-1.8721898"><ele>345.0</ele><time>2026-03-22T17:12:35.93Z</time></trkpt><trkpt lat="53.6425884" lon="-1.8723491"><ele>345.0</ele><time>2026-03-22T17:12:37.927Z</time></trkpt><trkpt lat="53.6425235" lon="-1.8724751"><ele>345.0</ele><time>2026-03-22T17:12:38.923Z</time></trkpt><trkpt lat="53.6424434" lon="-1.8726142"><ele>345.0</ele><time>2026-03-22T17:12:39.928Z</time></trkpt><trkpt lat="53.6423468" lon="-1.872766"><ele>345.0</ele><time>2026-03-22T17:12:40.93Z</time></trkpt><trkpt lat="53.642243" lon="-1.8729212"><ele>345.0</ele><time>2026-03-22T17:12:41.921Z</time></trkpt><trkpt lat="53.6421393" lon="-1.8730762"><ele>345.0</ele><time>2026-03-22T17:12:42.919Z</time></trkpt><trkpt lat="53.6420208" lon="-1.8732097"><ele>345.0</ele><time>2026-03-22T17:12:43.926Z</time></trkpt><trkpt lat="53.6418947" lon="-1.8733142"><ele>343.5</ele><time>2026-03-22T17:12:44.925Z</time></trkpt><trkpt lat="53.6417624" lon="-1.8733882"><ele>342.0</ele><time>2026-03-22T17:12:45.925Z</time></trkpt><trkpt lat="53.6416395" lon="-1.8734504"><ele>340.5</ele><time>2026-03-22T17:12:46.926Z</time></trkpt><trkpt lat="53.6415286" lon="-1.8735088"><ele>339.0</ele><time>2026-03-22T17:12:47.925Z</time></trkpt><trkpt lat="53.641427" lon="-1.873573"><ele>339.0</ele><time>2026-03-22T17:12:48.928Z</time></trkpt><trkpt lat="53.6413324" lon="-1.8736613"><ele>339.0</ele><time>2026-03-22T17:12:49.928Z</time></trkpt><trkpt lat="53.6412457" lon="-1.8737679"><ele>339.0</ele><time>2026-03-22T17:12:50.926Z</time></trkpt><trkpt lat="53.6411696" lon="-1.8738926"><ele>339.0</ele><time>2026-03-22T17:12:51.925Z</time></trkpt><trkpt lat="53.6411009" lon="-1.8740391"><ele>339.0</ele><time>2026-03-22T17:12:52.927Z</time></trkpt><trkpt lat="53.6410383" lon="-1.874202"><ele>333.75</ele><time>2026-03-22T17:12:53.927Z</time></trkpt><trkpt lat="53.6409802" lon="-1.8743658"><ele>328.5</ele><time>2026-03-22T17:12:54.928Z</time></trkpt><trkpt lat="53.6409178" lon="-1.8745341"><ele>323.25</ele><time>2026-03-22T17:12:55.925Z</time></trkpt><trkpt lat="53.6408568" lon="-1.8747112"><ele>318.0</ele><time>2026-03-22T17:12:56.925Z</time></trkpt><trkpt lat="53.6408015" lon="-1.8748966"><ele>318.0</ele><time>2026-03-22T17:12:57.929Z</time></trkpt><trkpt lat="53.6407547" lon="-1.8750912"><ele>318.0</ele><time>2026-03-22T17:12:58.925Z</time></trkpt><trkpt lat="53.640709" lon="-1.8752888"><ele>318.0</ele><time>2026-03-22T17:12:59.927Z</time></trkpt><trkpt lat="53.6406574" lon="-1.8754834"><ele>318.0</ele><time>2026-03-22T17:13:00.926Z</time></trkpt><trkpt lat="53.6405978" lon="-1.8756711"><ele>317.75</ele><time>2026-03-22T17:13:01.93Z</time></trkpt><trkpt lat="53.6405401" lon="-1.8758463"><ele>317.5</ele><time>2026-03-22T17:13:02.93Z</time></trkpt><trkpt lat="53.6404844" lon="-1.8760041"><ele>317.25</ele><time>2026-03-22T17:13:03.932Z</time></trkpt><trkpt lat="53.6404315" lon="-1.8761671"><ele>317.0</ele><time>2026-03-22T17:13:04.931Z</time></trkpt><trkpt lat="53.640392" lon="-1.8763491"><ele>316.0</ele><time>2026-03-22T17:13:05.929Z</time></trkpt><trkpt lat="53.6403627" lon="-1.8765578"><ele>315.0</ele><time>2026-03-22T17:13:06.929Z</time></trkpt><trkpt lat="53.6403455" lon="-1.8767897"><ele>314.0</ele><time>2026-03-22T17:13:07.93Z</time></trkpt><trkpt lat="53.6403293" lon="-1.8770237"><ele>313.0</ele><time>2026-03-22T17:13:08.93Z</time></trkpt><trkpt lat="53.6403143" lon="-1.8772532"><ele>310.0</ele><time>2026-03-22T17:13:09.928Z</time></trkpt><trkpt lat="53.6402864" lon="-1.8774764"><ele>307.0</ele><time>2026-03-22T17:13:10.93Z</time></trkpt><trkpt lat="53.6402303" lon="-1.8776729"><ele>304.0</ele><time>2026-03-22T17:13:11.925Z</time></trkpt><trkpt lat="53.6401486" lon="-1.8778403"><ele>301.0</ele><time>2026-03-22T17:13:12.928Z</time></trkpt><trkpt lat="53.6400469" lon="-1.8779803"><ele>301.0</ele><time>2026-03-22T17:13:13.925Z</time></trkpt><trkpt lat="53.6399344" lon="-1.8780919"><ele>301.0</ele><time>2026-03-22T17:13:14.927Z</time></trkpt><trkpt lat="53.6398216" lon="-1.8781906"><ele>301.0</ele><time>2026-03-22T17:13:15.925Z</time></trkpt><trkpt lat="53.6397193" lon="-1.8782798"><ele>301.0</ele><time>2026-03-22T17:13:16.925Z</time></trkpt><trkpt lat="53.6396266" lon="-1.8783649"><ele>300.8333333333333</ele><time>2026-03-22T17:13:17.93Z</time></trkpt><trkpt lat="53.6395416" lon="-1.8784475"><ele>300.66666666666663</ele><time>2026-03-22T17:13:18.928Z</time></trkpt><trkpt lat="53.6394608" lon="-1.8785313"><ele>300.5</ele><time>2026-03-22T17:13:19.928Z</time></trkpt><trkpt lat="53.6393816" lon="-1.8786113"><ele>300.3333333333333</ele><time>2026-03-22T17:13:20.929Z</time></trkpt><trkpt lat="53.6393059" lon="-1.8786803"><ele>300.1666666666667</ele><time>2026-03-22T17:13:21.925Z</time></trkpt><trkpt lat="53.6392375" lon="-1.8787302"><ele>300.0</ele><time>2026-03-22T17:13:22.927Z</time></trkpt><trkpt lat="53.6391746" lon="-1.8787572"><ele>298.4</ele><time>2026-03-22T17:13:23.926Z</time></trkpt><trkpt lat="53.6390789" lon="-1.8787759"><ele>296.8</ele><time>2026-03-22T17:13:25.921Z</time></trkpt><trkpt lat="53.6390736" lon="-1.8789422"><ele>295.2</ele><time>2026-03-22T17:13:28.928Z</time></trkpt><trkpt lat="53.6391391" lon="-1.8790575"><ele>293.6</ele><time>2026-03-22T17:13:29.927Z</time></trkpt><trkpt lat="53.6392277" lon="-1.879201"><ele>292.0</ele><time>2026-03-22T17:13:30.927Z</time></trkpt><trkpt lat="53.6393325" lon="-1.8793672"><ele>292.0</ele><time>2026-03-22T17:13:31.928Z</time></trkpt><trkpt lat="53.6394272" lon="-1.8795471"><ele>292.0</ele><time>2026-03-22T17:13:32.928Z</time></trkpt><trkpt lat="53.6394906" lon="-1.8797305"><ele>292.0</ele><time>2026-03-22T17:13:33.933Z</time></trkpt><trkpt lat="53.6395012" lon="-1.8799106"><ele>292.0</ele><time>2026-03-22T17:13:34.93Z</time></trkpt><trkpt lat="53.6394317" lon="-1.880073"><ele>293.66666666666663</ele><time>2026-03-22T17:13:35.929Z</time></trkpt><trkpt lat="53.6393311" lon="-1.8802202"><ele>295.3333333333333</ele><time>2026-03-22T17:13:36.933Z</time></trkpt><trkpt lat="53.6391728" lon="-1.880381"><ele>297.0</ele><time>2026-03-22T17:13:37.928Z</time></trkpt><trkpt lat="53.6390275" lon="-1.880554"><ele>297.0</ele><time>2026-03-22T17:13:38.926Z</time></trkpt><trkpt lat="53.6389031" lon="-1.8807323"><ele>297.0</ele><time>2026-03-22T17:13:39.928Z</time></trkpt><trkpt lat="53.6387815" lon="-1.8809143"><ele>297.0</ele><time>2026-03-22T17:13:40.927Z</time></trkpt><trkpt lat="53.6386545" lon="-1.8810594"><ele>296.75</ele><time>2026-03-22T17:13:41.924Z</time></trkpt><trkpt lat="53.6385182" lon="-1.8811539"><ele>296.5</ele><time>2026-03-22T17:13:42.918Z</time></trkpt><trkpt lat="53.638375" lon="-1.8812328"><ele>296.25</ele><time>2026-03-22T17:13:43.926Z</time></trkpt><trkpt lat="53.6382374" lon="-1.8813054"><ele>296.0</ele><time>2026-03-22T17:13:44.928Z</time></trkpt><trkpt lat="53.6381257" lon="-1.8813931"><ele>296.0</ele><time>2026-03-22T17:13:45.924Z</time></trkpt><trkpt lat="53.6380321" lon="-1.8815127"><ele>296.0</ele><time>2026-03-22T17:13:46.926Z</time></trkpt><trkpt lat="53.6379543" lon="-1.881666"><ele>296.0</ele><time>2026-03-22T17:13:47.921Z</time></trkpt><trkpt lat="53.6378872" lon="-1.8818315"><ele>296.0</ele><time>2026-03-22T17:13:48.925Z</time></trkpt><trkpt lat="53.6378232" lon="-1.8819708"><ele>297.0</ele><time>2026-03-22T17:13:49.926Z</time></trkpt><trkpt lat="53.6377527" lon="-1.8820431"><ele>298.0</ele><time>2026-03-22T17:13:50.924Z</time></trkpt><trkpt lat="53.6376702" lon="-1.8820272"><ele>299.0</ele><time>2026-03-22T17:13:51.925Z</time></trkpt><trkpt lat="53.6375727" lon="-1.8819362"><ele>300.0</ele><time>2026-03-22T17:13:52.926Z</time></trkpt><trkpt lat="53.6374601" lon="-1.8817832"><ele>301.0</ele><time>2026-03-22T17:13:53.925Z</time></trkpt><trkpt lat="53.6373477" lon="-1.8815806"><ele>301.0</ele><time>2026-03-22T17:13:54.926Z</time></trkpt><trkpt lat="53.6372412" lon="-1.8813756"><ele>301.0</ele><time>2026-03-22T17:13:55.929Z</time></trkpt><trkpt lat="53.6371433" lon="-1.8812343"><ele>301.0</ele><time>2026-03-22T17:13:56.929Z</time></trkpt><trkpt lat="53.637058" lon="-1.881165"><ele>301.0</ele><time>2026-03-22T17:13:57.929Z</time></trkpt><trkpt lat="53.6369693" lon="-1.8811639"><ele>302.6</ele><time>2026-03-22T17:13:58.927Z</time></trkpt><trkpt lat="53.6368881" lon="-1.8812277"><ele>304.20000000000005</ele><time>2026-03-22T17:13:59.927Z</time></trkpt><trkpt lat="53.6368278" lon="-1.8813668"><ele>305.79999999999995</ele><time>2026-03-22T17:14:00.926Z</time></trkpt><trkpt lat="53.6367724" lon="-1.8815333"><ele>307.4</ele><time>2026-03-22T17:14:01.928Z</time></trkpt><trkpt lat="53.636716" lon="-1.8817046"><ele>309.0</ele><time>2026-03-22T17:14:02.929Z</time></trkpt><trkpt lat="53.636666" lon="-1.8818751"><ele>310.2</ele><time>2026-03-22T17:14:03.929Z</time></trkpt><trkpt lat="53.6366233" lon="-1.8820294"><ele>311.4</ele><time>2026-03-22T17:14:04.931Z</time></trkpt><trkpt lat="53.6365799" lon="-1.8821661"><ele>312.6</ele><time>2026-03-22T17:14:05.927Z</time></trkpt><trkpt lat="53.6365404" lon="-1.8822851"><ele>313.8</ele><time>2026-03-22T17:14:06.931Z</time></trkpt><trkpt lat="53.6365073" lon="-1.8823796"><ele>315.0</ele><time>2026-03-22T17:14:07.931Z</time></trkpt><trkpt lat="53.6364901" lon="-1.8825641"><ele>315.6</ele><time>2026-03-22T17:14:09.928Z</time></trkpt><trkpt lat="53.6365418" lon="-1.8827292"><ele>316.2</ele><time>2026-03-22T17:14:11.928Z</time></trkpt><trkpt lat="53.6366234" lon="-1.8829123"><ele>316.8</ele><time>2026-03-22T17:14:13.93Z</time></trkpt><trkpt lat="53.6366626" lon="-1.8830209"><ele>317.4</ele><time>2026-03-22T17:14:14.928Z</time></trkpt><trkpt lat="53.6367117" lon="-1.8831625"><ele>318.0</ele><time>2026-03-22T17:14:15.927Z</time></trkpt><trkpt lat="53.6367694" lon="-1.8833389"><ele>318.75</ele><time>2026-03-22T17:14:16.927Z</time></trkpt><trkpt lat="53.6368317" lon="-1.8835395"><ele>319.5</ele><time>2026-03-22T17:14:17.927Z</time></trkpt><trkpt lat="53.6369019" lon="-1.8837504"><ele>320.25</ele><time>2026-03-22T17:14:18.928Z</time></trkpt><trkpt lat="53.6369794" lon="-1.8839758"><ele>321.0</ele><time>2026-03-22T17:14:19.923Z</time></trkpt><trkpt lat="53.6370585" lon="-1.8842165"><ele>323.0</ele><time>2026-03-22T17:14:20.926Z</time></trkpt><trkpt lat="53.6371396" lon="-1.8844737"><ele>325.0</ele><time>2026-03-22T17:14:21.931Z</time></trkpt><trkpt lat="53.6372216" lon="-1.8847375"><ele>327.0</ele><time>2026-03-22T17:14:22.927Z</time></trkpt><trkpt lat="53.6373048" lon="-1.8849957"><ele>328.0</ele><time>2026-03-22T17:14:23.927Z</time></trkpt><trkpt lat="53.6373869" lon="-1.885258"><ele>329.0</ele><time>2026-03-22T17:14:24.928Z</time></trkpt><trkpt lat="53.6374724" lon="-1.8855247"><ele>330.0</ele><time>2026-03-22T17:14:25.929Z</time></trkpt><trkpt lat="53.6375603" lon="-1.885792"><ele>330.0</ele><time>2026-03-22T17:14:26.927Z</time></trkpt><trkpt lat="53.6376462" lon="-1.8860605"><ele>330.0</ele><time>2026-03-22T17:14:27.924Z</time></trkpt><trkpt lat="53.6377302" lon="-1.8863284"><ele>330.0</ele><time>2026-03-22T17:14:28.927Z</time></trkpt><trkpt lat="53.6378126" lon="-1.8865973"><ele>330.0</ele><time>2026-03-22T17:14:29.927Z</time></trkpt><trkpt lat="53.6378911" lon="-1.8868558"><ele>330.0</ele><time>2026-03-22T17:14:30.927Z</time></trkpt><trkpt lat="53.6379556" lon="-1.8870815"><ele>330.0</ele><time>2026-03-22T17:14:31.929Z</time></trkpt><trkpt lat="53.6379949" lon="-1.887268"><ele>330.0</ele><time>2026-03-22T17:14:32.921Z</time></trkpt><trkpt lat="53.6380064" lon="-1.8874307"><ele>330.25</ele><time>2026-03-22T17:14:33.931Z</time></trkpt><trkpt lat="53.6379796" lon="-1.8876073"><ele>330.5</ele><time>2026-03-22T17:14:34.929Z</time></trkpt><trkpt lat="53.6379256" lon="-1.8877968"><ele>330.75</ele><time>2026-03-22T17:14:35.928Z</time></trkpt><trkpt lat="53.6378657" lon="-1.8880131"><ele>331.0</ele><time>2026-03-22T17:14:36.931Z</time></trkpt><trkpt lat="53.6378081" lon="-1.8882536"><ele>332.3333333333333</ele><time>2026-03-22T17:14:37.929Z</time></trkpt><trkpt lat="53.6377502" lon="-1.8885179"><ele>333.6666666666667</ele><time>2026-03-22T17:14:38.933Z</time></trkpt><trkpt lat="53.6376966" lon="-1.8887979"><ele>335.0</ele><time>2026-03-22T17:14:39.93Z</time></trkpt><trkpt lat="53.6376478" lon="-1.8890946"><ele>335.0</ele><time>2026-03-22T17:14:40.929Z</time></trkpt><trkpt lat="53.6376001" lon="-1.889395"><ele>335.0</ele><time>2026-03-22T17:14:41.925Z</time></trkpt><trkpt lat="53.6375539" lon="-1.8896937"><ele>335.0</ele><time>2026-03-22T17:14:42.926Z</time></trkpt><trkpt lat="53.6375122" lon="-1.8899755"><ele>335.33333333333337</ele><time>2026-03-22T17:14:43.926Z</time></trkpt><trkpt lat="53.6374746" lon="-1.8902463"><ele>335.6666666666667</ele><time>2026-03-22T17:14:44.926Z</time></trkpt><trkpt lat="53.637437" lon="-1.890513"><ele>336.0</ele><time>2026-03-22T17:14:45.927Z</time></trkpt><trkpt lat="53.6373949" lon="-1.8907865"><ele>336.6666666666667</ele><time>2026-03-22T17:14:46.926Z</time></trkpt><trkpt lat="53.6373521" lon="-1.8910679"><ele>337.33333333333337</ele><time>2026-03-22T17:14:47.923Z</time></trkpt><trkpt lat="53.6373081" lon="-1.8913583"><ele>338.0</ele><time>2026-03-22T17:14:48.926Z</time></trkpt><trkpt lat="53.6372639" lon="-1.8916511"><ele>338.33333333333337</ele><time>2026-03-22T17:14:49.926Z</time></trkpt><trkpt lat="53.6372183" lon="-1.8919408"><ele>338.6666666666667</ele><time>2026-03-22T17:14:50.928Z</time></trkpt><trkpt lat="53.6371759" lon="-1.8922252"><ele>339.0</ele><time>2026-03-22T17:14:51.926Z</time></trkpt><trkpt lat="53.637135" lon="-1.892516"><ele>339.0</ele><time>2026-03-22T17:14:52.928Z</time></trkpt><trkpt lat="53.6370957" lon="-1.8928137"><ele>339.0</ele><time>2026-03-22T17:14:53.928Z</time></trkpt><trkpt lat="53.6370561" lon="-1.8931176"><ele>339.0</ele><time>2026-03-22T17:14:54.926Z</time></trkpt><trkpt lat="53.6370157" lon="-1.8934176"><ele>339.0</ele><time>2026-03-22T17:14:55.927Z</time></trkpt><trkpt lat="53.6369763" lon="-1.8937099"><ele>339.0</ele><time>2026-03-22T17:14:56.926Z</time></trkpt><trkpt lat="53.6369288" lon="-1.8940017"><ele>339.0</ele><time>2026-03-22T17:14:57.925Z</time></trkpt><trkpt lat="53.636875" lon="-1.8942903"><ele>339.0</ele><time>2026-03-22T17:14:58.927Z</time></trkpt><trkpt lat="53.6368142" lon="-1.8945716"><ele>339.0</ele><time>2026-03-22T17:14:59.927Z</time></trkpt><trkpt lat="53.6367467" lon="-1.8948508"><ele>339.0</ele><time>2026-03-22T17:15:00.93Z</time></trkpt><trkpt lat="53.6366788" lon="-1.895129"><ele>339.0</ele><time>2026-03-22T17:15:01.93Z</time></trkpt><trkpt lat="53.6366131" lon="-1.895412"><ele>339.0</ele><time>2026-03-22T17:15:02.93Z</time></trkpt><trkpt lat="53.6365493" lon="-1.8956951"><ele>339.0</ele><time>2026-03-22T17:15:03.922Z</time></trkpt><trkpt lat="53.6364773" lon="-1.8959731"><ele>339.0</ele><time>2026-03-22T17:15:04.928Z</time></trkpt><trkpt lat="53.6363977" lon="-1.8962434"><ele>339.0</ele><time>2026-03-22T17:15:05.93Z</time></trkpt><trkpt lat="53.636319" lon="-1.8965145"><ele>339.0</ele><time>2026-03-22T17:15:06.927Z</time></trkpt><trkpt lat="53.6362443" lon="-1.8967966"><ele>339.0</ele><time>2026-03-22T17:15:07.928Z</time></trkpt><trkpt lat="53.6361722" lon="-1.8970911"><ele>339.0</ele><time>2026-03-22T17:15:08.928Z</time></trkpt><trkpt lat="53.6360967" lon="-1.8973853"><ele>339.0</ele><time>2026-03-22T17:15:09.93Z</time></trkpt><trkpt lat="53.6360169" lon="-1.8976648"><ele>339.3333333333333</ele><time>2026-03-22T17:15:10.928Z</time></trkpt><trkpt lat="53.6359316" lon="-1.8979227"><ele>339.66666666666663</ele><time>2026-03-22T17:15:11.925Z</time></trkpt><trkpt lat="53.6358388" lon="-1.8981643"><ele>340.0</ele><time>2026-03-22T17:15:12.926Z</time></trkpt><trkpt lat="53.6357359" lon="-1.8983961"><ele>339.75</ele><time>2026-03-22T17:15:13.927Z</time></trkpt><trkpt lat="53.6356394" lon="-1.8986132"><ele>339.5</ele><time>2026-03-22T17:15:14.925Z</time></trkpt><trkpt lat="53.6355614" lon="-1.8988172"><ele>339.25</ele><time>2026-03-22T17:15:15.926Z</time></trkpt><trkpt lat="53.6355062" lon="-1.899009"><ele>339.0</ele><time>2026-03-22T17:15:16.925Z</time></trkpt><trkpt lat="53.6354596" lon="-1.8991823"><ele>339.1666666666667</ele><time>2026-03-22T17:15:17.927Z</time></trkpt><trkpt lat="53.6354175" lon="-1.8993344"><ele>339.3333333333333</ele><time>2026-03-22T17:15:18.93Z</time></trkpt><trkpt lat="53.6353771" lon="-1.8994648"><ele>339.5</ele><time>2026-03-22T17:15:19.925Z</time></trkpt><trkpt lat="53.635342" lon="-1.8995747"><ele>339.66666666666663</ele><time>2026-03-22T17:15:20.926Z</time></trkpt><trkpt lat="53.6353112" lon="-1.8996759"><ele>339.8333333333333</ele><time>2026-03-22T17:15:21.929Z</time></trkpt><trkpt lat="53.6352818" lon="-1.8997884"><ele>340.0</ele><time>2026-03-22T17:15:22.926Z</time></trkpt><trkpt lat="53.6352415" lon="-1.8999195"><ele>338.5</ele><time>2026-03-22T17:15:23.926Z</time></trkpt><trkpt lat="53.6351899" lon="-1.9000631"><ele>337.0</ele><time>2026-03-22T17:15:24.925Z</time></trkpt><trkpt lat="53.6351244" lon="-1.9002177"><ele>335.5</ele><time>2026-03-22T17:15:25.926Z</time></trkpt><trkpt lat="53.6350476" lon="-1.9003849"><ele>334.0</ele><time>2026-03-22T17:15:26.927Z</time></trkpt><trkpt lat="53.6349736" lon="-1.9005506"><ele>334.0</ele><time>2026-03-22T17:15:27.926Z</time></trkpt><trkpt lat="53.6349052" lon="-1.9007036"><ele>334.0</ele><time>2026-03-22T17:15:28.928Z</time></trkpt><trkpt lat="53.6348448" lon="-1.9008513"><ele>334.0</ele><time>2026-03-22T17:15:29.925Z</time></trkpt><trkpt lat="53.6347882" lon="-1.9009933"><ele>334.0</ele><time>2026-03-22T17:15:30.927Z</time></trkpt><trkpt lat="53.6347407" lon="-1.9011158"><ele>334.0</ele><time>2026-03-22T17:15:31.929Z</time></trkpt><trkpt lat="53.6347066" lon="-1.9012063"><ele>334.2</ele><time>2026-03-22T17:15:32.928Z</time></trkpt><trkpt lat="53.6346739" lon="-1.9013049"><ele>334.4</ele><time>2026-03-22T17:15:34.928Z</time></trkpt><trkpt lat="53.634667" lon="-1.9015102"><ele>334.6</ele><time>2026-03-22T17:15:39.929Z</time></trkpt><trkpt lat="53.6346739" lon="-1.9016565"><ele>334.8</ele><time>2026-03-22T17:15:40.927Z</time></trkpt><trkpt lat="53.6346875" lon="-1.901843"><ele>335.0</ele><time>2026-03-22T17:15:41.924Z</time></trkpt><trkpt lat="53.6346865" lon="-1.9020548"><ele>335.0</ele><time>2026-03-22T17:15:42.926Z</time></trkpt><trkpt lat="53.6346577" lon="-1.9022729"><ele>335.0</ele><time>2026-03-22T17:15:43.926Z</time></trkpt><trkpt lat="53.6345977" lon="-1.902487"><ele>335.0</ele><time>2026-03-22T17:15:44.926Z</time></trkpt><trkpt lat="53.6345106" lon="-1.9027078"><ele>335.0</ele><time>2026-03-22T17:15:45.926Z</time></trkpt><trkpt lat="53.6344006" lon="-1.9029149"><ele>333.33333333333337</ele><time>2026-03-22T17:15:46.926Z</time></trkpt><trkpt lat="53.6342786" lon="-1.9031139"><ele>331.6666666666667</ele><time>2026-03-22T17:15:47.929Z</time></trkpt><trkpt lat="53.6341695" lon="-1.9033108"><ele>330.0</ele><time>2026-03-22T17:15:48.926Z</time></trkpt><trkpt lat="53.634073" lon="-1.9035025"><ele>330.0</ele><time>2026-03-22T17:15:49.929Z</time></trkpt><trkpt lat="53.633986" lon="-1.9037168"><ele>330.0</ele><time>2026-03-22T17:15:50.928Z</time></trkpt><trkpt lat="53.6339041" lon="-1.9039499"><ele>330.0</ele><time>2026-03-22T17:15:51.924Z</time></trkpt><trkpt lat="53.6338191" lon="-1.9041975"><ele>329.6666666666667</ele><time>2026-03-22T17:15:52.926Z</time></trkpt><trkpt lat="53.6337307" lon="-1.9044562"><ele>329.33333333333337</ele><time>2026-03-22T17:15:53.926Z</time></trkpt><trkpt lat="53.6336359" lon="-1.9047244"><ele>329.0</ele><time>2026-03-22T17:15:54.926Z</time></trkpt><trkpt lat="53.6335415" lon="-1.9049765"><ele>327.5</ele><time>2026-03-22T17:15:55.926Z</time></trkpt><trkpt lat="53.6334524" lon="-1.9051992"><ele>326.0</ele><time>2026-03-22T17:15:56.926Z</time></trkpt><trkpt lat="53.6333605" lon="-1.9053861"><ele>324.5</ele><time>2026-03-22T17:15:57.926Z</time></trkpt><trkpt lat="53.6332726" lon="-1.9055528"><ele>323.0</ele><time>2026-03-22T17:15:58.929Z</time></trkpt><trkpt lat="53.6331821" lon="-1.9057121"><ele>323.0</ele><time>2026-03-22T17:15:59.928Z</time></trkpt><trkpt lat="53.6330864" lon="-1.9058735"><ele>323.0</ele><time>2026-03-22T17:16:00.928Z</time></trkpt><trkpt lat="53.6329885" lon="-1.9060465"><ele>323.0</ele><time>2026-03-22T17:16:01.93Z</time></trkpt><trkpt lat="53.6328921" lon="-1.9062423"><ele>323.0</ele><time>2026-03-22T17:16:02.93Z</time></trkpt><trkpt lat="53.6328017" lon="-1.9064613"><ele>320.33333333333337</ele><time>2026-03-22T17:16:03.931Z</time></trkpt><trkpt lat="53.6327107" lon="-1.9066911"><ele>317.6666666666667</ele><time>2026-03-22T17:16:04.929Z</time></trkpt><trkpt lat="53.6326187" lon="-1.9069025"><ele>315.0</ele><time>2026-03-22T17:16:05.93Z</time></trkpt><trkpt lat="53.6325199" lon="-1.90709"><ele>315.0</ele><time>2026-03-22T17:16:06.93Z</time></trkpt><trkpt lat="53.6324152" lon="-1.9072612"><ele>315.0</ele><time>2026-03-22T17:16:07.93Z</time></trkpt><trkpt lat="53.6323046" lon="-1.9074241"><ele>315.0</ele><time>2026-03-22T17:16:08.93Z</time></trkpt><trkpt lat="53.6321848" lon="-1.9075723"><ele>315.0</ele><time>2026-03-22T17:16:09.933Z</time></trkpt><trkpt lat="53.6320531" lon="-1.9076955"><ele>313.75</ele><time>2026-03-22T17:16:10.932Z</time></trkpt><trkpt lat="53.6319109" lon="-1.9077816"><ele>312.5</ele><time>2026-03-22T17:16:11.929Z</time></trkpt><trkpt lat="53.6317663" lon="-1.9078248"><ele>311.25</ele><time>2026-03-22T17:16:12.929Z</time></trkpt><trkpt lat="53.6316265" lon="-1.9078369"><ele>310.0</ele><time>2026-03-22T17:16:13.927Z</time></trkpt><trkpt lat="53.6314946" lon="-1.9078298"><ele>310.0</ele><time>2026-03-22T17:16:14.93Z</time></trkpt><trkpt lat="53.6313852" lon="-1.9078113"><ele>310.0</ele><time>2026-03-22T17:16:15.928Z</time></trkpt><trkpt lat="53.6312842" lon="-1.9077822"><ele>310.0</ele><time>2026-03-22T17:16:16.929Z</time></trkpt><trkpt lat="53.6311899" lon="-1.9077658"><ele>310.0</ele><time>2026-03-22T17:16:17.925Z</time></trkpt><trkpt lat="53.6310956" lon="-1.9077891"><ele>310.0</ele><time>2026-03-22T17:16:18.93Z</time></trkpt><trkpt lat="53.6310096" lon="-1.9078771"><ele>309.0</ele><time>2026-03-22T17:16:19.927Z</time></trkpt><trkpt lat="53.6309421" lon="-1.9080665"><ele>308.0</ele><time>2026-03-22T17:16:20.927Z</time></trkpt><trkpt lat="53.6308871" lon="-1.9082983"><ele>307.0</ele><time>2026-03-22T17:16:21.922Z</time></trkpt><trkpt lat="53.6308365" lon="-1.9085368"><ele>306.0</ele><time>2026-03-22T17:16:22.929Z</time></trkpt><trkpt lat="53.6307957" lon="-1.9087559"><ele>306.0</ele><time>2026-03-22T17:16:23.93Z</time></trkpt><trkpt lat="53.6307548" lon="-1.9089735"><ele>306.0</ele><time>2026-03-22T17:16:24.931Z</time></trkpt><trkpt lat="53.6307014" lon="-1.9091788"><ele>306.0</ele><time>2026-03-22T17:16:25.929Z</time></trkpt><trkpt lat="53.6306345" lon="-1.9093699"><ele>306.0</ele><time>2026-03-22T17:16:26.929Z</time></trkpt><trkpt lat="53.6305538" lon="-1.9095483"><ele>306.5</ele><time>2026-03-22T17:16:27.929Z</time></trkpt><trkpt lat="53.6304613" lon="-1.9097088"><ele>307.0</ele><time>2026-03-22T17:16:28.928Z</time></trkpt><trkpt lat="53.6303649" lon="-1.9098608"><ele>307.5</ele><time>2026-03-22T17:16:29.926Z</time></trkpt><trkpt lat="53.6302616" lon="-1.9100065"><ele>308.0</ele><time>2026-03-22T17:16:30.928Z</time></trkpt><trkpt lat="53.6301419" lon="-1.9101235"><ele>306.25</ele><time>2026-03-22T17:16:31.932Z</time></trkpt><trkpt lat="53.6300107" lon="-1.9102145"><ele>304.5</ele><time>2026-03-22T17:16:32.932Z</time></trkpt><trkpt lat="53.6298847" lon="-1.9102924"><ele>302.75</ele><time>2026-03-22T17:16:33.929Z</time></trkpt><trkpt lat="53.6297706" lon="-1.9103773"><ele>301.0</ele><time>2026-03-22T17:16:34.929Z</time></trkpt><trkpt lat="53.6296614" lon="-1.9104929"><ele>301.0</ele><time>2026-03-22T17:16:35.929Z</time></trkpt><trkpt lat="53.6295582" lon="-1.9106412"><ele>301.0</ele><time>2026-03-22T17:16:36.932Z</time></trkpt><trkpt lat="53.6294744" lon="-1.9108033"><ele>301.0</ele><time>2026-03-22T17:16:37.93Z</time></trkpt><trkpt lat="53.6294052" lon="-1.9109713"><ele>301.0</ele><time>2026-03-22T17:16:38.922Z</time></trkpt><trkpt lat="53.6293294" lon="-1.9111226"><ele>299.25</ele><time>2026-03-22T17:16:39.931Z</time></trkpt><trkpt lat="53.629243" lon="-1.9112508"><ele>297.5</ele><time>2026-03-22T17:16:40.931Z</time></trkpt><trkpt lat="53.6291455" lon="-1.9113521"><ele>295.75</ele><time>2026-03-22T17:16:41.929Z</time></trkpt><trkpt lat="53.6290393" lon="-1.9114406"><ele>294.0</ele><time>2026-03-22T17:16:42.929Z</time></trkpt><trkpt lat="53.6289385" lon="-1.9115321"><ele>294.0</ele><time>2026-03-22T17:16:43.929Z</time></trkpt><trkpt lat="53.6288442" lon="-1.9116271"><ele>294.0</ele><time>2026-03-22T17:16:44.928Z</time></trkpt><trkpt lat="53.6287563" lon="-1.9117304"><ele>294.0</ele><time>2026-03-22T17:16:45.931Z</time></trkpt><trkpt lat="53.6286723" lon="-1.9118394"><ele>294.0</ele><time>2026-03-22T17:16:46.929Z</time></trkpt><trkpt lat="53.6285899" lon="-1.9119403"><ele>294.0</ele><time>2026-03-22T17:16:47.928Z</time></trkpt><trkpt lat="53.6285097" lon="-1.9120311"><ele>292.0</ele><time>2026-03-22T17:16:48.931Z</time></trkpt><trkpt lat="53.6284246" lon="-1.9121199"><ele>290.0</ele><time>2026-03-22T17:16:49.927Z</time></trkpt><trkpt lat="53.6283326" lon="-1.9122197"><ele>288.0</ele><time>2026-03-22T17:16:50.928Z</time></trkpt><trkpt lat="53.6282355" lon="-1.9123279"><ele>286.0</ele><time>2026-03-22T17:16:51.926Z</time></trkpt><trkpt lat="53.6281312" lon="-1.9124353"><ele>284.0</ele><time>2026-03-22T17:16:52.928Z</time></trkpt><trkpt lat="53.628023" lon="-1.9125425"><ele>285.0</ele><time>2026-03-22T17:16:53.928Z</time></trkpt><trkpt lat="53.6279164" lon="-1.9126504"><ele>286.0</ele><time>2026-03-22T17:16:54.928Z</time></trkpt><trkpt lat="53.6278145" lon="-1.9127611"><ele>287.0</ele><time>2026-03-22T17:16:55.925Z</time></trkpt><trkpt lat="53.6277245" lon="-1.9128816"><ele>288.0</ele><time>2026-03-22T17:16:56.926Z</time></trkpt><trkpt lat="53.6276422" lon="-1.9130143"><ele>286.6</ele><time>2026-03-22T17:16:57.926Z</time></trkpt><trkpt lat="53.6275661" lon="-1.9131496"><ele>285.20000000000005</ele><time>2026-03-22T17:16:58.926Z</time></trkpt><trkpt lat="53.6274961" lon="-1.9132753"><ele>283.8</ele><time>2026-03-22T17:16:59.927Z</time></trkpt><trkpt lat="53.627428" lon="-1.9133875"><ele>282.40000000000003</ele><time>2026-03-22T17:17:00.927Z</time></trkpt><trkpt lat="53.6273581" lon="-1.913482"><ele>281.0</ele><time>2026-03-22T17:17:01.928Z</time></trkpt><trkpt lat="53.6272893" lon="-1.9135568"><ele>281.00000000000006</ele><time>2026-03-22T17:17:02.928Z</time></trkpt><trkpt lat="53.6272231" lon="-1.9136267"><ele>281.0</ele><time>2026-03-22T17:17:03.929Z</time></trkpt><trkpt lat="53.6271628" lon="-1.9136941"><ele>281.0</ele><time>2026-03-22T17:17:04.928Z</time></trkpt><trkpt lat="53.6271078" lon="-1.9137629"><ele>281.0</ele><time>2026-03-22T17:17:05.927Z</time></trkpt><trkpt lat="53.6270506" lon="-1.9138181"><ele>281.0</ele><time>2026-03-22T17:17:06.929Z</time></trkpt><trkpt lat="53.6269831" lon="-1.9138565"><ele>281.00000000000006</ele><time>2026-03-22T17:17:07.928Z</time></trkpt><trkpt lat="53.6268989" lon="-1.9138635"><ele>281.0</ele><time>2026-03-22T17:17:08.929Z</time></trkpt><trkpt lat="53.6268042" lon="-1.9138367"><ele>277.40000000000003</ele><time>2026-03-22T17:17:09.928Z</time></trkpt><trkpt lat="53.6267075" lon="-1.9138155"><ele>273.8</ele><time>2026-03-22T17:17:10.927Z</time></trkpt><trkpt lat="53.6266097" lon="-1.9138045"><ele>270.20000000000005</ele><time>2026-03-22T17:17:11.926Z</time></trkpt><trkpt lat="53.626513" lon="-1.9137975"><ele>266.6</ele><time>2026-03-22T17:17:12.926Z</time></trkpt><trkpt lat="53.6264213" lon="-1.9137862"><ele>263.0</ele><time>2026-03-22T17:17:13.927Z</time></trkpt><trkpt lat="53.626337" lon="-1.9137618"><ele>263.0</ele><time>2026-03-22T17:17:14.926Z</time></trkpt><trkpt lat="53.6262648" lon="-1.9137141"><ele>263.0</ele><time>2026-03-22T17:17:15.923Z</time></trkpt><trkpt lat="53.6262011" lon="-1.9136495"><ele>263.0</ele><time>2026-03-22T17:17:16.924Z</time></trkpt><trkpt lat="53.6261433" lon="-1.9135754"><ele>263.0</ele><time>2026-03-22T17:17:17.922Z</time></trkpt><trkpt lat="53.6260909" lon="-1.9134927"><ele>263.0</ele><time>2026-03-22T17:17:18.924Z</time></trkpt><trkpt lat="53.6260378" lon="-1.9134087"><ele>263.0</ele><time>2026-03-22T17:17:19.926Z</time></trkpt><trkpt lat="53.6259915" lon="-1.9133197"><ele>263.0</ele><time>2026-03-22T17:17:20.925Z</time></trkpt><trkpt lat="53.6259438" lon="-1.9132294"><ele>259.5</ele><time>2026-03-22T17:17:21.925Z</time></trkpt><trkpt lat="53.625892" lon="-1.913151"><ele>256.0</ele><time>2026-03-22T17:17:22.927Z</time></trkpt><trkpt lat="53.6257921" lon="-1.9130775"><ele>252.5</ele><time>2026-03-22T17:17:24.926Z</time></trkpt><trkpt lat="53.6256978" lon="-1.9131044"><ele>249.0</ele><time>2026-03-22T17:17:26.929Z</time></trkpt><trkpt lat="53.6256203" lon="-1.9131518"><ele>245.50000000000003</ele><time>2026-03-22T17:17:28.926Z</time></trkpt><trkpt lat="53.6255516" lon="-1.9131559"><ele>242.0</ele><time>2026-03-22T17:17:31.93Z</time></trkpt><trkpt lat="53.6254497" lon="-1.9131514"><ele>242.00000000000003</ele><time>2026-03-22T17:17:33.93Z</time></trkpt><trkpt lat="53.6253841" lon="-1.9131699"><ele>242.0</ele><time>2026-03-22T17:17:34.924Z</time></trkpt><trkpt lat="53.625311" lon="-1.9131921"><ele>242.0</ele><time>2026-03-22T17:17:35.933Z</time></trkpt><trkpt lat="53.6252483" lon="-1.9132119"><ele>242.0</ele><time>2026-03-22T17:17:36.929Z</time></trkpt><trkpt lat="53.625135" lon="-1.9132237"><ele>242.00000000000003</ele><time>2026-03-22T17:17:38.926Z</time></trkpt><trkpt lat="53.6250437" lon="-1.9131439"><ele>242.0</ele><time>2026-03-22T17:17:40.926Z</time></trkpt><trkpt lat="53.6249571" lon="-1.9130275"><ele>240.8</ele><time>2026-03-22T17:17:42.922Z</time></trkpt><trkpt lat="53.6248977" lon="-1.9129709"><ele>239.6</ele><time>2026-03-22T17:17:43.923Z</time></trkpt><trkpt lat="53.6247913" lon="-1.9128738"><ele>238.40000000000003</ele><time>2026-03-22T17:17:45.926Z</time></trkpt><trkpt lat="53.6247125" lon="-1.9127671"><ele>237.20000000000002</ele><time>2026-03-22T17:17:47.925Z</time></trkpt><trkpt lat="53.6246811" lon="-1.9126519"><ele>236.0</ele><time>2026-03-22T17:17:49.925Z</time></trkpt><trkpt lat="53.6246386" lon="-1.9125248"><ele>235.28571428571428</ele><time>2026-03-22T17:17:51.923Z</time></trkpt><trkpt lat="53.6245947" lon="-1.9124209"><ele>234.57142857142858</ele><time>2026-03-22T17:17:53.923Z</time></trkpt><trkpt lat="53.6245486" lon="-1.9123436"><ele>233.85714285714286</ele><time>2026-03-22T17:17:55.918Z</time></trkpt><trkpt lat="53.6244945" lon="-1.9122492"><ele>233.14285714285714</ele><time>2026-03-22T17:17:58.924Z</time></trkpt><trkpt lat="53.6244544" lon="-1.9121608"><ele>232.42857142857144</ele><time>2026-03-22T17:18:03.926Z</time></trkpt><trkpt lat="53.6244143" lon="-1.9120699"><ele>231.71428571428572</ele><time>2026-03-22T17:19:59.929Z</time></trkpt><trkpt lat="53.6243703" lon="-1.9119782"><ele>231.0</ele><time>2026-03-22T17:21:20.931Z</time></trkpt><trkpt lat="53.6243499" lon="-1.9118735"><ele>234.85714285714286</ele><time>2026-03-22T17:22:09.931Z</time></trkpt><trkpt lat="53.6243038" lon="-1.9117846"><ele>238.71428571428572</ele><time>2026-03-22T17:22:17.928Z</time></trkpt><trkpt lat="53.6242542" lon="-1.9116746"><ele>242.57142857142856</ele><time>2026-03-22T17:22:20.928Z</time></trkpt><trkpt lat="53.6242142" lon="-1.9115647"><ele>246.42857142857142</ele><time>2026-03-22T17:22:22.929Z</time></trkpt><trkpt lat="53.6241428" lon="-1.911559"><ele>250.28571428571428</ele><time>2026-03-22T17:22:25.927Z</time></trkpt><trkpt lat="53.6241263" lon="-1.9116628"><ele>254.1428571428571</ele><time>2026-03-22T17:22:29.928Z</time></trkpt><trkpt lat="53.6241044" lon="-1.9117646"><ele>258.0</ele><time>2026-03-22T17:22:32.894Z</time></trkpt><trkpt lat="53.624068" lon="-1.9118549"><ele>257.99999999999994</ele><time>2026-03-22T17:22:38.934Z</time></trkpt><trkpt lat="53.6240044" lon="-1.9119211"><ele>258.0</ele><time>2026-03-22T17:22:43.924Z</time></trkpt><trkpt lat="53.6239545" lon="-1.9118123"><ele>258.0</ele><time>2026-03-22T17:23:34.937Z</time></trkpt><trkpt lat="53.6239158" lon="-1.9117015"><ele>258.0</ele><time>2026-03-22T17:23:39.932Z</time></trkpt><trkpt lat="53.6238579" lon="-1.9116509"><ele>258.0</ele><time>2026-03-22T17:23:45.928Z</time></trkpt><trkpt lat="53.6237975" lon="-1.9116853"><ele>257.99999999999994</ele><time>2026-03-22T17:23:49.932Z</time></trkpt><trkpt lat="53.6237472" lon="-1.911753"><ele>258.0</ele><time>2026-03-22T17:24:35.846Z</time></trkpt><trkpt lat="53.6236906" lon="-1.9118124"><ele>262.6</ele><time>2026-03-22T17:24:39.945Z</time></trkpt><trkpt lat="53.6236047" lon="-1.9119572"><ele>267.20000000000005</ele><time>2026-03-22T17:24:58.928Z</time></trkpt><trkpt lat="53.6235406" lon="-1.9120136"><ele>271.8</ele><time>2026-03-22T17:25:01.956Z</time></trkpt><trkpt lat="53.6234644" lon="-1.9120489"><ele>276.40000000000003</ele><time>2026-03-22T17:25:06.937Z</time></trkpt><trkpt lat="53.6233222" lon="-1.9120458"><ele>281.0</ele><time>2026-03-22T17:26:07.934Z</time></trkpt><trkpt lat="53.6231707" lon="-1.9119887"><ele>281.0</ele><time>2026-03-22T17:26:08.936Z</time></trkpt><trkpt lat="53.6230307" lon="-1.9119075"><ele>281.0</ele><time>2026-03-22T17:26:09.935Z</time></trkpt><trkpt lat="53.6229085" lon="-1.9118163"><ele>281.0</ele><time>2026-03-22T17:26:10.935Z</time></trkpt><trkpt lat="53.6227894" lon="-1.911728"><ele>281.0</ele><time>2026-03-22T17:26:11.93Z</time></trkpt><trkpt lat="53.62267" lon="-1.911641"><ele>283.0</ele><time>2026-03-22T17:26:12.933Z</time></trkpt><trkpt lat="53.6225516" lon="-1.9115429"><ele>285.0</ele><time>2026-03-22T17:26:13.933Z</time></trkpt><trkpt lat="53.6224387" lon="-1.9114343"><ele>287.0</ele><time>2026-03-22T17:26:14.929Z</time></trkpt><trkpt lat="53.6223376" lon="-1.9113273"><ele>289.0</ele><time>2026-03-22T17:26:15.934Z</time></trkpt><trkpt lat="53.6222499" lon="-1.9112411"><ele>289.0</ele><time>2026-03-22T17:26:16.928Z</time></trkpt><trkpt lat="53.6221682" lon="-1.9111818"><ele>289.0</ele><time>2026-03-22T17:26:17.932Z</time></trkpt><trkpt lat="53.6220925" lon="-1.9111399"><ele>289.0</ele><time>2026-03-22T17:26:18.93Z</time></trkpt><trkpt lat="53.6220295" lon="-1.9111119"><ele>289.0</ele><time>2026-03-22T17:26:19.93Z</time></trkpt><trkpt lat="53.6219538" lon="-1.9110833"><ele>289.0</ele><time>2026-03-22T17:26:21.931Z</time></trkpt><trkpt lat="53.6218686" lon="-1.9110864"><ele>289.0</ele><time>2026-03-22T17:26:24.931Z</time></trkpt><trkpt lat="53.6217425" lon="-1.9110684"><ele>290.16666666666663</ele><time>2026-03-22T17:26:26.931Z</time></trkpt><trkpt lat="53.6216708" lon="-1.9110371"><ele>291.3333333333333</ele><time>2026-03-22T17:26:27.931Z</time></trkpt><trkpt lat="53.6216024" lon="-1.9109921"><ele>292.5</ele><time>2026-03-22T17:26:28.931Z</time></trkpt><trkpt lat="53.6215434" lon="-1.9109415"><ele>293.6666666666667</ele><time>2026-03-22T17:26:29.933Z</time></trkpt><trkpt lat="53.6214473" lon="-1.9108712"><ele>294.83333333333337</ele><time>2026-03-22T17:26:31.934Z</time></trkpt><trkpt lat="53.6213652" lon="-1.9108502"><ele>296.0</ele><time>2026-03-22T17:27:14.932Z</time></trkpt><trkpt lat="53.6212539" lon="-1.9107893"><ele>296.0</ele><time>2026-03-22T17:27:16.933Z</time></trkpt><trkpt lat="53.6211507" lon="-1.9107534"><ele>296.0</ele><time>2026-03-22T17:27:18.932Z</time></trkpt><trkpt lat="53.6210755" lon="-1.910737"><ele>296.0</ele><time>2026-03-22T17:27:19.931Z</time></trkpt><trkpt lat="53.6209797" lon="-1.9107212"><ele>296.0</ele><time>2026-03-22T17:27:20.931Z</time></trkpt><trkpt lat="53.6208718" lon="-1.9107174"><ele>296.0</ele><time>2026-03-22T17:27:21.932Z</time></trkpt><trkpt lat="53.6207626" lon="-1.9107249"><ele>296.83333333333337</ele><time>2026-03-22T17:27:22.934Z</time></trkpt><trkpt lat="53.6206663" lon="-1.9107474"><ele>297.6666666666667</ele><time>2026-03-22T17:27:23.931Z</time></trkpt><trkpt lat="53.6205822" lon="-1.9107792"><ele>298.5</ele><time>2026-03-22T17:27:24.931Z</time></trkpt><trkpt lat="53.6205001" lon="-1.9108143"><ele>299.3333333333333</ele><time>2026-03-22T17:27:25.932Z</time></trkpt><trkpt lat="53.6204208" lon="-1.9108549"><ele>300.16666666666663</ele><time>2026-03-22T17:27:26.933Z</time></trkpt><trkpt lat="53.6203513" lon="-1.9109009"><ele>301.0</ele><time>2026-03-22T17:27:27.927Z</time></trkpt><trkpt lat="53.6202944" lon="-1.9109469"><ele>301.2</ele><time>2026-03-22T17:27:28.933Z</time></trkpt><trkpt lat="53.6202085" lon="-1.911044"><ele>301.40000000000003</ele><time>2026-03-22T17:27:30.927Z</time></trkpt><trkpt lat="53.6201388" lon="-1.9111649"><ele>301.6</ele><time>2026-03-22T17:27:32.936Z</time></trkpt><trkpt lat="53.6200971" lon="-1.9113479"><ele>301.8</ele><time>2026-03-22T17:27:34.935Z</time></trkpt><trkpt lat="53.6200881" lon="-1.9115256"><ele>302.0</ele><time>2026-03-22T17:27:36.934Z</time></trkpt><trkpt lat="53.6200862" lon="-1.9116711"><ele>303.0</ele><time>2026-03-22T17:27:38.934Z</time></trkpt><trkpt lat="53.6200857" lon="-1.911799"><ele>304.0</ele><time>2026-03-22T17:27:40.934Z</time></trkpt><trkpt lat="53.6200731" lon="-1.9119074"><ele>305.0</ele><time>2026-03-22T17:27:44.932Z</time></trkpt><trkpt lat="53.6200536" lon="-1.9120679"><ele>306.0</ele><time>2026-03-22T17:27:47.933Z</time></trkpt><trkpt lat="53.6200415" lon="-1.9122561"><ele>307.0</ele><time>2026-03-22T17:27:49.932Z</time></trkpt><trkpt lat="53.6200259" lon="-1.91244"><ele>307.66666666666663</ele><time>2026-03-22T17:27:51.933Z</time></trkpt><trkpt lat="53.6200205" lon="-1.9126178"><ele>308.3333333333333</ele><time>2026-03-22T17:27:53.934Z</time></trkpt><trkpt lat="53.6200237" lon="-1.9127348"><ele>309.0</ele><time>2026-03-22T17:27:54.934Z</time></trkpt><trkpt lat="53.6200279" lon="-1.9128594"><ele>309.6666666666667</ele><time>2026-03-22T17:27:55.93Z</time></trkpt><trkpt lat="53.6200353" lon="-1.912965"><ele>310.33333333333337</ele><time>2026-03-22T17:27:56.935Z</time></trkpt><trkpt lat="53.6200469" lon="-1.913074"><ele>311.0</ele><time>2026-03-22T17:27:57.934Z</time></trkpt><trkpt lat="53.6200638" lon="-1.9131948"><ele>311.0</ele><time>2026-03-22T17:27:58.935Z</time></trkpt><trkpt lat="53.6200911" lon="-1.9133175"><ele>311.0</ele><time>2026-03-22T17:27:59.934Z</time></trkpt><trkpt lat="53.6201266" lon="-1.9134397"><ele>311.0</ele><time>2026-03-22T17:28:00.935Z</time></trkpt><trkpt lat="53.6201667" lon="-1.9135667"><ele>311.0</ele><time>2026-03-22T17:28:01.935Z</time></trkpt><trkpt lat="53.6202046" lon="-1.9137025"><ele>311.0</ele><time>2026-03-22T17:28:02.933Z</time></trkpt><trkpt lat="53.6202414" lon="-1.9138448"><ele>311.0</ele><time>2026-03-22T17:28:03.938Z</time></trkpt><trkpt lat="53.6202766" lon="-1.913986"><ele>311.40000000000003</ele><time>2026-03-22T17:28:04.937Z</time></trkpt><trkpt lat="53.6203079" lon="-1.914127"><ele>311.8</ele><time>2026-03-22T17:28:05.935Z</time></trkpt><trkpt lat="53.6203344" lon="-1.914271"><ele>312.20000000000005</ele><time>2026-03-22T17:28:06.937Z</time></trkpt><trkpt lat="53.6203508" lon="-1.9144299"><ele>312.6</ele><time>2026-03-22T17:28:07.935Z</time></trkpt><trkpt lat="53.6203589" lon="-1.9146047"><ele>313.0</ele><time>2026-03-22T17:28:08.938Z</time></trkpt><trkpt lat="53.6203636" lon="-1.9147913"><ele>314.25</ele><time>2026-03-22T17:28:09.939Z</time></trkpt><trkpt lat="53.6203701" lon="-1.9149898"><ele>315.5</ele><time>2026-03-22T17:28:10.937Z</time></trkpt><trkpt lat="53.6203768" lon="-1.915188"><ele>316.75</ele><time>2026-03-22T17:28:11.934Z</time></trkpt><trkpt lat="53.6203852" lon="-1.9153788"><ele>318.0</ele><time>2026-03-22T17:28:12.934Z</time></trkpt><trkpt lat="53.6203926" lon="-1.9155623"><ele>318.4</ele><time>2026-03-22T17:28:13.934Z</time></trkpt><trkpt lat="53.6203984" lon="-1.9157427"><ele>318.8</ele><time>2026-03-22T17:28:14.933Z</time></trkpt><trkpt lat="53.6204073" lon="-1.9159193"><ele>319.2</ele><time>2026-03-22T17:28:15.933Z</time></trkpt><trkpt lat="53.6204208" lon="-1.9160918"><ele>319.6</ele><time>2026-03-22T17:28:16.93Z</time></trkpt><trkpt lat="53.6204369" lon="-1.9162681"><ele>320.0</ele><time>2026-03-22T17:28:17.935Z</time></trkpt><trkpt lat="53.6204577" lon="-1.9164543"><ele>320.25</ele><time>2026-03-22T17:28:18.936Z</time></trkpt><trkpt lat="53.6204847" lon="-1.9166365"><ele>320.5</ele><time>2026-03-22T17:28:19.936Z</time></trkpt><trkpt lat="53.6205283" lon="-1.9168191"><ele>320.75</ele><time>2026-03-22T17:28:20.935Z</time></trkpt><trkpt lat="53.6205739" lon="-1.9169965"><ele>321.0</ele><time>2026-03-22T17:28:21.932Z</time></trkpt><trkpt lat="53.6206166" lon="-1.9171641"><ele>321.20000000000005</ele><time>2026-03-22T17:28:22.932Z</time></trkpt><trkpt lat="53.6206608" lon="-1.9173184"><ele>321.40000000000003</ele><time>2026-03-22T17:28:23.933Z</time></trkpt><trkpt lat="53.6207035" lon="-1.917475"><ele>321.6</ele><time>2026-03-22T17:28:24.932Z</time></trkpt><trkpt lat="53.6207361" lon="-1.9176237"><ele>321.8</ele><time>2026-03-22T17:28:25.932Z</time></trkpt><trkpt lat="53.6207578" lon="-1.9177707"><ele>322.0</ele><time>2026-03-22T17:28:26.934Z</time></trkpt><trkpt lat="53.6207732" lon="-1.9179143"><ele>322.16666666666663</ele><time>2026-03-22T17:28:27.935Z</time></trkpt><trkpt lat="53.6207871" lon="-1.9180499"><ele>322.3333333333333</ele><time>2026-03-22T17:28:28.934Z</time></trkpt><trkpt lat="53.6207984" lon="-1.9181639"><ele>322.5</ele><time>2026-03-22T17:28:29.933Z</time></trkpt><trkpt lat="53.6208312" lon="-1.9182996"><ele>322.6666666666667</ele><time>2026-03-22T17:28:31.936Z</time></trkpt><trkpt lat="53.6209121" lon="-1.9183342"><ele>322.83333333333337</ele><time>2026-03-22T17:28:33.934Z</time></trkpt><trkpt lat="53.6210084" lon="-1.9183431"><ele>323.0</ele><time>2026-03-22T17:28:35.934Z</time></trkpt><trkpt lat="53.6210916" lon="-1.9183945"><ele>322.2</ele><time>2026-03-22T17:28:38.931Z</time></trkpt><trkpt lat="53.6211581" lon="-1.9184009"><ele>321.4</ele><time>2026-03-22T17:28:40.943Z</time></trkpt><trkpt lat="53.621229" lon="-1.9182362"><ele>320.59999999999997</ele><time>2026-03-22T17:28:42.935Z</time></trkpt><trkpt lat="53.6212536" lon="-1.9180877"><ele>319.79999999999995</ele><time>2026-03-22T17:28:43.933Z</time></trkpt><trkpt lat="53.6212677" lon="-1.9179147"><ele>319.0</ele><time>2026-03-22T17:28:44.936Z</time></trkpt><trkpt lat="53.6212774" lon="-1.917725"><ele>318.25</ele><time>2026-03-22T17:28:45.935Z</time></trkpt><trkpt lat="53.6212859" lon="-1.91752"><ele>317.5</ele><time>2026-03-22T17:28:46.933Z</time></trkpt><trkpt lat="53.6212938" lon="-1.9172948"><ele>316.75</ele><time>2026-03-22T17:28:47.928Z</time></trkpt><trkpt lat="53.6213074" lon="-1.9170629"><ele>316.0</ele><time>2026-03-22T17:28:48.937Z</time></trkpt><trkpt lat="53.6213299" lon="-1.916818"><ele>315.75</ele><time>2026-03-22T17:28:49.928Z</time></trkpt><trkpt lat="53.6213581" lon="-1.9165801"><ele>315.5</ele><time>2026-03-22T17:28:50.937Z</time></trkpt><trkpt lat="53.6213874" lon="-1.9163476"><ele>315.25</ele><time>2026-03-22T17:28:51.934Z</time></trkpt><trkpt lat="53.6214184" lon="-1.9161147"><ele>315.0</ele><time>2026-03-22T17:28:52.936Z</time></trkpt><trkpt lat="53.6214417" lon="-1.9158679"><ele>314.3333333333333</ele><time>2026-03-22T17:28:53.938Z</time></trkpt><trkpt lat="53.62146" lon="-1.9156074"><ele>313.66666666666663</ele><time>2026-03-22T17:28:54.933Z</time></trkpt><trkpt lat="53.6214763" lon="-1.9153228"><ele>313.0</ele><time>2026-03-22T17:28:55.935Z</time></trkpt><trkpt lat="53.6214971" lon="-1.9150149"><ele>312.0</ele><time>2026-03-22T17:28:56.935Z</time></trkpt><trkpt lat="53.6215194" lon="-1.9146936"><ele>311.0</ele><time>2026-03-22T17:28:57.937Z</time></trkpt><trkpt lat="53.6215389" lon="-1.9143826"><ele>310.0</ele><time>2026-03-22T17:28:58.935Z</time></trkpt><trkpt lat="53.6215538" lon="-1.9140963"><ele>309.5</ele><time>2026-03-22T17:28:59.936Z</time></trkpt><trkpt lat="53.6215715" lon="-1.9138348"><ele>309.0</ele><time>2026-03-22T17:29:00.936Z</time></trkpt><trkpt lat="53.6215982" lon="-1.9136131"><ele>308.5</ele><time>2026-03-22T17:29:01.938Z</time></trkpt><trkpt lat="53.6216398" lon="-1.9134038"><ele>308.0</ele><time>2026-03-22T17:29:02.937Z</time></trkpt><trkpt lat="53.6216881" lon="-1.9131929"><ele>307.5</ele><time>2026-03-22T17:29:03.939Z</time></trkpt><trkpt lat="53.621737" lon="-1.9129902"><ele>307.0</ele><time>2026-03-22T17:29:04.936Z</time></trkpt><trkpt lat="53.6217804" lon="-1.9127963"><ele>306.5</ele><time>2026-03-22T17:29:05.936Z</time></trkpt><trkpt lat="53.6218154" lon="-1.9126106"><ele>306.0</ele><time>2026-03-22T17:29:06.937Z</time></trkpt><trkpt lat="53.6218399" lon="-1.9124235"><ele>305.8</ele><time>2026-03-22T17:29:07.938Z</time></trkpt><trkpt lat="53.6218578" lon="-1.9122323"><ele>305.6</ele><time>2026-03-22T17:29:08.936Z</time></trkpt><trkpt lat="53.6218747" lon="-1.9120524"><ele>305.4</ele><time>2026-03-22T17:29:09.936Z</time></trkpt><trkpt lat="53.6218866" lon="-1.9118695"><ele>305.2</ele><time>2026-03-22T17:29:10.938Z</time></trkpt><trkpt lat="53.6218908" lon="-1.91169"><ele>305.0</ele><time>2026-03-22T17:29:11.933Z</time></trkpt><trkpt lat="53.6218867" lon="-1.9115149"><ele>304.6</ele><time>2026-03-22T17:29:12.934Z</time></trkpt><trkpt lat="53.6218711" lon="-1.9113599"><ele>304.2</ele><time>2026-03-22T17:29:13.934Z</time></trkpt><trkpt lat="53.6218465" lon="-1.9112272"><ele>303.8</ele><time>2026-03-22T17:29:14.934Z</time></trkpt><trkpt lat="53.6218577" lon="-1.9110702"><ele>303.4</ele><time>2026-03-22T17:29:16.935Z</time></trkpt><trkpt lat="53.6220046" lon="-1.9110861"><ele>303.0</ele><time>2026-03-22T17:29:18.933Z</time></trkpt><trkpt lat="53.6221149" lon="-1.9111595"><ele>299.5</ele><time>2026-03-22T17:29:19.931Z</time></trkpt><trkpt lat="53.6222364" lon="-1.9112427"><ele>296.0</ele><time>2026-03-22T17:29:20.932Z</time></trkpt><trkpt lat="53.6223503" lon="-1.911335"><ele>292.5</ele><time>2026-03-22T17:29:21.932Z</time></trkpt><trkpt lat="53.6224488" lon="-1.9114302"><ele>289.0</ele><time>2026-03-22T17:29:22.932Z</time></trkpt><trkpt lat="53.6225361" lon="-1.9115412"><ele>289.0</ele><time>2026-03-22T17:29:23.935Z</time></trkpt><trkpt lat="53.6226284" lon="-1.9116665"><ele>289.0</ele><time>2026-03-22T17:29:24.932Z</time></trkpt><trkpt lat="53.6227282" lon="-1.9117739"><ele>289.0</ele><time>2026-03-22T17:29:25.932Z</time></trkpt><trkpt lat="53.6228225" lon="-1.9118523"><ele>289.0</ele><time>2026-03-22T17:29:26.932Z</time></trkpt><trkpt lat="53.6229134" lon="-1.9119078"><ele>289.0</ele><time>2026-03-22T17:29:27.933Z</time></trkpt><trkpt lat="53.6230007" lon="-1.9119523"><ele>287.4</ele><time>2026-03-22T17:29:28.935Z</time></trkpt><trkpt lat="53.6230862" lon="-1.911997"><ele>285.79999999999995</ele><time>2026-03-22T17:29:29.935Z</time></trkpt><trkpt lat="53.6231644" lon="-1.9120324"><ele>284.20000000000005</ele><time>2026-03-22T17:29:30.935Z</time></trkpt><trkpt lat="53.6232339" lon="-1.91206"><ele>282.6</ele><time>2026-03-22T17:29:31.935Z</time></trkpt><trkpt lat="53.6233527" lon="-1.9120919"><ele>281.0</ele><time>2026-03-22T17:29:33.936Z</time></trkpt><trkpt lat="53.6234463" lon="-1.9120992"><ele>281.0</ele><time>2026-03-22T17:29:35.935Z</time></trkpt><trkpt lat="53.623519" lon="-1.9120889"><ele>281.0</ele><time>2026-03-22T17:29:37.941Z</time></trkpt><trkpt lat="53.62359" lon="-1.9120232"><ele>281.0</ele><time>2026-03-22T17:29:39.942Z</time></trkpt><trkpt lat="53.6236403" lon="-1.9119122"><ele>281.0</ele><time>2026-03-22T17:29:41.937Z</time></trkpt><trkpt lat="53.6236852" lon="-1.911782"><ele>281.0</ele><time>2026-03-22T17:29:44.939Z</time></trkpt><trkpt lat="53.6237557" lon="-1.911711"><ele>281.0</ele><time>2026-03-22T17:29:47.937Z</time></trkpt><trkpt lat="53.6238207" lon="-1.9116819"><ele>278.1666666666667</ele><time>2026-03-22T17:29:51.932Z</time></trkpt><trkpt lat="53.6238736" lon="-1.9118038"><ele>275.33333333333337</ele><time>2026-03-22T17:29:55.938Z</time></trkpt><trkpt lat="53.6239477" lon="-1.9118856"><ele>272.5</ele><time>2026-03-22T17:29:57.936Z</time></trkpt><trkpt lat="53.6240143" lon="-1.9118912"><ele>269.6666666666667</ele><time>2026-03-22T17:29:59.936Z</time></trkpt><trkpt lat="53.6240586" lon="-1.9118045"><ele>266.8333333333333</ele><time>2026-03-22T17:30:01.933Z</time></trkpt><trkpt lat="53.6240856" lon="-1.9116814"><ele>264.0</ele><time>2026-03-22T17:30:03.929Z</time></trkpt><trkpt lat="53.6241065" lon="-1.911572"><ele>264.0</ele><time>2026-03-22T17:30:05.927Z</time></trkpt><trkpt lat="53.6241784" lon="-1.9115895"><ele>264.0</ele><time>2026-03-22T17:30:09.926Z</time></trkpt><trkpt lat="53.6242186" lon="-1.9116938"><ele>264.0</ele><time>2026-03-22T17:30:13.929Z</time></trkpt><trkpt lat="53.6242574" lon="-1.9118076"><ele>264.0</ele><time>2026-03-22T17:30:17.936Z</time></trkpt><trkpt lat="53.6242969" lon="-1.9119477"><ele>264.0</ele><time>2026-03-22T17:30:21.939Z</time></trkpt><trkpt lat="53.6243191" lon="-1.9120473"><ele>264.0</ele><time>2026-03-22T17:30:25.925Z</time></trkpt><trkpt lat="53.6243664" lon="-1.9121558"><ele>264.0</ele><time>2026-03-22T17:30:28.935Z</time></trkpt><trkpt lat="53.6244114" lon="-1.9122456"><ele>264.0</ele><time>2026-03-22T17:30:31.975Z</time></trkpt><trkpt lat="53.6244583" lon="-1.9123635"><ele>264.0</ele><time>2026-03-22T17:30:34.916Z</time></trkpt><trkpt lat="53.6245042" lon="-1.9124913"><ele>264.0</ele><time>2026-03-22T17:30:37.932Z</time></trkpt><trkpt lat="53.6245625" lon="-1.9125879"><ele>264.0</ele><time>2026-03-22T17:30:40.796Z</time></trkpt><trkpt lat="53.6246146" lon="-1.9127694"><ele>264.0</ele><time>2026-03-22T17:30:42.928Z</time></trkpt><trkpt lat="53.6246793" lon="-1.9128992"><ele>258.4</ele><time>2026-03-22T17:30:44.93Z</time></trkpt><trkpt lat="53.624709" lon="-1.9130303"><ele>252.79999999999998</ele><time>2026-03-22T17:30:45.923Z</time></trkpt><trkpt lat="53.6247765" lon="-1.9131515"><ele>247.20000000000002</ele><time>2026-03-22T17:30:47.933Z</time></trkpt><trkpt lat="53.624909" lon="-1.9131946"><ele>241.60000000000002</ele><time>2026-03-22T17:30:49.93Z</time></trkpt><trkpt lat="53.6249891" lon="-1.9131884"><ele>236.0</ele><time>2026-03-22T17:30:50.925Z</time></trkpt><trkpt lat="53.6250965" lon="-1.9131771"><ele>236.0</ele><time>2026-03-22T17:30:51.929Z</time></trkpt><trkpt lat="53.6252364" lon="-1.9131552"><ele>236.00000000000003</ele><time>2026-03-22T17:30:52.929Z</time></trkpt><trkpt lat="53.6253397" lon="-1.9131449"><ele>236.00000000000003</ele><time>2026-03-22T17:30:53.928Z</time></trkpt><trkpt lat="53.6254282" lon="-1.9131422"><ele>236.0</ele><time>2026-03-22T17:30:54.929Z</time></trkpt><trkpt lat="53.6255091" lon="-1.9131338"><ele>236.0</ele><time>2026-03-22T17:30:55.93Z</time></trkpt><trkpt lat="53.6255912" lon="-1.9131336"><ele>237.20000000000002</ele><time>2026-03-22T17:30:56.927Z</time></trkpt><trkpt lat="53.6256714" lon="-1.9131209"><ele>238.40000000000003</ele><time>2026-03-22T17:30:57.927Z</time></trkpt><trkpt lat="53.6257374" lon="-1.9131108"><ele>239.6</ele><time>2026-03-22T17:30:58.929Z</time></trkpt><trkpt lat="53.6258534" lon="-1.9131638"><ele>240.8</ele><time>2026-03-22T17:31:00.927Z</time></trkpt><trkpt lat="53.6259278" lon="-1.9132597"><ele>242.0</ele><time>2026-03-22T17:31:01.93Z</time></trkpt><trkpt lat="53.6260028" lon="-1.9133725"><ele>242.6</ele><time>2026-03-22T17:31:02.932Z</time></trkpt><trkpt lat="53.6260756" lon="-1.9134904"><ele>243.2</ele><time>2026-03-22T17:31:03.93Z</time></trkpt><trkpt lat="53.6261589" lon="-1.9136035"><ele>243.8</ele><time>2026-03-22T17:31:04.93Z</time></trkpt><trkpt lat="53.6262256" lon="-1.9136895"><ele>244.4</ele><time>2026-03-22T17:31:05.931Z</time></trkpt><trkpt lat="53.6263048" lon="-1.9137587"><ele>245.0</ele><time>2026-03-22T17:31:06.932Z</time></trkpt><trkpt lat="53.6263962" lon="-1.9138222"><ele>249.5</ele><time>2026-03-22T17:31:07.93Z</time></trkpt><trkpt lat="53.6265015" lon="-1.9138487"><ele>254.0</ele><time>2026-03-22T17:31:08.93Z</time></trkpt><trkpt lat="53.6266225" lon="-1.9138711"><ele>258.5</ele><time>2026-03-22T17:31:09.932Z</time></trkpt><trkpt lat="53.6267364" lon="-1.9138738"><ele>263.0</ele><time>2026-03-22T17:31:10.933Z</time></trkpt><trkpt lat="53.6268459" lon="-1.9138721"><ele>263.0</ele><time>2026-03-22T17:31:11.932Z</time></trkpt><trkpt lat="53.6269626" lon="-1.9138762"><ele>263.0</ele><time>2026-03-22T17:31:12.931Z</time></trkpt><trkpt lat="53.627084" lon="-1.9138613"><ele>263.0</ele><time>2026-03-22T17:31:13.935Z</time></trkpt><trkpt lat="53.6272014" lon="-1.913812"><ele>263.0</ele><time>2026-03-22T17:31:14.932Z</time></trkpt><trkpt lat="53.6273063" lon="-1.913729"><ele>266.0</ele><time>2026-03-22T17:31:15.933Z</time></trkpt><trkpt lat="53.6273933" lon="-1.9136203"><ele>269.0</ele><time>2026-03-22T17:31:16.932Z</time></trkpt><trkpt lat="53.6274916" lon="-1.9134627"><ele>272.0</ele><time>2026-03-22T17:31:17.931Z</time></trkpt><trkpt lat="53.6276046" lon="-1.9133041"><ele>275.0</ele><time>2026-03-22T17:31:18.935Z</time></trkpt><trkpt lat="53.627706" lon="-1.9131289"><ele>275.0</ele><time>2026-03-22T17:31:19.935Z</time></trkpt><trkpt lat="53.627809" lon="-1.912939"><ele>275.0</ele><time>2026-03-22T17:31:20.933Z</time></trkpt><trkpt lat="53.6279207" lon="-1.9127507"><ele>275.0</ele><time>2026-03-22T17:31:21.934Z</time></trkpt><trkpt lat="53.6280509" lon="-1.9125729"><ele>278.0</ele><time>2026-03-22T17:31:22.935Z</time></trkpt><trkpt lat="53.6281869" lon="-1.9124055"><ele>281.0</ele><time>2026-03-22T17:31:23.932Z</time></trkpt><trkpt lat="53.6283273" lon="-1.9122489"><ele>284.0</ele><time>2026-03-22T17:31:24.931Z</time></trkpt><trkpt lat="53.628467" lon="-1.9121204"><ele>284.0</ele><time>2026-03-22T17:31:25.932Z</time></trkpt><trkpt lat="53.6285949" lon="-1.9120082"><ele>284.0</ele><time>2026-03-22T17:31:26.932Z</time></trkpt><trkpt lat="53.628708" lon="-1.9118966"><ele>284.0</ele><time>2026-03-22T17:31:27.933Z</time></trkpt><trkpt lat="53.6288005" lon="-1.9117867"><ele>284.0</ele><time>2026-03-22T17:31:28.934Z</time></trkpt><trkpt lat="53.6288566" lon="-1.9116949"><ele>286.0</ele><time>2026-03-22T17:31:29.933Z</time></trkpt><trkpt lat="53.6289048" lon="-1.9115951"><ele>288.0</ele><time>2026-03-22T17:31:31.935Z</time></trkpt><trkpt lat="53.6289872" lon="-1.9114794"><ele>290.0</ele><time>2026-03-22T17:31:33.935Z</time></trkpt><trkpt lat="53.6290652" lon="-1.9114016"><ele>292.0</ele><time>2026-03-22T17:31:34.936Z</time></trkpt><trkpt lat="53.6291671" lon="-1.9113078"><ele>294.0</ele><time>2026-03-22T17:31:35.938Z</time></trkpt><trkpt lat="53.6292892" lon="-1.9112082"><ele>294.0</ele><time>2026-03-22T17:31:36.937Z</time></trkpt><trkpt lat="53.6294054" lon="-1.9110899"><ele>294.0</ele><time>2026-03-22T17:31:37.936Z</time></trkpt><trkpt lat="53.6294982" lon="-1.9109512"><ele>294.0</ele><time>2026-03-22T17:31:38.93Z</time></trkpt><trkpt lat="53.6295785" lon="-1.9107907"><ele>294.0</ele><time>2026-03-22T17:31:39.938Z</time></trkpt><trkpt lat="53.6296528" lon="-1.9106347"><ele>295.75</ele><time>2026-03-22T17:31:40.933Z</time></trkpt><trkpt lat="53.6297312" lon="-1.9104791"><ele>297.5</ele><time>2026-03-22T17:31:41.928Z</time></trkpt><trkpt lat="53.6298191" lon="-1.9103349"><ele>299.25</ele><time>2026-03-22T17:31:42.928Z</time></trkpt><trkpt lat="53.6299108" lon="-1.910203"><ele>301.0</ele><time>2026-03-22T17:31:43.934Z</time></trkpt><trkpt lat="53.6300107" lon="-1.9100912"><ele>300.25</ele><time>2026-03-22T17:31:44.935Z</time></trkpt><trkpt lat="53.6301181" lon="-1.9099872"><ele>299.5</ele><time>2026-03-22T17:31:45.935Z</time></trkpt><trkpt lat="53.6302308" lon="-1.9098937"><ele>298.75</ele><time>2026-03-22T17:31:46.935Z</time></trkpt><trkpt lat="53.6303412" lon="-1.9097962"><ele>298.0</ele><time>2026-03-22T17:31:47.934Z</time></trkpt><trkpt lat="53.6304478" lon="-1.9096902"><ele>300.0</ele><time>2026-03-22T17:31:48.937Z</time></trkpt><trkpt lat="53.6305405" lon="-1.9095658"><ele>302.0</ele><time>2026-03-22T17:31:49.934Z</time></trkpt><trkpt lat="53.6306265" lon="-1.9094204"><ele>304.0</ele><time>2026-03-22T17:31:50.935Z</time></trkpt><trkpt lat="53.6307049" lon="-1.9092609"><ele>306.0</ele><time>2026-03-22T17:31:51.935Z</time></trkpt><trkpt lat="53.6307772" lon="-1.9090949"><ele>306.0</ele><time>2026-03-22T17:31:52.936Z</time></trkpt><trkpt lat="53.6308404" lon="-1.9089268"><ele>306.0</ele><time>2026-03-22T17:31:53.936Z</time></trkpt><trkpt lat="53.6308909" lon="-1.9087407"><ele>306.0</ele><time>2026-03-22T17:31:54.929Z</time></trkpt><trkpt lat="53.6309366" lon="-1.908551"><ele>306.0</ele><time>2026-03-22T17:31:55.934Z</time></trkpt><trkpt lat="53.6309793" lon="-1.908364"><ele>307.0</ele><time>2026-03-22T17:31:56.936Z</time></trkpt><trkpt lat="53.6310237" lon="-1.9081697"><ele>308.0</ele><time>2026-03-22T17:31:57.937Z</time></trkpt><trkpt lat="53.6310725" lon="-1.9079871"><ele>309.0</ele><time>2026-03-22T17:31:58.938Z</time></trkpt><trkpt lat="53.6311288" lon="-1.9078273"><ele>310.0</ele><time>2026-03-22T17:31:59.935Z</time></trkpt><trkpt lat="53.6312016" lon="-1.9077059"><ele>310.0</ele><time>2026-03-22T17:32:00.936Z</time></trkpt><trkpt lat="53.6312958" lon="-1.9076573"><ele>310.0</ele><time>2026-03-22T17:32:01.938Z</time></trkpt><trkpt lat="53.6314046" lon="-1.9076757"><ele>310.0</ele><time>2026-03-22T17:32:02.939Z</time></trkpt><trkpt lat="53.6315154" lon="-1.9077286"><ele>310.0</ele><time>2026-03-22T17:32:03.939Z</time></trkpt><trkpt lat="53.631629" lon="-1.9077716"><ele>310.0</ele><time>2026-03-22T17:32:04.938Z</time></trkpt><trkpt lat="53.6317377" lon="-1.907799"><ele>310.0</ele><time>2026-03-22T17:32:05.936Z</time></trkpt><trkpt lat="53.6318351" lon="-1.9078128"><ele>310.0</ele><time>2026-03-22T17:32:06.938Z</time></trkpt><trkpt lat="53.631921" lon="-1.9078054"><ele>310.0</ele><time>2026-03-22T17:32:07.933Z</time></trkpt><trkpt lat="53.6320042" lon="-1.9077723"><ele>310.0</ele><time>2026-03-22T17:32:08.942Z</time></trkpt><trkpt lat="53.6320894" lon="-1.9077205"><ele>310.0</ele><time>2026-03-22T17:32:09.937Z</time></trkpt><trkpt lat="53.6321739" lon="-1.9076474"><ele>311.25</ele><time>2026-03-22T17:32:10.939Z</time></trkpt><trkpt lat="53.632261" lon="-1.9075567"><ele>312.5</ele><time>2026-03-22T17:32:11.938Z</time></trkpt><trkpt lat="53.6323504" lon="-1.9074445"><ele>313.75</ele><time>2026-03-22T17:32:12.94Z</time></trkpt><trkpt lat="53.6324384" lon="-1.9073211"><ele>315.0</ele><time>2026-03-22T17:32:13.94Z</time></trkpt><trkpt lat="53.6325239" lon="-1.9071657"><ele>315.0</ele><time>2026-03-22T17:32:14.939Z</time></trkpt><trkpt lat="53.6326085" lon="-1.9069862"><ele>315.0</ele><time>2026-03-22T17:32:15.938Z</time></trkpt><trkpt lat="53.6327011" lon="-1.9068035"><ele>315.0</ele><time>2026-03-22T17:32:16.937Z</time></trkpt><trkpt lat="53.6327946" lon="-1.9066063"><ele>315.0</ele><time>2026-03-22T17:32:17.937Z</time></trkpt><trkpt lat="53.6328887" lon="-1.9063975"><ele>317.6666666666667</ele><time>2026-03-22T17:32:18.94Z</time></trkpt><trkpt lat="53.6329787" lon="-1.9061711"><ele>320.33333333333337</ele><time>2026-03-22T17:32:19.939Z</time></trkpt><trkpt lat="53.633065" lon="-1.9059447"><ele>323.0</ele><time>2026-03-22T17:32:20.937Z</time></trkpt><trkpt lat="53.6331514" lon="-1.9057315"><ele>323.0</ele><time>2026-03-22T17:32:21.936Z</time></trkpt><trkpt lat="53.6332477" lon="-1.9055317"><ele>323.0</ele><time>2026-03-22T17:32:22.936Z</time></trkpt><trkpt lat="53.6333492" lon="-1.9053535"><ele>323.0</ele><time>2026-03-22T17:32:23.938Z</time></trkpt><trkpt lat="53.6334429" lon="-1.9051826"><ele>323.0</ele><time>2026-03-22T17:32:24.937Z</time></trkpt><trkpt lat="53.6335263" lon="-1.9049936"><ele>323.0</ele><time>2026-03-22T17:32:25.938Z</time></trkpt><trkpt lat="53.6336019" lon="-1.9047932"><ele>323.0</ele><time>2026-03-22T17:32:26.937Z</time></trkpt><trkpt lat="53.6336753" lon="-1.9045824"><ele>323.0</ele><time>2026-03-22T17:32:27.936Z</time></trkpt><trkpt lat="53.6337504" lon="-1.9043555"><ele>323.0</ele><time>2026-03-22T17:32:28.938Z</time></trkpt><trkpt lat="53.6338282" lon="-1.904118"><ele>325.33333333333337</ele><time>2026-03-22T17:32:29.932Z</time></trkpt><trkpt lat="53.6339086" lon="-1.9038778"><ele>327.6666666666667</ele><time>2026-03-22T17:32:30.939Z</time></trkpt><trkpt lat="53.6339938" lon="-1.9036384"><ele>330.0</ele><time>2026-03-22T17:32:31.94Z</time></trkpt><trkpt lat="53.6340832" lon="-1.9034004"><ele>330.0</ele><time>2026-03-22T17:32:32.937Z</time></trkpt><trkpt lat="53.6341758" lon="-1.903168"><ele>330.0</ele><time>2026-03-22T17:32:33.932Z</time></trkpt><trkpt lat="53.6342694" lon="-1.9029462"><ele>330.0</ele><time>2026-03-22T17:32:34.939Z</time></trkpt><trkpt lat="53.6343624" lon="-1.9027453"><ele>330.0</ele><time>2026-03-22T17:32:35.937Z</time></trkpt><trkpt lat="53.6344542" lon="-1.9025735"><ele>330.0</ele><time>2026-03-22T17:32:36.939Z</time></trkpt><trkpt lat="53.6345471" lon="-1.9024407"><ele>330.0</ele><time>2026-03-22T17:32:37.94Z</time></trkpt><trkpt lat="53.6346392" lon="-1.9023484"><ele>330.0</ele><time>2026-03-22T17:32:38.933Z</time></trkpt><trkpt lat="53.634716" lon="-1.9022956"><ele>330.0</ele><time>2026-03-22T17:32:39.937Z</time></trkpt><trkpt lat="53.6348139" lon="-1.9022575"><ele>331.0</ele><time>2026-03-22T17:32:41.936Z</time></trkpt><trkpt lat="53.6348641" lon="-1.9023293"><ele>332.0</ele><time>2026-03-22T17:32:43.938Z</time></trkpt><trkpt lat="53.6349014" lon="-1.9025402"><ele>333.0</ele><time>2026-03-22T17:32:45.93Z</time></trkpt><trkpt lat="53.6349257" lon="-1.9026764"><ele>334.0</ele><time>2026-03-22T17:32:46.934Z</time></trkpt><trkpt lat="53.6349559" lon="-1.9028323"><ele>335.0</ele><time>2026-03-22T17:32:47.938Z</time></trkpt><trkpt lat="53.6349987" lon="-1.9030003"><ele>335.0</ele><time>2026-03-22T17:32:48.937Z</time></trkpt><trkpt lat="53.635045" lon="-1.9031742"><ele>335.0</ele><time>2026-03-22T17:32:49.936Z</time></trkpt><trkpt lat="53.6350924" lon="-1.9033364"><ele>335.0</ele><time>2026-03-22T17:32:50.937Z</time></trkpt><trkpt lat="53.6351373" lon="-1.9034824"><ele>335.0</ele><time>2026-03-22T17:32:51.938Z</time></trkpt><trkpt lat="53.6351759" lon="-1.903622"><ele>335.0</ele><time>2026-03-22T17:32:52.937Z</time></trkpt><trkpt lat="53.6352161" lon="-1.9037652"><ele>335.0</ele><time>2026-03-22T17:32:53.934Z</time></trkpt><trkpt lat="53.6352601" lon="-1.9039099"><ele>335.0</ele><time>2026-03-22T17:32:54.937Z</time></trkpt><trkpt lat="53.6353021" lon="-1.9040473"><ele>335.0</ele><time>2026-03-22T17:32:55.938Z</time></trkpt><trkpt lat="53.6353405" lon="-1.9041784"><ele>335.0</ele><time>2026-03-22T17:32:56.937Z</time></trkpt><trkpt lat="53.6353821" lon="-1.9043127"><ele>335.0</ele><time>2026-03-22T17:32:57.936Z</time></trkpt><trkpt lat="53.6354281" lon="-1.904456"><ele>337.4</ele><time>2026-03-22T17:32:58.937Z</time></trkpt><trkpt lat="53.6354754" lon="-1.9046095"><ele>339.8</ele><time>2026-03-22T17:32:59.936Z</time></trkpt><trkpt lat="53.635523" lon="-1.9047621"><ele>342.20000000000005</ele><time>2026-03-22T17:33:00.937Z</time></trkpt><trkpt lat="53.635573" lon="-1.9049135"><ele>344.6</ele><time>2026-03-22T17:33:01.937Z</time></trkpt><trkpt lat="53.6356171" lon="-1.9050631"><ele>347.0</ele><time>2026-03-22T17:33:02.933Z</time></trkpt><trkpt lat="53.6356553" lon="-1.9052119"><ele>347.8</ele><time>2026-03-22T17:33:03.939Z</time></trkpt><trkpt lat="53.6356893" lon="-1.905367"><ele>348.6</ele><time>2026-03-22T17:33:04.939Z</time></trkpt><trkpt lat="53.6357224" lon="-1.9055178"><ele>349.40000000000003</ele><time>2026-03-22T17:33:05.935Z</time></trkpt><trkpt lat="53.6357517" lon="-1.905663"><ele>350.20000000000005</ele><time>2026-03-22T17:33:06.937Z</time></trkpt><trkpt lat="53.6357804" lon="-1.9058052"><ele>351.0</ele><time>2026-03-22T17:33:07.937Z</time></trkpt><trkpt lat="53.635813" lon="-1.9059437"><ele>351.8</ele><time>2026-03-22T17:33:08.938Z</time></trkpt><trkpt lat="53.6358514" lon="-1.9060862"><ele>352.6</ele><time>2026-03-22T17:33:09.936Z</time></trkpt><trkpt lat="53.6358942" lon="-1.9062368"><ele>353.4</ele><time>2026-03-22T17:33:10.938Z</time></trkpt><trkpt lat="53.6359371" lon="-1.9063935"><ele>354.2</ele><time>2026-03-22T17:33:11.937Z</time></trkpt><trkpt lat="53.6359795" lon="-1.9065541"><ele>355.0</ele><time>2026-03-22T17:33:12.938Z</time></trkpt><trkpt lat="53.6360229" lon="-1.9067239"><ele>355.4</ele><time>2026-03-22T17:33:13.938Z</time></trkpt><trkpt lat="53.6360639" lon="-1.9068999"><ele>355.8</ele><time>2026-03-22T17:33:14.936Z</time></trkpt><trkpt lat="53.6360971" lon="-1.9070717"><ele>356.20000000000005</ele><time>2026-03-22T17:33:15.937Z</time></trkpt><trkpt lat="53.6361183" lon="-1.9072418"><ele>356.6</ele><time>2026-03-22T17:33:16.937Z</time></trkpt><trkpt lat="53.6361286" lon="-1.9074032"><ele>357.0</ele><time>2026-03-22T17:33:17.936Z</time></trkpt><trkpt lat="53.6361345" lon="-1.9075378"><ele>361.20000000000005</ele><time>2026-03-22T17:33:18.937Z</time></trkpt><trkpt lat="53.6361521" lon="-1.9077134"><ele>365.4</ele><time>2026-03-22T17:33:20.937Z</time></trkpt><trkpt lat="53.6361944" lon="-1.9078649"><ele>369.6</ele><time>2026-03-22T17:33:22.937Z</time></trkpt><trkpt lat="53.6362191" lon="-1.9080719"><ele>373.79999999999995</ele><time>2026-03-22T17:33:24.935Z</time></trkpt><trkpt lat="53.6362221" lon="-1.908192"><ele>378.0</ele><time>2026-03-22T17:33:25.935Z</time></trkpt><trkpt lat="53.6362198" lon="-1.9083129"><ele>378.14285714285717</ele><time>2026-03-22T17:33:26.937Z</time></trkpt><trkpt lat="53.6362159" lon="-1.9084315"><ele>378.2857142857143</ele><time>2026-03-22T17:33:27.931Z</time></trkpt><trkpt lat="53.6362155" lon="-1.9085464"><ele>378.42857142857144</ele><time>2026-03-22T17:33:28.937Z</time></trkpt><trkpt lat="53.6362132" lon="-1.908659"><ele>378.57142857142856</ele><time>2026-03-22T17:33:29.933Z</time></trkpt><trkpt lat="53.6362089" lon="-1.9087777"><ele>378.7142857142857</ele><time>2026-03-22T17:33:30.942Z</time></trkpt><trkpt lat="53.6362091" lon="-1.9089007"><ele>378.8571428571429</ele><time>2026-03-22T17:33:31.937Z</time></trkpt><trkpt lat="53.6362134" lon="-1.9090229"><ele>379.0</ele><time>2026-03-22T17:33:32.938Z</time></trkpt><trkpt lat="53.6362151" lon="-1.9091413"><ele>379.28571428571433</ele><time>2026-03-22T17:33:33.939Z</time></trkpt><trkpt lat="53.6362206" lon="-1.909255"><ele>379.57142857142856</ele><time>2026-03-22T17:33:34.94Z</time></trkpt><trkpt lat="53.6362379" lon="-1.9093591"><ele>379.8571428571429</ele><time>2026-03-22T17:33:35.94Z</time></trkpt><trkpt lat="53.6362745" lon="-1.9094537"><ele>380.14285714285717</ele><time>2026-03-22T17:33:36.936Z</time></trkpt><trkpt lat="53.6363291" lon="-1.9095369"><ele>380.42857142857144</ele><time>2026-03-22T17:33:37.935Z</time></trkpt><trkpt lat="53.636386" lon="-1.9096082"><ele>380.7142857142857</ele><time>2026-03-22T17:33:38.938Z</time></trkpt><trkpt lat="53.6364723" lon="-1.9097056"><ele>381.0</ele><time>2026-03-22T17:33:40.943Z</time></trkpt><trkpt lat="53.6365588" lon="-1.9098244"><ele>381.0</ele><time>2026-03-22T17:33:42.933Z</time></trkpt><trkpt lat="53.6366128" lon="-1.9099005"><ele>381.0</ele><time>2026-03-22T17:33:43.932Z</time></trkpt><trkpt lat="53.6366611" lon="-1.9099818"><ele>381.0</ele><time>2026-03-22T17:33:44.938Z</time></trkpt><trkpt lat="53.636702" lon="-1.9100838"><ele>381.0</ele><time>2026-03-22T17:33:45.938Z</time></trkpt><trkpt lat="53.6367352" lon="-1.9102097"><ele>381.0</ele><time>2026-03-22T17:33:46.938Z</time></trkpt><trkpt lat="53.6367709" lon="-1.9103525"><ele>381.0</ele><time>2026-03-22T17:33:47.936Z</time></trkpt><trkpt lat="53.6368108" lon="-1.910506"><ele>381.75</ele><time>2026-03-22T17:33:48.938Z</time></trkpt><trkpt lat="53.6368631" lon="-1.9106737"><ele>382.5</ele><time>2026-03-22T17:33:49.935Z</time></trkpt><trkpt lat="53.6369276" lon="-1.910844"><ele>383.25</ele><time>2026-03-22T17:33:50.939Z</time></trkpt><trkpt lat="53.6370029" lon="-1.9110015"><ele>384.0</ele><time>2026-03-22T17:33:51.937Z</time></trkpt><trkpt lat="53.6370823" lon="-1.9111437"><ele>381.6</ele><time>2026-03-22T17:33:52.938Z</time></trkpt><trkpt lat="53.6371552" lon="-1.9112825"><ele>379.2</ele><time>2026-03-22T17:33:53.938Z</time></trkpt><trkpt lat="53.6372206" lon="-1.9114261"><ele>376.8</ele><time>2026-03-22T17:33:54.937Z</time></trkpt><trkpt lat="53.6372687" lon="-1.9115781"><ele>374.40000000000003</ele><time>2026-03-22T17:33:55.937Z</time></trkpt><trkpt lat="53.6372952" lon="-1.9117435"><ele>372.0</ele><time>2026-03-22T17:33:56.937Z</time></trkpt><trkpt lat="53.6373055" lon="-1.9119223"><ele>371.25</ele><time>2026-03-22T17:33:57.938Z</time></trkpt><trkpt lat="53.637301" lon="-1.9121217"><ele>370.5</ele><time>2026-03-22T17:33:58.937Z</time></trkpt><trkpt lat="53.6372897" lon="-1.9123488"><ele>369.75</ele><time>2026-03-22T17:33:59.934Z</time></trkpt><trkpt lat="53.6372664" lon="-1.9125965"><ele>369.0</ele><time>2026-03-22T17:34:00.937Z</time></trkpt><trkpt lat="53.6372485" lon="-1.9128515"><ele>368.25</ele><time>2026-03-22T17:34:01.935Z</time></trkpt><trkpt lat="53.6372289" lon="-1.9130825"><ele>367.5</ele><time>2026-03-22T17:34:02.937Z</time></trkpt><trkpt lat="53.6372146" lon="-1.9132874"><ele>366.75</ele><time>2026-03-22T17:34:03.937Z</time></trkpt><trkpt lat="53.637213" lon="-1.9134836"><ele>366.0</ele><time>2026-03-22T17:34:04.936Z</time></trkpt><trkpt lat="53.63722" lon="-1.9136857"><ele>365.6</ele><time>2026-03-22T17:34:05.934Z</time></trkpt><trkpt lat="53.6372235" lon="-1.9138758"><ele>365.20000000000005</ele><time>2026-03-22T17:34:06.936Z</time></trkpt><trkpt lat="53.6372278" lon="-1.9140491"><ele>364.79999999999995</ele><time>2026-03-22T17:34:07.937Z</time></trkpt><trkpt lat="53.6372364" lon="-1.9142072"><ele>364.4</ele><time>2026-03-22T17:34:08.938Z</time></trkpt><trkpt lat="53.6372458" lon="-1.914348"><ele>364.0</ele><time>2026-03-22T17:34:09.937Z</time></trkpt><trkpt lat="53.6372533" lon="-1.9144685"><ele>363.6</ele><time>2026-03-22T17:34:10.938Z</time></trkpt><trkpt lat="53.6372593" lon="-1.9146477"><ele>363.2</ele><time>2026-03-22T17:34:12.938Z</time></trkpt><trkpt lat="53.6373182" lon="-1.9147088"><ele>362.8</ele><time>2026-03-22T17:34:18.936Z</time></trkpt><trkpt lat="53.6373891" lon="-1.9146053"><ele>362.40000000000003</ele><time>2026-03-22T17:34:20.937Z</time></trkpt><trkpt lat="53.6374381" lon="-1.9144845"><ele>362.0</ele><time>2026-03-22T17:34:21.939Z</time></trkpt><trkpt lat="53.6374878" lon="-1.9143382"><ele>362.5</ele><time>2026-03-22T17:34:22.939Z</time></trkpt><trkpt lat="53.6375405" lon="-1.9141765"><ele>363.0</ele><time>2026-03-22T17:34:23.938Z</time></trkpt><trkpt lat="53.6376002" lon="-1.9140037"><ele>363.5</ele><time>2026-03-22T17:34:24.938Z</time></trkpt><trkpt lat="53.6376651" lon="-1.9138209"><ele>364.0</ele><time>2026-03-22T17:34:25.937Z</time></trkpt><trkpt lat="53.6377348" lon="-1.913623"><ele>361.75</ele><time>2026-03-22T17:34:26.94Z</time></trkpt><trkpt lat="53.637804" lon="-1.9134192"><ele>359.5</ele><time>2026-03-22T17:34:27.94Z</time></trkpt><trkpt lat="53.6378702" lon="-1.9132021"><ele>357.25</ele><time>2026-03-22T17:34:28.941Z</time></trkpt><trkpt lat="53.6379261" lon="-1.9129763"><ele>355.0</ele><time>2026-03-22T17:34:29.939Z</time></trkpt><trkpt lat="53.6379682" lon="-1.9127609"><ele>355.0</ele><time>2026-03-22T17:34:30.938Z</time></trkpt><trkpt lat="53.6380017" lon="-1.9125565"><ele>355.0</ele><time>2026-03-22T17:34:31.941Z</time></trkpt><trkpt lat="53.638029" lon="-1.9123598"><ele>355.0</ele><time>2026-03-22T17:34:32.939Z</time></trkpt><trkpt lat="53.6380483" lon="-1.9121718"><ele>355.0</ele><time>2026-03-22T17:34:33.94Z</time></trkpt><trkpt lat="53.6380565" lon="-1.9120059"><ele>355.0</ele><time>2026-03-22T17:34:34.938Z</time></trkpt><trkpt lat="53.6380557" lon="-1.9118563"><ele>355.0</ele><time>2026-03-22T17:34:35.937Z</time></trkpt><trkpt lat="53.6380494" lon="-1.9117271"><ele>355.0</ele><time>2026-03-22T17:34:36.936Z</time></trkpt><trkpt lat="53.6380533" lon="-1.9115594"><ele>355.0</ele><time>2026-03-22T17:34:38.939Z</time></trkpt><trkpt lat="53.63816" lon="-1.9116566"><ele>355.0</ele><time>2026-03-22T17:34:41.937Z</time></trkpt><trkpt lat="53.6381959" lon="-1.9118184"><ele>355.0</ele><time>2026-03-22T17:34:42.937Z</time></trkpt><trkpt lat="53.638238" lon="-1.9120114"><ele>355.0</ele><time>2026-03-22T17:34:43.937Z</time></trkpt><trkpt lat="53.6382933" lon="-1.9122152"><ele>355.0</ele><time>2026-03-22T17:34:44.935Z</time></trkpt><trkpt lat="53.6383768" lon="-1.9124032"><ele>355.0</ele><time>2026-03-22T17:34:45.936Z</time></trkpt><trkpt lat="53.6384934" lon="-1.9125762"><ele>355.0</ele><time>2026-03-22T17:34:46.935Z</time></trkpt><trkpt lat="53.6386217" lon="-1.9127244"><ele>355.0</ele><time>2026-03-22T17:34:47.934Z</time></trkpt><trkpt lat="53.6387491" lon="-1.9128434"><ele>355.0</ele><time>2026-03-22T17:34:48.934Z</time></trkpt><trkpt lat="53.6388702" lon="-1.9129265"><ele>355.0</ele><time>2026-03-22T17:34:49.934Z</time></trkpt><trkpt lat="53.6389829" lon="-1.9129687"><ele>353.6</ele><time>2026-03-22T17:34:50.933Z</time></trkpt><trkpt lat="53.6390842" lon="-1.9129858"><ele>352.2</ele><time>2026-03-22T17:34:51.933Z</time></trkpt><trkpt lat="53.63919" lon="-1.9130079"><ele>350.79999999999995</ele><time>2026-03-22T17:34:52.937Z</time></trkpt><trkpt lat="53.6392942" lon="-1.9130398"><ele>349.4</ele><time>2026-03-22T17:34:53.937Z</time></trkpt><trkpt lat="53.6394" lon="-1.9130698"><ele>348.0</ele><time>2026-03-22T17:34:54.936Z</time></trkpt><trkpt lat="53.6395084" lon="-1.913107"><ele>345.5</ele><time>2026-03-22T17:34:55.937Z</time></trkpt><trkpt lat="53.639621" lon="-1.9131462"><ele>343.0</ele><time>2026-03-22T17:34:56.936Z</time></trkpt><trkpt lat="53.6397329" lon="-1.9131879"><ele>340.5</ele><time>2026-03-22T17:34:57.936Z</time></trkpt><trkpt lat="53.6398481" lon="-1.913235"><ele>338.0</ele><time>2026-03-22T17:34:58.937Z</time></trkpt><trkpt lat="53.6399639" lon="-1.9132869"><ele>338.0</ele><time>2026-03-22T17:34:59.933Z</time></trkpt><trkpt lat="53.6400786" lon="-1.9133387"><ele>338.0</ele><time>2026-03-22T17:35:00.937Z</time></trkpt><trkpt lat="53.6401895" lon="-1.9133903"><ele>338.0</ele><time>2026-03-22T17:35:01.941Z</time></trkpt><trkpt lat="53.640296" lon="-1.9134386"><ele>338.0</ele><time>2026-03-22T17:35:02.941Z</time></trkpt><trkpt lat="53.6404011" lon="-1.9134839"><ele>337.25</ele><time>2026-03-22T17:35:03.939Z</time></trkpt><trkpt lat="53.6405067" lon="-1.9135278"><ele>336.5</ele><time>2026-03-22T17:35:04.942Z</time></trkpt><trkpt lat="53.6406132" lon="-1.9135683"><ele>335.75</ele><time>2026-03-22T17:35:05.94Z</time></trkpt><trkpt lat="53.6407259" lon="-1.9136153"><ele>335.0</ele><time>2026-03-22T17:35:06.94Z</time></trkpt><trkpt lat="53.6408456" lon="-1.913661"><ele>335.0</ele><time>2026-03-22T17:35:07.941Z</time></trkpt><trkpt lat="53.6409705" lon="-1.9137119"><ele>335.0</ele><time>2026-03-22T17:35:08.941Z</time></trkpt><trkpt lat="53.6410963" lon="-1.9137666"><ele>335.0</ele><time>2026-03-22T17:35:09.938Z</time></trkpt><trkpt lat="53.641221" lon="-1.9138269"><ele>335.0</ele><time>2026-03-22T17:35:10.939Z</time></trkpt><trkpt lat="53.6413409" lon="-1.9138957"><ele>332.25</ele><time>2026-03-22T17:35:11.936Z</time></trkpt><trkpt lat="53.6414557" lon="-1.913971"><ele>329.5</ele><time>2026-03-22T17:35:12.936Z</time></trkpt><trkpt lat="53.6415667" lon="-1.9140515"><ele>326.75</ele><time>2026-03-22T17:35:13.937Z</time></trkpt><trkpt lat="53.641672" lon="-1.9141401"><ele>324.0</ele><time>2026-03-22T17:35:14.938Z</time></trkpt><trkpt lat="53.6417739" lon="-1.914232"><ele>324.0</ele><time>2026-03-22T17:35:15.937Z</time></trkpt><trkpt lat="53.6418655" lon="-1.9143299"><ele>324.0</ele><time>2026-03-22T17:35:16.937Z</time></trkpt><trkpt lat="53.6419458" lon="-1.9144387"><ele>324.0</ele><time>2026-03-22T17:35:17.935Z</time></trkpt><trkpt lat="53.6420117" lon="-1.9145645"><ele>324.0</ele><time>2026-03-22T17:35:18.936Z</time></trkpt><trkpt lat="53.6420611" lon="-1.914715"><ele>324.0</ele><time>2026-03-22T17:35:19.937Z</time></trkpt><trkpt lat="53.6420866" lon="-1.9149089"><ele>321.25</ele><time>2026-03-22T17:35:20.936Z</time></trkpt><trkpt lat="53.6420998" lon="-1.9151182"><ele>318.5</ele><time>2026-03-22T17:35:21.935Z</time></trkpt><trkpt lat="53.6421079" lon="-1.9153493"><ele>315.75</ele><time>2026-03-22T17:35:22.937Z</time></trkpt><trkpt lat="53.6421145" lon="-1.9155779"><ele>313.0</ele><time>2026-03-22T17:35:23.934Z</time></trkpt><trkpt lat="53.6421242" lon="-1.9158014"><ele>312.4</ele><time>2026-03-22T17:35:24.937Z</time></trkpt><trkpt lat="53.6421379" lon="-1.9160002"><ele>311.8</ele><time>2026-03-22T17:35:25.936Z</time></trkpt><trkpt lat="53.6421551" lon="-1.9161822"><ele>311.2</ele><time>2026-03-22T17:35:26.936Z</time></trkpt><trkpt lat="53.6421728" lon="-1.9163595"><ele>310.6</ele><time>2026-03-22T17:35:27.934Z</time></trkpt><trkpt lat="53.6421942" lon="-1.9165348"><ele>310.0</ele><time>2026-03-22T17:35:28.935Z</time></trkpt><trkpt lat="53.6422157" lon="-1.9167123"><ele>309.4</ele><time>2026-03-22T17:35:29.936Z</time></trkpt><trkpt lat="53.6422358" lon="-1.9168883"><ele>308.8</ele><time>2026-03-22T17:35:30.933Z</time></trkpt><trkpt lat="53.6422568" lon="-1.9170599"><ele>308.2</ele><time>2026-03-22T17:35:31.937Z</time></trkpt><trkpt lat="53.6422789" lon="-1.9172247"><ele>307.6</ele><time>2026-03-22T17:35:32.937Z</time></trkpt><trkpt lat="53.6422972" lon="-1.9173797"><ele>307.0</ele><time>2026-03-22T17:35:33.932Z</time></trkpt><trkpt lat="53.6423116" lon="-1.9175166"><ele>304.0</ele><time>2026-03-22T17:35:34.937Z</time></trkpt><trkpt lat="53.6423219" lon="-1.9176356"><ele>301.0</ele><time>2026-03-22T17:35:35.936Z</time></trkpt><trkpt lat="53.6423194" lon="-1.9178171"><ele>298.0</ele><time>2026-03-22T17:35:37.938Z</time></trkpt><trkpt lat="53.642239" lon="-1.9179175"><ele>295.0</ele><time>2026-03-22T17:35:39.939Z</time></trkpt><trkpt lat="53.6421535" lon="-1.9179595"><ele>292.0</ele><time>2026-03-22T17:35:40.936Z</time></trkpt><trkpt lat="53.6420368" lon="-1.9180177"><ele>296.0</ele><time>2026-03-22T17:35:41.933Z</time></trkpt><trkpt lat="53.6418969" lon="-1.9180958"><ele>300.0</ele><time>2026-03-22T17:35:42.933Z</time></trkpt><trkpt lat="53.6417425" lon="-1.9181856"><ele>304.0</ele><time>2026-03-22T17:35:43.934Z</time></trkpt><trkpt lat="53.64159" lon="-1.9182669"><ele>304.0</ele><time>2026-03-22T17:35:44.935Z</time></trkpt><trkpt lat="53.6414464" lon="-1.9183515"><ele>304.0</ele><time>2026-03-22T17:35:45.934Z</time></trkpt><trkpt lat="53.6413079" lon="-1.9184347"><ele>304.0</ele><time>2026-03-22T17:35:46.932Z</time></trkpt><trkpt lat="53.6411707" lon="-1.9185225"><ele>304.0</ele><time>2026-03-22T17:35:47.931Z</time></trkpt><trkpt lat="53.6410376" lon="-1.9186157"><ele>303.25</ele><time>2026-03-22T17:35:48.931Z</time></trkpt><trkpt lat="53.6409117" lon="-1.9187152"><ele>302.5</ele><time>2026-03-22T17:35:49.93Z</time></trkpt><trkpt lat="53.6407892" lon="-1.9188083"><ele>301.75</ele><time>2026-03-22T17:35:50.935Z</time></trkpt><trkpt lat="53.6406687" lon="-1.9188992"><ele>301.0</ele><time>2026-03-22T17:35:51.933Z</time></trkpt><trkpt lat="53.6405488" lon="-1.918988"><ele>301.0</ele><time>2026-03-22T17:35:52.935Z</time></trkpt><trkpt lat="53.6404282" lon="-1.9190693"><ele>301.0</ele><time>2026-03-22T17:35:53.939Z</time></trkpt><trkpt lat="53.640308" lon="-1.9191505"><ele>301.0</ele><time>2026-03-22T17:35:54.932Z</time></trkpt><trkpt lat="53.6401903" lon="-1.9192355"><ele>301.0</ele><time>2026-03-22T17:35:55.933Z</time></trkpt><trkpt lat="53.6400726" lon="-1.9193241"><ele>301.25</ele><time>2026-03-22T17:35:56.935Z</time></trkpt><trkpt lat="53.6399537" lon="-1.9194151"><ele>301.5</ele><time>2026-03-22T17:35:57.934Z</time></trkpt><trkpt lat="53.6398351" lon="-1.9195138"><ele>301.75</ele><time>2026-03-22T17:35:58.937Z</time></trkpt><trkpt lat="53.6397148" lon="-1.9196224"><ele>302.0</ele><time>2026-03-22T17:35:59.938Z</time></trkpt><trkpt lat="53.6395973" lon="-1.9197389"><ele>302.0</ele><time>2026-03-22T17:36:00.936Z</time></trkpt><trkpt lat="53.6394871" lon="-1.9198663"><ele>302.0</ele><time>2026-03-22T17:36:01.94Z</time></trkpt><trkpt lat="53.6393782" lon="-1.9200101"><ele>302.0</ele><time>2026-03-22T17:36:02.938Z</time></trkpt><trkpt lat="53.6392718" lon="-1.9201664"><ele>302.0</ele><time>2026-03-22T17:36:03.94Z</time></trkpt><trkpt lat="53.6391659" lon="-1.9203231"><ele>302.5</ele><time>2026-03-22T17:36:04.939Z</time></trkpt><trkpt lat="53.6390584" lon="-1.920471"><ele>303.0</ele><time>2026-03-22T17:36:05.937Z</time></trkpt><trkpt lat="53.6389529" lon="-1.920606"><ele>303.5</ele><time>2026-03-22T17:36:06.939Z</time></trkpt><trkpt lat="53.6388481" lon="-1.920731"><ele>304.0</ele><time>2026-03-22T17:36:07.941Z</time></trkpt><trkpt lat="53.6387421" lon="-1.9208539"><ele>305.5</ele><time>2026-03-22T17:36:08.94Z</time></trkpt><trkpt lat="53.6386409" lon="-1.92097"><ele>307.0</ele><time>2026-03-22T17:36:09.939Z</time></trkpt><trkpt lat="53.6385454" lon="-1.921086"><ele>308.5</ele><time>2026-03-22T17:36:10.939Z</time></trkpt><trkpt lat="53.6384476" lon="-1.921213"><ele>310.0</ele><time>2026-03-22T17:36:11.936Z</time></trkpt><trkpt lat="53.6383429" lon="-1.921351"><ele>310.0</ele><time>2026-03-22T17:36:12.937Z</time></trkpt><trkpt lat="53.6382332" lon="-1.9215006"><ele>310.0</ele><time>2026-03-22T17:36:13.938Z</time></trkpt><trkpt lat="53.6381226" lon="-1.9216473"><ele>310.0</ele><time>2026-03-22T17:36:14.939Z</time></trkpt><trkpt lat="53.6380136" lon="-1.9217894"><ele>310.0</ele><time>2026-03-22T17:36:15.935Z</time></trkpt><trkpt lat="53.6379056" lon="-1.9219223"><ele>312.0</ele><time>2026-03-22T17:36:16.937Z</time></trkpt><trkpt lat="53.6378026" lon="-1.9220557"><ele>314.0</ele><time>2026-03-22T17:36:17.937Z</time></trkpt><trkpt lat="53.6377028" lon="-1.9221951"><ele>316.0</ele><time>2026-03-22T17:36:18.937Z</time></trkpt><trkpt lat="53.6376016" lon="-1.9223369"><ele>318.0</ele><time>2026-03-22T17:36:19.936Z</time></trkpt><trkpt lat="53.6374964" lon="-1.9224817"><ele>315.75</ele><time>2026-03-22T17:36:20.941Z</time></trkpt><trkpt lat="53.6373873" lon="-1.9226307"><ele>313.5</ele><time>2026-03-22T17:36:21.94Z</time></trkpt><trkpt lat="53.6372781" lon="-1.9227839"><ele>311.25</ele><time>2026-03-22T17:36:22.94Z</time></trkpt><trkpt lat="53.6371697" lon="-1.9229396"><ele>309.0</ele><time>2026-03-22T17:36:23.942Z</time></trkpt><trkpt lat="53.63706" lon="-1.9230902"><ele>310.75</ele><time>2026-03-22T17:36:24.938Z</time></trkpt><trkpt lat="53.6369485" lon="-1.9232316"><ele>312.5</ele><time>2026-03-22T17:36:25.937Z</time></trkpt><trkpt lat="53.6368451" lon="-1.9233558"><ele>314.25</ele><time>2026-03-22T17:36:26.94Z</time></trkpt><trkpt lat="53.6367432" lon="-1.9234915"><ele>316.0</ele><time>2026-03-22T17:36:27.94Z</time></trkpt><trkpt lat="53.6366454" lon="-1.923624"><ele>316.0</ele><time>2026-03-22T17:36:28.938Z</time></trkpt><trkpt lat="53.6365538" lon="-1.9237582"><ele>316.0</ele><time>2026-03-22T17:36:29.936Z</time></trkpt><trkpt lat="53.6364654" lon="-1.9239025"><ele>316.0</ele><time>2026-03-22T17:36:30.938Z</time></trkpt><trkpt lat="53.6363799" lon="-1.9240681"><ele>316.0</ele><time>2026-03-22T17:36:31.941Z</time></trkpt><trkpt lat="53.6362976" lon="-1.9242594"><ele>313.75</ele><time>2026-03-22T17:36:32.939Z</time></trkpt><trkpt lat="53.6362163" lon="-1.9244635"><ele>311.5</ele><time>2026-03-22T17:36:33.938Z</time></trkpt><trkpt lat="53.6361342" lon="-1.9246634"><ele>309.25</ele><time>2026-03-22T17:36:34.94Z</time></trkpt><trkpt lat="53.6360551" lon="-1.9248544"><ele>307.0</ele><time>2026-03-22T17:36:35.939Z</time></trkpt><trkpt lat="53.635982" lon="-1.9250299"><ele>309.8</ele><time>2026-03-22T17:36:36.938Z</time></trkpt><trkpt lat="53.6359191" lon="-1.9251899"><ele>312.6</ele><time>2026-03-22T17:36:37.939Z</time></trkpt><trkpt lat="53.6358623" lon="-1.9253424"><ele>315.40000000000003</ele><time>2026-03-22T17:36:38.933Z</time></trkpt><trkpt lat="53.6358102" lon="-1.9254877"><ele>318.2</ele><time>2026-03-22T17:36:39.94Z</time></trkpt><trkpt lat="53.6357684" lon="-1.9256341"><ele>321.0</ele><time>2026-03-22T17:36:40.94Z</time></trkpt><trkpt lat="53.6357367" lon="-1.9257948"><ele>320.2</ele><time>2026-03-22T17:36:41.934Z</time></trkpt><trkpt lat="53.6357176" lon="-1.9259675"><ele>319.40000000000003</ele><time>2026-03-22T17:36:42.935Z</time></trkpt><trkpt lat="53.6357139" lon="-1.9261393"><ele>318.6</ele><time>2026-03-22T17:36:43.939Z</time></trkpt><trkpt lat="53.6357131" lon="-1.9262952"><ele>317.8</ele><time>2026-03-22T17:36:44.938Z</time></trkpt><trkpt lat="53.6357124" lon="-1.9264478"><ele>317.0</ele><time>2026-03-22T17:36:45.937Z</time></trkpt><trkpt lat="53.6357136" lon="-1.9266015"><ele>315.8</ele><time>2026-03-22T17:36:46.936Z</time></trkpt><trkpt lat="53.6357206" lon="-1.9267609"><ele>314.6</ele><time>2026-03-22T17:36:47.935Z</time></trkpt><trkpt lat="53.6357308" lon="-1.9269167"><ele>313.40000000000003</ele><time>2026-03-22T17:36:48.938Z</time></trkpt><trkpt lat="53.6357317" lon="-1.927073"><ele>312.2</ele><time>2026-03-22T17:36:49.936Z</time></trkpt><trkpt lat="53.6357166" lon="-1.9272393"><ele>311.0</ele><time>2026-03-22T17:36:50.935Z</time></trkpt><trkpt lat="53.6356837" lon="-1.9274284"><ele>309.25</ele><time>2026-03-22T17:36:51.931Z</time></trkpt><trkpt lat="53.6356464" lon="-1.9276279"><ele>307.5</ele><time>2026-03-22T17:36:52.937Z</time></trkpt><trkpt lat="53.6356129" lon="-1.9278222"><ele>305.75</ele><time>2026-03-22T17:36:53.937Z</time></trkpt><trkpt lat="53.6355798" lon="-1.9280142"><ele>304.0</ele><time>2026-03-22T17:36:54.936Z</time></trkpt><trkpt lat="53.6355348" lon="-1.9282061"><ele>302.25</ele><time>2026-03-22T17:36:55.934Z</time></trkpt><trkpt lat="53.6354753" lon="-1.9283936"><ele>300.5</ele><time>2026-03-22T17:36:56.934Z</time></trkpt><trkpt lat="53.6354147" lon="-1.9285704"><ele>298.75</ele><time>2026-03-22T17:36:57.937Z</time></trkpt><trkpt lat="53.6353666" lon="-1.9287505"><ele>297.0</ele><time>2026-03-22T17:36:58.938Z</time></trkpt><trkpt lat="53.6353252" lon="-1.9289504"><ele>302.25</ele><time>2026-03-22T17:36:59.935Z</time></trkpt><trkpt lat="53.6352832" lon="-1.929174"><ele>307.5</ele><time>2026-03-22T17:37:00.935Z</time></trkpt><trkpt lat="53.6352435" lon="-1.9293984"><ele>312.75</ele><time>2026-03-22T17:37:01.938Z</time></trkpt><trkpt lat="53.6352068" lon="-1.9296115"><ele>318.0</ele><time>2026-03-22T17:37:02.939Z</time></trkpt><trkpt lat="53.6351751" lon="-1.9298074"><ele>318.0</ele><time>2026-03-22T17:37:03.938Z</time></trkpt><trkpt lat="53.6351421" lon="-1.9299961"><ele>318.0</ele><time>2026-03-22T17:37:04.939Z</time></trkpt><trkpt lat="53.6351042" lon="-1.9301845"><ele>318.0</ele><time>2026-03-22T17:37:05.938Z</time></trkpt><trkpt lat="53.6350626" lon="-1.9303775"><ele>318.0</ele><time>2026-03-22T17:37:06.938Z</time></trkpt><trkpt lat="53.6350242" lon="-1.9305796"><ele>316.0</ele><time>2026-03-22T17:37:07.937Z</time></trkpt><trkpt lat="53.634983" lon="-1.9307872"><ele>314.0</ele><time>2026-03-22T17:37:08.94Z</time></trkpt><trkpt lat="53.634936" lon="-1.9310018"><ele>312.0</ele><time>2026-03-22T17:37:09.94Z</time></trkpt><trkpt lat="53.6348839" lon="-1.9312156"><ele>310.0</ele><time>2026-03-22T17:37:10.939Z</time></trkpt><trkpt lat="53.6348311" lon="-1.9314246"><ele>307.5</ele><time>2026-03-22T17:37:11.935Z</time></trkpt><trkpt lat="53.6347779" lon="-1.9316252"><ele>305.0</ele><time>2026-03-22T17:37:12.936Z</time></trkpt><trkpt lat="53.6347236" lon="-1.9318192"><ele>302.5</ele><time>2026-03-22T17:37:13.938Z</time></trkpt><trkpt lat="53.6346684" lon="-1.9320122"><ele>300.0</ele><time>2026-03-22T17:37:14.936Z</time></trkpt><trkpt lat="53.6346119" lon="-1.9322069"><ele>301.25</ele><time>2026-03-22T17:37:15.936Z</time></trkpt><trkpt lat="53.6345543" lon="-1.9323976"><ele>302.5</ele><time>2026-03-22T17:37:16.935Z</time></trkpt><trkpt lat="53.6344984" lon="-1.9325828"><ele>303.75</ele><time>2026-03-22T17:37:17.936Z</time></trkpt><trkpt lat="53.6344429" lon="-1.9327671"><ele>305.0</ele><time>2026-03-22T17:37:18.935Z</time></trkpt><trkpt lat="53.6343894" lon="-1.9329571"><ele>305.0</ele><time>2026-03-22T17:37:19.935Z</time></trkpt><trkpt lat="53.6343343" lon="-1.9331521"><ele>305.0</ele><time>2026-03-22T17:37:20.935Z</time></trkpt><trkpt lat="53.6342748" lon="-1.9333447"><ele>305.0</ele><time>2026-03-22T17:37:21.935Z</time></trkpt><trkpt lat="53.6342117" lon="-1.9335282"><ele>305.0</ele><time>2026-03-22T17:37:22.937Z</time></trkpt><trkpt lat="53.6341518" lon="-1.9337065"><ele>303.4</ele><time>2026-03-22T17:37:23.933Z</time></trkpt><trkpt lat="53.6340986" lon="-1.9338851"><ele>301.8</ele><time>2026-03-22T17:37:24.936Z</time></trkpt><trkpt lat="53.6340458" lon="-1.9340606"><ele>300.2</ele><time>2026-03-22T17:37:25.935Z</time></trkpt><trkpt lat="53.6339906" lon="-1.9342171"><ele>298.6</ele><time>2026-03-22T17:37:26.936Z</time></trkpt><trkpt lat="53.6339395" lon="-1.9343569"><ele>297.0</ele><time>2026-03-22T17:37:27.937Z</time></trkpt><trkpt lat="53.6339016" lon="-1.9344874"><ele>296.2</ele><time>2026-03-22T17:37:28.931Z</time></trkpt><trkpt lat="53.6338869" lon="-1.9346232"><ele>295.4</ele><time>2026-03-22T17:37:29.934Z</time></trkpt><trkpt lat="53.6338934" lon="-1.9347819"><ele>294.6</ele><time>2026-03-22T17:37:30.935Z</time></trkpt><trkpt lat="53.6339166" lon="-1.9349632"><ele>293.8</ele><time>2026-03-22T17:37:31.937Z</time></trkpt><trkpt lat="53.6339498" lon="-1.9351724"><ele>293.0</ele><time>2026-03-22T17:37:32.937Z</time></trkpt><trkpt lat="53.6339774" lon="-1.9354025"><ele>292.5</ele><time>2026-03-22T17:37:33.938Z</time></trkpt><trkpt lat="53.6340005" lon="-1.9356283"><ele>292.0</ele><time>2026-03-22T17:37:34.939Z</time></trkpt><trkpt lat="53.63402" lon="-1.9358431"><ele>291.5</ele><time>2026-03-22T17:37:35.941Z</time></trkpt><trkpt lat="53.634029" lon="-1.9360456"><ele>291.0</ele><time>2026-03-22T17:37:36.937Z</time></trkpt><trkpt lat="53.6340229" lon="-1.9362253"><ele>290.6</ele><time>2026-03-22T17:37:37.938Z</time></trkpt><trkpt lat="53.6340078" lon="-1.936379"><ele>290.20000000000005</ele><time>2026-03-22T17:37:38.932Z</time></trkpt><trkpt lat="53.633998" lon="-1.9365167"><ele>289.79999999999995</ele><time>2026-03-22T17:37:39.938Z</time></trkpt><trkpt lat="53.6340038" lon="-1.9366559"><ele>289.4</ele><time>2026-03-22T17:37:40.938Z</time></trkpt><trkpt lat="53.6340262" lon="-1.936803"><ele>289.0</ele><time>2026-03-22T17:37:41.936Z</time></trkpt><trkpt lat="53.6340457" lon="-1.9369732"><ele>288.5</ele><time>2026-03-22T17:37:42.935Z</time></trkpt><trkpt lat="53.6340446" lon="-1.9371578"><ele>288.0</ele><time>2026-03-22T17:37:43.937Z</time></trkpt><trkpt lat="53.6340077" lon="-1.9373508"><ele>287.5</ele><time>2026-03-22T17:37:44.936Z</time></trkpt><trkpt lat="53.6339396" lon="-1.9375358"><ele>287.0</ele><time>2026-03-22T17:37:45.935Z</time></trkpt><trkpt lat="53.6338571" lon="-1.9376967"><ele>286.6</ele><time>2026-03-22T17:37:46.937Z</time></trkpt><trkpt lat="53.6337784" lon="-1.937834"><ele>286.2</ele><time>2026-03-22T17:37:47.934Z</time></trkpt><trkpt lat="53.6337161" lon="-1.9379473"><ele>285.8</ele><time>2026-03-22T17:37:48.936Z</time></trkpt><trkpt lat="53.6336701" lon="-1.9380374"><ele>285.4</ele><time>2026-03-22T17:37:49.935Z</time></trkpt><trkpt lat="53.6336174" lon="-1.938194"><ele>285.0</ele><time>2026-03-22T17:37:51.936Z</time></trkpt><trkpt lat="53.6336579" lon="-1.9383912"><ele>285.0</ele><time>2026-03-22T17:37:53.94Z</time></trkpt><trkpt lat="53.6337363" lon="-1.9384833"><ele>285.0</ele><time>2026-03-22T17:37:54.936Z</time></trkpt><trkpt lat="53.6338425" lon="-1.9385748"><ele>285.0</ele><time>2026-03-22T17:37:55.935Z</time></trkpt><trkpt lat="53.633969" lon="-1.9386512"><ele>285.0</ele><time>2026-03-22T17:37:56.937Z</time></trkpt><trkpt lat="53.6340962" lon="-1.9387072"><ele>285.0</ele><time>2026-03-22T17:37:57.938Z</time></trkpt><trkpt lat="53.6342168" lon="-1.9387478"><ele>285.0</ele><time>2026-03-22T17:37:58.938Z</time></trkpt><trkpt lat="53.6343434" lon="-1.9387787"><ele>285.0</ele><time>2026-03-22T17:37:59.938Z</time></trkpt><trkpt lat="53.6344752" lon="-1.9388029"><ele>285.0</ele><time>2026-03-22T17:38:00.938Z</time></trkpt><trkpt lat="53.6346133" lon="-1.9388195"><ele>282.75</ele><time>2026-03-22T17:38:01.939Z</time></trkpt><trkpt lat="53.6347537" lon="-1.9388339"><ele>280.5</ele><time>2026-03-22T17:38:02.94Z</time></trkpt><trkpt lat="53.6348867" lon="-1.9388455"><ele>278.25</ele><time>2026-03-22T17:38:03.939Z</time></trkpt><trkpt lat="53.6350093" lon="-1.9388536"><ele>276.0</ele><time>2026-03-22T17:38:04.938Z</time></trkpt><trkpt lat="53.6351209" lon="-1.9388605"><ele>276.0</ele><time>2026-03-22T17:38:05.938Z</time></trkpt><trkpt lat="53.6352214" lon="-1.9388703"><ele>276.0</ele><time>2026-03-22T17:38:06.932Z</time></trkpt><trkpt lat="53.6353147" lon="-1.938894"><ele>276.0</ele><time>2026-03-22T17:38:07.93Z</time></trkpt><trkpt lat="53.6353948" lon="-1.9389242"><ele>276.0</ele><time>2026-03-22T17:38:08.931Z</time></trkpt><trkpt lat="53.6354646" lon="-1.9389519"><ele>276.0</ele><time>2026-03-22T17:38:09.931Z</time></trkpt><trkpt lat="53.6355771" lon="-1.9388637"><ele>276.5</ele><time>2026-03-22T17:38:11.928Z</time></trkpt><trkpt lat="53.6356224" lon="-1.9387388"><ele>277.0</ele><time>2026-03-22T17:38:12.93Z</time></trkpt><trkpt lat="53.635672" lon="-1.9385801"><ele>277.5</ele><time>2026-03-22T17:38:13.93Z</time></trkpt><trkpt lat="53.6357232" lon="-1.9384501"><ele>278.0</ele><time>2026-03-22T17:38:14.931Z</time></trkpt><trkpt lat="53.63578" lon="-1.9383868"><ele>278.5</ele><time>2026-03-22T17:38:15.938Z</time></trkpt><trkpt lat="53.6358521" lon="-1.9384146"><ele>279.0</ele><time>2026-03-22T17:38:16.937Z</time></trkpt><trkpt lat="53.6359065" lon="-1.9385308"><ele>279.0</ele><time>2026-03-22T17:38:17.935Z</time></trkpt><trkpt lat="53.6359277" lon="-1.9387044"><ele>279.0</ele><time>2026-03-22T17:38:18.936Z</time></trkpt><trkpt lat="53.6359307" lon="-1.9389132"><ele>279.0</ele><time>2026-03-22T17:38:19.931Z</time></trkpt><trkpt lat="53.6359377" lon="-1.939165"><ele>279.0</ele><time>2026-03-22T17:38:20.934Z</time></trkpt><trkpt lat="53.6359498" lon="-1.9393941"><ele>280.8</ele><time>2026-03-22T17:38:21.939Z</time></trkpt><trkpt lat="53.6359713" lon="-1.939588"><ele>282.59999999999997</ele><time>2026-03-22T17:38:22.936Z</time></trkpt><trkpt lat="53.6359955" lon="-1.939762"><ele>284.4</ele><time>2026-03-22T17:38:23.937Z</time></trkpt><trkpt lat="53.6360227" lon="-1.9399377"><ele>286.2</ele><time>2026-03-22T17:38:24.936Z</time></trkpt><trkpt lat="53.6360519" lon="-1.940124"><ele>288.0</ele><time>2026-03-22T17:38:25.933Z</time></trkpt><trkpt lat="53.6360827" lon="-1.9403148"><ele>289.2</ele><time>2026-03-22T17:38:26.936Z</time></trkpt><trkpt lat="53.6361128" lon="-1.9404985"><ele>290.4</ele><time>2026-03-22T17:38:27.936Z</time></trkpt><trkpt lat="53.6361332" lon="-1.9406742"><ele>291.59999999999997</ele><time>2026-03-22T17:38:28.937Z</time></trkpt><trkpt lat="53.6361436" lon="-1.940848"><ele>292.8</ele><time>2026-03-22T17:38:29.936Z</time></trkpt><trkpt lat="53.636143" lon="-1.9410299"><ele>294.0</ele><time>2026-03-22T17:38:30.936Z</time></trkpt><trkpt lat="53.636136" lon="-1.9412222"><ele>295.4</ele><time>2026-03-22T17:38:31.94Z</time></trkpt><trkpt lat="53.6361352" lon="-1.9414104"><ele>296.79999999999995</ele><time>2026-03-22T17:38:32.939Z</time></trkpt><trkpt lat="53.6361401" lon="-1.9415904"><ele>298.20000000000005</ele><time>2026-03-22T17:38:33.94Z</time></trkpt><trkpt lat="53.6361572" lon="-1.9417415"><ele>299.6</ele><time>2026-03-22T17:38:34.937Z</time></trkpt><trkpt lat="53.6361954" lon="-1.9418278"><ele>301.0</ele><time>2026-03-22T17:38:35.942Z</time></trkpt><trkpt lat="53.6363256" lon="-1.9418383"><ele>305.0</ele><time>2026-03-22T17:38:37.939Z</time></trkpt><trkpt lat="53.6364227" lon="-1.9417721"><ele>309.0</ele><time>2026-03-22T17:38:38.935Z</time></trkpt><trkpt lat="53.6365384" lon="-1.9416518"><ele>313.0</ele><time>2026-03-22T17:38:39.936Z</time></trkpt><trkpt lat="53.636667" lon="-1.941491"><ele>317.0</ele><time>2026-03-22T17:38:40.938Z</time></trkpt><trkpt lat="53.636795" lon="-1.9413137"><ele>317.0</ele><time>2026-03-22T17:38:41.932Z</time></trkpt><trkpt lat="53.636917" lon="-1.9411167"><ele>317.0</ele><time>2026-03-22T17:38:42.939Z</time></trkpt><trkpt lat="53.6370253" lon="-1.9409162"><ele>317.0</ele><time>2026-03-22T17:38:43.938Z</time></trkpt><trkpt lat="53.6371181" lon="-1.9407106"><ele>317.5</ele><time>2026-03-22T17:38:44.937Z</time></trkpt><trkpt lat="53.6372058" lon="-1.9405033"><ele>318.0</ele><time>2026-03-22T17:38:45.938Z</time></trkpt><trkpt lat="53.637302" lon="-1.9403115"><ele>318.5</ele><time>2026-03-22T17:38:46.935Z</time></trkpt><trkpt lat="53.6373967" lon="-1.9401329"><ele>319.0</ele><time>2026-03-22T17:38:47.936Z</time></trkpt><trkpt lat="53.6374868" lon="-1.9399758"><ele>319.0</ele><time>2026-03-22T17:38:48.937Z</time></trkpt><trkpt lat="53.6375777" lon="-1.9398469"><ele>319.0</ele><time>2026-03-22T17:38:49.936Z</time></trkpt><trkpt lat="53.6376664" lon="-1.9397284"><ele>319.0</ele><time>2026-03-22T17:38:50.935Z</time></trkpt><trkpt lat="53.6377528" lon="-1.9396193"><ele>319.0</ele><time>2026-03-22T17:38:51.935Z</time></trkpt><trkpt lat="53.6378449" lon="-1.9395171"><ele>322.5</ele><time>2026-03-22T17:38:52.938Z</time></trkpt><trkpt lat="53.6379437" lon="-1.9394121"><ele>326.0</ele><time>2026-03-22T17:38:53.937Z</time></trkpt><trkpt lat="53.6380406" lon="-1.9392905"><ele>329.5</ele><time>2026-03-22T17:38:54.936Z</time></trkpt><trkpt lat="53.6381406" lon="-1.9391537"><ele>333.0</ele><time>2026-03-22T17:38:55.933Z</time></trkpt><trkpt lat="53.6382361" lon="-1.9390108"><ele>333.0</ele><time>2026-03-22T17:38:56.936Z</time></trkpt><trkpt lat="53.6383298" lon="-1.9388672"><ele>333.0</ele><time>2026-03-22T17:38:57.935Z</time></trkpt><trkpt lat="53.6384186" lon="-1.938752"><ele>333.0</ele><time>2026-03-22T17:38:58.939Z</time></trkpt><trkpt lat="53.6385092" lon="-1.9386798"><ele>333.0</ele><time>2026-03-22T17:38:59.939Z</time></trkpt><trkpt lat="53.6386061" lon="-1.9386664"><ele>333.0</ele><time>2026-03-22T17:39:00.939Z</time></trkpt><trkpt lat="53.6387152" lon="-1.9386955"><ele>337.0</ele><time>2026-03-22T17:39:01.94Z</time></trkpt><trkpt lat="53.6388274" lon="-1.9387335"><ele>341.0</ele><time>2026-03-22T17:39:02.94Z</time></trkpt><trkpt lat="53.6389421" lon="-1.9387561"><ele>345.0</ele><time>2026-03-22T17:39:03.942Z</time></trkpt><trkpt lat="53.6390483" lon="-1.9387334"><ele>349.0</ele><time>2026-03-22T17:39:04.94Z</time></trkpt><trkpt lat="53.6391467" lon="-1.9386822"><ele>353.0</ele><time>2026-03-22T17:39:05.94Z</time></trkpt><trkpt lat="53.6392365" lon="-1.9386055"><ele>353.0</ele><time>2026-03-22T17:39:06.934Z</time></trkpt><trkpt lat="53.6393169" lon="-1.9384975"><ele>353.0</ele><time>2026-03-22T17:39:07.939Z</time></trkpt><trkpt lat="53.6393813" lon="-1.9383435"><ele>353.0</ele><time>2026-03-22T17:39:08.942Z</time></trkpt><trkpt lat="53.639438" lon="-1.9381673"><ele>353.0</ele><time>2026-03-22T17:39:09.94Z</time></trkpt><trkpt lat="53.6394801" lon="-1.9379908"><ele>353.0</ele><time>2026-03-22T17:39:10.943Z</time></trkpt><trkpt lat="53.6395093" lon="-1.9378403"><ele>353.1666666666667</ele><time>2026-03-22T17:39:11.933Z</time></trkpt><trkpt lat="53.6395344" lon="-1.937716"><ele>353.33333333333337</ele><time>2026-03-22T17:39:12.941Z</time></trkpt><trkpt lat="53.6395596" lon="-1.9376019"><ele>353.5</ele><time>2026-03-22T17:39:13.944Z</time></trkpt><trkpt lat="53.639579" lon="-1.9374723"><ele>353.6666666666667</ele><time>2026-03-22T17:39:14.935Z</time></trkpt><trkpt lat="53.6395917" lon="-1.9373082"><ele>353.8333333333333</ele><time>2026-03-22T17:39:15.942Z</time></trkpt><trkpt lat="53.6396007" lon="-1.9371062"><ele>354.0</ele><time>2026-03-22T17:39:16.944Z</time></trkpt><trkpt lat="53.6396138" lon="-1.9368723"><ele>352.79999999999995</ele><time>2026-03-22T17:39:17.94Z</time></trkpt><trkpt lat="53.639629" lon="-1.9366393"><ele>351.59999999999997</ele><time>2026-03-22T17:39:18.942Z</time></trkpt><trkpt lat="53.6396468" lon="-1.9364398"><ele>350.4</ele><time>2026-03-22T17:39:19.94Z</time></trkpt><trkpt lat="53.6396642" lon="-1.936295"><ele>349.2</ele><time>2026-03-22T17:39:20.939Z</time></trkpt><trkpt lat="53.6397267" lon="-1.9361633"><ele>348.0</ele><time>2026-03-22T17:39:22.944Z</time></trkpt><trkpt lat="53.639801" lon="-1.9359854"><ele>346.75</ele><time>2026-03-22T17:39:24.939Z</time></trkpt><trkpt lat="53.6398595" lon="-1.9358227"><ele>345.5</ele><time>2026-03-22T17:39:25.94Z</time></trkpt><trkpt lat="53.63994" lon="-1.9356176"><ele>344.25</ele><time>2026-03-22T17:39:26.94Z</time></trkpt><trkpt lat="53.6400385" lon="-1.9353755"><ele>343.0</ele><time>2026-03-22T17:39:27.94Z</time></trkpt><trkpt lat="53.6401328" lon="-1.9351155"><ele>343.66666666666663</ele><time>2026-03-22T17:39:28.941Z</time></trkpt><trkpt lat="53.6402199" lon="-1.9348674"><ele>344.3333333333333</ele><time>2026-03-22T17:39:29.943Z</time></trkpt><trkpt lat="53.6403023" lon="-1.934633"><ele>345.0</ele><time>2026-03-22T17:39:30.938Z</time></trkpt><trkpt lat="53.6403826" lon="-1.9344285"><ele>345.0</ele><time>2026-03-22T17:39:31.94Z</time></trkpt><trkpt lat="53.6404551" lon="-1.93424"><ele>345.0</ele><time>2026-03-22T17:39:32.94Z</time></trkpt><trkpt lat="53.6405185" lon="-1.9340716"><ele>345.0</ele><time>2026-03-22T17:39:33.941Z</time></trkpt><trkpt lat="53.6405743" lon="-1.9339248"><ele>345.0</ele><time>2026-03-22T17:39:34.943Z</time></trkpt><trkpt lat="53.6406298" lon="-1.9337924"><ele>343.8</ele><time>2026-03-22T17:39:35.943Z</time></trkpt><trkpt lat="53.640694" lon="-1.9336585"><ele>342.6</ele><time>2026-03-22T17:39:36.941Z</time></trkpt><trkpt lat="53.6407694" lon="-1.9335161"><ele>341.4</ele><time>2026-03-22T17:39:37.946Z</time></trkpt><trkpt lat="53.6408479" lon="-1.933373"><ele>340.2</ele><time>2026-03-22T17:39:38.945Z</time></trkpt><trkpt lat="53.640924" lon="-1.9332257"><ele>339.0</ele><time>2026-03-22T17:39:39.936Z</time></trkpt><trkpt lat="53.6409959" lon="-1.9330708"><ele>337.75</ele><time>2026-03-22T17:39:40.944Z</time></trkpt><trkpt lat="53.641062" lon="-1.9328994"><ele>336.5</ele><time>2026-03-22T17:39:41.939Z</time></trkpt><trkpt lat="53.6411202" lon="-1.9327079"><ele>335.25</ele><time>2026-03-22T17:39:42.944Z</time></trkpt><trkpt lat="53.6411795" lon="-1.9325169"><ele>334.0</ele><time>2026-03-22T17:39:43.944Z</time></trkpt><trkpt lat="53.6412417" lon="-1.9323378"><ele>334.0</ele><time>2026-03-22T17:39:44.935Z</time></trkpt><trkpt lat="53.6412992" lon="-1.9321801"><ele>334.0</ele><time>2026-03-22T17:39:45.938Z</time></trkpt><trkpt lat="53.6413524" lon="-1.9320435"><ele>334.0</ele><time>2026-03-22T17:39:46.933Z</time></trkpt><trkpt lat="53.6413946" lon="-1.9319092"><ele>334.0</ele><time>2026-03-22T17:39:47.938Z</time></trkpt><trkpt lat="53.641431" lon="-1.9317511"><ele>334.0</ele><time>2026-03-22T17:39:48.946Z</time></trkpt><trkpt lat="53.6414682" lon="-1.9315706"><ele>332.79999999999995</ele><time>2026-03-22T17:39:49.941Z</time></trkpt><trkpt lat="53.6415165" lon="-1.9313934"><ele>331.59999999999997</ele><time>2026-03-22T17:39:50.943Z</time></trkpt><trkpt lat="53.6415881" lon="-1.9312309"><ele>330.4</ele><time>2026-03-22T17:39:51.941Z</time></trkpt><trkpt lat="53.64167" lon="-1.9310924"><ele>329.2</ele><time>2026-03-22T17:39:52.941Z</time></trkpt><trkpt lat="53.6417434" lon="-1.9309885"><ele>328.0</ele><time>2026-03-22T17:39:53.939Z</time></trkpt><trkpt lat="53.6418018" lon="-1.9309189"><ele>327.79999999999995</ele><time>2026-03-22T17:39:54.943Z</time></trkpt><trkpt lat="53.6418931" lon="-1.9307979"><ele>327.6</ele><time>2026-03-22T17:39:56.944Z</time></trkpt><trkpt lat="53.6419786" lon="-1.9306429"><ele>327.4</ele><time>2026-03-22T17:39:58.942Z</time></trkpt><trkpt lat="53.6420214" lon="-1.9305623"><ele>327.20000000000005</ele><time>2026-03-22T17:39:59.941Z</time></trkpt><trkpt lat="53.6420641" lon="-1.9304811"><ele>327.0</ele><time>2026-03-22T17:40:00.942Z</time></trkpt><trkpt lat="53.6421402" lon="-1.9303424"><ele>327.0</ele><time>2026-03-22T17:40:02.944Z</time></trkpt><trkpt lat="53.6422004" lon="-1.9302285"><ele>327.0</ele><time>2026-03-22T17:40:04.942Z</time></trkpt><trkpt lat="53.6422484" lon="-1.9301263"><ele>327.0</ele><time>2026-03-22T17:40:06.944Z</time></trkpt><trkpt lat="53.6422936" lon="-1.930026"><ele>327.0</ele><time>2026-03-22T17:40:08.943Z</time></trkpt><trkpt lat="53.6423533" lon="-1.9299061"><ele>327.0</ele><time>2026-03-22T17:40:11.947Z</time></trkpt><trkpt lat="53.6424393" lon="-1.9298242"><ele>327.0</ele><time>2026-03-22T17:40:13.945Z</time></trkpt><trkpt lat="53.6425098" lon="-1.929765"><ele>326.0</ele><time>2026-03-22T17:40:14.94Z</time></trkpt><trkpt lat="53.6426046" lon="-1.9296868"><ele>325.0</ele><time>2026-03-22T17:40:15.941Z</time></trkpt><trkpt lat="53.6427164" lon="-1.9296003"><ele>324.0</ele><time>2026-03-22T17:40:16.943Z</time></trkpt><trkpt lat="53.6428228" lon="-1.9295282"><ele>323.0</ele><time>2026-03-22T17:40:17.94Z</time></trkpt><trkpt lat="53.6429373" lon="-1.9294906"><ele>322.25</ele><time>2026-03-22T17:40:18.943Z</time></trkpt><trkpt lat="53.6430623" lon="-1.9294835"><ele>321.5</ele><time>2026-03-22T17:40:19.934Z</time></trkpt><trkpt lat="53.643185" lon="-1.9294719"><ele>320.75</ele><time>2026-03-22T17:40:20.941Z</time></trkpt><trkpt lat="53.6432918" lon="-1.9294524"><ele>320.0</ele><time>2026-03-22T17:40:21.942Z</time></trkpt><trkpt lat="53.6433984" lon="-1.9294339"><ele>320.0</ele><time>2026-03-22T17:40:22.938Z</time></trkpt><trkpt lat="53.6435063" lon="-1.9294199"><ele>320.0</ele><time>2026-03-22T17:40:23.941Z</time></trkpt><trkpt lat="53.6436269" lon="-1.9294064"><ele>320.0</ele><time>2026-03-22T17:40:24.94Z</time></trkpt><trkpt lat="53.6437666" lon="-1.9293922"><ele>320.0</ele><time>2026-03-22T17:40:25.939Z</time></trkpt><trkpt lat="53.6439259" lon="-1.9293802"><ele>319.0</ele><time>2026-03-22T17:40:26.942Z</time></trkpt><trkpt lat="53.6440906" lon="-1.9293626"><ele>318.0</ele><time>2026-03-22T17:40:27.943Z</time></trkpt><trkpt lat="53.6442483" lon="-1.9293354"><ele>317.0</ele><time>2026-03-22T17:40:28.942Z</time></trkpt><trkpt lat="53.6443916" lon="-1.9292937"><ele>316.0</ele><time>2026-03-22T17:40:29.939Z</time></trkpt><trkpt lat="53.6445197" lon="-1.929248"><ele>315.0</ele><time>2026-03-22T17:40:30.94Z</time></trkpt><trkpt lat="53.6446427" lon="-1.9292048"><ele>314.0</ele><time>2026-03-22T17:40:31.944Z</time></trkpt><trkpt lat="53.6447674" lon="-1.9291634"><ele>313.0</ele><time>2026-03-22T17:40:32.943Z</time></trkpt><trkpt lat="53.644894" lon="-1.9291244"><ele>311.0</ele><time>2026-03-22T17:40:33.946Z</time></trkpt><trkpt lat="53.6450218" lon="-1.9290909"><ele>309.0</ele><time>2026-03-22T17:40:34.946Z</time></trkpt><trkpt lat="53.6451524" lon="-1.9290597"><ele>307.0</ele><time>2026-03-22T17:40:35.944Z</time></trkpt><trkpt lat="53.645281" lon="-1.9290354"><ele>305.0</ele><time>2026-03-22T17:40:36.943Z</time></trkpt><trkpt lat="53.6454091" lon="-1.929012"><ele>304.75</ele><time>2026-03-22T17:40:37.944Z</time></trkpt><trkpt lat="53.6455385" lon="-1.9289915"><ele>304.5</ele><time>2026-03-22T17:40:38.939Z</time></trkpt><trkpt lat="53.6456675" lon="-1.9289761"><ele>304.25</ele><time>2026-03-22T17:40:39.946Z</time></trkpt><trkpt lat="53.6457993" lon="-1.9289682"><ele>304.0</ele><time>2026-03-22T17:40:40.944Z</time></trkpt><trkpt lat="53.645932" lon="-1.9289552"><ele>304.0</ele><time>2026-03-22T17:40:41.941Z</time></trkpt><trkpt lat="53.6460654" lon="-1.928941"><ele>304.0</ele><time>2026-03-22T17:40:42.948Z</time></trkpt><trkpt lat="53.6461968" lon="-1.9289261"><ele>304.0</ele><time>2026-03-22T17:40:43.942Z</time></trkpt><trkpt lat="53.646321" lon="-1.9289135"><ele>304.0</ele><time>2026-03-22T17:40:44.936Z</time></trkpt><trkpt lat="53.6464337" lon="-1.9289022"><ele>304.2</ele><time>2026-03-22T17:40:45.94Z</time></trkpt><trkpt lat="53.6465315" lon="-1.9288866"><ele>304.4</ele><time>2026-03-22T17:40:46.94Z</time></trkpt><trkpt lat="53.646608" lon="-1.9288719"><ele>304.6</ele><time>2026-03-22T17:40:47.938Z</time></trkpt><trkpt lat="53.6467215" lon="-1.9288768"><ele>304.8</ele><time>2026-03-22T17:40:49.94Z</time></trkpt><trkpt lat="53.6467951" lon="-1.9290698"><ele>305.0</ele><time>2026-03-22T17:40:51.939Z</time></trkpt><trkpt lat="53.6467982" lon="-1.9292616"><ele>305.0</ele><time>2026-03-22T17:40:52.94Z</time></trkpt><trkpt lat="53.6467806" lon="-1.9294981"><ele>305.0</ele><time>2026-03-22T17:40:53.938Z</time></trkpt><trkpt lat="53.6467547" lon="-1.9297687"><ele>305.0</ele><time>2026-03-22T17:40:54.939Z</time></trkpt><trkpt lat="53.6467239" lon="-1.930067"><ele>307.0</ele><time>2026-03-22T17:40:55.939Z</time></trkpt><trkpt lat="53.6466859" lon="-1.9303811"><ele>309.0</ele><time>2026-03-22T17:40:56.939Z</time></trkpt><trkpt lat="53.6466514" lon="-1.9306865"><ele>311.0</ele><time>2026-03-22T17:40:57.939Z</time></trkpt><trkpt lat="53.6466105" lon="-1.9309518"><ele>311.0</ele><time>2026-03-22T17:40:58.942Z</time></trkpt><trkpt lat="53.6465593" lon="-1.9311537"><ele>311.0</ele><time>2026-03-22T17:40:59.939Z</time></trkpt><trkpt lat="53.6465008" lon="-1.9312906"><ele>311.0</ele><time>2026-03-22T17:41:00.941Z</time></trkpt><trkpt lat="53.6464428" lon="-1.9313824"><ele>311.0</ele><time>2026-03-22T17:41:01.941Z</time></trkpt><trkpt lat="53.6463906" lon="-1.9314546"><ele>311.0</ele><time>2026-03-22T17:41:02.942Z</time></trkpt><trkpt lat="53.6463505" lon="-1.9316217"><ele>311.0</ele><time>2026-03-22T17:41:04.943Z</time></trkpt><trkpt lat="53.6464001" lon="-1.9317128"><ele>311.0</ele><time>2026-03-22T17:41:06.942Z</time></trkpt><trkpt lat="53.6465484" lon="-1.9316746"><ele>311.0</ele><time>2026-03-22T17:41:08.949Z</time></trkpt><trkpt lat="53.6466766" lon="-1.9315882"><ele>311.0</ele><time>2026-03-22T17:41:09.942Z</time></trkpt><trkpt lat="53.6468361" lon="-1.9314702"><ele>303.33333333333337</ele><time>2026-03-22T17:41:10.937Z</time></trkpt><trkpt lat="53.6469949" lon="-1.9313491"><ele>295.6666666666667</ele><time>2026-03-22T17:41:11.941Z</time></trkpt><trkpt lat="53.6471625" lon="-1.9312335"><ele>288.0</ele><time>2026-03-22T17:41:12.945Z</time></trkpt><trkpt lat="53.6473368" lon="-1.9311221"><ele>288.0</ele><time>2026-03-22T17:41:13.942Z</time></trkpt><trkpt lat="53.6475015" lon="-1.931022"><ele>288.0</ele><time>2026-03-22T17:41:14.944Z</time></trkpt><trkpt lat="53.6476642" lon="-1.9309273"><ele>288.0</ele><time>2026-03-22T17:41:15.942Z</time></trkpt><trkpt lat="53.6478389" lon="-1.9308268"><ele>293.0</ele><time>2026-03-22T17:41:16.943Z</time></trkpt><trkpt lat="53.6480061" lon="-1.9307287"><ele>298.0</ele><time>2026-03-22T17:41:17.941Z</time></trkpt><trkpt lat="53.64817" lon="-1.930631"><ele>303.0</ele><time>2026-03-22T17:41:18.942Z</time></trkpt><trkpt lat="53.6483364" lon="-1.9305307"><ele>303.0</ele><time>2026-03-22T17:41:19.942Z</time></trkpt><trkpt lat="53.6484918" lon="-1.9304375"><ele>303.0</ele><time>2026-03-22T17:41:20.944Z</time></trkpt><trkpt lat="53.6486388" lon="-1.9303455"><ele>303.0</ele><time>2026-03-22T17:41:21.942Z</time></trkpt><trkpt lat="53.6487777" lon="-1.9302627"><ele>303.6</ele><time>2026-03-22T17:41:22.94Z</time></trkpt><trkpt lat="53.648898" lon="-1.930194"><ele>304.20000000000005</ele><time>2026-03-22T17:41:23.943Z</time></trkpt><trkpt lat="53.6490027" lon="-1.9301458"><ele>304.8</ele><time>2026-03-22T17:41:24.942Z</time></trkpt><trkpt lat="53.6490929" lon="-1.930105"><ele>305.40000000000003</ele><time>2026-03-22T17:41:25.942Z</time></trkpt><trkpt lat="53.6491648" lon="-1.9300686"><ele>306.0</ele><time>2026-03-22T17:41:26.936Z</time></trkpt><trkpt lat="53.6492268" lon="-1.9300394"><ele>307.40000000000003</ele><time>2026-03-22T17:41:27.941Z</time></trkpt><trkpt lat="53.6493277" lon="-1.9300747"><ele>308.8</ele><time>2026-03-22T17:41:29.942Z</time></trkpt><trkpt lat="53.649359" lon="-1.9302651"><ele>310.20000000000005</ele><time>2026-03-22T17:41:31.946Z</time></trkpt><trkpt lat="53.6493484" lon="-1.9304109"><ele>311.6</ele><time>2026-03-22T17:41:32.947Z</time></trkpt><trkpt lat="53.6493435" lon="-1.9305902"><ele>313.0</ele><time>2026-03-22T17:41:33.943Z</time></trkpt><trkpt lat="53.6493534" lon="-1.9307827"><ele>314.25</ele><time>2026-03-22T17:41:34.944Z</time></trkpt><trkpt lat="53.6493623" lon="-1.9309839"><ele>315.5</ele><time>2026-03-22T17:41:35.944Z</time></trkpt><trkpt lat="53.6493626" lon="-1.9312043"><ele>316.75</ele><time>2026-03-22T17:41:36.943Z</time></trkpt><trkpt lat="53.6493489" lon="-1.931426"><ele>318.0</ele><time>2026-03-22T17:41:37.945Z</time></trkpt><trkpt lat="53.6493256" lon="-1.9316352"><ele>318.5</ele><time>2026-03-22T17:41:38.949Z</time></trkpt><trkpt lat="53.649292" lon="-1.9318188"><ele>319.0</ele><time>2026-03-22T17:41:39.943Z</time></trkpt><trkpt lat="53.6492514" lon="-1.9319882"><ele>319.5</ele><time>2026-03-22T17:41:40.945Z</time></trkpt><trkpt lat="53.6492069" lon="-1.9321578"><ele>320.0</ele><time>2026-03-22T17:41:41.942Z</time></trkpt><trkpt lat="53.649156" lon="-1.9323416"><ele>320.0</ele><time>2026-03-22T17:41:42.94Z</time></trkpt><trkpt lat="53.6490969" lon="-1.9325417"><ele>320.0</ele><time>2026-03-22T17:41:43.941Z</time></trkpt><trkpt lat="53.6490359" lon="-1.9327523"><ele>320.0</ele><time>2026-03-22T17:41:44.945Z</time></trkpt><trkpt lat="53.6489762" lon="-1.9329677"><ele>320.0</ele><time>2026-03-22T17:41:45.936Z</time></trkpt><trkpt lat="53.6489196" lon="-1.9331801"><ele>320.75</ele><time>2026-03-22T17:41:46.94Z</time></trkpt><trkpt lat="53.6488673" lon="-1.9333789"><ele>321.5</ele><time>2026-03-22T17:41:47.944Z</time></trkpt><trkpt lat="53.6488183" lon="-1.9335571"><ele>322.25</ele><time>2026-03-22T17:41:48.944Z</time></trkpt><trkpt lat="53.6487719" lon="-1.9337193"><ele>323.0</ele><time>2026-03-22T17:41:49.94Z</time></trkpt><trkpt lat="53.6487206" lon="-1.9338657"><ele>323.0</ele><time>2026-03-22T17:41:50.94Z</time></trkpt><trkpt lat="53.6486688" lon="-1.9340005"><ele>323.0</ele><time>2026-03-22T17:41:51.943Z</time></trkpt><trkpt lat="53.6486197" lon="-1.9341246"><ele>323.0</ele><time>2026-03-22T17:41:52.937Z</time></trkpt><trkpt lat="53.6485725" lon="-1.9342335"><ele>323.0</ele><time>2026-03-22T17:41:53.941Z</time></trkpt><trkpt lat="53.648526" lon="-1.9343252"><ele>323.0</ele><time>2026-03-22T17:41:54.94Z</time></trkpt><trkpt lat="53.6484411" lon="-1.9344448"><ele>323.0</ele><time>2026-03-22T17:41:56.942Z</time></trkpt><trkpt lat="53.6484366" lon="-1.9342354"><ele>323.0</ele><time>2026-03-22T17:45:15.944Z</time></trkpt><trkpt lat="53.6485712" lon="-1.9341541"><ele>323.0</ele><time>2026-03-22T17:45:17.943Z</time></trkpt><trkpt lat="53.6486689" lon="-1.9341024"><ele>323.0</ele><time>2026-03-22T17:45:18.945Z</time></trkpt><trkpt lat="53.6487697" lon="-1.9340398"><ele>323.0</ele><time>2026-03-22T17:45:19.943Z</time></trkpt><trkpt lat="53.6488521" lon="-1.9339555"><ele>323.0</ele><time>2026-03-22T17:45:20.944Z</time></trkpt><trkpt lat="53.6489166" lon="-1.9338725"><ele>323.0</ele><time>2026-03-22T17:45:21.944Z</time></trkpt><trkpt lat="53.6489692" lon="-1.9337892"><ele>323.0</ele><time>2026-03-22T17:45:22.944Z</time></trkpt><trkpt lat="53.6490606" lon="-1.9336659"><ele>323.0</ele><time>2026-03-22T17:45:24.945Z</time></trkpt><trkpt lat="53.6491493" lon="-1.9335574"><ele>323.0</ele><time>2026-03-22T17:45:26.943Z</time></trkpt><trkpt lat="53.6492043" lon="-1.9334898"><ele>323.0</ele><time>2026-03-22T17:45:27.944Z</time></trkpt><trkpt lat="53.6492658" lon="-1.9334188"><ele>323.0</ele><time>2026-03-22T17:45:28.945Z</time></trkpt><trkpt lat="53.6493245" lon="-1.9333515"><ele>323.0</ele><time>2026-03-22T17:45:29.943Z</time></trkpt><trkpt lat="53.6493794" lon="-1.9332918"><ele>323.0</ele><time>2026-03-22T17:45:30.947Z</time></trkpt><trkpt lat="53.6494728" lon="-1.9332207"><ele>323.0</ele><time>2026-03-22T17:45:32.95Z</time></trkpt><trkpt lat="53.6495363" lon="-1.933226"><ele>323.0</ele><time>2026-03-22T17:45:34.951Z</time></trkpt><trkpt lat="53.6495694" lon="-1.9333324"><ele>323.0</ele><time>2026-03-22T17:45:36.947Z</time></trkpt><trkpt lat="53.6496433" lon="-1.9335151"><ele>323.0</ele><time>2026-03-22T17:45:38.95Z</time></trkpt><trkpt lat="53.6497083" lon="-1.9336062"><ele>323.0</ele><time>2026-03-22T17:45:39.946Z</time></trkpt><trkpt lat="53.649779" lon="-1.9336857"><ele>323.0</ele><time>2026-03-22T17:45:40.946Z</time></trkpt><trkpt lat="53.6498476" lon="-1.9337631"><ele>323.0</ele><time>2026-03-22T17:45:41.941Z</time></trkpt><trkpt lat="53.6499102" lon="-1.9338422"><ele>323.0</ele><time>2026-03-22T17:45:42.941Z</time></trkpt><trkpt lat="53.6499823" lon="-1.9339178"><ele>323.0</ele><time>2026-03-22T17:45:43.942Z</time></trkpt><trkpt lat="53.6500705" lon="-1.9339881"><ele>323.0</ele><time>2026-03-22T17:45:44.944Z</time></trkpt><trkpt lat="53.6501733" lon="-1.9340537"><ele>323.0</ele><time>2026-03-22T17:45:45.943Z</time></trkpt><trkpt lat="53.6502844" lon="-1.9341296"><ele>323.0</ele><time>2026-03-22T17:45:46.944Z</time></trkpt><trkpt lat="53.6503955" lon="-1.934215"><ele>323.0</ele><time>2026-03-22T17:45:47.944Z</time></trkpt><trkpt lat="53.6505084" lon="-1.9343013"><ele>323.0</ele><time>2026-03-22T17:45:48.944Z</time></trkpt><trkpt lat="53.6506163" lon="-1.9343933"><ele>322.5</ele><time>2026-03-22T17:45:49.944Z</time></trkpt><trkpt lat="53.6507203" lon="-1.9344949"><ele>322.0</ele><time>2026-03-22T17:45:50.945Z</time></trkpt><trkpt lat="53.6508246" lon="-1.9346017"><ele>321.5</ele><time>2026-03-22T17:45:51.943Z</time></trkpt><trkpt lat="53.6509301" lon="-1.9347107"><ele>321.0</ele><time>2026-03-22T17:45:52.943Z</time></trkpt><trkpt lat="53.6510361" lon="-1.9348192"><ele>322.20000000000005</ele><time>2026-03-22T17:45:53.946Z</time></trkpt><trkpt lat="53.6511427" lon="-1.9349207"><ele>323.40000000000003</ele><time>2026-03-22T17:45:54.945Z</time></trkpt><trkpt lat="53.6512394" lon="-1.9350118"><ele>324.6</ele><time>2026-03-22T17:45:55.942Z</time></trkpt><trkpt lat="53.651325" lon="-1.9350949"><ele>325.8</ele><time>2026-03-22T17:45:56.943Z</time></trkpt><trkpt lat="53.6513935" lon="-1.935167"><ele>327.0</ele><time>2026-03-22T17:45:57.945Z</time></trkpt><trkpt lat="53.6514655" lon="-1.9352592"><ele>324.20000000000005</ele><time>2026-03-22T17:45:59.946Z</time></trkpt><trkpt lat="53.6515061" lon="-1.9353532"><ele>321.40000000000003</ele><time>2026-03-22T17:46:01.949Z</time></trkpt><trkpt lat="53.6515832" lon="-1.9353367"><ele>318.6</ele><time>2026-03-22T17:46:04.949Z</time></trkpt><trkpt lat="53.6517161" lon="-1.9352867"><ele>315.8</ele><time>2026-03-22T17:46:06.948Z</time></trkpt><trkpt lat="53.6518113" lon="-1.9352765"><ele>313.0</ele><time>2026-03-22T17:46:07.948Z</time></trkpt><trkpt lat="53.6519181" lon="-1.9352658"><ele>311.5</ele><time>2026-03-22T17:46:08.948Z</time></trkpt><trkpt lat="53.6520353" lon="-1.9352486"><ele>310.0</ele><time>2026-03-22T17:46:09.949Z</time></trkpt><trkpt lat="53.6521552" lon="-1.9352184"><ele>308.5</ele><time>2026-03-22T17:46:10.95Z</time></trkpt><trkpt lat="53.6522693" lon="-1.9351738"><ele>307.0</ele><time>2026-03-22T17:46:11.943Z</time></trkpt><trkpt lat="53.6523651" lon="-1.9351398"><ele>307.0</ele><time>2026-03-22T17:46:12.943Z</time></trkpt><trkpt lat="53.6524492" lon="-1.9351331"><ele>307.0</ele><time>2026-03-22T17:46:13.942Z</time></trkpt><trkpt lat="53.6525297" lon="-1.9351506"><ele>307.0</ele><time>2026-03-22T17:46:14.94Z</time></trkpt><trkpt lat="53.652604" lon="-1.935167"><ele>307.0</ele><time>2026-03-22T17:46:15.943Z</time></trkpt><trkpt lat="53.6526775" lon="-1.9351586"><ele>307.0</ele><time>2026-03-22T17:46:16.945Z</time></trkpt><trkpt lat="53.6527554" lon="-1.9351245"><ele>307.0</ele><time>2026-03-22T17:46:17.939Z</time></trkpt><trkpt lat="53.6528367" lon="-1.9350713"><ele>308.16666666666663</ele><time>2026-03-22T17:46:18.943Z</time></trkpt><trkpt lat="53.6529177" lon="-1.9350037"><ele>309.3333333333333</ele><time>2026-03-22T17:46:19.943Z</time></trkpt><trkpt lat="53.6529932" lon="-1.9349239"><ele>310.5</ele><time>2026-03-22T17:46:20.943Z</time></trkpt><trkpt lat="53.6530653" lon="-1.9348366"><ele>311.6666666666667</ele><time>2026-03-22T17:46:21.941Z</time></trkpt><trkpt lat="53.6531367" lon="-1.9347449"><ele>312.83333333333337</ele><time>2026-03-22T17:46:22.94Z</time></trkpt><trkpt lat="53.6531991" lon="-1.9346568"><ele>314.0</ele><time>2026-03-22T17:46:23.944Z</time></trkpt><trkpt lat="53.6532403" lon="-1.9345674"><ele>313.99999999999994</ele><time>2026-03-22T17:46:24.942Z</time></trkpt><trkpt lat="53.6532678" lon="-1.9344707"><ele>314.0</ele><time>2026-03-22T17:46:25.94Z</time></trkpt><trkpt lat="53.6532906" lon="-1.9343578"><ele>314.0</ele><time>2026-03-22T17:46:26.943Z</time></trkpt><trkpt lat="53.6533115" lon="-1.9342447"><ele>314.0</ele><time>2026-03-22T17:46:27.942Z</time></trkpt><trkpt lat="53.653351" lon="-1.9341101"><ele>314.0</ele><time>2026-03-22T17:46:29.939Z</time></trkpt><trkpt lat="53.6534075" lon="-1.934038"><ele>313.99999999999994</ele><time>2026-03-22T17:46:32.953Z</time></trkpt><trkpt lat="53.6534681" lon="-1.9339681"><ele>314.0</ele><time>2026-03-22T17:46:34.952Z</time></trkpt><trkpt lat="53.6535372" lon="-1.9338834"><ele>313.2</ele><time>2026-03-22T17:46:36.941Z</time></trkpt><trkpt lat="53.653649" lon="-1.9338506"><ele>312.4</ele><time>2026-03-22T17:46:38.943Z</time></trkpt><trkpt lat="53.6537389" lon="-1.9338463"><ele>311.6</ele><time>2026-03-22T17:46:39.945Z</time></trkpt><trkpt lat="53.6538443" lon="-1.9338312"><ele>310.8</ele><time>2026-03-22T17:46:40.942Z</time></trkpt><trkpt lat="53.6539475" lon="-1.9338117"><ele>310.0</ele><time>2026-03-22T17:46:41.94Z</time></trkpt><trkpt lat="53.6540428" lon="-1.9337845"><ele>310.0</ele><time>2026-03-22T17:46:42.94Z</time></trkpt><trkpt lat="53.6541272" lon="-1.9337402"><ele>310.0</ele><time>2026-03-22T17:46:43.939Z</time></trkpt><trkpt lat="53.6542031" lon="-1.9336698"><ele>310.0</ele><time>2026-03-22T17:46:44.939Z</time></trkpt><trkpt lat="53.6542737" lon="-1.9335652"><ele>310.0</ele><time>2026-03-22T17:46:45.94Z</time></trkpt><trkpt lat="53.6543434" lon="-1.9334308"><ele>310.0</ele><time>2026-03-22T17:46:46.942Z</time></trkpt><trkpt lat="53.6544194" lon="-1.9332726"><ele>309.25</ele><time>2026-03-22T17:46:47.94Z</time></trkpt><trkpt lat="53.6545035" lon="-1.9330982"><ele>308.5</ele><time>2026-03-22T17:46:48.94Z</time></trkpt><trkpt lat="53.6545913" lon="-1.9329153"><ele>307.75</ele><time>2026-03-22T17:46:49.94Z</time></trkpt><trkpt lat="53.6546852" lon="-1.9327123"><ele>307.0</ele><time>2026-03-22T17:46:50.939Z</time></trkpt><trkpt lat="53.6547799" lon="-1.9324959"><ele>307.0</ele><time>2026-03-22T17:46:51.939Z</time></trkpt><trkpt lat="53.6548643" lon="-1.9322809"><ele>307.0</ele><time>2026-03-22T17:46:52.942Z</time></trkpt><trkpt lat="53.6549277" lon="-1.9320741"><ele>307.0</ele><time>2026-03-22T17:46:53.94Z</time></trkpt><trkpt lat="53.6549722" lon="-1.9318888"><ele>307.0</ele><time>2026-03-22T17:46:54.94Z</time></trkpt><trkpt lat="53.6549952" lon="-1.9317449"><ele>307.8333333333333</ele><time>2026-03-22T17:46:55.942Z</time></trkpt><trkpt lat="53.655008" lon="-1.9316291"><ele>308.66666666666663</ele><time>2026-03-22T17:46:56.94Z</time></trkpt><trkpt lat="53.65501" lon="-1.9315207"><ele>309.5</ele><time>2026-03-22T17:46:58.946Z</time></trkpt><trkpt lat="53.6550786" lon="-1.9315306"><ele>310.3333333333333</ele><time>2026-03-22T17:47:04.953Z</time></trkpt><trkpt lat="53.6551527" lon="-1.931517"><ele>311.1666666666667</ele><time>2026-03-22T17:47:07.949Z</time></trkpt><trkpt lat="53.6551971" lon="-1.9314165"><ele>312.0</ele><time>2026-03-22T17:47:10.946Z</time></trkpt><trkpt lat="53.6552376" lon="-1.9315823"><ele>312.0</ele><time>2026-03-22T17:47:19.94Z</time></trkpt><trkpt lat="53.6552324" lon="-1.9317153"><ele>312.0</ele><time>2026-03-22T17:47:20.94Z</time></trkpt><trkpt lat="53.6552261" lon="-1.9318821"><ele>312.0</ele><time>2026-03-22T17:47:21.94Z</time></trkpt><trkpt lat="53.6552193" lon="-1.932079"><ele>312.0</ele><time>2026-03-22T17:47:22.938Z</time></trkpt><trkpt lat="53.6552095" lon="-1.9322812"><ele>312.0</ele><time>2026-03-22T17:47:23.939Z</time></trkpt><trkpt lat="53.6551934" lon="-1.9324755"><ele>309.5</ele><time>2026-03-22T17:47:24.94Z</time></trkpt><trkpt lat="53.6551658" lon="-1.9326671"><ele>307.0</ele><time>2026-03-22T17:47:25.942Z</time></trkpt><trkpt lat="53.6551254" lon="-1.9328542"><ele>304.5</ele><time>2026-03-22T17:47:26.94Z</time></trkpt><trkpt lat="53.6550674" lon="-1.9330399"><ele>302.0</ele><time>2026-03-22T17:47:27.939Z</time></trkpt><trkpt lat="53.6550018" lon="-1.9332187"><ele>300.75</ele><time>2026-03-22T17:47:28.938Z</time></trkpt><trkpt lat="53.6549263" lon="-1.9333919"><ele>299.5</ele><time>2026-03-22T17:47:29.939Z</time></trkpt><trkpt lat="53.6548453" lon="-1.9335681"><ele>298.25</ele><time>2026-03-22T17:47:30.939Z</time></trkpt><trkpt lat="53.6547664" lon="-1.9337368"><ele>297.0</ele><time>2026-03-22T17:47:31.945Z</time></trkpt><trkpt lat="53.6546896" lon="-1.9338864"><ele>297.0</ele><time>2026-03-22T17:47:32.944Z</time></trkpt><trkpt lat="53.6546158" lon="-1.9340371"><ele>297.0</ele><time>2026-03-22T17:47:33.943Z</time></trkpt><trkpt lat="53.6545394" lon="-1.9341855"><ele>297.0</ele><time>2026-03-22T17:47:34.942Z</time></trkpt><trkpt lat="53.6544583" lon="-1.9343355"><ele>297.0</ele><time>2026-03-22T17:47:35.943Z</time></trkpt><trkpt lat="53.654371" lon="-1.934483"><ele>298.0</ele><time>2026-03-22T17:47:36.946Z</time></trkpt><trkpt lat="53.6542783" lon="-1.9346254"><ele>299.0</ele><time>2026-03-22T17:47:37.945Z</time></trkpt><trkpt lat="53.6541801" lon="-1.9347674"><ele>300.0</ele><time>2026-03-22T17:47:38.946Z</time></trkpt><trkpt lat="53.6540769" lon="-1.9349004"><ele>301.0</ele><time>2026-03-22T17:47:39.941Z</time></trkpt><trkpt lat="53.6539701" lon="-1.9350238"><ele>300.40000000000003</ele><time>2026-03-22T17:47:40.943Z</time></trkpt><trkpt lat="53.6538597" lon="-1.935137"><ele>299.8</ele><time>2026-03-22T17:47:41.941Z</time></trkpt><trkpt lat="53.6537526" lon="-1.9352404"><ele>299.20000000000005</ele><time>2026-03-22T17:47:42.94Z</time></trkpt><trkpt lat="53.6536617" lon="-1.9353188"><ele>298.6</ele><time>2026-03-22T17:47:43.939Z</time></trkpt><trkpt lat="53.6535909" lon="-1.9353724"><ele>298.0</ele><time>2026-03-22T17:47:44.94Z</time></trkpt><trkpt lat="53.6535106" lon="-1.9354159"><ele>298.0</ele><time>2026-03-22T17:47:46.947Z</time></trkpt><trkpt lat="53.6534318" lon="-1.9354888"><ele>298.0</ele><time>2026-03-22T17:47:49.943Z</time></trkpt><trkpt lat="53.6533683" lon="-1.935539"><ele>298.0</ele><time>2026-03-22T17:47:51.945Z</time></trkpt><trkpt lat="53.6532952" lon="-1.935592"><ele>298.0</ele><time>2026-03-22T17:47:53.941Z</time></trkpt><trkpt lat="53.6531784" lon="-1.9356841"><ele>298.0</ele><time>2026-03-22T17:47:55.936Z</time></trkpt><trkpt lat="53.6531002" lon="-1.9357541"><ele>298.0</ele><time>2026-03-22T17:47:56.941Z</time></trkpt><trkpt lat="53.6530173" lon="-1.935843"><ele>298.0</ele><time>2026-03-22T17:47:57.94Z</time></trkpt><trkpt lat="53.6529372" lon="-1.9359423"><ele>298.0</ele><time>2026-03-22T17:47:58.942Z</time></trkpt><trkpt lat="53.6528536" lon="-1.9360382"><ele>298.0</ele><time>2026-03-22T17:47:59.94Z</time></trkpt><trkpt lat="53.6527639" lon="-1.9361142"><ele>298.0</ele><time>2026-03-22T17:48:00.942Z</time></trkpt><trkpt lat="53.6526677" lon="-1.9361679"><ele>296.6</ele><time>2026-03-22T17:48:01.942Z</time></trkpt><trkpt lat="53.6525728" lon="-1.9362116"><ele>295.20000000000005</ele><time>2026-03-22T17:48:02.945Z</time></trkpt><trkpt lat="53.6524773" lon="-1.9362573"><ele>293.8</ele><time>2026-03-22T17:48:03.945Z</time></trkpt><trkpt lat="53.6523752" lon="-1.9363099"><ele>292.40000000000003</ele><time>2026-03-22T17:48:04.938Z</time></trkpt><trkpt lat="53.6522736" lon="-1.936368"><ele>291.0</ele><time>2026-03-22T17:48:05.943Z</time></trkpt><trkpt lat="53.6521762" lon="-1.9364174"><ele>291.0</ele><time>2026-03-22T17:48:06.944Z</time></trkpt><trkpt lat="53.6520819" lon="-1.9364623"><ele>291.0</ele><time>2026-03-22T17:48:07.945Z</time></trkpt><trkpt lat="53.6519941" lon="-1.9365053"><ele>291.0</ele><time>2026-03-22T17:48:08.946Z</time></trkpt><trkpt lat="53.6519144" lon="-1.9365537"><ele>291.0</ele><time>2026-03-22T17:48:09.946Z</time></trkpt><trkpt lat="53.6518429" lon="-1.9365981"><ele>291.0</ele><time>2026-03-22T17:48:10.946Z</time></trkpt><trkpt lat="53.6517799" lon="-1.9366318"><ele>291.0</ele><time>2026-03-22T17:48:11.94Z</time></trkpt><trkpt lat="53.6517121" lon="-1.9367206"><ele>288.75</ele><time>2026-03-22T17:48:13.941Z</time></trkpt><trkpt lat="53.6517246" lon="-1.936974"><ele>286.5</ele><time>2026-03-22T17:48:15.941Z</time></trkpt><trkpt lat="53.6517435" lon="-1.9371537"><ele>284.25</ele><time>2026-03-22T17:48:16.94Z</time></trkpt><trkpt lat="53.6517605" lon="-1.9373414"><ele>282.0</ele><time>2026-03-22T17:48:17.941Z</time></trkpt><trkpt lat="53.6517715" lon="-1.9375174"><ele>280.6666666666667</ele><time>2026-03-22T17:48:18.936Z</time></trkpt><trkpt lat="53.6517796" lon="-1.9376688"><ele>279.3333333333333</ele><time>2026-03-22T17:48:19.941Z</time></trkpt><trkpt lat="53.6517962" lon="-1.9377926"><ele>278.0</ele><time>2026-03-22T17:48:20.939Z</time></trkpt><trkpt lat="53.6518325" lon="-1.9378919"><ele>276.66666666666663</ele><time>2026-03-22T17:48:21.94Z</time></trkpt><trkpt lat="53.6518946" lon="-1.9379855"><ele>275.3333333333333</ele><time>2026-03-22T17:48:22.94Z</time></trkpt><trkpt lat="53.6519694" lon="-1.9380844"><ele>274.0</ele><time>2026-03-22T17:48:23.941Z</time></trkpt><trkpt lat="53.6520515" lon="-1.9382011"><ele>273.75</ele><time>2026-03-22T17:48:24.941Z</time></trkpt><trkpt lat="53.6521436" lon="-1.9383212"><ele>273.5</ele><time>2026-03-22T17:48:25.939Z</time></trkpt><trkpt lat="53.6522484" lon="-1.9384437"><ele>273.25</ele><time>2026-03-22T17:48:26.936Z</time></trkpt><trkpt lat="53.6523671" lon="-1.9385653"><ele>273.0</ele><time>2026-03-22T17:48:27.944Z</time></trkpt><trkpt lat="53.6524994" lon="-1.9386901"><ele>272.0</ele><time>2026-03-22T17:48:28.943Z</time></trkpt><trkpt lat="53.6526238" lon="-1.9388205"><ele>271.0</ele><time>2026-03-22T17:48:29.942Z</time></trkpt><trkpt lat="53.6527382" lon="-1.9389443"><ele>270.0</ele><time>2026-03-22T17:48:30.942Z</time></trkpt><trkpt lat="53.652843" lon="-1.9390483"><ele>269.0</ele><time>2026-03-22T17:48:31.944Z</time></trkpt><trkpt lat="53.6529402" lon="-1.9391421"><ele>267.59999999999997</ele><time>2026-03-22T17:48:32.946Z</time></trkpt><trkpt lat="53.6530337" lon="-1.9392428"><ele>266.2</ele><time>2026-03-22T17:48:33.946Z</time></trkpt><trkpt lat="53.653123" lon="-1.9393365"><ele>264.79999999999995</ele><time>2026-03-22T17:48:34.946Z</time></trkpt><trkpt lat="53.6532102" lon="-1.939428"><ele>263.4</ele><time>2026-03-22T17:48:35.946Z</time></trkpt><trkpt lat="53.6532924" lon="-1.939515"><ele>262.0</ele><time>2026-03-22T17:48:36.947Z</time></trkpt><trkpt lat="53.6533664" lon="-1.9396069"><ele>262.0</ele><time>2026-03-22T17:48:37.945Z</time></trkpt><trkpt lat="53.6534337" lon="-1.9397073"><ele>262.0</ele><time>2026-03-22T17:48:38.939Z</time></trkpt><trkpt lat="53.6534963" lon="-1.9398244"><ele>262.0</ele><time>2026-03-22T17:48:39.949Z</time></trkpt><trkpt lat="53.6535575" lon="-1.939955"><ele>262.0</ele><time>2026-03-22T17:48:40.946Z</time></trkpt><trkpt lat="53.6536173" lon="-1.9400819"><ele>262.0</ele><time>2026-03-22T17:48:41.937Z</time></trkpt><trkpt lat="53.653676" lon="-1.9402092"><ele>261.3333333333333</ele><time>2026-03-22T17:48:42.939Z</time></trkpt><trkpt lat="53.6537321" lon="-1.9403354"><ele>260.66666666666663</ele><time>2026-03-22T17:48:43.944Z</time></trkpt><trkpt lat="53.6537834" lon="-1.9404569"><ele>260.0</ele><time>2026-03-22T17:48:44.943Z</time></trkpt><trkpt lat="53.6538249" lon="-1.9405731"><ele>259.3333333333333</ele><time>2026-03-22T17:48:45.941Z</time></trkpt><trkpt lat="53.653858" lon="-1.9406799"><ele>258.6666666666667</ele><time>2026-03-22T17:48:46.936Z</time></trkpt><trkpt lat="53.6538809" lon="-1.940784"><ele>258.0</ele><time>2026-03-22T17:48:47.943Z</time></trkpt><trkpt lat="53.653898" lon="-1.9408868"><ele>255.60000000000002</ele><time>2026-03-22T17:48:48.94Z</time></trkpt><trkpt lat="53.6539353" lon="-1.9410671"><ele>253.20000000000002</ele><time>2026-03-22T17:48:50.944Z</time></trkpt><trkpt lat="53.6540134" lon="-1.9412117"><ele>250.8</ele><time>2026-03-22T17:48:52.937Z</time></trkpt><trkpt lat="53.6540794" lon="-1.9412748"><ele>248.4</ele><time>2026-03-22T17:48:53.942Z</time></trkpt><trkpt lat="53.6541513" lon="-1.9413407"><ele>246.0</ele><time>2026-03-22T17:48:54.941Z</time></trkpt><trkpt lat="53.6542154" lon="-1.9414181"><ele>246.0</ele><time>2026-03-22T17:48:55.943Z</time></trkpt><trkpt lat="53.6542689" lon="-1.9414981"><ele>246.0</ele><time>2026-03-22T17:48:56.945Z</time></trkpt><trkpt lat="53.6543188" lon="-1.9415697"><ele>246.0</ele><time>2026-03-22T17:48:57.942Z</time></trkpt><trkpt lat="53.6544289" lon="-1.9416833"><ele>246.0</ele><time>2026-03-22T17:48:59.941Z</time></trkpt><trkpt lat="53.6545103" lon="-1.9417177"><ele>246.0</ele><time>2026-03-22T17:49:00.944Z</time></trkpt><trkpt lat="53.6546086" lon="-1.9417393"><ele>246.0</ele><time>2026-03-22T17:49:01.947Z</time></trkpt><trkpt lat="53.654716" lon="-1.9417555"><ele>243.4</ele><time>2026-03-22T17:49:02.946Z</time></trkpt><trkpt lat="53.6548177" lon="-1.941767"><ele>240.8</ele><time>2026-03-22T17:49:03.943Z</time></trkpt><trkpt lat="53.654909" lon="-1.9417803"><ele>238.20000000000002</ele><time>2026-03-22T17:49:04.943Z</time></trkpt><trkpt lat="53.6550041" lon="-1.9418143"><ele>235.60000000000002</ele><time>2026-03-22T17:49:05.944Z</time></trkpt><trkpt lat="53.655103" lon="-1.9418676"><ele>233.0</ele><time>2026-03-22T17:49:06.946Z</time></trkpt><trkpt lat="53.6552004" lon="-1.941926"><ele>231.60000000000002</ele><time>2026-03-22T17:49:07.947Z</time></trkpt><trkpt lat="53.6552934" lon="-1.9419878"><ele>230.20000000000002</ele><time>2026-03-22T17:49:08.946Z</time></trkpt><trkpt lat="53.6553811" lon="-1.9420538"><ele>228.8</ele><time>2026-03-22T17:49:09.946Z</time></trkpt><trkpt lat="53.6554649" lon="-1.9421188"><ele>227.4</ele><time>2026-03-22T17:49:10.944Z</time></trkpt><trkpt lat="53.6555453" lon="-1.9421832"><ele>226.0</ele><time>2026-03-22T17:49:11.94Z</time></trkpt><trkpt lat="53.6556218" lon="-1.9422516"><ele>225.99999999999997</ele><time>2026-03-22T17:49:12.941Z</time></trkpt><trkpt lat="53.6556918" lon="-1.9423317"><ele>226.0</ele><time>2026-03-22T17:49:13.943Z</time></trkpt><trkpt lat="53.6557502" lon="-1.9424247"><ele>226.0</ele><time>2026-03-22T17:49:14.942Z</time></trkpt><trkpt lat="53.6557953" lon="-1.9425238"><ele>226.0</ele><time>2026-03-22T17:49:15.935Z</time></trkpt><trkpt lat="53.6558346" lon="-1.9426287"><ele>225.99999999999997</ele><time>2026-03-22T17:49:16.941Z</time></trkpt><trkpt lat="53.6558665" lon="-1.9427362"><ele>226.0</ele><time>2026-03-22T17:49:17.942Z</time></trkpt><trkpt lat="53.6558932" lon="-1.9428414"><ele>225.42857142857144</ele><time>2026-03-22T17:49:18.942Z</time></trkpt><trkpt lat="53.6559165" lon="-1.9429421"><ele>224.85714285714283</ele><time>2026-03-22T17:49:19.941Z</time></trkpt><trkpt lat="53.6559428" lon="-1.9430428"><ele>224.28571428571428</ele><time>2026-03-22T17:49:20.94Z</time></trkpt><trkpt lat="53.6559728" lon="-1.9431459"><ele>223.71428571428572</ele><time>2026-03-22T17:49:21.941Z</time></trkpt><trkpt lat="53.6560032" lon="-1.9432392"><ele>223.14285714285717</ele><time>2026-03-22T17:49:22.941Z</time></trkpt><trkpt lat="53.6560525" lon="-1.9433945"><ele>222.57142857142856</ele><time>2026-03-22T17:49:24.942Z</time></trkpt><trkpt lat="53.6560849" lon="-1.9434947"><ele>222.0</ele><time>2026-03-22T17:49:26.945Z</time></trkpt><trkpt lat="53.6561567" lon="-1.9435216"><ele>219.8</ele><time>2026-03-22T17:49:28.943Z</time></trkpt><trkpt lat="53.6562328" lon="-1.9434856"><ele>217.6</ele><time>2026-03-22T17:49:29.94Z</time></trkpt><trkpt lat="53.6563327" lon="-1.9434398"><ele>215.4</ele><time>2026-03-22T17:49:30.941Z</time></trkpt><trkpt lat="53.656431" lon="-1.9433898"><ele>213.20000000000002</ele><time>2026-03-22T17:49:31.943Z</time></trkpt><trkpt lat="53.6565228" lon="-1.9433419"><ele>211.0</ele><time>2026-03-22T17:49:32.944Z</time></trkpt><trkpt lat="53.6566078" lon="-1.9432961"><ele>210.99999999999997</ele><time>2026-03-22T17:49:33.944Z</time></trkpt><trkpt lat="53.6566847" lon="-1.943239"><ele>211.0</ele><time>2026-03-22T17:49:34.946Z</time></trkpt><trkpt lat="53.6567513" lon="-1.9431725"><ele>211.0</ele><time>2026-03-22T17:49:35.947Z</time></trkpt><trkpt lat="53.6568252" lon="-1.943092"><ele>211.0</ele><time>2026-03-22T17:49:36.947Z</time></trkpt><trkpt lat="53.656897" lon="-1.9430014"><ele>210.99999999999997</ele><time>2026-03-22T17:49:37.945Z</time></trkpt><trkpt lat="53.6569581" lon="-1.9429062"><ele>211.0</ele><time>2026-03-22T17:49:38.945Z</time></trkpt><trkpt lat="53.6570104" lon="-1.9428188"><ele>208.33333333333331</ele><time>2026-03-22T17:49:39.946Z</time></trkpt><trkpt lat="53.6570962" lon="-1.9426844"><ele>205.66666666666666</ele><time>2026-03-22T17:49:41.942Z</time></trkpt><trkpt lat="53.6571669" lon="-1.942631"><ele>203.0</ele><time>2026-03-22T17:49:43.946Z</time></trkpt><trkpt lat="53.6572339" lon="-1.9426209"><ele>200.33333333333331</ele><time>2026-03-22T17:49:45.947Z</time></trkpt><trkpt lat="53.6572953" lon="-1.9425489"><ele>197.66666666666666</ele><time>2026-03-22T17:49:48.947Z</time></trkpt><trkpt lat="53.6573179" lon="-1.9424302"><ele>195.0</ele><time>2026-03-22T17:49:50.936Z</time></trkpt><trkpt lat="53.6573973" lon="-1.9422898"><ele>195.0</ele><time>2026-03-22T17:49:52.946Z</time></trkpt><trkpt lat="53.6574652" lon="-1.9421738"><ele>195.0</ele><time>2026-03-22T17:49:54.937Z</time></trkpt><trkpt lat="53.6575412" lon="-1.9420418"><ele>195.0</ele><time>2026-03-22T17:49:56.94Z</time></trkpt><trkpt lat="53.6575763" lon="-1.9419451"><ele>195.0</ele><time>2026-03-22T17:49:57.94Z</time></trkpt><trkpt lat="53.6576115" lon="-1.9418513"><ele>195.0</ele><time>2026-03-22T17:49:58.943Z</time></trkpt><trkpt lat="53.6576666" lon="-1.9417002"><ele>195.0</ele><time>2026-03-22T17:50:00.943Z</time></trkpt><trkpt lat="53.6577216" lon="-1.9415879"><ele>194.5</ele><time>2026-03-22T17:50:02.945Z</time></trkpt><trkpt lat="53.6577908" lon="-1.9415234"><ele>194.0</ele><time>2026-03-22T17:50:04.942Z</time></trkpt><trkpt lat="53.6578883" lon="-1.9415624"><ele>193.5</ele><time>2026-03-22T17:50:06.944Z</time></trkpt><trkpt lat="53.6579466" lon="-1.9416122"><ele>193.0</ele><time>2026-03-22T17:50:07.945Z</time></trkpt><trkpt lat="53.6580047" lon="-1.9416581"><ele>192.5</ele><time>2026-03-22T17:50:08.944Z</time></trkpt><trkpt lat="53.6580901" lon="-1.9417367"><ele>192.0</ele><time>2026-03-22T17:50:10.948Z</time></trkpt><trkpt lat="53.658161" lon="-1.9418022"><ele>192.0</ele><time>2026-03-22T17:50:12.94Z</time></trkpt><trkpt lat="53.6582487" lon="-1.9418591"><ele>192.0</ele><time>2026-03-22T17:50:14.942Z</time></trkpt><trkpt lat="53.6583505" lon="-1.9419185"><ele>192.0</ele><time>2026-03-22T17:50:16.94Z</time></trkpt><trkpt lat="53.6584167" lon="-1.9419654"><ele>192.0</ele><time>2026-03-22T17:50:17.94Z</time></trkpt><trkpt lat="53.6585116" lon="-1.9420303"><ele>192.0</ele><time>2026-03-22T17:50:18.941Z</time></trkpt><trkpt lat="53.6586266" lon="-1.942112"><ele>196.0</ele><time>2026-03-22T17:50:19.943Z</time></trkpt><trkpt lat="53.658744" lon="-1.942184"><ele>200.0</ele><time>2026-03-22T17:50:20.94Z</time></trkpt><trkpt lat="53.6588678" lon="-1.9422619"><ele>204.0</ele><time>2026-03-22T17:50:21.94Z</time></trkpt><trkpt lat="53.658978" lon="-1.9423365"><ele>208.0</ele><time>2026-03-22T17:50:22.942Z</time></trkpt><trkpt lat="53.6590797" lon="-1.9424198"><ele>208.0</ele><time>2026-03-22T17:50:23.94Z</time></trkpt><trkpt lat="53.6591821" lon="-1.9425012"><ele>208.0</ele><time>2026-03-22T17:50:24.938Z</time></trkpt><trkpt lat="53.6592641" lon="-1.9425487"><ele>208.0</ele><time>2026-03-22T17:50:25.939Z</time></trkpt><trkpt lat="53.6593238" lon="-1.9426021"><ele>208.0</ele><time>2026-03-22T17:50:26.941Z</time></trkpt><trkpt lat="53.6594465" lon="-1.942653"><ele>208.0</ele><time>2026-03-22T17:50:28.94Z</time></trkpt><trkpt lat="53.6595148" lon="-1.9426795"><ele>207.99999999999997</ele><time>2026-03-22T17:50:29.939Z</time></trkpt><trkpt lat="53.6595899" lon="-1.9427027"><ele>208.0</ele><time>2026-03-22T17:50:30.939Z</time></trkpt><trkpt lat="53.6596832" lon="-1.9427159"><ele>208.0</ele><time>2026-03-22T17:50:31.943Z</time></trkpt><trkpt lat="53.6597625" lon="-1.9427416"><ele>208.0</ele><time>2026-03-22T17:50:32.949Z</time></trkpt><trkpt lat="53.6598478" lon="-1.942788"><ele>207.99999999999997</ele><time>2026-03-22T17:50:33.944Z</time></trkpt><trkpt lat="53.6599409" lon="-1.9428467"><ele>208.0</ele><time>2026-03-22T17:50:34.942Z</time></trkpt><trkpt lat="53.6600297" lon="-1.9429165"><ele>208.0</ele><time>2026-03-22T17:50:35.942Z</time></trkpt><trkpt lat="53.6601262" lon="-1.9429573"><ele>208.0</ele><time>2026-03-22T17:50:36.943Z</time></trkpt><trkpt lat="53.6602263" lon="-1.9429956"><ele>208.0</ele><time>2026-03-22T17:50:37.943Z</time></trkpt><trkpt lat="53.6603298" lon="-1.9430267"><ele>208.0</ele><time>2026-03-22T17:50:38.944Z</time></trkpt><trkpt lat="53.6604241" lon="-1.943057"><ele>208.0</ele><time>2026-03-22T17:50:39.943Z</time></trkpt><trkpt lat="53.6605083" lon="-1.9430928"><ele>207.49999999999997</ele><time>2026-03-22T17:50:40.942Z</time></trkpt><trkpt lat="53.6605841" lon="-1.9431241"><ele>207.0</ele><time>2026-03-22T17:50:41.939Z</time></trkpt><trkpt lat="53.6607" lon="-1.9431878"><ele>206.5</ele><time>2026-03-22T17:50:43.943Z</time></trkpt><trkpt lat="53.6607596" lon="-1.9432257"><ele>206.0</ele><time>2026-03-22T17:50:44.941Z</time></trkpt><trkpt lat="53.6608208" lon="-1.9432737"><ele>205.49999999999997</ele><time>2026-03-22T17:50:45.939Z</time></trkpt><trkpt lat="53.6608781" lon="-1.9433255"><ele>205.0</ele><time>2026-03-22T17:50:46.941Z</time></trkpt><trkpt lat="53.6609828" lon="-1.9434224"><ele>205.0</ele><time>2026-03-22T17:50:48.943Z</time></trkpt><trkpt lat="53.6610712" lon="-1.9435254"><ele>205.0</ele><time>2026-03-22T17:50:50.945Z</time></trkpt><trkpt lat="53.661149" lon="-1.9436404"><ele>205.0</ele><time>2026-03-22T17:50:52.941Z</time></trkpt><trkpt lat="53.6612409" lon="-1.9437301"><ele>205.0</ele><time>2026-03-22T17:50:54.943Z</time></trkpt><trkpt lat="53.6613608" lon="-1.9438031"><ele>205.0</ele><time>2026-03-22T17:50:56.944Z</time></trkpt><trkpt lat="53.6614359" lon="-1.9438418"><ele>206.6</ele><time>2026-03-22T17:50:57.944Z</time></trkpt><trkpt lat="53.6615316" lon="-1.943891"><ele>208.2</ele><time>2026-03-22T17:50:58.944Z</time></trkpt><trkpt lat="53.6616401" lon="-1.9439399"><ele>209.8</ele><time>2026-03-22T17:50:59.942Z</time></trkpt><trkpt lat="53.6617551" lon="-1.9439656"><ele>211.4</ele><time>2026-03-22T17:51:00.945Z</time></trkpt><trkpt lat="53.6618719" lon="-1.9439688"><ele>213.0</ele><time>2026-03-22T17:51:01.945Z</time></trkpt><trkpt lat="53.6619831" lon="-1.9439585"><ele>213.0</ele><time>2026-03-22T17:51:02.943Z</time></trkpt><trkpt lat="53.6620863" lon="-1.943934"><ele>213.0</ele><time>2026-03-22T17:51:03.946Z</time></trkpt><trkpt lat="53.6621883" lon="-1.9438972"><ele>213.0</ele><time>2026-03-22T17:51:04.948Z</time></trkpt><trkpt lat="53.6622844" lon="-1.9438571"><ele>213.0</ele><time>2026-03-22T17:51:05.944Z</time></trkpt><trkpt lat="53.6623771" lon="-1.9438245"><ele>213.0</ele><time>2026-03-22T17:51:06.944Z</time></trkpt><trkpt lat="53.6624679" lon="-1.9438083"><ele>213.0</ele><time>2026-03-22T17:51:07.943Z</time></trkpt><trkpt lat="53.6625582" lon="-1.9438038"><ele>213.0</ele><time>2026-03-22T17:51:08.947Z</time></trkpt><trkpt lat="53.6626559" lon="-1.9437987"><ele>213.0</ele><time>2026-03-22T17:51:09.946Z</time></trkpt><trkpt lat="53.6627667" lon="-1.9437789"><ele>213.0</ele><time>2026-03-22T17:51:10.944Z</time></trkpt><trkpt lat="53.6628898" lon="-1.9437424"><ele>213.0</ele><time>2026-03-22T17:51:11.94Z</time></trkpt><trkpt lat="53.6630221" lon="-1.9437069"><ele>212.0</ele><time>2026-03-22T17:51:12.941Z</time></trkpt><trkpt lat="53.6631627" lon="-1.943673"><ele>211.0</ele><time>2026-03-22T17:51:13.941Z</time></trkpt><trkpt lat="53.663304" lon="-1.9436574"><ele>210.0</ele><time>2026-03-22T17:51:14.942Z</time></trkpt><trkpt lat="53.6634516" lon="-1.9436699"><ele>209.0</ele><time>2026-03-22T17:51:15.944Z</time></trkpt><trkpt lat="53.6635996" lon="-1.94371"><ele>209.5</ele><time>2026-03-22T17:51:16.943Z</time></trkpt><trkpt lat="53.6637418" lon="-1.9437599"><ele>210.0</ele><time>2026-03-22T17:51:17.942Z</time></trkpt><trkpt lat="53.6638774" lon="-1.9438028"><ele>210.5</ele><time>2026-03-22T17:51:18.943Z</time></trkpt><trkpt lat="53.6639991" lon="-1.9438385"><ele>211.0</ele><time>2026-03-22T17:51:19.94Z</time></trkpt><trkpt lat="53.6641043" lon="-1.9438636"><ele>211.0</ele><time>2026-03-22T17:51:20.944Z</time></trkpt><trkpt lat="53.6641971" lon="-1.9438791"><ele>211.0</ele><time>2026-03-22T17:51:21.941Z</time></trkpt><trkpt lat="53.6642857" lon="-1.9438766"><ele>211.0</ele><time>2026-03-22T17:51:22.941Z</time></trkpt><trkpt lat="53.6643763" lon="-1.9438588"><ele>211.0</ele><time>2026-03-22T17:51:23.942Z</time></trkpt><trkpt lat="53.6644741" lon="-1.9438214"><ele>211.0</ele><time>2026-03-22T17:51:24.939Z</time></trkpt><trkpt lat="53.6645761" lon="-1.9437699"><ele>210.60000000000002</ele><time>2026-03-22T17:51:25.941Z</time></trkpt><trkpt lat="53.664681" lon="-1.943723"><ele>210.2</ele><time>2026-03-22T17:51:26.943Z</time></trkpt><trkpt lat="53.6647882" lon="-1.9436871"><ele>209.8</ele><time>2026-03-22T17:51:27.941Z</time></trkpt><trkpt lat="53.6648806" lon="-1.9436568"><ele>209.39999999999998</ele><time>2026-03-22T17:51:28.941Z</time></trkpt><trkpt lat="53.6649571" lon="-1.9436244"><ele>209.0</ele><time>2026-03-22T17:51:29.94Z</time></trkpt><trkpt lat="53.6650295" lon="-1.9435739"><ele>209.0</ele><time>2026-03-22T17:51:30.941Z</time></trkpt><trkpt lat="53.6651063" lon="-1.9434991"><ele>209.0</ele><time>2026-03-22T17:51:31.945Z</time></trkpt><trkpt lat="53.6651901" lon="-1.9433991"><ele>209.0</ele><time>2026-03-22T17:51:32.947Z</time></trkpt><trkpt lat="53.6652813" lon="-1.9432757"><ele>209.0</ele><time>2026-03-22T17:51:33.944Z</time></trkpt><trkpt lat="53.6653757" lon="-1.9431396"><ele>209.0</ele><time>2026-03-22T17:51:34.944Z</time></trkpt><trkpt lat="53.6654713" lon="-1.9429983"><ele>211.0</ele><time>2026-03-22T17:51:35.938Z</time></trkpt><trkpt lat="53.6655706" lon="-1.9428662"><ele>213.0</ele><time>2026-03-22T17:51:36.947Z</time></trkpt><trkpt lat="53.6656734" lon="-1.9427434"><ele>215.0</ele><time>2026-03-22T17:51:37.946Z</time></trkpt><trkpt lat="53.6657746" lon="-1.9426325"><ele>217.0</ele><time>2026-03-22T17:51:38.948Z</time></trkpt><trkpt lat="53.6658684" lon="-1.9425381"><ele>217.39999999999998</ele><time>2026-03-22T17:51:39.946Z</time></trkpt><trkpt lat="53.6659555" lon="-1.942463"><ele>217.79999999999998</ele><time>2026-03-22T17:51:40.946Z</time></trkpt><trkpt lat="53.666042" lon="-1.9423837"><ele>218.2</ele><time>2026-03-22T17:51:41.943Z</time></trkpt><trkpt lat="53.6661286" lon="-1.9422878"><ele>218.6</ele><time>2026-03-22T17:51:42.942Z</time></trkpt><trkpt lat="53.6662236" lon="-1.9421746"><ele>219.0</ele><time>2026-03-22T17:51:43.942Z</time></trkpt><trkpt lat="53.6663338" lon="-1.9420464"><ele>219.0</ele><time>2026-03-22T17:51:44.942Z</time></trkpt><trkpt lat="53.6664495" lon="-1.9419236"><ele>219.0</ele><time>2026-03-22T17:51:45.943Z</time></trkpt><trkpt lat="53.6665575" lon="-1.9418156"><ele>219.0</ele><time>2026-03-22T17:51:46.944Z</time></trkpt><trkpt lat="53.6666541" lon="-1.9417291"><ele>219.0</ele><time>2026-03-22T17:51:47.942Z</time></trkpt><trkpt lat="53.6667324" lon="-1.9416678"><ele>219.33333333333334</ele><time>2026-03-22T17:51:48.944Z</time></trkpt><trkpt lat="53.6667974" lon="-1.9416219"><ele>219.66666666666669</ele><time>2026-03-22T17:51:49.944Z</time></trkpt><trkpt lat="53.6668592" lon="-1.9415787"><ele>220.0</ele><time>2026-03-22T17:51:50.942Z</time></trkpt><trkpt lat="53.6669283" lon="-1.9415213"><ele>220.33333333333334</ele><time>2026-03-22T17:51:51.941Z</time></trkpt><trkpt lat="53.6670094" lon="-1.9414463"><ele>220.66666666666669</ele><time>2026-03-22T17:51:52.944Z</time></trkpt><trkpt lat="53.6671079" lon="-1.9413609"><ele>221.0</ele><time>2026-03-22T17:51:53.943Z</time></trkpt><trkpt lat="53.6672272" lon="-1.9412809"><ele>221.0</ele><time>2026-03-22T17:51:54.942Z</time></trkpt><trkpt lat="53.6673603" lon="-1.9412101"><ele>221.0</ele><time>2026-03-22T17:51:55.94Z</time></trkpt><trkpt lat="53.6675011" lon="-1.9411362"><ele>221.0</ele><time>2026-03-22T17:51:56.941Z</time></trkpt><trkpt lat="53.6676314" lon="-1.9410648"><ele>221.0</ele><time>2026-03-22T17:51:57.942Z</time></trkpt><trkpt lat="53.6677513" lon="-1.9409962"><ele>221.5</ele><time>2026-03-22T17:51:58.942Z</time></trkpt><trkpt lat="53.6678625" lon="-1.9409266"><ele>222.0</ele><time>2026-03-22T17:51:59.94Z</time></trkpt><trkpt lat="53.6679687" lon="-1.9408519"><ele>222.5</ele><time>2026-03-22T17:52:00.94Z</time></trkpt><trkpt lat="53.6680735" lon="-1.9407804"><ele>223.0</ele><time>2026-03-22T17:52:01.944Z</time></trkpt><trkpt lat="53.6681798" lon="-1.9407058"><ele>223.0</ele><time>2026-03-22T17:52:02.941Z</time></trkpt><trkpt lat="53.6682901" lon="-1.9406272"><ele>223.0</ele><time>2026-03-22T17:52:03.936Z</time></trkpt><trkpt lat="53.6684054" lon="-1.9405449"><ele>223.0</ele><time>2026-03-22T17:52:04.942Z</time></trkpt><trkpt lat="53.6685245" lon="-1.9404651"><ele>223.0</ele><time>2026-03-22T17:52:05.943Z</time></trkpt><trkpt lat="53.6686529" lon="-1.940394"><ele>220.0</ele><time>2026-03-22T17:52:06.942Z</time></trkpt><trkpt lat="53.6687843" lon="-1.9403174"><ele>217.0</ele><time>2026-03-22T17:52:07.943Z</time></trkpt><trkpt lat="53.6689188" lon="-1.9402438"><ele>214.0</ele><time>2026-03-22T17:52:08.943Z</time></trkpt><trkpt lat="53.6690498" lon="-1.940171"><ele>211.0</ele><time>2026-03-22T17:52:09.943Z</time></trkpt><trkpt lat="53.6691825" lon="-1.940097"><ele>209.0</ele><time>2026-03-22T17:52:10.944Z</time></trkpt><trkpt lat="53.6693076" lon="-1.9400195"><ele>207.0</ele><time>2026-03-22T17:52:11.942Z</time></trkpt><trkpt lat="53.6694232" lon="-1.9399335"><ele>205.0</ele><time>2026-03-22T17:52:12.94Z</time></trkpt><trkpt lat="53.6695403" lon="-1.9398336"><ele>203.0</ele><time>2026-03-22T17:52:13.942Z</time></trkpt><trkpt lat="53.6696366" lon="-1.9397124"><ele>203.0</ele><time>2026-03-22T17:52:14.943Z</time></trkpt><trkpt lat="53.6697226" lon="-1.9395691"><ele>203.0</ele><time>2026-03-22T17:52:15.942Z</time></trkpt><trkpt lat="53.6698021" lon="-1.9394218"><ele>203.0</ele><time>2026-03-22T17:52:16.941Z</time></trkpt><trkpt lat="53.669883" lon="-1.9392765"><ele>203.0</ele><time>2026-03-22T17:52:17.939Z</time></trkpt><trkpt lat="53.6699706" lon="-1.9391318"><ele>204.5</ele><time>2026-03-22T17:52:18.939Z</time></trkpt><trkpt lat="53.6700558" lon="-1.9389915"><ele>206.0</ele><time>2026-03-22T17:52:19.94Z</time></trkpt><trkpt lat="53.6701352" lon="-1.9388542"><ele>207.5</ele><time>2026-03-22T17:52:20.942Z</time></trkpt><trkpt lat="53.6702096" lon="-1.9387198"><ele>209.0</ele><time>2026-03-22T17:52:21.944Z</time></trkpt><trkpt lat="53.6702851" lon="-1.9385834"><ele>205.75</ele><time>2026-03-22T17:52:22.944Z</time></trkpt><trkpt lat="53.6703691" lon="-1.9384408"><ele>202.5</ele><time>2026-03-22T17:52:23.941Z</time></trkpt><trkpt lat="53.6704611" lon="-1.9383056"><ele>199.25</ele><time>2026-03-22T17:52:24.941Z</time></trkpt><trkpt lat="53.670553" lon="-1.93818"><ele>196.0</ele><time>2026-03-22T17:52:25.943Z</time></trkpt><trkpt lat="53.6706443" lon="-1.9380543"><ele>196.0</ele><time>2026-03-22T17:52:26.943Z</time></trkpt><trkpt lat="53.6707298" lon="-1.9379252"><ele>196.0</ele><time>2026-03-22T17:52:27.942Z</time></trkpt><trkpt lat="53.6708125" lon="-1.9377987"><ele>196.0</ele><time>2026-03-22T17:52:28.941Z</time></trkpt><trkpt lat="53.6708876" lon="-1.9376777"><ele>196.0</ele><time>2026-03-22T17:52:29.944Z</time></trkpt><trkpt lat="53.6709493" lon="-1.9375612"><ele>196.0</ele><time>2026-03-22T17:52:30.944Z</time></trkpt><trkpt lat="53.6709975" lon="-1.9374463"><ele>196.66666666666666</ele><time>2026-03-22T17:52:31.945Z</time></trkpt><trkpt lat="53.6710306" lon="-1.9373222"><ele>197.33333333333331</ele><time>2026-03-22T17:52:32.937Z</time></trkpt><trkpt lat="53.6710446" lon="-1.9371955"><ele>198.0</ele><time>2026-03-22T17:52:33.944Z</time></trkpt><trkpt lat="53.6710352" lon="-1.9370567"><ele>198.66666666666669</ele><time>2026-03-22T17:52:34.944Z</time></trkpt><trkpt lat="53.6710113" lon="-1.9369029"><ele>199.33333333333334</ele><time>2026-03-22T17:52:35.944Z</time></trkpt><trkpt lat="53.6709751" lon="-1.9367363"><ele>200.0</ele><time>2026-03-22T17:52:36.944Z</time></trkpt><trkpt lat="53.6709359" lon="-1.9365469"><ele>199.8</ele><time>2026-03-22T17:52:37.943Z</time></trkpt><trkpt lat="53.6709203" lon="-1.9363516"><ele>199.6</ele><time>2026-03-22T17:52:38.942Z</time></trkpt><trkpt lat="53.6709161" lon="-1.9361663"><ele>199.39999999999998</ele><time>2026-03-22T17:52:39.945Z</time></trkpt><trkpt lat="53.6709142" lon="-1.9360097"><ele>199.2</ele><time>2026-03-22T17:52:40.946Z</time></trkpt><trkpt lat="53.6709153" lon="-1.9358644"><ele>199.0</ele><time>2026-03-22T17:52:41.942Z</time></trkpt><trkpt lat="53.6709257" lon="-1.9357308"><ele>198.99999999999997</ele><time>2026-03-22T17:52:42.943Z</time></trkpt><trkpt lat="53.670929" lon="-1.9355877"><ele>199.0</ele><time>2026-03-22T17:52:43.941Z</time></trkpt><trkpt lat="53.6709275" lon="-1.9354552"><ele>199.0</ele><time>2026-03-22T17:52:44.941Z</time></trkpt><trkpt lat="53.670926" lon="-1.9353458"><ele>199.0</ele><time>2026-03-22T17:52:45.945Z</time></trkpt><trkpt lat="53.6709223" lon="-1.9351674"><ele>198.99999999999997</ele><time>2026-03-22T17:52:47.948Z</time></trkpt><trkpt lat="53.6709281" lon="-1.9350089"><ele>199.0</ele><time>2026-03-22T17:52:49.943Z</time></trkpt><trkpt lat="53.67094" lon="-1.9348328"><ele>198.0</ele><time>2026-03-22T17:52:51.948Z</time></trkpt><trkpt lat="53.6709415" lon="-1.9346558"><ele>197.0</ele><time>2026-03-22T17:52:53.947Z</time></trkpt><trkpt lat="53.6709173" lon="-1.9344904"><ele>196.0</ele><time>2026-03-22T17:52:55.937Z</time></trkpt><trkpt lat="53.6709036" lon="-1.9343605"><ele>195.0</ele><time>2026-03-22T17:52:57.94Z</time></trkpt><trkpt lat="53.6709593" lon="-1.9342443"><ele>194.0</ele><time>2026-03-22T17:52:59.94Z</time></trkpt><trkpt lat="53.671083" lon="-1.9341722"><ele>192.79999999999998</ele><time>2026-03-22T17:53:01.945Z</time></trkpt><trkpt lat="53.6711714" lon="-1.9341418"><ele>191.6</ele><time>2026-03-22T17:53:02.945Z</time></trkpt><trkpt lat="53.6712721" lon="-1.9341108"><ele>190.4</ele><time>2026-03-22T17:53:03.948Z</time></trkpt><trkpt lat="53.6713618" lon="-1.9340803"><ele>189.2</ele><time>2026-03-22T17:53:04.948Z</time></trkpt><trkpt lat="53.6714572" lon="-1.9340274"><ele>188.0</ele><time>2026-03-22T17:53:05.942Z</time></trkpt><trkpt lat="53.67155" lon="-1.9339648"><ele>188.0</ele><time>2026-03-22T17:53:06.943Z</time></trkpt><trkpt lat="53.6716549" lon="-1.9338862"><ele>188.0</ele><time>2026-03-22T17:53:07.945Z</time></trkpt><trkpt lat="53.6717753" lon="-1.933797"><ele>188.0</ele><time>2026-03-22T17:53:08.946Z</time></trkpt><trkpt lat="53.6719016" lon="-1.9337022"><ele>188.0</ele><time>2026-03-22T17:53:09.943Z</time></trkpt><trkpt lat="53.6720163" lon="-1.93362"><ele>187.60000000000002</ele><time>2026-03-22T17:53:10.944Z</time></trkpt><trkpt lat="53.6721153" lon="-1.9335501"><ele>187.20000000000002</ele><time>2026-03-22T17:53:11.941Z</time></trkpt><trkpt lat="53.6721947" lon="-1.9334817"><ele>186.8</ele><time>2026-03-22T17:53:12.941Z</time></trkpt><trkpt lat="53.6722694" lon="-1.9333897"><ele>186.4</ele><time>2026-03-22T17:53:13.941Z</time></trkpt><trkpt lat="53.6723301" lon="-1.9332808"><ele>186.0</ele><time>2026-03-22T17:53:14.944Z</time></trkpt><trkpt lat="53.6723783" lon="-1.93316"><ele>188.8</ele><time>2026-03-22T17:53:15.944Z</time></trkpt><trkpt lat="53.6724171" lon="-1.933017"><ele>191.60000000000002</ele><time>2026-03-22T17:53:16.945Z</time></trkpt><trkpt lat="53.6724458" lon="-1.9328499"><ele>194.4</ele><time>2026-03-22T17:53:17.944Z</time></trkpt><trkpt lat="53.6724747" lon="-1.9326707"><ele>197.2</ele><time>2026-03-22T17:53:18.945Z</time></trkpt><trkpt lat="53.6725103" lon="-1.9325174"><ele>200.0</ele><time>2026-03-22T17:53:19.942Z</time></trkpt><trkpt lat="53.6725538" lon="-1.9323937"><ele>202.66666666666669</ele><time>2026-03-22T17:53:20.942Z</time></trkpt><trkpt lat="53.6726013" lon="-1.9323058"><ele>205.33333333333334</ele><time>2026-03-22T17:53:21.945Z</time></trkpt><trkpt lat="53.6726669" lon="-1.9322633"><ele>208.0</ele><time>2026-03-22T17:53:22.945Z</time></trkpt><trkpt lat="53.6727515" lon="-1.9322557"><ele>210.66666666666669</ele><time>2026-03-22T17:53:23.943Z</time></trkpt><trkpt lat="53.6728483" lon="-1.932255"><ele>213.33333333333334</ele><time>2026-03-22T17:53:24.943Z</time></trkpt><trkpt lat="53.6729515" lon="-1.9322385"><ele>216.0</ele><time>2026-03-22T17:53:25.943Z</time></trkpt><trkpt lat="53.6730538" lon="-1.932197"><ele>216.20000000000002</ele><time>2026-03-22T17:53:26.945Z</time></trkpt><trkpt lat="53.6731455" lon="-1.9321322"><ele>216.40000000000003</ele><time>2026-03-22T17:53:27.946Z</time></trkpt><trkpt lat="53.6732238" lon="-1.9320411"><ele>216.6</ele><time>2026-03-22T17:53:28.948Z</time></trkpt><trkpt lat="53.6732804" lon="-1.9319232"><ele>216.8</ele><time>2026-03-22T17:53:29.949Z</time></trkpt><trkpt lat="53.6733177" lon="-1.9317838"><ele>217.0</ele><time>2026-03-22T17:53:30.952Z</time></trkpt><trkpt lat="53.6733481" lon="-1.9316287"><ele>218.83333333333331</ele><time>2026-03-22T17:53:31.95Z</time></trkpt><trkpt lat="53.6733836" lon="-1.9314725"><ele>220.66666666666666</ele><time>2026-03-22T17:53:32.951Z</time></trkpt><trkpt lat="53.6734222" lon="-1.9313314"><ele>222.5</ele><time>2026-03-22T17:53:33.95Z</time></trkpt><trkpt lat="53.6734548" lon="-1.9312059"><ele>224.33333333333331</ele><time>2026-03-22T17:53:34.95Z</time></trkpt><trkpt lat="53.6734871" lon="-1.9310823"><ele>226.16666666666666</ele><time>2026-03-22T17:53:36.951Z</time></trkpt><trkpt lat="53.6735251" lon="-1.9309918"><ele>228.0</ele><time>2026-03-22T17:53:40.951Z</time></trkpt><trkpt lat="53.6735055" lon="-1.9308229"><ele>229.0</ele><time>2026-03-22T17:53:42.945Z</time></trkpt><trkpt lat="53.6734748" lon="-1.9306848"><ele>230.0</ele><time>2026-03-22T17:53:43.946Z</time></trkpt><trkpt lat="53.6734295" lon="-1.9305253"><ele>231.0</ele><time>2026-03-22T17:53:44.947Z</time></trkpt><trkpt lat="53.6733768" lon="-1.9303598"><ele>232.0</ele><time>2026-03-22T17:53:45.945Z</time></trkpt><trkpt lat="53.673323" lon="-1.930202"><ele>233.0</ele><time>2026-03-22T17:53:46.947Z</time></trkpt><trkpt lat="53.6732715" lon="-1.9300507"><ele>234.0</ele><time>2026-03-22T17:53:47.953Z</time></trkpt><trkpt lat="53.6732216" lon="-1.9299029"><ele>235.0</ele><time>2026-03-22T17:53:48.951Z</time></trkpt><trkpt lat="53.6731691" lon="-1.9297499"><ele>236.0</ele><time>2026-03-22T17:53:49.947Z</time></trkpt><trkpt lat="53.6731146" lon="-1.9295944"><ele>237.0</ele><time>2026-03-22T17:53:50.947Z</time></trkpt><trkpt lat="53.6730624" lon="-1.9294378"><ele>238.0</ele><time>2026-03-22T17:53:51.949Z</time></trkpt><trkpt lat="53.6730133" lon="-1.9292861"><ele>239.2</ele><time>2026-03-22T17:53:52.944Z</time></trkpt><trkpt lat="53.6729679" lon="-1.9291322"><ele>240.4</ele><time>2026-03-22T17:53:53.946Z</time></trkpt><trkpt lat="53.6729241" lon="-1.9289768"><ele>241.59999999999997</ele><time>2026-03-22T17:53:54.948Z</time></trkpt><trkpt lat="53.672879" lon="-1.9288153"><ele>242.79999999999998</ele><time>2026-03-22T17:53:55.949Z</time></trkpt><trkpt lat="53.6728329" lon="-1.9286514"><ele>244.0</ele><time>2026-03-22T17:53:56.947Z</time></trkpt><trkpt lat="53.6727907" lon="-1.9284888"><ele>245.0</ele><time>2026-03-22T17:53:57.945Z</time></trkpt><trkpt lat="53.6727498" lon="-1.9283269"><ele>246.0</ele><time>2026-03-22T17:53:58.944Z</time></trkpt><trkpt lat="53.6727076" lon="-1.9281556"><ele>247.0</ele><time>2026-03-22T17:53:59.947Z</time></trkpt><trkpt lat="53.6726625" lon="-1.9279665"><ele>248.0</ele><time>2026-03-22T17:54:00.945Z</time></trkpt><trkpt lat="53.6726124" lon="-1.9277539"><ele>249.33333333333334</ele><time>2026-03-22T17:54:01.948Z</time></trkpt><trkpt lat="53.6725542" lon="-1.9275207"><ele>250.66666666666669</ele><time>2026-03-22T17:54:02.948Z</time></trkpt><trkpt lat="53.6724878" lon="-1.9272816"><ele>252.0</ele><time>2026-03-22T17:54:03.951Z</time></trkpt><trkpt lat="53.6724166" lon="-1.9270561"><ele>252.0</ele><time>2026-03-22T17:54:04.949Z</time></trkpt><trkpt lat="53.6723411" lon="-1.9268437"><ele>252.0</ele><time>2026-03-22T17:54:05.94Z</time></trkpt><trkpt lat="53.6722688" lon="-1.9266531"><ele>252.0</ele><time>2026-03-22T17:54:06.942Z</time></trkpt><trkpt lat="53.6722034" lon="-1.9264901"><ele>252.0</ele><time>2026-03-22T17:54:07.949Z</time></trkpt><trkpt lat="53.6721435" lon="-1.92635"><ele>252.5</ele><time>2026-03-22T17:54:08.95Z</time></trkpt><trkpt lat="53.6720887" lon="-1.926221"><ele>253.0</ele><time>2026-03-22T17:54:09.949Z</time></trkpt><trkpt lat="53.672034" lon="-1.92611"><ele>253.5</ele><time>2026-03-22T17:54:10.949Z</time></trkpt><trkpt lat="53.6719791" lon="-1.9260149"><ele>254.0</ele><time>2026-03-22T17:54:11.949Z</time></trkpt><trkpt lat="53.671896" lon="-1.9258868"><ele>254.5</ele><time>2026-03-22T17:54:13.942Z</time></trkpt><trkpt lat="53.6718455" lon="-1.9258127"><ele>255.0</ele><time>2026-03-22T17:54:15.948Z</time></trkpt><trkpt lat="53.671783" lon="-1.9257412"><ele>256.0</ele><time>2026-03-22T17:54:17.948Z</time></trkpt><trkpt lat="53.6716996" lon="-1.9256534"><ele>257.0</ele><time>2026-03-22T17:54:19.942Z</time></trkpt><trkpt lat="53.6716365" lon="-1.9255747"><ele>258.0</ele><time>2026-03-22T17:54:21.953Z</time></trkpt><trkpt lat="53.6715772" lon="-1.9254764"><ele>259.0</ele><time>2026-03-22T17:54:23.951Z</time></trkpt><trkpt lat="53.6714822" lon="-1.925301"><ele>260.0</ele><time>2026-03-22T17:54:25.948Z</time></trkpt><trkpt lat="53.6714233" lon="-1.9252041"><ele>260.0</ele><time>2026-03-22T17:54:26.951Z</time></trkpt><trkpt lat="53.6713619" lon="-1.9251047"><ele>260.0</ele><time>2026-03-22T17:54:27.952Z</time></trkpt><trkpt lat="53.6712946" lon="-1.9249972"><ele>260.0</ele><time>2026-03-22T17:54:28.948Z</time></trkpt><trkpt lat="53.6712271" lon="-1.924885"><ele>260.0</ele><time>2026-03-22T17:54:29.948Z</time></trkpt><trkpt lat="53.6711604" lon="-1.9247744"><ele>260.0</ele><time>2026-03-22T17:54:30.949Z</time></trkpt><trkpt lat="53.6710965" lon="-1.9246613"><ele>260.1666666666667</ele><time>2026-03-22T17:54:31.952Z</time></trkpt><trkpt lat="53.6710422" lon="-1.9245479"><ele>260.33333333333337</ele><time>2026-03-22T17:54:32.95Z</time></trkpt><trkpt lat="53.670997" lon="-1.924444"><ele>260.5</ele><time>2026-03-22T17:54:33.952Z</time></trkpt><trkpt lat="53.6709379" lon="-1.924261"><ele>260.6666666666667</ele><time>2026-03-22T17:54:35.951Z</time></trkpt><trkpt lat="53.6709027" lon="-1.9241617"><ele>260.8333333333333</ele><time>2026-03-22T17:54:36.954Z</time></trkpt><trkpt lat="53.6708607" lon="-1.9240408"><ele>261.0</ele><time>2026-03-22T17:54:37.952Z</time></trkpt><trkpt lat="53.6708152" lon="-1.9238934"><ele>261.0</ele><time>2026-03-22T17:54:38.952Z</time></trkpt><trkpt lat="53.670776" lon="-1.9237113"><ele>261.0</ele><time>2026-03-22T17:54:39.95Z</time></trkpt><trkpt lat="53.6707472" lon="-1.9235296"><ele>261.0</ele><time>2026-03-22T17:54:40.95Z</time></trkpt><trkpt lat="53.6707348" lon="-1.923337"><ele>261.0</ele><time>2026-03-22T17:54:41.946Z</time></trkpt><trkpt lat="53.6707268" lon="-1.9231421"><ele>260.75</ele><time>2026-03-22T17:54:42.948Z</time></trkpt><trkpt lat="53.6707239" lon="-1.9229335"><ele>260.5</ele><time>2026-03-22T17:54:43.95Z</time></trkpt><trkpt lat="53.6707259" lon="-1.9227094"><ele>260.25</ele><time>2026-03-22T17:54:44.948Z</time></trkpt><trkpt lat="53.670729" lon="-1.9224869"><ele>260.0</ele><time>2026-03-22T17:54:45.948Z</time></trkpt><trkpt lat="53.6707286" lon="-1.922274"><ele>260.0</ele><time>2026-03-22T17:54:46.947Z</time></trkpt><trkpt lat="53.6707253" lon="-1.9220772"><ele>260.0</ele><time>2026-03-22T17:54:47.946Z</time></trkpt><trkpt lat="53.6707218" lon="-1.9219002"><ele>260.0</ele><time>2026-03-22T17:54:48.951Z</time></trkpt><trkpt lat="53.6707167" lon="-1.9217365"><ele>260.0</ele><time>2026-03-22T17:54:49.948Z</time></trkpt><trkpt lat="53.6707088" lon="-1.9215806"><ele>260.0</ele><time>2026-03-22T17:54:50.947Z</time></trkpt><trkpt lat="53.6707054" lon="-1.9214206"><ele>260.0</ele><time>2026-03-22T17:54:51.944Z</time></trkpt><trkpt lat="53.670705" lon="-1.9212476"><ele>260.0</ele><time>2026-03-22T17:54:52.944Z</time></trkpt><trkpt lat="53.670702" lon="-1.9210674"><ele>260.0</ele><time>2026-03-22T17:54:53.945Z</time></trkpt><trkpt lat="53.6706951" lon="-1.9208928"><ele>260.0</ele><time>2026-03-22T17:54:54.947Z</time></trkpt><trkpt lat="53.6706853" lon="-1.9207361"><ele>260.0</ele><time>2026-03-22T17:54:55.951Z</time></trkpt><trkpt lat="53.6706715" lon="-1.9205933"><ele>260.0</ele><time>2026-03-22T17:54:56.949Z</time></trkpt><trkpt lat="53.6706561" lon="-1.9204391"><ele>260.0</ele><time>2026-03-22T17:54:57.947Z</time></trkpt><trkpt lat="53.6706301" lon="-1.9202606"><ele>260.0</ele><time>2026-03-22T17:54:58.941Z</time></trkpt><trkpt lat="53.6706088" lon="-1.9200688"><ele>260.0</ele><time>2026-03-22T17:54:59.94Z</time></trkpt><trkpt lat="53.6705871" lon="-1.9198674"><ele>260.0</ele><time>2026-03-22T17:55:00.946Z</time></trkpt><trkpt lat="53.6705587" lon="-1.9196669"><ele>259.75</ele><time>2026-03-22T17:55:01.936Z</time></trkpt><trkpt lat="53.670525" lon="-1.9194724"><ele>259.5</ele><time>2026-03-22T17:55:02.944Z</time></trkpt><trkpt lat="53.6704845" lon="-1.9192842"><ele>259.25</ele><time>2026-03-22T17:55:03.945Z</time></trkpt><trkpt lat="53.6704356" lon="-1.9191036"><ele>259.0</ele><time>2026-03-22T17:55:04.955Z</time></trkpt><trkpt lat="53.6703759" lon="-1.9189244"><ele>259.0</ele><time>2026-03-22T17:55:05.956Z</time></trkpt><trkpt lat="53.6703078" lon="-1.9187371"><ele>259.0</ele><time>2026-03-22T17:55:06.956Z</time></trkpt><trkpt lat="53.6702359" lon="-1.9185495"><ele>259.0</ele><time>2026-03-22T17:55:07.953Z</time></trkpt><trkpt lat="53.6701647" lon="-1.9183781"><ele>259.0</ele><time>2026-03-22T17:55:08.942Z</time></trkpt><trkpt lat="53.6701035" lon="-1.9182352"><ele>260.8333333333333</ele><time>2026-03-22T17:55:09.952Z</time></trkpt><trkpt lat="53.6700525" lon="-1.9181213"><ele>262.66666666666663</ele><time>2026-03-22T17:55:10.953Z</time></trkpt><trkpt lat="53.6700078" lon="-1.9180172"><ele>264.5</ele><time>2026-03-22T17:55:11.948Z</time></trkpt><trkpt lat="53.6699598" lon="-1.9179132"><ele>266.3333333333333</ele><time>2026-03-22T17:55:12.95Z</time></trkpt><trkpt lat="53.669908" lon="-1.9178075"><ele>268.1666666666667</ele><time>2026-03-22T17:55:13.953Z</time></trkpt><trkpt lat="53.6698553" lon="-1.9176984"><ele>270.0</ele><time>2026-03-22T17:55:14.955Z</time></trkpt><trkpt lat="53.669805" lon="-1.9175794"><ele>269.5</ele><time>2026-03-22T17:55:15.951Z</time></trkpt><trkpt lat="53.6697585" lon="-1.917446"><ele>269.0</ele><time>2026-03-22T17:55:16.951Z</time></trkpt><trkpt lat="53.6697174" lon="-1.9173034"><ele>268.5</ele><time>2026-03-22T17:55:17.953Z</time></trkpt><trkpt lat="53.6696837" lon="-1.9171684"><ele>268.0</ele><time>2026-03-22T17:55:18.949Z</time></trkpt><trkpt lat="53.6696529" lon="-1.9170418"><ele>267.5</ele><time>2026-03-22T17:55:19.956Z</time></trkpt><trkpt lat="53.6696236" lon="-1.9169269"><ele>267.0</ele><time>2026-03-22T17:55:20.955Z</time></trkpt><trkpt lat="53.6695978" lon="-1.9168221"><ele>266.8</ele><time>2026-03-22T17:55:21.955Z</time></trkpt><trkpt lat="53.6695704" lon="-1.9167226"><ele>266.6</ele><time>2026-03-22T17:55:22.955Z</time></trkpt><trkpt lat="53.6695153" lon="-1.9165397"><ele>266.40000000000003</ele><time>2026-03-22T17:55:24.954Z</time></trkpt><trkpt lat="53.6694792" lon="-1.9164439"><ele>266.2</ele><time>2026-03-22T17:55:25.955Z</time></trkpt><trkpt lat="53.6694122" lon="-1.9162891"><ele>266.0</ele><time>2026-03-22T17:55:27.954Z</time></trkpt><trkpt lat="53.6693346" lon="-1.9161676"><ele>266.0</ele><time>2026-03-22T17:55:29.952Z</time></trkpt><trkpt lat="53.6692633" lon="-1.916118"><ele>266.0</ele><time>2026-03-22T17:55:30.946Z</time></trkpt><trkpt lat="53.6691619" lon="-1.9160548"><ele>266.0</ele><time>2026-03-22T17:55:31.957Z</time></trkpt><trkpt lat="53.6690461" lon="-1.9159825"><ele>266.0</ele><time>2026-03-22T17:55:32.952Z</time></trkpt><trkpt lat="53.668926" lon="-1.9159035"><ele>266.0</ele><time>2026-03-22T17:55:33.949Z</time></trkpt><trkpt lat="53.668804" lon="-1.9158068"><ele>265.0</ele><time>2026-03-22T17:55:34.95Z</time></trkpt><trkpt lat="53.6686881" lon="-1.9157092"><ele>264.0</ele><time>2026-03-22T17:55:35.951Z</time></trkpt><trkpt lat="53.6685805" lon="-1.915618"><ele>263.0</ele><time>2026-03-22T17:55:36.953Z</time></trkpt><trkpt lat="53.6684744" lon="-1.91553"><ele>262.0</ele><time>2026-03-22T17:55:37.952Z</time></trkpt><trkpt lat="53.6683706" lon="-1.9154426"><ele>262.6</ele><time>2026-03-22T17:55:38.952Z</time></trkpt><trkpt lat="53.6682739" lon="-1.915363"><ele>263.2</ele><time>2026-03-22T17:55:39.943Z</time></trkpt><trkpt lat="53.6681885" lon="-1.9152905"><ele>263.8</ele><time>2026-03-22T17:55:40.946Z</time></trkpt><trkpt lat="53.6681109" lon="-1.9152151"><ele>264.4</ele><time>2026-03-22T17:55:41.948Z</time></trkpt><trkpt lat="53.6680376" lon="-1.9151289"><ele>265.0</ele><time>2026-03-22T17:55:42.949Z</time></trkpt><trkpt lat="53.6679644" lon="-1.9150284"><ele>265.0</ele><time>2026-03-22T17:55:43.949Z</time></trkpt><trkpt lat="53.6678932" lon="-1.9149144"><ele>265.0</ele><time>2026-03-22T17:55:44.949Z</time></trkpt><trkpt lat="53.6678224" lon="-1.9147845"><ele>265.0</ele><time>2026-03-22T17:55:45.947Z</time></trkpt><trkpt lat="53.6677497" lon="-1.9146467"><ele>265.0</ele><time>2026-03-22T17:55:46.948Z</time></trkpt><trkpt lat="53.6676667" lon="-1.9145142"><ele>265.0</ele><time>2026-03-22T17:55:47.946Z</time></trkpt><trkpt lat="53.6675736" lon="-1.9143884"><ele>264.6</ele><time>2026-03-22T17:55:48.948Z</time></trkpt><trkpt lat="53.6674766" lon="-1.9142779"><ele>264.2</ele><time>2026-03-22T17:55:49.946Z</time></trkpt><trkpt lat="53.6673824" lon="-1.9141841"><ele>263.8</ele><time>2026-03-22T17:55:50.946Z</time></trkpt><trkpt lat="53.6672947" lon="-1.9141081"><ele>263.4</ele><time>2026-03-22T17:55:51.947Z</time></trkpt><trkpt lat="53.66721" lon="-1.9140373"><ele>263.0</ele><time>2026-03-22T17:55:52.948Z</time></trkpt><trkpt lat="53.6671226" lon="-1.9139687"><ele>263.0</ele><time>2026-03-22T17:55:53.948Z</time></trkpt><trkpt lat="53.6670331" lon="-1.9138973"><ele>263.0</ele><time>2026-03-22T17:55:54.947Z</time></trkpt><trkpt lat="53.6669436" lon="-1.9138152"><ele>263.0</ele><time>2026-03-22T17:55:55.94Z</time></trkpt><trkpt lat="53.6668544" lon="-1.9137353"><ele>263.0</ele><time>2026-03-22T17:55:56.948Z</time></trkpt><trkpt lat="53.6667682" lon="-1.9136667"><ele>263.0</ele><time>2026-03-22T17:55:57.947Z</time></trkpt><trkpt lat="53.6666687" lon="-1.9136019"><ele>263.5</ele><time>2026-03-22T17:55:58.939Z</time></trkpt><trkpt lat="53.6665568" lon="-1.9135511"><ele>264.0</ele><time>2026-03-22T17:55:59.946Z</time></trkpt><trkpt lat="53.6664383" lon="-1.9135166"><ele>264.5</ele><time>2026-03-22T17:56:00.948Z</time></trkpt><trkpt lat="53.6663222" lon="-1.9134882"><ele>265.0</ele><time>2026-03-22T17:56:01.951Z</time></trkpt><trkpt lat="53.666215" lon="-1.9134612"><ele>265.0</ele><time>2026-03-22T17:56:02.949Z</time></trkpt><trkpt lat="53.6661136" lon="-1.9134332"><ele>265.0</ele><time>2026-03-22T17:56:03.95Z</time></trkpt><trkpt lat="53.6660177" lon="-1.9133988"><ele>265.0</ele><time>2026-03-22T17:56:04.951Z</time></trkpt><trkpt lat="53.6659264" lon="-1.9133586"><ele>265.0</ele><time>2026-03-22T17:56:05.951Z</time></trkpt><trkpt lat="53.6658399" lon="-1.9133154"><ele>265.0</ele><time>2026-03-22T17:56:06.95Z</time></trkpt><trkpt lat="53.6657578" lon="-1.9132793"><ele>263.0</ele><time>2026-03-22T17:56:07.949Z</time></trkpt><trkpt lat="53.665676" lon="-1.9132485"><ele>261.0</ele><time>2026-03-22T17:56:08.951Z</time></trkpt><trkpt lat="53.6655942" lon="-1.9132223"><ele>259.0</ele><time>2026-03-22T17:56:09.95Z</time></trkpt><trkpt lat="53.6655099" lon="-1.9132053"><ele>257.0</ele><time>2026-03-22T17:56:10.952Z</time></trkpt><trkpt lat="53.6654218" lon="-1.9132116"><ele>254.99999999999997</ele><time>2026-03-22T17:56:11.946Z</time></trkpt><trkpt lat="53.6653315" lon="-1.9132543"><ele>253.0</ele><time>2026-03-22T17:56:12.945Z</time></trkpt><trkpt lat="53.6652452" lon="-1.9133318"><ele>253.0</ele><time>2026-03-22T17:56:13.949Z</time></trkpt><trkpt lat="53.6651724" lon="-1.9134274"><ele>253.0</ele><time>2026-03-22T17:56:14.945Z</time></trkpt><trkpt lat="53.665108" lon="-1.9134874"><ele>253.0</ele><time>2026-03-22T17:56:15.945Z</time></trkpt><trkpt lat="53.6649928" lon="-1.913412"><ele>253.0</ele><time>2026-03-22T17:56:17.945Z</time></trkpt><trkpt lat="53.6649468" lon="-1.9132945"><ele>253.0</ele><time>2026-03-22T17:56:18.945Z</time></trkpt><trkpt lat="53.6649248" lon="-1.9131276"><ele>253.0</ele><time>2026-03-22T17:56:19.942Z</time></trkpt><trkpt lat="53.6649295" lon="-1.9129121"><ele>253.0</ele><time>2026-03-22T17:56:20.945Z</time></trkpt><trkpt lat="53.6649562" lon="-1.9126737"><ele>253.0</ele><time>2026-03-22T17:56:21.943Z</time></trkpt><trkpt lat="53.6649818" lon="-1.912442"><ele>253.0</ele><time>2026-03-22T17:56:22.945Z</time></trkpt><trkpt lat="53.6649965" lon="-1.9122227"><ele>252.2</ele><time>2026-03-22T17:56:23.946Z</time></trkpt><trkpt lat="53.6649863" lon="-1.9120327"><ele>251.4</ele><time>2026-03-22T17:56:24.947Z</time></trkpt><trkpt lat="53.6649512" lon="-1.9118754"><ele>250.59999999999997</ele><time>2026-03-22T17:56:25.946Z</time></trkpt><trkpt lat="53.6649064" lon="-1.9117365"><ele>249.79999999999998</ele><time>2026-03-22T17:56:26.94Z</time></trkpt><trkpt lat="53.6648644" lon="-1.9116083"><ele>249.0</ele><time>2026-03-22T17:56:27.944Z</time></trkpt><trkpt lat="53.6648248" lon="-1.9114818"><ele>248.0</ele><time>2026-03-22T17:56:28.94Z</time></trkpt><trkpt lat="53.6647879" lon="-1.911364"><ele>247.0</ele><time>2026-03-22T17:56:29.946Z</time></trkpt><trkpt lat="53.6647558" lon="-1.9112531"><ele>246.0</ele><time>2026-03-22T17:56:30.946Z</time></trkpt><trkpt lat="53.6647169" lon="-1.9111521"><ele>245.0</ele><time>2026-03-22T17:56:31.95Z</time></trkpt><trkpt lat="53.6646621" lon="-1.9110657"><ele>244.0</ele><time>2026-03-22T17:56:32.949Z</time></trkpt><trkpt lat="53.6645889" lon="-1.9110096"><ele>243.0</ele><time>2026-03-22T17:56:33.949Z</time></trkpt><trkpt lat="53.664498" lon="-1.9109849"><ele>245.2</ele><time>2026-03-22T17:56:34.951Z</time></trkpt><trkpt lat="53.6644021" lon="-1.9109742"><ele>247.4</ele><time>2026-03-22T17:56:35.951Z</time></trkpt><trkpt lat="53.6642951" lon="-1.910977"><ele>249.59999999999997</ele><time>2026-03-22T17:56:36.95Z</time></trkpt><trkpt lat="53.6641745" lon="-1.9109901"><ele>251.79999999999998</ele><time>2026-03-22T17:56:37.952Z</time></trkpt><trkpt lat="53.6640509" lon="-1.9110032"><ele>254.0</ele><time>2026-03-22T17:56:38.944Z</time></trkpt><trkpt lat="53.6639384" lon="-1.911014"><ele>254.00000000000003</ele><time>2026-03-22T17:56:39.95Z</time></trkpt><trkpt lat="53.6638397" lon="-1.911021"><ele>254.0</ele><time>2026-03-22T17:56:40.951Z</time></trkpt><trkpt lat="53.6637492" lon="-1.911028"><ele>254.0</ele><time>2026-03-22T17:56:41.946Z</time></trkpt><trkpt lat="53.6636644" lon="-1.9110321"><ele>254.0</ele><time>2026-03-22T17:56:42.948Z</time></trkpt><trkpt lat="53.6635847" lon="-1.9110237"><ele>254.00000000000003</ele><time>2026-03-22T17:56:43.943Z</time></trkpt><trkpt lat="53.6635114" lon="-1.9109942"><ele>254.0</ele><time>2026-03-22T17:56:44.945Z</time></trkpt><trkpt lat="53.6634388" lon="-1.9109361"><ele>250.39999999999998</ele><time>2026-03-22T17:56:45.947Z</time></trkpt><trkpt lat="53.6633625" lon="-1.910856"><ele>246.79999999999998</ele><time>2026-03-22T17:56:46.946Z</time></trkpt><trkpt lat="53.6632861" lon="-1.9107654"><ele>243.20000000000002</ele><time>2026-03-22T17:56:47.946Z</time></trkpt><trkpt lat="53.6632147" lon="-1.9106542"><ele>239.60000000000002</ele><time>2026-03-22T17:56:48.948Z</time></trkpt><trkpt lat="53.6631517" lon="-1.9105458"><ele>236.0</ele><time>2026-03-22T17:56:49.95Z</time></trkpt><trkpt lat="53.6630999" lon="-1.9104401"><ele>236.00000000000003</ele><time>2026-03-22T17:56:50.949Z</time></trkpt><trkpt lat="53.6630489" lon="-1.9103346"><ele>236.0</ele><time>2026-03-22T17:56:51.947Z</time></trkpt><trkpt lat="53.6629929" lon="-1.9102454"><ele>236.0</ele><time>2026-03-22T17:56:52.947Z</time></trkpt><trkpt lat="53.6629268" lon="-1.9101785"><ele>236.0</ele><time>2026-03-22T17:56:53.946Z</time></trkpt><trkpt lat="53.6628502" lon="-1.9101342"><ele>236.00000000000003</ele><time>2026-03-22T17:56:54.944Z</time></trkpt><trkpt lat="53.6627598" lon="-1.9101078"><ele>236.0</ele><time>2026-03-22T17:56:55.945Z</time></trkpt><trkpt lat="53.6626571" lon="-1.9100944"><ele>233.25</ele><time>2026-03-22T17:56:56.944Z</time></trkpt><trkpt lat="53.6625444" lon="-1.9100809"><ele>230.5</ele><time>2026-03-22T17:56:57.945Z</time></trkpt><trkpt lat="53.6624283" lon="-1.9100696"><ele>227.75</ele><time>2026-03-22T17:56:58.945Z</time></trkpt><trkpt lat="53.6623137" lon="-1.9100561"><ele>225.0</ele><time>2026-03-22T17:56:59.947Z</time></trkpt><trkpt lat="53.6622052" lon="-1.9100392"><ele>223.0</ele><time>2026-03-22T17:57:00.949Z</time></trkpt><trkpt lat="53.662103" lon="-1.9100249"><ele>221.0</ele><time>2026-03-22T17:57:01.947Z</time></trkpt><trkpt lat="53.6620036" lon="-1.9100154"><ele>219.0</ele><time>2026-03-22T17:57:02.949Z</time></trkpt><trkpt lat="53.6619089" lon="-1.9100068"><ele>217.0</ele><time>2026-03-22T17:57:03.954Z</time></trkpt><trkpt lat="53.6618184" lon="-1.9099946"><ele>215.0</ele><time>2026-03-22T17:57:04.949Z</time></trkpt><trkpt lat="53.6617369" lon="-1.9099822"><ele>213.2</ele><time>2026-03-22T17:57:05.951Z</time></trkpt><trkpt lat="53.6616673" lon="-1.9099632"><ele>211.4</ele><time>2026-03-22T17:57:06.952Z</time></trkpt><trkpt lat="53.6615716" lon="-1.9098579"><ele>209.60000000000002</ele><time>2026-03-22T17:57:08.952Z</time></trkpt><trkpt lat="53.6615606" lon="-1.9096148"><ele>207.8</ele><time>2026-03-22T17:57:10.948Z</time></trkpt><trkpt lat="53.6615974" lon="-1.9094366"><ele>206.0</ele><time>2026-03-22T17:57:11.946Z</time></trkpt><trkpt lat="53.6616409" lon="-1.9092585"><ele>203.75</ele><time>2026-03-22T17:57:12.946Z</time></trkpt><trkpt lat="53.6616746" lon="-1.9090773"><ele>201.5</ele><time>2026-03-22T17:57:13.946Z</time></trkpt><trkpt lat="53.6617025" lon="-1.9088884"><ele>199.25</ele><time>2026-03-22T17:57:14.944Z</time></trkpt><trkpt lat="53.6617199" lon="-1.9086916"><ele>197.0</ele><time>2026-03-22T17:57:15.944Z</time></trkpt><trkpt lat="53.661732" lon="-1.9085005"><ele>195.2</ele><time>2026-03-22T17:57:16.944Z</time></trkpt><trkpt lat="53.6617382" lon="-1.9083208"><ele>193.39999999999998</ele><time>2026-03-22T17:57:17.943Z</time></trkpt><trkpt lat="53.6617353" lon="-1.9081527"><ele>191.60000000000002</ele><time>2026-03-22T17:57:18.944Z</time></trkpt><trkpt lat="53.6617165" lon="-1.9079996"><ele>189.8</ele><time>2026-03-22T17:57:19.942Z</time></trkpt><trkpt lat="53.6616768" lon="-1.9078565"><ele>188.0</ele><time>2026-03-22T17:57:20.942Z</time></trkpt><trkpt lat="53.6616368" lon="-1.9077124"><ele>186.66666666666666</ele><time>2026-03-22T17:57:21.944Z</time></trkpt><trkpt lat="53.6615997" lon="-1.9075656"><ele>185.33333333333331</ele><time>2026-03-22T17:57:22.942Z</time></trkpt><trkpt lat="53.6615641" lon="-1.9074307"><ele>184.0</ele><time>2026-03-22T17:57:23.943Z</time></trkpt><trkpt lat="53.6615378" lon="-1.9073102"><ele>182.66666666666666</ele><time>2026-03-22T17:57:24.943Z</time></trkpt><trkpt lat="53.6615231" lon="-1.9072016"><ele>181.33333333333334</ele><time>2026-03-22T17:57:25.943Z</time></trkpt><trkpt lat="53.6615727" lon="-1.9070496"><ele>180.0</ele><time>2026-03-22T17:57:27.949Z</time></trkpt><trkpt lat="53.6616887" lon="-1.9069513"><ele>180.0</ele><time>2026-03-22T17:57:29.947Z</time></trkpt><trkpt lat="53.6617509" lon="-1.9069105"><ele>180.0</ele><time>2026-03-22T17:57:30.947Z</time></trkpt><trkpt lat="53.6618259" lon="-1.9068229"><ele>180.0</ele><time>2026-03-22T17:57:32.954Z</time></trkpt><trkpt lat="53.6618267" lon="-1.9066801"><ele>180.0</ele><time>2026-03-22T17:57:34.951Z</time></trkpt><trkpt lat="53.6617341" lon="-1.906537"><ele>180.0</ele><time>2026-03-22T17:57:36.952Z</time></trkpt><trkpt lat="53.6616591" lon="-1.9064865"><ele>180.0</ele><time>2026-03-22T17:57:37.954Z</time></trkpt><trkpt lat="53.6615761" lon="-1.906457"><ele>177.8</ele><time>2026-03-22T17:57:38.953Z</time></trkpt><trkpt lat="53.661498" lon="-1.906447"><ele>175.6</ele><time>2026-03-22T17:57:39.952Z</time></trkpt><trkpt lat="53.6614307" lon="-1.9064547"><ele>173.39999999999998</ele><time>2026-03-22T17:57:40.951Z</time></trkpt><trkpt lat="53.6613231" lon="-1.9064638"><ele>171.2</ele><time>2026-03-22T17:57:42.951Z</time></trkpt><trkpt lat="53.6612405" lon="-1.906407"><ele>169.0</ele><time>2026-03-22T17:57:44.945Z</time></trkpt><trkpt lat="53.6612089" lon="-1.9062002"><ele>169.0</ele><time>2026-03-22T17:57:46.945Z</time></trkpt><trkpt lat="53.6612103" lon="-1.9060338"><ele>169.0</ele><time>2026-03-22T17:57:47.943Z</time></trkpt><trkpt lat="53.6612145" lon="-1.905837"><ele>169.0</ele><time>2026-03-22T17:57:48.948Z</time></trkpt><trkpt lat="53.6612192" lon="-1.9056142"><ele>169.0</ele><time>2026-03-22T17:57:49.942Z</time></trkpt><trkpt lat="53.6612167" lon="-1.9053961"><ele>166.25</ele><time>2026-03-22T17:57:50.941Z</time></trkpt><trkpt lat="53.661209" lon="-1.9051767"><ele>163.5</ele><time>2026-03-22T17:57:51.942Z</time></trkpt><trkpt lat="53.6612051" lon="-1.9049676"><ele>160.75</ele><time>2026-03-22T17:57:52.943Z</time></trkpt><trkpt lat="53.6612145" lon="-1.9047717"><ele>158.0</ele><time>2026-03-22T17:57:53.942Z</time></trkpt><trkpt lat="53.661248" lon="-1.9045812"><ele>157.0</ele><time>2026-03-22T17:57:54.944Z</time></trkpt><trkpt lat="53.6612866" lon="-1.9043866"><ele>156.0</ele><time>2026-03-22T17:57:55.943Z</time></trkpt><trkpt lat="53.6613254" lon="-1.9042051"><ele>155.0</ele><time>2026-03-22T17:57:56.946Z</time></trkpt><trkpt lat="53.6613674" lon="-1.9040181"><ele>154.0</ele><time>2026-03-22T17:57:57.948Z</time></trkpt><trkpt lat="53.6614108" lon="-1.9038234"><ele>154.0</ele><time>2026-03-22T17:57:58.95Z</time></trkpt><trkpt lat="53.661448" lon="-1.9036024"><ele>154.0</ele><time>2026-03-22T17:57:59.948Z</time></trkpt><trkpt lat="53.6614789" lon="-1.9033698"><ele>154.0</ele><time>2026-03-22T17:58:00.947Z</time></trkpt><trkpt lat="53.6615072" lon="-1.9031126"><ele>154.0</ele><time>2026-03-22T17:58:01.947Z</time></trkpt><trkpt lat="53.6615414" lon="-1.9028435"><ele>159.0</ele><time>2026-03-22T17:58:02.943Z</time></trkpt><trkpt lat="53.6615815" lon="-1.9025533"><ele>164.0</ele><time>2026-03-22T17:58:03.949Z</time></trkpt><trkpt lat="53.6616303" lon="-1.9022381"><ele>169.0</ele><time>2026-03-22T17:58:04.947Z</time></trkpt><trkpt lat="53.6616925" lon="-1.9019207"><ele>172.0</ele><time>2026-03-22T17:58:05.949Z</time></trkpt><trkpt lat="53.6617598" lon="-1.9016009"><ele>175.0</ele><time>2026-03-22T17:58:06.945Z</time></trkpt><trkpt lat="53.6618287" lon="-1.9012762"><ele>178.0</ele><time>2026-03-22T17:58:07.945Z</time></trkpt><trkpt lat="53.6619056" lon="-1.9009603"><ele>177.33333333333334</ele><time>2026-03-22T17:58:08.948Z</time></trkpt><trkpt lat="53.6619802" lon="-1.9006633"><ele>176.66666666666666</ele><time>2026-03-22T17:58:09.947Z</time></trkpt><trkpt lat="53.662049" lon="-1.900404"><ele>176.0</ele><time>2026-03-22T17:58:10.946Z</time></trkpt><trkpt lat="53.6621179" lon="-1.900204"><ele>178.8</ele><time>2026-03-22T17:58:11.944Z</time></trkpt><trkpt lat="53.6621712" lon="-1.9000511"><ele>181.60000000000002</ele><time>2026-03-22T17:58:12.945Z</time></trkpt><trkpt lat="53.6622144" lon="-1.8999108"><ele>184.4</ele><time>2026-03-22T17:58:13.948Z</time></trkpt><trkpt lat="53.6622601" lon="-1.8997645"><ele>187.2</ele><time>2026-03-22T17:58:14.95Z</time></trkpt><trkpt lat="53.6622927" lon="-1.8996001"><ele>190.0</ele><time>2026-03-22T17:58:15.944Z</time></trkpt><trkpt lat="53.6623196" lon="-1.8994072"><ele>192.75</ele><time>2026-03-22T17:58:16.947Z</time></trkpt><trkpt lat="53.6623311" lon="-1.8991865"><ele>195.5</ele><time>2026-03-22T17:58:17.945Z</time></trkpt><trkpt lat="53.6623456" lon="-1.8989576"><ele>198.25</ele><time>2026-03-22T17:58:18.945Z</time></trkpt><trkpt lat="53.662355" lon="-1.8986823"><ele>201.0</ele><time>2026-03-22T17:58:19.943Z</time></trkpt><trkpt lat="53.6623534" lon="-1.8983837"><ele>203.33333333333331</ele><time>2026-03-22T17:58:20.943Z</time></trkpt><trkpt lat="53.6623457" lon="-1.8980494"><ele>205.66666666666666</ele><time>2026-03-22T17:58:21.945Z</time></trkpt><trkpt lat="53.6623407" lon="-1.8976927"><ele>208.0</ele><time>2026-03-22T17:58:22.944Z</time></trkpt><trkpt lat="53.6623258" lon="-1.8973654"><ele>210.0</ele><time>2026-03-22T17:58:23.945Z</time></trkpt><trkpt lat="53.6623088" lon="-1.8970607"><ele>212.0</ele><time>2026-03-22T17:58:24.946Z</time></trkpt><trkpt lat="53.6622962" lon="-1.8968016"><ele>214.0</ele><time>2026-03-22T17:58:25.946Z</time></trkpt><trkpt lat="53.6622965" lon="-1.8965753"><ele>215.25</ele><time>2026-03-22T17:58:26.947Z</time></trkpt><trkpt lat="53.6622893" lon="-1.8963579"><ele>216.5</ele><time>2026-03-22T17:58:27.946Z</time></trkpt><trkpt lat="53.6622782" lon="-1.8961524"><ele>217.75</ele><time>2026-03-22T17:58:28.947Z</time></trkpt><trkpt lat="53.6622704" lon="-1.8959559"><ele>219.0</ele><time>2026-03-22T17:58:29.947Z</time></trkpt><trkpt lat="53.662261" lon="-1.8957704"><ele>220.2</ele><time>2026-03-22T17:58:30.946Z</time></trkpt><trkpt lat="53.66225" lon="-1.895581"><ele>221.39999999999998</ele><time>2026-03-22T17:58:31.949Z</time></trkpt><trkpt lat="53.6622324" lon="-1.895397"><ele>222.6</ele><time>2026-03-22T17:58:32.948Z</time></trkpt><trkpt lat="53.6622171" lon="-1.8952037"><ele>223.8</ele><time>2026-03-22T17:58:33.947Z</time></trkpt><trkpt lat="53.6622133" lon="-1.8950225"><ele>225.0</ele><time>2026-03-22T17:58:34.948Z</time></trkpt><trkpt lat="53.6622177" lon="-1.8948446"><ele>226.0</ele><time>2026-03-22T17:58:35.949Z</time></trkpt><trkpt lat="53.6622313" lon="-1.8946676"><ele>227.0</ele><time>2026-03-22T17:58:36.943Z</time></trkpt><trkpt lat="53.6622509" lon="-1.894493"><ele>228.0</ele><time>2026-03-22T17:58:37.948Z</time></trkpt><trkpt lat="53.6622684" lon="-1.8943154"><ele>229.0</ele><time>2026-03-22T17:58:38.951Z</time></trkpt><trkpt lat="53.6622833" lon="-1.8941333"><ele>230.0</ele><time>2026-03-22T17:58:39.95Z</time></trkpt><trkpt lat="53.6622991" lon="-1.8939577"><ele>231.8</ele><time>2026-03-22T17:58:40.95Z</time></trkpt><trkpt lat="53.6623165" lon="-1.8937891"><ele>233.6</ele><time>2026-03-22T17:58:41.945Z</time></trkpt><trkpt lat="53.6623352" lon="-1.8936372"><ele>235.39999999999998</ele><time>2026-03-22T17:58:42.945Z</time></trkpt><trkpt lat="53.6623496" lon="-1.8935176"><ele>237.2</ele><time>2026-03-22T17:58:43.943Z</time></trkpt><trkpt lat="53.6623659" lon="-1.8933215"><ele>239.0</ele><time>2026-03-22T17:58:45.945Z</time></trkpt><trkpt lat="53.6623557" lon="-1.8931814"><ele>239.0</ele><time>2026-03-22T17:58:47.945Z</time></trkpt><trkpt lat="53.6622962" lon="-1.8931003"><ele>238.99999999999997</ele><time>2026-03-22T17:58:49.95Z</time></trkpt><trkpt lat="53.6622242" lon="-1.8932087"><ele>238.99999999999997</ele><time>2026-03-22T17:58:51.943Z</time></trkpt><trkpt lat="53.6621873" lon="-1.8933608"><ele>239.0</ele><time>2026-03-22T17:58:52.945Z</time></trkpt><trkpt lat="53.6621352" lon="-1.8935488"><ele>239.0</ele><time>2026-03-22T17:58:53.945Z</time></trkpt><trkpt lat="53.6620667" lon="-1.8937636"><ele>239.0</ele><time>2026-03-22T17:58:54.948Z</time></trkpt><trkpt lat="53.661987" lon="-1.8939944"><ele>239.0</ele><time>2026-03-22T17:58:55.95Z</time></trkpt><trkpt lat="53.6619053" lon="-1.8942117"><ele>239.0</ele><time>2026-03-22T17:58:56.945Z</time></trkpt><trkpt lat="53.6618201" lon="-1.8944339"><ele>239.5</ele><time>2026-03-22T17:58:57.946Z</time></trkpt><trkpt lat="53.6617436" lon="-1.8946285"><ele>240.0</ele><time>2026-03-22T17:58:58.95Z</time></trkpt><trkpt lat="53.6616602" lon="-1.8948075"><ele>240.5</ele><time>2026-03-22T17:58:59.949Z</time></trkpt><trkpt lat="53.6615727" lon="-1.8949696"><ele>241.0</ele><time>2026-03-22T17:59:00.949Z</time></trkpt><trkpt lat="53.6614822" lon="-1.8951222"><ele>241.0</ele><time>2026-03-22T17:59:01.952Z</time></trkpt><trkpt lat="53.6613816" lon="-1.8952741"><ele>241.0</ele><time>2026-03-22T17:59:02.952Z</time></trkpt><trkpt lat="53.6612684" lon="-1.8954376"><ele>241.0</ele><time>2026-03-22T17:59:03.952Z</time></trkpt><trkpt lat="53.6611419" lon="-1.895618"><ele>243.66666666666666</ele><time>2026-03-22T17:59:04.951Z</time></trkpt><trkpt lat="53.6610009" lon="-1.8958137"><ele>246.33333333333331</ele><time>2026-03-22T17:59:05.952Z</time></trkpt><trkpt lat="53.6608495" lon="-1.896025"><ele>249.0</ele><time>2026-03-22T17:59:06.952Z</time></trkpt><trkpt lat="53.6606931" lon="-1.8962428"><ele>249.0</ele><time>2026-03-22T17:59:07.95Z</time></trkpt><trkpt lat="53.6605357" lon="-1.8964549"><ele>249.0</ele><time>2026-03-22T17:59:08.948Z</time></trkpt><trkpt lat="53.66038" lon="-1.8966639"><ele>249.0</ele><time>2026-03-22T17:59:09.95Z</time></trkpt><trkpt lat="53.6602302" lon="-1.8968641"><ele>251.33333333333331</ele><time>2026-03-22T17:59:10.947Z</time></trkpt><trkpt lat="53.6600906" lon="-1.8970626"><ele>253.66666666666666</ele><time>2026-03-22T17:59:11.945Z</time></trkpt><trkpt lat="53.6599574" lon="-1.8972519"><ele>256.0</ele><time>2026-03-22T17:59:12.945Z</time></trkpt><trkpt lat="53.6598296" lon="-1.8974249"><ele>256.0</ele><time>2026-03-22T17:59:13.949Z</time></trkpt><trkpt lat="53.6597072" lon="-1.8975834"><ele>256.0</ele><time>2026-03-22T17:59:14.949Z</time></trkpt><trkpt lat="53.6595874" lon="-1.8977388"><ele>256.0</ele><time>2026-03-22T17:59:15.948Z</time></trkpt><trkpt lat="53.6594721" lon="-1.8978988"><ele>258.3333333333333</ele><time>2026-03-22T17:59:16.948Z</time></trkpt><trkpt lat="53.6593573" lon="-1.8980603"><ele>260.6666666666667</ele><time>2026-03-22T17:59:17.948Z</time></trkpt><trkpt lat="53.6592423" lon="-1.8982224"><ele>263.0</ele><time>2026-03-22T17:59:18.952Z</time></trkpt><trkpt lat="53.6591231" lon="-1.8983855"><ele>259.0</ele><time>2026-03-22T17:59:19.948Z</time></trkpt><trkpt lat="53.658999" lon="-1.8985598"><ele>255.0</ele><time>2026-03-22T17:59:20.946Z</time></trkpt><trkpt lat="53.6588646" lon="-1.8987518"><ele>251.0</ele><time>2026-03-22T17:59:21.944Z</time></trkpt><trkpt lat="53.6587201" lon="-1.898955"><ele>252.33333333333334</ele><time>2026-03-22T17:59:22.945Z</time></trkpt><trkpt lat="53.65857" lon="-1.8991651"><ele>253.66666666666669</ele><time>2026-03-22T17:59:23.947Z</time></trkpt><trkpt lat="53.6584154" lon="-1.8993926"><ele>255.0</ele><time>2026-03-22T17:59:24.938Z</time></trkpt><trkpt lat="53.6582592" lon="-1.8996197"><ele>255.0</ele><time>2026-03-22T17:59:25.943Z</time></trkpt><trkpt lat="53.6581134" lon="-1.8998331"><ele>255.0</ele><time>2026-03-22T17:59:26.939Z</time></trkpt><trkpt lat="53.6579847" lon="-1.9000181"><ele>255.0</ele><time>2026-03-22T17:59:27.943Z</time></trkpt><trkpt lat="53.6578671" lon="-1.9001698"><ele>254.5</ele><time>2026-03-22T17:59:28.946Z</time></trkpt><trkpt lat="53.6577472" lon="-1.9003"><ele>254.0</ele><time>2026-03-22T17:59:29.943Z</time></trkpt><trkpt lat="53.6576325" lon="-1.9004309"><ele>253.5</ele><time>2026-03-22T17:59:30.945Z</time></trkpt><trkpt lat="53.6575158" lon="-1.900554"><ele>253.0</ele><time>2026-03-22T17:59:31.943Z</time></trkpt><trkpt lat="53.6573971" lon="-1.9006915"><ele>253.0</ele><time>2026-03-22T17:59:32.946Z</time></trkpt><trkpt lat="53.6572826" lon="-1.900836"><ele>253.0</ele><time>2026-03-22T17:59:33.947Z</time></trkpt><trkpt lat="53.6571723" lon="-1.9009911"><ele>253.0</ele><time>2026-03-22T17:59:34.948Z</time></trkpt><trkpt lat="53.6570743" lon="-1.9011352"><ele>253.0</ele><time>2026-03-22T17:59:35.946Z</time></trkpt><trkpt lat="53.6569847" lon="-1.9012559"><ele>253.4</ele><time>2026-03-22T17:59:36.948Z</time></trkpt><trkpt lat="53.6568975" lon="-1.9013444"><ele>253.8</ele><time>2026-03-22T17:59:37.948Z</time></trkpt><trkpt lat="53.6568053" lon="-1.9014122"><ele>254.2</ele><time>2026-03-22T17:59:38.949Z</time></trkpt><trkpt lat="53.6567164" lon="-1.9014911"><ele>254.6</ele><time>2026-03-22T17:59:39.946Z</time></trkpt><trkpt lat="53.6566271" lon="-1.9015898"><ele>255.0</ele><time>2026-03-22T17:59:40.949Z</time></trkpt><trkpt lat="53.6565258" lon="-1.9016974"><ele>250.33333333333331</ele><time>2026-03-22T17:59:41.936Z</time></trkpt><trkpt lat="53.6564141" lon="-1.9018289"><ele>245.66666666666666</ele><time>2026-03-22T17:59:42.942Z</time></trkpt><trkpt lat="53.6562892" lon="-1.9019856"><ele>241.0</ele><time>2026-03-22T17:59:43.94Z</time></trkpt><trkpt lat="53.656157" lon="-1.9021385"><ele>241.66666666666666</ele><time>2026-03-22T17:59:44.94Z</time></trkpt><trkpt lat="53.656017" lon="-1.9022964"><ele>242.33333333333331</ele><time>2026-03-22T17:59:45.946Z</time></trkpt><trkpt lat="53.6558741" lon="-1.9024542"><ele>243.0</ele><time>2026-03-22T17:59:46.946Z</time></trkpt><trkpt lat="53.6557276" lon="-1.9026014"><ele>243.0</ele><time>2026-03-22T17:59:47.945Z</time></trkpt><trkpt lat="53.655581" lon="-1.9027462"><ele>243.0</ele><time>2026-03-22T17:59:48.946Z</time></trkpt><trkpt lat="53.6554433" lon="-1.9028835"><ele>243.0</ele><time>2026-03-22T17:59:49.946Z</time></trkpt><trkpt lat="53.6553174" lon="-1.903009"><ele>243.25</ele><time>2026-03-22T17:59:50.939Z</time></trkpt><trkpt lat="53.6551888" lon="-1.9031303"><ele>243.5</ele><time>2026-03-22T17:59:51.948Z</time></trkpt><trkpt lat="53.6550673" lon="-1.903238"><ele>243.75</ele><time>2026-03-22T17:59:52.946Z</time></trkpt><trkpt lat="53.6549616" lon="-1.9033371"><ele>244.0</ele><time>2026-03-22T17:59:53.945Z</time></trkpt><trkpt lat="53.6548591" lon="-1.9034302"><ele>244.0</ele><time>2026-03-22T17:59:54.945Z</time></trkpt><trkpt lat="53.6547609" lon="-1.9035233"><ele>243.99999999999997</ele><time>2026-03-22T17:59:55.948Z</time></trkpt><trkpt lat="53.654673" lon="-1.9036102"><ele>243.99999999999997</ele><time>2026-03-22T17:59:56.947Z</time></trkpt><trkpt lat="53.6545954" lon="-1.9037046"><ele>244.0</ele><time>2026-03-22T17:59:57.947Z</time></trkpt><trkpt lat="53.6545182" lon="-1.9038032"><ele>244.0</ele><time>2026-03-22T17:59:58.945Z</time></trkpt><trkpt lat="53.6544384" lon="-1.903922"><ele>243.5</ele><time>2026-03-22T17:59:59.947Z</time></trkpt><trkpt lat="53.6543564" lon="-1.9040719"><ele>243.0</ele><time>2026-03-22T18:00:00.947Z</time></trkpt><trkpt lat="53.6542853" lon="-1.9042308"><ele>242.5</ele><time>2026-03-22T18:00:01.936Z</time></trkpt><trkpt lat="53.6542184" lon="-1.9043989"><ele>242.0</ele><time>2026-03-22T18:00:02.943Z</time></trkpt><trkpt lat="53.6541584" lon="-1.9045583"><ele>242.0</ele><time>2026-03-22T18:00:03.947Z</time></trkpt><trkpt lat="53.6541061" lon="-1.9046921"><ele>242.0</ele><time>2026-03-22T18:00:04.945Z</time></trkpt><trkpt lat="53.6540599" lon="-1.9047953"><ele>242.0</ele><time>2026-03-22T18:00:05.951Z</time></trkpt><trkpt lat="53.6539793" lon="-1.9048961"><ele>242.0</ele><time>2026-03-22T18:00:07.952Z</time></trkpt><trkpt lat="53.6538704" lon="-1.904835"><ele>242.0</ele><time>2026-03-22T18:00:09.948Z</time></trkpt><trkpt lat="53.6538017" lon="-1.9047529"><ele>242.0</ele><time>2026-03-22T18:00:10.944Z</time></trkpt><trkpt lat="53.6537226" lon="-1.9046489"><ele>242.0</ele><time>2026-03-22T18:00:11.945Z</time></trkpt><trkpt lat="53.6536264" lon="-1.9045355"><ele>242.0</ele><time>2026-03-22T18:00:12.946Z</time></trkpt><trkpt lat="53.6535209" lon="-1.9044128"><ele>242.0</ele><time>2026-03-22T18:00:13.947Z</time></trkpt><trkpt lat="53.6534141" lon="-1.904288"><ele>243.75</ele><time>2026-03-22T18:00:14.944Z</time></trkpt><trkpt lat="53.6533095" lon="-1.9041736"><ele>245.5</ele><time>2026-03-22T18:00:15.942Z</time></trkpt><trkpt lat="53.6532069" lon="-1.9040633"><ele>247.25</ele><time>2026-03-22T18:00:16.946Z</time></trkpt><trkpt lat="53.6531069" lon="-1.9039528"><ele>249.0</ele><time>2026-03-22T18:00:17.943Z</time></trkpt><trkpt lat="53.6530112" lon="-1.9038443"><ele>249.0</ele><time>2026-03-22T18:00:18.942Z</time></trkpt><trkpt lat="53.6529102" lon="-1.9037386"><ele>249.0</ele><time>2026-03-22T18:00:19.944Z</time></trkpt><trkpt lat="53.6528067" lon="-1.9036298"><ele>249.0</ele><time>2026-03-22T18:00:20.942Z</time></trkpt><trkpt lat="53.6527035" lon="-1.9035232"><ele>249.0</ele><time>2026-03-22T18:00:21.944Z</time></trkpt><trkpt lat="53.6525997" lon="-1.903416"><ele>249.5</ele><time>2026-03-22T18:00:22.945Z</time></trkpt><trkpt lat="53.6524981" lon="-1.9033053"><ele>250.0</ele><time>2026-03-22T18:00:23.941Z</time></trkpt><trkpt lat="53.6523906" lon="-1.903192"><ele>250.5</ele><time>2026-03-22T18:00:24.947Z</time></trkpt><trkpt lat="53.6522794" lon="-1.9030705"><ele>251.0</ele><time>2026-03-22T18:00:25.95Z</time></trkpt><trkpt lat="53.6521664" lon="-1.9029495"><ele>251.0</ele><time>2026-03-22T18:00:26.948Z</time></trkpt><trkpt lat="53.6520524" lon="-1.902824"><ele>251.0</ele><time>2026-03-22T18:00:27.944Z</time></trkpt><trkpt lat="53.6519339" lon="-1.9027027"><ele>251.0</ele><time>2026-03-22T18:00:28.946Z</time></trkpt><trkpt lat="53.6518151" lon="-1.9025713"><ele>251.0</ele><time>2026-03-22T18:00:29.942Z</time></trkpt><trkpt lat="53.6516919" lon="-1.9024338"><ele>250.66666666666669</ele><time>2026-03-22T18:00:30.942Z</time></trkpt><trkpt lat="53.6515655" lon="-1.9022959"><ele>250.33333333333331</ele><time>2026-03-22T18:00:31.945Z</time></trkpt><trkpt lat="53.651434" lon="-1.9021572"><ele>250.0</ele><time>2026-03-22T18:00:32.945Z</time></trkpt><trkpt lat="53.6512971" lon="-1.9020135"><ele>250.0</ele><time>2026-03-22T18:00:33.947Z</time></trkpt><trkpt lat="53.6511603" lon="-1.9018654"><ele>250.0</ele><time>2026-03-22T18:00:34.944Z</time></trkpt><trkpt lat="53.6510234" lon="-1.9017081"><ele>250.0</ele><time>2026-03-22T18:00:35.944Z</time></trkpt><trkpt lat="53.6508821" lon="-1.9015364"><ele>249.66666666666666</ele><time>2026-03-22T18:00:36.943Z</time></trkpt><trkpt lat="53.650735" lon="-1.9013603"><ele>249.33333333333331</ele><time>2026-03-22T18:00:37.947Z</time></trkpt><trkpt lat="53.650591" lon="-1.9011931"><ele>249.0</ele><time>2026-03-22T18:00:38.937Z</time></trkpt><trkpt lat="53.6504591" lon="-1.9010448"><ele>249.0</ele><time>2026-03-22T18:00:39.938Z</time></trkpt><trkpt lat="53.6503331" lon="-1.900931"><ele>249.0</ele><time>2026-03-22T18:00:40.942Z</time></trkpt><trkpt lat="53.650224" lon="-1.9008399"><ele>249.0</ele><time>2026-03-22T18:00:41.944Z</time></trkpt><trkpt lat="53.6501406" lon="-1.9007437"><ele>249.0</ele><time>2026-03-22T18:00:42.942Z</time></trkpt><trkpt lat="53.6500699" lon="-1.9006308"><ele>249.33333333333334</ele><time>2026-03-22T18:00:43.943Z</time></trkpt><trkpt lat="53.6500199" lon="-1.9005014"><ele>249.66666666666669</ele><time>2026-03-22T18:00:44.943Z</time></trkpt><trkpt lat="53.6499901" lon="-1.9003752"><ele>250.0</ele><time>2026-03-22T18:00:45.945Z</time></trkpt><trkpt lat="53.6499982" lon="-1.900266"><ele>250.33333333333334</ele><time>2026-03-22T18:00:46.944Z</time></trkpt><trkpt lat="53.6500551" lon="-1.9001708"><ele>250.66666666666669</ele><time>2026-03-22T18:00:47.944Z</time></trkpt><trkpt lat="53.6501181" lon="-1.9000986"><ele>251.0</ele><time>2026-03-22T18:00:48.948Z</time></trkpt><trkpt lat="53.6501937" lon="-1.9000417"><ele>253.0</ele><time>2026-03-22T18:00:49.949Z</time></trkpt><trkpt lat="53.6502734" lon="-1.8999864"><ele>255.00000000000003</ele><time>2026-03-22T18:00:50.952Z</time></trkpt><trkpt lat="53.6503513" lon="-1.8999137"><ele>257.0</ele><time>2026-03-22T18:00:51.948Z</time></trkpt><trkpt lat="53.6504276" lon="-1.8998223"><ele>259.0</ele><time>2026-03-22T18:00:52.952Z</time></trkpt><trkpt lat="53.6505082" lon="-1.8997061"><ele>261.0</ele><time>2026-03-22T18:00:53.952Z</time></trkpt><trkpt lat="53.6505931" lon="-1.8995759"><ele>264.25</ele><time>2026-03-22T18:00:54.952Z</time></trkpt><trkpt lat="53.6506774" lon="-1.8994387"><ele>267.5</ele><time>2026-03-22T18:00:55.949Z</time></trkpt><trkpt lat="53.6507634" lon="-1.8992866"><ele>270.75</ele><time>2026-03-22T18:00:56.953Z</time></trkpt><trkpt lat="53.6508503" lon="-1.899128"><ele>274.0</ele><time>2026-03-22T18:00:57.946Z</time></trkpt><trkpt lat="53.6509359" lon="-1.8989699"><ele>275.5</ele><time>2026-03-22T18:00:58.951Z</time></trkpt><trkpt lat="53.6510175" lon="-1.8988182"><ele>277.0</ele><time>2026-03-22T18:00:59.949Z</time></trkpt><trkpt lat="53.6510929" lon="-1.8986568"><ele>278.5</ele><time>2026-03-22T18:01:00.95Z</time></trkpt><trkpt lat="53.651172" lon="-1.898507"><ele>280.0</ele><time>2026-03-22T18:01:01.948Z</time></trkpt><trkpt lat="53.6512536" lon="-1.8983762"><ele>282.8333333333333</ele><time>2026-03-22T18:01:02.939Z</time></trkpt><trkpt lat="53.6513299" lon="-1.8982668"><ele>285.66666666666663</ele><time>2026-03-22T18:01:03.945Z</time></trkpt><trkpt lat="53.6513909" lon="-1.8981783"><ele>288.5</ele><time>2026-03-22T18:01:04.943Z</time></trkpt><trkpt lat="53.651428" lon="-1.8980867"><ele>291.3333333333333</ele><time>2026-03-22T18:01:05.943Z</time></trkpt><trkpt lat="53.6514391" lon="-1.8979815"><ele>294.1666666666667</ele><time>2026-03-22T18:01:06.947Z</time></trkpt><trkpt lat="53.6514223" lon="-1.89787"><ele>297.0</ele><time>2026-03-22T18:01:07.948Z</time></trkpt><trkpt lat="53.6513849" lon="-1.8977563"><ele>297.0</ele><time>2026-03-22T18:01:08.95Z</time></trkpt><trkpt lat="53.6513445" lon="-1.8976321"><ele>297.0</ele><time>2026-03-22T18:01:09.948Z</time></trkpt><trkpt lat="53.6513099" lon="-1.8974842"><ele>297.0</ele><time>2026-03-22T18:01:10.946Z</time></trkpt><trkpt lat="53.6512826" lon="-1.897306"><ele>297.0</ele><time>2026-03-22T18:01:11.947Z</time></trkpt><trkpt lat="53.651264" lon="-1.897093"><ele>297.0</ele><time>2026-03-22T18:01:12.946Z</time></trkpt><trkpt lat="53.6512588" lon="-1.8968618"><ele>300.5</ele><time>2026-03-22T18:01:13.947Z</time></trkpt><trkpt lat="53.6512681" lon="-1.896612"><ele>304.0</ele><time>2026-03-22T18:01:14.948Z</time></trkpt><trkpt lat="53.6512799" lon="-1.8963819"><ele>307.5</ele><time>2026-03-22T18:01:15.948Z</time></trkpt><trkpt lat="53.6512863" lon="-1.8961898"><ele>311.0</ele><time>2026-03-22T18:01:16.948Z</time></trkpt><trkpt lat="53.6512918" lon="-1.8960311"><ele>312.0</ele><time>2026-03-22T18:01:17.948Z</time></trkpt><trkpt lat="53.6512979" lon="-1.8958979"><ele>313.0</ele><time>2026-03-22T18:01:18.951Z</time></trkpt><trkpt lat="53.6512933" lon="-1.8957709"><ele>314.0</ele><time>2026-03-22T18:01:19.951Z</time></trkpt><trkpt lat="53.6512774" lon="-1.8956543"><ele>315.0</ele><time>2026-03-22T18:01:20.947Z</time></trkpt><trkpt lat="53.6512546" lon="-1.8955462"><ele>316.0</ele><time>2026-03-22T18:01:21.946Z</time></trkpt><trkpt lat="53.651233" lon="-1.8954374"><ele>317.0</ele><time>2026-03-22T18:01:22.949Z</time></trkpt><trkpt lat="53.651214" lon="-1.8953289"><ele>318.0</ele><time>2026-03-22T18:01:23.951Z</time></trkpt><trkpt lat="53.6512059" lon="-1.8952064"><ele>317.5</ele><time>2026-03-22T18:01:24.947Z</time></trkpt><trkpt lat="53.6511931" lon="-1.8950728"><ele>317.0</ele><time>2026-03-22T18:01:25.947Z</time></trkpt><trkpt lat="53.651179" lon="-1.8949283"><ele>316.5</ele><time>2026-03-22T18:01:26.944Z</time></trkpt><trkpt lat="53.6511633" lon="-1.8947798"><ele>316.0</ele><time>2026-03-22T18:01:27.937Z</time></trkpt><trkpt lat="53.6511519" lon="-1.8946367"><ele>315.5</ele><time>2026-03-22T18:01:28.948Z</time></trkpt><trkpt lat="53.6511387" lon="-1.8945172"><ele>315.0</ele><time>2026-03-22T18:01:29.948Z</time></trkpt><trkpt lat="53.6510992" lon="-1.8943225"><ele>315.0</ele><time>2026-03-22T18:01:31.95Z</time></trkpt><trkpt lat="53.6510676" lon="-1.8942255"><ele>315.0</ele><time>2026-03-22T18:01:32.951Z</time></trkpt><trkpt lat="53.6510294" lon="-1.8941325"><ele>315.0</ele><time>2026-03-22T18:01:33.951Z</time></trkpt><trkpt lat="53.6509467" lon="-1.894031"><ele>315.0</ele><time>2026-03-22T18:01:35.952Z</time></trkpt><trkpt lat="53.6508805" lon="-1.8940458"><ele>315.0</ele><time>2026-03-22T18:04:04.958Z</time></trkpt><trkpt lat="53.6508905" lon="-1.8941585"><ele>315.0</ele><time>2026-03-22T18:04:09.96Z</time></trkpt><trkpt lat="53.6509607" lon="-1.8942619"><ele>315.0</ele><time>2026-03-22T18:04:11.958Z</time></trkpt><trkpt lat="53.6510458" lon="-1.8943753"><ele>315.0</ele><time>2026-03-22T18:04:13.952Z</time></trkpt><trkpt lat="53.6511039" lon="-1.8944729"><ele>315.0</ele><time>2026-03-22T18:04:15.957Z</time></trkpt><trkpt lat="53.6511625" lon="-1.8946622"><ele>315.0</ele><time>2026-03-22T18:04:17.956Z</time></trkpt><trkpt lat="53.6511834" lon="-1.8948011"><ele>315.0</ele><time>2026-03-22T18:04:18.956Z</time></trkpt><trkpt lat="53.6511982" lon="-1.8949628"><ele>315.5</ele><time>2026-03-22T18:04:19.956Z</time></trkpt><trkpt lat="53.6512088" lon="-1.8951278"><ele>316.0</ele><time>2026-03-22T18:04:20.955Z</time></trkpt><trkpt lat="53.6512153" lon="-1.8952753"><ele>316.5</ele><time>2026-03-22T18:04:21.954Z</time></trkpt><trkpt lat="53.6512214" lon="-1.8954048"><ele>317.0</ele><time>2026-03-22T18:04:22.956Z</time></trkpt><trkpt lat="53.6512314" lon="-1.8955105"><ele>317.5</ele><time>2026-03-22T18:04:23.956Z</time></trkpt><trkpt lat="53.6512544" lon="-1.8956873"><ele>318.0</ele><time>2026-03-22T18:04:25.955Z</time></trkpt><trkpt lat="53.6512642" lon="-1.8957933"><ele>318.0</ele><time>2026-03-22T18:04:27.959Z</time></trkpt><trkpt lat="53.6512019" lon="-1.8958142"><ele>318.0</ele><time>2026-03-22T18:04:30.959Z</time></trkpt><trkpt lat="53.6511386" lon="-1.8957048"><ele>318.0</ele><time>2026-03-22T18:04:33.957Z</time></trkpt><trkpt lat="53.6510633" lon="-1.8955496"><ele>318.0</ele><time>2026-03-22T18:04:35.959Z</time></trkpt><trkpt lat="53.6510163" lon="-1.8954585"><ele>318.0</ele><time>2026-03-22T18:04:36.956Z</time></trkpt><trkpt lat="53.6509622" lon="-1.8953591"><ele>318.0</ele><time>2026-03-22T18:04:37.956Z</time></trkpt><trkpt lat="53.6508996" lon="-1.8952517"><ele>317.4</ele><time>2026-03-22T18:04:38.946Z</time></trkpt><trkpt lat="53.6508281" lon="-1.8951273"><ele>316.8</ele><time>2026-03-22T18:04:39.949Z</time></trkpt><trkpt lat="53.6507447" lon="-1.8949792"><ele>316.2</ele><time>2026-03-22T18:04:40.947Z</time></trkpt><trkpt lat="53.6506711" lon="-1.8948466"><ele>315.6</ele><time>2026-03-22T18:04:41.948Z</time></trkpt><trkpt lat="53.6506036" lon="-1.8947328"><ele>315.0</ele><time>2026-03-22T18:04:42.949Z</time></trkpt><trkpt lat="53.6505409" lon="-1.8946372"><ele>315.0</ele><time>2026-03-22T18:04:43.949Z</time></trkpt><trkpt lat="53.6504768" lon="-1.8945568"><ele>315.0</ele><time>2026-03-22T18:04:44.95Z</time></trkpt><trkpt lat="53.6504026" lon="-1.8944764"><ele>315.0</ele><time>2026-03-22T18:04:45.947Z</time></trkpt><trkpt lat="53.6503193" lon="-1.8944005"><ele>315.0</ele><time>2026-03-22T18:04:46.947Z</time></trkpt><trkpt lat="53.6502295" lon="-1.8943195"><ele>315.0</ele><time>2026-03-22T18:04:47.946Z</time></trkpt><trkpt lat="53.6501363" lon="-1.894237"><ele>314.8</ele><time>2026-03-22T18:04:48.947Z</time></trkpt><trkpt lat="53.6500413" lon="-1.8941488"><ele>314.6</ele><time>2026-03-22T18:04:49.947Z</time></trkpt><trkpt lat="53.6499507" lon="-1.8940603"><ele>314.4</ele><time>2026-03-22T18:04:50.948Z</time></trkpt><trkpt lat="53.6498714" lon="-1.8939848"><ele>314.2</ele><time>2026-03-22T18:04:51.947Z</time></trkpt><trkpt lat="53.6498073" lon="-1.8939227"><ele>314.0</ele><time>2026-03-22T18:04:52.947Z</time></trkpt><trkpt lat="53.6497208" lon="-1.8938525"><ele>314.0</ele><time>2026-03-22T18:04:54.954Z</time></trkpt><trkpt lat="53.6497322" lon="-1.8937234"><ele>314.0</ele><time>2026-03-22T18:05:01.952Z</time></trkpt><trkpt lat="53.6497955" lon="-1.8935667"><ele>314.0</ele><time>2026-03-22T18:05:03.953Z</time></trkpt><trkpt lat="53.6498326" lon="-1.893422"><ele>314.0</ele><time>2026-03-22T18:05:05.953Z</time></trkpt><trkpt lat="53.6498595" lon="-1.8933195"><ele>314.0</ele><time>2026-03-22T18:05:07.956Z</time></trkpt><trkpt lat="53.6499111" lon="-1.8932026"><ele>314.0</ele><time>2026-03-22T18:05:09.949Z</time></trkpt><trkpt lat="53.6499925" lon="-1.8931134"><ele>314.0</ele><time>2026-03-22T18:05:11.952Z</time></trkpt><trkpt lat="53.6499969" lon="-1.8932257"><ele>314.0</ele><time>2026-03-22T18:05:16.958Z</time></trkpt><trkpt lat="53.6499301" lon="-1.893269"><ele>314.0</ele><time>2026-03-22T18:05:29.956Z</time></trkpt><trkpt lat="53.6498733" lon="-1.8933205"><ele>314.0</ele><time>2026-03-22T18:05:31.961Z</time></trkpt><trkpt lat="53.6497974" lon="-1.8935153"><ele>314.0</ele><time>2026-03-22T18:05:35.96Z</time></trkpt><trkpt lat="53.6497661" lon="-1.8936169"><ele>314.0</ele><time>2026-03-22T18:05:36.961Z</time></trkpt><trkpt lat="53.649713" lon="-1.893766"><ele>314.0</ele><time>2026-03-22T18:05:37.958Z</time></trkpt><trkpt lat="53.6496588" lon="-1.8939069"><ele>314.0</ele><time>2026-03-22T18:05:39.948Z</time></trkpt><trkpt lat="53.6496436" lon="-1.8937913"><ele>314.0</ele><time>2026-03-22T18:05:43.95Z</time></trkpt><trkpt lat="53.6496137" lon="-1.8936683"><ele>314.0</ele><time>2026-03-22T18:07:01.949Z</time></trkpt><trkpt lat="53.6494771" lon="-1.8935836"><ele>314.0</ele><time>2026-03-22T18:07:03.952Z</time></trkpt><trkpt lat="53.6493804" lon="-1.8935116"><ele>315.75</ele><time>2026-03-22T18:07:04.953Z</time></trkpt><trkpt lat="53.6492633" lon="-1.8934124"><ele>317.5</ele><time>2026-03-22T18:07:05.951Z</time></trkpt><trkpt lat="53.6491464" lon="-1.8933069"><ele>319.25</ele><time>2026-03-22T18:07:06.95Z</time></trkpt><trkpt lat="53.6490281" lon="-1.8932114"><ele>321.0</ele><time>2026-03-22T18:07:07.95Z</time></trkpt><trkpt lat="53.648895" lon="-1.8931297"><ele>321.0</ele><time>2026-03-22T18:07:08.953Z</time></trkpt><trkpt lat="53.6487527" lon="-1.8930688"><ele>321.0</ele><time>2026-03-22T18:07:09.953Z</time></trkpt><trkpt lat="53.648606" lon="-1.8930335"><ele>321.0</ele><time>2026-03-22T18:07:10.952Z</time></trkpt><trkpt lat="53.648472" lon="-1.8930114"><ele>321.0</ele><time>2026-03-22T18:07:11.949Z</time></trkpt><trkpt lat="53.6484039" lon="-1.8929767"><ele>321.20000000000005</ele><time>2026-03-22T18:07:12.957Z</time></trkpt><trkpt lat="53.6484035" lon="-1.8928659"><ele>321.40000000000003</ele><time>2026-03-22T18:07:14.958Z</time></trkpt><trkpt lat="53.6484675" lon="-1.8927447"><ele>321.6</ele><time>2026-03-22T18:07:16.955Z</time></trkpt><trkpt lat="53.6484064" lon="-1.8925715"><ele>321.8</ele><time>2026-03-22T18:07:18.953Z</time></trkpt><trkpt lat="53.6483172" lon="-1.89248"><ele>322.0</ele><time>2026-03-22T18:07:19.946Z</time></trkpt><trkpt lat="53.6482088" lon="-1.8924179"><ele>322.8333333333333</ele><time>2026-03-22T18:07:20.952Z</time></trkpt><trkpt lat="53.6481106" lon="-1.8923631"><ele>323.66666666666663</ele><time>2026-03-22T18:07:21.951Z</time></trkpt><trkpt lat="53.6480331" lon="-1.8923179"><ele>324.5</ele><time>2026-03-22T18:07:22.951Z</time></trkpt><trkpt lat="53.6479332" lon="-1.8922584"><ele>325.3333333333333</ele><time>2026-03-22T18:07:24.959Z</time></trkpt><trkpt lat="53.6478687" lon="-1.8922137"><ele>326.1666666666667</ele><time>2026-03-22T18:07:28.954Z</time></trkpt><trkpt lat="53.6477986" lon="-1.8921934"><ele>327.0</ele><time>2026-03-22T18:07:30.959Z</time></trkpt><trkpt lat="53.6477203" lon="-1.8922947"><ele>327.0</ele><time>2026-03-22T18:07:32.953Z</time></trkpt><trkpt lat="53.6476826" lon="-1.8924234"><ele>327.0</ele><time>2026-03-22T18:07:33.958Z</time></trkpt><trkpt lat="53.647631" lon="-1.8926143"><ele>327.0</ele><time>2026-03-22T18:07:34.955Z</time></trkpt><trkpt lat="53.6475452" lon="-1.892857"><ele>327.0</ele><time>2026-03-22T18:07:35.954Z</time></trkpt><trkpt lat="53.6474276" lon="-1.8931144"><ele>326.3333333333333</ele><time>2026-03-22T18:07:36.954Z</time></trkpt><trkpt lat="53.6472875" lon="-1.8933466"><ele>325.66666666666663</ele><time>2026-03-22T18:07:37.955Z</time></trkpt><trkpt lat="53.6471449" lon="-1.8935538"><ele>325.0</ele><time>2026-03-22T18:07:38.958Z</time></trkpt><trkpt lat="53.647002" lon="-1.8937125"><ele>324.5</ele><time>2026-03-22T18:07:39.954Z</time></trkpt><trkpt lat="53.6468599" lon="-1.8938407"><ele>324.0</ele><time>2026-03-22T18:07:40.953Z</time></trkpt><trkpt lat="53.6467302" lon="-1.8939418"><ele>323.5</ele><time>2026-03-22T18:07:41.952Z</time></trkpt><trkpt lat="53.6466106" lon="-1.8940178"><ele>323.0</ele><time>2026-03-22T18:07:42.951Z</time></trkpt><trkpt lat="53.6465061" lon="-1.8940841"><ele>323.0</ele><time>2026-03-22T18:07:43.952Z</time></trkpt><trkpt lat="53.6464136" lon="-1.8941344"><ele>323.0</ele><time>2026-03-22T18:07:44.95Z</time></trkpt><trkpt lat="53.6463282" lon="-1.8941709"><ele>323.0</ele><time>2026-03-22T18:07:45.95Z</time></trkpt><trkpt lat="53.6462374" lon="-1.8942029"><ele>323.0</ele><time>2026-03-22T18:07:46.95Z</time></trkpt><trkpt lat="53.6461499" lon="-1.8942328"><ele>323.0</ele><time>2026-03-22T18:07:47.952Z</time></trkpt><trkpt lat="53.6460722" lon="-1.8942474"><ele>323.0</ele><time>2026-03-22T18:07:48.953Z</time></trkpt><trkpt lat="53.6460059" lon="-1.8942666"><ele>323.0</ele><time>2026-03-22T18:07:49.951Z</time></trkpt><trkpt lat="53.6459124" lon="-1.8943019"><ele>323.0</ele><time>2026-03-22T18:07:51.951Z</time></trkpt><trkpt lat="53.6458205" lon="-1.8943187"><ele>323.0</ele><time>2026-03-22T18:08:30.957Z</time></trkpt><trkpt lat="53.645755" lon="-1.8943427"><ele>323.0</ele><time>2026-03-22T18:08:31.952Z</time></trkpt><trkpt lat="53.6456556" lon="-1.894369"><ele>323.0</ele><time>2026-03-22T18:08:32.958Z</time></trkpt><trkpt lat="53.6455365" lon="-1.8944017"><ele>323.0</ele><time>2026-03-22T18:08:33.957Z</time></trkpt><trkpt lat="53.6454018" lon="-1.8944394"><ele>323.0</ele><time>2026-03-22T18:08:34.957Z</time></trkpt><trkpt lat="53.6452553" lon="-1.8944768"><ele>323.0</ele><time>2026-03-22T18:08:35.957Z</time></trkpt><trkpt lat="53.6451013" lon="-1.8945166"><ele>323.0</ele><time>2026-03-22T18:08:36.963Z</time></trkpt><trkpt lat="53.6449428" lon="-1.8945601"><ele>322.0</ele><time>2026-03-22T18:08:37.957Z</time></trkpt><trkpt lat="53.6447804" lon="-1.8946071"><ele>321.0</ele><time>2026-03-22T18:08:38.959Z</time></trkpt><trkpt lat="53.6446177" lon="-1.8946682"><ele>320.0</ele><time>2026-03-22T18:08:39.957Z</time></trkpt><trkpt lat="53.6444469" lon="-1.8947417"><ele>320.0</ele><time>2026-03-22T18:08:40.959Z</time></trkpt><trkpt lat="53.6442827" lon="-1.8948364"><ele>320.0</ele><time>2026-03-22T18:08:41.954Z</time></trkpt><trkpt lat="53.6441222" lon="-1.8949475"><ele>320.0</ele><time>2026-03-22T18:08:42.955Z</time></trkpt><trkpt lat="53.643972" lon="-1.8950806"><ele>319.0</ele><time>2026-03-22T18:08:43.954Z</time></trkpt><trkpt lat="53.6438261" lon="-1.8952341"><ele>318.0</ele><time>2026-03-22T18:08:44.953Z</time></trkpt><trkpt lat="53.6436782" lon="-1.8953998"><ele>317.0</ele><time>2026-03-22T18:08:45.955Z</time></trkpt><trkpt lat="53.6435355" lon="-1.8955786"><ele>318.6666666666667</ele><time>2026-03-22T18:08:46.954Z</time></trkpt><trkpt lat="53.6433899" lon="-1.8957688"><ele>320.3333333333333</ele><time>2026-03-22T18:08:47.954Z</time></trkpt><trkpt lat="53.6432452" lon="-1.8959555"><ele>322.0</ele><time>2026-03-22T18:08:48.955Z</time></trkpt><trkpt lat="53.6430994" lon="-1.8961328"><ele>322.0</ele><time>2026-03-22T18:08:49.953Z</time></trkpt><trkpt lat="53.6429553" lon="-1.8963012"><ele>322.0</ele><time>2026-03-22T18:08:50.954Z</time></trkpt><trkpt lat="53.6428137" lon="-1.8964626"><ele>322.0</ele><time>2026-03-22T18:08:51.954Z</time></trkpt><trkpt lat="53.6426717" lon="-1.8966236"><ele>324.3333333333333</ele><time>2026-03-22T18:08:52.953Z</time></trkpt><trkpt lat="53.6425279" lon="-1.8967862"><ele>326.6666666666667</ele><time>2026-03-22T18:08:53.956Z</time></trkpt><trkpt lat="53.6423803" lon="-1.896956"><ele>329.0</ele><time>2026-03-22T18:08:54.954Z</time></trkpt><trkpt lat="53.6422317" lon="-1.8971356"><ele>329.0</ele><time>2026-03-22T18:08:55.952Z</time></trkpt><trkpt lat="53.6420833" lon="-1.8973164"><ele>329.0</ele><time>2026-03-22T18:08:56.954Z</time></trkpt><trkpt lat="53.6419335" lon="-1.8974974"><ele>329.0</ele><time>2026-03-22T18:08:57.952Z</time></trkpt><trkpt lat="53.6417853" lon="-1.8976779"><ele>330.0</ele><time>2026-03-22T18:08:58.953Z</time></trkpt><trkpt lat="53.641641" lon="-1.8978559"><ele>331.0</ele><time>2026-03-22T18:08:59.953Z</time></trkpt><trkpt lat="53.641496" lon="-1.8980348"><ele>332.0</ele><time>2026-03-22T18:09:00.953Z</time></trkpt><trkpt lat="53.6413548" lon="-1.8982101"><ele>332.0</ele><time>2026-03-22T18:09:01.955Z</time></trkpt><trkpt lat="53.6412218" lon="-1.8983776"><ele>332.0</ele><time>2026-03-22T18:09:02.956Z</time></trkpt><trkpt lat="53.6410926" lon="-1.8985354"><ele>332.0</ele><time>2026-03-22T18:09:03.955Z</time></trkpt><trkpt lat="53.640962" lon="-1.8986807"><ele>333.33333333333337</ele><time>2026-03-22T18:09:04.954Z</time></trkpt><trkpt lat="53.6408236" lon="-1.8987944"><ele>334.6666666666667</ele><time>2026-03-22T18:09:05.954Z</time></trkpt><trkpt lat="53.6406705" lon="-1.8988709"><ele>336.0</ele><time>2026-03-22T18:09:06.957Z</time></trkpt><trkpt lat="53.6405059" lon="-1.8989375"><ele>336.0</ele><time>2026-03-22T18:09:07.957Z</time></trkpt><trkpt lat="53.640341" lon="-1.8990245"><ele>336.0</ele><time>2026-03-22T18:09:08.953Z</time></trkpt><trkpt lat="53.6401724" lon="-1.8991205"><ele>336.0</ele><time>2026-03-22T18:09:09.958Z</time></trkpt><trkpt lat="53.6400043" lon="-1.8992386"><ele>337.6666666666667</ele><time>2026-03-22T18:09:10.953Z</time></trkpt><trkpt lat="53.6398339" lon="-1.8993782"><ele>339.33333333333337</ele><time>2026-03-22T18:09:11.955Z</time></trkpt><trkpt lat="53.6396657" lon="-1.8995267"><ele>341.0</ele><time>2026-03-22T18:09:12.953Z</time></trkpt><trkpt lat="53.6394941" lon="-1.8996639"><ele>344.0</ele><time>2026-03-22T18:09:13.953Z</time></trkpt><trkpt lat="53.6393231" lon="-1.8998029"><ele>347.0</ele><time>2026-03-22T18:09:14.951Z</time></trkpt><trkpt lat="53.6391491" lon="-1.8999276"><ele>350.0</ele><time>2026-03-22T18:09:15.952Z</time></trkpt><trkpt lat="53.6389728" lon="-1.9000329"><ele>350.33333333333337</ele><time>2026-03-22T18:09:16.953Z</time></trkpt><trkpt lat="53.6387921" lon="-1.900123"><ele>350.6666666666667</ele><time>2026-03-22T18:09:17.953Z</time></trkpt><trkpt lat="53.6386113" lon="-1.9001994"><ele>351.0</ele><time>2026-03-22T18:09:18.952Z</time></trkpt><trkpt lat="53.6384341" lon="-1.9002709"><ele>351.6666666666667</ele><time>2026-03-22T18:09:19.952Z</time></trkpt><trkpt lat="53.6382681" lon="-1.9003514"><ele>352.33333333333337</ele><time>2026-03-22T18:09:20.953Z</time></trkpt><trkpt lat="53.6381153" lon="-1.9004461"><ele>353.0</ele><time>2026-03-22T18:09:21.952Z</time></trkpt><trkpt lat="53.6379624" lon="-1.9005434"><ele>353.0</ele><time>2026-03-22T18:09:22.953Z</time></trkpt><trkpt lat="53.6378043" lon="-1.9006427"><ele>353.0</ele><time>2026-03-22T18:09:23.952Z</time></trkpt><trkpt lat="53.6376517" lon="-1.900726"><ele>353.0</ele><time>2026-03-22T18:09:24.951Z</time></trkpt><trkpt lat="53.6374868" lon="-1.9007863"><ele>351.0</ele><time>2026-03-22T18:09:25.951Z</time></trkpt><trkpt lat="53.6373109" lon="-1.9008252"><ele>349.0</ele><time>2026-03-22T18:09:26.954Z</time></trkpt><trkpt lat="53.6371299" lon="-1.9008723"><ele>347.0</ele><time>2026-03-22T18:09:27.956Z</time></trkpt><trkpt lat="53.6369545" lon="-1.9009216"><ele>346.0</ele><time>2026-03-22T18:09:28.954Z</time></trkpt><trkpt lat="53.6367827" lon="-1.9009743"><ele>345.0</ele><time>2026-03-22T18:09:29.952Z</time></trkpt><trkpt lat="53.6366126" lon="-1.9010207"><ele>344.0</ele><time>2026-03-22T18:09:30.951Z</time></trkpt><trkpt lat="53.6364459" lon="-1.9010674"><ele>344.0</ele><time>2026-03-22T18:09:31.954Z</time></trkpt><trkpt lat="53.6362811" lon="-1.9011107"><ele>344.0</ele><time>2026-03-22T18:09:32.957Z</time></trkpt><trkpt lat="53.6361165" lon="-1.9011545"><ele>344.0</ele><time>2026-03-22T18:09:33.959Z</time></trkpt><trkpt lat="53.6359528" lon="-1.9011952"><ele>342.6666666666667</ele><time>2026-03-22T18:09:34.957Z</time></trkpt><trkpt lat="53.6357905" lon="-1.9012357"><ele>341.3333333333333</ele><time>2026-03-22T18:09:35.954Z</time></trkpt><trkpt lat="53.6356301" lon="-1.9012758"><ele>340.0</ele><time>2026-03-22T18:09:36.957Z</time></trkpt><trkpt lat="53.6354722" lon="-1.9013106"><ele>340.0</ele><time>2026-03-22T18:09:37.955Z</time></trkpt><trkpt lat="53.6353174" lon="-1.9013437"><ele>340.0</ele><time>2026-03-22T18:09:38.957Z</time></trkpt><trkpt lat="53.635168" lon="-1.9013728"><ele>340.0</ele><time>2026-03-22T18:09:39.956Z</time></trkpt><trkpt lat="53.6350308" lon="-1.9013996"><ele>340.0</ele><time>2026-03-22T18:09:40.957Z</time></trkpt><trkpt lat="53.6349088" lon="-1.9014219"><ele>339.0</ele><time>2026-03-22T18:09:41.951Z</time></trkpt><trkpt lat="53.634801" lon="-1.9014346"><ele>338.0</ele><time>2026-03-22T18:09:42.952Z</time></trkpt><trkpt lat="53.6347016" lon="-1.9014208"><ele>337.0</ele><time>2026-03-22T18:09:43.952Z</time></trkpt><trkpt lat="53.634609" lon="-1.9013735"><ele>336.0</ele><time>2026-03-22T18:09:44.954Z</time></trkpt><trkpt lat="53.6345252" lon="-1.90128"><ele>335.0</ele><time>2026-03-22T18:09:45.951Z</time></trkpt><trkpt lat="53.634453" lon="-1.9011409"><ele>333.2</ele><time>2026-03-22T18:09:46.952Z</time></trkpt><trkpt lat="53.6343939" lon="-1.9009715"><ele>331.4</ele><time>2026-03-22T18:09:47.952Z</time></trkpt><trkpt lat="53.6343459" lon="-1.9007934"><ele>329.6</ele><time>2026-03-22T18:09:48.954Z</time></trkpt><trkpt lat="53.6343096" lon="-1.900614"><ele>327.8</ele><time>2026-03-22T18:09:49.953Z</time></trkpt><trkpt lat="53.6342761" lon="-1.900457"><ele>326.0</ele><time>2026-03-22T18:09:50.953Z</time></trkpt><trkpt lat="53.6342396" lon="-1.9003202"><ele>325.8</ele><time>2026-03-22T18:09:51.953Z</time></trkpt><trkpt lat="53.634179" lon="-1.9002403"><ele>325.6</ele><time>2026-03-22T18:09:52.953Z</time></trkpt><trkpt lat="53.6341022" lon="-1.9002278"><ele>325.4</ele><time>2026-03-22T18:09:53.952Z</time></trkpt><trkpt lat="53.6340204" lon="-1.9002948"><ele>325.2</ele><time>2026-03-22T18:09:54.954Z</time></trkpt><trkpt lat="53.6339304" lon="-1.9003899"><ele>325.0</ele><time>2026-03-22T18:09:55.951Z</time></trkpt><trkpt lat="53.633829" lon="-1.9004909"><ele>325.0</ele><time>2026-03-22T18:09:56.951Z</time></trkpt><trkpt lat="53.6337195" lon="-1.9005729"><ele>325.0</ele><time>2026-03-22T18:09:57.951Z</time></trkpt><trkpt lat="53.6335968" lon="-1.900614"><ele>325.0</ele><time>2026-03-22T18:09:58.953Z</time></trkpt><trkpt lat="53.633471" lon="-1.9005987"><ele>325.0</ele><time>2026-03-22T18:09:59.953Z</time></trkpt><trkpt lat="53.633342" lon="-1.9005634"><ele>323.75</ele><time>2026-03-22T18:10:00.954Z</time></trkpt><trkpt lat="53.6332165" lon="-1.9004916"><ele>322.5</ele><time>2026-03-22T18:10:01.956Z</time></trkpt><trkpt lat="53.633099" lon="-1.9003604"><ele>321.25</ele><time>2026-03-22T18:10:02.956Z</time></trkpt><trkpt lat="53.6329939" lon="-1.900188"><ele>320.0</ele><time>2026-03-22T18:10:03.954Z</time></trkpt><trkpt lat="53.6329098" lon="-1.8999879"><ele>320.0</ele><time>2026-03-22T18:10:04.956Z</time></trkpt><trkpt lat="53.632846" lon="-1.8997658"><ele>320.0</ele><time>2026-03-22T18:10:05.955Z</time></trkpt><trkpt lat="53.6327968" lon="-1.8995224"><ele>320.0</ele><time>2026-03-22T18:10:06.952Z</time></trkpt><trkpt lat="53.6327571" lon="-1.8992675"><ele>318.5</ele><time>2026-03-22T18:10:07.947Z</time></trkpt><trkpt lat="53.6327195" lon="-1.899021"><ele>317.0</ele><time>2026-03-22T18:10:08.954Z</time></trkpt><trkpt lat="53.6326778" lon="-1.8987806"><ele>315.5</ele><time>2026-03-22T18:10:09.954Z</time></trkpt><trkpt lat="53.6326308" lon="-1.8985538"><ele>314.0</ele><time>2026-03-22T18:10:10.957Z</time></trkpt><trkpt lat="53.6325747" lon="-1.8983367"><ele>314.0</ele><time>2026-03-22T18:10:11.951Z</time></trkpt><trkpt lat="53.6325102" lon="-1.8981326"><ele>314.0</ele><time>2026-03-22T18:10:12.953Z</time></trkpt><trkpt lat="53.6324456" lon="-1.8979351"><ele>314.0</ele><time>2026-03-22T18:10:13.955Z</time></trkpt><trkpt lat="53.6323901" lon="-1.8977527"><ele>314.0</ele><time>2026-03-22T18:10:14.954Z</time></trkpt><trkpt lat="53.6323418" lon="-1.8975908"><ele>314.5</ele><time>2026-03-22T18:10:15.955Z</time></trkpt><trkpt lat="53.6322967" lon="-1.8974471"><ele>315.0</ele><time>2026-03-22T18:10:16.954Z</time></trkpt><trkpt lat="53.6322509" lon="-1.8973251"><ele>315.5</ele><time>2026-03-22T18:10:17.955Z</time></trkpt><trkpt lat="53.6321999" lon="-1.8972281"><ele>316.0</ele><time>2026-03-22T18:10:18.955Z</time></trkpt><trkpt lat="53.632136" lon="-1.8971632"><ele>316.5</ele><time>2026-03-22T18:10:19.952Z</time></trkpt><trkpt lat="53.6320462" lon="-1.8971471"><ele>317.0</ele><time>2026-03-22T18:10:20.952Z</time></trkpt><trkpt lat="53.6319371" lon="-1.89717"><ele>312.75</ele><time>2026-03-22T18:10:21.953Z</time></trkpt><trkpt lat="53.6318145" lon="-1.8972151"><ele>308.5</ele><time>2026-03-22T18:10:22.953Z</time></trkpt><trkpt lat="53.6316798" lon="-1.8972636"><ele>304.25</ele><time>2026-03-22T18:10:23.956Z</time></trkpt><trkpt lat="53.6315505" lon="-1.8973078"><ele>300.0</ele><time>2026-03-22T18:10:24.953Z</time></trkpt><trkpt lat="53.6314301" lon="-1.8973702"><ele>300.0</ele><time>2026-03-22T18:10:25.955Z</time></trkpt><trkpt lat="53.6313291" lon="-1.8974575"><ele>300.0</ele><time>2026-03-22T18:10:26.954Z</time></trkpt><trkpt lat="53.6312358" lon="-1.8975533"><ele>300.0</ele><time>2026-03-22T18:10:27.954Z</time></trkpt><trkpt lat="53.6311445" lon="-1.8976465"><ele>300.0</ele><time>2026-03-22T18:10:28.955Z</time></trkpt><trkpt lat="53.6310551" lon="-1.8977239"><ele>300.0</ele><time>2026-03-22T18:10:29.953Z</time></trkpt><trkpt lat="53.6309544" lon="-1.8977767"><ele>296.4</ele><time>2026-03-22T18:10:30.955Z</time></trkpt><trkpt lat="53.6308487" lon="-1.8977932"><ele>292.8</ele><time>2026-03-22T18:10:31.957Z</time></trkpt><trkpt lat="53.6307478" lon="-1.8977699"><ele>289.2</ele><time>2026-03-22T18:10:32.955Z</time></trkpt><trkpt lat="53.6306561" lon="-1.8977397"><ele>285.6</ele><time>2026-03-22T18:10:33.958Z</time></trkpt><trkpt lat="53.6305703" lon="-1.8977435"><ele>282.0</ele><time>2026-03-22T18:10:34.955Z</time></trkpt><trkpt lat="53.6304885" lon="-1.8977884"><ele>282.0</ele><time>2026-03-22T18:10:35.957Z</time></trkpt><trkpt lat="53.6304134" lon="-1.8978943"><ele>282.0</ele><time>2026-03-22T18:10:36.954Z</time></trkpt><trkpt lat="53.6303539" lon="-1.8980598"><ele>282.0</ele><time>2026-03-22T18:10:37.956Z</time></trkpt><trkpt lat="53.6302997" lon="-1.8982917"><ele>282.0</ele><time>2026-03-22T18:10:38.956Z</time></trkpt><trkpt lat="53.630253" lon="-1.898563"><ele>276.3333333333333</ele><time>2026-03-22T18:10:39.956Z</time></trkpt><trkpt lat="53.6302077" lon="-1.898817"><ele>270.66666666666663</ele><time>2026-03-22T18:10:40.956Z</time></trkpt><trkpt lat="53.6301599" lon="-1.8990663"><ele>265.0</ele><time>2026-03-22T18:10:41.951Z</time></trkpt><trkpt lat="53.6301077" lon="-1.8992978"><ele>264.5</ele><time>2026-03-22T18:10:42.953Z</time></trkpt><trkpt lat="53.6300395" lon="-1.8995022"><ele>264.0</ele><time>2026-03-22T18:10:43.952Z</time></trkpt><trkpt lat="53.6299953" lon="-1.8996965"><ele>263.5</ele><time>2026-03-22T18:10:44.951Z</time></trkpt><trkpt lat="53.6299553" lon="-1.8998739"><ele>263.0</ele><time>2026-03-22T18:10:45.95Z</time></trkpt><trkpt lat="53.6299167" lon="-1.9000481"><ele>262.5</ele><time>2026-03-22T18:10:46.953Z</time></trkpt><trkpt lat="53.6298793" lon="-1.9002018"><ele>262.0</ele><time>2026-03-22T18:10:47.951Z</time></trkpt><trkpt lat="53.6298435" lon="-1.9003332"><ele>261.5</ele><time>2026-03-22T18:10:48.953Z</time></trkpt><trkpt lat="53.6298079" lon="-1.9004476"><ele>261.0</ele><time>2026-03-22T18:10:49.95Z</time></trkpt><trkpt lat="53.629762" lon="-1.9005336"><ele>260.5</ele><time>2026-03-22T18:10:50.951Z</time></trkpt><trkpt lat="53.629697" lon="-1.9005727"><ele>260.0</ele><time>2026-03-22T18:10:51.953Z</time></trkpt><trkpt lat="53.6296099" lon="-1.9005656"><ele>260.0</ele><time>2026-03-22T18:10:52.952Z</time></trkpt><trkpt lat="53.6294945" lon="-1.9005037"><ele>260.0</ele><time>2026-03-22T18:10:53.957Z</time></trkpt><trkpt lat="53.6293656" lon="-1.9004264"><ele>260.0</ele><time>2026-03-22T18:10:54.946Z</time></trkpt><trkpt lat="53.629223" lon="-1.9003532"><ele>260.0</ele><time>2026-03-22T18:10:55.951Z</time></trkpt><trkpt lat="53.6290729" lon="-1.9002767"><ele>257.75</ele><time>2026-03-22T18:10:56.951Z</time></trkpt><trkpt lat="53.6289215" lon="-1.9001927"><ele>255.5</ele><time>2026-03-22T18:10:57.95Z</time></trkpt><trkpt lat="53.628779" lon="-1.9001112"><ele>253.25</ele><time>2026-03-22T18:10:58.953Z</time></trkpt><trkpt lat="53.6286449" lon="-1.9000629"><ele>251.0</ele><time>2026-03-22T18:10:59.951Z</time></trkpt><trkpt lat="53.6285157" lon="-1.9000294"><ele>248.60000000000002</ele><time>2026-03-22T18:11:00.952Z</time></trkpt><trkpt lat="53.6284019" lon="-1.9000043"><ele>246.20000000000002</ele><time>2026-03-22T18:11:01.954Z</time></trkpt><trkpt lat="53.6282965" lon="-1.8999854"><ele>243.79999999999998</ele><time>2026-03-22T18:11:02.957Z</time></trkpt><trkpt lat="53.6281952" lon="-1.8999699"><ele>241.39999999999998</ele><time>2026-03-22T18:11:03.954Z</time></trkpt><trkpt lat="53.6280917" lon="-1.8999519"><ele>239.0</ele><time>2026-03-22T18:11:04.957Z</time></trkpt><trkpt lat="53.6279857" lon="-1.8999164"><ele>239.0</ele><time>2026-03-22T18:11:05.956Z</time></trkpt><trkpt lat="53.6278798" lon="-1.8998583"><ele>239.0</ele><time>2026-03-22T18:11:06.956Z</time></trkpt><trkpt lat="53.6277749" lon="-1.8997692"><ele>239.0</ele><time>2026-03-22T18:11:07.957Z</time></trkpt><trkpt lat="53.6276785" lon="-1.8996443"><ele>239.0</ele><time>2026-03-22T18:11:08.957Z</time></trkpt><trkpt lat="53.6275964" lon="-1.8994807"><ele>235.75</ele><time>2026-03-22T18:11:09.959Z</time></trkpt><trkpt lat="53.6275272" lon="-1.8992881"><ele>232.5</ele><time>2026-03-22T18:11:10.956Z</time></trkpt><trkpt lat="53.627467" lon="-1.8990853"><ele>229.25</ele><time>2026-03-22T18:11:11.951Z</time></trkpt><trkpt lat="53.6274082" lon="-1.8988926"><ele>226.0</ele><time>2026-03-22T18:11:12.951Z</time></trkpt><trkpt lat="53.6273465" lon="-1.8987109"><ele>226.0</ele><time>2026-03-22T18:11:13.955Z</time></trkpt><trkpt lat="53.6272889" lon="-1.8985276"><ele>226.0</ele><time>2026-03-22T18:11:14.951Z</time></trkpt><trkpt lat="53.6272305" lon="-1.8983641"><ele>226.0</ele><time>2026-03-22T18:11:15.952Z</time></trkpt><trkpt lat="53.6271761" lon="-1.8982034"><ele>226.0</ele><time>2026-03-22T18:11:16.952Z</time></trkpt><trkpt lat="53.6271216" lon="-1.898037"><ele>226.25</ele><time>2026-03-22T18:11:17.951Z</time></trkpt><trkpt lat="53.6270644" lon="-1.8978629"><ele>226.5</ele><time>2026-03-22T18:11:18.951Z</time></trkpt><trkpt lat="53.6270047" lon="-1.8976813"><ele>226.75</ele><time>2026-03-22T18:11:19.954Z</time></trkpt><trkpt lat="53.6269418" lon="-1.8974904"><ele>227.0</ele><time>2026-03-22T18:11:20.954Z</time></trkpt><trkpt lat="53.6268772" lon="-1.8972984"><ele>221.5</ele><time>2026-03-22T18:11:21.955Z</time></trkpt><trkpt lat="53.6268084" lon="-1.897109"><ele>216.0</ele><time>2026-03-22T18:11:22.952Z</time></trkpt><trkpt lat="53.6267382" lon="-1.8969178"><ele>210.5</ele><time>2026-03-22T18:11:23.954Z</time></trkpt><trkpt lat="53.6266687" lon="-1.8967182"><ele>205.0</ele><time>2026-03-22T18:11:24.954Z</time></trkpt><trkpt lat="53.6265982" lon="-1.8965188"><ele>205.0</ele><time>2026-03-22T18:11:25.952Z</time></trkpt><trkpt lat="53.6265268" lon="-1.8963184"><ele>205.0</ele><time>2026-03-22T18:11:26.953Z</time></trkpt><trkpt lat="53.6264548" lon="-1.8961214"><ele>205.0</ele><time>2026-03-22T18:11:27.954Z</time></trkpt><trkpt lat="53.6263832" lon="-1.8959282"><ele>205.0</ele><time>2026-03-22T18:11:28.951Z</time></trkpt><trkpt lat="53.626315" lon="-1.8957431"><ele>205.75</ele><time>2026-03-22T18:11:29.952Z</time></trkpt><trkpt lat="53.6262459" lon="-1.8955612"><ele>206.5</ele><time>2026-03-22T18:11:30.952Z</time></trkpt><trkpt lat="53.6261827" lon="-1.8953839"><ele>207.25</ele><time>2026-03-22T18:11:31.955Z</time></trkpt><trkpt lat="53.626127" lon="-1.8952089"><ele>208.0</ele><time>2026-03-22T18:11:32.956Z</time></trkpt><trkpt lat="53.6260758" lon="-1.8950342"><ele>205.4</ele><time>2026-03-22T18:11:33.959Z</time></trkpt><trkpt lat="53.6260289" lon="-1.8948619"><ele>202.8</ele><time>2026-03-22T18:11:34.954Z</time></trkpt><trkpt lat="53.6259824" lon="-1.8947046"><ele>200.2</ele><time>2026-03-22T18:11:35.954Z</time></trkpt><trkpt lat="53.6259348" lon="-1.8945719"><ele>197.6</ele><time>2026-03-22T18:11:36.956Z</time></trkpt><trkpt lat="53.6258918" lon="-1.8944603"><ele>195.0</ele><time>2026-03-22T18:11:37.958Z</time></trkpt><trkpt lat="53.6258566" lon="-1.8943678"><ele>195.33333333333334</ele><time>2026-03-22T18:11:38.955Z</time></trkpt><trkpt lat="53.6258086" lon="-1.894253"><ele>195.66666666666669</ele><time>2026-03-22T18:11:40.962Z</time></trkpt><trkpt lat="53.6257859" lon="-1.8941241"><ele>196.0</ele><time>2026-03-22T18:11:44.958Z</time></trkpt><trkpt lat="53.6257381" lon="-1.8939928"><ele>196.33333333333334</ele><time>2026-03-22T18:11:46.953Z</time></trkpt><trkpt lat="53.6257048" lon="-1.8939025"><ele>196.66666666666669</ele><time>2026-03-22T18:11:47.955Z</time></trkpt><trkpt lat="53.6256735" lon="-1.8938083"><ele>197.0</ele><time>2026-03-22T18:11:48.953Z</time></trkpt><trkpt lat="53.6256463" lon="-1.8937021"><ele>197.00000000000003</ele><time>2026-03-22T18:11:49.952Z</time></trkpt><trkpt lat="53.6256204" lon="-1.8935809"><ele>197.0</ele><time>2026-03-22T18:11:50.949Z</time></trkpt><trkpt lat="53.6255975" lon="-1.8934433"><ele>197.0</ele><time>2026-03-22T18:11:51.943Z</time></trkpt><trkpt lat="53.6255775" lon="-1.8932997"><ele>197.0</ele><time>2026-03-22T18:11:52.955Z</time></trkpt><trkpt lat="53.6255602" lon="-1.8931566"><ele>197.00000000000003</ele><time>2026-03-22T18:11:53.953Z</time></trkpt><trkpt lat="53.625545" lon="-1.8930178"><ele>197.0</ele><time>2026-03-22T18:11:54.954Z</time></trkpt><trkpt lat="53.6255273" lon="-1.8928783"><ele>197.00000000000003</ele><time>2026-03-22T18:11:55.953Z</time></trkpt><trkpt lat="53.6255074" lon="-1.8927384"><ele>197.0</ele><time>2026-03-22T18:11:56.945Z</time></trkpt><trkpt lat="53.6254827" lon="-1.8925991"><ele>197.0</ele><time>2026-03-22T18:11:57.955Z</time></trkpt><trkpt lat="53.6254569" lon="-1.8924585"><ele>197.0</ele><time>2026-03-22T18:11:58.955Z</time></trkpt><trkpt lat="53.6254305" lon="-1.8923118"><ele>197.00000000000003</ele><time>2026-03-22T18:11:59.953Z</time></trkpt><trkpt lat="53.6254017" lon="-1.8921555"><ele>197.0</ele><time>2026-03-22T18:12:00.952Z</time></trkpt><trkpt lat="53.6253718" lon="-1.8919853"><ele>197.0</ele><time>2026-03-22T18:12:01.956Z</time></trkpt><trkpt lat="53.6253468" lon="-1.8918042"><ele>197.0</ele><time>2026-03-22T18:12:02.956Z</time></trkpt><trkpt lat="53.6253219" lon="-1.8916296"><ele>197.0</ele><time>2026-03-22T18:12:03.959Z</time></trkpt><trkpt lat="53.6252978" lon="-1.891466"><ele>197.0</ele><time>2026-03-22T18:12:04.956Z</time></trkpt><trkpt lat="53.6252693" lon="-1.8913141"><ele>197.0</ele><time>2026-03-22T18:12:05.952Z</time></trkpt><trkpt lat="53.6252368" lon="-1.891181"><ele>195.00000000000003</ele><time>2026-03-22T18:12:06.956Z</time></trkpt><trkpt lat="53.6252091" lon="-1.8910459"><ele>193.0</ele><time>2026-03-22T18:12:07.956Z</time></trkpt><trkpt lat="53.6251862" lon="-1.8909075"><ele>191.0</ele><time>2026-03-22T18:12:08.957Z</time></trkpt><trkpt lat="53.6251654" lon="-1.8907713"><ele>189.0</ele><time>2026-03-22T18:12:09.956Z</time></trkpt><trkpt lat="53.6251451" lon="-1.8906247"><ele>187.0</ele><time>2026-03-22T18:12:10.955Z</time></trkpt><trkpt lat="53.6251237" lon="-1.8904725"><ele>185.0</ele><time>2026-03-22T18:12:11.953Z</time></trkpt><trkpt lat="53.6251005" lon="-1.8903157"><ele>184.8</ele><time>2026-03-22T18:12:12.953Z</time></trkpt><trkpt lat="53.625081" lon="-1.8901601"><ele>184.6</ele><time>2026-03-22T18:12:13.954Z</time></trkpt><trkpt lat="53.6250669" lon="-1.8900019"><ele>184.39999999999998</ele><time>2026-03-22T18:12:14.955Z</time></trkpt><trkpt lat="53.6250572" lon="-1.8898438"><ele>184.2</ele><time>2026-03-22T18:12:15.958Z</time></trkpt><trkpt lat="53.6250452" lon="-1.8896901"><ele>184.0</ele><time>2026-03-22T18:12:16.952Z</time></trkpt><trkpt lat="53.6250257" lon="-1.8895312"><ele>184.0</ele><time>2026-03-22T18:12:17.953Z</time></trkpt><trkpt lat="53.6250035" lon="-1.8893771"><ele>184.0</ele><time>2026-03-22T18:12:18.952Z</time></trkpt><trkpt lat="53.6249864" lon="-1.889227"><ele>184.0</ele><time>2026-03-22T18:12:19.953Z</time></trkpt><trkpt lat="53.6249683" lon="-1.889074"><ele>184.0</ele><time>2026-03-22T18:12:20.953Z</time></trkpt><trkpt lat="53.6249543" lon="-1.8889202"><ele>184.0</ele><time>2026-03-22T18:12:21.954Z</time></trkpt><trkpt lat="53.6249426" lon="-1.8887666"><ele>183.83333333333334</ele><time>2026-03-22T18:12:22.953Z</time></trkpt><trkpt lat="53.6249291" lon="-1.8886158"><ele>183.66666666666669</ele><time>2026-03-22T18:12:23.953Z</time></trkpt><trkpt lat="53.6249165" lon="-1.8884674"><ele>183.5</ele><time>2026-03-22T18:12:24.953Z</time></trkpt><trkpt lat="53.6249046" lon="-1.8883318"><ele>183.33333333333334</ele><time>2026-03-22T18:12:25.954Z</time></trkpt><trkpt lat="53.6248963" lon="-1.8882091"><ele>183.16666666666666</ele><time>2026-03-22T18:12:26.953Z</time></trkpt><trkpt lat="53.624887" lon="-1.8881017"><ele>183.0</ele><time>2026-03-22T18:12:27.952Z</time></trkpt><trkpt lat="53.6248717" lon="-1.887913"><ele>182.83333333333334</ele><time>2026-03-22T18:12:29.953Z</time></trkpt><trkpt lat="53.62487" lon="-1.8878005"><ele>182.66666666666666</ele><time>2026-03-22T18:12:32.955Z</time></trkpt><trkpt lat="53.624834" lon="-1.8876621"><ele>182.5</ele><time>2026-03-22T18:12:37.955Z</time></trkpt><trkpt lat="53.6248177" lon="-1.8875558"><ele>182.33333333333331</ele><time>2026-03-22T18:12:39.955Z</time></trkpt><trkpt lat="53.6247949" lon="-1.8873976"><ele>182.16666666666666</ele><time>2026-03-22T18:12:41.945Z</time></trkpt><trkpt lat="53.6247414" lon="-1.8872183"><ele>182.0</ele><time>2026-03-22T18:12:43.957Z</time></trkpt><trkpt lat="53.6247037" lon="-1.8871242"><ele>181.83333333333331</ele><time>2026-03-22T18:12:44.952Z</time></trkpt><trkpt lat="53.6246555" lon="-1.8870092"><ele>181.66666666666666</ele><time>2026-03-22T18:12:45.953Z</time></trkpt><trkpt lat="53.6246043" lon="-1.8868873"><ele>181.5</ele><time>2026-03-22T18:12:46.953Z</time></trkpt><trkpt lat="53.6245559" lon="-1.8867718"><ele>181.33333333333334</ele><time>2026-03-22T18:12:47.955Z</time></trkpt><trkpt lat="53.6245057" lon="-1.8866565"><ele>181.16666666666669</ele><time>2026-03-22T18:12:48.953Z</time></trkpt><trkpt lat="53.6244558" lon="-1.8865468"><ele>181.0</ele><time>2026-03-22T18:12:49.953Z</time></trkpt><trkpt lat="53.6244062" lon="-1.8864346"><ele>178.60000000000002</ele><time>2026-03-22T18:12:50.954Z</time></trkpt><trkpt lat="53.6243618" lon="-1.8863154"><ele>176.2</ele><time>2026-03-22T18:12:51.952Z</time></trkpt><trkpt lat="53.6243176" lon="-1.8861794"><ele>173.8</ele><time>2026-03-22T18:12:52.952Z</time></trkpt><trkpt lat="53.6242676" lon="-1.8860233"><ele>171.39999999999998</ele><time>2026-03-22T18:12:53.954Z</time></trkpt><trkpt lat="53.6242184" lon="-1.8858738"><ele>169.0</ele><time>2026-03-22T18:12:54.953Z</time></trkpt><trkpt lat="53.6241688" lon="-1.8857389"><ele>169.0</ele><time>2026-03-22T18:12:55.951Z</time></trkpt><trkpt lat="53.6241239" lon="-1.8856237"><ele>169.0</ele><time>2026-03-22T18:12:56.954Z</time></trkpt><trkpt lat="53.6240795" lon="-1.885521"><ele>169.0</ele><time>2026-03-22T18:12:57.953Z</time></trkpt><trkpt lat="53.6240268" lon="-1.8854213"><ele>169.0</ele><time>2026-03-22T18:12:58.953Z</time></trkpt><trkpt lat="53.6239698" lon="-1.8853217"><ele>169.0</ele><time>2026-03-22T18:12:59.953Z</time></trkpt><trkpt lat="53.6239109" lon="-1.8852195"><ele>169.0</ele><time>2026-03-22T18:13:00.952Z</time></trkpt><trkpt lat="53.6238501" lon="-1.8851214"><ele>169.5</ele><time>2026-03-22T18:13:01.953Z</time></trkpt><trkpt lat="53.6237901" lon="-1.885029"><ele>170.0</ele><time>2026-03-22T18:13:02.955Z</time></trkpt><trkpt lat="53.6237328" lon="-1.8849351"><ele>170.5</ele><time>2026-03-22T18:13:03.956Z</time></trkpt><trkpt lat="53.6236749" lon="-1.884837"><ele>171.0</ele><time>2026-03-22T18:13:04.956Z</time></trkpt><trkpt lat="53.6236176" lon="-1.8847302"><ele>171.5</ele><time>2026-03-22T18:13:05.953Z</time></trkpt><trkpt lat="53.6235588" lon="-1.8846276"><ele>172.0</ele><time>2026-03-22T18:13:06.954Z</time></trkpt><trkpt lat="53.6234996" lon="-1.8845442"><ele>170.14285714285717</ele><time>2026-03-22T18:13:07.956Z</time></trkpt><trkpt lat="53.6234401" lon="-1.8844657"><ele>168.28571428571428</ele><time>2026-03-22T18:13:08.959Z</time></trkpt><trkpt lat="53.6233804" lon="-1.8843922"><ele>166.42857142857144</ele><time>2026-03-22T18:13:09.954Z</time></trkpt><trkpt lat="53.6233228" lon="-1.8843257"><ele>164.57142857142858</ele><time>2026-03-22T18:13:10.956Z</time></trkpt><trkpt lat="53.62327" lon="-1.8842596"><ele>162.71428571428572</ele><time>2026-03-22T18:13:11.953Z</time></trkpt><trkpt lat="53.6232143" lon="-1.8841896"><ele>160.85714285714286</ele><time>2026-03-22T18:13:12.953Z</time></trkpt><trkpt lat="53.6231502" lon="-1.8841219"><ele>159.0</ele><time>2026-03-22T18:13:13.957Z</time></trkpt><trkpt lat="53.6230965" lon="-1.8840536"><ele>159.0</ele><time>2026-03-22T18:13:14.957Z</time></trkpt><trkpt lat="53.6230459" lon="-1.883974"><ele>159.0</ele><time>2026-03-22T18:13:15.961Z</time></trkpt><trkpt lat="53.6229965" lon="-1.883901"><ele>159.0</ele><time>2026-03-22T18:13:16.955Z</time></trkpt><trkpt lat="53.6229074" lon="-1.8837867"><ele>159.0</ele><time>2026-03-22T18:13:18.953Z</time></trkpt><trkpt lat="53.6228154" lon="-1.883687"><ele>159.0</ele><time>2026-03-22T18:13:20.956Z</time></trkpt><trkpt lat="53.6227183" lon="-1.8835609"><ele>156.0</ele><time>2026-03-22T18:13:22.951Z</time></trkpt><trkpt lat="53.6226444" lon="-1.8834046"><ele>153.0</ele><time>2026-03-22T18:13:24.95Z</time></trkpt><trkpt lat="53.6225947" lon="-1.8832414"><ele>150.0</ele><time>2026-03-22T18:13:26.953Z</time></trkpt><trkpt lat="53.622566" lon="-1.883119"><ele>147.0</ele><time>2026-03-22T18:13:28.953Z</time></trkpt><trkpt lat="53.6225426" lon="-1.8829669"><ele>144.0</ele><time>2026-03-22T18:13:31.957Z</time></trkpt><trkpt lat="53.6224965" lon="-1.8828072"><ele>144.0</ele><time>2026-03-22T18:13:33.955Z</time></trkpt><trkpt lat="53.6224434" lon="-1.882626"><ele>144.0</ele><time>2026-03-22T18:13:35.955Z</time></trkpt><trkpt lat="53.6224031" lon="-1.8824422"><ele>144.0</ele><time>2026-03-22T18:13:37.956Z</time></trkpt><trkpt lat="53.6223853" lon="-1.882259"><ele>144.0</ele><time>2026-03-22T18:13:39.954Z</time></trkpt><trkpt lat="53.6223899" lon="-1.882092"><ele>144.0</ele><time>2026-03-22T18:13:41.952Z</time></trkpt><trkpt lat="53.6224037" lon="-1.8819667"><ele>144.00000000000003</ele><time>2026-03-22T18:13:43.953Z</time></trkpt><trkpt lat="53.6224356" lon="-1.8818619"><ele>144.0</ele><time>2026-03-22T18:13:48.955Z</time></trkpt><trkpt lat="53.6224555" lon="-1.8817281"><ele>144.0</ele><time>2026-03-22T18:13:52.952Z</time></trkpt><trkpt lat="53.6224763" lon="-1.8816236"><ele>144.0</ele><time>2026-03-22T18:13:54.956Z</time></trkpt><trkpt lat="53.6225094" lon="-1.8815065"><ele>144.0</ele><time>2026-03-22T18:13:56.953Z</time></trkpt><trkpt lat="53.6225219" lon="-1.8814001"><ele>144.00000000000003</ele><time>2026-03-22T18:13:58.953Z</time></trkpt><trkpt lat="53.6224642" lon="-1.8812979"><ele>144.0</ele><time>2026-03-22T18:14:00.954Z</time></trkpt><trkpt lat="53.6223976" lon="-1.8812551"><ele>143.4</ele><time>2026-03-22T18:14:01.956Z</time></trkpt><trkpt lat="53.6223154" lon="-1.8812151"><ele>142.8</ele><time>2026-03-22T18:14:02.958Z</time></trkpt><trkpt lat="53.6222308" lon="-1.8811677"><ele>142.2</ele><time>2026-03-22T18:14:03.957Z</time></trkpt><trkpt lat="53.6221494" lon="-1.8811221"><ele>141.6</ele><time>2026-03-22T18:14:04.959Z</time></trkpt><trkpt lat="53.6220633" lon="-1.8810688"><ele>141.0</ele><time>2026-03-22T18:14:05.96Z</time></trkpt><trkpt lat="53.6219709" lon="-1.881012"><ele>140.6</ele><time>2026-03-22T18:14:06.958Z</time></trkpt><trkpt lat="53.6218717" lon="-1.8809521"><ele>140.2</ele><time>2026-03-22T18:14:07.955Z</time></trkpt><trkpt lat="53.6217653" lon="-1.8808898"><ele>139.8</ele><time>2026-03-22T18:14:08.961Z</time></trkpt><trkpt lat="53.62166" lon="-1.8808211"><ele>139.4</ele><time>2026-03-22T18:14:09.958Z</time></trkpt><trkpt lat="53.6215632" lon="-1.880755"><ele>139.0</ele><time>2026-03-22T18:14:10.955Z</time></trkpt><trkpt lat="53.6214839" lon="-1.8807046"><ele>139.0</ele><time>2026-03-22T18:14:11.954Z</time></trkpt><trkpt lat="53.6214165" lon="-1.880655"><ele>139.0</ele><time>2026-03-22T18:14:12.951Z</time></trkpt><trkpt lat="53.6213502" lon="-1.8806112"><ele>139.0</ele><time>2026-03-22T18:14:13.952Z</time></trkpt><trkpt lat="53.6212725" lon="-1.8805717"><ele>139.0</ele><time>2026-03-22T18:14:14.953Z</time></trkpt><trkpt lat="53.6211848" lon="-1.8805272"><ele>139.0</ele><time>2026-03-22T18:14:15.953Z</time></trkpt><trkpt lat="53.6211023" lon="-1.8804669"><ele>139.0</ele><time>2026-03-22T18:14:16.953Z</time></trkpt><trkpt lat="53.6210316" lon="-1.8803727"><ele>140.66666666666669</ele><time>2026-03-22T18:14:17.953Z</time></trkpt><trkpt lat="53.620976" lon="-1.8802405"><ele>142.33333333333334</ele><time>2026-03-22T18:14:18.96Z</time></trkpt><trkpt lat="53.6209414" lon="-1.8800983"><ele>144.0</ele><time>2026-03-22T18:14:19.956Z</time></trkpt><trkpt lat="53.6209286" lon="-1.8799681"><ele>145.66666666666666</ele><time>2026-03-22T18:14:20.954Z</time></trkpt><trkpt lat="53.6209296" lon="-1.8798463"><ele>147.33333333333331</ele><time>2026-03-22T18:14:21.955Z</time></trkpt><trkpt lat="53.6209383" lon="-1.8797188"><ele>149.0</ele><time>2026-03-22T18:14:22.957Z</time></trkpt><trkpt lat="53.6209484" lon="-1.8795774"><ele>149.0</ele><time>2026-03-22T18:14:23.953Z</time></trkpt><trkpt lat="53.62097" lon="-1.8794295"><ele>149.0</ele><time>2026-03-22T18:14:24.954Z</time></trkpt><trkpt lat="53.621002" lon="-1.8792977"><ele>149.0</ele><time>2026-03-22T18:14:25.955Z</time></trkpt><trkpt lat="53.6210412" lon="-1.8791847"><ele>149.0</ele><time>2026-03-22T18:14:26.954Z</time></trkpt><trkpt lat="53.6210878" lon="-1.8790622"><ele>149.0</ele><time>2026-03-22T18:14:27.957Z</time></trkpt><trkpt lat="53.6211447" lon="-1.878916"><ele>149.0</ele><time>2026-03-22T18:14:28.957Z</time></trkpt><trkpt lat="53.6212128" lon="-1.878745"><ele>147.0</ele><time>2026-03-22T18:14:29.955Z</time></trkpt><trkpt lat="53.6212874" lon="-1.8785591"><ele>145.0</ele><time>2026-03-22T18:14:30.956Z</time></trkpt><trkpt lat="53.6213639" lon="-1.8783743"><ele>143.0</ele><time>2026-03-22T18:14:31.955Z</time></trkpt><trkpt lat="53.6214391" lon="-1.8781928"><ele>141.0</ele><time>2026-03-22T18:14:32.954Z</time></trkpt><trkpt lat="53.6215081" lon="-1.8780202"><ele>141.0</ele><time>2026-03-22T18:14:33.961Z</time></trkpt><trkpt lat="53.6215749" lon="-1.8778485"><ele>141.0</ele><time>2026-03-22T18:14:34.956Z</time></trkpt><trkpt lat="53.6216332" lon="-1.8776744"><ele>141.0</ele><time>2026-03-22T18:14:35.959Z</time></trkpt><trkpt lat="53.621682" lon="-1.8774911"><ele>141.0</ele><time>2026-03-22T18:14:36.958Z</time></trkpt><trkpt lat="53.6217214" lon="-1.8772974"><ele>142.0</ele><time>2026-03-22T18:14:37.956Z</time></trkpt><trkpt lat="53.6217532" lon="-1.8770982"><ele>143.0</ele><time>2026-03-22T18:14:38.96Z</time></trkpt><trkpt lat="53.6217783" lon="-1.8768938"><ele>144.0</ele><time>2026-03-22T18:14:39.959Z</time></trkpt><trkpt lat="53.621806" lon="-1.8766943"><ele>145.0</ele><time>2026-03-22T18:14:40.957Z</time></trkpt><trkpt lat="53.621842" lon="-1.8764885"><ele>146.75</ele><time>2026-03-22T18:14:41.954Z</time></trkpt><trkpt lat="53.6218821" lon="-1.8762748"><ele>148.5</ele><time>2026-03-22T18:14:42.956Z</time></trkpt><trkpt lat="53.6219246" lon="-1.8760551"><ele>150.25</ele><time>2026-03-22T18:14:43.954Z</time></trkpt><trkpt lat="53.6219679" lon="-1.8758294"><ele>152.0</ele><time>2026-03-22T18:14:44.954Z</time></trkpt><trkpt lat="53.6220095" lon="-1.8756062"><ele>149.5</ele><time>2026-03-22T18:14:45.955Z</time></trkpt><trkpt lat="53.6220478" lon="-1.8753805"><ele>147.0</ele><time>2026-03-22T18:14:46.954Z</time></trkpt><trkpt lat="53.6220785" lon="-1.8751505"><ele>144.5</ele><time>2026-03-22T18:14:47.953Z</time></trkpt><trkpt lat="53.6221002" lon="-1.8749242"><ele>142.0</ele><time>2026-03-22T18:14:48.954Z</time></trkpt><trkpt lat="53.6221152" lon="-1.8747014"><ele>142.0</ele><time>2026-03-22T18:14:49.954Z</time></trkpt><trkpt lat="53.622126" lon="-1.874502"><ele>142.0</ele><time>2026-03-22T18:14:50.953Z</time></trkpt><trkpt lat="53.6221359" lon="-1.8743346"><ele>142.0</ele><time>2026-03-22T18:14:51.953Z</time></trkpt><trkpt lat="53.6221427" lon="-1.8741962"><ele>142.0</ele><time>2026-03-22T18:14:52.954Z</time></trkpt><trkpt lat="53.6221465" lon="-1.8740818"><ele>142.0</ele><time>2026-03-22T18:14:53.956Z</time></trkpt><trkpt lat="53.6221336" lon="-1.8738772"><ele>142.4</ele><time>2026-03-22T18:14:55.956Z</time></trkpt><trkpt lat="53.622087" lon="-1.873783"><ele>142.79999999999998</ele><time>2026-03-22T18:14:56.956Z</time></trkpt><trkpt lat="53.6220196" lon="-1.8737007"><ele>143.2</ele><time>2026-03-22T18:14:57.955Z</time></trkpt><trkpt lat="53.6219409" lon="-1.8736101"><ele>143.6</ele><time>2026-03-22T18:14:58.954Z</time></trkpt><trkpt lat="53.6218446" lon="-1.8735206"><ele>144.0</ele><time>2026-03-22T18:14:59.954Z</time></trkpt><trkpt lat="53.6217378" lon="-1.8734587"><ele>147.2</ele><time>2026-03-22T18:15:00.954Z</time></trkpt><trkpt lat="53.6216255" lon="-1.8734328"><ele>150.4</ele><time>2026-03-22T18:15:01.957Z</time></trkpt><trkpt lat="53.6215283" lon="-1.8734643"><ele>153.6</ele><time>2026-03-22T18:15:02.957Z</time></trkpt><trkpt lat="53.6214373" lon="-1.8735431"><ele>156.8</ele><time>2026-03-22T18:15:03.956Z</time></trkpt><trkpt lat="53.6213413" lon="-1.873646"><ele>160.0</ele><time>2026-03-22T18:15:04.953Z</time></trkpt><trkpt lat="53.6212353" lon="-1.8737435"><ele>162.75</ele><time>2026-03-22T18:15:05.955Z</time></trkpt><trkpt lat="53.6211246" lon="-1.873817"><ele>165.5</ele><time>2026-03-22T18:15:06.958Z</time></trkpt><trkpt lat="53.6210077" lon="-1.8738587"><ele>168.25</ele><time>2026-03-22T18:15:07.957Z</time></trkpt><trkpt lat="53.6208853" lon="-1.8738766"><ele>171.0</ele><time>2026-03-22T18:15:08.958Z</time></trkpt><trkpt lat="53.6207551" lon="-1.8738838"><ele>171.0</ele><time>2026-03-22T18:15:09.957Z</time></trkpt><trkpt lat="53.6206274" lon="-1.8738845"><ele>171.0</ele><time>2026-03-22T18:15:10.957Z</time></trkpt><trkpt lat="53.6205066" lon="-1.8738832"><ele>171.0</ele><time>2026-03-22T18:15:11.954Z</time></trkpt><trkpt lat="53.6203948" lon="-1.8738633"><ele>171.0</ele><time>2026-03-22T18:15:12.955Z</time></trkpt><trkpt lat="53.6202867" lon="-1.8738203"><ele>173.0</ele><time>2026-03-22T18:15:13.956Z</time></trkpt><trkpt lat="53.6201721" lon="-1.8737511"><ele>175.0</ele><time>2026-03-22T18:15:14.955Z</time></trkpt><trkpt lat="53.620055" lon="-1.8736714"><ele>177.0</ele><time>2026-03-22T18:15:15.954Z</time></trkpt><trkpt lat="53.6199336" lon="-1.87358"><ele>179.0</ele><time>2026-03-22T18:15:16.955Z</time></trkpt><trkpt lat="53.6198072" lon="-1.8734842"><ele>179.75</ele><time>2026-03-22T18:15:17.953Z</time></trkpt><trkpt lat="53.6196732" lon="-1.8733978"><ele>180.5</ele><time>2026-03-22T18:15:18.955Z</time></trkpt><trkpt lat="53.6195408" lon="-1.8733468"><ele>181.25</ele><time>2026-03-22T18:15:19.955Z</time></trkpt><trkpt lat="53.6194199" lon="-1.8733051"><ele>182.0</ele><time>2026-03-22T18:15:20.952Z</time></trkpt><trkpt lat="53.6193157" lon="-1.8732794"><ele>184.2</ele><time>2026-03-22T18:15:21.954Z</time></trkpt><trkpt lat="53.6192369" lon="-1.8732464"><ele>186.39999999999998</ele><time>2026-03-22T18:15:22.957Z</time></trkpt><trkpt lat="53.6191835" lon="-1.8730547"><ele>188.60000000000002</ele><time>2026-03-22T18:15:24.955Z</time></trkpt><trkpt lat="53.6192092" lon="-1.8729016"><ele>190.8</ele><time>2026-03-22T18:15:25.952Z</time></trkpt><trkpt lat="53.6192543" lon="-1.8727287"><ele>193.0</ele><time>2026-03-22T18:15:26.953Z</time></trkpt><trkpt lat="53.6192746" lon="-1.8725604"><ele>194.4</ele><time>2026-03-22T18:15:27.951Z</time></trkpt><trkpt lat="53.6192528" lon="-1.8724061"><ele>195.8</ele><time>2026-03-22T18:15:28.95Z</time></trkpt><trkpt lat="53.6191827" lon="-1.8722885"><ele>197.2</ele><time>2026-03-22T18:15:29.954Z</time></trkpt><trkpt lat="53.619091" lon="-1.8722027"><ele>198.6</ele><time>2026-03-22T18:15:30.955Z</time></trkpt><trkpt lat="53.6189905" lon="-1.8721366"><ele>200.0</ele><time>2026-03-22T18:15:31.955Z</time></trkpt><trkpt lat="53.618889" lon="-1.8721062"><ele>200.0</ele><time>2026-03-22T18:15:32.958Z</time></trkpt><trkpt lat="53.6187886" lon="-1.872125"><ele>200.0</ele><time>2026-03-22T18:15:33.957Z</time></trkpt><trkpt lat="53.6186823" lon="-1.8722006"><ele>200.0</ele><time>2026-03-22T18:15:34.956Z</time></trkpt><trkpt lat="53.6185733" lon="-1.8723158"><ele>200.0</ele><time>2026-03-22T18:15:35.96Z</time></trkpt><trkpt lat="53.6184671" lon="-1.8724402"><ele>202.4</ele><time>2026-03-22T18:15:36.961Z</time></trkpt><trkpt lat="53.6183569" lon="-1.8725428"><ele>204.8</ele><time>2026-03-22T18:15:37.957Z</time></trkpt><trkpt lat="53.61827" lon="-1.8725891"><ele>207.2</ele><time>2026-03-22T18:15:38.963Z</time></trkpt><trkpt lat="53.6181865" lon="-1.8725774"><ele>209.6</ele><time>2026-03-22T18:15:39.962Z</time></trkpt><trkpt lat="53.6181009" lon="-1.8725051"><ele>212.0</ele><time>2026-03-22T18:15:40.96Z</time></trkpt><trkpt lat="53.6180207" lon="-1.8723854"><ele>212.0</ele><time>2026-03-22T18:15:41.956Z</time></trkpt><trkpt lat="53.6179387" lon="-1.8722367"><ele>212.0</ele><time>2026-03-22T18:15:42.956Z</time></trkpt><trkpt lat="53.6178431" lon="-1.8720742"><ele>212.0</ele><time>2026-03-22T18:15:43.96Z</time></trkpt><trkpt lat="53.617728" lon="-1.8719199"><ele>212.0</ele><time>2026-03-22T18:15:44.958Z</time></trkpt><trkpt lat="53.6176116" lon="-1.8717817"><ele>213.66666666666669</ele><time>2026-03-22T18:15:45.957Z</time></trkpt><trkpt lat="53.6175167" lon="-1.8716785"><ele>215.33333333333334</ele><time>2026-03-22T18:15:46.956Z</time></trkpt><trkpt lat="53.6174442" lon="-1.8716024"><ele>217.0</ele><time>2026-03-22T18:15:47.955Z</time></trkpt><trkpt lat="53.6173777" lon="-1.871535"><ele>218.66666666666669</ele><time>2026-03-22T18:15:48.956Z</time></trkpt><trkpt lat="53.617343" lon="-1.8714449"><ele>220.33333333333334</ele><time>2026-03-22T18:15:49.957Z</time></trkpt><trkpt lat="53.6173419" lon="-1.8713273"><ele>222.0</ele><time>2026-03-22T18:15:50.956Z</time></trkpt><trkpt lat="53.6173708" lon="-1.8711764"><ele>222.0</ele><time>2026-03-22T18:15:51.958Z</time></trkpt><trkpt lat="53.6174152" lon="-1.8709639"><ele>222.0</ele><time>2026-03-22T18:15:52.957Z</time></trkpt><trkpt lat="53.6174592" lon="-1.8707084"><ele>222.0</ele><time>2026-03-22T18:15:53.956Z</time></trkpt><trkpt lat="53.6174918" lon="-1.8704127"><ele>224.66666666666669</ele><time>2026-03-22T18:15:54.956Z</time></trkpt><trkpt lat="53.6175111" lon="-1.8700737"><ele>227.33333333333334</ele><time>2026-03-22T18:15:55.958Z</time></trkpt><trkpt lat="53.6175205" lon="-1.8697273"><ele>230.0</ele><time>2026-03-22T18:15:56.959Z</time></trkpt><trkpt lat="53.6175296" lon="-1.8694108"><ele>231.25</ele><time>2026-03-22T18:15:57.955Z</time></trkpt><trkpt lat="53.617537" lon="-1.869123"><ele>232.5</ele><time>2026-03-22T18:15:58.955Z</time></trkpt><trkpt lat="53.6175377" lon="-1.8688783"><ele>233.75</ele><time>2026-03-22T18:15:59.956Z</time></trkpt><trkpt lat="53.6175307" lon="-1.8686596"><ele>235.0</ele><time>2026-03-22T18:16:00.956Z</time></trkpt><trkpt lat="53.617504" lon="-1.8684601"><ele>236.25</ele><time>2026-03-22T18:16:01.958Z</time></trkpt><trkpt lat="53.6174509" lon="-1.8682813"><ele>237.5</ele><time>2026-03-22T18:16:02.958Z</time></trkpt><trkpt lat="53.6173731" lon="-1.8681279"><ele>238.75</ele><time>2026-03-22T18:16:03.958Z</time></trkpt><trkpt lat="53.6172839" lon="-1.8679849"><ele>240.0</ele><time>2026-03-22T18:16:04.958Z</time></trkpt><trkpt lat="53.6171977" lon="-1.8678547"><ele>240.0</ele><time>2026-03-22T18:16:05.957Z</time></trkpt><trkpt lat="53.6171317" lon="-1.8677001"><ele>240.0</ele><time>2026-03-22T18:16:06.957Z</time></trkpt><trkpt lat="53.6170789" lon="-1.8675132"><ele>240.0</ele><time>2026-03-22T18:16:07.957Z</time></trkpt><trkpt lat="53.6170433" lon="-1.867321"><ele>240.0</ele><time>2026-03-22T18:16:08.958Z</time></trkpt><trkpt lat="53.6170299" lon="-1.8671501"><ele>240.33333333333334</ele><time>2026-03-22T18:16:09.957Z</time></trkpt><trkpt lat="53.6170346" lon="-1.8670047"><ele>240.66666666666669</ele><time>2026-03-22T18:16:10.957Z</time></trkpt><trkpt lat="53.6170464" lon="-1.8668934"><ele>241.0</ele><time>2026-03-22T18:16:11.956Z</time></trkpt><trkpt lat="53.6170726" lon="-1.8667689"><ele>241.33333333333334</ele><time>2026-03-22T18:16:13.958Z</time></trkpt><trkpt lat="53.6170208" lon="-1.8666983"><ele>241.66666666666669</ele><time>2026-03-22T18:16:16.956Z</time></trkpt><trkpt lat="53.6169614" lon="-1.8667485"><ele>242.0</ele><time>2026-03-22T18:16:17.955Z</time></trkpt><trkpt lat="53.6168875" lon="-1.8668448"><ele>244.0</ele><time>2026-03-22T18:16:18.958Z</time></trkpt><trkpt lat="53.6167864" lon="-1.86698"><ele>246.0</ele><time>2026-03-22T18:16:19.955Z</time></trkpt><trkpt lat="53.6166685" lon="-1.8671248"><ele>248.0</ele><time>2026-03-22T18:16:20.959Z</time></trkpt><trkpt lat="53.616557" lon="-1.8672556"><ele>250.0</ele><time>2026-03-22T18:16:21.955Z</time></trkpt><trkpt lat="53.6164441" lon="-1.8673745"><ele>250.0</ele><time>2026-03-22T18:16:22.954Z</time></trkpt><trkpt lat="53.6163344" lon="-1.8674793"><ele>250.0</ele><time>2026-03-22T18:16:23.955Z</time></trkpt><trkpt lat="53.616227" lon="-1.8675811"><ele>250.0</ele><time>2026-03-22T18:16:24.958Z</time></trkpt><trkpt lat="53.6161158" lon="-1.8676811"><ele>250.0</ele><time>2026-03-22T18:16:25.957Z</time></trkpt><trkpt lat="53.6160049" lon="-1.8677837"><ele>251.25</ele><time>2026-03-22T18:16:26.957Z</time></trkpt><trkpt lat="53.6158926" lon="-1.8678897"><ele>252.5</ele><time>2026-03-22T18:16:27.955Z</time></trkpt><trkpt lat="53.6157809" lon="-1.8679924"><ele>253.75</ele><time>2026-03-22T18:16:28.957Z</time></trkpt><trkpt lat="53.6156684" lon="-1.8680858"><ele>255.0</ele><time>2026-03-22T18:16:29.954Z</time></trkpt><trkpt lat="53.6155565" lon="-1.8681895"><ele>255.0</ele><time>2026-03-22T18:16:30.955Z</time></trkpt><trkpt lat="53.6154441" lon="-1.8683"><ele>255.0</ele><time>2026-03-22T18:16:31.956Z</time></trkpt><trkpt lat="53.6153303" lon="-1.8684218"><ele>255.0</ele><time>2026-03-22T18:16:32.956Z</time></trkpt><trkpt lat="53.6152204" lon="-1.8685516"><ele>255.0</ele><time>2026-03-22T18:16:33.956Z</time></trkpt><trkpt lat="53.6151092" lon="-1.8686925"><ele>256.0</ele><time>2026-03-22T18:16:34.955Z</time></trkpt><trkpt lat="53.6149972" lon="-1.8688371"><ele>257.0</ele><time>2026-03-22T18:16:35.954Z</time></trkpt><trkpt lat="53.6148834" lon="-1.8689764"><ele>258.0</ele><time>2026-03-22T18:16:36.954Z</time></trkpt><trkpt lat="53.6147707" lon="-1.8691132"><ele>259.0</ele><time>2026-03-22T18:16:37.948Z</time></trkpt><trkpt lat="53.6146605" lon="-1.8692511"><ele>258.5</ele><time>2026-03-22T18:16:38.954Z</time></trkpt><trkpt lat="53.6145556" lon="-1.86938"><ele>258.0</ele><time>2026-03-22T18:16:39.952Z</time></trkpt><trkpt lat="53.6144565" lon="-1.8694923"><ele>257.5</ele><time>2026-03-22T18:16:40.953Z</time></trkpt><trkpt lat="53.6143598" lon="-1.8695944"><ele>257.0</ele><time>2026-03-22T18:16:41.954Z</time></trkpt><trkpt lat="53.6142576" lon="-1.8696949"><ele>258.25</ele><time>2026-03-22T18:16:42.953Z</time></trkpt><trkpt lat="53.6141481" lon="-1.8697895"><ele>259.5</ele><time>2026-03-22T18:16:43.956Z</time></trkpt><trkpt lat="53.6140326" lon="-1.8698816"><ele>260.75</ele><time>2026-03-22T18:16:44.954Z</time></trkpt><trkpt lat="53.6139129" lon="-1.8699664"><ele>262.0</ele><time>2026-03-22T18:16:45.954Z</time></trkpt><trkpt lat="53.6137873" lon="-1.8700449"><ele>261.25</ele><time>2026-03-22T18:16:46.957Z</time></trkpt><trkpt lat="53.613664" lon="-1.8701157"><ele>260.5</ele><time>2026-03-22T18:16:47.954Z</time></trkpt><trkpt lat="53.6135348" lon="-1.8701949"><ele>259.75</ele><time>2026-03-22T18:16:48.954Z</time></trkpt><trkpt lat="53.6134055" lon="-1.8702792"><ele>259.0</ele><time>2026-03-22T18:16:49.953Z</time></trkpt><trkpt lat="53.6132793" lon="-1.8703638"><ele>260.8</ele><time>2026-03-22T18:16:50.954Z</time></trkpt><trkpt lat="53.6131589" lon="-1.8704379"><ele>262.59999999999997</ele><time>2026-03-22T18:16:51.952Z</time></trkpt><trkpt lat="53.6130539" lon="-1.870513"><ele>264.4</ele><time>2026-03-22T18:16:52.954Z</time></trkpt><trkpt lat="53.6129637" lon="-1.8705705"><ele>266.2</ele><time>2026-03-22T18:16:53.955Z</time></trkpt><trkpt lat="53.6128921" lon="-1.8706172"><ele>268.0</ele><time>2026-03-22T18:16:54.953Z</time></trkpt><trkpt lat="53.612808" lon="-1.870702"><ele>268.0</ele><time>2026-03-22T18:16:56.955Z</time></trkpt><trkpt lat="53.6127595" lon="-1.8708065"><ele>268.0</ele><time>2026-03-22T18:16:59.952Z</time></trkpt><trkpt lat="53.6127283" lon="-1.8706511"><ele>268.0</ele><time>2026-03-22T18:17:02.95Z</time></trkpt><trkpt lat="53.6127666" lon="-1.8705486"><ele>268.0</ele><time>2026-03-22T18:17:03.955Z</time></trkpt><trkpt lat="53.6128328" lon="-1.8704182"><ele>268.0</ele><time>2026-03-22T18:17:04.955Z</time></trkpt><trkpt lat="53.6129202" lon="-1.8702568"><ele>269.66666666666663</ele><time>2026-03-22T18:17:05.954Z</time></trkpt><trkpt lat="53.6130162" lon="-1.8700674"><ele>271.3333333333333</ele><time>2026-03-22T18:17:06.953Z</time></trkpt><trkpt lat="53.613116" lon="-1.8698569"><ele>273.0</ele><time>2026-03-22T18:17:07.953Z</time></trkpt><trkpt lat="53.6132134" lon="-1.8696289"><ele>273.0</ele><time>2026-03-22T18:17:08.96Z</time></trkpt><trkpt lat="53.6133001" lon="-1.8693971"><ele>273.0</ele><time>2026-03-22T18:17:09.957Z</time></trkpt><trkpt lat="53.6133685" lon="-1.8691656"><ele>273.0</ele><time>2026-03-22T18:17:10.958Z</time></trkpt><trkpt lat="53.6134118" lon="-1.8689467"><ele>274.8</ele><time>2026-03-22T18:17:11.954Z</time></trkpt><trkpt lat="53.6134397" lon="-1.868765"><ele>276.6</ele><time>2026-03-22T18:17:12.955Z</time></trkpt><trkpt lat="53.6134602" lon="-1.8686011"><ele>278.4</ele><time>2026-03-22T18:17:13.956Z</time></trkpt><trkpt lat="53.6134731" lon="-1.8684304"><ele>280.2</ele><time>2026-03-22T18:17:14.954Z</time></trkpt><trkpt lat="53.6134833" lon="-1.8682743"><ele>282.0</ele><time>2026-03-22T18:17:15.952Z</time></trkpt><trkpt lat="53.6134955" lon="-1.8681485"><ele>283.0</ele><time>2026-03-22T18:17:16.954Z</time></trkpt><trkpt lat="53.6134954" lon="-1.8679871"><ele>284.0</ele><time>2026-03-22T18:17:18.957Z</time></trkpt><trkpt lat="53.6134075" lon="-1.8678861"><ele>285.0</ele><time>2026-03-22T18:17:20.961Z</time></trkpt><trkpt lat="53.6133181" lon="-1.8678599"><ele>286.0</ele><time>2026-03-22T18:17:21.961Z</time></trkpt><trkpt lat="53.6132092" lon="-1.8678399"><ele>287.0</ele><time>2026-03-22T18:17:22.956Z</time></trkpt><trkpt lat="53.6130699" lon="-1.8678115"><ele>287.0</ele><time>2026-03-22T18:17:23.957Z</time></trkpt><trkpt lat="53.6129084" lon="-1.8677736"><ele>287.0</ele><time>2026-03-22T18:17:24.955Z</time></trkpt><trkpt lat="53.6127187" lon="-1.8677164"><ele>287.0</ele><time>2026-03-22T18:17:25.957Z</time></trkpt><trkpt lat="53.6125162" lon="-1.8676631"><ele>287.6666666666667</ele><time>2026-03-22T18:17:26.959Z</time></trkpt><trkpt lat="53.6123137" lon="-1.8676149"><ele>288.3333333333333</ele><time>2026-03-22T18:17:27.956Z</time></trkpt><trkpt lat="53.6121139" lon="-1.8675587"><ele>289.0</ele><time>2026-03-22T18:17:28.96Z</time></trkpt><trkpt lat="53.6119192" lon="-1.8675065"><ele>289.66666666666663</ele><time>2026-03-22T18:17:29.957Z</time></trkpt><trkpt lat="53.6117293" lon="-1.867448"><ele>290.3333333333333</ele><time>2026-03-22T18:17:30.959Z</time></trkpt><trkpt lat="53.6115468" lon="-1.8673892"><ele>291.0</ele><time>2026-03-22T18:17:31.959Z</time></trkpt><trkpt lat="53.6113668" lon="-1.86733"><ele>291.0</ele><time>2026-03-22T18:17:32.96Z</time></trkpt><trkpt lat="53.6111852" lon="-1.8672718"><ele>291.0</ele><time>2026-03-22T18:17:33.96Z</time></trkpt><trkpt lat="53.6110031" lon="-1.8672174"><ele>291.0</ele><time>2026-03-22T18:17:34.96Z</time></trkpt><trkpt lat="53.6108144" lon="-1.8671624"><ele>291.0</ele><time>2026-03-22T18:17:35.959Z</time></trkpt><trkpt lat="53.6106259" lon="-1.8671107"><ele>291.0</ele><time>2026-03-22T18:17:36.962Z</time></trkpt><trkpt lat="53.6104302" lon="-1.8670456"><ele>291.0</ele><time>2026-03-22T18:17:37.96Z</time></trkpt><trkpt lat="53.610227" lon="-1.8669686"><ele>291.3333333333333</ele><time>2026-03-22T18:17:38.96Z</time></trkpt><trkpt lat="53.6100264" lon="-1.8668934"><ele>291.66666666666663</ele><time>2026-03-22T18:17:39.957Z</time></trkpt><trkpt lat="53.6098275" lon="-1.8668178"><ele>292.0</ele><time>2026-03-22T18:17:40.957Z</time></trkpt><trkpt lat="53.6096199" lon="-1.8667448"><ele>290.66666666666663</ele><time>2026-03-22T18:17:41.957Z</time></trkpt><trkpt lat="53.6094043" lon="-1.8666752"><ele>289.3333333333333</ele><time>2026-03-22T18:17:42.96Z</time></trkpt><trkpt lat="53.6091836" lon="-1.8666033"><ele>288.0</ele><time>2026-03-22T18:17:43.96Z</time></trkpt><trkpt lat="53.6089635" lon="-1.866529"><ele>288.0</ele><time>2026-03-22T18:17:44.958Z</time></trkpt><trkpt lat="53.6087416" lon="-1.8664519"><ele>288.0</ele><time>2026-03-22T18:17:45.959Z</time></trkpt><trkpt lat="53.6085245" lon="-1.8663805"><ele>288.0</ele><time>2026-03-22T18:17:46.961Z</time></trkpt><trkpt lat="53.6083179" lon="-1.8663168"><ele>287.0</ele><time>2026-03-22T18:17:47.954Z</time></trkpt><trkpt lat="53.6081281" lon="-1.8662625"><ele>286.0</ele><time>2026-03-22T18:17:48.956Z</time></trkpt><trkpt lat="53.6079546" lon="-1.8662193"><ele>285.0</ele><time>2026-03-22T18:17:49.955Z</time></trkpt><trkpt lat="53.6077983" lon="-1.8661651"><ele>285.0</ele><time>2026-03-22T18:17:50.959Z</time></trkpt><trkpt lat="53.6076539" lon="-1.8661073"><ele>285.0</ele><time>2026-03-22T18:17:51.962Z</time></trkpt><trkpt lat="53.6075176" lon="-1.8660491"><ele>285.0</ele><time>2026-03-22T18:17:52.958Z</time></trkpt><trkpt lat="53.6073737" lon="-1.8659941"><ele>285.0</ele><time>2026-03-22T18:17:53.964Z</time></trkpt><trkpt lat="53.6072232" lon="-1.8659439"><ele>284.25</ele><time>2026-03-22T18:17:54.96Z</time></trkpt><trkpt lat="53.6070696" lon="-1.8658984"><ele>283.5</ele><time>2026-03-22T18:17:55.957Z</time></trkpt><trkpt lat="53.6069222" lon="-1.8658596"><ele>282.75</ele><time>2026-03-22T18:17:56.956Z</time></trkpt><trkpt lat="53.6067806" lon="-1.8658229"><ele>282.0</ele><time>2026-03-22T18:17:57.956Z</time></trkpt><trkpt lat="53.6066447" lon="-1.8657809"><ele>281.8</ele><time>2026-03-22T18:17:58.959Z</time></trkpt><trkpt lat="53.6065162" lon="-1.8657389"><ele>281.6</ele><time>2026-03-22T18:17:59.96Z</time></trkpt><trkpt lat="53.606395" lon="-1.8657066"><ele>281.40000000000003</ele><time>2026-03-22T18:18:00.962Z</time></trkpt><trkpt lat="53.6062935" lon="-1.8656809"><ele>281.2</ele><time>2026-03-22T18:18:01.957Z</time></trkpt><trkpt lat="53.6062063" lon="-1.8656522"><ele>281.0</ele><time>2026-03-22T18:18:02.96Z</time></trkpt><trkpt lat="53.6061344" lon="-1.8656246"><ele>280.7142857142857</ele><time>2026-03-22T18:18:03.955Z</time></trkpt><trkpt lat="53.6060616" lon="-1.8655957"><ele>280.42857142857144</ele><time>2026-03-22T18:18:04.957Z</time></trkpt><trkpt lat="53.6059854" lon="-1.8655695"><ele>280.1428571428571</ele><time>2026-03-22T18:18:05.955Z</time></trkpt><trkpt lat="53.6059097" lon="-1.8655476"><ele>279.8571428571429</ele><time>2026-03-22T18:18:06.95Z</time></trkpt><trkpt lat="53.6058374" lon="-1.8655236"><ele>279.57142857142856</ele><time>2026-03-22T18:18:07.954Z</time></trkpt><trkpt lat="53.6057699" lon="-1.8654939"><ele>279.2857142857143</ele><time>2026-03-22T18:18:08.959Z</time></trkpt><trkpt lat="53.6057083" lon="-1.8654626"><ele>279.0</ele><time>2026-03-22T18:18:09.956Z</time></trkpt><trkpt lat="53.6055974" lon="-1.8654195"><ele>279.0</ele><time>2026-03-22T18:18:11.957Z</time></trkpt><trkpt lat="53.6055001" lon="-1.8654043"><ele>279.0</ele><time>2026-03-22T18:18:13.96Z</time></trkpt><trkpt lat="53.6054192" lon="-1.8653756"><ele>279.0</ele><time>2026-03-22T18:18:15.957Z</time></trkpt><trkpt lat="53.6053517" lon="-1.8653431"><ele>279.0</ele><time>2026-03-22T18:18:19.951Z</time></trkpt><trkpt lat="53.6052763" lon="-1.8653148"><ele>279.0</ele><time>2026-03-22T18:18:36.954Z</time></trkpt><trkpt lat="53.6051531" lon="-1.8652986"><ele>278.59999999999997</ele><time>2026-03-22T18:18:38.954Z</time></trkpt><trkpt lat="53.6050637" lon="-1.8653006"><ele>278.2</ele><time>2026-03-22T18:18:39.954Z</time></trkpt><trkpt lat="53.6049632" lon="-1.8652995"><ele>277.79999999999995</ele><time>2026-03-22T18:18:40.953Z</time></trkpt><trkpt lat="53.6048549" lon="-1.8652896"><ele>277.4</ele><time>2026-03-22T18:18:41.953Z</time></trkpt><trkpt lat="53.6047339" lon="-1.8652829"><ele>277.0</ele><time>2026-03-22T18:18:42.952Z</time></trkpt><trkpt lat="53.6045985" lon="-1.8652919"><ele>275.66666666666663</ele><time>2026-03-22T18:18:43.957Z</time></trkpt><trkpt lat="53.604452" lon="-1.86532"><ele>274.3333333333333</ele><time>2026-03-22T18:18:44.955Z</time></trkpt><trkpt lat="53.6042996" lon="-1.865351"><ele>273.0</ele><time>2026-03-22T18:18:45.953Z</time></trkpt><trkpt lat="53.6041473" lon="-1.865382"><ele>273.0</ele><time>2026-03-22T18:18:46.953Z</time></trkpt><trkpt lat="53.6039934" lon="-1.8654065"><ele>273.0</ele><time>2026-03-22T18:18:47.953Z</time></trkpt><trkpt lat="53.6038344" lon="-1.8654246"><ele>273.0</ele><time>2026-03-22T18:18:48.954Z</time></trkpt><trkpt lat="53.6036636" lon="-1.8654388"><ele>271.6666666666667</ele><time>2026-03-22T18:18:49.953Z</time></trkpt><trkpt lat="53.6034968" lon="-1.8654524"><ele>270.33333333333337</ele><time>2026-03-22T18:18:50.951Z</time></trkpt><trkpt lat="53.6033283" lon="-1.8654667"><ele>269.0</ele><time>2026-03-22T18:18:51.952Z</time></trkpt><trkpt lat="53.6031581" lon="-1.8654809"><ele>269.0</ele><time>2026-03-22T18:18:52.952Z</time></trkpt><trkpt lat="53.6029863" lon="-1.8654908"><ele>269.0</ele><time>2026-03-22T18:18:53.952Z</time></trkpt><trkpt lat="53.6028129" lon="-1.8654966"><ele>269.0</ele><time>2026-03-22T18:18:54.952Z</time></trkpt><trkpt lat="53.6026361" lon="-1.8655064"><ele>268.33333333333337</ele><time>2026-03-22T18:18:55.954Z</time></trkpt><trkpt lat="53.6024614" lon="-1.8655208"><ele>267.6666666666667</ele><time>2026-03-22T18:18:56.955Z</time></trkpt><trkpt lat="53.6022974" lon="-1.8655337"><ele>267.0</ele><time>2026-03-22T18:18:57.952Z</time></trkpt><trkpt lat="53.6021474" lon="-1.8655524"><ele>267.0</ele><time>2026-03-22T18:18:58.951Z</time></trkpt><trkpt lat="53.6020111" lon="-1.865562"><ele>267.0</ele><time>2026-03-22T18:18:59.951Z</time></trkpt><trkpt lat="53.6018806" lon="-1.8655696"><ele>267.0</ele><time>2026-03-22T18:19:00.953Z</time></trkpt><trkpt lat="53.6017456" lon="-1.865579"><ele>267.0</ele><time>2026-03-22T18:19:01.953Z</time></trkpt><trkpt lat="53.6016016" lon="-1.8655869"><ele>266.0</ele><time>2026-03-22T18:19:02.953Z</time></trkpt><trkpt lat="53.6014527" lon="-1.8655954"><ele>265.0</ele><time>2026-03-22T18:19:03.951Z</time></trkpt><trkpt lat="53.601292" lon="-1.8656107"><ele>264.0</ele><time>2026-03-22T18:19:04.953Z</time></trkpt><trkpt lat="53.6011275" lon="-1.8656255"><ele>261.6666666666667</ele><time>2026-03-22T18:19:05.955Z</time></trkpt><trkpt lat="53.6009586" lon="-1.8656375"><ele>259.33333333333337</ele><time>2026-03-22T18:19:06.956Z</time></trkpt><trkpt lat="53.6007847" lon="-1.8656471"><ele>257.0</ele><time>2026-03-22T18:19:07.954Z</time></trkpt><trkpt lat="53.6006089" lon="-1.8656594"><ele>257.0</ele><time>2026-03-22T18:19:08.947Z</time></trkpt><trkpt lat="53.6004401" lon="-1.8656729"><ele>257.0</ele><time>2026-03-22T18:19:09.955Z</time></trkpt><trkpt lat="53.6002804" lon="-1.8656785"><ele>257.0</ele><time>2026-03-22T18:19:10.952Z</time></trkpt><trkpt lat="53.6001327" lon="-1.865689"><ele>256.0</ele><time>2026-03-22T18:19:11.953Z</time></trkpt><trkpt lat="53.5999985" lon="-1.8657045"><ele>255.0</ele><time>2026-03-22T18:19:12.951Z</time></trkpt><trkpt lat="53.5998837" lon="-1.865711"><ele>254.0</ele><time>2026-03-22T18:19:13.952Z</time></trkpt><trkpt lat="53.5998004" lon="-1.8657113"><ele>253.0</ele><time>2026-03-22T18:19:14.952Z</time></trkpt><trkpt lat="53.5997305" lon="-1.8657184"><ele>252.0</ele><time>2026-03-22T18:19:16.952Z</time></trkpt><trkpt lat="53.5996671" lon="-1.8656869"><ele>252.0</ele><time>2026-03-22T18:19:25.963Z</time></trkpt><trkpt lat="53.5995863" lon="-1.8655176"><ele>252.0</ele><time>2026-03-22T18:19:27.957Z</time></trkpt><trkpt lat="53.5995367" lon="-1.8653818"><ele>252.0</ele><time>2026-03-22T18:19:28.961Z</time></trkpt><trkpt lat="53.5994798" lon="-1.8652263"><ele>252.0</ele><time>2026-03-22T18:19:29.956Z</time></trkpt><trkpt lat="53.5994153" lon="-1.8650603"><ele>250.5</ele><time>2026-03-22T18:19:30.953Z</time></trkpt><trkpt lat="53.5993431" lon="-1.8648867"><ele>249.0</ele><time>2026-03-22T18:19:31.953Z</time></trkpt><trkpt lat="53.5992645" lon="-1.864716"><ele>247.5</ele><time>2026-03-22T18:19:32.955Z</time></trkpt><trkpt lat="53.5991805" lon="-1.8645427"><ele>246.0</ele><time>2026-03-22T18:19:33.957Z</time></trkpt><trkpt lat="53.5990977" lon="-1.8643671"><ele>245.8</ele><time>2026-03-22T18:19:34.953Z</time></trkpt><trkpt lat="53.5990237" lon="-1.8642056"><ele>245.60000000000002</ele><time>2026-03-22T18:19:35.953Z</time></trkpt><trkpt lat="53.5989568" lon="-1.8640602"><ele>245.4</ele><time>2026-03-22T18:19:36.955Z</time></trkpt><trkpt lat="53.5988914" lon="-1.863919"><ele>245.2</ele><time>2026-03-22T18:19:37.957Z</time></trkpt><trkpt lat="53.5988268" lon="-1.8637796"><ele>245.0</ele><time>2026-03-22T18:19:38.96Z</time></trkpt><trkpt lat="53.5987583" lon="-1.8636411"><ele>245.0</ele><time>2026-03-22T18:19:39.96Z</time></trkpt><trkpt lat="53.5986863" lon="-1.8634927"><ele>245.0</ele><time>2026-03-22T18:19:40.957Z</time></trkpt><trkpt lat="53.5986167" lon="-1.8633492"><ele>245.0</ele><time>2026-03-22T18:19:41.951Z</time></trkpt><trkpt lat="53.5985524" lon="-1.8632155"><ele>245.0</ele><time>2026-03-22T18:19:42.953Z</time></trkpt><trkpt lat="53.5984886" lon="-1.8630864"><ele>245.0</ele><time>2026-03-22T18:19:43.954Z</time></trkpt><trkpt lat="53.5984242" lon="-1.8629583"><ele>244.0</ele><time>2026-03-22T18:19:44.957Z</time></trkpt><trkpt lat="53.5983596" lon="-1.8628269"><ele>243.0</ele><time>2026-03-22T18:19:45.954Z</time></trkpt><trkpt lat="53.5982907" lon="-1.8626964"><ele>242.0</ele><time>2026-03-22T18:19:46.955Z</time></trkpt><trkpt lat="53.5982188" lon="-1.8625621"><ele>241.0</ele><time>2026-03-22T18:19:47.957Z</time></trkpt><trkpt lat="53.5981427" lon="-1.8624191"><ele>240.0</ele><time>2026-03-22T18:19:48.954Z</time></trkpt><trkpt lat="53.5980658" lon="-1.8622789"><ele>239.2</ele><time>2026-03-22T18:19:49.953Z</time></trkpt><trkpt lat="53.5979921" lon="-1.862154"><ele>238.4</ele><time>2026-03-22T18:19:50.953Z</time></trkpt><trkpt lat="53.5979271" lon="-1.8620373"><ele>237.60000000000002</ele><time>2026-03-22T18:19:51.956Z</time></trkpt><trkpt lat="53.5978695" lon="-1.861927"><ele>236.8</ele><time>2026-03-22T18:19:52.955Z</time></trkpt><trkpt lat="53.5978104" lon="-1.8618224"><ele>236.0</ele><time>2026-03-22T18:19:53.954Z</time></trkpt><trkpt lat="53.5977516" lon="-1.861728"><ele>235.16666666666669</ele><time>2026-03-22T18:19:54.954Z</time></trkpt><trkpt lat="53.597702" lon="-1.86164"><ele>234.33333333333334</ele><time>2026-03-22T18:19:55.954Z</time></trkpt><trkpt lat="53.5976557" lon="-1.8615541"><ele>233.5</ele><time>2026-03-22T18:19:56.954Z</time></trkpt><trkpt lat="53.5976111" lon="-1.8614677"><ele>232.66666666666669</ele><time>2026-03-22T18:19:57.953Z</time></trkpt><trkpt lat="53.5975662" lon="-1.8613832"><ele>231.83333333333334</ele><time>2026-03-22T18:19:58.955Z</time></trkpt><trkpt lat="53.5974625" lon="-1.861272"><ele>231.0</ele><time>2026-03-22T18:20:00.96Z</time></trkpt><trkpt lat="53.5973865" lon="-1.8612722"><ele>231.0</ele><time>2026-03-22T18:20:01.956Z</time></trkpt><trkpt lat="53.597289" lon="-1.8613099"><ele>231.0</ele><time>2026-03-22T18:20:02.952Z</time></trkpt><trkpt lat="53.5971478" lon="-1.8613402"><ele>231.0</ele><time>2026-03-22T18:20:03.955Z</time></trkpt><trkpt lat="53.5970121" lon="-1.8613495"><ele>231.0</ele><time>2026-03-22T18:20:04.955Z</time></trkpt><trkpt lat="53.5968717" lon="-1.8613447"><ele>230.0</ele><time>2026-03-22T18:20:05.954Z</time></trkpt><trkpt lat="53.5967367" lon="-1.8613286"><ele>229.0</ele><time>2026-03-22T18:20:06.955Z</time></trkpt><trkpt lat="53.5966052" lon="-1.8612992"><ele>228.0</ele><time>2026-03-22T18:20:07.954Z</time></trkpt><trkpt lat="53.5964703" lon="-1.8612691"><ele>227.0</ele><time>2026-03-22T18:20:08.957Z</time></trkpt><trkpt lat="53.5963359" lon="-1.8612443"><ele>227.0</ele><time>2026-03-22T18:20:09.953Z</time></trkpt><trkpt lat="53.5962121" lon="-1.8612216"><ele>227.0</ele><time>2026-03-22T18:20:10.954Z</time></trkpt><trkpt lat="53.5961" lon="-1.861198"><ele>227.0</ele><time>2026-03-22T18:20:11.952Z</time></trkpt><trkpt lat="53.5959976" lon="-1.861184"><ele>227.0</ele><time>2026-03-22T18:20:12.954Z</time></trkpt><trkpt lat="53.5958941" lon="-1.861165"><ele>227.0</ele><time>2026-03-22T18:20:13.952Z</time></trkpt><trkpt lat="53.595786" lon="-1.8611441"><ele>225.5</ele><time>2026-03-22T18:20:14.954Z</time></trkpt><trkpt lat="53.5956683" lon="-1.8611202"><ele>224.0</ele><time>2026-03-22T18:20:15.952Z</time></trkpt><trkpt lat="53.5955439" lon="-1.8610852"><ele>222.5</ele><time>2026-03-22T18:20:16.953Z</time></trkpt><trkpt lat="53.5954225" lon="-1.8610528"><ele>221.0</ele><time>2026-03-22T18:20:17.951Z</time></trkpt><trkpt lat="53.5953094" lon="-1.8610162"><ele>219.8</ele><time>2026-03-22T18:20:18.955Z</time></trkpt><trkpt lat="53.5952082" lon="-1.8609824"><ele>218.60000000000002</ele><time>2026-03-22T18:20:19.959Z</time></trkpt><trkpt lat="53.5951231" lon="-1.8609563"><ele>217.4</ele><time>2026-03-22T18:20:20.954Z</time></trkpt><trkpt lat="53.5950546" lon="-1.8609321"><ele>216.2</ele><time>2026-03-22T18:20:21.958Z</time></trkpt><trkpt lat="53.5949745" lon="-1.8609055"><ele>215.0</ele><time>2026-03-22T18:20:23.959Z</time></trkpt><trkpt lat="53.5949424" lon="-1.8611091"><ele>215.0</ele><time>2026-03-22T18:20:26.959Z</time></trkpt><trkpt lat="53.5949342" lon="-1.8612609"><ele>215.0</ele><time>2026-03-22T18:20:27.955Z</time></trkpt><trkpt lat="53.5949282" lon="-1.861442"><ele>215.0</ele><time>2026-03-22T18:20:28.955Z</time></trkpt><trkpt lat="53.5949194" lon="-1.8616563"><ele>215.0</ele><time>2026-03-22T18:20:29.955Z</time></trkpt><trkpt lat="53.5949083" lon="-1.861915"><ele>216.0</ele><time>2026-03-22T18:20:30.958Z</time></trkpt><trkpt lat="53.594899" lon="-1.8622171"><ele>217.0</ele><time>2026-03-22T18:20:31.958Z</time></trkpt><trkpt lat="53.5948857" lon="-1.8625375"><ele>218.0</ele><time>2026-03-22T18:20:32.958Z</time></trkpt><trkpt lat="53.5948588" lon="-1.8628682"><ele>218.66666666666669</ele><time>2026-03-22T18:20:33.957Z</time></trkpt><trkpt lat="53.5948299" lon="-1.863213"><ele>219.33333333333331</ele><time>2026-03-22T18:20:34.958Z</time></trkpt><trkpt lat="53.5948018" lon="-1.8635555"><ele>220.0</ele><time>2026-03-22T18:20:35.961Z</time></trkpt><trkpt lat="53.5947674" lon="-1.8639027"><ele>220.33333333333331</ele><time>2026-03-22T18:20:36.955Z</time></trkpt><trkpt lat="53.5947415" lon="-1.8642486"><ele>220.66666666666669</ele><time>2026-03-22T18:20:37.954Z</time></trkpt><trkpt lat="53.5947173" lon="-1.864607"><ele>221.0</ele><time>2026-03-22T18:20:38.954Z</time></trkpt><trkpt lat="53.5946931" lon="-1.8649688"><ele>222.0</ele><time>2026-03-22T18:20:39.957Z</time></trkpt><trkpt lat="53.5946625" lon="-1.865346"><ele>223.0</ele><time>2026-03-22T18:20:40.958Z</time></trkpt><trkpt lat="53.594634" lon="-1.8657179"><ele>224.0</ele><time>2026-03-22T18:20:41.95Z</time></trkpt><trkpt lat="53.5946067" lon="-1.8660832"><ele>225.5</ele><time>2026-03-22T18:20:42.953Z</time></trkpt><trkpt lat="53.5945694" lon="-1.8664616"><ele>227.0</ele><time>2026-03-22T18:20:43.955Z</time></trkpt><trkpt lat="53.5945357" lon="-1.8668393"><ele>225.5</ele><time>2026-03-22T18:20:44.953Z</time></trkpt><trkpt lat="53.5944919" lon="-1.8672241"><ele>224.0</ele><time>2026-03-22T18:20:45.953Z</time></trkpt><trkpt lat="53.594464" lon="-1.8675867"><ele>225.33333333333334</ele><time>2026-03-22T18:20:46.952Z</time></trkpt><trkpt lat="53.5944347" lon="-1.8679258"><ele>226.66666666666669</ele><time>2026-03-22T18:20:47.952Z</time></trkpt><trkpt lat="53.5944083" lon="-1.8682223"><ele>228.0</ele><time>2026-03-22T18:20:48.954Z</time></trkpt><trkpt lat="53.5943857" lon="-1.8684701"><ele>228.75</ele><time>2026-03-22T18:20:49.954Z</time></trkpt><trkpt lat="53.5943671" lon="-1.8686816"><ele>229.5</ele><time>2026-03-22T18:20:50.952Z</time></trkpt><trkpt lat="53.5943499" lon="-1.8688797"><ele>230.25</ele><time>2026-03-22T18:20:51.951Z</time></trkpt><trkpt lat="53.5943354" lon="-1.8690615"><ele>231.0</ele><time>2026-03-22T18:20:52.952Z</time></trkpt><trkpt lat="53.5943238" lon="-1.8692262"><ele>231.8</ele><time>2026-03-22T18:20:53.953Z</time></trkpt><trkpt lat="53.5943048" lon="-1.8693648"><ele>232.60000000000002</ele><time>2026-03-22T18:20:54.955Z</time></trkpt><trkpt lat="53.594274" lon="-1.869464"><ele>233.4</ele><time>2026-03-22T18:20:55.955Z</time></trkpt><trkpt lat="53.5942127" lon="-1.8695077"><ele>234.2</ele><time>2026-03-22T18:20:56.952Z</time></trkpt><trkpt lat="53.5941214" lon="-1.8694575"><ele>235.0</ele><time>2026-03-22T18:20:57.956Z</time></trkpt><trkpt lat="53.5939913" lon="-1.8692914"><ele>233.66666666666666</ele><time>2026-03-22T18:20:58.96Z</time></trkpt><trkpt lat="53.5938556" lon="-1.8691391"><ele>232.33333333333331</ele><time>2026-03-22T18:20:59.96Z</time></trkpt><trkpt lat="53.5937012" lon="-1.868989"><ele>231.0</ele><time>2026-03-22T18:21:00.959Z</time></trkpt><trkpt lat="53.5935433" lon="-1.8688553"><ele>229.66666666666669</ele><time>2026-03-22T18:21:01.958Z</time></trkpt><trkpt lat="53.5933967" lon="-1.8687588"><ele>228.33333333333334</ele><time>2026-03-22T18:21:02.957Z</time></trkpt><trkpt lat="53.5932572" lon="-1.8686604"><ele>227.0</ele><time>2026-03-22T18:21:03.959Z</time></trkpt><trkpt lat="53.5931258" lon="-1.8685642"><ele>227.0</ele><time>2026-03-22T18:21:04.957Z</time></trkpt><trkpt lat="53.5929966" lon="-1.8684712"><ele>227.0</ele><time>2026-03-22T18:21:05.956Z</time></trkpt><trkpt lat="53.5928649" lon="-1.8683746"><ele>227.0</ele><time>2026-03-22T18:21:06.958Z</time></trkpt><trkpt lat="53.5927254" lon="-1.8682684"><ele>227.0</ele><time>2026-03-22T18:21:07.965Z</time></trkpt><trkpt lat="53.5925817" lon="-1.8681578"><ele>225.5</ele><time>2026-03-22T18:21:08.96Z</time></trkpt><trkpt lat="53.5924449" lon="-1.8680542"><ele>224.0</ele><time>2026-03-22T18:21:09.956Z</time></trkpt><trkpt lat="53.5923199" lon="-1.8679595"><ele>222.5</ele><time>2026-03-22T18:21:10.957Z</time></trkpt><trkpt lat="53.5922105" lon="-1.8678744"><ele>221.0</ele><time>2026-03-22T18:21:11.951Z</time></trkpt><trkpt lat="53.5921155" lon="-1.8677915"><ele>221.00000000000003</ele><time>2026-03-22T18:21:12.953Z</time></trkpt><trkpt lat="53.5920287" lon="-1.8677123"><ele>221.0</ele><time>2026-03-22T18:21:13.955Z</time></trkpt><trkpt lat="53.5919464" lon="-1.867641"><ele>221.0</ele><time>2026-03-22T18:21:14.953Z</time></trkpt><trkpt lat="53.5918709" lon="-1.867571"><ele>221.0</ele><time>2026-03-22T18:21:15.953Z</time></trkpt><trkpt lat="53.5918033" lon="-1.8675113"><ele>221.00000000000003</ele><time>2026-03-22T18:21:16.952Z</time></trkpt><trkpt lat="53.5917369" lon="-1.8674574"><ele>221.0</ele><time>2026-03-22T18:21:17.952Z</time></trkpt><trkpt lat="53.591671" lon="-1.8673908"><ele>221.4</ele><time>2026-03-22T18:21:18.955Z</time></trkpt><trkpt lat="53.5916023" lon="-1.8673046"><ele>221.8</ele><time>2026-03-22T18:21:19.954Z</time></trkpt><trkpt lat="53.5915255" lon="-1.8671971"><ele>222.20000000000002</ele><time>2026-03-22T18:21:20.956Z</time></trkpt><trkpt lat="53.591442" lon="-1.8670777"><ele>222.60000000000002</ele><time>2026-03-22T18:21:21.956Z</time></trkpt><trkpt lat="53.5913493" lon="-1.866941"><ele>223.0</ele><time>2026-03-22T18:21:22.957Z</time></trkpt><trkpt lat="53.5912372" lon="-1.8667751"><ele>225.0</ele><time>2026-03-22T18:21:23.956Z</time></trkpt><trkpt lat="53.5911044" lon="-1.8665811"><ele>227.0</ele><time>2026-03-22T18:21:24.955Z</time></trkpt><trkpt lat="53.590952" lon="-1.866362"><ele>229.0</ele><time>2026-03-22T18:21:25.956Z</time></trkpt><trkpt lat="53.5907836" lon="-1.8661165"><ele>228.0</ele><time>2026-03-22T18:21:26.959Z</time></trkpt><trkpt lat="53.5906002" lon="-1.8658424"><ele>227.0</ele><time>2026-03-22T18:21:27.957Z</time></trkpt><trkpt lat="53.590406" lon="-1.8655431"><ele>229.5</ele><time>2026-03-22T18:21:28.958Z</time></trkpt><trkpt lat="53.5902058" lon="-1.8652298"><ele>232.0</ele><time>2026-03-22T18:21:29.961Z</time></trkpt><trkpt lat="53.5900101" lon="-1.8649266"><ele>232.0</ele><time>2026-03-22T18:21:30.959Z</time></trkpt><trkpt lat="53.5898217" lon="-1.8646354"><ele>232.0</ele><time>2026-03-22T18:21:31.959Z</time></trkpt><trkpt lat="53.5896397" lon="-1.8643579"><ele>232.5</ele><time>2026-03-22T18:21:32.957Z</time></trkpt><trkpt lat="53.5894661" lon="-1.8640924"><ele>233.0</ele><time>2026-03-22T18:21:33.956Z</time></trkpt><trkpt lat="53.5893041" lon="-1.863833"><ele>233.0</ele><time>2026-03-22T18:21:34.956Z</time></trkpt><trkpt lat="53.589151" lon="-1.8635845"><ele>233.0</ele><time>2026-03-22T18:21:35.955Z</time></trkpt><trkpt lat="53.5890049" lon="-1.8633502"><ele>233.0</ele><time>2026-03-22T18:21:36.956Z</time></trkpt><trkpt lat="53.5888713" lon="-1.8631274"><ele>233.0</ele><time>2026-03-22T18:21:37.957Z</time></trkpt><trkpt lat="53.5887503" lon="-1.862916"><ele>233.0</ele><time>2026-03-22T18:21:38.956Z</time></trkpt><trkpt lat="53.5886363" lon="-1.8627268"><ele>233.0</ele><time>2026-03-22T18:21:39.955Z</time></trkpt><trkpt lat="53.5885246" lon="-1.8625537"><ele>236.5</ele><time>2026-03-22T18:21:40.956Z</time></trkpt><trkpt lat="53.5884166" lon="-1.8623906"><ele>240.0</ele><time>2026-03-22T18:21:41.956Z</time></trkpt><trkpt lat="53.5883111" lon="-1.8622393"><ele>243.5</ele><time>2026-03-22T18:21:42.956Z</time></trkpt><trkpt lat="53.5882126" lon="-1.8620887"><ele>247.0</ele><time>2026-03-22T18:21:43.957Z</time></trkpt><trkpt lat="53.5881185" lon="-1.8619523"><ele>247.0</ele><time>2026-03-22T18:21:44.953Z</time></trkpt><trkpt lat="53.5880246" lon="-1.8618181"><ele>247.0</ele><time>2026-03-22T18:21:45.955Z</time></trkpt><trkpt lat="53.5879284" lon="-1.861681"><ele>247.0</ele><time>2026-03-22T18:21:46.955Z</time></trkpt><trkpt lat="53.587831" lon="-1.8615395"><ele>247.0</ele><time>2026-03-22T18:21:47.954Z</time></trkpt><trkpt lat="53.5877378" lon="-1.8614053"><ele>247.2</ele><time>2026-03-22T18:21:48.954Z</time></trkpt><trkpt lat="53.587656" lon="-1.8612816"><ele>247.39999999999998</ele><time>2026-03-22T18:21:49.954Z</time></trkpt><trkpt lat="53.5875954" lon="-1.8611792"><ele>247.60000000000002</ele><time>2026-03-22T18:21:50.959Z</time></trkpt><trkpt lat="53.5875412" lon="-1.8610718"><ele>247.8</ele><time>2026-03-22T18:21:52.961Z</time></trkpt><trkpt lat="53.587485" lon="-1.8610107"><ele>248.0</ele><time>2026-03-22T18:21:56.956Z</time></trkpt><trkpt lat="53.587356" lon="-1.8608607"><ele>247.25</ele><time>2026-03-22T18:21:58.959Z</time></trkpt><trkpt lat="53.5872575" lon="-1.8607411"><ele>246.5</ele><time>2026-03-22T18:21:59.956Z</time></trkpt><trkpt lat="53.5871556" lon="-1.8606046"><ele>245.75</ele><time>2026-03-22T18:22:00.958Z</time></trkpt><trkpt lat="53.5870588" lon="-1.8604761"><ele>245.0</ele><time>2026-03-22T18:22:01.96Z</time></trkpt><trkpt lat="53.586968" lon="-1.8603618"><ele>246.50000000000003</ele><time>2026-03-22T18:22:02.958Z</time></trkpt><trkpt lat="53.5868836" lon="-1.8602708"><ele>248.0</ele><time>2026-03-22T18:22:03.96Z</time></trkpt><trkpt lat="53.5868032" lon="-1.8602036"><ele>249.5</ele><time>2026-03-22T18:22:04.956Z</time></trkpt><trkpt lat="53.5867315" lon="-1.8601288"><ele>251.0</ele><time>2026-03-22T18:22:05.955Z</time></trkpt><trkpt lat="53.5866654" lon="-1.8600574"><ele>252.50000000000003</ele><time>2026-03-22T18:22:06.955Z</time></trkpt><trkpt lat="53.5865994" lon="-1.859981"><ele>254.0</ele><time>2026-03-22T18:22:07.956Z</time></trkpt><trkpt lat="53.5865382" lon="-1.8599142"><ele>254.00000000000003</ele><time>2026-03-22T18:22:08.959Z</time></trkpt><trkpt lat="53.5864757" lon="-1.8598482"><ele>254.0</ele><time>2026-03-22T18:22:09.957Z</time></trkpt><trkpt lat="53.5864107" lon="-1.8597802"><ele>254.0</ele><time>2026-03-22T18:22:10.956Z</time></trkpt><trkpt lat="53.5863387" lon="-1.8597038"><ele>254.0</ele><time>2026-03-22T18:22:11.958Z</time></trkpt><trkpt lat="53.5862558" lon="-1.8596089"><ele>254.00000000000003</ele><time>2026-03-22T18:22:12.958Z</time></trkpt><trkpt lat="53.5861647" lon="-1.8595027"><ele>254.0</ele><time>2026-03-22T18:22:13.959Z</time></trkpt><trkpt lat="53.5860661" lon="-1.859386"><ele>257.75</ele><time>2026-03-22T18:22:14.954Z</time></trkpt><trkpt lat="53.5859652" lon="-1.8592647"><ele>261.5</ele><time>2026-03-22T18:22:15.955Z</time></trkpt><trkpt lat="53.5858682" lon="-1.8591465"><ele>265.25</ele><time>2026-03-22T18:22:16.956Z</time></trkpt><trkpt lat="53.5857727" lon="-1.8590359"><ele>269.0</ele><time>2026-03-22T18:22:17.955Z</time></trkpt><trkpt lat="53.5856808" lon="-1.8589373"><ele>269.0</ele><time>2026-03-22T18:22:18.955Z</time></trkpt><trkpt lat="53.5855945" lon="-1.8588527"><ele>269.0</ele><time>2026-03-22T18:22:19.955Z</time></trkpt><trkpt lat="53.5855134" lon="-1.8587865"><ele>269.0</ele><time>2026-03-22T18:22:20.953Z</time></trkpt><trkpt lat="53.5854435" lon="-1.8587345"><ele>269.0</ele><time>2026-03-22T18:22:21.953Z</time></trkpt><trkpt lat="53.5853777" lon="-1.858687"><ele>269.0</ele><time>2026-03-22T18:22:22.958Z</time></trkpt><trkpt lat="53.5853111" lon="-1.8586433"><ele>269.0</ele><time>2026-03-22T18:22:23.964Z</time></trkpt><trkpt lat="53.5852499" lon="-1.8586069"><ele>269.1666666666667</ele><time>2026-03-22T18:22:24.961Z</time></trkpt><trkpt lat="53.5851543" lon="-1.8585974"><ele>269.33333333333337</ele><time>2026-03-22T18:22:26.949Z</time></trkpt><trkpt lat="53.5850687" lon="-1.8585564"><ele>269.5</ele><time>2026-03-22T18:22:29.946Z</time></trkpt><trkpt lat="53.5850462" lon="-1.8584379"><ele>269.6666666666667</ele><time>2026-03-22T18:22:31.953Z</time></trkpt><trkpt lat="53.5850714" lon="-1.8583174"><ele>269.8333333333333</ele><time>2026-03-22T18:22:32.954Z</time></trkpt><trkpt lat="53.5851175" lon="-1.8581741"><ele>270.0</ele><time>2026-03-22T18:22:33.959Z</time></trkpt><trkpt lat="53.5851721" lon="-1.8579936"><ele>267.75</ele><time>2026-03-22T18:22:34.956Z</time></trkpt><trkpt lat="53.5852197" lon="-1.8578076"><ele>265.5</ele><time>2026-03-22T18:22:35.959Z</time></trkpt><trkpt lat="53.5852687" lon="-1.8576004"><ele>263.25</ele><time>2026-03-22T18:22:36.961Z</time></trkpt><trkpt lat="53.5853179" lon="-1.8573816"><ele>261.0</ele><time>2026-03-22T18:22:37.959Z</time></trkpt><trkpt lat="53.5853677" lon="-1.8571427"><ele>261.0</ele><time>2026-03-22T18:22:38.962Z</time></trkpt><trkpt lat="53.5854146" lon="-1.856897"><ele>261.0</ele><time>2026-03-22T18:22:39.958Z</time></trkpt><trkpt lat="53.5854605" lon="-1.8566456"><ele>261.0</ele><time>2026-03-22T18:22:40.96Z</time></trkpt><trkpt lat="53.5855063" lon="-1.8564104"><ele>259.25</ele><time>2026-03-22T18:22:41.959Z</time></trkpt><trkpt lat="53.585555" lon="-1.8561711"><ele>257.5</ele><time>2026-03-22T18:22:42.959Z</time></trkpt><trkpt lat="53.5856144" lon="-1.8559546"><ele>255.75</ele><time>2026-03-22T18:22:43.958Z</time></trkpt><trkpt lat="53.5856721" lon="-1.8557348"><ele>254.0</ele><time>2026-03-22T18:22:44.951Z</time></trkpt><trkpt lat="53.5857356" lon="-1.8555116"><ele>252.75</ele><time>2026-03-22T18:22:45.957Z</time></trkpt><trkpt lat="53.5858009" lon="-1.8552808"><ele>251.5</ele><time>2026-03-22T18:22:46.956Z</time></trkpt><trkpt lat="53.5858686" lon="-1.8550559"><ele>250.25</ele><time>2026-03-22T18:22:47.961Z</time></trkpt><trkpt lat="53.5859376" lon="-1.8548406"><ele>249.0</ele><time>2026-03-22T18:22:48.96Z</time></trkpt><trkpt lat="53.5860028" lon="-1.8546271"><ele>247.25</ele><time>2026-03-22T18:22:49.958Z</time></trkpt><trkpt lat="53.5860611" lon="-1.8544058"><ele>245.5</ele><time>2026-03-22T18:22:50.96Z</time></trkpt><trkpt lat="53.5861135" lon="-1.8541839"><ele>243.75</ele><time>2026-03-22T18:22:51.969Z</time></trkpt><trkpt lat="53.5861743" lon="-1.8539639"><ele>242.0</ele><time>2026-03-22T18:22:52.962Z</time></trkpt><trkpt lat="53.5862415" lon="-1.8537419"><ele>241.75</ele><time>2026-03-22T18:22:53.963Z</time></trkpt><trkpt lat="53.5863162" lon="-1.8535265"><ele>241.5</ele><time>2026-03-22T18:22:54.962Z</time></trkpt><trkpt lat="53.5863914" lon="-1.853314"><ele>241.25</ele><time>2026-03-22T18:22:55.962Z</time></trkpt><trkpt lat="53.5864632" lon="-1.8531085"><ele>241.0</ele><time>2026-03-22T18:22:56.954Z</time></trkpt><trkpt lat="53.5865299" lon="-1.8529079"><ele>239.25</ele><time>2026-03-22T18:22:57.963Z</time></trkpt><trkpt lat="53.5865945" lon="-1.8527096"><ele>237.5</ele><time>2026-03-22T18:22:58.963Z</time></trkpt><trkpt lat="53.5866632" lon="-1.8525108"><ele>235.75</ele><time>2026-03-22T18:22:59.954Z</time></trkpt><trkpt lat="53.5867374" lon="-1.8523099"><ele>234.0</ele><time>2026-03-22T18:23:00.962Z</time></trkpt><trkpt lat="53.5868176" lon="-1.8521219"><ele>232.5</ele><time>2026-03-22T18:23:01.959Z</time></trkpt><trkpt lat="53.5868991" lon="-1.8519501"><ele>231.0</ele><time>2026-03-22T18:23:02.957Z</time></trkpt><trkpt lat="53.5869772" lon="-1.8517753"><ele>229.5</ele><time>2026-03-22T18:23:03.952Z</time></trkpt><trkpt lat="53.5870567" lon="-1.8515959"><ele>228.0</ele><time>2026-03-22T18:23:04.955Z</time></trkpt><trkpt lat="53.5871336" lon="-1.8514199"><ele>226.75</ele><time>2026-03-22T18:23:05.958Z</time></trkpt><trkpt lat="53.5872062" lon="-1.8512478"><ele>225.5</ele><time>2026-03-22T18:23:06.958Z</time></trkpt><trkpt lat="53.5872723" lon="-1.8510855"><ele>224.25</ele><time>2026-03-22T18:23:07.955Z</time></trkpt><trkpt lat="53.5873502" lon="-1.850932"><ele>223.0</ele><time>2026-03-22T18:23:08.954Z</time></trkpt><trkpt lat="53.5874351" lon="-1.8507742"><ele>220.75</ele><time>2026-03-22T18:23:09.954Z</time></trkpt><trkpt lat="53.5875288" lon="-1.8506057"><ele>218.5</ele><time>2026-03-22T18:23:10.953Z</time></trkpt><trkpt lat="53.5876312" lon="-1.8504242"><ele>216.25</ele><time>2026-03-22T18:23:11.954Z</time></trkpt><trkpt lat="53.587738" lon="-1.8502527"><ele>214.0</ele><time>2026-03-22T18:23:12.952Z</time></trkpt><trkpt lat="53.587838" lon="-1.8500596"><ele>211.5</ele><time>2026-03-22T18:23:13.954Z</time></trkpt><trkpt lat="53.5879316" lon="-1.8498743"><ele>209.0</ele><time>2026-03-22T18:23:14.955Z</time></trkpt><trkpt lat="53.588023" lon="-1.8497064"><ele>206.5</ele><time>2026-03-22T18:23:15.954Z</time></trkpt><trkpt lat="53.5881114" lon="-1.8495521"><ele>204.0</ele><time>2026-03-22T18:23:16.955Z</time></trkpt><trkpt lat="53.5881894" lon="-1.8494017"><ele>203.5</ele><time>2026-03-22T18:23:17.956Z</time></trkpt><trkpt lat="53.5882645" lon="-1.8492539"><ele>203.0</ele><time>2026-03-22T18:23:18.96Z</time></trkpt><trkpt lat="53.588337" lon="-1.8491104"><ele>202.5</ele><time>2026-03-22T18:23:19.955Z</time></trkpt><trkpt lat="53.588418" lon="-1.848964"><ele>202.0</ele><time>2026-03-22T18:23:20.956Z</time></trkpt><trkpt lat="53.5885034" lon="-1.8488129"><ele>202.0</ele><time>2026-03-22T18:23:21.958Z</time></trkpt><trkpt lat="53.5885864" lon="-1.8486667"><ele>202.0</ele><time>2026-03-22T18:23:22.952Z</time></trkpt><trkpt lat="53.5886646" lon="-1.8485268"><ele>202.0</ele><time>2026-03-22T18:23:23.956Z</time></trkpt><trkpt lat="53.5887377" lon="-1.8483891"><ele>202.0</ele><time>2026-03-22T18:23:24.956Z</time></trkpt><trkpt lat="53.5888128" lon="-1.8482585"><ele>200.6</ele><time>2026-03-22T18:23:25.954Z</time></trkpt><trkpt lat="53.5888924" lon="-1.848126"><ele>199.2</ele><time>2026-03-22T18:23:26.956Z</time></trkpt><trkpt lat="53.5889734" lon="-1.8479923"><ele>197.8</ele><time>2026-03-22T18:23:27.946Z</time></trkpt><trkpt lat="53.5890534" lon="-1.8478644"><ele>196.4</ele><time>2026-03-22T18:23:28.947Z</time></trkpt><trkpt lat="53.5891288" lon="-1.8477436"><ele>195.0</ele><time>2026-03-22T18:23:29.954Z</time></trkpt><trkpt lat="53.5892001" lon="-1.8476261"><ele>194.8</ele><time>2026-03-22T18:23:30.955Z</time></trkpt><trkpt lat="53.589267" lon="-1.8475082"><ele>194.6</ele><time>2026-03-22T18:23:31.953Z</time></trkpt><trkpt lat="53.5893272" lon="-1.8473927"><ele>194.39999999999998</ele><time>2026-03-22T18:23:32.955Z</time></trkpt><trkpt lat="53.589387" lon="-1.8472898"><ele>194.2</ele><time>2026-03-22T18:23:33.958Z</time></trkpt><trkpt lat="53.5894421" lon="-1.8472029"><ele>194.0</ele><time>2026-03-22T18:23:34.962Z</time></trkpt><trkpt lat="53.5895182" lon="-1.8470809"><ele>193.85714285714286</ele><time>2026-03-22T18:23:36.96Z</time></trkpt><trkpt lat="53.5895693" lon="-1.8470099"><ele>193.71428571428572</ele><time>2026-03-22T18:25:50.958Z</time></trkpt><trkpt lat="53.5895712" lon="-1.8468919"><ele>193.57142857142858</ele><time>2026-03-22T18:26:00.956Z</time></trkpt><trkpt lat="53.5895221" lon="-1.8468248"><ele>193.42857142857144</ele><time>2026-03-22T18:26:11.957Z</time></trkpt><trkpt lat="53.5894868" lon="-1.8467333"><ele>193.28571428571428</ele><time>2026-03-22T18:26:14.956Z</time></trkpt><trkpt lat="53.5894352" lon="-1.8466627"><ele>193.14285714285717</ele><time>2026-03-22T18:26:16.957Z</time></trkpt><trkpt lat="53.5893848" lon="-1.8465894"><ele>193.0</ele><time>2026-03-22T18:26:19.962Z</time></trkpt><trkpt lat="53.5892964" lon="-1.8464377"><ele>193.0</ele><time>2026-03-22T18:26:21.963Z</time></trkpt><trkpt lat="53.5892392" lon="-1.8463257"><ele>193.0</ele><time>2026-03-22T18:26:22.962Z</time></trkpt><trkpt lat="53.5891737" lon="-1.8462046"><ele>193.0</ele><time>2026-03-22T18:26:23.964Z</time></trkpt><trkpt lat="53.5890947" lon="-1.8460775"><ele>193.0</ele><time>2026-03-22T18:26:24.963Z</time></trkpt><trkpt lat="53.5890108" lon="-1.8459399"><ele>193.0</ele><time>2026-03-22T18:26:25.963Z</time></trkpt><trkpt lat="53.5889191" lon="-1.8457975"><ele>192.8</ele><time>2026-03-22T18:26:26.962Z</time></trkpt><trkpt lat="53.5888296" lon="-1.8456616"><ele>192.60000000000002</ele><time>2026-03-22T18:26:27.964Z</time></trkpt><trkpt lat="53.5887438" lon="-1.8455367"><ele>192.39999999999998</ele><time>2026-03-22T18:26:28.965Z</time></trkpt><trkpt lat="53.5886664" lon="-1.8454124"><ele>192.2</ele><time>2026-03-22T18:26:29.961Z</time></trkpt><trkpt lat="53.5885919" lon="-1.8452808"><ele>192.0</ele><time>2026-03-22T18:26:30.954Z</time></trkpt><trkpt lat="53.5885179" lon="-1.8451343"><ele>189.8</ele><time>2026-03-22T18:26:31.96Z</time></trkpt><trkpt lat="53.5884513" lon="-1.8449907"><ele>187.6</ele><time>2026-03-22T18:26:32.961Z</time></trkpt><trkpt lat="53.5883896" lon="-1.8448559"><ele>185.4</ele><time>2026-03-22T18:26:33.963Z</time></trkpt><trkpt lat="53.588334" lon="-1.8447248"><ele>183.20000000000002</ele><time>2026-03-22T18:26:34.967Z</time></trkpt><trkpt lat="53.5882859" lon="-1.8446066"><ele>181.0</ele><time>2026-03-22T18:26:35.965Z</time></trkpt><trkpt lat="53.5882476" lon="-1.84451"><ele>181.0</ele><time>2026-03-22T18:26:36.964Z</time></trkpt><trkpt lat="53.5882062" lon="-1.8444294"><ele>181.0</ele><time>2026-03-22T18:26:37.968Z</time></trkpt><trkpt lat="53.5881056" lon="-1.844347"><ele>181.0</ele><time>2026-03-22T18:26:39.967Z</time></trkpt><trkpt lat="53.5880388" lon="-1.8443861"><ele>181.0</ele><time>2026-03-22T18:26:40.964Z</time></trkpt><trkpt lat="53.5879578" lon="-1.8444849"><ele>181.0</ele><time>2026-03-22T18:26:41.963Z</time></trkpt><trkpt lat="53.5878871" lon="-1.844614"><ele>181.75</ele><time>2026-03-22T18:26:42.963Z</time></trkpt><trkpt lat="53.5878134" lon="-1.8447669"><ele>182.5</ele><time>2026-03-22T18:26:43.961Z</time></trkpt><trkpt lat="53.5877275" lon="-1.844927"><ele>183.25</ele><time>2026-03-22T18:26:44.964Z</time></trkpt><trkpt lat="53.5876384" lon="-1.8450866"><ele>184.0</ele><time>2026-03-22T18:26:45.965Z</time></trkpt><trkpt lat="53.5875382" lon="-1.8452623"><ele>184.0</ele><time>2026-03-22T18:26:46.965Z</time></trkpt><trkpt lat="53.5874303" lon="-1.8454475"><ele>184.0</ele><time>2026-03-22T18:26:47.966Z</time></trkpt><trkpt lat="53.5873158" lon="-1.8456312"><ele>184.0</ele><time>2026-03-22T18:26:48.963Z</time></trkpt><trkpt lat="53.5871926" lon="-1.845802"><ele>184.0</ele><time>2026-03-22T18:26:49.953Z</time></trkpt><trkpt lat="53.5870669" lon="-1.8459581"><ele>184.0</ele><time>2026-03-22T18:26:50.954Z</time></trkpt><trkpt lat="53.5869429" lon="-1.8460954"><ele>184.0</ele><time>2026-03-22T18:26:51.954Z</time></trkpt><trkpt lat="53.5868214" lon="-1.8462158"><ele>184.0</ele><time>2026-03-22T18:26:52.957Z</time></trkpt><trkpt lat="53.5867023" lon="-1.8463287"><ele>186.0</ele><time>2026-03-22T18:26:53.957Z</time></trkpt><trkpt lat="53.5865778" lon="-1.8464279"><ele>188.0</ele><time>2026-03-22T18:26:54.956Z</time></trkpt><trkpt lat="53.5864586" lon="-1.8465308"><ele>190.0</ele><time>2026-03-22T18:26:55.955Z</time></trkpt><trkpt lat="53.5863349" lon="-1.846642"><ele>192.0</ele><time>2026-03-22T18:26:56.955Z</time></trkpt><trkpt lat="53.5862017" lon="-1.8467572"><ele>192.0</ele><time>2026-03-22T18:26:57.957Z</time></trkpt><trkpt lat="53.5860763" lon="-1.8468929"><ele>192.0</ele><time>2026-03-22T18:26:58.955Z</time></trkpt><trkpt lat="53.5859467" lon="-1.8470322"><ele>192.0</ele><time>2026-03-22T18:26:59.955Z</time></trkpt><trkpt lat="53.5858186" lon="-1.8471432"><ele>192.0</ele><time>2026-03-22T18:27:00.955Z</time></trkpt><trkpt lat="53.5856945" lon="-1.8472117"><ele>192.0</ele><time>2026-03-22T18:27:01.957Z</time></trkpt><trkpt lat="53.5855624" lon="-1.8472173"><ele>192.0</ele><time>2026-03-22T18:27:02.965Z</time></trkpt><trkpt lat="53.5854357" lon="-1.8471867"><ele>192.0</ele><time>2026-03-22T18:27:03.965Z</time></trkpt><trkpt lat="53.5853243" lon="-1.8471383"><ele>192.0</ele><time>2026-03-22T18:27:04.966Z</time></trkpt><trkpt lat="53.5852253" lon="-1.8470829"><ele>193.0</ele><time>2026-03-22T18:27:05.961Z</time></trkpt><trkpt lat="53.5851433" lon="-1.8470227"><ele>194.0</ele><time>2026-03-22T18:27:06.966Z</time></trkpt><trkpt lat="53.585075" lon="-1.8469937"><ele>195.0</ele><time>2026-03-22T18:27:07.963Z</time></trkpt><trkpt lat="53.5849961" lon="-1.8469907"><ele>196.0</ele><time>2026-03-22T18:27:50.958Z</time></trkpt><trkpt lat="53.5849384" lon="-1.8469309"><ele>197.0</ele><time>2026-03-22T18:27:51.962Z</time></trkpt><trkpt lat="53.5848658" lon="-1.8468555"><ele>198.0</ele><time>2026-03-22T18:27:52.961Z</time></trkpt><trkpt lat="53.5847804" lon="-1.8467725"><ele>199.5</ele><time>2026-03-22T18:27:53.962Z</time></trkpt><trkpt lat="53.5846895" lon="-1.8466695"><ele>201.0</ele><time>2026-03-22T18:27:54.957Z</time></trkpt><trkpt lat="53.5846135" lon="-1.8465839"><ele>202.5</ele><time>2026-03-22T18:27:55.959Z</time></trkpt><trkpt lat="53.5845482" lon="-1.8465134"><ele>204.0</ele><time>2026-03-22T18:27:56.964Z</time></trkpt><trkpt lat="53.5844863" lon="-1.8464313"><ele>205.5</ele><time>2026-03-22T18:27:57.96Z</time></trkpt><trkpt lat="53.5844293" lon="-1.8463323"><ele>207.0</ele><time>2026-03-22T18:27:58.959Z</time></trkpt><trkpt lat="53.5843726" lon="-1.8462059"><ele>208.0</ele><time>2026-03-22T18:27:59.96Z</time></trkpt><trkpt lat="53.5843111" lon="-1.846055"><ele>209.0</ele><time>2026-03-22T18:28:00.964Z</time></trkpt><trkpt lat="53.584246" lon="-1.8458935"><ele>210.0</ele><time>2026-03-22T18:28:01.967Z</time></trkpt><trkpt lat="53.5841837" lon="-1.8457431"><ele>211.0</ele><time>2026-03-22T18:28:02.968Z</time></trkpt><trkpt lat="53.5841199" lon="-1.8456006"><ele>212.0</ele><time>2026-03-22T18:28:03.965Z</time></trkpt><trkpt lat="53.5840555" lon="-1.8454679"><ele>213.39999999999998</ele><time>2026-03-22T18:28:04.965Z</time></trkpt><trkpt lat="53.5839906" lon="-1.8453436"><ele>214.79999999999998</ele><time>2026-03-22T18:28:05.961Z</time></trkpt><trkpt lat="53.5839277" lon="-1.845225"><ele>216.2</ele><time>2026-03-22T18:28:06.963Z</time></trkpt><trkpt lat="53.5838679" lon="-1.8451016"><ele>217.6</ele><time>2026-03-22T18:28:07.966Z</time></trkpt><trkpt lat="53.5838124" lon="-1.8449815"><ele>219.0</ele><time>2026-03-22T18:28:08.961Z</time></trkpt><trkpt lat="53.5837565" lon="-1.8448816"><ele>219.66666666666666</ele><time>2026-03-22T18:28:09.968Z</time></trkpt><trkpt lat="53.5837002" lon="-1.8448037"><ele>220.33333333333331</ele><time>2026-03-22T18:28:10.961Z</time></trkpt><trkpt lat="53.58363" lon="-1.8447573"><ele>221.0</ele><time>2026-03-22T18:28:11.964Z</time></trkpt><trkpt lat="53.5835456" lon="-1.8447323"><ele>221.66666666666666</ele><time>2026-03-22T18:28:12.962Z</time></trkpt><trkpt lat="53.5834505" lon="-1.8447045"><ele>222.33333333333331</ele><time>2026-03-22T18:28:13.959Z</time></trkpt><trkpt lat="53.5833465" lon="-1.8446615"><ele>223.0</ele><time>2026-03-22T18:28:14.957Z</time></trkpt><trkpt lat="53.5832383" lon="-1.844596"><ele>224.5</ele><time>2026-03-22T18:28:15.959Z</time></trkpt><trkpt lat="53.5831268" lon="-1.844522"><ele>226.0</ele><time>2026-03-22T18:28:16.968Z</time></trkpt><trkpt lat="53.5830157" lon="-1.8444474"><ele>227.5</ele><time>2026-03-22T18:28:17.959Z</time></trkpt><trkpt lat="53.5829047" lon="-1.8443786"><ele>229.0</ele><time>2026-03-22T18:28:18.961Z</time></trkpt><trkpt lat="53.5827923" lon="-1.8443049"><ele>231.5</ele><time>2026-03-22T18:28:19.96Z</time></trkpt><trkpt lat="53.5826816" lon="-1.8442295"><ele>234.0</ele><time>2026-03-22T18:28:20.964Z</time></trkpt><trkpt lat="53.5825721" lon="-1.844147"><ele>236.5</ele><time>2026-03-22T18:28:21.965Z</time></trkpt><trkpt lat="53.5824647" lon="-1.8440679"><ele>239.0</ele><time>2026-03-22T18:28:22.961Z</time></trkpt><trkpt lat="53.5823596" lon="-1.8439904"><ele>239.0</ele><time>2026-03-22T18:28:23.967Z</time></trkpt><trkpt lat="53.5822551" lon="-1.8439187"><ele>238.99999999999997</ele><time>2026-03-22T18:28:24.972Z</time></trkpt><trkpt lat="53.5821527" lon="-1.8438564"><ele>238.99999999999997</ele><time>2026-03-22T18:28:25.971Z</time></trkpt><trkpt lat="53.5820488" lon="-1.8437948"><ele>239.0</ele><time>2026-03-22T18:28:26.968Z</time></trkpt><trkpt lat="53.5819504" lon="-1.8437201"><ele>239.0</ele><time>2026-03-22T18:28:27.966Z</time></trkpt><trkpt lat="53.5818566" lon="-1.8436417"><ele>240.6</ele><time>2026-03-22T18:28:28.967Z</time></trkpt><trkpt lat="53.5817632" lon="-1.8435721"><ele>242.2</ele><time>2026-03-22T18:28:29.965Z</time></trkpt><trkpt lat="53.5816674" lon="-1.8435071"><ele>243.79999999999998</ele><time>2026-03-22T18:28:30.964Z</time></trkpt><trkpt lat="53.5815683" lon="-1.8434448"><ele>245.39999999999998</ele><time>2026-03-22T18:28:31.969Z</time></trkpt><trkpt lat="53.5814656" lon="-1.8433898"><ele>247.0</ele><time>2026-03-22T18:28:32.969Z</time></trkpt><trkpt lat="53.5813614" lon="-1.8433399"><ele>248.0</ele><time>2026-03-22T18:28:33.968Z</time></trkpt><trkpt lat="53.5812596" lon="-1.843279"><ele>249.0</ele><time>2026-03-22T18:28:34.968Z</time></trkpt><trkpt lat="53.5811598" lon="-1.8432059"><ele>250.0</ele><time>2026-03-22T18:28:35.968Z</time></trkpt><trkpt lat="53.5810629" lon="-1.8431224"><ele>251.0</ele><time>2026-03-22T18:28:36.967Z</time></trkpt><trkpt lat="53.5809663" lon="-1.8430457"><ele>252.0</ele><time>2026-03-22T18:28:37.968Z</time></trkpt><trkpt lat="53.5808649" lon="-1.8429744"><ele>254.0</ele><time>2026-03-22T18:28:38.964Z</time></trkpt><trkpt lat="53.5807622" lon="-1.8429058"><ele>256.0</ele><time>2026-03-22T18:28:39.963Z</time></trkpt><trkpt lat="53.5806581" lon="-1.8428364"><ele>258.0</ele><time>2026-03-22T18:28:40.963Z</time></trkpt><trkpt lat="53.5805524" lon="-1.8427647"><ele>260.0</ele><time>2026-03-22T18:28:41.964Z</time></trkpt><trkpt lat="53.5804475" lon="-1.8426959"><ele>262.0</ele><time>2026-03-22T18:28:42.966Z</time></trkpt><trkpt lat="53.5803435" lon="-1.8426332"><ele>264.8</ele><time>2026-03-22T18:28:43.967Z</time></trkpt><trkpt lat="53.5802394" lon="-1.8425745"><ele>267.6</ele><time>2026-03-22T18:28:44.964Z</time></trkpt><trkpt lat="53.5801374" lon="-1.8425121"><ele>270.40000000000003</ele><time>2026-03-22T18:28:45.968Z</time></trkpt><trkpt lat="53.5800334" lon="-1.8424415"><ele>273.2</ele><time>2026-03-22T18:28:46.966Z</time></trkpt><trkpt lat="53.5799264" lon="-1.8423667"><ele>276.0</ele><time>2026-03-22T18:28:47.967Z</time></trkpt><trkpt lat="53.5798164" lon="-1.8422835"><ele>276.0</ele><time>2026-03-22T18:28:48.964Z</time></trkpt><trkpt lat="53.5797056" lon="-1.8422007"><ele>276.0</ele><time>2026-03-22T18:28:49.965Z</time></trkpt><trkpt lat="53.5795951" lon="-1.8421266"><ele>276.0</ele><time>2026-03-22T18:28:50.966Z</time></trkpt><trkpt lat="53.5794867" lon="-1.8420579"><ele>276.0</ele><time>2026-03-22T18:28:51.963Z</time></trkpt><trkpt lat="53.5793806" lon="-1.8419839"><ele>277.0</ele><time>2026-03-22T18:28:52.965Z</time></trkpt><trkpt lat="53.5792829" lon="-1.8419075"><ele>278.0</ele><time>2026-03-22T18:28:53.967Z</time></trkpt><trkpt lat="53.5791937" lon="-1.8418425"><ele>279.0</ele><time>2026-03-22T18:28:54.967Z</time></trkpt><trkpt lat="53.5791069" lon="-1.8417976"><ele>280.0</ele><time>2026-03-22T18:28:55.968Z</time></trkpt><trkpt lat="53.5790208" lon="-1.8417577"><ele>281.0</ele><time>2026-03-22T18:28:56.968Z</time></trkpt><trkpt lat="53.5789381" lon="-1.8417068"><ele>281.8</ele><time>2026-03-22T18:28:57.966Z</time></trkpt><trkpt lat="53.5788562" lon="-1.8416413"><ele>282.6</ele><time>2026-03-22T18:28:58.965Z</time></trkpt><trkpt lat="53.5787697" lon="-1.8415713"><ele>283.4</ele><time>2026-03-22T18:28:59.965Z</time></trkpt><trkpt lat="53.5786741" lon="-1.841505"><ele>284.2</ele><time>2026-03-22T18:29:00.966Z</time></trkpt><trkpt lat="53.578572" lon="-1.8414289"><ele>285.0</ele><time>2026-03-22T18:29:01.966Z</time></trkpt><trkpt lat="53.5784639" lon="-1.8413462"><ele>287.0</ele><time>2026-03-22T18:29:02.967Z</time></trkpt><trkpt lat="53.5783543" lon="-1.8412673"><ele>289.0</ele><time>2026-03-22T18:29:03.971Z</time></trkpt><trkpt lat="53.578245" lon="-1.8411851"><ele>291.0</ele><time>2026-03-22T18:29:04.969Z</time></trkpt><trkpt lat="53.5781359" lon="-1.8411098"><ele>293.0</ele><time>2026-03-22T18:29:05.968Z</time></trkpt><trkpt lat="53.578027" lon="-1.8410369"><ele>294.25</ele><time>2026-03-22T18:29:06.97Z</time></trkpt><trkpt lat="53.5779174" lon="-1.8409615"><ele>295.5</ele><time>2026-03-22T18:29:07.958Z</time></trkpt><trkpt lat="53.5778099" lon="-1.8408858"><ele>296.75</ele><time>2026-03-22T18:29:08.969Z</time></trkpt><trkpt lat="53.577706" lon="-1.8408126"><ele>298.0</ele><time>2026-03-22T18:29:09.969Z</time></trkpt><trkpt lat="53.5776059" lon="-1.8407446"><ele>299.8</ele><time>2026-03-22T18:29:10.968Z</time></trkpt><trkpt lat="53.5775055" lon="-1.8406812"><ele>301.6</ele><time>2026-03-22T18:29:11.966Z</time></trkpt><trkpt lat="53.5774042" lon="-1.8406224"><ele>303.4</ele><time>2026-03-22T18:29:12.97Z</time></trkpt><trkpt lat="53.5773045" lon="-1.8405625"><ele>305.2</ele><time>2026-03-22T18:29:13.966Z</time></trkpt><trkpt lat="53.5772065" lon="-1.8404974"><ele>307.0</ele><time>2026-03-22T18:29:14.965Z</time></trkpt><trkpt lat="53.5771082" lon="-1.8404276"><ele>309.0</ele><time>2026-03-22T18:29:15.966Z</time></trkpt><trkpt lat="53.5770095" lon="-1.8403558"><ele>311.0</ele><time>2026-03-22T18:29:16.964Z</time></trkpt><trkpt lat="53.5769175" lon="-1.8402881"><ele>313.0</ele><time>2026-03-22T18:29:17.967Z</time></trkpt><trkpt lat="53.5768374" lon="-1.840233"><ele>315.0</ele><time>2026-03-22T18:29:18.967Z</time></trkpt><trkpt lat="53.5767692" lon="-1.8401849"><ele>317.0</ele><time>2026-03-22T18:29:19.966Z</time></trkpt><trkpt lat="53.5767024" lon="-1.8401338"><ele>319.0</ele><time>2026-03-22T18:29:20.966Z</time></trkpt><trkpt lat="53.5766296" lon="-1.8400783"><ele>319.2</ele><time>2026-03-22T18:29:21.967Z</time></trkpt><trkpt lat="53.5765501" lon="-1.8400264"><ele>319.4</ele><time>2026-03-22T18:29:22.965Z</time></trkpt><trkpt lat="53.5764626" lon="-1.8399805"><ele>319.6</ele><time>2026-03-22T18:29:23.967Z</time></trkpt><trkpt lat="53.57637" lon="-1.8399341"><ele>319.8</ele><time>2026-03-22T18:29:24.966Z</time></trkpt><trkpt lat="53.5762785" lon="-1.839885"><ele>320.0</ele><time>2026-03-22T18:29:25.965Z</time></trkpt><trkpt lat="53.5761867" lon="-1.839825"><ele>322.4</ele><time>2026-03-22T18:29:26.959Z</time></trkpt><trkpt lat="53.5760934" lon="-1.839757"><ele>324.8</ele><time>2026-03-22T18:29:27.96Z</time></trkpt><trkpt lat="53.5759963" lon="-1.8396859"><ele>327.20000000000005</ele><time>2026-03-22T18:29:28.964Z</time></trkpt><trkpt lat="53.5758964" lon="-1.8396179"><ele>329.6</ele><time>2026-03-22T18:29:29.965Z</time></trkpt><trkpt lat="53.5757933" lon="-1.8395471"><ele>332.0</ele><time>2026-03-22T18:29:30.966Z</time></trkpt><trkpt lat="53.5756905" lon="-1.8394741"><ele>332.0</ele><time>2026-03-22T18:29:31.969Z</time></trkpt><trkpt lat="53.5755891" lon="-1.8393919"><ele>332.0</ele><time>2026-03-22T18:29:32.971Z</time></trkpt><trkpt lat="53.5754897" lon="-1.8393072"><ele>332.0</ele><time>2026-03-22T18:29:33.967Z</time></trkpt><trkpt lat="53.575393" lon="-1.8392255"><ele>332.0</ele><time>2026-03-22T18:29:34.964Z</time></trkpt><trkpt lat="53.5753023" lon="-1.839151"><ele>332.0</ele><time>2026-03-22T18:29:35.961Z</time></trkpt><trkpt lat="53.5752211" lon="-1.8390842"><ele>332.83333333333337</ele><time>2026-03-22T18:29:36.96Z</time></trkpt><trkpt lat="53.5751524" lon="-1.8390287"><ele>333.6666666666667</ele><time>2026-03-22T18:29:37.965Z</time></trkpt><trkpt lat="53.575092" lon="-1.8389781"><ele>334.5</ele><time>2026-03-22T18:29:38.965Z</time></trkpt><trkpt lat="53.5750359" lon="-1.8389285"><ele>335.3333333333333</ele><time>2026-03-22T18:29:39.963Z</time></trkpt><trkpt lat="53.5749461" lon="-1.8388533"><ele>336.16666666666663</ele><time>2026-03-22T18:29:41.958Z</time></trkpt><trkpt lat="53.5748669" lon="-1.8387914"><ele>337.0</ele><time>2026-03-22T18:29:43.961Z</time></trkpt><trkpt lat="53.5747983" lon="-1.8387358"><ele>337.0</ele><time>2026-03-22T18:29:45.962Z</time></trkpt><trkpt lat="53.5747274" lon="-1.8386715"><ele>337.0</ele><time>2026-03-22T18:29:47.959Z</time></trkpt><trkpt lat="53.574653" lon="-1.8386044"><ele>337.0</ele><time>2026-03-22T18:29:49.963Z</time></trkpt><trkpt lat="53.5745872" lon="-1.8385454"><ele>337.0</ele><time>2026-03-22T18:29:51.966Z</time></trkpt><trkpt lat="53.5745106" lon="-1.8384814"><ele>337.0</ele><time>2026-03-22T18:29:53.96Z</time></trkpt><trkpt lat="53.5744041" lon="-1.8383978"><ele>337.0</ele><time>2026-03-22T18:29:55.96Z</time></trkpt><trkpt lat="53.5742958" lon="-1.8383075"><ele>338.0</ele><time>2026-03-22T18:29:57.961Z</time></trkpt><trkpt lat="53.5741895" lon="-1.8382308"><ele>339.0</ele><time>2026-03-22T18:29:59.958Z</time></trkpt><trkpt lat="53.5740846" lon="-1.8381553"><ele>340.0</ele><time>2026-03-22T18:30:01.961Z</time></trkpt><trkpt lat="53.5739727" lon="-1.8380553"><ele>341.0</ele><time>2026-03-22T18:30:03.958Z</time></trkpt><trkpt lat="53.5739155" lon="-1.8379945"><ele>342.0</ele><time>2026-03-22T18:30:04.957Z</time></trkpt><trkpt lat="53.5738573" lon="-1.8379318"><ele>341.99999999999994</ele><time>2026-03-22T18:30:05.962Z</time></trkpt><trkpt lat="53.5737972" lon="-1.8378741"><ele>342.0</ele><time>2026-03-22T18:30:06.967Z</time></trkpt><trkpt lat="53.5737342" lon="-1.837825"><ele>342.0</ele><time>2026-03-22T18:30:07.961Z</time></trkpt><trkpt lat="53.5736698" lon="-1.8377815"><ele>342.0</ele><time>2026-03-22T18:30:08.967Z</time></trkpt><trkpt lat="53.5736031" lon="-1.8377345"><ele>342.0</ele><time>2026-03-22T18:30:09.962Z</time></trkpt><trkpt lat="53.5735317" lon="-1.8376853"><ele>341.99999999999994</ele><time>2026-03-22T18:30:10.959Z</time></trkpt><trkpt lat="53.5734563" lon="-1.8376345"><ele>342.0</ele><time>2026-03-22T18:30:11.96Z</time></trkpt><trkpt lat="53.5733796" lon="-1.837583"><ele>342.6</ele><time>2026-03-22T18:30:12.958Z</time></trkpt><trkpt lat="53.5733016" lon="-1.8375274"><ele>343.20000000000005</ele><time>2026-03-22T18:30:13.967Z</time></trkpt><trkpt lat="53.5732172" lon="-1.8374631"><ele>343.8</ele><time>2026-03-22T18:30:14.965Z</time></trkpt><trkpt lat="53.5731264" lon="-1.8373925"><ele>344.4</ele><time>2026-03-22T18:30:15.965Z</time></trkpt><trkpt lat="53.5730302" lon="-1.8373138"><ele>345.0</ele><time>2026-03-22T18:30:16.966Z</time></trkpt><trkpt lat="53.5729302" lon="-1.8372323"><ele>347.5</ele><time>2026-03-22T18:30:17.969Z</time></trkpt><trkpt lat="53.5728277" lon="-1.8371428"><ele>350.0</ele><time>2026-03-22T18:30:18.968Z</time></trkpt><trkpt lat="53.5727264" lon="-1.8370479"><ele>352.5</ele><time>2026-03-22T18:30:19.966Z</time></trkpt><trkpt lat="53.5726296" lon="-1.8369541"><ele>355.0</ele><time>2026-03-22T18:30:20.967Z</time></trkpt><trkpt lat="53.5725331" lon="-1.8368633"><ele>354.0</ele><time>2026-03-22T18:30:21.968Z</time></trkpt><trkpt lat="53.5724399" lon="-1.8367717"><ele>353.0</ele><time>2026-03-22T18:30:22.967Z</time></trkpt><trkpt lat="53.5723467" lon="-1.8366882"><ele>352.0</ele><time>2026-03-22T18:30:23.967Z</time></trkpt><trkpt lat="53.5722547" lon="-1.8366087"><ele>351.0</ele><time>2026-03-22T18:30:24.966Z</time></trkpt><trkpt lat="53.5721655" lon="-1.8365284"><ele>350.0</ele><time>2026-03-22T18:30:25.966Z</time></trkpt><trkpt lat="53.5720808" lon="-1.8364443"><ele>350.83333333333337</ele><time>2026-03-22T18:30:26.965Z</time></trkpt><trkpt lat="53.5720008" lon="-1.836359"><ele>351.6666666666667</ele><time>2026-03-22T18:30:27.967Z</time></trkpt><trkpt lat="53.5719291" lon="-1.8362819"><ele>352.5</ele><time>2026-03-22T18:30:28.968Z</time></trkpt><trkpt lat="53.5718621" lon="-1.8362171"><ele>353.3333333333333</ele><time>2026-03-22T18:30:29.968Z</time></trkpt><trkpt lat="53.5718018" lon="-1.8361552"><ele>354.16666666666663</ele><time>2026-03-22T18:30:30.966Z</time></trkpt><trkpt lat="53.5717426" lon="-1.8361014"><ele>355.0</ele><time>2026-03-22T18:30:31.965Z</time></trkpt><trkpt lat="53.5716267" lon="-1.8360373"><ele>355.0</ele><time>2026-03-22T18:30:33.968Z</time></trkpt><trkpt lat="53.5715028" lon="-1.8360662"><ele>355.0</ele><time>2026-03-22T18:30:35.964Z</time></trkpt><trkpt lat="53.5714324" lon="-1.8361135"><ele>355.0</ele><time>2026-03-22T18:30:36.966Z</time></trkpt><trkpt lat="53.5713675" lon="-1.8361728"><ele>355.0</ele><time>2026-03-22T18:30:37.967Z</time></trkpt><trkpt lat="53.5713127" lon="-1.8362334"><ele>355.0</ele><time>2026-03-22T18:30:38.966Z</time></trkpt><trkpt lat="53.5712573" lon="-1.8362881"><ele>355.0</ele><time>2026-03-22T18:30:39.966Z</time></trkpt><trkpt lat="53.5711534" lon="-1.8363747"><ele>354.5</ele><time>2026-03-22T18:30:41.962Z</time></trkpt><trkpt lat="53.5710608" lon="-1.8363796"><ele>354.0</ele><time>2026-03-22T18:30:43.964Z</time></trkpt><trkpt lat="53.5709858" lon="-1.8363061"><ele>353.5</ele><time>2026-03-22T18:30:45.962Z</time></trkpt><trkpt lat="53.5709217" lon="-1.8362061"><ele>353.0</ele><time>2026-03-22T18:30:47.967Z</time></trkpt><trkpt lat="53.5708572" lon="-1.8360943"><ele>352.5</ele><time>2026-03-22T18:30:49.965Z</time></trkpt><trkpt lat="53.570796" lon="-1.8360031"><ele>352.0</ele><time>2026-03-22T18:30:51.965Z</time></trkpt><trkpt lat="53.5707317" lon="-1.8359484"><ele>352.0</ele><time>2026-03-22T18:30:54.966Z</time></trkpt><trkpt lat="53.5706605" lon="-1.8359682"><ele>352.0</ele><time>2026-03-22T18:30:57.964Z</time></trkpt><trkpt lat="53.5705978" lon="-1.8361942"><ele>352.0</ele><time>2026-03-22T18:30:59.968Z</time></trkpt><trkpt lat="53.5705714" lon="-1.8363911"><ele>352.0</ele><time>2026-03-22T18:31:00.965Z</time></trkpt><trkpt lat="53.5705471" lon="-1.8366378"><ele>353.66666666666663</ele><time>2026-03-22T18:31:01.958Z</time></trkpt><trkpt lat="53.5705229" lon="-1.8369169"><ele>355.3333333333333</ele><time>2026-03-22T18:31:02.965Z</time></trkpt><trkpt lat="53.5704941" lon="-1.8372147"><ele>357.0</ele><time>2026-03-22T18:31:03.962Z</time></trkpt><trkpt lat="53.5704693" lon="-1.8375066"><ele>358.0</ele><time>2026-03-22T18:31:04.961Z</time></trkpt><trkpt lat="53.5704381" lon="-1.8378084"><ele>359.0</ele><time>2026-03-22T18:31:05.961Z</time></trkpt><trkpt lat="53.570398" lon="-1.8381306"><ele>360.0</ele><time>2026-03-22T18:31:06.959Z</time></trkpt><trkpt lat="53.5703427" lon="-1.8384957"><ele>360.3333333333333</ele><time>2026-03-22T18:31:07.961Z</time></trkpt><trkpt lat="53.5702863" lon="-1.8388468"><ele>360.66666666666663</ele><time>2026-03-22T18:31:08.959Z</time></trkpt><trkpt lat="53.5702332" lon="-1.8391986"><ele>361.0</ele><time>2026-03-22T18:31:09.958Z</time></trkpt><trkpt lat="53.5701781" lon="-1.8395542"><ele>361.0</ele><time>2026-03-22T18:31:10.955Z</time></trkpt><trkpt lat="53.5701186" lon="-1.8399089"><ele>361.0</ele><time>2026-03-22T18:31:11.956Z</time></trkpt><trkpt lat="53.5700504" lon="-1.8402507"><ele>361.0</ele><time>2026-03-22T18:31:12.954Z</time></trkpt><trkpt lat="53.569962" lon="-1.8405788"><ele>361.0</ele><time>2026-03-22T18:31:13.955Z</time></trkpt><trkpt lat="53.5698651" lon="-1.8409094"><ele>361.0</ele><time>2026-03-22T18:31:14.962Z</time></trkpt><trkpt lat="53.5697616" lon="-1.84123"><ele>361.0</ele><time>2026-03-22T18:31:15.962Z</time></trkpt><trkpt lat="53.5696593" lon="-1.8415548"><ele>361.0</ele><time>2026-03-22T18:31:16.962Z</time></trkpt><trkpt lat="53.5695596" lon="-1.8418803"><ele>361.0</ele><time>2026-03-22T18:31:17.96Z</time></trkpt><trkpt lat="53.5694574" lon="-1.8422001"><ele>361.0</ele><time>2026-03-22T18:31:18.961Z</time></trkpt><trkpt lat="53.5693533" lon="-1.8425131"><ele>363.3333333333333</ele><time>2026-03-22T18:31:19.959Z</time></trkpt><trkpt lat="53.5692515" lon="-1.8428241"><ele>365.6666666666667</ele><time>2026-03-22T18:31:20.961Z</time></trkpt><trkpt lat="53.5691469" lon="-1.8431377"><ele>368.0</ele><time>2026-03-22T18:31:21.96Z</time></trkpt><trkpt lat="53.569043" lon="-1.8434537"><ele>368.0</ele><time>2026-03-22T18:31:22.959Z</time></trkpt><trkpt lat="53.568944" lon="-1.8437783"><ele>368.0</ele><time>2026-03-22T18:31:23.959Z</time></trkpt><trkpt lat="53.5688423" lon="-1.8441016"><ele>368.0</ele><time>2026-03-22T18:31:24.959Z</time></trkpt><trkpt lat="53.56874" lon="-1.8444261"><ele>369.0</ele><time>2026-03-22T18:31:25.96Z</time></trkpt><trkpt lat="53.5686378" lon="-1.8447568"><ele>370.0</ele><time>2026-03-22T18:31:26.959Z</time></trkpt><trkpt lat="53.5685363" lon="-1.8450914"><ele>371.0</ele><time>2026-03-22T18:31:27.958Z</time></trkpt><trkpt lat="53.5684345" lon="-1.8454249"><ele>371.0</ele><time>2026-03-22T18:31:28.96Z</time></trkpt><trkpt lat="53.5683312" lon="-1.8457782"><ele>371.0</ele><time>2026-03-22T18:31:29.961Z</time></trkpt><trkpt lat="53.5682397" lon="-1.8461163"><ele>371.0</ele><time>2026-03-22T18:31:30.959Z</time></trkpt><trkpt lat="53.5681572" lon="-1.8464508"><ele>371.0</ele><time>2026-03-22T18:31:31.959Z</time></trkpt><trkpt lat="53.5680736" lon="-1.8467838"><ele>371.0</ele><time>2026-03-22T18:31:32.96Z</time></trkpt><trkpt lat="53.5680027" lon="-1.847117"><ele>371.0</ele><time>2026-03-22T18:31:33.96Z</time></trkpt><trkpt lat="53.5679382" lon="-1.8474483"><ele>371.0</ele><time>2026-03-22T18:31:34.961Z</time></trkpt><trkpt lat="53.5678795" lon="-1.8477849"><ele>371.0</ele><time>2026-03-22T18:31:35.96Z</time></trkpt><trkpt lat="53.5678276" lon="-1.8481237"><ele>373.0</ele><time>2026-03-22T18:31:36.961Z</time></trkpt><trkpt lat="53.5677817" lon="-1.8484655"><ele>375.0</ele><time>2026-03-22T18:31:37.962Z</time></trkpt><trkpt lat="53.5677493" lon="-1.8488139"><ele>377.0</ele><time>2026-03-22T18:31:38.962Z</time></trkpt><trkpt lat="53.5677126" lon="-1.8491674"><ele>377.6666666666667</ele><time>2026-03-22T18:31:39.959Z</time></trkpt><trkpt lat="53.5676793" lon="-1.8495244"><ele>378.3333333333333</ele><time>2026-03-22T18:31:40.96Z</time></trkpt><trkpt lat="53.5676484" lon="-1.8498809"><ele>379.0</ele><time>2026-03-22T18:31:41.959Z</time></trkpt><trkpt lat="53.5676198" lon="-1.850237"><ele>379.66666666666663</ele><time>2026-03-22T18:31:42.961Z</time></trkpt><trkpt lat="53.5675888" lon="-1.8505946"><ele>380.3333333333333</ele><time>2026-03-22T18:31:43.96Z</time></trkpt><trkpt lat="53.5675574" lon="-1.8509479"><ele>381.0</ele><time>2026-03-22T18:31:44.954Z</time></trkpt><trkpt lat="53.5675273" lon="-1.8512991"><ele>381.6666666666667</ele><time>2026-03-22T18:31:45.955Z</time></trkpt><trkpt lat="53.5674912" lon="-1.8516509"><ele>382.33333333333337</ele><time>2026-03-22T18:31:46.961Z</time></trkpt><trkpt lat="53.5674555" lon="-1.8520048"><ele>383.0</ele><time>2026-03-22T18:31:47.959Z</time></trkpt><trkpt lat="53.5674214" lon="-1.8523537"><ele>384.6666666666667</ele><time>2026-03-22T18:31:48.961Z</time></trkpt><trkpt lat="53.567388" lon="-1.8527024"><ele>386.33333333333337</ele><time>2026-03-22T18:31:49.961Z</time></trkpt><trkpt lat="53.5673583" lon="-1.8530538"><ele>388.0</ele><time>2026-03-22T18:31:50.958Z</time></trkpt><trkpt lat="53.567332" lon="-1.8534075"><ele>388.33333333333337</ele><time>2026-03-22T18:31:51.959Z</time></trkpt><trkpt lat="53.5673039" lon="-1.8537619"><ele>388.66666666666663</ele><time>2026-03-22T18:31:52.959Z</time></trkpt><trkpt lat="53.5672805" lon="-1.8541224"><ele>389.0</ele><time>2026-03-22T18:31:53.96Z</time></trkpt><trkpt lat="53.567266" lon="-1.8544856"><ele>389.66666666666663</ele><time>2026-03-22T18:31:54.959Z</time></trkpt><trkpt lat="53.5672485" lon="-1.8548539"><ele>390.33333333333337</ele><time>2026-03-22T18:31:55.957Z</time></trkpt><trkpt lat="53.567232" lon="-1.8552223"><ele>391.0</ele><time>2026-03-22T18:31:56.958Z</time></trkpt><trkpt lat="53.5672204" lon="-1.8555939"><ele>391.6666666666667</ele><time>2026-03-22T18:31:57.958Z</time></trkpt><trkpt lat="53.567211" lon="-1.8559579"><ele>392.33333333333337</ele><time>2026-03-22T18:31:58.961Z</time></trkpt><trkpt lat="53.5672045" lon="-1.8563285"><ele>393.0</ele><time>2026-03-22T18:31:59.962Z</time></trkpt><trkpt lat="53.5671932" lon="-1.8566873"><ele>394.33333333333337</ele><time>2026-03-22T18:32:00.96Z</time></trkpt><trkpt lat="53.5671822" lon="-1.8570499"><ele>395.6666666666667</ele><time>2026-03-22T18:32:01.959Z</time></trkpt><trkpt lat="53.5671735" lon="-1.8574128"><ele>397.0</ele><time>2026-03-22T18:32:02.96Z</time></trkpt><trkpt lat="53.5671613" lon="-1.8577784"><ele>398.0</ele><time>2026-03-22T18:32:03.96Z</time></trkpt><trkpt lat="53.5671496" lon="-1.8581477"><ele>399.0</ele><time>2026-03-22T18:32:04.958Z</time></trkpt><trkpt lat="53.5671356" lon="-1.8585139"><ele>400.0</ele><time>2026-03-22T18:32:05.958Z</time></trkpt><trkpt lat="53.5671237" lon="-1.8588853"><ele>400.6666666666667</ele><time>2026-03-22T18:32:06.958Z</time></trkpt><trkpt lat="53.5671092" lon="-1.8592534"><ele>401.33333333333337</ele><time>2026-03-22T18:32:07.959Z</time></trkpt><trkpt lat="53.5670978" lon="-1.8596106"><ele>402.0</ele><time>2026-03-22T18:32:08.95Z</time></trkpt><trkpt lat="53.5670889" lon="-1.8599373"><ele>403.0</ele><time>2026-03-22T18:32:09.957Z</time></trkpt><trkpt lat="53.567083" lon="-1.8602048"><ele>404.0</ele><time>2026-03-22T18:32:10.958Z</time></trkpt><trkpt lat="53.5670803" lon="-1.8604082"><ele>405.0</ele><time>2026-03-22T18:32:11.956Z</time></trkpt><trkpt lat="53.5670904" lon="-1.8605332"><ele>406.0</ele><time>2026-03-22T18:32:12.956Z</time></trkpt><trkpt lat="53.5670854" lon="-1.8606444"><ele>407.0</ele><time>2026-03-22T18:32:13.958Z</time></trkpt><trkpt lat="53.5670466" lon="-1.8607853"><ele>404.8333333333333</ele><time>2026-03-22T18:32:15.965Z</time></trkpt><trkpt lat="53.5670013" lon="-1.860869"><ele>402.66666666666663</ele><time>2026-03-22T18:32:17.966Z</time></trkpt><trkpt lat="53.5669578" lon="-1.8609555"><ele>400.5</ele><time>2026-03-22T18:32:23.967Z</time></trkpt><trkpt lat="53.5669364" lon="-1.8610616"><ele>398.33333333333337</ele><time>2026-03-22T18:32:55.964Z</time></trkpt><trkpt lat="53.5668764" lon="-1.8612463"><ele>396.1666666666667</ele><time>2026-03-22T18:32:57.967Z</time></trkpt><trkpt lat="53.566825" lon="-1.8613574"><ele>394.0</ele><time>2026-03-22T18:32:58.966Z</time></trkpt><trkpt lat="53.5667654" lon="-1.8614888"><ele>394.0</ele><time>2026-03-22T18:32:59.966Z</time></trkpt><trkpt lat="53.566698" lon="-1.8616349"><ele>394.0</ele><time>2026-03-22T18:33:00.963Z</time></trkpt><trkpt lat="53.5666291" lon="-1.8617826"><ele>394.0</ele><time>2026-03-22T18:33:01.963Z</time></trkpt><trkpt lat="53.5665523" lon="-1.8619206"><ele>394.0</ele><time>2026-03-22T18:33:02.961Z</time></trkpt><trkpt lat="53.5664709" lon="-1.862052"><ele>394.0</ele><time>2026-03-22T18:33:03.968Z</time></trkpt><trkpt lat="53.5663828" lon="-1.8621728"><ele>395.25</ele><time>2026-03-22T18:33:04.966Z</time></trkpt><trkpt lat="53.5662918" lon="-1.8622936"><ele>396.5</ele><time>2026-03-22T18:33:05.967Z</time></trkpt><trkpt lat="53.5662026" lon="-1.8624185"><ele>397.75</ele><time>2026-03-22T18:33:06.966Z</time></trkpt><trkpt lat="53.5661196" lon="-1.8625503"><ele>399.0</ele><time>2026-03-22T18:33:07.969Z</time></trkpt><trkpt lat="53.5660427" lon="-1.8626819"><ele>396.6</ele><time>2026-03-22T18:33:08.969Z</time></trkpt><trkpt lat="53.5659689" lon="-1.8628108"><ele>394.2</ele><time>2026-03-22T18:33:09.967Z</time></trkpt><trkpt lat="53.5659029" lon="-1.8629372"><ele>391.8</ele><time>2026-03-22T18:33:10.968Z</time></trkpt><trkpt lat="53.5658469" lon="-1.8630675"><ele>389.40000000000003</ele><time>2026-03-22T18:33:11.966Z</time></trkpt><trkpt lat="53.5658076" lon="-1.8632058"><ele>387.0</ele><time>2026-03-22T18:33:12.965Z</time></trkpt><trkpt lat="53.565788" lon="-1.8633495"><ele>388.0</ele><time>2026-03-22T18:33:13.967Z</time></trkpt><trkpt lat="53.5657883" lon="-1.8635037"><ele>389.0</ele><time>2026-03-22T18:33:14.968Z</time></trkpt><trkpt lat="53.565804" lon="-1.8636828"><ele>390.0</ele><time>2026-03-22T18:33:15.966Z</time></trkpt><trkpt lat="53.5658273" lon="-1.8638759"><ele>391.0</ele><time>2026-03-22T18:33:16.963Z</time></trkpt><trkpt lat="53.5658404" lon="-1.8640731"><ele>392.0</ele><time>2026-03-22T18:33:17.965Z</time></trkpt><trkpt lat="53.5658428" lon="-1.8642762"><ele>393.25</ele><time>2026-03-22T18:33:18.97Z</time></trkpt><trkpt lat="53.5658332" lon="-1.8644821"><ele>394.5</ele><time>2026-03-22T18:33:19.968Z</time></trkpt><trkpt lat="53.5658213" lon="-1.8646874"><ele>395.75</ele><time>2026-03-22T18:33:20.965Z</time></trkpt><trkpt lat="53.5658048" lon="-1.8648911"><ele>397.0</ele><time>2026-03-22T18:33:21.962Z</time></trkpt><trkpt lat="53.5657696" lon="-1.8650937"><ele>398.25</ele><time>2026-03-22T18:33:22.966Z</time></trkpt><trkpt lat="53.5657136" lon="-1.8652836"><ele>399.5</ele><time>2026-03-22T18:33:23.967Z</time></trkpt><trkpt lat="53.5656346" lon="-1.86546"><ele>400.75</ele><time>2026-03-22T18:33:24.969Z</time></trkpt><trkpt lat="53.5655388" lon="-1.8656337"><ele>402.0</ele><time>2026-03-22T18:33:25.968Z</time></trkpt><trkpt lat="53.5654411" lon="-1.8657985"><ele>400.5</ele><time>2026-03-22T18:33:26.968Z</time></trkpt><trkpt lat="53.5653457" lon="-1.8659662"><ele>399.0</ele><time>2026-03-22T18:33:27.968Z</time></trkpt><trkpt lat="53.5652538" lon="-1.8661335"><ele>397.5</ele><time>2026-03-22T18:33:28.969Z</time></trkpt><trkpt lat="53.5651662" lon="-1.8662962"><ele>396.0</ele><time>2026-03-22T18:33:29.967Z</time></trkpt><trkpt lat="53.5650827" lon="-1.8664599"><ele>396.0</ele><time>2026-03-22T18:33:30.969Z</time></trkpt><trkpt lat="53.5649968" lon="-1.8666216"><ele>396.0</ele><time>2026-03-22T18:33:31.97Z</time></trkpt><trkpt lat="53.5649105" lon="-1.8667818"><ele>396.0</ele><time>2026-03-22T18:33:32.969Z</time></trkpt><trkpt lat="53.5648347" lon="-1.8669356"><ele>396.0</ele><time>2026-03-22T18:33:33.969Z</time></trkpt><trkpt lat="53.5647737" lon="-1.8670827"><ele>396.8</ele><time>2026-03-22T18:33:34.969Z</time></trkpt><trkpt lat="53.5647243" lon="-1.8672338"><ele>397.6</ele><time>2026-03-22T18:33:35.967Z</time></trkpt><trkpt lat="53.564684" lon="-1.8673949"><ele>398.4</ele><time>2026-03-22T18:33:36.971Z</time></trkpt><trkpt lat="53.5646426" lon="-1.8675595"><ele>399.2</ele><time>2026-03-22T18:33:37.967Z</time></trkpt><trkpt lat="53.5646031" lon="-1.8677164"><ele>400.0</ele><time>2026-03-22T18:33:38.969Z</time></trkpt><trkpt lat="53.5645631" lon="-1.867856"><ele>399.1666666666667</ele><time>2026-03-22T18:33:39.969Z</time></trkpt><trkpt lat="53.5645135" lon="-1.867974"><ele>398.33333333333337</ele><time>2026-03-22T18:33:40.97Z</time></trkpt><trkpt lat="53.564458" lon="-1.8680674"><ele>397.5</ele><time>2026-03-22T18:33:41.966Z</time></trkpt><trkpt lat="53.5644006" lon="-1.8681449"><ele>396.66666666666663</ele><time>2026-03-22T18:33:42.969Z</time></trkpt><trkpt lat="53.5643352" lon="-1.8682236"><ele>395.8333333333333</ele><time>2026-03-22T18:33:43.969Z</time></trkpt><trkpt lat="53.5642654" lon="-1.8683122"><ele>395.0</ele><time>2026-03-22T18:33:44.966Z</time></trkpt><trkpt lat="53.5641998" lon="-1.8684083"><ele>395.49999999999994</ele><time>2026-03-22T18:33:45.969Z</time></trkpt><trkpt lat="53.5641304" lon="-1.8685117"><ele>396.0</ele><time>2026-03-22T18:33:46.97Z</time></trkpt><trkpt lat="53.564067" lon="-1.8686185"><ele>396.5</ele><time>2026-03-22T18:33:47.968Z</time></trkpt><trkpt lat="53.5640057" lon="-1.8687208"><ele>397.0</ele><time>2026-03-22T18:33:48.969Z</time></trkpt><trkpt lat="53.5639443" lon="-1.8688207"><ele>397.49999999999994</ele><time>2026-03-22T18:33:49.968Z</time></trkpt><trkpt lat="53.563886" lon="-1.8689219"><ele>398.0</ele><time>2026-03-22T18:33:50.968Z</time></trkpt><trkpt lat="53.5638322" lon="-1.8690209"><ele>397.99999999999994</ele><time>2026-03-22T18:33:51.97Z</time></trkpt><trkpt lat="53.5637804" lon="-1.869114"><ele>398.0</ele><time>2026-03-22T18:33:52.969Z</time></trkpt><trkpt lat="53.5637261" lon="-1.8692033"><ele>398.0</ele><time>2026-03-22T18:33:53.971Z</time></trkpt><trkpt lat="53.5636699" lon="-1.8692873"><ele>398.0</ele><time>2026-03-22T18:33:54.97Z</time></trkpt><trkpt lat="53.5636152" lon="-1.8693731"><ele>397.99999999999994</ele><time>2026-03-22T18:33:55.97Z</time></trkpt><trkpt lat="53.5635578" lon="-1.869464"><ele>398.0</ele><time>2026-03-22T18:33:56.969Z</time></trkpt><trkpt lat="53.5635003" lon="-1.8695565"><ele>397.4285714285714</ele><time>2026-03-22T18:33:57.967Z</time></trkpt><trkpt lat="53.5634432" lon="-1.8696479"><ele>396.85714285714283</ele><time>2026-03-22T18:33:58.968Z</time></trkpt><trkpt lat="53.5633871" lon="-1.8697385"><ele>396.2857142857143</ele><time>2026-03-22T18:33:59.97Z</time></trkpt><trkpt lat="53.5633368" lon="-1.8698298"><ele>395.71428571428567</ele><time>2026-03-22T18:34:00.969Z</time></trkpt><trkpt lat="53.563287" lon="-1.8699133"><ele>395.14285714285717</ele><time>2026-03-22T18:34:01.968Z</time></trkpt><trkpt lat="53.5632377" lon="-1.8699897"><ele>394.57142857142856</ele><time>2026-03-22T18:34:02.969Z</time></trkpt><trkpt lat="53.5631898" lon="-1.8700658"><ele>394.0</ele><time>2026-03-22T18:34:03.969Z</time></trkpt><trkpt lat="53.5631387" lon="-1.8701441"><ele>394.00000000000006</ele><time>2026-03-22T18:34:04.967Z</time></trkpt><trkpt lat="53.5630821" lon="-1.8702286"><ele>394.0</ele><time>2026-03-22T18:34:05.966Z</time></trkpt><trkpt lat="53.5630245" lon="-1.870322"><ele>394.0</ele><time>2026-03-22T18:34:06.969Z</time></trkpt><trkpt lat="53.5629705" lon="-1.8704249"><ele>394.0</ele><time>2026-03-22T18:34:07.971Z</time></trkpt><trkpt lat="53.5629142" lon="-1.8705296"><ele>394.00000000000006</ele><time>2026-03-22T18:34:08.971Z</time></trkpt><trkpt lat="53.562846" lon="-1.8706234"><ele>394.0</ele><time>2026-03-22T18:34:09.968Z</time></trkpt><trkpt lat="53.5627791" lon="-1.8707286"><ele>392.6</ele><time>2026-03-22T18:34:10.969Z</time></trkpt><trkpt lat="53.5627103" lon="-1.8708388"><ele>391.2</ele><time>2026-03-22T18:34:11.967Z</time></trkpt><trkpt lat="53.5626402" lon="-1.8709504"><ele>389.8</ele><time>2026-03-22T18:34:12.969Z</time></trkpt><trkpt lat="53.5625669" lon="-1.871056"><ele>388.40000000000003</ele><time>2026-03-22T18:34:13.969Z</time></trkpt><trkpt lat="53.5624935" lon="-1.8711617"><ele>387.0</ele><time>2026-03-22T18:34:14.968Z</time></trkpt><trkpt lat="53.5624223" lon="-1.8712647"><ele>387.0</ele><time>2026-03-22T18:34:15.969Z</time></trkpt><trkpt lat="53.5623509" lon="-1.8713682"><ele>387.0</ele><time>2026-03-22T18:34:16.967Z</time></trkpt><trkpt lat="53.5622836" lon="-1.8714717"><ele>387.0</ele><time>2026-03-22T18:34:17.97Z</time></trkpt><trkpt lat="53.5622238" lon="-1.8715747"><ele>387.0</ele><time>2026-03-22T18:34:18.971Z</time></trkpt><trkpt lat="53.5621662" lon="-1.8716769"><ele>387.0</ele><time>2026-03-22T18:34:19.971Z</time></trkpt><trkpt lat="53.5621091" lon="-1.8717734"><ele>387.0</ele><time>2026-03-22T18:34:20.968Z</time></trkpt><trkpt lat="53.5620613" lon="-1.8718704"><ele>386.0</ele><time>2026-03-22T18:34:21.964Z</time></trkpt><trkpt lat="53.5620124" lon="-1.8719597"><ele>385.0</ele><time>2026-03-22T18:34:22.97Z</time></trkpt><trkpt lat="53.5619629" lon="-1.8720468"><ele>384.0</ele><time>2026-03-22T18:34:23.97Z</time></trkpt><trkpt lat="53.5619169" lon="-1.8721305"><ele>383.0</ele><time>2026-03-22T18:34:24.971Z</time></trkpt><trkpt lat="53.5618392" lon="-1.8722725"><ele>382.0</ele><time>2026-03-22T18:34:26.969Z</time></trkpt><trkpt lat="53.5617886" lon="-1.8723484"><ele>381.0</ele><time>2026-03-22T18:34:28.965Z</time></trkpt><trkpt lat="53.5617459" lon="-1.8722403"><ele>381.0</ele><time>2026-03-22T18:34:30.967Z</time></trkpt><trkpt lat="53.5617561" lon="-1.872124"><ele>381.0</ele><time>2026-03-22T18:34:31.972Z</time></trkpt><trkpt lat="53.5617712" lon="-1.8719716"><ele>381.0</ele><time>2026-03-22T18:34:32.971Z</time></trkpt><trkpt lat="53.5617775" lon="-1.8718028"><ele>381.0</ele><time>2026-03-22T18:34:33.97Z</time></trkpt><trkpt lat="53.5617719" lon="-1.8716222"><ele>381.0</ele><time>2026-03-22T18:34:34.97Z</time></trkpt><trkpt lat="53.5617622" lon="-1.8714399"><ele>380.0</ele><time>2026-03-22T18:34:35.971Z</time></trkpt><trkpt lat="53.5617588" lon="-1.8712557"><ele>379.0</ele><time>2026-03-22T18:34:36.971Z</time></trkpt><trkpt lat="53.5617611" lon="-1.8710674"><ele>378.0</ele><time>2026-03-22T18:34:37.969Z</time></trkpt><trkpt lat="53.561761" lon="-1.8708753"><ele>377.0</ele><time>2026-03-22T18:34:38.971Z</time></trkpt><trkpt lat="53.561759" lon="-1.8706859"><ele>376.0</ele><time>2026-03-22T18:34:39.969Z</time></trkpt><trkpt lat="53.5617556" lon="-1.8704861"><ele>375.25</ele><time>2026-03-22T18:34:40.969Z</time></trkpt><trkpt lat="53.5617467" lon="-1.8702877"><ele>374.5</ele><time>2026-03-22T18:34:41.969Z</time></trkpt><trkpt lat="53.5617368" lon="-1.8700982"><ele>373.75</ele><time>2026-03-22T18:34:42.969Z</time></trkpt><trkpt lat="53.5617235" lon="-1.8699104"><ele>373.0</ele><time>2026-03-22T18:34:43.969Z</time></trkpt><trkpt lat="53.5617185" lon="-1.8697194"><ele>371.75</ele><time>2026-03-22T18:34:44.968Z</time></trkpt><trkpt lat="53.5617161" lon="-1.8695406"><ele>370.5</ele><time>2026-03-22T18:34:45.969Z</time></trkpt><trkpt lat="53.5617192" lon="-1.8693537"><ele>369.25</ele><time>2026-03-22T18:34:46.97Z</time></trkpt><trkpt lat="53.5617227" lon="-1.869147"><ele>368.0</ele><time>2026-03-22T18:34:47.97Z</time></trkpt><trkpt lat="53.5617212" lon="-1.86893"><ele>367.0</ele><time>2026-03-22T18:34:48.973Z</time></trkpt><trkpt lat="53.5617197" lon="-1.8687154"><ele>366.0</ele><time>2026-03-22T18:34:49.969Z</time></trkpt><trkpt lat="53.5617183" lon="-1.8685155"><ele>365.0</ele><time>2026-03-22T18:34:50.971Z</time></trkpt><trkpt lat="53.5617164" lon="-1.8683195"><ele>364.0</ele><time>2026-03-22T18:34:51.969Z</time></trkpt><trkpt lat="53.5617146" lon="-1.8681128"><ele>362.5</ele><time>2026-03-22T18:34:52.969Z</time></trkpt><trkpt lat="53.5617119" lon="-1.8679131"><ele>361.0</ele><time>2026-03-22T18:34:53.968Z</time></trkpt><trkpt lat="53.5617122" lon="-1.8677097"><ele>359.5</ele><time>2026-03-22T18:34:54.969Z</time></trkpt><trkpt lat="53.5617126" lon="-1.8675029"><ele>358.0</ele><time>2026-03-22T18:34:55.969Z</time></trkpt><trkpt lat="53.5617113" lon="-1.8672893"><ele>357.0</ele><time>2026-03-22T18:34:56.968Z</time></trkpt><trkpt lat="53.5617098" lon="-1.8670734"><ele>356.0</ele><time>2026-03-22T18:34:57.967Z</time></trkpt><trkpt lat="53.5617016" lon="-1.8668672"><ele>355.0</ele><time>2026-03-22T18:34:58.969Z</time></trkpt><trkpt lat="53.5616927" lon="-1.8666519"><ele>354.0</ele><time>2026-03-22T18:34:59.966Z</time></trkpt><trkpt lat="53.5616811" lon="-1.8664305"><ele>352.75</ele><time>2026-03-22T18:35:00.969Z</time></trkpt><trkpt lat="53.5616704" lon="-1.8662062"><ele>351.5</ele><time>2026-03-22T18:35:01.969Z</time></trkpt><trkpt lat="53.5616644" lon="-1.8659997"><ele>350.25</ele><time>2026-03-22T18:35:02.972Z</time></trkpt><trkpt lat="53.561654" lon="-1.8657972"><ele>349.0</ele><time>2026-03-22T18:35:03.97Z</time></trkpt><trkpt lat="53.5616456" lon="-1.8656077"><ele>348.0</ele><time>2026-03-22T18:35:04.971Z</time></trkpt><trkpt lat="53.5616413" lon="-1.8654162"><ele>347.0</ele><time>2026-03-22T18:35:05.971Z</time></trkpt><trkpt lat="53.5616419" lon="-1.8652239"><ele>346.0</ele><time>2026-03-22T18:35:06.972Z</time></trkpt><trkpt lat="53.5616475" lon="-1.8650305"><ele>345.0</ele><time>2026-03-22T18:35:07.969Z</time></trkpt><trkpt lat="53.5616535" lon="-1.8648378"><ele>343.8</ele><time>2026-03-22T18:35:08.97Z</time></trkpt><trkpt lat="53.5616559" lon="-1.8646491"><ele>342.6</ele><time>2026-03-22T18:35:09.97Z</time></trkpt><trkpt lat="53.5616564" lon="-1.8644574"><ele>341.4</ele><time>2026-03-22T18:35:10.971Z</time></trkpt><trkpt lat="53.5616591" lon="-1.8642665"><ele>340.2</ele><time>2026-03-22T18:35:11.968Z</time></trkpt><trkpt lat="53.5616671" lon="-1.8640953"><ele>339.0</ele><time>2026-03-22T18:35:12.968Z</time></trkpt><trkpt lat="53.5616818" lon="-1.8639349"><ele>338.4</ele><time>2026-03-22T18:35:13.97Z</time></trkpt><trkpt lat="53.56171" lon="-1.8637988"><ele>337.79999999999995</ele><time>2026-03-22T18:35:14.969Z</time></trkpt><trkpt lat="53.5617603" lon="-1.8636801"><ele>337.20000000000005</ele><time>2026-03-22T18:35:15.968Z</time></trkpt><trkpt lat="53.5618397" lon="-1.8635709"><ele>336.6</ele><time>2026-03-22T18:35:16.968Z</time></trkpt><trkpt lat="53.5619378" lon="-1.8634625"><ele>336.0</ele><time>2026-03-22T18:35:17.967Z</time></trkpt><trkpt lat="53.5620364" lon="-1.8633387"><ele>336.0</ele><time>2026-03-22T18:35:18.968Z</time></trkpt><trkpt lat="53.562122" lon="-1.8632035"><ele>336.0</ele><time>2026-03-22T18:35:19.968Z</time></trkpt><trkpt lat="53.5621908" lon="-1.8630466"><ele>336.0</ele><time>2026-03-22T18:35:20.967Z</time></trkpt><trkpt lat="53.5622359" lon="-1.8628633"><ele>336.0</ele><time>2026-03-22T18:35:21.97Z</time></trkpt><trkpt lat="53.5622644" lon="-1.8626401"><ele>334.75</ele><time>2026-03-22T18:35:22.969Z</time></trkpt><trkpt lat="53.5622869" lon="-1.8623881"><ele>333.5</ele><time>2026-03-22T18:35:23.97Z</time></trkpt><trkpt lat="53.5623141" lon="-1.8621362"><ele>332.25</ele><time>2026-03-22T18:35:24.97Z</time></trkpt><trkpt lat="53.5623447" lon="-1.8619085"><ele>331.0</ele><time>2026-03-22T18:35:25.968Z</time></trkpt><trkpt lat="53.5623723" lon="-1.8617027"><ele>330.3333333333333</ele><time>2026-03-22T18:35:26.968Z</time></trkpt><trkpt lat="53.5623992" lon="-1.8615279"><ele>329.66666666666663</ele><time>2026-03-22T18:35:27.967Z</time></trkpt><trkpt lat="53.5624334" lon="-1.8613926"><ele>329.0</ele><time>2026-03-22T18:35:28.969Z</time></trkpt><trkpt lat="53.5624758" lon="-1.8612918"><ele>328.3333333333333</ele><time>2026-03-22T18:35:29.96Z</time></trkpt><trkpt lat="53.5625343" lon="-1.861227"><ele>327.6666666666667</ele><time>2026-03-22T18:35:30.963Z</time></trkpt><trkpt lat="53.5626213" lon="-1.8612199"><ele>327.0</ele><time>2026-03-22T18:35:31.971Z</time></trkpt><trkpt lat="53.5627242" lon="-1.8612594"><ele>327.0</ele><time>2026-03-22T18:35:32.964Z</time></trkpt><trkpt lat="53.562825" lon="-1.8613062"><ele>327.0</ele><time>2026-03-22T18:35:33.968Z</time></trkpt><trkpt lat="53.5629112" lon="-1.8613222"><ele>327.0</ele><time>2026-03-22T18:35:34.97Z</time></trkpt><trkpt lat="53.5629814" lon="-1.861293"><ele>327.0</ele><time>2026-03-22T18:35:35.971Z</time></trkpt><trkpt lat="53.563042" lon="-1.8611983"><ele>327.0</ele><time>2026-03-22T18:35:36.971Z</time></trkpt><trkpt lat="53.5630932" lon="-1.8610539"><ele>327.0</ele><time>2026-03-22T18:35:37.967Z</time></trkpt><trkpt lat="53.5631278" lon="-1.8609022"><ele>328.0</ele><time>2026-03-22T18:35:38.969Z</time></trkpt><trkpt lat="53.5631512" lon="-1.8607407"><ele>329.0</ele><time>2026-03-22T18:35:39.969Z</time></trkpt><trkpt lat="53.5631553" lon="-1.8605742"><ele>330.0</ele><time>2026-03-22T18:35:40.97Z</time></trkpt><trkpt lat="53.5631484" lon="-1.8603998"><ele>331.0</ele><time>2026-03-22T18:35:41.969Z</time></trkpt><trkpt lat="53.5631331" lon="-1.8602224"><ele>332.0</ele><time>2026-03-22T18:35:42.967Z</time></trkpt><trkpt lat="53.563114" lon="-1.8600471"><ele>332.0</ele><time>2026-03-22T18:35:43.969Z</time></trkpt><trkpt lat="53.5630805" lon="-1.8598818"><ele>332.0</ele><time>2026-03-22T18:35:44.968Z</time></trkpt><trkpt lat="53.5630298" lon="-1.8597078"><ele>332.0</ele><time>2026-03-22T18:35:45.967Z</time></trkpt><trkpt lat="53.5629734" lon="-1.8595105"><ele>332.0</ele><time>2026-03-22T18:35:46.969Z</time></trkpt><trkpt lat="53.5629197" lon="-1.8592839"><ele>331.5</ele><time>2026-03-22T18:35:47.967Z</time></trkpt><trkpt lat="53.5628724" lon="-1.8590465"><ele>331.0</ele><time>2026-03-22T18:35:48.969Z</time></trkpt><trkpt lat="53.5628381" lon="-1.8588275"><ele>330.5</ele><time>2026-03-22T18:35:49.97Z</time></trkpt><trkpt lat="53.5628257" lon="-1.858637"><ele>330.0</ele><time>2026-03-22T18:35:50.966Z</time></trkpt><trkpt lat="53.562838" lon="-1.8584689"><ele>329.6</ele><time>2026-03-22T18:35:51.967Z</time></trkpt><trkpt lat="53.5628834" lon="-1.8582885"><ele>329.2</ele><time>2026-03-22T18:35:52.97Z</time></trkpt><trkpt lat="53.5629396" lon="-1.8581123"><ele>328.79999999999995</ele><time>2026-03-22T18:35:53.971Z</time></trkpt><trkpt lat="53.5629914" lon="-1.8579612"><ele>328.4</ele><time>2026-03-22T18:35:54.97Z</time></trkpt><trkpt lat="53.5630263" lon="-1.8578236"><ele>328.0</ele><time>2026-03-22T18:35:55.966Z</time></trkpt><trkpt lat="53.5630476" lon="-1.8577103"><ele>327.66666666666663</ele><time>2026-03-22T18:35:56.969Z</time></trkpt><trkpt lat="53.5630684" lon="-1.8575438"><ele>327.3333333333333</ele><time>2026-03-22T18:35:58.969Z</time></trkpt><trkpt lat="53.5630889" lon="-1.8574341"><ele>327.0</ele><time>2026-03-22T18:36:00.97Z</time></trkpt><trkpt lat="53.5630913" lon="-1.8573195"><ele>326.6666666666667</ele><time>2026-03-22T18:36:08.966Z</time></trkpt><trkpt lat="53.5631017" lon="-1.8572075"><ele>326.33333333333337</ele><time>2026-03-22T18:36:26.962Z</time></trkpt><trkpt lat="53.5631207" lon="-1.8570713"><ele>326.0</ele><time>2026-03-22T18:36:56.967Z</time></trkpt><trkpt lat="53.5631081" lon="-1.8568193"><ele>325.8</ele><time>2026-03-22T18:36:58.962Z</time></trkpt><trkpt lat="53.5630912" lon="-1.8566525"><ele>325.6</ele><time>2026-03-22T18:36:59.964Z</time></trkpt><trkpt lat="53.5630737" lon="-1.8564972"><ele>325.4</ele><time>2026-03-22T18:37:00.963Z</time></trkpt><trkpt lat="53.5630528" lon="-1.8563593"><ele>325.2</ele><time>2026-03-22T18:37:01.963Z</time></trkpt><trkpt lat="53.5630207" lon="-1.8562197"><ele>325.0</ele><time>2026-03-22T18:37:02.963Z</time></trkpt><trkpt lat="53.5629828" lon="-1.856068"><ele>325.0</ele><time>2026-03-22T18:37:03.97Z</time></trkpt><trkpt lat="53.5629436" lon="-1.8558989"><ele>325.0</ele><time>2026-03-22T18:37:04.964Z</time></trkpt><trkpt lat="53.5629095" lon="-1.855713"><ele>325.0</ele><time>2026-03-22T18:37:05.963Z</time></trkpt><trkpt lat="53.5628707" lon="-1.8554906"><ele>325.0</ele><time>2026-03-22T18:37:06.964Z</time></trkpt><trkpt lat="53.5628504" lon="-1.8552829"><ele>325.25</ele><time>2026-03-22T18:37:07.965Z</time></trkpt><trkpt lat="53.5628482" lon="-1.85507"><ele>325.5</ele><time>2026-03-22T18:37:08.966Z</time></trkpt><trkpt lat="53.5628709" lon="-1.8548631"><ele>325.75</ele><time>2026-03-22T18:37:09.966Z</time></trkpt><trkpt lat="53.5629124" lon="-1.8546469"><ele>326.0</ele><time>2026-03-22T18:37:10.966Z</time></trkpt><trkpt lat="53.5629517" lon="-1.8544316"><ele>326.25</ele><time>2026-03-22T18:37:11.963Z</time></trkpt><trkpt lat="53.5629695" lon="-1.8542338"><ele>326.5</ele><time>2026-03-22T18:37:12.962Z</time></trkpt><trkpt lat="53.5629633" lon="-1.8540501"><ele>326.75</ele><time>2026-03-22T18:37:13.964Z</time></trkpt><trkpt lat="53.5629327" lon="-1.8538649"><ele>327.0</ele><time>2026-03-22T18:37:14.964Z</time></trkpt><trkpt lat="53.5628876" lon="-1.8536671"><ele>323.5</ele><time>2026-03-22T18:37:15.966Z</time></trkpt><trkpt lat="53.5628376" lon="-1.8534558"><ele>320.0</ele><time>2026-03-22T18:37:16.966Z</time></trkpt><trkpt lat="53.5627868" lon="-1.8532334"><ele>316.5</ele><time>2026-03-22T18:37:17.963Z</time></trkpt><trkpt lat="53.5627385" lon="-1.8530066"><ele>313.0</ele><time>2026-03-22T18:37:18.964Z</time></trkpt><trkpt lat="53.5626964" lon="-1.8527704"><ele>313.25</ele><time>2026-03-22T18:37:19.963Z</time></trkpt><trkpt lat="53.5626673" lon="-1.8525249"><ele>313.5</ele><time>2026-03-22T18:37:20.962Z</time></trkpt><trkpt lat="53.5626511" lon="-1.8522775"><ele>313.75</ele><time>2026-03-22T18:37:21.964Z</time></trkpt><trkpt lat="53.5626354" lon="-1.8520473"><ele>314.0</ele><time>2026-03-22T18:37:22.966Z</time></trkpt><trkpt lat="53.5626146" lon="-1.8518343"><ele>314.0</ele><time>2026-03-22T18:37:23.962Z</time></trkpt><trkpt lat="53.5625877" lon="-1.8516248"><ele>314.0</ele><time>2026-03-22T18:37:24.958Z</time></trkpt><trkpt lat="53.5625547" lon="-1.851415"><ele>314.0</ele><time>2026-03-22T18:37:25.965Z</time></trkpt><trkpt lat="53.5625276" lon="-1.8512101"><ele>314.0</ele><time>2026-03-22T18:37:26.964Z</time></trkpt><trkpt lat="53.5625135" lon="-1.8510024"><ele>313.75</ele><time>2026-03-22T18:37:27.962Z</time></trkpt><trkpt lat="53.5625082" lon="-1.8507829"><ele>313.5</ele><time>2026-03-22T18:37:28.965Z</time></trkpt><trkpt lat="53.56251" lon="-1.8505612"><ele>313.25</ele><time>2026-03-22T18:37:29.964Z</time></trkpt><trkpt lat="53.5625119" lon="-1.8503494"><ele>313.0</ele><time>2026-03-22T18:37:30.964Z</time></trkpt><trkpt lat="53.5625116" lon="-1.850157"><ele>312.66666666666663</ele><time>2026-03-22T18:37:31.966Z</time></trkpt><trkpt lat="53.5625123" lon="-1.8499816"><ele>312.3333333333333</ele><time>2026-03-22T18:37:32.966Z</time></trkpt><trkpt lat="53.5625206" lon="-1.8498254"><ele>312.0</ele><time>2026-03-22T18:37:33.966Z</time></trkpt><trkpt lat="53.5625389" lon="-1.8496902"><ele>311.6666666666667</ele><time>2026-03-22T18:37:34.969Z</time></trkpt><trkpt lat="53.5625677" lon="-1.8495692"><ele>311.33333333333337</ele><time>2026-03-22T18:37:35.97Z</time></trkpt><trkpt lat="53.5626008" lon="-1.8494593"><ele>311.0</ele><time>2026-03-22T18:37:36.971Z</time></trkpt><trkpt lat="53.5626346" lon="-1.8493498"><ele>310.2</ele><time>2026-03-22T18:37:37.967Z</time></trkpt><trkpt lat="53.5626761" lon="-1.849227"><ele>309.40000000000003</ele><time>2026-03-22T18:37:38.966Z</time></trkpt><trkpt lat="53.562726" lon="-1.8490861"><ele>308.6</ele><time>2026-03-22T18:37:39.965Z</time></trkpt><trkpt lat="53.5627861" lon="-1.848922"><ele>307.8</ele><time>2026-03-22T18:37:40.966Z</time></trkpt><trkpt lat="53.5628508" lon="-1.848739"><ele>307.0</ele><time>2026-03-22T18:37:41.964Z</time></trkpt><trkpt lat="53.5629177" lon="-1.8485488"><ele>309.25</ele><time>2026-03-22T18:37:42.969Z</time></trkpt><trkpt lat="53.5629965" lon="-1.8483507"><ele>311.5</ele><time>2026-03-22T18:37:43.97Z</time></trkpt><trkpt lat="53.5630804" lon="-1.8481516"><ele>313.75</ele><time>2026-03-22T18:37:44.965Z</time></trkpt><trkpt lat="53.5631653" lon="-1.8479429"><ele>316.0</ele><time>2026-03-22T18:37:45.964Z</time></trkpt><trkpt lat="53.5632488" lon="-1.8477181"><ele>314.66666666666663</ele><time>2026-03-22T18:37:46.967Z</time></trkpt><trkpt lat="53.5633295" lon="-1.847477"><ele>313.3333333333333</ele><time>2026-03-22T18:37:47.962Z</time></trkpt><trkpt lat="53.5634078" lon="-1.8472162"><ele>312.0</ele><time>2026-03-22T18:37:48.965Z</time></trkpt><trkpt lat="53.5634788" lon="-1.8469521"><ele>310.6666666666667</ele><time>2026-03-22T18:37:49.964Z</time></trkpt><trkpt lat="53.5635495" lon="-1.8466947"><ele>309.33333333333337</ele><time>2026-03-22T18:37:50.964Z</time></trkpt><trkpt lat="53.5636191" lon="-1.8464498"><ele>308.0</ele><time>2026-03-22T18:37:51.965Z</time></trkpt><trkpt lat="53.5636908" lon="-1.8462162"><ele>311.25</ele><time>2026-03-22T18:37:52.964Z</time></trkpt><trkpt lat="53.5637691" lon="-1.845997"><ele>314.5</ele><time>2026-03-22T18:37:53.966Z</time></trkpt><trkpt lat="53.5638495" lon="-1.8457898"><ele>317.75</ele><time>2026-03-22T18:37:54.966Z</time></trkpt><trkpt lat="53.5639354" lon="-1.8455888"><ele>321.0</ele><time>2026-03-22T18:37:55.967Z</time></trkpt><trkpt lat="53.5640225" lon="-1.8453858"><ele>321.0</ele><time>2026-03-22T18:37:56.969Z</time></trkpt><trkpt lat="53.5641093" lon="-1.845179"><ele>321.0</ele><time>2026-03-22T18:37:57.968Z</time></trkpt><trkpt lat="53.5641947" lon="-1.8449769"><ele>321.0</ele><time>2026-03-22T18:37:58.968Z</time></trkpt><trkpt lat="53.5642793" lon="-1.8447792"><ele>321.0</ele><time>2026-03-22T18:37:59.968Z</time></trkpt><trkpt lat="53.5643534" lon="-1.8445835"><ele>320.0</ele><time>2026-03-22T18:38:00.967Z</time></trkpt><trkpt lat="53.5644071" lon="-1.8443969"><ele>319.0</ele><time>2026-03-22T18:38:01.967Z</time></trkpt><trkpt lat="53.5644347" lon="-1.8442234"><ele>318.0</ele><time>2026-03-22T18:38:02.971Z</time></trkpt><trkpt lat="53.5644315" lon="-1.8440521"><ele>317.0</ele><time>2026-03-22T18:38:03.973Z</time></trkpt><trkpt lat="53.5643913" lon="-1.8438714"><ele>316.0</ele><time>2026-03-22T18:38:04.97Z</time></trkpt><trkpt lat="53.5643171" lon="-1.8436946"><ele>316.0</ele><time>2026-03-22T18:38:05.973Z</time></trkpt><trkpt lat="53.5642302" lon="-1.8435204"><ele>316.0</ele><time>2026-03-22T18:38:06.971Z</time></trkpt><trkpt lat="53.5641552" lon="-1.8433367"><ele>316.0</ele><time>2026-03-22T18:38:07.971Z</time></trkpt><trkpt lat="53.5640998" lon="-1.8431379"><ele>316.0</ele><time>2026-03-22T18:38:08.973Z</time></trkpt><trkpt lat="53.5640637" lon="-1.8429152"><ele>316.0</ele><time>2026-03-22T18:38:09.974Z</time></trkpt><trkpt lat="53.5640323" lon="-1.8426649"><ele>316.0</ele><time>2026-03-22T18:38:10.957Z</time></trkpt><trkpt lat="53.5640035" lon="-1.8423935"><ele>316.0</ele><time>2026-03-22T18:38:11.968Z</time></trkpt><trkpt lat="53.5639775" lon="-1.842124"><ele>317.0</ele><time>2026-03-22T18:38:12.969Z</time></trkpt><trkpt lat="53.563958" lon="-1.8418763"><ele>318.0</ele><time>2026-03-22T18:38:13.953Z</time></trkpt><trkpt lat="53.5639288" lon="-1.8416506"><ele>319.0</ele><time>2026-03-22T18:38:14.951Z</time></trkpt><trkpt lat="53.5638846" lon="-1.8414324"><ele>320.0</ele><time>2026-03-22T18:38:15.95Z</time></trkpt><trkpt lat="53.563831" lon="-1.8412075"><ele>321.0</ele><time>2026-03-22T18:38:16.958Z</time></trkpt><trkpt lat="53.5637724" lon="-1.8409695"><ele>322.0</ele><time>2026-03-22T18:38:17.961Z</time></trkpt><trkpt lat="53.5637134" lon="-1.8407274"><ele>323.0</ele><time>2026-03-22T18:38:18.966Z</time></trkpt><trkpt lat="53.5636601" lon="-1.8404793"><ele>318.0</ele><time>2026-03-22T18:38:19.961Z</time></trkpt><trkpt lat="53.563618" lon="-1.8402494"><ele>313.0</ele><time>2026-03-22T18:38:20.969Z</time></trkpt><trkpt lat="53.5635856" lon="-1.840033"><ele>308.0</ele><time>2026-03-22T18:38:21.97Z</time></trkpt><trkpt lat="53.563561" lon="-1.8398315"><ele>303.0</ele><time>2026-03-22T18:38:22.968Z</time></trkpt><trkpt lat="53.5635401" lon="-1.8396493"><ele>303.0</ele><time>2026-03-22T18:38:23.969Z</time></trkpt><trkpt lat="53.5635222" lon="-1.8394818"><ele>303.0</ele><time>2026-03-22T18:38:24.969Z</time></trkpt><trkpt lat="53.5635045" lon="-1.8393172"><ele>303.0</ele><time>2026-03-22T18:38:25.97Z</time></trkpt><trkpt lat="53.563486" lon="-1.8391533"><ele>303.0</ele><time>2026-03-22T18:38:26.966Z</time></trkpt><trkpt lat="53.5634737" lon="-1.8390021"><ele>303.0</ele><time>2026-03-22T18:38:27.968Z</time></trkpt><trkpt lat="53.5634741" lon="-1.8388617"><ele>303.0</ele><time>2026-03-22T18:38:28.969Z</time></trkpt><trkpt lat="53.5634945" lon="-1.8387259"><ele>303.0</ele><time>2026-03-22T18:38:29.969Z</time></trkpt><trkpt lat="53.5635383" lon="-1.8385886"><ele>303.0</ele><time>2026-03-22T18:38:30.97Z</time></trkpt><trkpt lat="53.5635994" lon="-1.8384484"><ele>303.0</ele><time>2026-03-22T18:38:31.971Z</time></trkpt><trkpt lat="53.5636599" lon="-1.838294"><ele>303.0</ele><time>2026-03-22T18:38:32.972Z</time></trkpt><trkpt lat="53.5636952" lon="-1.8381021"><ele>302.0</ele><time>2026-03-22T18:38:33.971Z</time></trkpt><trkpt lat="53.5636989" lon="-1.8378671"><ele>301.0</ele><time>2026-03-22T18:38:34.976Z</time></trkpt><trkpt lat="53.5636851" lon="-1.8375872"><ele>300.0</ele><time>2026-03-22T18:38:35.972Z</time></trkpt><trkpt lat="53.5636636" lon="-1.8372807"><ele>300.0</ele><time>2026-03-22T18:38:36.97Z</time></trkpt><trkpt lat="53.5636479" lon="-1.8369902"><ele>300.0</ele><time>2026-03-22T18:38:37.972Z</time></trkpt><trkpt lat="53.5636494" lon="-1.8367367"><ele>300.0</ele><time>2026-03-22T18:38:38.975Z</time></trkpt><trkpt lat="53.5636736" lon="-1.8365198"><ele>303.75</ele><time>2026-03-22T18:38:39.972Z</time></trkpt><trkpt lat="53.5637167" lon="-1.8363168"><ele>307.5</ele><time>2026-03-22T18:38:40.967Z</time></trkpt><trkpt lat="53.563775" lon="-1.8361181"><ele>311.25</ele><time>2026-03-22T18:38:41.968Z</time></trkpt><trkpt lat="53.5638321" lon="-1.8359231"><ele>315.0</ele><time>2026-03-22T18:38:42.968Z</time></trkpt><trkpt lat="53.5638712" lon="-1.8357239"><ele>315.0</ele><time>2026-03-22T18:38:43.971Z</time></trkpt><trkpt lat="53.5638811" lon="-1.8355214"><ele>315.0</ele><time>2026-03-22T18:38:44.968Z</time></trkpt><trkpt lat="53.5638692" lon="-1.8353236"><ele>315.0</ele><time>2026-03-22T18:38:45.959Z</time></trkpt><trkpt lat="53.5638524" lon="-1.8351319"><ele>315.0</ele><time>2026-03-22T18:38:46.966Z</time></trkpt><trkpt lat="53.563844" lon="-1.8349477"><ele>314.5</ele><time>2026-03-22T18:38:47.967Z</time></trkpt><trkpt lat="53.5638495" lon="-1.8347772"><ele>314.0</ele><time>2026-03-22T18:38:48.966Z</time></trkpt><trkpt lat="53.5638676" lon="-1.8346255"><ele>313.5</ele><time>2026-03-22T18:38:49.971Z</time></trkpt><trkpt lat="53.5638875" lon="-1.8344979"><ele>313.0</ele><time>2026-03-22T18:38:50.973Z</time></trkpt><trkpt lat="53.5638962" lon="-1.8343798"><ele>312.5</ele><time>2026-03-22T18:38:51.97Z</time></trkpt><trkpt lat="53.5638738" lon="-1.8342678"><ele>312.0</ele><time>2026-03-22T18:38:52.971Z</time></trkpt><trkpt lat="53.5638241" lon="-1.8341682"><ele>311.7142857142857</ele><time>2026-03-22T18:38:53.972Z</time></trkpt><trkpt lat="53.5637727" lon="-1.8340823"><ele>311.4285714285714</ele><time>2026-03-22T18:38:54.969Z</time></trkpt><trkpt lat="53.5637229" lon="-1.8339916"><ele>311.1428571428571</ele><time>2026-03-22T18:38:56.971Z</time></trkpt><trkpt lat="53.5636868" lon="-1.8338961"><ele>310.8571428571429</ele><time>2026-03-22T18:39:08.967Z</time></trkpt><trkpt lat="53.5636726" lon="-1.8337917"><ele>310.57142857142856</ele><time>2026-03-22T18:39:23.967Z</time></trkpt><trkpt lat="53.5636457" lon="-1.833642"><ele>310.2857142857143</ele><time>2026-03-22T18:39:25.969Z</time></trkpt><trkpt lat="53.5636208" lon="-1.8335209"><ele>310.0</ele><time>2026-03-22T18:39:26.969Z</time></trkpt><trkpt lat="53.5635897" lon="-1.8333689"><ele>307.5</ele><time>2026-03-22T18:39:27.969Z</time></trkpt><trkpt lat="53.5635475" lon="-1.8331904"><ele>305.0</ele><time>2026-03-22T18:39:28.968Z</time></trkpt><trkpt lat="53.5635004" lon="-1.833014"><ele>302.5</ele><time>2026-03-22T18:39:29.972Z</time></trkpt><trkpt lat="53.5634476" lon="-1.8328531"><ele>300.0</ele><time>2026-03-22T18:39:30.971Z</time></trkpt><trkpt lat="53.5633869" lon="-1.8326867"><ele>300.8</ele><time>2026-03-22T18:39:31.973Z</time></trkpt><trkpt lat="53.563325" lon="-1.8325146"><ele>301.6</ele><time>2026-03-22T18:39:32.973Z</time></trkpt><trkpt lat="53.5632805" lon="-1.8323668"><ele>302.4</ele><time>2026-03-22T18:39:33.974Z</time></trkpt><trkpt lat="53.563259" lon="-1.8322278"><ele>303.2</ele><time>2026-03-22T18:39:34.974Z</time></trkpt><trkpt lat="53.5632524" lon="-1.8320764"><ele>304.0</ele><time>2026-03-22T18:39:35.974Z</time></trkpt><trkpt lat="53.5632436" lon="-1.8318979"><ele>304.2</ele><time>2026-03-22T18:39:37.973Z</time></trkpt><trkpt lat="53.5631369" lon="-1.831786"><ele>304.4</ele><time>2026-03-22T18:39:39.971Z</time></trkpt><trkpt lat="53.5630338" lon="-1.831765"><ele>304.6</ele><time>2026-03-22T18:39:40.974Z</time></trkpt><trkpt lat="53.5629243" lon="-1.8317562"><ele>304.8</ele><time>2026-03-22T18:39:41.973Z</time></trkpt><trkpt lat="53.5628238" lon="-1.8317586"><ele>305.0</ele><time>2026-03-22T18:39:42.973Z</time></trkpt><trkpt lat="53.5627327" lon="-1.8317776"><ele>302.4</ele><time>2026-03-22T18:39:43.971Z</time></trkpt><trkpt lat="53.5626452" lon="-1.8318263"><ele>299.8</ele><time>2026-03-22T18:39:44.969Z</time></trkpt><trkpt lat="53.5625719" lon="-1.8319158"><ele>297.2</ele><time>2026-03-22T18:39:45.972Z</time></trkpt><trkpt lat="53.5625193" lon="-1.8320526"><ele>294.6</ele><time>2026-03-22T18:39:46.971Z</time></trkpt><trkpt lat="53.5624951" lon="-1.8322399"><ele>292.0</ele><time>2026-03-22T18:39:47.97Z</time></trkpt><trkpt lat="53.5624909" lon="-1.8324553"><ele>290.0</ele><time>2026-03-22T18:39:48.97Z</time></trkpt><trkpt lat="53.5624997" lon="-1.8327078"><ele>288.0</ele><time>2026-03-22T18:39:49.97Z</time></trkpt><trkpt lat="53.5625018" lon="-1.8329589"><ele>286.0</ele><time>2026-03-22T18:39:50.971Z</time></trkpt><trkpt lat="53.5624972" lon="-1.8331875"><ele>284.0</ele><time>2026-03-22T18:39:51.971Z</time></trkpt><trkpt lat="53.5625077" lon="-1.833387"><ele>282.4</ele><time>2026-03-22T18:39:52.969Z</time></trkpt><trkpt lat="53.5625007" lon="-1.8335785"><ele>280.79999999999995</ele><time>2026-03-22T18:39:53.968Z</time></trkpt><trkpt lat="53.5624973" lon="-1.8337459"><ele>279.20000000000005</ele><time>2026-03-22T18:39:54.97Z</time></trkpt><trkpt lat="53.5624913" lon="-1.833885"><ele>277.6</ele><time>2026-03-22T18:39:55.97Z</time></trkpt><trkpt lat="53.5624429" lon="-1.8340544"><ele>276.0</ele><time>2026-03-22T18:39:57.963Z</time></trkpt><trkpt lat="53.5623779" lon="-1.8340906"><ele>276.0</ele><time>2026-03-22T18:39:58.971Z</time></trkpt><trkpt lat="53.562279" lon="-1.8340998"><ele>276.0</ele><time>2026-03-22T18:39:59.969Z</time></trkpt><trkpt lat="53.5621618" lon="-1.8341079"><ele>276.0</ele><time>2026-03-22T18:40:00.97Z</time></trkpt><trkpt lat="53.5620358" lon="-1.8340834"><ele>276.0</ele><time>2026-03-22T18:40:01.972Z</time></trkpt><trkpt lat="53.561917" lon="-1.8340438"><ele>273.25</ele><time>2026-03-22T18:40:02.974Z</time></trkpt><trkpt lat="53.561798" lon="-1.8340227"><ele>270.5</ele><time>2026-03-22T18:40:03.974Z</time></trkpt><trkpt lat="53.5616743" lon="-1.8340608"><ele>267.75</ele><time>2026-03-22T18:40:04.973Z</time></trkpt><trkpt lat="53.5615581" lon="-1.834163"><ele>265.0</ele><time>2026-03-22T18:40:05.972Z</time></trkpt><trkpt lat="53.5614572" lon="-1.8343092"><ele>263.75</ele><time>2026-03-22T18:40:06.971Z</time></trkpt><trkpt lat="53.5613524" lon="-1.834455"><ele>262.5</ele><time>2026-03-22T18:40:07.974Z</time></trkpt><trkpt lat="53.5612338" lon="-1.8345706"><ele>261.25</ele><time>2026-03-22T18:40:08.972Z</time></trkpt><trkpt lat="53.5611017" lon="-1.8346512"><ele>260.0</ele><time>2026-03-22T18:40:09.97Z</time></trkpt><trkpt lat="53.5609517" lon="-1.8346821"><ele>258.25</ele><time>2026-03-22T18:40:10.97Z</time></trkpt><trkpt lat="53.5608097" lon="-1.83467"><ele>256.5</ele><time>2026-03-22T18:40:11.97Z</time></trkpt><trkpt lat="53.5606733" lon="-1.8346114"><ele>254.75</ele><time>2026-03-22T18:40:12.972Z</time></trkpt><trkpt lat="53.5605592" lon="-1.8344819"><ele>253.0</ele><time>2026-03-22T18:40:13.971Z</time></trkpt><trkpt lat="53.5604655" lon="-1.8342998"><ele>253.0</ele><time>2026-03-22T18:40:14.972Z</time></trkpt><trkpt lat="53.5604038" lon="-1.8340843"><ele>253.0</ele><time>2026-03-22T18:40:15.972Z</time></trkpt><trkpt lat="53.560354" lon="-1.8338537"><ele>253.0</ele><time>2026-03-22T18:40:16.971Z</time></trkpt><trkpt lat="53.5603053" lon="-1.8336351"><ele>253.0</ele><time>2026-03-22T18:40:17.972Z</time></trkpt><trkpt lat="53.5602615" lon="-1.8334525"><ele>251.99999999999997</ele><time>2026-03-22T18:40:18.973Z</time></trkpt><trkpt lat="53.560236" lon="-1.8333084"><ele>251.0</ele><time>2026-03-22T18:40:19.971Z</time></trkpt><trkpt lat="53.5602086" lon="-1.8331616"><ele>250.0</ele><time>2026-03-22T18:40:21.97Z</time></trkpt><trkpt lat="53.5601424" lon="-1.8331732"><ele>249.0</ele><time>2026-03-22T18:40:23.973Z</time></trkpt><trkpt lat="53.5600782" lon="-1.8332439"><ele>247.99999999999997</ele><time>2026-03-22T18:40:24.97Z</time></trkpt><trkpt lat="53.5599873" lon="-1.8333439"><ele>247.0</ele><time>2026-03-22T18:40:25.971Z</time></trkpt><trkpt lat="53.5598727" lon="-1.8334581"><ele>247.0</ele><time>2026-03-22T18:40:26.971Z</time></trkpt><trkpt lat="53.5597474" lon="-1.8335887"><ele>247.0</ele><time>2026-03-22T18:40:27.972Z</time></trkpt><trkpt lat="53.5596149" lon="-1.8337145"><ele>247.0</ele><time>2026-03-22T18:40:28.973Z</time></trkpt><trkpt lat="53.5594717" lon="-1.8338404"><ele>246.66666666666666</ele><time>2026-03-22T18:40:29.972Z</time></trkpt><trkpt lat="53.5593281" lon="-1.833967"><ele>246.33333333333331</ele><time>2026-03-22T18:40:30.973Z</time></trkpt><trkpt lat="53.5591809" lon="-1.8340993"><ele>246.0</ele><time>2026-03-22T18:40:31.974Z</time></trkpt><trkpt lat="53.5590324" lon="-1.8342344"><ele>246.33333333333331</ele><time>2026-03-22T18:40:32.97Z</time></trkpt><trkpt lat="53.5588854" lon="-1.834364"><ele>246.66666666666666</ele><time>2026-03-22T18:40:33.972Z</time></trkpt><trkpt lat="53.5587369" lon="-1.8344922"><ele>247.0</ele><time>2026-03-22T18:40:34.968Z</time></trkpt><trkpt lat="53.5585955" lon="-1.8346198"><ele>247.33333333333331</ele><time>2026-03-22T18:40:35.97Z</time></trkpt><trkpt lat="53.558453" lon="-1.8347505"><ele>247.66666666666669</ele><time>2026-03-22T18:40:36.969Z</time></trkpt><trkpt lat="53.5583096" lon="-1.8348817"><ele>248.0</ele><time>2026-03-22T18:40:37.97Z</time></trkpt><trkpt lat="53.558164" lon="-1.8350123"><ele>247.66666666666669</ele><time>2026-03-22T18:40:38.972Z</time></trkpt><trkpt lat="53.5580177" lon="-1.835143"><ele>247.33333333333331</ele><time>2026-03-22T18:40:39.97Z</time></trkpt><trkpt lat="53.5578782" lon="-1.8352668"><ele>247.0</ele><time>2026-03-22T18:40:40.97Z</time></trkpt><trkpt lat="53.5577398" lon="-1.8353935"><ele>248.5</ele><time>2026-03-22T18:40:41.962Z</time></trkpt><trkpt lat="53.5576034" lon="-1.8355164"><ele>250.0</ele><time>2026-03-22T18:40:42.966Z</time></trkpt><trkpt lat="53.5574711" lon="-1.835621"><ele>251.5</ele><time>2026-03-22T18:40:43.966Z</time></trkpt><trkpt lat="53.5573365" lon="-1.8357074"><ele>253.0</ele><time>2026-03-22T18:40:44.964Z</time></trkpt><trkpt lat="53.5571953" lon="-1.8357759"><ele>253.0</ele><time>2026-03-22T18:40:45.966Z</time></trkpt><trkpt lat="53.5570544" lon="-1.8358252"><ele>253.0</ele><time>2026-03-22T18:40:46.965Z</time></trkpt><trkpt lat="53.5569231" lon="-1.8358603"><ele>253.0</ele><time>2026-03-22T18:40:47.966Z</time></trkpt><trkpt lat="53.5567988" lon="-1.8358935"><ele>253.0</ele><time>2026-03-22T18:40:48.967Z</time></trkpt><trkpt lat="53.5566902" lon="-1.8359615"><ele>255.75</ele><time>2026-03-22T18:40:49.965Z</time></trkpt><trkpt lat="53.5566011" lon="-1.8360676"><ele>258.5</ele><time>2026-03-22T18:40:50.968Z</time></trkpt><trkpt lat="53.5565312" lon="-1.8362324"><ele>261.25</ele><time>2026-03-22T18:40:51.966Z</time></trkpt><trkpt lat="53.5564641" lon="-1.8364307"><ele>264.0</ele><time>2026-03-22T18:40:52.965Z</time></trkpt><trkpt lat="53.556382" lon="-1.8366263"><ele>264.0</ele><time>2026-03-22T18:40:53.969Z</time></trkpt><trkpt lat="53.5562933" lon="-1.8367965"><ele>264.0</ele><time>2026-03-22T18:40:54.968Z</time></trkpt><trkpt lat="53.5562149" lon="-1.8369262"><ele>264.0</ele><time>2026-03-22T18:40:55.97Z</time></trkpt><trkpt lat="53.5561398" lon="-1.8369957"><ele>264.0</ele><time>2026-03-22T18:40:56.963Z</time></trkpt><trkpt lat="53.5560594" lon="-1.8369918"><ele>264.0</ele><time>2026-03-22T18:40:57.967Z</time></trkpt><trkpt lat="53.5559656" lon="-1.8369098"><ele>265.25</ele><time>2026-03-22T18:40:58.975Z</time></trkpt><trkpt lat="53.5558718" lon="-1.8367703"><ele>266.5</ele><time>2026-03-22T18:40:59.969Z</time></trkpt><trkpt lat="53.5557676" lon="-1.8365945"><ele>267.75</ele><time>2026-03-22T18:41:00.963Z</time></trkpt><trkpt lat="53.5556446" lon="-1.8364046"><ele>269.0</ele><time>2026-03-22T18:41:01.974Z</time></trkpt><trkpt lat="53.5554865" lon="-1.8361878"><ele>269.6666666666667</ele><time>2026-03-22T18:41:02.974Z</time></trkpt><trkpt lat="53.5553313" lon="-1.836008"><ele>270.3333333333333</ele><time>2026-03-22T18:41:03.972Z</time></trkpt><trkpt lat="53.555161" lon="-1.8358608"><ele>271.0</ele><time>2026-03-22T18:41:04.971Z</time></trkpt><trkpt lat="53.5549941" lon="-1.8357371"><ele>271.0</ele><time>2026-03-22T18:41:05.972Z</time></trkpt><trkpt lat="53.5548123" lon="-1.8356732"><ele>271.0</ele><time>2026-03-22T18:41:06.97Z</time></trkpt><trkpt lat="53.5546206" lon="-1.8356766"><ele>271.0</ele><time>2026-03-22T18:41:07.971Z</time></trkpt><trkpt lat="53.5544342" lon="-1.8357357"><ele>272.66666666666663</ele><time>2026-03-22T18:41:08.97Z</time></trkpt><trkpt lat="53.5542578" lon="-1.8358287"><ele>274.3333333333333</ele><time>2026-03-22T18:41:09.97Z</time></trkpt><trkpt lat="53.5540938" lon="-1.8359687"><ele>276.0</ele><time>2026-03-22T18:41:10.967Z</time></trkpt><trkpt lat="53.5539467" lon="-1.8361263"><ele>277.6666666666667</ele><time>2026-03-22T18:41:11.966Z</time></trkpt><trkpt lat="53.5538021" lon="-1.836247"><ele>279.33333333333337</ele><time>2026-03-22T18:41:12.966Z</time></trkpt><trkpt lat="53.5536442" lon="-1.8363268"><ele>281.0</ele><time>2026-03-22T18:41:13.971Z</time></trkpt><trkpt lat="53.5534742" lon="-1.8363519"><ele>282.33333333333337</ele><time>2026-03-22T18:41:14.964Z</time></trkpt><trkpt lat="53.5532932" lon="-1.836351"><ele>283.6666666666667</ele><time>2026-03-22T18:41:15.966Z</time></trkpt><trkpt lat="53.5531187" lon="-1.8363711"><ele>285.0</ele><time>2026-03-22T18:41:16.966Z</time></trkpt><trkpt lat="53.5529517" lon="-1.8364286"><ele>287.0</ele><time>2026-03-22T18:41:17.964Z</time></trkpt><trkpt lat="53.5527904" lon="-1.8365286"><ele>289.0</ele><time>2026-03-22T18:41:18.966Z</time></trkpt><trkpt lat="53.5526364" lon="-1.8366595"><ele>291.0</ele><time>2026-03-22T18:41:19.963Z</time></trkpt><trkpt lat="53.5524727" lon="-1.8367939"><ele>291.6666666666667</ele><time>2026-03-22T18:41:20.958Z</time></trkpt><trkpt lat="53.5522985" lon="-1.8368989"><ele>292.33333333333337</ele><time>2026-03-22T18:41:21.966Z</time></trkpt><trkpt lat="53.5521225" lon="-1.8369854"><ele>293.0</ele><time>2026-03-22T18:41:22.963Z</time></trkpt><trkpt lat="53.5519349" lon="-1.8370463"><ele>294.33333333333337</ele><time>2026-03-22T18:41:23.965Z</time></trkpt><trkpt lat="53.5517408" lon="-1.8370736"><ele>295.6666666666667</ele><time>2026-03-22T18:41:24.965Z</time></trkpt><trkpt lat="53.5515487" lon="-1.8371018"><ele>297.0</ele><time>2026-03-22T18:41:25.962Z</time></trkpt><trkpt lat="53.5513564" lon="-1.8371375"><ele>296.6666666666667</ele><time>2026-03-22T18:41:26.965Z</time></trkpt><trkpt lat="53.5511737" lon="-1.8371659"><ele>296.33333333333337</ele><time>2026-03-22T18:41:27.969Z</time></trkpt><trkpt lat="53.5510071" lon="-1.8372098"><ele>296.0</ele><time>2026-03-22T18:41:28.972Z</time></trkpt><trkpt lat="53.550862" lon="-1.8372687"><ele>296.0</ele><time>2026-03-22T18:41:29.967Z</time></trkpt><trkpt lat="53.5507472" lon="-1.8373474"><ele>296.0</ele><time>2026-03-22T18:41:30.967Z</time></trkpt><trkpt lat="53.5506542" lon="-1.837432"><ele>296.0</ele><time>2026-03-22T18:41:31.967Z</time></trkpt><trkpt lat="53.550569" lon="-1.8374996"><ele>296.0</ele><time>2026-03-22T18:41:32.973Z</time></trkpt><trkpt lat="53.550497" lon="-1.8375454"><ele>296.0</ele><time>2026-03-22T18:41:33.977Z</time></trkpt><trkpt lat="53.5504341" lon="-1.8375729"><ele>296.40000000000003</ele><time>2026-03-22T18:41:34.974Z</time></trkpt><trkpt lat="53.550356" lon="-1.8376044"><ele>296.8</ele><time>2026-03-22T18:41:36.974Z</time></trkpt><trkpt lat="53.5502632" lon="-1.8376221"><ele>297.20000000000005</ele><time>2026-03-22T18:41:41.969Z</time></trkpt><trkpt lat="53.5501737" lon="-1.8377751"><ele>297.6</ele><time>2026-03-22T18:41:43.966Z</time></trkpt><trkpt lat="53.5501133" lon="-1.8378829"><ele>298.0</ele><time>2026-03-22T18:41:44.958Z</time></trkpt><trkpt lat="53.5500584" lon="-1.8379973"><ele>298.6</ele><time>2026-03-22T18:41:45.964Z</time></trkpt><trkpt lat="53.5499941" lon="-1.8381053"><ele>299.20000000000005</ele><time>2026-03-22T18:41:46.966Z</time></trkpt><trkpt lat="53.5499311" lon="-1.8381909"><ele>299.8</ele><time>2026-03-22T18:41:47.962Z</time></trkpt><trkpt lat="53.54987" lon="-1.8382499"><ele>300.40000000000003</ele><time>2026-03-22T18:41:48.963Z</time></trkpt><trkpt lat="53.5497624" lon="-1.8383074"><ele>301.0</ele><time>2026-03-22T18:41:50.963Z</time></trkpt><trkpt lat="53.5496698" lon="-1.8383561"><ele>301.0</ele><time>2026-03-22T18:41:52.965Z</time></trkpt><trkpt lat="53.5495684" lon="-1.8384341"><ele>301.0</ele><time>2026-03-22T18:41:54.965Z</time></trkpt><trkpt lat="53.5494574" lon="-1.8385413"><ele>301.0</ele><time>2026-03-22T18:41:56.964Z</time></trkpt><trkpt lat="53.5493942" lon="-1.8385993"><ele>301.0</ele><time>2026-03-22T18:41:57.963Z</time></trkpt><trkpt lat="53.5493274" lon="-1.8386651"><ele>301.0</ele><time>2026-03-22T18:41:58.968Z</time></trkpt><trkpt lat="53.5492589" lon="-1.8387393"><ele>301.0</ele><time>2026-03-22T18:41:59.968Z</time></trkpt><trkpt lat="53.5491865" lon="-1.8388214"><ele>301.0</ele><time>2026-03-22T18:42:00.964Z</time></trkpt><trkpt lat="53.5491111" lon="-1.8389087"><ele>301.0</ele><time>2026-03-22T18:42:01.969Z</time></trkpt><trkpt lat="53.5490346" lon="-1.8390046"><ele>301.0</ele><time>2026-03-22T18:42:02.971Z</time></trkpt><trkpt lat="53.5489561" lon="-1.8391126"><ele>301.0</ele><time>2026-03-22T18:42:03.971Z</time></trkpt><trkpt lat="53.54888" lon="-1.8392337"><ele>301.0</ele><time>2026-03-22T18:42:04.967Z</time></trkpt><trkpt lat="53.5488069" lon="-1.8393699"><ele>301.0</ele><time>2026-03-22T18:42:05.967Z</time></trkpt><trkpt lat="53.5487308" lon="-1.8395198"><ele>301.0</ele><time>2026-03-22T18:42:06.969Z</time></trkpt><trkpt lat="53.5486414" lon="-1.8396769"><ele>301.0</ele><time>2026-03-22T18:42:07.974Z</time></trkpt><trkpt lat="53.5485321" lon="-1.839849"><ele>301.0</ele><time>2026-03-22T18:42:08.972Z</time></trkpt><trkpt lat="53.5484101" lon="-1.8400137"><ele>301.0</ele><time>2026-03-22T18:42:09.968Z</time></trkpt><trkpt lat="53.5482871" lon="-1.8401761"><ele>301.0</ele><time>2026-03-22T18:42:10.967Z</time></trkpt><trkpt lat="53.548169" lon="-1.84036"><ele>303.0</ele><time>2026-03-22T18:42:11.973Z</time></trkpt><trkpt lat="53.5480644" lon="-1.8405713"><ele>305.0</ele><time>2026-03-22T18:42:12.97Z</time></trkpt><trkpt lat="53.5479769" lon="-1.8408024"><ele>307.0</ele><time>2026-03-22T18:42:13.967Z</time></trkpt><trkpt lat="53.5478963" lon="-1.8410518"><ele>306.0</ele><time>2026-03-22T18:42:14.966Z</time></trkpt><trkpt lat="53.5478207" lon="-1.8413102"><ele>305.0</ele><time>2026-03-22T18:42:15.967Z</time></trkpt><trkpt lat="53.5477509" lon="-1.8415814"><ele>304.0</ele><time>2026-03-22T18:42:16.964Z</time></trkpt><trkpt lat="53.5476787" lon="-1.8418611"><ele>306.0</ele><time>2026-03-22T18:42:17.967Z</time></trkpt><trkpt lat="53.5476055" lon="-1.8421331"><ele>308.0</ele><time>2026-03-22T18:42:18.966Z</time></trkpt><trkpt lat="53.5475305" lon="-1.8424055"><ele>310.0</ele><time>2026-03-22T18:42:19.964Z</time></trkpt><trkpt lat="53.5474577" lon="-1.842687"><ele>311.3333333333333</ele><time>2026-03-22T18:42:20.965Z</time></trkpt><trkpt lat="53.5473824" lon="-1.8429744"><ele>312.6666666666667</ele><time>2026-03-22T18:42:21.965Z</time></trkpt><trkpt lat="53.5473059" lon="-1.8432577"><ele>314.0</ele><time>2026-03-22T18:42:22.963Z</time></trkpt><trkpt lat="53.5472365" lon="-1.8435229"><ele>315.33333333333337</ele><time>2026-03-22T18:42:23.963Z</time></trkpt><trkpt lat="53.5471766" lon="-1.8437893"><ele>316.6666666666667</ele><time>2026-03-22T18:42:24.964Z</time></trkpt><trkpt lat="53.5471303" lon="-1.8440605"><ele>318.0</ele><time>2026-03-22T18:42:25.963Z</time></trkpt><trkpt lat="53.5471024" lon="-1.8443415"><ele>318.3333333333333</ele><time>2026-03-22T18:42:26.963Z</time></trkpt><trkpt lat="53.5470897" lon="-1.8446291"><ele>318.66666666666663</ele><time>2026-03-22T18:42:27.962Z</time></trkpt><trkpt lat="53.5470806" lon="-1.8449231"><ele>319.0</ele><time>2026-03-22T18:42:28.963Z</time></trkpt><trkpt lat="53.5470737" lon="-1.8452104"><ele>319.0</ele><time>2026-03-22T18:42:29.963Z</time></trkpt><trkpt lat="53.5470705" lon="-1.8454815"><ele>319.0</ele><time>2026-03-22T18:42:30.964Z</time></trkpt><trkpt lat="53.5470605" lon="-1.8457288"><ele>319.0</ele><time>2026-03-22T18:42:31.968Z</time></trkpt><trkpt lat="53.5470322" lon="-1.8459564"><ele>319.0</ele><time>2026-03-22T18:42:32.968Z</time></trkpt><trkpt lat="53.5469805" lon="-1.846167"><ele>319.0</ele><time>2026-03-22T18:42:33.972Z</time></trkpt><trkpt lat="53.5469083" lon="-1.8463765"><ele>319.0</ele><time>2026-03-22T18:42:34.968Z</time></trkpt><trkpt lat="53.5468193" lon="-1.8465827"><ele>319.0</ele><time>2026-03-22T18:42:35.962Z</time></trkpt><trkpt lat="53.5467128" lon="-1.8467904"><ele>321.0</ele><time>2026-03-22T18:42:36.967Z</time></trkpt><trkpt lat="53.546598" lon="-1.8470017"><ele>323.0</ele><time>2026-03-22T18:42:37.967Z</time></trkpt><trkpt lat="53.5464631" lon="-1.8472048"><ele>325.0</ele><time>2026-03-22T18:42:38.97Z</time></trkpt><trkpt lat="53.5463167" lon="-1.8473969"><ele>325.0</ele><time>2026-03-22T18:42:39.967Z</time></trkpt><trkpt lat="53.5461539" lon="-1.84756"><ele>325.0</ele><time>2026-03-22T18:42:40.962Z</time></trkpt><trkpt lat="53.5459704" lon="-1.8476911"><ele>325.0</ele><time>2026-03-22T18:42:41.963Z</time></trkpt><trkpt lat="53.5457796" lon="-1.8477966"><ele>325.0</ele><time>2026-03-22T18:42:42.963Z</time></trkpt><trkpt lat="53.5455937" lon="-1.8478863"><ele>325.0</ele><time>2026-03-22T18:42:43.961Z</time></trkpt><trkpt lat="53.5454118" lon="-1.8479695"><ele>325.0</ele><time>2026-03-22T18:42:44.961Z</time></trkpt><trkpt lat="53.5452457" lon="-1.8480462"><ele>324.0</ele><time>2026-03-22T18:42:45.954Z</time></trkpt><trkpt lat="53.5450975" lon="-1.8481049"><ele>323.0</ele><time>2026-03-22T18:42:46.962Z</time></trkpt><trkpt lat="53.5449675" lon="-1.8481376"><ele>322.0</ele><time>2026-03-22T18:42:47.96Z</time></trkpt><trkpt lat="53.5448585" lon="-1.8481436"><ele>321.0</ele><time>2026-03-22T18:42:48.962Z</time></trkpt><trkpt lat="53.5447671" lon="-1.8481418"><ele>321.0</ele><time>2026-03-22T18:42:49.96Z</time></trkpt><trkpt lat="53.5446952" lon="-1.8481086"><ele>321.0</ele><time>2026-03-22T18:42:50.963Z</time></trkpt><trkpt lat="53.5446406" lon="-1.8480171"><ele>321.0</ele><time>2026-03-22T18:42:51.963Z</time></trkpt><trkpt lat="53.5446126" lon="-1.8478583"><ele>321.0</ele><time>2026-03-22T18:42:52.966Z</time></trkpt><trkpt lat="53.5446088" lon="-1.8476456"><ele>321.0</ele><time>2026-03-22T18:42:53.962Z</time></trkpt><trkpt lat="53.5446271" lon="-1.8474093"><ele>321.75</ele><time>2026-03-22T18:42:54.961Z</time></trkpt><trkpt lat="53.5446369" lon="-1.8471757"><ele>322.5</ele><time>2026-03-22T18:42:55.963Z</time></trkpt><trkpt lat="53.5446201" lon="-1.8469407"><ele>323.25</ele><time>2026-03-22T18:42:56.963Z</time></trkpt><trkpt lat="53.5445751" lon="-1.8467195"><ele>324.0</ele><time>2026-03-22T18:42:57.966Z</time></trkpt><trkpt lat="53.5445182" lon="-1.8464999"><ele>324.0</ele><time>2026-03-22T18:42:58.97Z</time></trkpt><trkpt lat="53.5444553" lon="-1.8462741"><ele>324.0</ele><time>2026-03-22T18:42:59.968Z</time></trkpt><trkpt lat="53.5443942" lon="-1.8460408"><ele>324.0</ele><time>2026-03-22T18:43:00.969Z</time></trkpt><trkpt lat="53.5443344" lon="-1.8457909"><ele>324.0</ele><time>2026-03-22T18:43:01.973Z</time></trkpt><trkpt lat="53.5442746" lon="-1.8455304"><ele>324.0</ele><time>2026-03-22T18:43:02.973Z</time></trkpt><trkpt lat="53.5442127" lon="-1.8452599"><ele>324.0</ele><time>2026-03-22T18:43:03.974Z</time></trkpt><trkpt lat="53.5441509" lon="-1.84498"><ele>324.0</ele><time>2026-03-22T18:43:04.974Z</time></trkpt><trkpt lat="53.5440905" lon="-1.8446942"><ele>324.0</ele><time>2026-03-22T18:43:05.974Z</time></trkpt><trkpt lat="53.5440318" lon="-1.8444088"><ele>324.0</ele><time>2026-03-22T18:43:06.974Z</time></trkpt><trkpt lat="53.5439765" lon="-1.8441434"><ele>323.25</ele><time>2026-03-22T18:43:07.975Z</time></trkpt><trkpt lat="53.5439264" lon="-1.8439107"><ele>322.5</ele><time>2026-03-22T18:43:08.974Z</time></trkpt><trkpt lat="53.5438896" lon="-1.8437113"><ele>321.75</ele><time>2026-03-22T18:43:09.971Z</time></trkpt><trkpt lat="53.5438696" lon="-1.8435433"><ele>321.0</ele><time>2026-03-22T18:43:10.974Z</time></trkpt><trkpt lat="53.5438594" lon="-1.8433955"><ele>320.8333333333333</ele><time>2026-03-22T18:43:11.97Z</time></trkpt><trkpt lat="53.5438487" lon="-1.8432623"><ele>320.6666666666667</ele><time>2026-03-22T18:43:12.969Z</time></trkpt><trkpt lat="53.5438333" lon="-1.8431339"><ele>320.5</ele><time>2026-03-22T18:43:13.968Z</time></trkpt><trkpt lat="53.543812" lon="-1.8430055"><ele>320.33333333333337</ele><time>2026-03-22T18:43:14.968Z</time></trkpt><trkpt lat="53.5437884" lon="-1.8428747"><ele>320.1666666666667</ele><time>2026-03-22T18:43:15.97Z</time></trkpt><trkpt lat="53.5437622" lon="-1.8427449"><ele>320.0</ele><time>2026-03-22T18:43:16.97Z</time></trkpt><trkpt lat="53.5437388" lon="-1.842621"><ele>319.33333333333337</ele><time>2026-03-22T18:43:17.968Z</time></trkpt><trkpt lat="53.5437174" lon="-1.842506"><ele>318.6666666666667</ele><time>2026-03-22T18:43:18.966Z</time></trkpt><trkpt lat="53.5437002" lon="-1.8423943"><ele>318.0</ele><time>2026-03-22T18:43:19.962Z</time></trkpt><trkpt lat="53.5436683" lon="-1.8422223"><ele>317.3333333333333</ele><time>2026-03-22T18:43:21.97Z</time></trkpt><trkpt lat="53.5436411" lon="-1.842074"><ele>316.66666666666663</ele><time>2026-03-22T18:43:23.968Z</time></trkpt><trkpt lat="53.5436196" lon="-1.8419658"><ele>316.0</ele><time>2026-03-22T18:43:25.972Z</time></trkpt><trkpt lat="53.5436132" lon="-1.8418422"><ele>318.5714285714286</ele><time>2026-03-22T18:43:30.971Z</time></trkpt><trkpt lat="53.5435513" lon="-1.8418071"><ele>321.14285714285717</ele><time>2026-03-22T18:43:33.97Z</time></trkpt><trkpt lat="53.5434729" lon="-1.8418009"><ele>323.7142857142857</ele><time>2026-03-22T18:43:43.97Z</time></trkpt><trkpt lat="53.5434018" lon="-1.8418218"><ele>326.28571428571433</ele><time>2026-03-22T18:43:53.969Z</time></trkpt><trkpt lat="53.5434297" lon="-1.8419222"><ele>328.8571428571429</ele><time>2026-03-22T18:43:57.962Z</time></trkpt><trkpt lat="53.5435094" lon="-1.8419311"><ele>331.42857142857144</ele><time>2026-03-22T18:43:59.969Z</time></trkpt><trkpt lat="53.543585" lon="-1.8419255"><ele>334.0</ele><time>2026-03-22T18:44:01.972Z</time></trkpt><trkpt lat="53.5436296" lon="-1.8418425"><ele>333.85714285714283</ele><time>2026-03-22T18:44:03.97Z</time></trkpt><trkpt lat="53.5436184" lon="-1.8417315"><ele>333.7142857142857</ele><time>2026-03-22T18:44:05.97Z</time></trkpt><trkpt lat="53.5436068" lon="-1.8416121"><ele>333.57142857142856</ele><time>2026-03-22T18:44:08.972Z</time></trkpt><trkpt lat="53.5435333" lon="-1.8415868"><ele>333.42857142857144</ele><time>2026-03-22T18:44:11.959Z</time></trkpt><trkpt lat="53.5434711" lon="-1.8415508"><ele>333.2857142857143</ele><time>2026-03-22T18:44:36.965Z</time></trkpt><trkpt lat="53.5434737" lon="-1.8414176"><ele>333.14285714285717</ele><time>2026-03-22T18:56:44.961Z</time></trkpt><trkpt lat="53.5435025" lon="-1.8413168"><ele>333.0</ele><time>2026-03-22T18:56:46.966Z</time></trkpt><trkpt lat="53.5435298" lon="-1.8411928"><ele>333.0</ele><time>2026-03-22T18:57:10.973Z</time></trkpt><trkpt lat="53.5435455" lon="-1.8410878"><ele>333.0</ele><time>2026-03-22T18:57:20.97Z</time></trkpt><trkpt lat="53.5435539" lon="-1.8409612"><ele>333.0</ele><time>2026-03-22T18:57:27.962Z</time></trkpt><trkpt lat="53.5435631" lon="-1.8408468"><ele>333.0</ele><time>2026-03-22T18:57:53.968Z</time></trkpt><trkpt lat="53.5435726" lon="-1.8407392"><ele>333.0</ele><time>2026-03-22T18:57:56.971Z</time></trkpt><trkpt lat="53.5435671" lon="-1.8406304"><ele>333.0</ele><time>2026-03-22T18:58:18.972Z</time></trkpt><trkpt lat="53.5435708" lon="-1.8407446"><ele>333.0</ele><time>2026-03-22T18:58:24.972Z</time></trkpt><trkpt lat="53.5435658" lon="-1.8408675"><ele>331.5</ele><time>2026-03-22T18:58:26.973Z</time></trkpt><trkpt lat="53.5435646" lon="-1.8407276"><ele>330.0</ele><time>2026-03-22T18:58:30.974Z</time></trkpt><trkpt lat="53.5435716" lon="-1.8408683"><ele>328.5</ele><time>2026-03-22T18:58:35.973Z</time></trkpt><trkpt lat="53.5435277" lon="-1.8405215"><ele>327.0</ele><time>2026-03-22T18:58:47.975Z</time></trkpt><trkpt lat="53.5434919" lon="-1.8402485"><ele>325.6</ele><time>2026-03-22T18:58:48.976Z</time></trkpt><trkpt lat="53.5434558" lon="-1.8400805"><ele>324.20000000000005</ele><time>2026-03-22T18:58:49.975Z</time></trkpt><trkpt lat="53.5434148" lon="-1.8399495"><ele>322.8</ele><time>2026-03-22T18:58:50.977Z</time></trkpt><trkpt lat="53.5433614" lon="-1.8398249"><ele>321.4</ele><time>2026-03-22T18:58:51.975Z</time></trkpt><trkpt lat="53.5432931" lon="-1.8396986"><ele>320.0</ele><time>2026-03-22T18:58:52.977Z</time></trkpt><trkpt lat="53.5432141" lon="-1.8395753"><ele>320.0</ele><time>2026-03-22T18:58:53.975Z</time></trkpt><trkpt lat="53.5431319" lon="-1.8394528"><ele>320.0</ele><time>2026-03-22T18:58:54.973Z</time></trkpt><trkpt lat="53.5430531" lon="-1.8393371"><ele>320.0</ele><time>2026-03-22T18:58:55.965Z</time></trkpt><trkpt lat="53.5429798" lon="-1.8392316"><ele>320.0</ele><time>2026-03-22T18:58:56.977Z</time></trkpt><trkpt lat="53.5429018" lon="-1.8391352"><ele>320.0</ele><time>2026-03-22T18:58:57.973Z</time></trkpt><trkpt lat="53.5428121" lon="-1.8390275"><ele>320.0</ele><time>2026-03-22T18:58:58.969Z</time></trkpt><trkpt lat="53.5427102" lon="-1.8389127"><ele>320.0</ele><time>2026-03-22T18:58:59.966Z</time></trkpt><trkpt lat="53.542598" lon="-1.838814"><ele>320.0</ele><time>2026-03-22T18:59:00.974Z</time></trkpt><trkpt lat="53.5424823" lon="-1.8387502"><ele>320.0</ele><time>2026-03-22T18:59:01.973Z</time></trkpt><trkpt lat="53.5423698" lon="-1.8387204"><ele>320.0</ele><time>2026-03-22T18:59:02.972Z</time></trkpt><trkpt lat="53.5422593" lon="-1.838723"><ele>320.0</ele><time>2026-03-22T18:59:03.971Z</time></trkpt><trkpt lat="53.5421473" lon="-1.8387432"><ele>320.0</ele><time>2026-03-22T18:59:04.971Z</time></trkpt><trkpt lat="53.5420373" lon="-1.8387597"><ele>320.0</ele><time>2026-03-22T18:59:05.977Z</time></trkpt><trkpt lat="53.5419397" lon="-1.8387673"><ele>320.0</ele><time>2026-03-22T18:59:06.977Z</time></trkpt><trkpt lat="53.5418461" lon="-1.8387798"><ele>320.0</ele><time>2026-03-22T18:59:07.974Z</time></trkpt><trkpt lat="53.5417455" lon="-1.8388073"><ele>320.0</ele><time>2026-03-22T18:59:08.975Z</time></trkpt><trkpt lat="53.541637" lon="-1.8388552"><ele>320.0</ele><time>2026-03-22T18:59:09.975Z</time></trkpt><trkpt lat="53.5415209" lon="-1.8389295"><ele>320.0</ele><time>2026-03-22T18:59:10.97Z</time></trkpt><trkpt lat="53.5413958" lon="-1.8390252"><ele>320.0</ele><time>2026-03-22T18:59:11.966Z</time></trkpt><trkpt lat="53.5412641" lon="-1.8391282"><ele>320.0</ele><time>2026-03-22T18:59:12.966Z</time></trkpt><trkpt lat="53.5411332" lon="-1.8392224"><ele>320.0</ele><time>2026-03-22T18:59:13.968Z</time></trkpt><trkpt lat="53.5410039" lon="-1.839295"><ele>320.0</ele><time>2026-03-22T18:59:14.97Z</time></trkpt><trkpt lat="53.540879" lon="-1.8393567"><ele>321.5</ele><time>2026-03-22T18:59:15.969Z</time></trkpt><trkpt lat="53.5407651" lon="-1.8394201"><ele>323.0</ele><time>2026-03-22T18:59:16.967Z</time></trkpt><trkpt lat="53.5406596" lon="-1.8395055"><ele>324.5</ele><time>2026-03-22T18:59:17.973Z</time></trkpt><trkpt lat="53.5405567" lon="-1.839616"><ele>326.0</ele><time>2026-03-22T18:59:18.973Z</time></trkpt><trkpt lat="53.540452" lon="-1.8397434"><ele>324.75</ele><time>2026-03-22T18:59:19.972Z</time></trkpt><trkpt lat="53.5403419" lon="-1.839885"><ele>323.5</ele><time>2026-03-22T18:59:20.971Z</time></trkpt><trkpt lat="53.5402285" lon="-1.8400394"><ele>322.25</ele><time>2026-03-22T18:59:21.972Z</time></trkpt><trkpt lat="53.5401159" lon="-1.8401943"><ele>321.0</ele><time>2026-03-22T18:59:22.973Z</time></trkpt><trkpt lat="53.5400038" lon="-1.840345"><ele>324.6666666666667</ele><time>2026-03-22T18:59:23.973Z</time></trkpt><trkpt lat="53.5398876" lon="-1.8404992"><ele>328.33333333333337</ele><time>2026-03-22T18:59:24.971Z</time></trkpt><trkpt lat="53.5397672" lon="-1.8406603"><ele>332.0</ele><time>2026-03-22T18:59:25.969Z</time></trkpt><trkpt lat="53.5396425" lon="-1.8408266"><ele>333.0</ele><time>2026-03-22T18:59:26.968Z</time></trkpt><trkpt lat="53.5395143" lon="-1.8409888"><ele>334.0</ele><time>2026-03-22T18:59:27.968Z</time></trkpt><trkpt lat="53.539386" lon="-1.8411394"><ele>335.0</ele><time>2026-03-22T18:59:28.968Z</time></trkpt><trkpt lat="53.5392658" lon="-1.841284"><ele>335.0</ele><time>2026-03-22T18:59:29.966Z</time></trkpt><trkpt lat="53.539146" lon="-1.8414229"><ele>335.0</ele><time>2026-03-22T18:59:30.968Z</time></trkpt><trkpt lat="53.5390229" lon="-1.8415513"><ele>335.0</ele><time>2026-03-22T18:59:31.969Z</time></trkpt><trkpt lat="53.5388951" lon="-1.8416674"><ele>335.0</ele><time>2026-03-22T18:59:32.973Z</time></trkpt><trkpt lat="53.538759" lon="-1.8417794"><ele>336.33333333333337</ele><time>2026-03-22T18:59:33.973Z</time></trkpt><trkpt lat="53.5386198" lon="-1.8419005"><ele>337.6666666666667</ele><time>2026-03-22T18:59:34.969Z</time></trkpt><trkpt lat="53.5384827" lon="-1.8420324"><ele>339.0</ele><time>2026-03-22T18:59:35.969Z</time></trkpt><trkpt lat="53.5383501" lon="-1.8421684"><ele>339.0</ele><time>2026-03-22T18:59:36.972Z</time></trkpt><trkpt lat="53.5382202" lon="-1.8423067"><ele>339.0</ele><time>2026-03-22T18:59:37.971Z</time></trkpt><trkpt lat="53.5380949" lon="-1.8424493"><ele>339.0</ele><time>2026-03-22T18:59:38.972Z</time></trkpt><trkpt lat="53.5379682" lon="-1.8425959"><ele>340.0</ele><time>2026-03-22T18:59:39.972Z</time></trkpt><trkpt lat="53.537848" lon="-1.8427395"><ele>341.0</ele><time>2026-03-22T18:59:40.971Z</time></trkpt><trkpt lat="53.5377327" lon="-1.8428774"><ele>342.0</ele><time>2026-03-22T18:59:41.975Z</time></trkpt><trkpt lat="53.5376199" lon="-1.8430027"><ele>343.0</ele><time>2026-03-22T18:59:42.967Z</time></trkpt><trkpt lat="53.5375067" lon="-1.8431191"><ele>343.0</ele><time>2026-03-22T18:59:43.963Z</time></trkpt><trkpt lat="53.5373967" lon="-1.8432346"><ele>343.0</ele><time>2026-03-22T18:59:44.966Z</time></trkpt><trkpt lat="53.5372901" lon="-1.8433383"><ele>343.0</ele><time>2026-03-22T18:59:45.968Z</time></trkpt><trkpt lat="53.5371931" lon="-1.8434292"><ele>343.0</ele><time>2026-03-22T18:59:46.966Z</time></trkpt><trkpt lat="53.5371074" lon="-1.8434987"><ele>342.7142857142857</ele><time>2026-03-22T18:59:47.965Z</time></trkpt><trkpt lat="53.5370304" lon="-1.8435406"><ele>342.42857142857144</ele><time>2026-03-22T18:59:48.969Z</time></trkpt><trkpt lat="53.5369584" lon="-1.8435529"><ele>342.1428571428571</ele><time>2026-03-22T18:59:49.967Z</time></trkpt><trkpt lat="53.5368847" lon="-1.843538"><ele>341.8571428571429</ele><time>2026-03-22T18:59:50.968Z</time></trkpt><trkpt lat="53.5368106" lon="-1.8435024"><ele>341.57142857142856</ele><time>2026-03-22T18:59:51.971Z</time></trkpt><trkpt lat="53.5367415" lon="-1.8434538"><ele>341.2857142857143</ele><time>2026-03-22T18:59:52.969Z</time></trkpt><trkpt lat="53.5366878" lon="-1.8433875"><ele>341.0</ele><time>2026-03-22T18:59:53.966Z</time></trkpt><trkpt lat="53.5366434" lon="-1.8432934"><ele>338.25</ele><time>2026-03-22T18:59:54.966Z</time></trkpt><trkpt lat="53.5366245" lon="-1.8431637"><ele>335.5</ele><time>2026-03-22T18:59:55.965Z</time></trkpt><trkpt lat="53.5366401" lon="-1.8429893"><ele>332.75</ele><time>2026-03-22T18:59:56.966Z</time></trkpt><trkpt lat="53.5366783" lon="-1.8427857"><ele>330.0</ele><time>2026-03-22T18:59:57.968Z</time></trkpt><trkpt lat="53.5367151" lon="-1.8425407"><ele>328.0</ele><time>2026-03-22T18:59:58.961Z</time></trkpt><trkpt lat="53.5367347" lon="-1.8422781"><ele>326.0</ele><time>2026-03-22T18:59:59.966Z</time></trkpt><trkpt lat="53.5367381" lon="-1.842027"><ele>324.0</ele><time>2026-03-22T19:00:00.971Z</time></trkpt><trkpt lat="53.5367282" lon="-1.8418074"><ele>322.0</ele><time>2026-03-22T19:00:01.959Z</time></trkpt><trkpt lat="53.5366923" lon="-1.8416201"><ele>321.5</ele><time>2026-03-22T19:00:02.959Z</time></trkpt><trkpt lat="53.5366271" lon="-1.8414546"><ele>321.0</ele><time>2026-03-22T19:00:03.959Z</time></trkpt><trkpt lat="53.53654" lon="-1.8412917"><ele>320.5</ele><time>2026-03-22T19:00:04.963Z</time></trkpt><trkpt lat="53.5364584" lon="-1.8411262"><ele>320.0</ele><time>2026-03-22T19:00:05.966Z</time></trkpt><trkpt lat="53.5364015" lon="-1.8409712"><ele>319.4</ele><time>2026-03-22T19:00:06.969Z</time></trkpt><trkpt lat="53.5363538" lon="-1.8408243"><ele>318.8</ele><time>2026-03-22T19:00:07.966Z</time></trkpt><trkpt lat="53.5363161" lon="-1.8406799"><ele>318.2</ele><time>2026-03-22T19:00:08.968Z</time></trkpt><trkpt lat="53.5363069" lon="-1.8405245"><ele>317.6</ele><time>2026-03-22T19:00:09.967Z</time></trkpt><trkpt lat="53.536321" lon="-1.8403672"><ele>317.0</ele><time>2026-03-22T19:00:10.964Z</time></trkpt><trkpt lat="53.5363521" lon="-1.8402118"><ele>315.75</ele><time>2026-03-22T19:00:11.969Z</time></trkpt><trkpt lat="53.5364032" lon="-1.8400479"><ele>314.5</ele><time>2026-03-22T19:00:12.967Z</time></trkpt><trkpt lat="53.5364793" lon="-1.8398848"><ele>313.25</ele><time>2026-03-22T19:00:13.969Z</time></trkpt><trkpt lat="53.5365613" lon="-1.8396973"><ele>312.0</ele><time>2026-03-22T19:00:14.968Z</time></trkpt><trkpt lat="53.5366469" lon="-1.8394875"><ele>311.25</ele><time>2026-03-22T19:00:15.967Z</time></trkpt><trkpt lat="53.5367329" lon="-1.839276"><ele>310.5</ele><time>2026-03-22T19:00:16.969Z</time></trkpt><trkpt lat="53.5368162" lon="-1.8390808"><ele>309.75</ele><time>2026-03-22T19:00:17.966Z</time></trkpt><trkpt lat="53.536898" lon="-1.8389006"><ele>309.0</ele><time>2026-03-22T19:00:18.968Z</time></trkpt><trkpt lat="53.5369794" lon="-1.8387406"><ele>309.4</ele><time>2026-03-22T19:00:19.966Z</time></trkpt><trkpt lat="53.5370566" lon="-1.8385976"><ele>309.79999999999995</ele><time>2026-03-22T19:00:20.963Z</time></trkpt><trkpt lat="53.537127" lon="-1.8384641"><ele>310.20000000000005</ele><time>2026-03-22T19:00:21.965Z</time></trkpt><trkpt lat="53.5371899" lon="-1.8383394"><ele>310.6</ele><time>2026-03-22T19:00:22.963Z</time></trkpt><trkpt lat="53.5372488" lon="-1.8382251"><ele>311.0</ele><time>2026-03-22T19:00:23.971Z</time></trkpt><trkpt lat="53.5373082" lon="-1.8381136"><ele>309.5</ele><time>2026-03-22T19:00:24.967Z</time></trkpt><trkpt lat="53.537368" lon="-1.8379825"><ele>308.0</ele><time>2026-03-22T19:00:25.963Z</time></trkpt><trkpt lat="53.5374309" lon="-1.8378262"><ele>306.5</ele><time>2026-03-22T19:00:26.965Z</time></trkpt><trkpt lat="53.5374882" lon="-1.8376444"><ele>305.0</ele><time>2026-03-22T19:00:27.966Z</time></trkpt><trkpt lat="53.5375611" lon="-1.8374651"><ele>303.33333333333337</ele><time>2026-03-22T19:00:28.966Z</time></trkpt><trkpt lat="53.5376467" lon="-1.8372829"><ele>301.6666666666667</ele><time>2026-03-22T19:00:29.967Z</time></trkpt><trkpt lat="53.5377415" lon="-1.8370817"><ele>300.0</ele><time>2026-03-22T19:00:30.971Z</time></trkpt><trkpt lat="53.537841" lon="-1.8368441"><ele>296.75</ele><time>2026-03-22T19:00:31.969Z</time></trkpt><trkpt lat="53.5379314" lon="-1.8366133"><ele>293.5</ele><time>2026-03-22T19:00:32.969Z</time></trkpt><trkpt lat="53.5380006" lon="-1.8364168"><ele>290.25</ele><time>2026-03-22T19:00:33.969Z</time></trkpt><trkpt lat="53.5380459" lon="-1.8362661"><ele>287.0</ele><time>2026-03-22T19:00:34.976Z</time></trkpt><trkpt lat="53.5380646" lon="-1.8361287"><ele>286.25</ele><time>2026-03-22T19:00:35.974Z</time></trkpt><trkpt lat="53.5380574" lon="-1.8359685"><ele>285.5</ele><time>2026-03-22T19:00:36.968Z</time></trkpt><trkpt lat="53.5380405" lon="-1.8357695"><ele>284.75</ele><time>2026-03-22T19:00:37.968Z</time></trkpt><trkpt lat="53.5380431" lon="-1.8355346"><ele>284.0</ele><time>2026-03-22T19:00:38.974Z</time></trkpt><trkpt lat="53.5380728" lon="-1.8352869"><ele>284.75</ele><time>2026-03-22T19:00:39.97Z</time></trkpt><trkpt lat="53.5381173" lon="-1.8350501"><ele>285.5</ele><time>2026-03-22T19:00:40.97Z</time></trkpt><trkpt lat="53.5381565" lon="-1.834825"><ele>286.25</ele><time>2026-03-22T19:00:41.967Z</time></trkpt><trkpt lat="53.5381951" lon="-1.8346294"><ele>287.0</ele><time>2026-03-22T19:00:42.969Z</time></trkpt><trkpt lat="53.5382452" lon="-1.8344636"><ele>287.0</ele><time>2026-03-22T19:00:43.97Z</time></trkpt><trkpt lat="53.5383196" lon="-1.8343299"><ele>287.0</ele><time>2026-03-22T19:00:44.97Z</time></trkpt><trkpt lat="53.5384177" lon="-1.8342022"><ele>287.0</ele><time>2026-03-22T19:00:45.971Z</time></trkpt><trkpt lat="53.5385294" lon="-1.8340676"><ele>287.0</ele><time>2026-03-22T19:00:46.969Z</time></trkpt><trkpt lat="53.5386338" lon="-1.8339407"><ele>287.4</ele><time>2026-03-22T19:00:47.97Z</time></trkpt><trkpt lat="53.5387213" lon="-1.8338308"><ele>287.79999999999995</ele><time>2026-03-22T19:00:48.972Z</time></trkpt><trkpt lat="53.5387915" lon="-1.8337286"><ele>288.2</ele><time>2026-03-22T19:00:49.97Z</time></trkpt><trkpt lat="53.5388424" lon="-1.8336428"><ele>288.59999999999997</ele><time>2026-03-22T19:00:50.975Z</time></trkpt><trkpt lat="53.538932" lon="-1.8334944"><ele>289.0</ele><time>2026-03-22T19:00:52.97Z</time></trkpt><trkpt lat="53.5389798" lon="-1.8334132"><ele>289.0</ele><time>2026-03-22T19:00:53.978Z</time></trkpt><trkpt lat="53.5390278" lon="-1.8333161"><ele>289.0</ele><time>2026-03-22T19:00:54.97Z</time></trkpt><trkpt lat="53.5390714" lon="-1.8332011"><ele>289.0</ele><time>2026-03-22T19:00:55.971Z</time></trkpt><trkpt lat="53.539106" lon="-1.8330509"><ele>289.0</ele><time>2026-03-22T19:00:56.967Z</time></trkpt><trkpt lat="53.5391399" lon="-1.8328621"><ele>289.0</ele><time>2026-03-22T19:00:57.968Z</time></trkpt><trkpt lat="53.5391832" lon="-1.8326428"><ele>290.0</ele><time>2026-03-22T19:00:58.97Z</time></trkpt><trkpt lat="53.5392328" lon="-1.8324054"><ele>291.0</ele><time>2026-03-22T19:00:59.971Z</time></trkpt><trkpt lat="53.5392777" lon="-1.8321688"><ele>292.0</ele><time>2026-03-22T19:01:00.971Z</time></trkpt><trkpt lat="53.539315" lon="-1.8319534"><ele>293.0</ele><time>2026-03-22T19:01:01.967Z</time></trkpt><trkpt lat="53.5393481" lon="-1.8317676"><ele>293.8</ele><time>2026-03-22T19:01:02.965Z</time></trkpt><trkpt lat="53.5393949" lon="-1.8316265"><ele>294.6</ele><time>2026-03-22T19:01:03.968Z</time></trkpt><trkpt lat="53.5394677" lon="-1.8315301"><ele>295.4</ele><time>2026-03-22T19:01:04.965Z</time></trkpt><trkpt lat="53.5395762" lon="-1.8314945"><ele>296.2</ele><time>2026-03-22T19:01:05.966Z</time></trkpt><trkpt lat="53.5397037" lon="-1.8314987"><ele>297.0</ele><time>2026-03-22T19:01:06.965Z</time></trkpt><trkpt lat="53.5398351" lon="-1.831499"><ele>294.25</ele><time>2026-03-22T19:01:07.963Z</time></trkpt><trkpt lat="53.5399626" lon="-1.8314955"><ele>291.5</ele><time>2026-03-22T19:01:08.965Z</time></trkpt><trkpt lat="53.540084" lon="-1.8314707"><ele>288.75</ele><time>2026-03-22T19:01:09.964Z</time></trkpt><trkpt lat="53.5402053" lon="-1.831427"><ele>286.0</ele><time>2026-03-22T19:01:10.966Z</time></trkpt><trkpt lat="53.5403307" lon="-1.8313578"><ele>286.25</ele><time>2026-03-22T19:01:11.967Z</time></trkpt><trkpt lat="53.5404543" lon="-1.8312794"><ele>286.5</ele><time>2026-03-22T19:01:12.973Z</time></trkpt><trkpt lat="53.540574" lon="-1.8312031"><ele>286.75</ele><time>2026-03-22T19:01:13.974Z</time></trkpt><trkpt lat="53.5406838" lon="-1.8311222"><ele>287.0</ele><time>2026-03-22T19:01:14.972Z</time></trkpt><trkpt lat="53.5407751" lon="-1.8310292"><ele>286.8</ele><time>2026-03-22T19:01:15.974Z</time></trkpt><trkpt lat="53.5408346" lon="-1.8309055"><ele>286.6</ele><time>2026-03-22T19:01:16.975Z</time></trkpt><trkpt lat="53.5408673" lon="-1.830749"><ele>286.40000000000003</ele><time>2026-03-22T19:01:17.975Z</time></trkpt><trkpt lat="53.5408932" lon="-1.8305583"><ele>286.2</ele><time>2026-03-22T19:01:18.979Z</time></trkpt><trkpt lat="53.5409135" lon="-1.8303277"><ele>286.0</ele><time>2026-03-22T19:01:19.97Z</time></trkpt><trkpt lat="53.5409314" lon="-1.8300681"><ele>285.75</ele><time>2026-03-22T19:01:20.969Z</time></trkpt><trkpt lat="53.5409419" lon="-1.8298139"><ele>285.5</ele><time>2026-03-22T19:01:21.968Z</time></trkpt><trkpt lat="53.5409376" lon="-1.8295918"><ele>285.25</ele><time>2026-03-22T19:01:22.967Z</time></trkpt><trkpt lat="53.5409249" lon="-1.8294037"><ele>285.0</ele><time>2026-03-22T19:01:23.968Z</time></trkpt><trkpt lat="53.5409237" lon="-1.8292463"><ele>285.0</ele><time>2026-03-22T19:01:24.968Z</time></trkpt><trkpt lat="53.5409621" lon="-1.8291166"><ele>285.0</ele><time>2026-03-22T19:01:25.968Z</time></trkpt><trkpt lat="53.5410261" lon="-1.8289887"><ele>285.0</ele><time>2026-03-22T19:01:26.969Z</time></trkpt><trkpt lat="53.5411155" lon="-1.8288499"><ele>285.0</ele><time>2026-03-22T19:01:27.969Z</time></trkpt><trkpt lat="53.5412254" lon="-1.8287238"><ele>285.0</ele><time>2026-03-22T19:01:28.974Z</time></trkpt><trkpt lat="53.5413582" lon="-1.8285928"><ele>283.6666666666667</ele><time>2026-03-22T19:01:29.969Z</time></trkpt><trkpt lat="53.5414994" lon="-1.8284473"><ele>282.33333333333337</ele><time>2026-03-22T19:01:30.968Z</time></trkpt><trkpt lat="53.5416376" lon="-1.8282959"><ele>281.0</ele><time>2026-03-22T19:01:31.97Z</time></trkpt><trkpt lat="53.5417668" lon="-1.8281414"><ele>281.0</ele><time>2026-03-22T19:01:32.97Z</time></trkpt><trkpt lat="53.5418924" lon="-1.8279776"><ele>281.0</ele><time>2026-03-22T19:01:33.965Z</time></trkpt><trkpt lat="53.5420194" lon="-1.8277985"><ele>281.0</ele><time>2026-03-22T19:01:34.967Z</time></trkpt><trkpt lat="53.5421348" lon="-1.8275953"><ele>275.6666666666667</ele><time>2026-03-22T19:01:35.966Z</time></trkpt><trkpt lat="53.5422496" lon="-1.8273714"><ele>270.3333333333333</ele><time>2026-03-22T19:01:36.97Z</time></trkpt><trkpt lat="53.542356" lon="-1.8271187"><ele>265.0</ele><time>2026-03-22T19:01:37.967Z</time></trkpt><trkpt lat="53.5424629" lon="-1.8268592"><ele>264.3333333333333</ele><time>2026-03-22T19:01:38.968Z</time></trkpt><trkpt lat="53.5425754" lon="-1.8265853"><ele>263.6666666666667</ele><time>2026-03-22T19:01:39.969Z</time></trkpt><trkpt lat="53.5426926" lon="-1.8263185"><ele>263.0</ele><time>2026-03-22T19:01:40.969Z</time></trkpt><trkpt lat="53.5427969" lon="-1.8260828"><ele>264.25</ele><time>2026-03-22T19:01:41.976Z</time></trkpt><trkpt lat="53.5428853" lon="-1.8258746"><ele>265.5</ele><time>2026-03-22T19:01:42.972Z</time></trkpt><trkpt lat="53.5429572" lon="-1.8257044"><ele>266.75</ele><time>2026-03-22T19:01:43.975Z</time></trkpt><trkpt lat="53.5430073" lon="-1.8255685"><ele>268.0</ele><time>2026-03-22T19:01:44.974Z</time></trkpt><trkpt lat="53.543051" lon="-1.8254562"><ele>268.0</ele><time>2026-03-22T19:01:45.975Z</time></trkpt><trkpt lat="53.5430947" lon="-1.8253716"><ele>268.0</ele><time>2026-03-22T19:01:46.97Z</time></trkpt><trkpt lat="53.5431882" lon="-1.8253705"><ele>268.0</ele><time>2026-03-22T19:01:48.965Z</time></trkpt><trkpt lat="53.5432387" lon="-1.8254682"><ele>268.0</ele><time>2026-03-22T19:01:49.967Z</time></trkpt><trkpt lat="53.5432902" lon="-1.8255907"><ele>268.0</ele><time>2026-03-22T19:01:50.968Z</time></trkpt><trkpt lat="53.5433495" lon="-1.8257217"><ele>268.0</ele><time>2026-03-22T19:01:51.965Z</time></trkpt><trkpt lat="53.5434009" lon="-1.8258326"><ele>268.0</ele><time>2026-03-22T19:01:52.961Z</time></trkpt><trkpt lat="53.5434437" lon="-1.8259174"><ele>268.0</ele><time>2026-03-22T19:01:53.966Z</time></trkpt><trkpt lat="53.5435146" lon="-1.8260237"><ele>268.0</ele><time>2026-03-22T19:01:55.966Z</time></trkpt><trkpt lat="53.5436185" lon="-1.8260378"><ele>268.0</ele><time>2026-03-22T19:01:57.96Z</time></trkpt><trkpt lat="53.5436955" lon="-1.8258787"><ele>268.0</ele><time>2026-03-22T19:01:59.966Z</time></trkpt><trkpt lat="53.5437112" lon="-1.8257614"><ele>269.3333333333333</ele><time>2026-03-22T19:02:00.965Z</time></trkpt><trkpt lat="53.5437302" lon="-1.8256107"><ele>270.66666666666663</ele><time>2026-03-22T19:02:01.964Z</time></trkpt><trkpt lat="53.5437539" lon="-1.8254598"><ele>272.0</ele><time>2026-03-22T19:02:02.964Z</time></trkpt><trkpt lat="53.5437792" lon="-1.825319"><ele>273.3333333333333</ele><time>2026-03-22T19:02:03.966Z</time></trkpt><trkpt lat="53.5438015" lon="-1.8252122"><ele>274.6666666666667</ele><time>2026-03-22T19:02:04.965Z</time></trkpt><trkpt lat="53.5438515" lon="-1.8251433"><ele>276.0</ele><time>2026-03-22T19:02:05.966Z</time></trkpt><trkpt lat="53.543959" lon="-1.8251206"><ele>276.0</ele><time>2026-03-22T19:02:06.966Z</time></trkpt><trkpt lat="53.5440973" lon="-1.8251337"><ele>276.0</ele><time>2026-03-22T19:02:07.966Z</time></trkpt><trkpt lat="53.5442378" lon="-1.8251541"><ele>276.0</ele><time>2026-03-22T19:02:08.97Z</time></trkpt><trkpt lat="53.5443752" lon="-1.8251707"><ele>276.0</ele><time>2026-03-22T19:02:09.966Z</time></trkpt><trkpt lat="53.5445024" lon="-1.8251613"><ele>277.0</ele><time>2026-03-22T19:02:10.966Z</time></trkpt><trkpt lat="53.5446214" lon="-1.8251487"><ele>278.0</ele><time>2026-03-22T19:02:11.969Z</time></trkpt><trkpt lat="53.5447375" lon="-1.8251211"><ele>279.0</ele><time>2026-03-22T19:02:12.966Z</time></trkpt><trkpt lat="53.5448372" lon="-1.8250734"><ele>280.0</ele><time>2026-03-22T19:02:13.968Z</time></trkpt><trkpt lat="53.5449254" lon="-1.825016"><ele>281.0</ele><time>2026-03-22T19:02:14.969Z</time></trkpt><trkpt lat="53.5450072" lon="-1.8249565"><ele>282.6666666666667</ele><time>2026-03-22T19:02:15.967Z</time></trkpt><trkpt lat="53.5450758" lon="-1.8249006"><ele>284.33333333333337</ele><time>2026-03-22T19:02:16.969Z</time></trkpt><trkpt lat="53.5451433" lon="-1.8248347"><ele>286.0</ele><time>2026-03-22T19:02:17.971Z</time></trkpt><trkpt lat="53.5452037" lon="-1.8247535"><ele>287.6666666666667</ele><time>2026-03-22T19:02:18.972Z</time></trkpt><trkpt lat="53.5452614" lon="-1.8246634"><ele>289.3333333333333</ele><time>2026-03-22T19:02:19.972Z</time></trkpt><trkpt lat="53.54532" lon="-1.8245669"><ele>291.0</ele><time>2026-03-22T19:02:20.969Z</time></trkpt><trkpt lat="53.5453847" lon="-1.8244919"><ele>291.0</ele><time>2026-03-22T19:02:21.967Z</time></trkpt><trkpt lat="53.5454589" lon="-1.824451"><ele>291.0</ele><time>2026-03-22T19:02:22.969Z</time></trkpt><trkpt lat="53.5455331" lon="-1.8244174"><ele>291.0</ele><time>2026-03-22T19:02:23.968Z</time></trkpt><trkpt lat="53.5456062" lon="-1.824377"><ele>291.0</ele><time>2026-03-22T19:02:24.968Z</time></trkpt><trkpt lat="53.5456778" lon="-1.8243339"><ele>291.0</ele><time>2026-03-22T19:02:25.972Z</time></trkpt><trkpt lat="53.5457528" lon="-1.8242776"><ele>291.0</ele><time>2026-03-22T19:02:26.968Z</time></trkpt><trkpt lat="53.5458297" lon="-1.8241833"><ele>292.6666666666667</ele><time>2026-03-22T19:02:27.967Z</time></trkpt><trkpt lat="53.5459095" lon="-1.8240857"><ele>294.3333333333333</ele><time>2026-03-22T19:02:28.971Z</time></trkpt><trkpt lat="53.5459754" lon="-1.8239825"><ele>296.0</ele><time>2026-03-22T19:02:29.967Z</time></trkpt><trkpt lat="53.5460045" lon="-1.8238487"><ele>297.66666666666663</ele><time>2026-03-22T19:02:30.968Z</time></trkpt><trkpt lat="53.5460057" lon="-1.8236983"><ele>299.3333333333333</ele><time>2026-03-22T19:02:31.968Z</time></trkpt><trkpt lat="53.5459851" lon="-1.8235628"><ele>301.0</ele><time>2026-03-22T19:02:32.972Z</time></trkpt><trkpt lat="53.5459257" lon="-1.8234415"><ele>302.75</ele><time>2026-03-22T19:02:33.971Z</time></trkpt><trkpt lat="53.5458386" lon="-1.8233406"><ele>304.5</ele><time>2026-03-22T19:02:34.975Z</time></trkpt><trkpt lat="53.5457344" lon="-1.8232576"><ele>306.25</ele><time>2026-03-22T19:02:35.971Z</time></trkpt><trkpt lat="53.5456159" lon="-1.8231798"><ele>308.0</ele><time>2026-03-22T19:02:36.967Z</time></trkpt><trkpt lat="53.5454909" lon="-1.8230915"><ele>310.5</ele><time>2026-03-22T19:02:37.97Z</time></trkpt><trkpt lat="53.5453631" lon="-1.8229852"><ele>313.0</ele><time>2026-03-22T19:02:38.972Z</time></trkpt><trkpt lat="53.5452372" lon="-1.8228626"><ele>315.5</ele><time>2026-03-22T19:02:39.967Z</time></trkpt><trkpt lat="53.5451175" lon="-1.8227133"><ele>318.0</ele><time>2026-03-22T19:02:40.967Z</time></trkpt><trkpt lat="53.5449988" lon="-1.8225374"><ele>320.3333333333333</ele><time>2026-03-22T19:02:41.97Z</time></trkpt><trkpt lat="53.5448864" lon="-1.8223464"><ele>322.66666666666663</ele><time>2026-03-22T19:02:42.976Z</time></trkpt><trkpt lat="53.5447771" lon="-1.8221514"><ele>325.0</ele><time>2026-03-22T19:02:43.968Z</time></trkpt><trkpt lat="53.5446717" lon="-1.8219689"><ele>326.2</ele><time>2026-03-22T19:02:44.967Z</time></trkpt><trkpt lat="53.5445777" lon="-1.8218026"><ele>327.4</ele><time>2026-03-22T19:02:45.967Z</time></trkpt><trkpt lat="53.5445074" lon="-1.8216664"><ele>328.6</ele><time>2026-03-22T19:02:46.969Z</time></trkpt><trkpt lat="53.5444555" lon="-1.8215825"><ele>329.8</ele><time>2026-03-22T19:02:47.971Z</time></trkpt><trkpt lat="53.5445182" lon="-1.8214351"><ele>331.0</ele><time>2026-03-22T19:02:50.973Z</time></trkpt><trkpt lat="53.5445978" lon="-1.8214068"><ele>331.0</ele><time>2026-03-22T19:02:51.972Z</time></trkpt><trkpt lat="53.5446873" lon="-1.8213896"><ele>331.0</ele><time>2026-03-22T19:02:52.97Z</time></trkpt><trkpt lat="53.5447993" lon="-1.8213678"><ele>331.0</ele><time>2026-03-22T19:02:53.971Z</time></trkpt><trkpt lat="53.5449432" lon="-1.8213214"><ele>331.0</ele><time>2026-03-22T19:02:54.969Z</time></trkpt><trkpt lat="53.5450976" lon="-1.8212505"><ele>331.0</ele><time>2026-03-22T19:02:55.97Z</time></trkpt><trkpt lat="53.5452639" lon="-1.821166"><ele>331.0</ele><time>2026-03-22T19:02:56.969Z</time></trkpt><trkpt lat="53.5454332" lon="-1.8210711"><ele>331.0</ele><time>2026-03-22T19:02:57.974Z</time></trkpt><trkpt lat="53.5455953" lon="-1.820971"><ele>334.3333333333333</ele><time>2026-03-22T19:02:58.973Z</time></trkpt><trkpt lat="53.545755" lon="-1.8208871"><ele>337.6666666666667</ele><time>2026-03-22T19:02:59.97Z</time></trkpt><trkpt lat="53.5459076" lon="-1.8208141"><ele>341.0</ele><time>2026-03-22T19:03:00.97Z</time></trkpt><trkpt lat="53.5460482" lon="-1.8207537"><ele>341.0</ele><time>2026-03-22T19:03:01.971Z</time></trkpt><trkpt lat="53.5461704" lon="-1.8206907"><ele>341.0</ele><time>2026-03-22T19:03:02.97Z</time></trkpt><trkpt lat="53.5462702" lon="-1.8206117"><ele>341.0</ele><time>2026-03-22T19:03:03.97Z</time></trkpt><trkpt lat="53.546381" lon="-1.8205199"><ele>341.0</ele><time>2026-03-22T19:03:04.969Z</time></trkpt><trkpt lat="53.5464862" lon="-1.8204023"><ele>339.75</ele><time>2026-03-22T19:03:05.968Z</time></trkpt><trkpt lat="53.5465918" lon="-1.8202519"><ele>338.5</ele><time>2026-03-22T19:03:06.969Z</time></trkpt><trkpt lat="53.5467012" lon="-1.8200874"><ele>337.25</ele><time>2026-03-22T19:03:07.97Z</time></trkpt><trkpt lat="53.5468096" lon="-1.8199089"><ele>336.0</ele><time>2026-03-22T19:03:08.971Z</time></trkpt><trkpt lat="53.5469067" lon="-1.8197229"><ele>336.0</ele><time>2026-03-22T19:03:09.971Z</time></trkpt><trkpt lat="53.5469862" lon="-1.8195335"><ele>336.0</ele><time>2026-03-22T19:03:10.972Z</time></trkpt><trkpt lat="53.5470495" lon="-1.8193498"><ele>336.0</ele><time>2026-03-22T19:03:11.973Z</time></trkpt><trkpt lat="53.5470963" lon="-1.8191775"><ele>336.0</ele><time>2026-03-22T19:03:12.974Z</time></trkpt><trkpt lat="53.5471226" lon="-1.8190081"><ele>336.8</ele><time>2026-03-22T19:03:13.976Z</time></trkpt><trkpt lat="53.5471194" lon="-1.8188442"><ele>337.6</ele><time>2026-03-22T19:03:14.974Z</time></trkpt><trkpt lat="53.5470819" lon="-1.8186812"><ele>338.4</ele><time>2026-03-22T19:03:15.974Z</time></trkpt><trkpt lat="53.5470061" lon="-1.8185399"><ele>339.2</ele><time>2026-03-22T19:03:16.971Z</time></trkpt><trkpt lat="53.5469058" lon="-1.8184127"><ele>340.0</ele><time>2026-03-22T19:03:17.965Z</time></trkpt><trkpt lat="53.5467925" lon="-1.8182993"><ele>343.5</ele><time>2026-03-22T19:03:18.975Z</time></trkpt><trkpt lat="53.5466665" lon="-1.8182"><ele>347.0</ele><time>2026-03-22T19:03:19.973Z</time></trkpt><trkpt lat="53.5465392" lon="-1.8180808"><ele>350.5</ele><time>2026-03-22T19:03:20.975Z</time></trkpt><trkpt lat="53.5464132" lon="-1.8179447"><ele>354.0</ele><time>2026-03-22T19:03:21.974Z</time></trkpt><trkpt lat="53.5462849" lon="-1.817789"><ele>357.0</ele><time>2026-03-22T19:03:22.973Z</time></trkpt><trkpt lat="53.5461596" lon="-1.8176163"><ele>360.0</ele><time>2026-03-22T19:03:23.975Z</time></trkpt><trkpt lat="53.5460391" lon="-1.8174393"><ele>363.0</ele><time>2026-03-22T19:03:24.973Z</time></trkpt><trkpt lat="53.5459289" lon="-1.8172599"><ele>363.0</ele><time>2026-03-22T19:03:25.976Z</time></trkpt><trkpt lat="53.5458222" lon="-1.8170889"><ele>363.0</ele><time>2026-03-22T19:03:26.977Z</time></trkpt><trkpt lat="53.5457142" lon="-1.8169286"><ele>363.0</ele><time>2026-03-22T19:03:27.971Z</time></trkpt><trkpt lat="53.5456069" lon="-1.8167738"><ele>363.0</ele><time>2026-03-22T19:03:28.974Z</time></trkpt><trkpt lat="53.5454986" lon="-1.8166179"><ele>362.25</ele><time>2026-03-22T19:03:29.971Z</time></trkpt><trkpt lat="53.5453925" lon="-1.8164668"><ele>361.5</ele><time>2026-03-22T19:03:30.973Z</time></trkpt><trkpt lat="53.545283" lon="-1.8163222"><ele>360.75</ele><time>2026-03-22T19:03:31.972Z</time></trkpt><trkpt lat="53.545172" lon="-1.8161738"><ele>360.0</ele><time>2026-03-22T19:03:32.97Z</time></trkpt><trkpt lat="53.5450614" lon="-1.8160246"><ele>361.0</ele><time>2026-03-22T19:03:33.972Z</time></trkpt><trkpt lat="53.5449487" lon="-1.8158739"><ele>362.0</ele><time>2026-03-22T19:03:34.97Z</time></trkpt><trkpt lat="53.5448334" lon="-1.8157166"><ele>363.0</ele><time>2026-03-22T19:03:35.97Z</time></trkpt><trkpt lat="53.544716" lon="-1.8155531"><ele>364.0</ele><time>2026-03-22T19:03:36.971Z</time></trkpt><trkpt lat="53.5445966" lon="-1.8153846"><ele>366.0</ele><time>2026-03-22T19:03:37.97Z</time></trkpt><trkpt lat="53.5444739" lon="-1.8152178"><ele>368.0</ele><time>2026-03-22T19:03:38.972Z</time></trkpt><trkpt lat="53.5443513" lon="-1.815055"><ele>370.0</ele><time>2026-03-22T19:03:39.97Z</time></trkpt><trkpt lat="53.5442292" lon="-1.8148832"><ele>370.0</ele><time>2026-03-22T19:03:40.972Z</time></trkpt><trkpt lat="53.5441053" lon="-1.8147117"><ele>370.0</ele><time>2026-03-22T19:03:41.973Z</time></trkpt><trkpt lat="53.5439842" lon="-1.8145417"><ele>370.0</ele><time>2026-03-22T19:03:42.973Z</time></trkpt><trkpt lat="53.5438653" lon="-1.8143813"><ele>368.75</ele><time>2026-03-22T19:03:43.974Z</time></trkpt><trkpt lat="53.5437532" lon="-1.8142281"><ele>367.5</ele><time>2026-03-22T19:03:44.974Z</time></trkpt><trkpt lat="53.5436556" lon="-1.8140742"><ele>366.25</ele><time>2026-03-22T19:03:45.973Z</time></trkpt><trkpt lat="53.5435765" lon="-1.813909"><ele>365.0</ele><time>2026-03-22T19:03:46.973Z</time></trkpt><trkpt lat="53.5435169" lon="-1.8137137"><ele>368.33333333333337</ele><time>2026-03-22T19:03:47.973Z</time></trkpt><trkpt lat="53.5434737" lon="-1.8134816"><ele>371.6666666666667</ele><time>2026-03-22T19:03:48.973Z</time></trkpt><trkpt lat="53.5434234" lon="-1.8132338"><ele>375.0</ele><time>2026-03-22T19:03:49.974Z</time></trkpt><trkpt lat="53.5433678" lon="-1.8129721"><ele>375.0</ele><time>2026-03-22T19:03:50.974Z</time></trkpt><trkpt lat="53.5433083" lon="-1.8126965"><ele>375.0</ele><time>2026-03-22T19:03:51.974Z</time></trkpt><trkpt lat="53.5432474" lon="-1.8124241"><ele>375.0</ele><time>2026-03-22T19:03:52.977Z</time></trkpt><trkpt lat="53.5431862" lon="-1.8121607"><ele>374.0</ele><time>2026-03-22T19:03:53.977Z</time></trkpt><trkpt lat="53.543124" lon="-1.8119035"><ele>373.0</ele><time>2026-03-22T19:03:54.973Z</time></trkpt><trkpt lat="53.5430606" lon="-1.8116509"><ele>372.0</ele><time>2026-03-22T19:03:55.974Z</time></trkpt><trkpt lat="53.5429988" lon="-1.8114005"><ele>371.3333333333333</ele><time>2026-03-22T19:03:56.972Z</time></trkpt><trkpt lat="53.5429368" lon="-1.8111573"><ele>370.66666666666663</ele><time>2026-03-22T19:03:57.974Z</time></trkpt><trkpt lat="53.5428751" lon="-1.8109162"><ele>370.0</ele><time>2026-03-22T19:03:58.973Z</time></trkpt><trkpt lat="53.5428164" lon="-1.8106786"><ele>372.25</ele><time>2026-03-22T19:03:59.973Z</time></trkpt><trkpt lat="53.5427556" lon="-1.8104489"><ele>374.5</ele><time>2026-03-22T19:04:00.972Z</time></trkpt><trkpt lat="53.5426927" lon="-1.8102211"><ele>376.75</ele><time>2026-03-22T19:04:01.971Z</time></trkpt><trkpt lat="53.5426305" lon="-1.8099948"><ele>379.0</ele><time>2026-03-22T19:04:02.972Z</time></trkpt><trkpt lat="53.5425735" lon="-1.8097785"><ele>379.0</ele><time>2026-03-22T19:04:03.97Z</time></trkpt><trkpt lat="53.5425185" lon="-1.8095695"><ele>379.0</ele><time>2026-03-22T19:04:04.971Z</time></trkpt><trkpt lat="53.5424681" lon="-1.8093695"><ele>379.0</ele><time>2026-03-22T19:04:05.974Z</time></trkpt><trkpt lat="53.5424248" lon="-1.8091913"><ele>379.0</ele><time>2026-03-22T19:04:06.973Z</time></trkpt><trkpt lat="53.5423904" lon="-1.8090499"><ele>378.2</ele><time>2026-03-22T19:04:07.974Z</time></trkpt><trkpt lat="53.542363" lon="-1.8089451"><ele>377.4</ele><time>2026-03-22T19:04:08.97Z</time></trkpt><trkpt lat="53.5423269" lon="-1.8088287"><ele>376.6</ele><time>2026-03-22T19:04:10.978Z</time></trkpt><trkpt lat="53.5422782" lon="-1.808732"><ele>375.8</ele><time>2026-03-22T19:04:14.98Z</time></trkpt><trkpt lat="53.5422514" lon="-1.8085247"><ele>375.0</ele><time>2026-03-22T19:04:16.979Z</time></trkpt><trkpt lat="53.5422161" lon="-1.8083489"><ele>374.3333333333333</ele><time>2026-03-22T19:04:17.98Z</time></trkpt><trkpt lat="53.5421586" lon="-1.8081205"><ele>373.66666666666663</ele><time>2026-03-22T19:04:18.968Z</time></trkpt><trkpt lat="53.5420895" lon="-1.8078626"><ele>373.0</ele><time>2026-03-22T19:04:19.972Z</time></trkpt><trkpt lat="53.5420173" lon="-1.807589"><ele>374.75</ele><time>2026-03-22T19:04:20.974Z</time></trkpt><trkpt lat="53.5419476" lon="-1.8073318"><ele>376.5</ele><time>2026-03-22T19:04:21.973Z</time></trkpt><trkpt lat="53.5418883" lon="-1.8071008"><ele>378.25</ele><time>2026-03-22T19:04:22.974Z</time></trkpt><trkpt lat="53.5418384" lon="-1.8068954"><ele>380.0</ele><time>2026-03-22T19:04:23.974Z</time></trkpt><trkpt lat="53.5417905" lon="-1.8067012"><ele>380.0</ele><time>2026-03-22T19:04:24.972Z</time></trkpt><trkpt lat="53.5417417" lon="-1.806501"><ele>380.0</ele><time>2026-03-22T19:04:25.972Z</time></trkpt><trkpt lat="53.5416918" lon="-1.8063014"><ele>380.0</ele><time>2026-03-22T19:04:26.973Z</time></trkpt><trkpt lat="53.5416448" lon="-1.8061065"><ele>380.0</ele><time>2026-03-22T19:04:27.975Z</time></trkpt><trkpt lat="53.5416032" lon="-1.805926"><ele>379.5</ele><time>2026-03-22T19:04:28.976Z</time></trkpt><trkpt lat="53.5415651" lon="-1.8057715"><ele>379.0</ele><time>2026-03-22T19:04:29.973Z</time></trkpt><trkpt lat="53.5415296" lon="-1.8056365"><ele>378.5</ele><time>2026-03-22T19:04:30.974Z</time></trkpt><trkpt lat="53.5414936" lon="-1.805525"><ele>378.0</ele><time>2026-03-22T19:04:31.971Z</time></trkpt><trkpt lat="53.5414676" lon="-1.8054279"><ele>377.5</ele><time>2026-03-22T19:04:32.971Z</time></trkpt><trkpt lat="53.5414841" lon="-1.8052776"><ele>377.0</ele><time>2026-03-22T19:04:34.973Z</time></trkpt><trkpt lat="53.5415395" lon="-1.8052256"><ele>377.0</ele><time>2026-03-22T19:04:35.972Z</time></trkpt><trkpt lat="53.5416243" lon="-1.805188"><ele>377.0</ele><time>2026-03-22T19:04:36.972Z</time></trkpt><trkpt lat="53.541736" lon="-1.8051487"><ele>377.0</ele><time>2026-03-22T19:04:37.972Z</time></trkpt><trkpt lat="53.5418581" lon="-1.8050911"><ele>377.0</ele><time>2026-03-22T19:04:38.975Z</time></trkpt><trkpt lat="53.541978" lon="-1.8050313"><ele>375.40000000000003</ele><time>2026-03-22T19:04:39.97Z</time></trkpt><trkpt lat="53.5420835" lon="-1.8049838"><ele>373.8</ele><time>2026-03-22T19:04:40.97Z</time></trkpt><trkpt lat="53.5421769" lon="-1.8049439"><ele>372.2</ele><time>2026-03-22T19:04:41.971Z</time></trkpt><trkpt lat="53.5422698" lon="-1.8049027"><ele>370.6</ele><time>2026-03-22T19:04:42.971Z</time></trkpt><trkpt lat="53.5423647" lon="-1.804867"><ele>369.0</ele><time>2026-03-22T19:04:43.975Z</time></trkpt><trkpt lat="53.5424746" lon="-1.8048192"><ele>369.0</ele><time>2026-03-22T19:04:44.975Z</time></trkpt><trkpt lat="53.5425963" lon="-1.8047551"><ele>369.0</ele><time>2026-03-22T19:04:45.972Z</time></trkpt><trkpt lat="53.542729" lon="-1.8046832"><ele>369.0</ele><time>2026-03-22T19:04:46.974Z</time></trkpt><trkpt lat="53.5428672" lon="-1.8046116"><ele>369.0</ele><time>2026-03-22T19:04:47.973Z</time></trkpt><trkpt lat="53.5430023" lon="-1.8045414"><ele>368.0</ele><time>2026-03-22T19:04:48.971Z</time></trkpt><trkpt lat="53.5431367" lon="-1.8044713"><ele>367.0</ele><time>2026-03-22T19:04:49.971Z</time></trkpt><trkpt lat="53.5432711" lon="-1.8044055"><ele>366.0</ele><time>2026-03-22T19:04:50.972Z</time></trkpt><trkpt lat="53.543402" lon="-1.8043406"><ele>365.0</ele><time>2026-03-22T19:04:51.972Z</time></trkpt><trkpt lat="53.5435295" lon="-1.804283"><ele>365.0</ele><time>2026-03-22T19:04:52.971Z</time></trkpt><trkpt lat="53.5436465" lon="-1.8042337"><ele>365.0</ele><time>2026-03-22T19:04:53.971Z</time></trkpt><trkpt lat="53.5437593" lon="-1.8041923"><ele>365.0</ele><time>2026-03-22T19:04:54.973Z</time></trkpt><trkpt lat="53.5438737" lon="-1.8041466"><ele>365.0</ele><time>2026-03-22T19:04:55.974Z</time></trkpt><trkpt lat="53.5439936" lon="-1.8040964"><ele>363.0</ele><time>2026-03-22T19:04:56.972Z</time></trkpt><trkpt lat="53.5441251" lon="-1.8040323"><ele>361.0</ele><time>2026-03-22T19:04:57.973Z</time></trkpt><trkpt lat="53.5442609" lon="-1.8039625"><ele>359.0</ele><time>2026-03-22T19:04:58.974Z</time></trkpt><trkpt lat="53.5443945" lon="-1.8038907"><ele>357.0</ele><time>2026-03-22T19:04:59.971Z</time></trkpt><trkpt lat="53.5445281" lon="-1.8038139"><ele>355.5</ele><time>2026-03-22T19:05:00.967Z</time></trkpt><trkpt lat="53.5446611" lon="-1.8037255"><ele>354.0</ele><time>2026-03-22T19:05:01.97Z</time></trkpt><trkpt lat="53.5447912" lon="-1.8036589"><ele>352.5</ele><time>2026-03-22T19:05:02.972Z</time></trkpt><trkpt lat="53.5449219" lon="-1.8035925"><ele>351.0</ele><time>2026-03-22T19:05:03.97Z</time></trkpt><trkpt lat="53.5450511" lon="-1.8035266"><ele>350.25</ele><time>2026-03-22T19:05:04.974Z</time></trkpt><trkpt lat="53.545173" lon="-1.8034671"><ele>349.5</ele><time>2026-03-22T19:05:05.973Z</time></trkpt><trkpt lat="53.5452949" lon="-1.8034103"><ele>348.75</ele><time>2026-03-22T19:05:06.972Z</time></trkpt><trkpt lat="53.5454198" lon="-1.8033521"><ele>348.0</ele><time>2026-03-22T19:05:07.971Z</time></trkpt><trkpt lat="53.5455509" lon="-1.8032946"><ele>347.0</ele><time>2026-03-22T19:05:08.973Z</time></trkpt><trkpt lat="53.5456839" lon="-1.8032321"><ele>346.0</ele><time>2026-03-22T19:05:09.973Z</time></trkpt><trkpt lat="53.5458142" lon="-1.8031679"><ele>345.0</ele><time>2026-03-22T19:05:10.973Z</time></trkpt><trkpt lat="53.5459416" lon="-1.8031069"><ele>344.0</ele><time>2026-03-22T19:05:11.974Z</time></trkpt><trkpt lat="53.546069" lon="-1.8030421"><ele>344.0</ele><time>2026-03-22T19:05:12.973Z</time></trkpt><trkpt lat="53.5461987" lon="-1.8029727"><ele>344.0</ele><time>2026-03-22T19:05:13.976Z</time></trkpt><trkpt lat="53.5463311" lon="-1.8029009"><ele>344.0</ele><time>2026-03-22T19:05:14.973Z</time></trkpt><trkpt lat="53.5464726" lon="-1.80283"><ele>344.0</ele><time>2026-03-22T19:05:15.973Z</time></trkpt><trkpt lat="53.546626" lon="-1.8027572"><ele>342.33333333333337</ele><time>2026-03-22T19:05:16.974Z</time></trkpt><trkpt lat="53.5467893" lon="-1.8026815"><ele>340.6666666666667</ele><time>2026-03-22T19:05:17.971Z</time></trkpt><trkpt lat="53.5469591" lon="-1.8026053"><ele>339.0</ele><time>2026-03-22T19:05:18.974Z</time></trkpt><trkpt lat="53.5471218" lon="-1.8025388"><ele>338.6666666666667</ele><time>2026-03-22T19:05:19.974Z</time></trkpt><trkpt lat="53.5472716" lon="-1.8024704"><ele>338.33333333333337</ele><time>2026-03-22T19:05:20.973Z</time></trkpt><trkpt lat="53.5474123" lon="-1.8024006"><ele>338.0</ele><time>2026-03-22T19:05:21.972Z</time></trkpt><trkpt lat="53.5475569" lon="-1.8023351"><ele>338.0</ele><time>2026-03-22T19:05:22.975Z</time></trkpt><trkpt lat="53.5477038" lon="-1.8022455"><ele>338.0</ele><time>2026-03-22T19:05:23.974Z</time></trkpt><trkpt lat="53.5478727" lon="-1.8021585"><ele>338.0</ele><time>2026-03-22T19:05:24.972Z</time></trkpt><trkpt lat="53.5480447" lon="-1.802072"><ele>340.6666666666667</ele><time>2026-03-22T19:05:25.972Z</time></trkpt><trkpt lat="53.5482156" lon="-1.8019902"><ele>343.3333333333333</ele><time>2026-03-22T19:05:26.975Z</time></trkpt><trkpt lat="53.5483935" lon="-1.8019122"><ele>346.0</ele><time>2026-03-22T19:05:27.974Z</time></trkpt><trkpt lat="53.5485689" lon="-1.8018343"><ele>345.3333333333333</ele><time>2026-03-22T19:05:28.974Z</time></trkpt><trkpt lat="53.5487488" lon="-1.8017516"><ele>344.6666666666667</ele><time>2026-03-22T19:05:29.974Z</time></trkpt><trkpt lat="53.5489285" lon="-1.8016589"><ele>344.0</ele><time>2026-03-22T19:05:30.974Z</time></trkpt><trkpt lat="53.5491049" lon="-1.8015694"><ele>344.0</ele><time>2026-03-22T19:05:31.972Z</time></trkpt><trkpt lat="53.5492729" lon="-1.801477"><ele>344.0</ele><time>2026-03-22T19:05:32.973Z</time></trkpt><trkpt lat="53.549429" lon="-1.8013948"><ele>344.0</ele><time>2026-03-22T19:05:33.972Z</time></trkpt><trkpt lat="53.5495734" lon="-1.8013216"><ele>343.6666666666667</ele><time>2026-03-22T19:05:34.973Z</time></trkpt><trkpt lat="53.5497209" lon="-1.8012523"><ele>343.3333333333333</ele><time>2026-03-22T19:05:35.975Z</time></trkpt><trkpt lat="53.5498662" lon="-1.8011866"><ele>343.0</ele><time>2026-03-22T19:05:36.972Z</time></trkpt><trkpt lat="53.5500132" lon="-1.8011159"><ele>343.0</ele><time>2026-03-22T19:05:37.973Z</time></trkpt><trkpt lat="53.5501543" lon="-1.8010456"><ele>343.0</ele><time>2026-03-22T19:05:38.972Z</time></trkpt><trkpt lat="53.5502891" lon="-1.8009774"><ele>343.0</ele><time>2026-03-22T19:05:39.972Z</time></trkpt><trkpt lat="53.5504227" lon="-1.8009137"><ele>343.0</ele><time>2026-03-22T19:05:40.972Z</time></trkpt><trkpt lat="53.5505534" lon="-1.8008476"><ele>341.5</ele><time>2026-03-22T19:05:41.973Z</time></trkpt><trkpt lat="53.5506818" lon="-1.8007823"><ele>340.0</ele><time>2026-03-22T19:05:42.972Z</time></trkpt><trkpt lat="53.5508139" lon="-1.8007146"><ele>338.5</ele><time>2026-03-22T19:05:43.966Z</time></trkpt><trkpt lat="53.5509509" lon="-1.8006495"><ele>337.0</ele><time>2026-03-22T19:05:44.974Z</time></trkpt><trkpt lat="53.5510919" lon="-1.8005839"><ele>336.66666666666663</ele><time>2026-03-22T19:05:45.974Z</time></trkpt><trkpt lat="53.5512345" lon="-1.8005164"><ele>336.3333333333333</ele><time>2026-03-22T19:05:46.974Z</time></trkpt><trkpt lat="53.551382" lon="-1.8004478"><ele>336.0</ele><time>2026-03-22T19:05:47.972Z</time></trkpt><trkpt lat="53.5515309" lon="-1.8003766"><ele>336.0</ele><time>2026-03-22T19:05:48.973Z</time></trkpt><trkpt lat="53.5516836" lon="-1.8003047"><ele>336.0</ele><time>2026-03-22T19:05:49.976Z</time></trkpt><trkpt lat="53.5518361" lon="-1.8002298"><ele>336.0</ele><time>2026-03-22T19:05:50.975Z</time></trkpt><trkpt lat="53.5519873" lon="-1.800156"><ele>334.6666666666667</ele><time>2026-03-22T19:05:51.972Z</time></trkpt><trkpt lat="53.5521407" lon="-1.8000831"><ele>333.33333333333337</ele><time>2026-03-22T19:05:52.974Z</time></trkpt><trkpt lat="53.5522897" lon="-1.8000129"><ele>332.0</ele><time>2026-03-22T19:05:53.976Z</time></trkpt><trkpt lat="53.552431" lon="-1.7999416"><ele>332.0</ele><time>2026-03-22T19:05:54.975Z</time></trkpt><trkpt lat="53.5525686" lon="-1.7998766"><ele>332.0</ele><time>2026-03-22T19:05:55.974Z</time></trkpt><trkpt lat="53.5526975" lon="-1.7998133"><ele>332.0</ele><time>2026-03-22T19:05:56.975Z</time></trkpt><trkpt lat="53.5528241" lon="-1.7997501"><ele>332.0</ele><time>2026-03-22T19:05:57.972Z</time></trkpt><trkpt lat="53.5529469" lon="-1.7996932"><ele>331.5</ele><time>2026-03-22T19:05:58.975Z</time></trkpt><trkpt lat="53.5530522" lon="-1.7996397"><ele>331.0</ele><time>2026-03-22T19:05:59.974Z</time></trkpt><trkpt lat="53.5531606" lon="-1.7995878"><ele>330.5</ele><time>2026-03-22T19:06:00.975Z</time></trkpt><trkpt lat="53.5532762" lon="-1.7995308"><ele>330.0</ele><time>2026-03-22T19:06:01.973Z</time></trkpt><trkpt lat="53.5534105" lon="-1.7994679"><ele>330.0</ele><time>2026-03-22T19:06:02.976Z</time></trkpt><trkpt lat="53.5535725" lon="-1.7993909"><ele>330.0</ele><time>2026-03-22T19:06:03.979Z</time></trkpt><trkpt lat="53.553768" lon="-1.7993057"><ele>330.0</ele><time>2026-03-22T19:06:04.976Z</time></trkpt><trkpt lat="53.5539804" lon="-1.799211"><ele>326.5</ele><time>2026-03-22T19:06:05.975Z</time></trkpt><trkpt lat="53.5542013" lon="-1.7991033"><ele>323.0</ele><time>2026-03-22T19:06:06.974Z</time></trkpt><trkpt lat="53.5544127" lon="-1.7989876"><ele>321.6666666666667</ele><time>2026-03-22T19:06:07.975Z</time></trkpt><trkpt lat="53.554616" lon="-1.7988804"><ele>320.3333333333333</ele><time>2026-03-22T19:06:08.976Z</time></trkpt><trkpt lat="53.5548114" lon="-1.7987829"><ele>319.0</ele><time>2026-03-22T19:06:09.973Z</time></trkpt><trkpt lat="53.5550007" lon="-1.7986849"><ele>319.0</ele><time>2026-03-22T19:06:10.97Z</time></trkpt><trkpt lat="53.5551914" lon="-1.7985855"><ele>319.0</ele><time>2026-03-22T19:06:11.976Z</time></trkpt><trkpt lat="53.5553778" lon="-1.798496"><ele>319.0</ele><time>2026-03-22T19:06:12.975Z</time></trkpt><trkpt lat="53.5555626" lon="-1.7984066"><ele>317.3333333333333</ele><time>2026-03-22T19:06:13.975Z</time></trkpt><trkpt lat="53.5557458" lon="-1.798313"><ele>315.6666666666667</ele><time>2026-03-22T19:06:14.972Z</time></trkpt><trkpt lat="53.5559272" lon="-1.7982216"><ele>314.0</ele><time>2026-03-22T19:06:15.977Z</time></trkpt><trkpt lat="53.556112" lon="-1.798133"><ele>312.33333333333337</ele><time>2026-03-22T19:06:16.974Z</time></trkpt><trkpt lat="53.5562969" lon="-1.7980424"><ele>310.6666666666667</ele><time>2026-03-22T19:06:17.976Z</time></trkpt><trkpt lat="53.5564825" lon="-1.7979529"><ele>309.0</ele><time>2026-03-22T19:06:18.977Z</time></trkpt><trkpt lat="53.5566659" lon="-1.7978676"><ele>309.0</ele><time>2026-03-22T19:06:19.974Z</time></trkpt><trkpt lat="53.5568382" lon="-1.7977873"><ele>309.0</ele><time>2026-03-22T19:06:20.975Z</time></trkpt><trkpt lat="53.5569971" lon="-1.7977136"><ele>309.0</ele><time>2026-03-22T19:06:21.975Z</time></trkpt><trkpt lat="53.5571333" lon="-1.7976511"><ele>309.2</ele><time>2026-03-22T19:06:22.974Z</time></trkpt><trkpt lat="53.5572494" lon="-1.7975982"><ele>309.4</ele><time>2026-03-22T19:06:23.973Z</time></trkpt><trkpt lat="53.5573334" lon="-1.7975582"><ele>309.6</ele><time>2026-03-22T19:06:24.974Z</time></trkpt><trkpt lat="53.5574334" lon="-1.7975073"><ele>309.8</ele><time>2026-03-22T19:06:26.975Z</time></trkpt><trkpt lat="53.5575153" lon="-1.7974598"><ele>310.0</ele><time>2026-03-22T19:06:29.975Z</time></trkpt><trkpt lat="53.5576425" lon="-1.7973947"><ele>310.0</ele><time>2026-03-22T19:06:31.972Z</time></trkpt><trkpt lat="53.5577478" lon="-1.7973394"><ele>310.0</ele><time>2026-03-22T19:06:32.974Z</time></trkpt><trkpt lat="53.5578718" lon="-1.7972759"><ele>310.0</ele><time>2026-03-22T19:06:33.975Z</time></trkpt><trkpt lat="53.5580021" lon="-1.7972027"><ele>310.0</ele><time>2026-03-22T19:06:34.974Z</time></trkpt><trkpt lat="53.5581298" lon="-1.797137"><ele>309.0</ele><time>2026-03-22T19:06:35.978Z</time></trkpt><trkpt lat="53.5582641" lon="-1.7970657"><ele>308.0</ele><time>2026-03-22T19:06:36.976Z</time></trkpt><trkpt lat="53.558385" lon="-1.7970056"><ele>307.0</ele><time>2026-03-22T19:06:37.974Z</time></trkpt><trkpt lat="53.5584877" lon="-1.7969462"><ele>306.0</ele><time>2026-03-22T19:06:38.976Z</time></trkpt><trkpt lat="53.5585607" lon="-1.796894"><ele>305.8</ele><time>2026-03-22T19:06:39.974Z</time></trkpt><trkpt lat="53.5586581" lon="-1.7968356"><ele>305.6</ele><time>2026-03-22T19:06:41.973Z</time></trkpt><trkpt lat="53.5587214" lon="-1.7968084"><ele>305.4</ele><time>2026-03-22T19:06:42.974Z</time></trkpt><trkpt lat="53.5588079" lon="-1.7967678"><ele>305.2</ele><time>2026-03-22T19:06:43.977Z</time></trkpt><trkpt lat="53.5589168" lon="-1.7967178"><ele>305.0</ele><time>2026-03-22T19:06:44.977Z</time></trkpt><trkpt lat="53.559043" lon="-1.7966549"><ele>302.5</ele><time>2026-03-22T19:06:45.975Z</time></trkpt><trkpt lat="53.5591683" lon="-1.796592"><ele>300.0</ele><time>2026-03-22T19:06:46.975Z</time></trkpt><trkpt lat="53.5592918" lon="-1.7965187"><ele>297.5</ele><time>2026-03-22T19:06:47.976Z</time></trkpt><trkpt lat="53.5594123" lon="-1.7964447"><ele>295.0</ele><time>2026-03-22T19:06:48.977Z</time></trkpt><trkpt lat="53.559528" lon="-1.7963729"><ele>292.0</ele><time>2026-03-22T19:06:49.977Z</time></trkpt><trkpt lat="53.5596342" lon="-1.7962996"><ele>289.0</ele><time>2026-03-22T19:06:50.976Z</time></trkpt><trkpt lat="53.5597233" lon="-1.7962106"><ele>286.0</ele><time>2026-03-22T19:06:51.974Z</time></trkpt><trkpt lat="53.5598123" lon="-1.7961021"><ele>283.0</ele><time>2026-03-22T19:06:52.977Z</time></trkpt><trkpt lat="53.559908" lon="-1.7959713"><ele>283.0</ele><time>2026-03-22T19:06:53.975Z</time></trkpt><trkpt lat="53.5600011" lon="-1.7958263"><ele>283.0</ele><time>2026-03-22T19:06:54.975Z</time></trkpt><trkpt lat="53.5601011" lon="-1.7956851"><ele>283.0</ele><time>2026-03-22T19:06:55.978Z</time></trkpt><trkpt lat="53.5602013" lon="-1.7955411"><ele>283.0</ele><time>2026-03-22T19:06:56.975Z</time></trkpt><trkpt lat="53.5603017" lon="-1.795381"><ele>278.3333333333333</ele><time>2026-03-22T19:06:57.972Z</time></trkpt><trkpt lat="53.5604026" lon="-1.7951875"><ele>273.6666666666667</ele><time>2026-03-22T19:06:58.975Z</time></trkpt><trkpt lat="53.5605043" lon="-1.7949713"><ele>269.0</ele><time>2026-03-22T19:06:59.975Z</time></trkpt><trkpt lat="53.5606063" lon="-1.7947445"><ele>269.0</ele><time>2026-03-22T19:07:00.976Z</time></trkpt><trkpt lat="53.560712" lon="-1.7945242"><ele>269.0</ele><time>2026-03-22T19:07:01.975Z</time></trkpt><trkpt lat="53.5608147" lon="-1.7943091"><ele>269.0</ele><time>2026-03-22T19:07:02.973Z</time></trkpt><trkpt lat="53.5609126" lon="-1.7941048"><ele>268.0</ele><time>2026-03-22T19:07:03.976Z</time></trkpt><trkpt lat="53.5610058" lon="-1.7939142"><ele>267.0</ele><time>2026-03-22T19:07:04.976Z</time></trkpt><trkpt lat="53.5611006" lon="-1.7937359"><ele>266.0</ele><time>2026-03-22T19:07:05.975Z</time></trkpt><trkpt lat="53.5611916" lon="-1.7935614"><ele>265.0</ele><time>2026-03-22T19:07:06.973Z</time></trkpt><trkpt lat="53.5612752" lon="-1.7933942"><ele>265.0</ele><time>2026-03-22T19:07:07.98Z</time></trkpt><trkpt lat="53.5613492" lon="-1.7932389"><ele>265.0</ele><time>2026-03-22T19:07:08.978Z</time></trkpt><trkpt lat="53.561424" lon="-1.7930985"><ele>265.0</ele><time>2026-03-22T19:07:09.975Z</time></trkpt><trkpt lat="53.5615034" lon="-1.7929691"><ele>265.0</ele><time>2026-03-22T19:07:10.978Z</time></trkpt><trkpt lat="53.5615886" lon="-1.7928408"><ele>265.0</ele><time>2026-03-22T19:07:11.975Z</time></trkpt><trkpt lat="53.5616776" lon="-1.7927112"><ele>265.0</ele><time>2026-03-22T19:07:12.975Z</time></trkpt><trkpt lat="53.5617701" lon="-1.7925883"><ele>265.0</ele><time>2026-03-22T19:07:13.977Z</time></trkpt><trkpt lat="53.5618601" lon="-1.7924805"><ele>265.0</ele><time>2026-03-22T19:07:14.975Z</time></trkpt><trkpt lat="53.5619434" lon="-1.7923938"><ele>265.0</ele><time>2026-03-22T19:07:15.98Z</time></trkpt><trkpt lat="53.562016" lon="-1.7923323"><ele>262.8333333333333</ele><time>2026-03-22T19:07:16.975Z</time></trkpt><trkpt lat="53.5620899" lon="-1.7922949"><ele>260.66666666666663</ele><time>2026-03-22T19:07:17.976Z</time></trkpt><trkpt lat="53.5621625" lon="-1.7922649"><ele>258.5</ele><time>2026-03-22T19:07:18.976Z</time></trkpt><trkpt lat="53.5622335" lon="-1.7922219"><ele>256.3333333333333</ele><time>2026-03-22T19:07:19.975Z</time></trkpt><trkpt lat="53.5623053" lon="-1.7921551"><ele>254.16666666666666</ele><time>2026-03-22T19:07:20.972Z</time></trkpt><trkpt lat="53.5623884" lon="-1.7920665"><ele>252.0</ele><time>2026-03-22T19:07:21.971Z</time></trkpt><trkpt lat="53.5624812" lon="-1.7919707"><ele>252.0</ele><time>2026-03-22T19:07:22.973Z</time></trkpt><trkpt lat="53.5625784" lon="-1.7918827"><ele>252.0</ele><time>2026-03-22T19:07:23.971Z</time></trkpt><trkpt lat="53.5626733" lon="-1.7917972"><ele>252.0</ele><time>2026-03-22T19:07:24.971Z</time></trkpt><trkpt lat="53.5627681" lon="-1.7916928"><ele>252.0</ele><time>2026-03-22T19:07:25.972Z</time></trkpt><trkpt lat="53.5628618" lon="-1.7915646"><ele>251.75</ele><time>2026-03-22T19:07:26.974Z</time></trkpt><trkpt lat="53.5629564" lon="-1.7914143"><ele>251.5</ele><time>2026-03-22T19:07:27.972Z</time></trkpt><trkpt lat="53.5630496" lon="-1.7912443"><ele>251.25</ele><time>2026-03-22T19:07:28.971Z</time></trkpt><trkpt lat="53.5631356" lon="-1.7910644"><ele>251.0</ele><time>2026-03-22T19:07:29.972Z</time></trkpt><trkpt lat="53.5632082" lon="-1.7909097"><ele>251.00000000000003</ele><time>2026-03-22T19:07:30.975Z</time></trkpt><trkpt lat="53.5632736" lon="-1.7907949"><ele>251.0</ele><time>2026-03-22T19:07:31.971Z</time></trkpt><trkpt lat="53.5633356" lon="-1.7907091"><ele>251.0</ele><time>2026-03-22T19:07:32.973Z</time></trkpt><trkpt lat="53.5634436" lon="-1.7906489"><ele>251.0</ele><time>2026-03-22T19:07:34.977Z</time></trkpt><trkpt lat="53.5635095" lon="-1.7906557"><ele>251.00000000000003</ele><time>2026-03-22T19:07:35.977Z</time></trkpt><trkpt lat="53.5635784" lon="-1.7906566"><ele>251.0</ele><time>2026-03-22T19:07:36.971Z</time></trkpt><trkpt lat="53.5636402" lon="-1.7906198"><ele>248.0</ele><time>2026-03-22T19:07:37.971Z</time></trkpt><trkpt lat="53.5637096" lon="-1.7905469"><ele>245.0</ele><time>2026-03-22T19:07:38.972Z</time></trkpt><trkpt lat="53.5637974" lon="-1.7904267"><ele>242.0</ele><time>2026-03-22T19:07:39.972Z</time></trkpt><trkpt lat="53.5639081" lon="-1.7902702"><ele>239.0</ele><time>2026-03-22T19:07:40.971Z</time></trkpt><trkpt lat="53.5640191" lon="-1.7900915"><ele>239.0</ele><time>2026-03-22T19:07:41.969Z</time></trkpt><trkpt lat="53.5641246" lon="-1.789918"><ele>239.0</ele><time>2026-03-22T19:07:42.969Z</time></trkpt><trkpt lat="53.5642182" lon="-1.7897557"><ele>239.0</ele><time>2026-03-22T19:07:43.974Z</time></trkpt><trkpt lat="53.5643049" lon="-1.7896022"><ele>239.0</ele><time>2026-03-22T19:07:44.972Z</time></trkpt><trkpt lat="53.5643836" lon="-1.7894536"><ele>240.5</ele><time>2026-03-22T19:07:45.974Z</time></trkpt><trkpt lat="53.5644663" lon="-1.7893161"><ele>242.0</ele><time>2026-03-22T19:07:46.973Z</time></trkpt><trkpt lat="53.5645555" lon="-1.7891922"><ele>243.5</ele><time>2026-03-22T19:07:47.973Z</time></trkpt><trkpt lat="53.5646478" lon="-1.7890789"><ele>245.0</ele><time>2026-03-22T19:07:48.973Z</time></trkpt><trkpt lat="53.5647375" lon="-1.7889685"><ele>243.2</ele><time>2026-03-22T19:07:49.973Z</time></trkpt><trkpt lat="53.5648233" lon="-1.7888652"><ele>241.4</ele><time>2026-03-22T19:07:50.964Z</time></trkpt><trkpt lat="53.5649116" lon="-1.7887717"><ele>239.60000000000002</ele><time>2026-03-22T19:07:51.967Z</time></trkpt><trkpt lat="53.5650085" lon="-1.7886753"><ele>237.8</ele><time>2026-03-22T19:07:52.967Z</time></trkpt><trkpt lat="53.5651134" lon="-1.7885633"><ele>236.0</ele><time>2026-03-22T19:07:53.975Z</time></trkpt><trkpt lat="53.5652138" lon="-1.7884324"><ele>236.0</ele><time>2026-03-22T19:07:54.97Z</time></trkpt><trkpt lat="53.5653095" lon="-1.7882975"><ele>236.0</ele><time>2026-03-22T19:07:55.973Z</time></trkpt><trkpt lat="53.5654084" lon="-1.7881571"><ele>236.0</ele><time>2026-03-22T19:07:56.972Z</time></trkpt><trkpt lat="53.5655073" lon="-1.7880099"><ele>236.0</ele><time>2026-03-22T19:07:57.973Z</time></trkpt><trkpt lat="53.5656023" lon="-1.7878595"><ele>233.0</ele><time>2026-03-22T19:07:58.974Z</time></trkpt><trkpt lat="53.5656891" lon="-1.7877129"><ele>230.00000000000003</ele><time>2026-03-22T19:07:59.972Z</time></trkpt><trkpt lat="53.5657665" lon="-1.7875678"><ele>227.00000000000003</ele><time>2026-03-22T19:08:00.973Z</time></trkpt><trkpt lat="53.5658311" lon="-1.7874255"><ele>224.0</ele><time>2026-03-22T19:08:01.972Z</time></trkpt><trkpt lat="53.5658789" lon="-1.7873017"><ele>221.0</ele><time>2026-03-22T19:08:02.973Z</time></trkpt><trkpt lat="53.5659023" lon="-1.7871924"><ele>221.0</ele><time>2026-03-22T19:08:03.974Z</time></trkpt><trkpt lat="53.5658582" lon="-1.7870132"><ele>221.00000000000003</ele><time>2026-03-22T19:08:05.976Z</time></trkpt><trkpt lat="53.5658172" lon="-1.7868189"><ele>221.00000000000003</ele><time>2026-03-22T19:08:07.975Z</time></trkpt><trkpt lat="53.5658361" lon="-1.7866523"><ele>221.0</ele><time>2026-03-22T19:08:09.977Z</time></trkpt><trkpt lat="53.5658856" lon="-1.7865454"><ele>221.0</ele><time>2026-03-22T19:08:11.974Z</time></trkpt><trkpt lat="53.5658555" lon="-1.7864297"><ele>221.00000000000003</ele><time>2026-03-22T19:08:17.98Z</time></trkpt><trkpt lat="53.5657651" lon="-1.7863638"><ele>221.0</ele><time>2026-03-22T19:08:19.979Z</time></trkpt><trkpt lat="53.5657077" lon="-1.7863196"><ele>221.0</ele><time>2026-03-22T19:08:20.98Z</time></trkpt><trkpt lat="53.5656415" lon="-1.7862759"><ele>221.0</ele><time>2026-03-22T19:08:21.979Z</time></trkpt><trkpt lat="53.5655736" lon="-1.7862322"><ele>221.00000000000003</ele><time>2026-03-22T19:08:22.978Z</time></trkpt><trkpt lat="53.5655098" lon="-1.7861883"><ele>221.0</ele><time>2026-03-22T19:08:23.98Z</time></trkpt><trkpt lat="53.565401" lon="-1.7861122"><ele>220.50000000000003</ele><time>2026-03-22T19:08:25.978Z</time></trkpt><trkpt lat="53.5653436" lon="-1.7860655"><ele>220.0</ele><time>2026-03-22T19:08:26.976Z</time></trkpt><trkpt lat="53.565283" lon="-1.7860143"><ele>219.5</ele><time>2026-03-22T19:08:27.975Z</time></trkpt><trkpt lat="53.5652227" lon="-1.7859459"><ele>219.0</ele><time>2026-03-22T19:08:28.976Z</time></trkpt><trkpt lat="53.5651633" lon="-1.7858904"><ele>218.50000000000003</ele><time>2026-03-22T19:08:29.978Z</time></trkpt><trkpt lat="53.5650509" lon="-1.7858024"><ele>218.0</ele><time>2026-03-22T19:08:31.976Z</time></trkpt><trkpt lat="53.5649903" lon="-1.7857642"><ele>218.00000000000003</ele><time>2026-03-22T19:08:32.984Z</time></trkpt><trkpt lat="53.5649253" lon="-1.785722"><ele>218.0</ele><time>2026-03-22T19:08:33.983Z</time></trkpt><trkpt lat="53.5648105" lon="-1.7857151"><ele>218.0</ele><time>2026-03-22T19:08:35.981Z</time></trkpt><trkpt lat="53.5647398" lon="-1.7857679"><ele>218.0</ele><time>2026-03-22T19:08:37.978Z</time></trkpt><trkpt lat="53.564719" lon="-1.7856645"><ele>218.00000000000003</ele><time>2026-03-22T19:09:07.976Z</time></trkpt><trkpt lat="53.5648213" lon="-1.7855919"><ele>218.0</ele><time>2026-03-22T19:09:10.974Z</time></trkpt><trkpt lat="53.5649147" lon="-1.7855217"><ele>218.0</ele><time>2026-03-22T19:09:12.973Z</time></trkpt><trkpt lat="53.5650347" lon="-1.7854479"><ele>218.0</ele><time>2026-03-22T19:09:14.973Z</time></trkpt><trkpt lat="53.5651172" lon="-1.7854063"><ele>218.0</ele><time>2026-03-22T19:09:15.971Z</time></trkpt><trkpt lat="53.5652095" lon="-1.7853769"><ele>218.0</ele><time>2026-03-22T19:09:16.971Z</time></trkpt><trkpt lat="53.5653103" lon="-1.7853696"><ele>218.0</ele><time>2026-03-22T19:09:17.976Z</time></trkpt><trkpt lat="53.5654107" lon="-1.7853672"><ele>217.4</ele><time>2026-03-22T19:09:18.973Z</time></trkpt><trkpt lat="53.5655157" lon="-1.7853632"><ele>216.8</ele><time>2026-03-22T19:09:19.971Z</time></trkpt><trkpt lat="53.56562" lon="-1.7853301"><ele>216.2</ele><time>2026-03-22T19:09:20.974Z</time></trkpt><trkpt lat="53.5657185" lon="-1.7852628"><ele>215.6</ele><time>2026-03-22T19:09:21.971Z</time></trkpt><trkpt lat="53.5658148" lon="-1.7851773"><ele>215.0</ele><time>2026-03-22T19:09:22.973Z</time></trkpt><trkpt lat="53.5659174" lon="-1.7851001"><ele>213.6</ele><time>2026-03-22T19:09:23.974Z</time></trkpt><trkpt lat="53.566022" lon="-1.7850368"><ele>212.2</ele><time>2026-03-22T19:09:24.974Z</time></trkpt><trkpt lat="53.5661195" lon="-1.7849901"><ele>210.8</ele><time>2026-03-22T19:09:25.975Z</time></trkpt><trkpt lat="53.5662073" lon="-1.7849584"><ele>209.4</ele><time>2026-03-22T19:09:26.975Z</time></trkpt><trkpt lat="53.5662936" lon="-1.7849419"><ele>208.0</ele><time>2026-03-22T19:09:27.973Z</time></trkpt><trkpt lat="53.5663751" lon="-1.784977"><ele>207.8</ele><time>2026-03-22T19:09:28.973Z</time></trkpt><trkpt lat="53.5664543" lon="-1.7850468"><ele>207.60000000000002</ele><time>2026-03-22T19:09:29.972Z</time></trkpt><trkpt lat="53.5665379" lon="-1.7851403"><ele>207.39999999999998</ele><time>2026-03-22T19:09:30.973Z</time></trkpt><trkpt lat="53.5666193" lon="-1.7852569"><ele>207.2</ele><time>2026-03-22T19:09:31.973Z</time></trkpt><trkpt lat="53.5666951" lon="-1.7853827"><ele>207.0</ele><time>2026-03-22T19:09:32.975Z</time></trkpt><trkpt lat="53.5667699" lon="-1.7855283"><ele>207.0</ele><time>2026-03-22T19:09:33.974Z</time></trkpt><trkpt lat="53.5668431" lon="-1.7856783"><ele>207.0</ele><time>2026-03-22T19:09:34.973Z</time></trkpt><trkpt lat="53.5669131" lon="-1.7858258"><ele>207.0</ele><time>2026-03-22T19:09:35.978Z</time></trkpt><trkpt lat="53.5669879" lon="-1.7859521"><ele>207.0</ele><time>2026-03-22T19:09:36.98Z</time></trkpt><trkpt lat="53.5670673" lon="-1.7860636"><ele>207.0</ele><time>2026-03-22T19:09:37.979Z</time></trkpt><trkpt lat="53.5671475" lon="-1.7861677"><ele>204.5</ele><time>2026-03-22T19:09:38.982Z</time></trkpt><trkpt lat="53.5672243" lon="-1.7862619"><ele>202.0</ele><time>2026-03-22T19:09:39.973Z</time></trkpt><trkpt lat="53.5672922" lon="-1.7863596"><ele>199.5</ele><time>2026-03-22T19:09:40.976Z</time></trkpt><trkpt lat="53.5673571" lon="-1.7864563"><ele>197.0</ele><time>2026-03-22T19:09:41.979Z</time></trkpt><trkpt lat="53.5674108" lon="-1.7865483"><ele>194.5</ele><time>2026-03-22T19:09:42.977Z</time></trkpt><trkpt lat="53.5674531" lon="-1.7866328"><ele>192.0</ele><time>2026-03-22T19:09:43.979Z</time></trkpt><trkpt lat="53.5675327" lon="-1.7867688"><ele>192.0</ele><time>2026-03-22T19:09:45.972Z</time></trkpt><trkpt lat="53.567647" lon="-1.7867832"><ele>192.0</ele><time>2026-03-22T19:09:47.972Z</time></trkpt><trkpt lat="53.5677309" lon="-1.7867677"><ele>192.0</ele><time>2026-03-22T19:09:48.973Z</time></trkpt><trkpt lat="53.5678121" lon="-1.7867455"><ele>192.0</ele><time>2026-03-22T19:09:49.973Z</time></trkpt><trkpt lat="53.5678934" lon="-1.7867456"><ele>192.0</ele><time>2026-03-22T19:09:50.974Z</time></trkpt><trkpt lat="53.5679684" lon="-1.7867652"><ele>192.0</ele><time>2026-03-22T19:09:51.974Z</time></trkpt><trkpt lat="53.5680279" lon="-1.7868164"><ele>189.5</ele><time>2026-03-22T19:09:52.979Z</time></trkpt><trkpt lat="53.5680851" lon="-1.7869078"><ele>187.0</ele><time>2026-03-22T19:09:53.98Z</time></trkpt><trkpt lat="53.5681329" lon="-1.7870303"><ele>184.5</ele><time>2026-03-22T19:09:54.975Z</time></trkpt><trkpt lat="53.5681681" lon="-1.7871649"><ele>182.0</ele><time>2026-03-22T19:09:55.977Z</time></trkpt><trkpt lat="53.5682019" lon="-1.7872947"><ele>179.5</ele><time>2026-03-22T19:09:56.972Z</time></trkpt><trkpt lat="53.5682361" lon="-1.7874258"><ele>177.0</ele><time>2026-03-22T19:09:57.974Z</time></trkpt><trkpt lat="53.5682682" lon="-1.787554"><ele>177.0</ele><time>2026-03-22T19:09:58.973Z</time></trkpt><trkpt lat="53.5683019" lon="-1.7876712"><ele>177.0</ele><time>2026-03-22T19:09:59.973Z</time></trkpt><trkpt lat="53.5683396" lon="-1.7877812"><ele>177.0</ele><time>2026-03-22T19:10:00.973Z</time></trkpt><trkpt lat="53.5683854" lon="-1.7878822"><ele>177.0</ele><time>2026-03-22T19:10:01.973Z</time></trkpt><trkpt lat="53.5684372" lon="-1.7879746"><ele>177.0</ele><time>2026-03-22T19:10:02.973Z</time></trkpt><trkpt lat="53.5685019" lon="-1.7880389"><ele>177.0</ele><time>2026-03-22T19:10:03.972Z</time></trkpt><trkpt lat="53.5685719" lon="-1.7880777"><ele>175.66666666666666</ele><time>2026-03-22T19:10:04.972Z</time></trkpt><trkpt lat="53.5686533" lon="-1.7880878"><ele>174.33333333333334</ele><time>2026-03-22T19:10:05.973Z</time></trkpt><trkpt lat="53.5687353" lon="-1.7880813"><ele>173.0</ele><time>2026-03-22T19:10:06.973Z</time></trkpt><trkpt lat="53.5688161" lon="-1.7880778"><ele>171.66666666666669</ele><time>2026-03-22T19:10:07.974Z</time></trkpt><trkpt lat="53.5688948" lon="-1.7880649"><ele>170.33333333333334</ele><time>2026-03-22T19:10:08.973Z</time></trkpt><trkpt lat="53.5689707" lon="-1.7880298"><ele>169.0</ele><time>2026-03-22T19:10:09.973Z</time></trkpt><trkpt lat="53.5690429" lon="-1.7879553"><ele>167.6</ele><time>2026-03-22T19:10:10.973Z</time></trkpt><trkpt lat="53.5691017" lon="-1.787842"><ele>166.2</ele><time>2026-03-22T19:10:11.971Z</time></trkpt><trkpt lat="53.5691665" lon="-1.787726"><ele>164.79999999999998</ele><time>2026-03-22T19:10:12.972Z</time></trkpt><trkpt lat="53.5692337" lon="-1.7876143"><ele>163.39999999999998</ele><time>2026-03-22T19:10:13.978Z</time></trkpt><trkpt lat="53.5693047" lon="-1.7875178"><ele>162.0</ele><time>2026-03-22T19:10:14.972Z</time></trkpt><trkpt lat="53.5693695" lon="-1.7874268"><ele>162.0</ele><time>2026-03-22T19:10:15.97Z</time></trkpt><trkpt lat="53.5694287" lon="-1.7873435"><ele>162.0</ele><time>2026-03-22T19:10:16.974Z</time></trkpt><trkpt lat="53.5694826" lon="-1.7872682"><ele>162.0</ele><time>2026-03-22T19:10:17.973Z</time></trkpt><trkpt lat="53.569567" lon="-1.78714"><ele>162.0</ele><time>2026-03-22T19:10:19.971Z</time></trkpt><trkpt lat="53.5696329" lon="-1.7870262"><ele>162.0</ele><time>2026-03-22T19:10:21.976Z</time></trkpt><trkpt lat="53.5696744" lon="-1.7869199"><ele>162.0</ele><time>2026-03-22T19:10:23.976Z</time></trkpt><trkpt lat="53.5696776" lon="-1.7868109"><ele>159.4</ele><time>2026-03-22T19:10:26.973Z</time></trkpt><trkpt lat="53.5697494" lon="-1.7867343"><ele>156.79999999999998</ele><time>2026-03-22T19:10:30.971Z</time></trkpt><trkpt lat="53.5698445" lon="-1.7867085"><ele>154.2</ele><time>2026-03-22T19:10:33.971Z</time></trkpt><trkpt lat="53.5699396" lon="-1.7868607"><ele>151.6</ele><time>2026-03-22T19:10:35.971Z</time></trkpt><trkpt lat="53.5699797" lon="-1.7869523"><ele>149.0</ele><time>2026-03-22T19:10:36.974Z</time></trkpt><trkpt lat="53.5700519" lon="-1.7871114"><ele>149.0</ele><time>2026-03-22T19:10:38.973Z</time></trkpt><trkpt lat="53.5701195" lon="-1.787229"><ele>149.0</ele><time>2026-03-22T19:10:40.974Z</time></trkpt><trkpt lat="53.5701802" lon="-1.7873325"><ele>149.0</ele><time>2026-03-22T19:10:42.971Z</time></trkpt><trkpt lat="53.5702283" lon="-1.7874558"><ele>149.0</ele><time>2026-03-22T19:10:51.971Z</time></trkpt><trkpt lat="53.5702871" lon="-1.7875077"><ele>149.0</ele><time>2026-03-22T19:10:52.969Z</time></trkpt><trkpt lat="53.5703672" lon="-1.787537"><ele>149.0</ele><time>2026-03-22T19:10:53.969Z</time></trkpt><trkpt lat="53.5704699" lon="-1.7875196"><ele>150.5</ele><time>2026-03-22T19:10:54.969Z</time></trkpt><trkpt lat="53.5705933" lon="-1.7874526"><ele>152.0</ele><time>2026-03-22T19:10:55.972Z</time></trkpt><trkpt lat="53.5707185" lon="-1.7873601"><ele>153.5</ele><time>2026-03-22T19:10:56.973Z</time></trkpt><trkpt lat="53.5708541" lon="-1.7872488"><ele>155.0</ele><time>2026-03-22T19:10:57.971Z</time></trkpt><trkpt lat="53.570979" lon="-1.7871305"><ele>155.0</ele><time>2026-03-22T19:10:58.973Z</time></trkpt><trkpt lat="53.5710948" lon="-1.7870125"><ele>155.0</ele><time>2026-03-22T19:10:59.972Z</time></trkpt><trkpt lat="53.5712045" lon="-1.7868917"><ele>155.0</ele><time>2026-03-22T19:11:00.97Z</time></trkpt><trkpt lat="53.5713119" lon="-1.7868032"><ele>155.0</ele><time>2026-03-22T19:11:01.969Z</time></trkpt><trkpt lat="53.5714153" lon="-1.786722"><ele>154.5</ele><time>2026-03-22T19:11:02.969Z</time></trkpt><trkpt lat="53.571517" lon="-1.7866419"><ele>154.0</ele><time>2026-03-22T19:11:03.971Z</time></trkpt><trkpt lat="53.5716185" lon="-1.7865632"><ele>153.5</ele><time>2026-03-22T19:11:04.968Z</time></trkpt><trkpt lat="53.571719" lon="-1.7864776"><ele>153.0</ele><time>2026-03-22T19:11:05.97Z</time></trkpt><trkpt lat="53.5718219" lon="-1.7863911"><ele>153.0</ele><time>2026-03-22T19:11:06.972Z</time></trkpt><trkpt lat="53.5719274" lon="-1.7863072"><ele>153.0</ele><time>2026-03-22T19:11:07.971Z</time></trkpt><trkpt lat="53.5720284" lon="-1.7862318"><ele>153.0</ele><time>2026-03-22T19:11:08.977Z</time></trkpt><trkpt lat="53.5721203" lon="-1.7861672"><ele>153.0</ele><time>2026-03-22T19:11:09.971Z</time></trkpt><trkpt lat="53.5722064" lon="-1.7861195"><ele>153.0</ele><time>2026-03-22T19:11:10.973Z</time></trkpt><trkpt lat="53.5722874" lon="-1.7860729"><ele>152.33333333333334</ele><time>2026-03-22T19:11:11.97Z</time></trkpt><trkpt lat="53.5723665" lon="-1.7860242"><ele>151.66666666666666</ele><time>2026-03-22T19:11:12.97Z</time></trkpt><trkpt lat="53.5724396" lon="-1.7859693"><ele>151.0</ele><time>2026-03-22T19:11:13.969Z</time></trkpt><trkpt lat="53.5725048" lon="-1.7859179"><ele>150.33333333333331</ele><time>2026-03-22T19:11:14.968Z</time></trkpt><trkpt lat="53.5725637" lon="-1.7858692"><ele>149.66666666666666</ele><time>2026-03-22T19:11:15.973Z</time></trkpt><trkpt lat="53.572622" lon="-1.7858164"><ele>149.0</ele><time>2026-03-22T19:11:16.972Z</time></trkpt><trkpt lat="53.5727262" lon="-1.7857015"><ele>149.0</ele><time>2026-03-22T19:11:18.971Z</time></trkpt><trkpt lat="53.5728144" lon="-1.7855781"><ele>149.0</ele><time>2026-03-22T19:11:20.971Z</time></trkpt><trkpt lat="53.5728866" lon="-1.7855176"><ele>149.0</ele><time>2026-03-22T19:11:22.972Z</time></trkpt><trkpt lat="53.5729511" lon="-1.7854683"><ele>149.0</ele><time>2026-03-22T19:11:25.968Z</time></trkpt><trkpt lat="53.5730309" lon="-1.7854027"><ele>149.0</ele><time>2026-03-22T19:11:26.972Z</time></trkpt><trkpt lat="53.5731644" lon="-1.785295"><ele>148.0</ele><time>2026-03-22T19:11:27.969Z</time></trkpt><trkpt lat="53.5733164" lon="-1.785181"><ele>147.0</ele><time>2026-03-22T19:11:28.972Z</time></trkpt><trkpt lat="53.5734768" lon="-1.7850853"><ele>146.0</ele><time>2026-03-22T19:11:29.973Z</time></trkpt><trkpt lat="53.5736406" lon="-1.7850287"><ele>145.75</ele><time>2026-03-22T19:11:30.971Z</time></trkpt><trkpt lat="53.5737961" lon="-1.7850141"><ele>145.5</ele><time>2026-03-22T19:11:31.973Z</time></trkpt><trkpt lat="53.5739453" lon="-1.785013"><ele>145.25</ele><time>2026-03-22T19:11:32.972Z</time></trkpt><trkpt lat="53.5740857" lon="-1.7850457"><ele>145.0</ele><time>2026-03-22T19:11:33.97Z</time></trkpt><trkpt lat="53.5742275" lon="-1.7851031"><ele>145.0</ele><time>2026-03-22T19:11:34.972Z</time></trkpt><trkpt lat="53.5743792" lon="-1.7851744"><ele>145.0</ele><time>2026-03-22T19:11:35.972Z</time></trkpt><trkpt lat="53.5745322" lon="-1.7852528"><ele>145.0</ele><time>2026-03-22T19:11:36.974Z</time></trkpt><trkpt lat="53.5746864" lon="-1.7853257"><ele>147.66666666666669</ele><time>2026-03-22T19:11:37.972Z</time></trkpt><trkpt lat="53.574844" lon="-1.7853688"><ele>150.33333333333334</ele><time>2026-03-22T19:11:38.973Z</time></trkpt><trkpt lat="53.5749929" lon="-1.7853676"><ele>153.0</ele><time>2026-03-22T19:11:39.971Z</time></trkpt><trkpt lat="53.5751343" lon="-1.785326"><ele>153.0</ele><time>2026-03-22T19:11:40.97Z</time></trkpt><trkpt lat="53.5752719" lon="-1.7852503"><ele>153.0</ele><time>2026-03-22T19:11:41.971Z</time></trkpt><trkpt lat="53.5754125" lon="-1.7851663"><ele>153.0</ele><time>2026-03-22T19:11:42.972Z</time></trkpt><trkpt lat="53.5755524" lon="-1.7850816"><ele>153.0</ele><time>2026-03-22T19:11:43.972Z</time></trkpt><trkpt lat="53.5756906" lon="-1.7850036"><ele>151.25</ele><time>2026-03-22T19:11:44.971Z</time></trkpt><trkpt lat="53.5758271" lon="-1.7849264"><ele>149.5</ele><time>2026-03-22T19:11:45.976Z</time></trkpt><trkpt lat="53.5759552" lon="-1.7848469"><ele>147.75</ele><time>2026-03-22T19:11:46.974Z</time></trkpt><trkpt lat="53.5760735" lon="-1.7847697"><ele>146.0</ele><time>2026-03-22T19:11:47.975Z</time></trkpt><trkpt lat="53.5761791" lon="-1.7846983"><ele>146.33333333333331</ele><time>2026-03-22T19:11:48.974Z</time></trkpt><trkpt lat="53.5762645" lon="-1.7846322"><ele>146.66666666666666</ele><time>2026-03-22T19:11:49.973Z</time></trkpt><trkpt lat="53.5763262" lon="-1.784577"><ele>147.0</ele><time>2026-03-22T19:11:50.973Z</time></trkpt><trkpt lat="53.5764232" lon="-1.7845215"><ele>147.33333333333334</ele><time>2026-03-22T19:11:52.974Z</time></trkpt><trkpt lat="53.5764699" lon="-1.784613"><ele>147.66666666666669</ele><time>2026-03-22T19:11:54.975Z</time></trkpt><trkpt lat="53.5764934" lon="-1.7847396"><ele>148.0</ele><time>2026-03-22T19:11:55.968Z</time></trkpt><trkpt lat="53.5765207" lon="-1.7849079"><ele>148.0</ele><time>2026-03-22T19:11:56.973Z</time></trkpt><trkpt lat="53.576551" lon="-1.7850979"><ele>148.0</ele><time>2026-03-22T19:11:57.974Z</time></trkpt><trkpt lat="53.5765928" lon="-1.7852922"><ele>148.0</ele><time>2026-03-22T19:11:58.976Z</time></trkpt><trkpt lat="53.5766447" lon="-1.7854916"><ele>148.0</ele><time>2026-03-22T19:11:59.974Z</time></trkpt><trkpt lat="53.5767293" lon="-1.7857017"><ele>149.0</ele><time>2026-03-22T19:12:00.981Z</time></trkpt><trkpt lat="53.5768399" lon="-1.7858758"><ele>150.0</ele><time>2026-03-22T19:12:01.979Z</time></trkpt><trkpt lat="53.5769663" lon="-1.7860293"><ele>151.0</ele><time>2026-03-22T19:12:02.974Z</time></trkpt><trkpt lat="53.5771167" lon="-1.7861449"><ele>154.33333333333334</ele><time>2026-03-22T19:12:03.979Z</time></trkpt><trkpt lat="53.5772583" lon="-1.7862362"><ele>157.66666666666666</ele><time>2026-03-22T19:12:04.985Z</time></trkpt><trkpt lat="53.5774077" lon="-1.7863159"><ele>161.0</ele><time>2026-03-22T19:12:05.979Z</time></trkpt><trkpt lat="53.577559" lon="-1.7864016"><ele>161.0</ele><time>2026-03-22T19:12:06.978Z</time></trkpt><trkpt lat="53.5777053" lon="-1.7864859"><ele>161.0</ele><time>2026-03-22T19:12:07.978Z</time></trkpt><trkpt lat="53.5778474" lon="-1.7865633"><ele>161.0</ele><time>2026-03-22T19:12:08.979Z</time></trkpt><trkpt lat="53.5779828" lon="-1.7866364"><ele>161.0</ele><time>2026-03-22T19:12:09.981Z</time></trkpt><trkpt lat="53.5781219" lon="-1.7867093"><ele>162.5</ele><time>2026-03-22T19:12:10.974Z</time></trkpt><trkpt lat="53.578258" lon="-1.7867751"><ele>164.0</ele><time>2026-03-22T19:12:11.973Z</time></trkpt><trkpt lat="53.5783959" lon="-1.7868389"><ele>165.5</ele><time>2026-03-22T19:12:12.973Z</time></trkpt><trkpt lat="53.5785325" lon="-1.7869045"><ele>167.0</ele><time>2026-03-22T19:12:13.977Z</time></trkpt><trkpt lat="53.578669" lon="-1.7869743"><ele>171.5</ele><time>2026-03-22T19:12:14.973Z</time></trkpt><trkpt lat="53.5788089" lon="-1.7870393"><ele>176.0</ele><time>2026-03-22T19:12:15.972Z</time></trkpt><trkpt lat="53.5789471" lon="-1.7870992"><ele>180.5</ele><time>2026-03-22T19:12:16.973Z</time></trkpt><trkpt lat="53.5790767" lon="-1.7871539"><ele>185.0</ele><time>2026-03-22T19:12:17.97Z</time></trkpt><trkpt lat="53.5792044" lon="-1.7872088"><ele>185.0</ele><time>2026-03-22T19:12:18.971Z</time></trkpt><trkpt lat="53.5793377" lon="-1.7872725"><ele>185.0</ele><time>2026-03-22T19:12:19.973Z</time></trkpt><trkpt lat="53.5794804" lon="-1.7873465"><ele>185.0</ele><time>2026-03-22T19:12:20.973Z</time></trkpt><trkpt lat="53.5796172" lon="-1.7874243"><ele>185.0</ele><time>2026-03-22T19:12:21.971Z</time></trkpt><trkpt lat="53.5797448" lon="-1.7874834"><ele>185.25</ele><time>2026-03-22T19:12:22.972Z</time></trkpt><trkpt lat="53.579881" lon="-1.7875568"><ele>185.5</ele><time>2026-03-22T19:12:23.973Z</time></trkpt><trkpt lat="53.5800242" lon="-1.7876294"><ele>185.75</ele><time>2026-03-22T19:12:24.974Z</time></trkpt><trkpt lat="53.5801669" lon="-1.7876981"><ele>186.0</ele><time>2026-03-22T19:12:25.975Z</time></trkpt><trkpt lat="53.5803091" lon="-1.7877655"><ele>188.0</ele><time>2026-03-22T19:12:26.975Z</time></trkpt><trkpt lat="53.5804546" lon="-1.7878283"><ele>190.0</ele><time>2026-03-22T19:12:27.973Z</time></trkpt><trkpt lat="53.580602" lon="-1.7878896"><ele>192.0</ele><time>2026-03-22T19:12:28.974Z</time></trkpt><trkpt lat="53.5807539" lon="-1.7879536"><ele>192.0</ele><time>2026-03-22T19:12:29.972Z</time></trkpt><trkpt lat="53.5809095" lon="-1.7880201"><ele>192.0</ele><time>2026-03-22T19:12:30.975Z</time></trkpt><trkpt lat="53.5810642" lon="-1.7880851"><ele>192.0</ele><time>2026-03-22T19:12:31.972Z</time></trkpt><trkpt lat="53.5812113" lon="-1.7881601"><ele>192.0</ele><time>2026-03-22T19:12:32.973Z</time></trkpt><trkpt lat="53.5813523" lon="-1.7882421"><ele>192.0</ele><time>2026-03-22T19:12:33.978Z</time></trkpt><trkpt lat="53.5814872" lon="-1.7883327"><ele>192.0</ele><time>2026-03-22T19:12:34.973Z</time></trkpt><trkpt lat="53.5816176" lon="-1.7884325"><ele>192.0</ele><time>2026-03-22T19:12:35.973Z</time></trkpt><trkpt lat="53.5817421" lon="-1.7885419"><ele>192.75</ele><time>2026-03-22T19:12:36.973Z</time></trkpt><trkpt lat="53.5818598" lon="-1.7886598"><ele>193.5</ele><time>2026-03-22T19:12:37.974Z</time></trkpt><trkpt lat="53.58197" lon="-1.7887921"><ele>194.25</ele><time>2026-03-22T19:12:38.975Z</time></trkpt><trkpt lat="53.5820819" lon="-1.7889238"><ele>195.0</ele><time>2026-03-22T19:12:39.972Z</time></trkpt><trkpt lat="53.5821925" lon="-1.7890615"><ele>196.25</ele><time>2026-03-22T19:12:40.972Z</time></trkpt><trkpt lat="53.5823039" lon="-1.7891995"><ele>197.5</ele><time>2026-03-22T19:12:41.973Z</time></trkpt><trkpt lat="53.5824151" lon="-1.7893323"><ele>198.75</ele><time>2026-03-22T19:12:42.975Z</time></trkpt><trkpt lat="53.5825268" lon="-1.789454"><ele>200.0</ele><time>2026-03-22T19:12:43.977Z</time></trkpt><trkpt lat="53.5826372" lon="-1.7895717"><ele>201.25</ele><time>2026-03-22T19:12:44.977Z</time></trkpt><trkpt lat="53.5827465" lon="-1.7896951"><ele>202.5</ele><time>2026-03-22T19:12:45.973Z</time></trkpt><trkpt lat="53.5828529" lon="-1.7898253"><ele>203.75</ele><time>2026-03-22T19:12:46.976Z</time></trkpt><trkpt lat="53.5829599" lon="-1.7899588"><ele>205.0</ele><time>2026-03-22T19:12:47.974Z</time></trkpt><trkpt lat="53.5830633" lon="-1.7900915"><ele>207.0</ele><time>2026-03-22T19:12:48.974Z</time></trkpt><trkpt lat="53.5831661" lon="-1.7902268"><ele>209.0</ele><time>2026-03-22T19:12:49.974Z</time></trkpt><trkpt lat="53.5832568" lon="-1.7903682"><ele>211.0</ele><time>2026-03-22T19:12:50.971Z</time></trkpt><trkpt lat="53.5833293" lon="-1.7905227"><ele>213.0</ele><time>2026-03-22T19:12:51.974Z</time></trkpt><trkpt lat="53.5833824" lon="-1.7906717"><ele>213.0</ele><time>2026-03-22T19:12:52.976Z</time></trkpt><trkpt lat="53.5834179" lon="-1.7907832"><ele>213.0</ele><time>2026-03-22T19:12:53.975Z</time></trkpt><trkpt lat="53.5834379" lon="-1.7909604"><ele>213.0</ele><time>2026-03-22T19:12:55.973Z</time></trkpt><trkpt lat="53.5833659" lon="-1.7910531"><ele>213.0</ele><time>2026-03-22T19:12:57.974Z</time></trkpt><trkpt lat="53.5833119" lon="-1.7911448"><ele>213.0</ele><time>2026-03-22T19:13:00.975Z</time></trkpt><trkpt lat="53.5833021" lon="-1.7912743"><ele>213.0</ele><time>2026-03-22T19:13:03.975Z</time></trkpt><trkpt lat="53.5832543" lon="-1.7913878"><ele>213.4</ele><time>2026-03-22T19:13:05.974Z</time></trkpt><trkpt lat="53.5831971" lon="-1.7914477"><ele>213.8</ele><time>2026-03-22T19:13:07.973Z</time></trkpt><trkpt lat="53.5831317" lon="-1.7915121"><ele>214.2</ele><time>2026-03-22T19:13:09.969Z</time></trkpt><trkpt lat="53.5830309" lon="-1.7916483"><ele>214.6</ele><time>2026-03-22T19:13:11.974Z</time></trkpt><trkpt lat="53.5829625" lon="-1.7917401"><ele>215.0</ele><time>2026-03-22T19:13:12.975Z</time></trkpt><trkpt lat="53.5828921" lon="-1.7918443"><ele>215.8</ele><time>2026-03-22T19:13:13.974Z</time></trkpt><trkpt lat="53.5828275" lon="-1.7919665"><ele>216.6</ele><time>2026-03-22T19:13:14.975Z</time></trkpt><trkpt lat="53.5827797" lon="-1.7920957"><ele>217.39999999999998</ele><time>2026-03-22T19:13:15.979Z</time></trkpt><trkpt lat="53.5827562" lon="-1.7922448"><ele>218.2</ele><time>2026-03-22T19:13:16.974Z</time></trkpt><trkpt lat="53.582748" lon="-1.7924225"><ele>219.0</ele><time>2026-03-22T19:13:17.975Z</time></trkpt><trkpt lat="53.5827524" lon="-1.7926193"><ele>219.5</ele><time>2026-03-22T19:13:18.977Z</time></trkpt><trkpt lat="53.5827648" lon="-1.792844"><ele>220.0</ele><time>2026-03-22T19:13:19.976Z</time></trkpt><trkpt lat="53.5827716" lon="-1.7930928"><ele>220.5</ele><time>2026-03-22T19:13:20.982Z</time></trkpt><trkpt lat="53.5827694" lon="-1.7933397"><ele>221.0</ele><time>2026-03-22T19:13:21.977Z</time></trkpt><trkpt lat="53.5827598" lon="-1.7935852"><ele>221.5</ele><time>2026-03-22T19:13:22.982Z</time></trkpt><trkpt lat="53.5827576" lon="-1.7938153"><ele>222.0</ele><time>2026-03-22T19:13:23.979Z</time></trkpt><trkpt lat="53.5827499" lon="-1.7940177"><ele>222.5</ele><time>2026-03-22T19:13:24.975Z</time></trkpt><trkpt lat="53.5827421" lon="-1.7942136"><ele>223.0</ele><time>2026-03-22T19:13:25.976Z</time></trkpt><trkpt lat="53.5827344" lon="-1.7944019"><ele>223.25</ele><time>2026-03-22T19:13:26.977Z</time></trkpt><trkpt lat="53.5827223" lon="-1.7945896"><ele>223.5</ele><time>2026-03-22T19:13:27.974Z</time></trkpt><trkpt lat="53.582702" lon="-1.7947835"><ele>223.75</ele><time>2026-03-22T19:13:28.975Z</time></trkpt><trkpt lat="53.5826798" lon="-1.7949648"><ele>224.0</ele><time>2026-03-22T19:13:29.976Z</time></trkpt><trkpt lat="53.5826522" lon="-1.7951592"><ele>224.0</ele><time>2026-03-22T19:13:30.982Z</time></trkpt><trkpt lat="53.5826218" lon="-1.7953745"><ele>224.0</ele><time>2026-03-22T19:13:31.975Z</time></trkpt><trkpt lat="53.5825868" lon="-1.7956015"><ele>224.0</ele><time>2026-03-22T19:13:32.974Z</time></trkpt><trkpt lat="53.5825498" lon="-1.7958449"><ele>224.0</ele><time>2026-03-22T19:13:33.983Z</time></trkpt><trkpt lat="53.5825093" lon="-1.7960891"><ele>224.25</ele><time>2026-03-22T19:13:34.977Z</time></trkpt><trkpt lat="53.5824705" lon="-1.7963391"><ele>224.5</ele><time>2026-03-22T19:13:35.979Z</time></trkpt><trkpt lat="53.5824357" lon="-1.7965797"><ele>224.75</ele><time>2026-03-22T19:13:36.975Z</time></trkpt><trkpt lat="53.582404" lon="-1.7968119"><ele>225.0</ele><time>2026-03-22T19:13:37.978Z</time></trkpt><trkpt lat="53.5823758" lon="-1.7970367"><ele>225.0</ele><time>2026-03-22T19:13:38.977Z</time></trkpt><trkpt lat="53.5823561" lon="-1.7972643"><ele>225.0</ele><time>2026-03-22T19:13:39.979Z</time></trkpt><trkpt lat="53.5823405" lon="-1.7974905"><ele>225.0</ele><time>2026-03-22T19:13:40.977Z</time></trkpt><trkpt lat="53.582325" lon="-1.7977203"><ele>225.0</ele><time>2026-03-22T19:13:41.972Z</time></trkpt><trkpt lat="53.5823111" lon="-1.7979538"><ele>225.5</ele><time>2026-03-22T19:13:42.975Z</time></trkpt><trkpt lat="53.5822984" lon="-1.7981808"><ele>226.0</ele><time>2026-03-22T19:13:43.979Z</time></trkpt><trkpt lat="53.5822823" lon="-1.7983941"><ele>226.5</ele><time>2026-03-22T19:13:44.974Z</time></trkpt><trkpt lat="53.5822698" lon="-1.7985954"><ele>227.0</ele><time>2026-03-22T19:13:45.975Z</time></trkpt><trkpt lat="53.5822563" lon="-1.7987748"><ele>227.8</ele><time>2026-03-22T19:13:46.975Z</time></trkpt><trkpt lat="53.5822453" lon="-1.7989386"><ele>228.6</ele><time>2026-03-22T19:13:47.976Z</time></trkpt><trkpt lat="53.5822331" lon="-1.7991137"><ele>229.40000000000003</ele><time>2026-03-22T19:13:48.975Z</time></trkpt><trkpt lat="53.5822237" lon="-1.7992936"><ele>230.20000000000002</ele><time>2026-03-22T19:13:49.975Z</time></trkpt><trkpt lat="53.5822134" lon="-1.7994728"><ele>231.0</ele><time>2026-03-22T19:13:50.975Z</time></trkpt><trkpt lat="53.5822017" lon="-1.7996581"><ele>231.25</ele><time>2026-03-22T19:13:51.975Z</time></trkpt><trkpt lat="53.5821875" lon="-1.7998533"><ele>231.5</ele><time>2026-03-22T19:13:52.967Z</time></trkpt><trkpt lat="53.5821702" lon="-1.80006"><ele>231.75</ele><time>2026-03-22T19:13:53.978Z</time></trkpt><trkpt lat="53.5821561" lon="-1.800281"><ele>232.0</ele><time>2026-03-22T19:13:54.972Z</time></trkpt><trkpt lat="53.5821478" lon="-1.8005192"><ele>233.0</ele><time>2026-03-22T19:13:55.975Z</time></trkpt><trkpt lat="53.5821395" lon="-1.8007718"><ele>234.0</ele><time>2026-03-22T19:13:56.975Z</time></trkpt><trkpt lat="53.5821292" lon="-1.8010272"><ele>235.0</ele><time>2026-03-22T19:13:57.976Z</time></trkpt><trkpt lat="53.5821187" lon="-1.8012843"><ele>235.0</ele><time>2026-03-22T19:13:58.976Z</time></trkpt><trkpt lat="53.5821079" lon="-1.8015424"><ele>235.0</ele><time>2026-03-22T19:13:59.973Z</time></trkpt><trkpt lat="53.5820968" lon="-1.8018019"><ele>235.0</ele><time>2026-03-22T19:14:00.973Z</time></trkpt><trkpt lat="53.5820868" lon="-1.8020576"><ele>235.33333333333331</ele><time>2026-03-22T19:14:01.978Z</time></trkpt><trkpt lat="53.5820725" lon="-1.8023091"><ele>235.66666666666669</ele><time>2026-03-22T19:14:02.979Z</time></trkpt><trkpt lat="53.582054" lon="-1.8025574"><ele>236.0</ele><time>2026-03-22T19:14:03.978Z</time></trkpt><trkpt lat="53.5820275" lon="-1.8028107"><ele>238.66666666666669</ele><time>2026-03-22T19:14:04.974Z</time></trkpt><trkpt lat="53.5819875" lon="-1.8030595"><ele>241.33333333333331</ele><time>2026-03-22T19:14:05.98Z</time></trkpt><trkpt lat="53.5819352" lon="-1.8033036"><ele>244.0</ele><time>2026-03-22T19:14:06.977Z</time></trkpt><trkpt lat="53.5818785" lon="-1.8035463"><ele>245.0</ele><time>2026-03-22T19:14:07.978Z</time></trkpt><trkpt lat="53.5818228" lon="-1.8037849"><ele>246.0</ele><time>2026-03-22T19:14:08.976Z</time></trkpt><trkpt lat="53.5817602" lon="-1.8040193"><ele>247.0</ele><time>2026-03-22T19:14:09.976Z</time></trkpt><trkpt lat="53.5816881" lon="-1.8042484"><ele>248.0</ele><time>2026-03-22T19:14:10.975Z</time></trkpt><trkpt lat="53.5816093" lon="-1.8044774"><ele>249.0</ele><time>2026-03-22T19:14:11.971Z</time></trkpt><trkpt lat="53.5815251" lon="-1.8047095"><ele>250.0</ele><time>2026-03-22T19:14:12.973Z</time></trkpt><trkpt lat="53.5814467" lon="-1.8049356"><ele>251.0</ele><time>2026-03-22T19:14:13.973Z</time></trkpt><trkpt lat="53.5813749" lon="-1.8051676"><ele>252.0</ele><time>2026-03-22T19:14:14.976Z</time></trkpt><trkpt lat="53.5813122" lon="-1.8054099"><ele>253.0</ele><time>2026-03-22T19:14:15.975Z</time></trkpt><trkpt lat="53.581263" lon="-1.8056574"><ele>253.0</ele><time>2026-03-22T19:14:16.973Z</time></trkpt><trkpt lat="53.5812275" lon="-1.8059088"><ele>253.0</ele><time>2026-03-22T19:14:17.973Z</time></trkpt><trkpt lat="53.5812147" lon="-1.806165"><ele>253.0</ele><time>2026-03-22T19:14:18.972Z</time></trkpt><trkpt lat="53.5812171" lon="-1.8064263"><ele>253.66666666666666</ele><time>2026-03-22T19:14:19.974Z</time></trkpt><trkpt lat="53.5812259" lon="-1.8066979"><ele>254.33333333333331</ele><time>2026-03-22T19:14:20.974Z</time></trkpt><trkpt lat="53.5812288" lon="-1.8069863"><ele>255.0</ele><time>2026-03-22T19:14:21.974Z</time></trkpt><trkpt lat="53.5812298" lon="-1.8072774"><ele>255.33333333333331</ele><time>2026-03-22T19:14:22.975Z</time></trkpt><trkpt lat="53.5812351" lon="-1.8075703"><ele>255.66666666666666</ele><time>2026-03-22T19:14:23.972Z</time></trkpt><trkpt lat="53.5812474" lon="-1.807866"><ele>256.0</ele><time>2026-03-22T19:14:24.973Z</time></trkpt><trkpt lat="53.58127" lon="-1.8081601"><ele>257.0</ele><time>2026-03-22T19:14:25.971Z</time></trkpt><trkpt lat="53.5813035" lon="-1.80845"><ele>258.0</ele><time>2026-03-22T19:14:26.971Z</time></trkpt><trkpt lat="53.5813475" lon="-1.8087357"><ele>259.0</ele><time>2026-03-22T19:14:27.97Z</time></trkpt><trkpt lat="53.5814007" lon="-1.8090232"><ele>259.66666666666663</ele><time>2026-03-22T19:14:28.974Z</time></trkpt><trkpt lat="53.5814514" lon="-1.8093088"><ele>260.3333333333333</ele><time>2026-03-22T19:14:29.973Z</time></trkpt><trkpt lat="53.5815049" lon="-1.8095942"><ele>261.0</ele><time>2026-03-22T19:14:30.973Z</time></trkpt><trkpt lat="53.5815563" lon="-1.8098795"><ele>262.6666666666667</ele><time>2026-03-22T19:14:31.973Z</time></trkpt><trkpt lat="53.5816096" lon="-1.8101648"><ele>264.33333333333337</ele><time>2026-03-22T19:14:32.973Z</time></trkpt><trkpt lat="53.581663" lon="-1.810448"><ele>266.0</ele><time>2026-03-22T19:14:33.975Z</time></trkpt><trkpt lat="53.5817123" lon="-1.8107319"><ele>266.6666666666667</ele><time>2026-03-22T19:14:34.973Z</time></trkpt><trkpt lat="53.5817589" lon="-1.811014"><ele>267.3333333333333</ele><time>2026-03-22T19:14:35.972Z</time></trkpt><trkpt lat="53.5818041" lon="-1.8112962"><ele>268.0</ele><time>2026-03-22T19:14:36.973Z</time></trkpt><trkpt lat="53.5818538" lon="-1.8115832"><ele>268.3333333333333</ele><time>2026-03-22T19:14:37.973Z</time></trkpt><trkpt lat="53.581905" lon="-1.8118722"><ele>268.6666666666667</ele><time>2026-03-22T19:14:38.972Z</time></trkpt><trkpt lat="53.5819592" lon="-1.8121604"><ele>269.0</ele><time>2026-03-22T19:14:39.971Z</time></trkpt><trkpt lat="53.5820149" lon="-1.8124447"><ele>270.33333333333337</ele><time>2026-03-22T19:14:40.972Z</time></trkpt><trkpt lat="53.5820653" lon="-1.8127281"><ele>271.6666666666667</ele><time>2026-03-22T19:14:41.97Z</time></trkpt><trkpt lat="53.5821185" lon="-1.8130015"><ele>273.0</ele><time>2026-03-22T19:14:42.97Z</time></trkpt><trkpt lat="53.5821715" lon="-1.8132744"><ele>273.3333333333333</ele><time>2026-03-22T19:14:43.971Z</time></trkpt><trkpt lat="53.5822237" lon="-1.8135551"><ele>273.66666666666663</ele><time>2026-03-22T19:14:44.973Z</time></trkpt><trkpt lat="53.5822764" lon="-1.8138464"><ele>274.0</ele><time>2026-03-22T19:14:45.964Z</time></trkpt><trkpt lat="53.5823253" lon="-1.8141465"><ele>274.0</ele><time>2026-03-22T19:14:46.971Z</time></trkpt><trkpt lat="53.5823748" lon="-1.8144511"><ele>274.0</ele><time>2026-03-22T19:14:47.97Z</time></trkpt><trkpt lat="53.5824237" lon="-1.814749"><ele>274.0</ele><time>2026-03-22T19:14:48.972Z</time></trkpt><trkpt lat="53.582473" lon="-1.815042"><ele>273.66666666666663</ele><time>2026-03-22T19:14:49.972Z</time></trkpt><trkpt lat="53.5825206" lon="-1.8153308"><ele>273.3333333333333</ele><time>2026-03-22T19:14:50.972Z</time></trkpt><trkpt lat="53.5825715" lon="-1.8156056"><ele>273.0</ele><time>2026-03-22T19:14:51.973Z</time></trkpt><trkpt lat="53.5826222" lon="-1.8158767"><ele>272.6666666666667</ele><time>2026-03-22T19:14:52.971Z</time></trkpt><trkpt lat="53.582668" lon="-1.8161575"><ele>272.33333333333337</ele><time>2026-03-22T19:14:53.97Z</time></trkpt><trkpt lat="53.5827087" lon="-1.8164537"><ele>272.0</ele><time>2026-03-22T19:14:54.969Z</time></trkpt><trkpt lat="53.5827435" lon="-1.816761"><ele>271.6666666666667</ele><time>2026-03-22T19:14:55.971Z</time></trkpt><trkpt lat="53.5827755" lon="-1.817068"><ele>271.3333333333333</ele><time>2026-03-22T19:14:56.975Z</time></trkpt><trkpt lat="53.5828013" lon="-1.8173789"><ele>271.0</ele><time>2026-03-22T19:14:57.976Z</time></trkpt><trkpt lat="53.5828252" lon="-1.8176941"><ele>268.66666666666663</ele><time>2026-03-22T19:14:58.98Z</time></trkpt><trkpt lat="53.582854" lon="-1.8180044"><ele>266.3333333333333</ele><time>2026-03-22T19:14:59.978Z</time></trkpt><trkpt lat="53.5828834" lon="-1.8183186"><ele>264.0</ele><time>2026-03-22T19:15:00.98Z</time></trkpt><trkpt lat="53.5829189" lon="-1.8186434"><ele>264.0</ele><time>2026-03-22T19:15:01.977Z</time></trkpt><trkpt lat="53.5829535" lon="-1.8189587"><ele>264.0</ele><time>2026-03-22T19:15:02.977Z</time></trkpt><trkpt lat="53.5829846" lon="-1.8192682"><ele>264.0</ele><time>2026-03-22T19:15:03.975Z</time></trkpt><trkpt lat="53.5830171" lon="-1.8195764"><ele>264.0</ele><time>2026-03-22T19:15:04.974Z</time></trkpt><trkpt lat="53.583055" lon="-1.8198819"><ele>264.0</ele><time>2026-03-22T19:15:05.975Z</time></trkpt><trkpt lat="53.5831022" lon="-1.820186"><ele>264.0</ele><time>2026-03-22T19:15:06.976Z</time></trkpt><trkpt lat="53.5831569" lon="-1.8204852"><ele>263.6666666666667</ele><time>2026-03-22T19:15:07.979Z</time></trkpt><trkpt lat="53.5832172" lon="-1.8207813"><ele>263.33333333333337</ele><time>2026-03-22T19:15:08.977Z</time></trkpt><trkpt lat="53.5832872" lon="-1.8210742"><ele>263.0</ele><time>2026-03-22T19:15:09.978Z</time></trkpt><trkpt lat="53.5833593" lon="-1.821371"><ele>263.33333333333337</ele><time>2026-03-22T19:15:10.978Z</time></trkpt><trkpt lat="53.5834401" lon="-1.8216633"><ele>263.6666666666667</ele><time>2026-03-22T19:15:11.978Z</time></trkpt><trkpt lat="53.5835238" lon="-1.8219523"><ele>264.0</ele><time>2026-03-22T19:15:12.978Z</time></trkpt><trkpt lat="53.5836118" lon="-1.8222228"><ele>262.0</ele><time>2026-03-22T19:15:13.978Z</time></trkpt><trkpt lat="53.5836993" lon="-1.8224762"><ele>260.0</ele><time>2026-03-22T19:15:14.978Z</time></trkpt><trkpt lat="53.5837807" lon="-1.8227168"><ele>258.0</ele><time>2026-03-22T19:15:15.972Z</time></trkpt><trkpt lat="53.5838501" lon="-1.8229488"><ele>258.0</ele><time>2026-03-22T19:15:16.973Z</time></trkpt><trkpt lat="53.5839119" lon="-1.8231928"><ele>258.0</ele><time>2026-03-22T19:15:17.975Z</time></trkpt><trkpt lat="53.5839814" lon="-1.823428"><ele>258.0</ele><time>2026-03-22T19:15:18.975Z</time></trkpt><trkpt lat="53.5840577" lon="-1.8236515"><ele>257.0</ele><time>2026-03-22T19:15:19.975Z</time></trkpt><trkpt lat="53.5841483" lon="-1.8238667"><ele>256.0</ele><time>2026-03-22T19:15:20.973Z</time></trkpt><trkpt lat="53.5842517" lon="-1.8240842"><ele>255.0</ele><time>2026-03-22T19:15:21.974Z</time></trkpt><trkpt lat="53.5843634" lon="-1.8243101"><ele>255.0</ele><time>2026-03-22T19:15:22.975Z</time></trkpt><trkpt lat="53.5844788" lon="-1.8245308"><ele>255.0</ele><time>2026-03-22T19:15:23.974Z</time></trkpt><trkpt lat="53.5845921" lon="-1.8247375"><ele>255.0</ele><time>2026-03-22T19:15:24.974Z</time></trkpt><trkpt lat="53.5846983" lon="-1.8249357"><ele>253.0</ele><time>2026-03-22T19:15:25.972Z</time></trkpt><trkpt lat="53.5847854" lon="-1.8251361"><ele>251.0</ele><time>2026-03-22T19:15:26.973Z</time></trkpt><trkpt lat="53.5848487" lon="-1.8253318"><ele>249.0</ele><time>2026-03-22T19:15:27.973Z</time></trkpt><trkpt lat="53.5848941" lon="-1.8255311"><ele>247.0</ele><time>2026-03-22T19:15:28.975Z</time></trkpt><trkpt lat="53.584911" lon="-1.825762"><ele>247.66666666666666</ele><time>2026-03-22T19:15:29.975Z</time></trkpt><trkpt lat="53.5849077" lon="-1.8260142"><ele>248.33333333333331</ele><time>2026-03-22T19:15:30.974Z</time></trkpt><trkpt lat="53.5848954" lon="-1.8262783"><ele>249.0</ele><time>2026-03-22T19:15:31.974Z</time></trkpt><trkpt lat="53.5848782" lon="-1.8265494"><ele>249.0</ele><time>2026-03-22T19:15:32.973Z</time></trkpt><trkpt lat="53.584855" lon="-1.8268313"><ele>249.0</ele><time>2026-03-22T19:15:33.975Z</time></trkpt><trkpt lat="53.5848385" lon="-1.8271171"><ele>249.0</ele><time>2026-03-22T19:15:34.974Z</time></trkpt><trkpt lat="53.5848306" lon="-1.8274034"><ele>249.0</ele><time>2026-03-22T19:15:35.972Z</time></trkpt><trkpt lat="53.5848287" lon="-1.8276949"><ele>249.0</ele><time>2026-03-22T19:15:36.973Z</time></trkpt><trkpt lat="53.5848289" lon="-1.8279911"><ele>249.0</ele><time>2026-03-22T19:15:37.975Z</time></trkpt><trkpt lat="53.5848281" lon="-1.8282834"><ele>248.33333333333331</ele><time>2026-03-22T19:15:38.973Z</time></trkpt><trkpt lat="53.5848271" lon="-1.8285732"><ele>247.66666666666666</ele><time>2026-03-22T19:15:39.973Z</time></trkpt><trkpt lat="53.584829" lon="-1.8288585"><ele>247.0</ele><time>2026-03-22T19:15:40.973Z</time></trkpt><trkpt lat="53.5848333" lon="-1.829139"><ele>246.33333333333331</ele><time>2026-03-22T19:15:41.97Z</time></trkpt><trkpt lat="53.5848348" lon="-1.8294129"><ele>245.66666666666669</ele><time>2026-03-22T19:15:42.972Z</time></trkpt><trkpt lat="53.5848357" lon="-1.8296786"><ele>245.0</ele><time>2026-03-22T19:15:43.973Z</time></trkpt><trkpt lat="53.5848368" lon="-1.8299402"><ele>245.66666666666669</ele><time>2026-03-22T19:15:44.973Z</time></trkpt><trkpt lat="53.5848424" lon="-1.8302018"><ele>246.33333333333331</ele><time>2026-03-22T19:15:45.972Z</time></trkpt><trkpt lat="53.5848487" lon="-1.8304614"><ele>247.0</ele><time>2026-03-22T19:15:46.972Z</time></trkpt><trkpt lat="53.5848576" lon="-1.8307176"><ele>246.33333333333331</ele><time>2026-03-22T19:15:47.969Z</time></trkpt><trkpt lat="53.5848706" lon="-1.8309768"><ele>245.66666666666669</ele><time>2026-03-22T19:15:48.973Z</time></trkpt><trkpt lat="53.5848885" lon="-1.8312368"><ele>245.0</ele><time>2026-03-22T19:15:49.976Z</time></trkpt><trkpt lat="53.5849065" lon="-1.8314865"><ele>245.0</ele><time>2026-03-22T19:15:50.977Z</time></trkpt><trkpt lat="53.584926" lon="-1.8317061"><ele>245.0</ele><time>2026-03-22T19:15:51.972Z</time></trkpt><trkpt lat="53.5849521" lon="-1.8318634"><ele>245.0</ele><time>2026-03-22T19:15:52.968Z</time></trkpt><trkpt lat="53.5850156" lon="-1.8319715"><ele>245.0</ele><time>2026-03-22T19:15:54.977Z</time></trkpt><trkpt lat="53.5850491" lon="-1.831873"><ele>245.0</ele><time>2026-03-22T19:15:58.975Z</time></trkpt><trkpt lat="53.5850111" lon="-1.8319621"><ele>245.0</ele><time>2026-03-22T19:17:05.992Z</time></trkpt><trkpt lat="53.5850013" lon="-1.8320761"><ele>245.0</ele><time>2026-03-22T19:17:06.995Z</time></trkpt><trkpt lat="53.5850045" lon="-1.832239"><ele>245.0</ele><time>2026-03-22T19:17:07.994Z</time></trkpt><trkpt lat="53.5850212" lon="-1.8324211"><ele>245.0</ele><time>2026-03-22T19:17:08.996Z</time></trkpt><trkpt lat="53.5850407" lon="-1.8326144"><ele>245.0</ele><time>2026-03-22T19:17:09.992Z</time></trkpt><trkpt lat="53.585056" lon="-1.8328531"><ele>244.75</ele><time>2026-03-22T19:17:10.97Z</time></trkpt><trkpt lat="53.5850837" lon="-1.8330924"><ele>244.5</ele><time>2026-03-22T19:17:11.973Z</time></trkpt><trkpt lat="53.5851106" lon="-1.8333173"><ele>244.25</ele><time>2026-03-22T19:17:12.972Z</time></trkpt><trkpt lat="53.5851377" lon="-1.8335265"><ele>244.0</ele><time>2026-03-22T19:17:13.975Z</time></trkpt><trkpt lat="53.5851657" lon="-1.8337313"><ele>244.0</ele><time>2026-03-22T19:17:14.975Z</time></trkpt><trkpt lat="53.5851925" lon="-1.8339393"><ele>244.0</ele><time>2026-03-22T19:17:15.977Z</time></trkpt><trkpt lat="53.5852218" lon="-1.8341451"><ele>244.0</ele><time>2026-03-22T19:17:16.976Z</time></trkpt><trkpt lat="53.5852547" lon="-1.8343447"><ele>244.0</ele><time>2026-03-22T19:17:17.975Z</time></trkpt><trkpt lat="53.5852889" lon="-1.8345422"><ele>243.5</ele><time>2026-03-22T19:17:18.976Z</time></trkpt><trkpt lat="53.5853248" lon="-1.8347394"><ele>243.0</ele><time>2026-03-22T19:17:19.976Z</time></trkpt><trkpt lat="53.5853637" lon="-1.8349372"><ele>242.5</ele><time>2026-03-22T19:17:20.976Z</time></trkpt><trkpt lat="53.5854009" lon="-1.835142"><ele>242.0</ele><time>2026-03-22T19:17:21.976Z</time></trkpt><trkpt lat="53.5854356" lon="-1.8353441"><ele>240.5</ele><time>2026-03-22T19:17:22.974Z</time></trkpt><trkpt lat="53.5854675" lon="-1.835549"><ele>239.0</ele><time>2026-03-22T19:17:23.977Z</time></trkpt><trkpt lat="53.5855011" lon="-1.8357608"><ele>237.5</ele><time>2026-03-22T19:17:24.977Z</time></trkpt><trkpt lat="53.5855339" lon="-1.8359694"><ele>236.0</ele><time>2026-03-22T19:17:25.979Z</time></trkpt><trkpt lat="53.5855642" lon="-1.8361789"><ele>236.0</ele><time>2026-03-22T19:17:26.976Z</time></trkpt><trkpt lat="53.5855947" lon="-1.8364041"><ele>236.0</ele><time>2026-03-22T19:17:27.975Z</time></trkpt><trkpt lat="53.5856183" lon="-1.8366328"><ele>236.0</ele><time>2026-03-22T19:17:28.977Z</time></trkpt><trkpt lat="53.5856415" lon="-1.8368528"><ele>236.0</ele><time>2026-03-22T19:17:29.975Z</time></trkpt><trkpt lat="53.5856612" lon="-1.8370704"><ele>235.8</ele><time>2026-03-22T19:17:30.976Z</time></trkpt><trkpt lat="53.5856823" lon="-1.837281"><ele>235.60000000000002</ele><time>2026-03-22T19:17:31.978Z</time></trkpt><trkpt lat="53.585704" lon="-1.8374753"><ele>235.4</ele><time>2026-03-22T19:17:32.976Z</time></trkpt><trkpt lat="53.5857232" lon="-1.8376527"><ele>235.2</ele><time>2026-03-22T19:17:33.978Z</time></trkpt><trkpt lat="53.5857414" lon="-1.8378027"><ele>235.0</ele><time>2026-03-22T19:17:34.977Z</time></trkpt><trkpt lat="53.5857572" lon="-1.8379259"><ele>234.0</ele><time>2026-03-22T19:17:35.977Z</time></trkpt><trkpt lat="53.5857702" lon="-1.8380368"><ele>233.0</ele><time>2026-03-22T19:17:36.976Z</time></trkpt><trkpt lat="53.5857839" lon="-1.8382274"><ele>232.0</ele><time>2026-03-22T19:17:38.976Z</time></trkpt><trkpt lat="53.5858093" lon="-1.8384053"><ele>231.0</ele><time>2026-03-22T19:17:40.979Z</time></trkpt><trkpt lat="53.5858357" lon="-1.8385469"><ele>230.0</ele><time>2026-03-22T19:17:42.982Z</time></trkpt><trkpt lat="53.585849" lon="-1.8386971"><ele>228.0</ele><time>2026-03-22T19:17:45.977Z</time></trkpt><trkpt lat="53.5858899" lon="-1.838899"><ele>226.0</ele><time>2026-03-22T19:17:47.985Z</time></trkpt><trkpt lat="53.5859195" lon="-1.8390687"><ele>224.0</ele><time>2026-03-22T19:17:48.977Z</time></trkpt><trkpt lat="53.5859473" lon="-1.8392765"><ele>222.0</ele><time>2026-03-22T19:17:49.977Z</time></trkpt><trkpt lat="53.5859685" lon="-1.8394851"><ele>220.39999999999998</ele><time>2026-03-22T19:17:50.977Z</time></trkpt><trkpt lat="53.5859847" lon="-1.8396803"><ele>218.79999999999998</ele><time>2026-03-22T19:17:51.976Z</time></trkpt><trkpt lat="53.5859966" lon="-1.8398721"><ele>217.2</ele><time>2026-03-22T19:17:52.977Z</time></trkpt><trkpt lat="53.5860189" lon="-1.8400454"><ele>215.6</ele><time>2026-03-22T19:17:53.978Z</time></trkpt><trkpt lat="53.5860445" lon="-1.8402177"><ele>214.0</ele><time>2026-03-22T19:17:54.978Z</time></trkpt><trkpt lat="53.5860765" lon="-1.8403818"><ele>213.25</ele><time>2026-03-22T19:17:55.976Z</time></trkpt><trkpt lat="53.58611" lon="-1.8405529"><ele>212.5</ele><time>2026-03-22T19:17:56.977Z</time></trkpt><trkpt lat="53.5861428" lon="-1.8407367"><ele>211.75</ele><time>2026-03-22T19:17:57.977Z</time></trkpt><trkpt lat="53.586174" lon="-1.840924"><ele>211.0</ele><time>2026-03-22T19:17:58.978Z</time></trkpt><trkpt lat="53.5861975" lon="-1.8411127"><ele>210.0</ele><time>2026-03-22T19:17:59.977Z</time></trkpt><trkpt lat="53.5862219" lon="-1.8412959"><ele>209.0</ele><time>2026-03-22T19:18:00.977Z</time></trkpt><trkpt lat="53.5862449" lon="-1.8414577"><ele>208.0</ele><time>2026-03-22T19:18:01.984Z</time></trkpt><trkpt lat="53.5862712" lon="-1.8416179"><ele>207.0</ele><time>2026-03-22T19:18:02.98Z</time></trkpt><trkpt lat="53.5862927" lon="-1.8417758"><ele>206.0</ele><time>2026-03-22T19:18:03.982Z</time></trkpt><trkpt lat="53.5863117" lon="-1.8419246"><ele>204.66666666666669</ele><time>2026-03-22T19:18:04.982Z</time></trkpt><trkpt lat="53.5863332" lon="-1.8420652"><ele>203.33333333333334</ele><time>2026-03-22T19:18:05.982Z</time></trkpt><trkpt lat="53.5863526" lon="-1.8421974"><ele>202.0</ele><time>2026-03-22T19:18:06.981Z</time></trkpt><trkpt lat="53.5863604" lon="-1.8423186"><ele>200.66666666666669</ele><time>2026-03-22T19:18:07.981Z</time></trkpt><trkpt lat="53.5863639" lon="-1.8424262"><ele>199.33333333333334</ele><time>2026-03-22T19:18:08.984Z</time></trkpt><trkpt lat="53.5864129" lon="-1.8425832"><ele>198.0</ele><time>2026-03-22T19:18:10.984Z</time></trkpt><trkpt lat="53.5864769" lon="-1.8426503"><ele>197.5</ele><time>2026-03-22T19:18:11.98Z</time></trkpt><trkpt lat="53.5865599" lon="-1.842701"><ele>197.0</ele><time>2026-03-22T19:18:12.978Z</time></trkpt><trkpt lat="53.5866641" lon="-1.8427813"><ele>196.5</ele><time>2026-03-22T19:18:13.982Z</time></trkpt><trkpt lat="53.5867885" lon="-1.8428628"><ele>196.0</ele><time>2026-03-22T19:18:14.978Z</time></trkpt><trkpt lat="53.586907" lon="-1.842926"><ele>194.75</ele><time>2026-03-22T19:18:15.979Z</time></trkpt><trkpt lat="53.5870242" lon="-1.8429782"><ele>193.5</ele><time>2026-03-22T19:18:16.979Z</time></trkpt><trkpt lat="53.5871481" lon="-1.8430218"><ele>192.25</ele><time>2026-03-22T19:18:17.98Z</time></trkpt><trkpt lat="53.5872673" lon="-1.8430575"><ele>191.0</ele><time>2026-03-22T19:18:18.979Z</time></trkpt><trkpt lat="53.5873907" lon="-1.8430911"><ele>191.0</ele><time>2026-03-22T19:18:19.974Z</time></trkpt><trkpt lat="53.5875077" lon="-1.843123"><ele>191.0</ele><time>2026-03-22T19:18:20.976Z</time></trkpt><trkpt lat="53.587613" lon="-1.8431733"><ele>191.0</ele><time>2026-03-22T19:18:21.975Z</time></trkpt><trkpt lat="53.587706" lon="-1.8432492"><ele>191.0</ele><time>2026-03-22T19:18:22.973Z</time></trkpt><trkpt lat="53.5877918" lon="-1.8433574"><ele>191.0</ele><time>2026-03-22T19:18:23.973Z</time></trkpt><trkpt lat="53.5878643" lon="-1.8434933"><ele>188.75</ele><time>2026-03-22T19:18:24.976Z</time></trkpt><trkpt lat="53.587926" lon="-1.8436556"><ele>186.5</ele><time>2026-03-22T19:18:25.975Z</time></trkpt><trkpt lat="53.5879797" lon="-1.8438337"><ele>184.25</ele><time>2026-03-22T19:18:26.967Z</time></trkpt><trkpt lat="53.5880251" lon="-1.8440207"><ele>182.0</ele><time>2026-03-22T19:18:27.967Z</time></trkpt><trkpt lat="53.588076" lon="-1.8442092"><ele>181.75</ele><time>2026-03-22T19:18:28.968Z</time></trkpt><trkpt lat="53.5881254" lon="-1.8444051"><ele>181.5</ele><time>2026-03-22T19:18:29.968Z</time></trkpt><trkpt lat="53.5881763" lon="-1.8445958"><ele>181.25</ele><time>2026-03-22T19:18:30.967Z</time></trkpt><trkpt lat="53.5882306" lon="-1.8447704"><ele>181.0</ele><time>2026-03-22T19:18:31.969Z</time></trkpt><trkpt lat="53.5882964" lon="-1.8449423"><ele>181.0</ele><time>2026-03-22T19:18:32.977Z</time></trkpt><trkpt lat="53.588369" lon="-1.8451003"><ele>181.0</ele><time>2026-03-22T19:18:33.977Z</time></trkpt><trkpt lat="53.5884392" lon="-1.8452345"><ele>181.0</ele><time>2026-03-22T19:18:34.976Z</time></trkpt><trkpt lat="53.588499" lon="-1.8453575"><ele>181.0</ele><time>2026-03-22T19:18:35.974Z</time></trkpt><trkpt lat="53.5885541" lon="-1.8454759"><ele>181.0</ele><time>2026-03-22T19:18:36.981Z</time></trkpt><trkpt lat="53.5886152" lon="-1.8455917"><ele>182.83333333333334</ele><time>2026-03-22T19:18:37.98Z</time></trkpt><trkpt lat="53.5886779" lon="-1.8456895"><ele>184.66666666666669</ele><time>2026-03-22T19:18:38.978Z</time></trkpt><trkpt lat="53.5887434" lon="-1.8457691"><ele>186.5</ele><time>2026-03-22T19:18:39.977Z</time></trkpt><trkpt lat="53.5888131" lon="-1.8458411"><ele>188.33333333333334</ele><time>2026-03-22T19:18:40.98Z</time></trkpt><trkpt lat="53.588881" lon="-1.8459217"><ele>190.16666666666666</ele><time>2026-03-22T19:18:41.978Z</time></trkpt><trkpt lat="53.5889473" lon="-1.8459995"><ele>192.0</ele><time>2026-03-22T19:18:42.978Z</time></trkpt><trkpt lat="53.589004" lon="-1.846065"><ele>192.16666666666666</ele><time>2026-03-22T19:18:43.979Z</time></trkpt><trkpt lat="53.5890587" lon="-1.8461228"><ele>192.33333333333331</ele><time>2026-03-22T19:18:44.981Z</time></trkpt><trkpt lat="53.5891193" lon="-1.8461845"><ele>192.5</ele><time>2026-03-22T19:18:45.977Z</time></trkpt><trkpt lat="53.5891902" lon="-1.846263"><ele>192.66666666666666</ele><time>2026-03-22T19:18:46.979Z</time></trkpt><trkpt lat="53.5892653" lon="-1.8463705"><ele>192.83333333333331</ele><time>2026-03-22T19:18:47.973Z</time></trkpt><trkpt lat="53.5893387" lon="-1.8464985"><ele>193.0</ele><time>2026-03-22T19:18:48.982Z</time></trkpt><trkpt lat="53.5893987" lon="-1.8466192"><ele>192.99999999999997</ele><time>2026-03-22T19:18:49.978Z</time></trkpt><trkpt lat="53.5894555" lon="-1.8467153"><ele>193.0</ele><time>2026-03-22T19:18:50.976Z</time></trkpt><trkpt lat="53.5895015" lon="-1.8468045"><ele>193.0</ele><time>2026-03-22T19:18:51.975Z</time></trkpt><trkpt lat="53.5895588" lon="-1.8469508"><ele>193.0</ele><time>2026-03-22T19:18:53.977Z</time></trkpt><trkpt lat="53.5895075" lon="-1.8471032"><ele>192.99999999999997</ele><time>2026-03-22T19:18:55.976Z</time></trkpt><trkpt lat="53.5894449" lon="-1.8471763"><ele>193.0</ele><time>2026-03-22T19:18:56.978Z</time></trkpt><trkpt lat="53.5893663" lon="-1.8472623"><ele>193.25</ele><time>2026-03-22T19:18:57.974Z</time></trkpt><trkpt lat="53.5892803" lon="-1.8473652"><ele>193.5</ele><time>2026-03-22T19:18:58.976Z</time></trkpt><trkpt lat="53.5891979" lon="-1.8474961"><ele>193.75</ele><time>2026-03-22T19:18:59.977Z</time></trkpt><trkpt lat="53.5891147" lon="-1.8476368"><ele>194.0</ele><time>2026-03-22T19:19:00.977Z</time></trkpt><trkpt lat="53.5890371" lon="-1.8477759"><ele>194.25</ele><time>2026-03-22T19:19:01.979Z</time></trkpt><trkpt lat="53.588956" lon="-1.8479256"><ele>194.5</ele><time>2026-03-22T19:19:02.978Z</time></trkpt><trkpt lat="53.5888725" lon="-1.8480762"><ele>194.75</ele><time>2026-03-22T19:19:03.977Z</time></trkpt><trkpt lat="53.5887875" lon="-1.8482247"><ele>195.0</ele><time>2026-03-22T19:19:04.978Z</time></trkpt><trkpt lat="53.5887042" lon="-1.8483712"><ele>196.75</ele><time>2026-03-22T19:19:05.975Z</time></trkpt><trkpt lat="53.5886229" lon="-1.84852"><ele>198.5</ele><time>2026-03-22T19:19:06.978Z</time></trkpt><trkpt lat="53.5885475" lon="-1.8486652"><ele>200.25</ele><time>2026-03-22T19:19:07.978Z</time></trkpt><trkpt lat="53.5884723" lon="-1.8488107"><ele>202.0</ele><time>2026-03-22T19:19:08.979Z</time></trkpt><trkpt lat="53.5883951" lon="-1.8489582"><ele>202.0</ele><time>2026-03-22T19:19:09.977Z</time></trkpt><trkpt lat="53.5883162" lon="-1.8491048"><ele>202.0</ele><time>2026-03-22T19:19:10.977Z</time></trkpt><trkpt lat="53.5882368" lon="-1.8492564"><ele>202.0</ele><time>2026-03-22T19:19:11.973Z</time></trkpt><trkpt lat="53.5881577" lon="-1.8494092"><ele>202.0</ele><time>2026-03-22T19:19:12.977Z</time></trkpt><trkpt lat="53.588079" lon="-1.8495633"><ele>202.5</ele><time>2026-03-22T19:19:13.979Z</time></trkpt><trkpt lat="53.5880003" lon="-1.8497164"><ele>203.0</ele><time>2026-03-22T19:19:14.981Z</time></trkpt><trkpt lat="53.5879197" lon="-1.8498668"><ele>203.5</ele><time>2026-03-22T19:19:15.981Z</time></trkpt><trkpt lat="53.5878385" lon="-1.8500154"><ele>204.0</ele><time>2026-03-22T19:19:16.981Z</time></trkpt><trkpt lat="53.5877587" lon="-1.8501607"><ele>206.5</ele><time>2026-03-22T19:19:17.981Z</time></trkpt><trkpt lat="53.5876795" lon="-1.8503096"><ele>209.0</ele><time>2026-03-22T19:19:18.978Z</time></trkpt><trkpt lat="53.5876019" lon="-1.8504611"><ele>211.5</ele><time>2026-03-22T19:19:19.982Z</time></trkpt><trkpt lat="53.5875232" lon="-1.850614"><ele>214.0</ele><time>2026-03-22T19:19:20.978Z</time></trkpt><trkpt lat="53.5874429" lon="-1.8507661"><ele>214.0</ele><time>2026-03-22T19:19:21.975Z</time></trkpt><trkpt lat="53.5873609" lon="-1.8509191"><ele>214.0</ele><time>2026-03-22T19:19:22.975Z</time></trkpt><trkpt lat="53.5872801" lon="-1.851073"><ele>214.0</ele><time>2026-03-22T19:19:23.977Z</time></trkpt><trkpt lat="53.5871965" lon="-1.8512365"><ele>214.0</ele><time>2026-03-22T19:19:24.977Z</time></trkpt><trkpt lat="53.5871173" lon="-1.8514187"><ele>216.25</ele><time>2026-03-22T19:19:25.976Z</time></trkpt><trkpt lat="53.5870462" lon="-1.851614"><ele>218.5</ele><time>2026-03-22T19:19:26.974Z</time></trkpt><trkpt lat="53.5869776" lon="-1.8518133"><ele>220.75</ele><time>2026-03-22T19:19:27.976Z</time></trkpt><trkpt lat="53.5869121" lon="-1.8520163"><ele>223.0</ele><time>2026-03-22T19:19:28.977Z</time></trkpt><trkpt lat="53.5868444" lon="-1.8522123"><ele>224.25</ele><time>2026-03-22T19:19:29.977Z</time></trkpt><trkpt lat="53.5867744" lon="-1.852399"><ele>225.5</ele><time>2026-03-22T19:19:30.975Z</time></trkpt><trkpt lat="53.5867076" lon="-1.8525733"><ele>226.75</ele><time>2026-03-22T19:19:31.978Z</time></trkpt><trkpt lat="53.5866284" lon="-1.8527521"><ele>228.0</ele><time>2026-03-22T19:19:32.978Z</time></trkpt><trkpt lat="53.5865501" lon="-1.8529393"><ele>229.5</ele><time>2026-03-22T19:19:33.978Z</time></trkpt><trkpt lat="53.5864765" lon="-1.8531364"><ele>231.0</ele><time>2026-03-22T19:19:34.98Z</time></trkpt><trkpt lat="53.5864096" lon="-1.8533376"><ele>232.5</ele><time>2026-03-22T19:19:35.979Z</time></trkpt><trkpt lat="53.5863449" lon="-1.8535429"><ele>234.0</ele><time>2026-03-22T19:19:36.98Z</time></trkpt><trkpt lat="53.5862819" lon="-1.853747"><ele>233.25</ele><time>2026-03-22T19:19:37.98Z</time></trkpt><trkpt lat="53.5862189" lon="-1.8539474"><ele>232.5</ele><time>2026-03-22T19:19:38.978Z</time></trkpt><trkpt lat="53.5861581" lon="-1.8541458"><ele>231.75</ele><time>2026-03-22T19:19:39.978Z</time></trkpt><trkpt lat="53.5860977" lon="-1.854344"><ele>231.0</ele><time>2026-03-22T19:19:40.98Z</time></trkpt><trkpt lat="53.5860376" lon="-1.8545437"><ele>233.75</ele><time>2026-03-22T19:19:41.976Z</time></trkpt><trkpt lat="53.5859799" lon="-1.854741"><ele>236.5</ele><time>2026-03-22T19:19:42.976Z</time></trkpt><trkpt lat="53.5859211" lon="-1.8549417"><ele>239.25</ele><time>2026-03-22T19:19:43.977Z</time></trkpt><trkpt lat="53.5858633" lon="-1.8551384"><ele>242.0</ele><time>2026-03-22T19:19:44.977Z</time></trkpt><trkpt lat="53.5858075" lon="-1.8553254"><ele>243.75</ele><time>2026-03-22T19:19:45.977Z</time></trkpt><trkpt lat="53.5857488" lon="-1.8555125"><ele>245.5</ele><time>2026-03-22T19:19:46.978Z</time></trkpt><trkpt lat="53.5856959" lon="-1.855697"><ele>247.25</ele><time>2026-03-22T19:19:47.976Z</time></trkpt><trkpt lat="53.5856504" lon="-1.855878"><ele>249.0</ele><time>2026-03-22T19:19:48.98Z</time></trkpt><trkpt lat="53.5856085" lon="-1.8560619"><ele>250.25</ele><time>2026-03-22T19:19:49.978Z</time></trkpt><trkpt lat="53.5855639" lon="-1.8562506"><ele>251.5</ele><time>2026-03-22T19:19:50.978Z</time></trkpt><trkpt lat="53.5855163" lon="-1.8564309"><ele>252.75</ele><time>2026-03-22T19:19:51.976Z</time></trkpt><trkpt lat="53.5854671" lon="-1.8566107"><ele>254.0</ele><time>2026-03-22T19:19:52.976Z</time></trkpt><trkpt lat="53.5854243" lon="-1.8567894"><ele>252.79999999999998</ele><time>2026-03-22T19:19:53.976Z</time></trkpt><trkpt lat="53.5853891" lon="-1.8569684"><ele>251.59999999999997</ele><time>2026-03-22T19:19:54.979Z</time></trkpt><trkpt lat="53.5853562" lon="-1.8571367"><ele>250.4</ele><time>2026-03-22T19:19:55.98Z</time></trkpt><trkpt lat="53.5853222" lon="-1.8573057"><ele>249.2</ele><time>2026-03-22T19:19:56.978Z</time></trkpt><trkpt lat="53.5852865" lon="-1.8574736"><ele>248.0</ele><time>2026-03-22T19:19:57.977Z</time></trkpt><trkpt lat="53.5852485" lon="-1.8576425"><ele>250.60000000000002</ele><time>2026-03-22T19:19:58.978Z</time></trkpt><trkpt lat="53.5852119" lon="-1.8578175"><ele>253.20000000000002</ele><time>2026-03-22T19:19:59.974Z</time></trkpt><trkpt lat="53.5851737" lon="-1.8579851"><ele>255.8</ele><time>2026-03-22T19:20:00.974Z</time></trkpt><trkpt lat="53.5851347" lon="-1.8581431"><ele>258.40000000000003</ele><time>2026-03-22T19:20:01.978Z</time></trkpt><trkpt lat="53.5850973" lon="-1.8582848"><ele>261.0</ele><time>2026-03-22T19:20:02.98Z</time></trkpt><trkpt lat="53.5850644" lon="-1.8584035"><ele>262.6</ele><time>2026-03-22T19:20:03.979Z</time></trkpt><trkpt lat="53.5850318" lon="-1.8585526"><ele>264.20000000000005</ele><time>2026-03-22T19:20:05.977Z</time></trkpt><trkpt lat="53.585083" lon="-1.8586397"><ele>265.79999999999995</ele><time>2026-03-22T19:20:07.984Z</time></trkpt><trkpt lat="53.5852099" lon="-1.8586587"><ele>267.4</ele><time>2026-03-22T19:20:09.98Z</time></trkpt><trkpt lat="53.5853109" lon="-1.8586601"><ele>269.0</ele><time>2026-03-22T19:20:10.984Z</time></trkpt><trkpt lat="53.5854135" lon="-1.8586727"><ele>269.0</ele><time>2026-03-22T19:20:11.979Z</time></trkpt><trkpt lat="53.5855134" lon="-1.8587292"><ele>269.0</ele><time>2026-03-22T19:20:12.981Z</time></trkpt><trkpt lat="53.5856101" lon="-1.8588082"><ele>269.0</ele><time>2026-03-22T19:20:13.98Z</time></trkpt><trkpt lat="53.5857006" lon="-1.8589024"><ele>269.0</ele><time>2026-03-22T19:20:14.977Z</time></trkpt><trkpt lat="53.5857832" lon="-1.858998"><ele>269.0</ele><time>2026-03-22T19:20:15.977Z</time></trkpt><trkpt lat="53.5858627" lon="-1.8591008"><ele>269.0</ele><time>2026-03-22T19:20:16.976Z</time></trkpt><trkpt lat="53.5859429" lon="-1.8592105"><ele>269.0</ele><time>2026-03-22T19:20:17.976Z</time></trkpt><trkpt lat="53.5860176" lon="-1.8593143"><ele>269.0</ele><time>2026-03-22T19:20:18.977Z</time></trkpt><trkpt lat="53.5860922" lon="-1.8594069"><ele>269.0</ele><time>2026-03-22T19:20:19.976Z</time></trkpt><trkpt lat="53.5861681" lon="-1.8594904"><ele>269.0</ele><time>2026-03-22T19:20:20.98Z</time></trkpt><trkpt lat="53.5862492" lon="-1.8595644"><ele>266.0</ele><time>2026-03-22T19:20:21.977Z</time></trkpt><trkpt lat="53.5863329" lon="-1.8596372"><ele>263.0</ele><time>2026-03-22T19:20:22.978Z</time></trkpt><trkpt lat="53.5864208" lon="-1.859714"><ele>260.0</ele><time>2026-03-22T19:20:23.977Z</time></trkpt><trkpt lat="53.5865091" lon="-1.8597942"><ele>257.0</ele><time>2026-03-22T19:20:24.976Z</time></trkpt><trkpt lat="53.5866011" lon="-1.8598867"><ele>254.0</ele><time>2026-03-22T19:20:25.978Z</time></trkpt><trkpt lat="53.5866904" lon="-1.8599985"><ele>254.0</ele><time>2026-03-22T19:20:26.979Z</time></trkpt><trkpt lat="53.5867823" lon="-1.8601134"><ele>254.0</ele><time>2026-03-22T19:20:27.977Z</time></trkpt><trkpt lat="53.5868749" lon="-1.8602332"><ele>254.0</ele><time>2026-03-22T19:20:28.979Z</time></trkpt><trkpt lat="53.5869644" lon="-1.8603493"><ele>254.0</ele><time>2026-03-22T19:20:29.977Z</time></trkpt><trkpt lat="53.5870526" lon="-1.8604621"><ele>252.2</ele><time>2026-03-22T19:20:30.979Z</time></trkpt><trkpt lat="53.5871387" lon="-1.8605709"><ele>250.39999999999998</ele><time>2026-03-22T19:20:31.98Z</time></trkpt><trkpt lat="53.5872195" lon="-1.8606705"><ele>248.6</ele><time>2026-03-22T19:20:32.98Z</time></trkpt><trkpt lat="53.5872938" lon="-1.8607611"><ele>246.8</ele><time>2026-03-22T19:20:33.98Z</time></trkpt><trkpt lat="53.5873587" lon="-1.8608477"><ele>245.0</ele><time>2026-03-22T19:20:34.979Z</time></trkpt><trkpt lat="53.5874138" lon="-1.8609198"><ele>245.00000000000003</ele><time>2026-03-22T19:20:35.979Z</time></trkpt><trkpt lat="53.5874735" lon="-1.8609954"><ele>245.0</ele><time>2026-03-22T19:20:37.986Z</time></trkpt><trkpt lat="53.5875377" lon="-1.8610842"><ele>245.0</ele><time>2026-03-22T19:20:40.985Z</time></trkpt><trkpt lat="53.5875931" lon="-1.8611569"><ele>245.0</ele><time>2026-03-22T19:20:41.979Z</time></trkpt><trkpt lat="53.5876683" lon="-1.8612639"><ele>245.00000000000003</ele><time>2026-03-22T19:20:42.98Z</time></trkpt><trkpt lat="53.5877543" lon="-1.8613859"><ele>245.0</ele><time>2026-03-22T19:20:43.984Z</time></trkpt><trkpt lat="53.5878462" lon="-1.8615319"><ele>245.0</ele><time>2026-03-22T19:20:44.981Z</time></trkpt><trkpt lat="53.5879301" lon="-1.8616694"><ele>245.0</ele><time>2026-03-22T19:20:45.978Z</time></trkpt><trkpt lat="53.5880206" lon="-1.8618133"><ele>245.0</ele><time>2026-03-22T19:20:46.979Z</time></trkpt><trkpt lat="53.5881102" lon="-1.8619621"><ele>245.0</ele><time>2026-03-22T19:20:47.976Z</time></trkpt><trkpt lat="53.5882009" lon="-1.8621066"><ele>245.5</ele><time>2026-03-22T19:20:48.978Z</time></trkpt><trkpt lat="53.588289" lon="-1.8622509"><ele>246.0</ele><time>2026-03-22T19:20:49.977Z</time></trkpt><trkpt lat="53.5883765" lon="-1.8623846"><ele>246.5</ele><time>2026-03-22T19:20:50.979Z</time></trkpt><trkpt lat="53.5884669" lon="-1.8625195"><ele>247.0</ele><time>2026-03-22T19:20:51.979Z</time></trkpt><trkpt lat="53.5885624" lon="-1.8626583"><ele>247.5</ele><time>2026-03-22T19:20:52.979Z</time></trkpt><trkpt lat="53.5886571" lon="-1.8628074"><ele>248.0</ele><time>2026-03-22T19:20:53.978Z</time></trkpt><trkpt lat="53.5887474" lon="-1.8629586"><ele>248.5</ele><time>2026-03-22T19:20:54.98Z</time></trkpt><trkpt lat="53.5888369" lon="-1.8631011"><ele>249.0</ele><time>2026-03-22T19:20:55.978Z</time></trkpt><trkpt lat="53.588926" lon="-1.8632395"><ele>245.0</ele><time>2026-03-22T19:20:56.979Z</time></trkpt><trkpt lat="53.589021" lon="-1.8633779"><ele>241.0</ele><time>2026-03-22T19:20:57.98Z</time></trkpt><trkpt lat="53.589121" lon="-1.8635263"><ele>237.0</ele><time>2026-03-22T19:20:58.983Z</time></trkpt><trkpt lat="53.5892265" lon="-1.8636823"><ele>233.0</ele><time>2026-03-22T19:20:59.979Z</time></trkpt><trkpt lat="53.5893332" lon="-1.8638417"><ele>233.0</ele><time>2026-03-22T19:21:00.981Z</time></trkpt><trkpt lat="53.5894397" lon="-1.8640083"><ele>233.0</ele><time>2026-03-22T19:21:01.981Z</time></trkpt><trkpt lat="53.5895447" lon="-1.8641862"><ele>233.0</ele><time>2026-03-22T19:21:02.982Z</time></trkpt><trkpt lat="53.5896513" lon="-1.8643548"><ele>233.0</ele><time>2026-03-22T19:21:03.979Z</time></trkpt><trkpt lat="53.589759" lon="-1.8645147"><ele>232.75</ele><time>2026-03-22T19:21:04.979Z</time></trkpt><trkpt lat="53.5898636" lon="-1.8646696"><ele>232.5</ele><time>2026-03-22T19:21:05.981Z</time></trkpt><trkpt lat="53.5899687" lon="-1.8648252"><ele>232.25</ele><time>2026-03-22T19:21:06.979Z</time></trkpt><trkpt lat="53.5900748" lon="-1.8649794"><ele>232.0</ele><time>2026-03-22T19:21:07.979Z</time></trkpt><trkpt lat="53.5901793" lon="-1.8651324"><ele>233.25</ele><time>2026-03-22T19:21:08.98Z</time></trkpt><trkpt lat="53.5902838" lon="-1.8652887"><ele>234.5</ele><time>2026-03-22T19:21:09.98Z</time></trkpt><trkpt lat="53.5903875" lon="-1.8654477"><ele>235.75</ele><time>2026-03-22T19:21:10.979Z</time></trkpt><trkpt lat="53.5904893" lon="-1.8656105"><ele>237.0</ele><time>2026-03-22T19:21:11.978Z</time></trkpt><trkpt lat="53.5905965" lon="-1.8657821"><ele>234.33333333333331</ele><time>2026-03-22T19:21:12.977Z</time></trkpt><trkpt lat="53.5907072" lon="-1.8659607"><ele>231.66666666666666</ele><time>2026-03-22T19:21:13.981Z</time></trkpt><trkpt lat="53.5908189" lon="-1.8661422"><ele>229.0</ele><time>2026-03-22T19:21:14.978Z</time></trkpt><trkpt lat="53.5909347" lon="-1.8663218"><ele>229.0</ele><time>2026-03-22T19:21:15.979Z</time></trkpt><trkpt lat="53.5910518" lon="-1.8664938"><ele>229.0</ele><time>2026-03-22T19:21:16.98Z</time></trkpt><trkpt lat="53.5911674" lon="-1.8666557"><ele>229.0</ele><time>2026-03-22T19:21:17.981Z</time></trkpt><trkpt lat="53.5912792" lon="-1.8668086"><ele>227.75</ele><time>2026-03-22T19:21:18.981Z</time></trkpt><trkpt lat="53.5913861" lon="-1.8669534"><ele>226.5</ele><time>2026-03-22T19:21:19.976Z</time></trkpt><trkpt lat="53.5914859" lon="-1.8670922"><ele>225.25</ele><time>2026-03-22T19:21:20.979Z</time></trkpt><trkpt lat="53.5915749" lon="-1.8672153"><ele>224.0</ele><time>2026-03-22T19:21:21.98Z</time></trkpt><trkpt lat="53.5916497" lon="-1.8673275"><ele>224.0</ele><time>2026-03-22T19:21:22.978Z</time></trkpt><trkpt lat="53.5917167" lon="-1.8674287"><ele>223.99999999999997</ele><time>2026-03-22T19:21:23.978Z</time></trkpt><trkpt lat="53.5917861" lon="-1.86753"><ele>223.99999999999997</ele><time>2026-03-22T19:21:24.978Z</time></trkpt><trkpt lat="53.5918794" lon="-1.867628"><ele>224.0</ele><time>2026-03-22T19:21:25.977Z</time></trkpt><trkpt lat="53.5919921" lon="-1.8677178"><ele>224.0</ele><time>2026-03-22T19:21:26.981Z</time></trkpt><trkpt lat="53.5921187" lon="-1.8678102"><ele>223.0</ele><time>2026-03-22T19:21:27.977Z</time></trkpt><trkpt lat="53.5922559" lon="-1.8679081"><ele>222.0</ele><time>2026-03-22T19:21:28.975Z</time></trkpt><trkpt lat="53.5923999" lon="-1.8680044"><ele>221.0</ele><time>2026-03-22T19:21:29.98Z</time></trkpt><trkpt lat="53.5925482" lon="-1.8681058"><ele>221.0</ele><time>2026-03-22T19:21:30.977Z</time></trkpt><trkpt lat="53.5927015" lon="-1.8682187"><ele>221.0</ele><time>2026-03-22T19:21:31.977Z</time></trkpt><trkpt lat="53.5928547" lon="-1.8683415"><ele>221.0</ele><time>2026-03-22T19:21:32.98Z</time></trkpt><trkpt lat="53.5930133" lon="-1.8684659"><ele>223.0</ele><time>2026-03-22T19:21:33.981Z</time></trkpt><trkpt lat="53.5931688" lon="-1.8685886"><ele>225.0</ele><time>2026-03-22T19:21:34.981Z</time></trkpt><trkpt lat="53.5933158" lon="-1.8687038"><ele>227.0</ele><time>2026-03-22T19:21:35.98Z</time></trkpt><trkpt lat="53.5934453" lon="-1.8688097"><ele>227.0</ele><time>2026-03-22T19:21:36.979Z</time></trkpt><trkpt lat="53.593562" lon="-1.8689104"><ele>227.0</ele><time>2026-03-22T19:21:37.981Z</time></trkpt><trkpt lat="53.5936685" lon="-1.8690019"><ele>227.0</ele><time>2026-03-22T19:21:38.981Z</time></trkpt><trkpt lat="53.5937624" lon="-1.8690768"><ele>227.0</ele><time>2026-03-22T19:21:39.979Z</time></trkpt><trkpt lat="53.5938446" lon="-1.8691419"><ele>227.0</ele><time>2026-03-22T19:21:40.979Z</time></trkpt><trkpt lat="53.5939146" lon="-1.8691987"><ele>227.8</ele><time>2026-03-22T19:21:41.977Z</time></trkpt><trkpt lat="53.5939738" lon="-1.8692483"><ele>228.6</ele><time>2026-03-22T19:21:42.978Z</time></trkpt><trkpt lat="53.5940698" lon="-1.8693384"><ele>229.40000000000003</ele><time>2026-03-22T19:21:44.978Z</time></trkpt><trkpt lat="53.5941518" lon="-1.8694022"><ele>230.20000000000002</ele><time>2026-03-22T19:21:46.979Z</time></trkpt><trkpt lat="53.5942279" lon="-1.8693899"><ele>231.0</ele><time>2026-03-22T19:21:48.981Z</time></trkpt><trkpt lat="53.5942858" lon="-1.8691619"><ele>231.0</ele><time>2026-03-22T19:21:50.979Z</time></trkpt><trkpt lat="53.5943065" lon="-1.8689552"><ele>231.0</ele><time>2026-03-22T19:21:51.977Z</time></trkpt><trkpt lat="53.594321" lon="-1.8687145"><ele>231.0</ele><time>2026-03-22T19:21:52.979Z</time></trkpt><trkpt lat="53.5943338" lon="-1.8684694"><ele>231.0</ele><time>2026-03-22T19:21:53.98Z</time></trkpt><trkpt lat="53.5943517" lon="-1.8682183"><ele>230.25</ele><time>2026-03-22T19:21:54.981Z</time></trkpt><trkpt lat="53.5943687" lon="-1.8679848"><ele>229.5</ele><time>2026-03-22T19:21:55.979Z</time></trkpt><trkpt lat="53.5943872" lon="-1.8677629"><ele>228.75</ele><time>2026-03-22T19:21:56.978Z</time></trkpt><trkpt lat="53.5944064" lon="-1.8675499"><ele>228.0</ele><time>2026-03-22T19:21:57.979Z</time></trkpt><trkpt lat="53.5944289" lon="-1.8673334"><ele>227.0</ele><time>2026-03-22T19:21:58.98Z</time></trkpt><trkpt lat="53.5944513" lon="-1.8671117"><ele>226.0</ele><time>2026-03-22T19:21:59.982Z</time></trkpt><trkpt lat="53.5944701" lon="-1.8668876"><ele>225.0</ele><time>2026-03-22T19:22:00.981Z</time></trkpt><trkpt lat="53.5944859" lon="-1.8666577"><ele>224.0</ele><time>2026-03-22T19:22:01.981Z</time></trkpt><trkpt lat="53.5945014" lon="-1.8664221"><ele>224.0</ele><time>2026-03-22T19:22:02.98Z</time></trkpt><trkpt lat="53.5945174" lon="-1.8661871"><ele>224.0</ele><time>2026-03-22T19:22:03.985Z</time></trkpt><trkpt lat="53.5945375" lon="-1.8659585"><ele>224.0</ele><time>2026-03-22T19:22:04.982Z</time></trkpt><trkpt lat="53.594561" lon="-1.8657355"><ele>224.0</ele><time>2026-03-22T19:22:05.981Z</time></trkpt><trkpt lat="53.5945843" lon="-1.8655105"><ele>224.0</ele><time>2026-03-22T19:22:06.976Z</time></trkpt><trkpt lat="53.5946044" lon="-1.8652749"><ele>224.0</ele><time>2026-03-22T19:22:07.981Z</time></trkpt><trkpt lat="53.5946237" lon="-1.8650333"><ele>224.0</ele><time>2026-03-22T19:22:08.983Z</time></trkpt><trkpt lat="53.5946426" lon="-1.8647874"><ele>224.0</ele><time>2026-03-22T19:22:09.982Z</time></trkpt><trkpt lat="53.5946619" lon="-1.8645477"><ele>223.75</ele><time>2026-03-22T19:22:10.98Z</time></trkpt><trkpt lat="53.5946842" lon="-1.8643257"><ele>223.5</ele><time>2026-03-22T19:22:11.978Z</time></trkpt><trkpt lat="53.594707" lon="-1.8641249"><ele>223.25</ele><time>2026-03-22T19:22:12.979Z</time></trkpt><trkpt lat="53.5947256" lon="-1.8639429"><ele>223.0</ele><time>2026-03-22T19:22:13.981Z</time></trkpt><trkpt lat="53.5947385" lon="-1.8637798"><ele>222.60000000000002</ele><time>2026-03-22T19:22:14.98Z</time></trkpt><trkpt lat="53.5947521" lon="-1.863625"><ele>222.20000000000002</ele><time>2026-03-22T19:22:15.978Z</time></trkpt><trkpt lat="53.5947704" lon="-1.8634702"><ele>221.8</ele><time>2026-03-22T19:22:16.973Z</time></trkpt><trkpt lat="53.5947929" lon="-1.8633108"><ele>221.4</ele><time>2026-03-22T19:22:17.979Z</time></trkpt><trkpt lat="53.5948127" lon="-1.8631393"><ele>221.0</ele><time>2026-03-22T19:22:18.981Z</time></trkpt><trkpt lat="53.5948252" lon="-1.8629502"><ele>220.75</ele><time>2026-03-22T19:22:19.981Z</time></trkpt><trkpt lat="53.5948333" lon="-1.8627458"><ele>220.5</ele><time>2026-03-22T19:22:20.98Z</time></trkpt><trkpt lat="53.594845" lon="-1.8625303"><ele>220.25</ele><time>2026-03-22T19:22:21.98Z</time></trkpt><trkpt lat="53.5948627" lon="-1.8623107"><ele>220.0</ele><time>2026-03-22T19:22:22.981Z</time></trkpt><trkpt lat="53.5948832" lon="-1.862099"><ele>219.6</ele><time>2026-03-22T19:22:23.979Z</time></trkpt><trkpt lat="53.594901" lon="-1.8619072"><ele>219.2</ele><time>2026-03-22T19:22:24.98Z</time></trkpt><trkpt lat="53.5949143" lon="-1.8617349"><ele>218.8</ele><time>2026-03-22T19:22:25.98Z</time></trkpt><trkpt lat="53.5949286" lon="-1.8615817"><ele>218.4</ele><time>2026-03-22T19:22:26.981Z</time></trkpt><trkpt lat="53.5949443" lon="-1.8614534"><ele>218.0</ele><time>2026-03-22T19:22:27.981Z</time></trkpt><trkpt lat="53.5949562" lon="-1.8613368"><ele>217.4</ele><time>2026-03-22T19:22:28.983Z</time></trkpt><trkpt lat="53.5949638" lon="-1.8612281"><ele>216.8</ele><time>2026-03-22T19:22:29.981Z</time></trkpt><trkpt lat="53.594984" lon="-1.861028"><ele>216.2</ele><time>2026-03-22T19:22:31.981Z</time></trkpt><trkpt lat="53.5950927" lon="-1.8609239"><ele>215.6</ele><time>2026-03-22T19:22:33.974Z</time></trkpt><trkpt lat="53.5951778" lon="-1.860961"><ele>215.0</ele><time>2026-03-22T19:22:34.98Z</time></trkpt><trkpt lat="53.595281" lon="-1.8610143"><ele>216.5</ele><time>2026-03-22T19:22:35.98Z</time></trkpt><trkpt lat="53.5953992" lon="-1.8610686"><ele>218.0</ele><time>2026-03-22T19:22:36.98Z</time></trkpt><trkpt lat="53.5955163" lon="-1.8611106"><ele>219.5</ele><time>2026-03-22T19:22:37.98Z</time></trkpt><trkpt lat="53.5956305" lon="-1.8611385"><ele>221.0</ele><time>2026-03-22T19:22:38.983Z</time></trkpt><trkpt lat="53.5957483" lon="-1.8611639"><ele>221.0</ele><time>2026-03-22T19:22:39.979Z</time></trkpt><trkpt lat="53.5958637" lon="-1.8611857"><ele>221.0</ele><time>2026-03-22T19:22:40.977Z</time></trkpt><trkpt lat="53.59598" lon="-1.8612054"><ele>221.0</ele><time>2026-03-22T19:22:41.977Z</time></trkpt><trkpt lat="53.596095" lon="-1.8612286"><ele>221.0</ele><time>2026-03-22T19:22:42.978Z</time></trkpt><trkpt lat="53.5962091" lon="-1.8612473"><ele>222.5</ele><time>2026-03-22T19:22:43.98Z</time></trkpt><trkpt lat="53.5963223" lon="-1.8612587"><ele>224.0</ele><time>2026-03-22T19:22:44.98Z</time></trkpt><trkpt lat="53.5964345" lon="-1.8612682"><ele>225.5</ele><time>2026-03-22T19:22:45.979Z</time></trkpt><trkpt lat="53.5965471" lon="-1.8612815"><ele>227.0</ele><time>2026-03-22T19:22:46.982Z</time></trkpt><trkpt lat="53.5966592" lon="-1.861299"><ele>227.0</ele><time>2026-03-22T19:22:47.978Z</time></trkpt><trkpt lat="53.5967711" lon="-1.8613182"><ele>227.0</ele><time>2026-03-22T19:22:48.98Z</time></trkpt><trkpt lat="53.5968838" lon="-1.8613357"><ele>227.0</ele><time>2026-03-22T19:22:49.978Z</time></trkpt><trkpt lat="53.5969936" lon="-1.8613481"><ele>227.0</ele><time>2026-03-22T19:22:50.981Z</time></trkpt><trkpt lat="53.597096" lon="-1.8613605"><ele>227.0</ele><time>2026-03-22T19:22:51.98Z</time></trkpt><trkpt lat="53.5971882" lon="-1.8613756"><ele>227.66666666666669</ele><time>2026-03-22T19:22:52.98Z</time></trkpt><trkpt lat="53.5972544" lon="-1.8613973"><ele>228.33333333333334</ele><time>2026-03-22T19:22:53.978Z</time></trkpt><trkpt lat="53.5973201" lon="-1.861397"><ele>229.0</ele><time>2026-03-22T19:22:54.98Z</time></trkpt><trkpt lat="53.5974264" lon="-1.861354"><ele>229.66666666666669</ele><time>2026-03-22T19:22:56.978Z</time></trkpt><trkpt lat="53.5974951" lon="-1.8613035"><ele>230.33333333333334</ele><time>2026-03-22T19:22:58.98Z</time></trkpt><trkpt lat="53.5975713" lon="-1.8613735"><ele>231.0</ele><time>2026-03-22T19:23:00.98Z</time></trkpt><trkpt lat="53.5976235" lon="-1.8614936"><ele>231.0</ele><time>2026-03-22T19:23:01.978Z</time></trkpt><trkpt lat="53.5977099" lon="-1.86169"><ele>231.0</ele><time>2026-03-22T19:23:02.981Z</time></trkpt><trkpt lat="53.5978124" lon="-1.8619151"><ele>231.0</ele><time>2026-03-22T19:23:03.98Z</time></trkpt><trkpt lat="53.5979188" lon="-1.8621332"><ele>232.66666666666669</ele><time>2026-03-22T19:23:04.98Z</time></trkpt><trkpt lat="53.5980265" lon="-1.8623488"><ele>234.33333333333334</ele><time>2026-03-22T19:23:05.981Z</time></trkpt><trkpt lat="53.5981283" lon="-1.8625468"><ele>236.0</ele><time>2026-03-22T19:23:06.977Z</time></trkpt><trkpt lat="53.5982299" lon="-1.8627364"><ele>237.0</ele><time>2026-03-22T19:23:07.978Z</time></trkpt><trkpt lat="53.5983299" lon="-1.8629229"><ele>238.0</ele><time>2026-03-22T19:23:08.98Z</time></trkpt><trkpt lat="53.5984246" lon="-1.8631136"><ele>239.0</ele><time>2026-03-22T19:23:09.977Z</time></trkpt><trkpt lat="53.598519" lon="-1.8633007"><ele>240.0</ele><time>2026-03-22T19:23:10.979Z</time></trkpt><trkpt lat="53.5986032" lon="-1.8634782"><ele>241.25</ele><time>2026-03-22T19:23:11.978Z</time></trkpt><trkpt lat="53.5986936" lon="-1.8636587"><ele>242.5</ele><time>2026-03-22T19:23:12.978Z</time></trkpt><trkpt lat="53.598783" lon="-1.8638425"><ele>243.75</ele><time>2026-03-22T19:23:13.98Z</time></trkpt><trkpt lat="53.5988751" lon="-1.8640233"><ele>245.0</ele><time>2026-03-22T19:23:14.978Z</time></trkpt><trkpt lat="53.5989612" lon="-1.8641969"><ele>245.25</ele><time>2026-03-22T19:23:15.977Z</time></trkpt><trkpt lat="53.5990402" lon="-1.864365"><ele>245.5</ele><time>2026-03-22T19:23:16.977Z</time></trkpt><trkpt lat="53.599119" lon="-1.8645381"><ele>245.75</ele><time>2026-03-22T19:23:17.979Z</time></trkpt><trkpt lat="53.5992001" lon="-1.864722"><ele>246.0</ele><time>2026-03-22T19:23:18.979Z</time></trkpt><trkpt lat="53.5992842" lon="-1.8649075"><ele>246.0</ele><time>2026-03-22T19:23:19.979Z</time></trkpt><trkpt lat="53.5993716" lon="-1.865086"><ele>246.0</ele><time>2026-03-22T19:23:20.979Z</time></trkpt><trkpt lat="53.5994474" lon="-1.865251"><ele>246.0</ele><time>2026-03-22T19:23:21.972Z</time></trkpt><trkpt lat="53.599509" lon="-1.8653966"><ele>246.0</ele><time>2026-03-22T19:23:22.97Z</time></trkpt><trkpt lat="53.599555" lon="-1.8655229"><ele>247.0</ele><time>2026-03-22T19:23:23.973Z</time></trkpt><trkpt lat="53.5995938" lon="-1.8656365"><ele>248.0</ele><time>2026-03-22T19:23:24.972Z</time></trkpt><trkpt lat="53.5996374" lon="-1.8657398"><ele>249.0</ele><time>2026-03-22T19:23:25.971Z</time></trkpt><trkpt lat="53.5996935" lon="-1.8658193"><ele>250.0</ele><time>2026-03-22T19:23:26.971Z</time></trkpt><trkpt lat="53.599789" lon="-1.8658462"><ele>251.0</ele><time>2026-03-22T19:23:27.971Z</time></trkpt><trkpt lat="53.5999115" lon="-1.8658324"><ele>252.0</ele><time>2026-03-22T19:23:28.972Z</time></trkpt><trkpt lat="53.6000567" lon="-1.8657978"><ele>252.0</ele><time>2026-03-22T19:23:29.979Z</time></trkpt><trkpt lat="53.6002284" lon="-1.8657602"><ele>252.0</ele><time>2026-03-22T19:23:30.98Z</time></trkpt><trkpt lat="53.6004072" lon="-1.8657234"><ele>252.0</ele><time>2026-03-22T19:23:31.982Z</time></trkpt><trkpt lat="53.6006083" lon="-1.865698"><ele>253.66666666666669</ele><time>2026-03-22T19:23:32.98Z</time></trkpt><trkpt lat="53.6008025" lon="-1.8656725"><ele>255.33333333333334</ele><time>2026-03-22T19:23:33.979Z</time></trkpt><trkpt lat="53.6009987" lon="-1.8656553"><ele>257.0</ele><time>2026-03-22T19:23:34.981Z</time></trkpt><trkpt lat="53.601196" lon="-1.8656479"><ele>259.33333333333337</ele><time>2026-03-22T19:23:35.983Z</time></trkpt><trkpt lat="53.6013981" lon="-1.8656436"><ele>261.6666666666667</ele><time>2026-03-22T19:23:36.981Z</time></trkpt><trkpt lat="53.6015975" lon="-1.8656382"><ele>264.0</ele><time>2026-03-22T19:23:37.981Z</time></trkpt><trkpt lat="53.6017944" lon="-1.8656276"><ele>264.0</ele><time>2026-03-22T19:23:38.983Z</time></trkpt><trkpt lat="53.6019905" lon="-1.8656137"><ele>264.0</ele><time>2026-03-22T19:23:39.982Z</time></trkpt><trkpt lat="53.602189" lon="-1.8655985"><ele>264.0</ele><time>2026-03-22T19:23:40.982Z</time></trkpt><trkpt lat="53.6023891" lon="-1.8655818"><ele>265.0</ele><time>2026-03-22T19:23:41.979Z</time></trkpt><trkpt lat="53.6025906" lon="-1.8655627"><ele>266.0</ele><time>2026-03-22T19:23:42.975Z</time></trkpt><trkpt lat="53.6027904" lon="-1.8655477"><ele>267.0</ele><time>2026-03-22T19:23:43.981Z</time></trkpt><trkpt lat="53.6029908" lon="-1.8655351"><ele>267.6666666666667</ele><time>2026-03-22T19:23:44.979Z</time></trkpt><trkpt lat="53.6031906" lon="-1.8655301"><ele>268.33333333333337</ele><time>2026-03-22T19:23:45.979Z</time></trkpt><trkpt lat="53.6033938" lon="-1.8655145"><ele>269.0</ele><time>2026-03-22T19:23:46.979Z</time></trkpt><trkpt lat="53.6035968" lon="-1.8654967"><ele>270.33333333333337</ele><time>2026-03-22T19:23:47.966Z</time></trkpt><trkpt lat="53.6037984" lon="-1.8654779"><ele>271.6666666666667</ele><time>2026-03-22T19:23:48.965Z</time></trkpt><trkpt lat="53.6039974" lon="-1.8654605"><ele>273.0</ele><time>2026-03-22T19:23:49.97Z</time></trkpt><trkpt lat="53.6041949" lon="-1.8654453"><ele>273.0</ele><time>2026-03-22T19:23:50.973Z</time></trkpt><trkpt lat="53.6043919" lon="-1.8654337"><ele>273.0</ele><time>2026-03-22T19:23:51.975Z</time></trkpt><trkpt lat="53.6045767" lon="-1.8654228"><ele>273.0</ele><time>2026-03-22T19:23:52.972Z</time></trkpt><trkpt lat="53.6047444" lon="-1.8654089"><ele>273.8</ele><time>2026-03-22T19:23:53.981Z</time></trkpt><trkpt lat="53.6048843" lon="-1.8653906"><ele>274.6</ele><time>2026-03-22T19:23:54.979Z</time></trkpt><trkpt lat="53.6049959" lon="-1.8653728"><ele>275.4</ele><time>2026-03-22T19:23:55.97Z</time></trkpt><trkpt lat="53.605096" lon="-1.8653591"><ele>276.2</ele><time>2026-03-22T19:23:56.981Z</time></trkpt><trkpt lat="53.6051759" lon="-1.8653437"><ele>277.0</ele><time>2026-03-22T19:23:57.981Z</time></trkpt><trkpt lat="53.6052687" lon="-1.8653481"><ele>277.5</ele><time>2026-03-22T19:23:58.979Z</time></trkpt><trkpt lat="53.6053648" lon="-1.8653709"><ele>278.0</ele><time>2026-03-22T19:23:59.97Z</time></trkpt><trkpt lat="53.6054776" lon="-1.8654135"><ele>278.5</ele><time>2026-03-22T19:24:00.979Z</time></trkpt><trkpt lat="53.6055972" lon="-1.865453"><ele>279.0</ele><time>2026-03-22T19:24:01.983Z</time></trkpt><trkpt lat="53.6057188" lon="-1.865497"><ele>279.0</ele><time>2026-03-22T19:24:02.983Z</time></trkpt><trkpt lat="53.6058419" lon="-1.8655436"><ele>279.0</ele><time>2026-03-22T19:24:03.988Z</time></trkpt><trkpt lat="53.6059682" lon="-1.8655844"><ele>279.0</ele><time>2026-03-22T19:24:04.983Z</time></trkpt><trkpt lat="53.6060951" lon="-1.8656237"><ele>279.0</ele><time>2026-03-22T19:24:05.985Z</time></trkpt><trkpt lat="53.6062253" lon="-1.8656626"><ele>279.5</ele><time>2026-03-22T19:24:06.986Z</time></trkpt><trkpt lat="53.6063548" lon="-1.8657017"><ele>280.0</ele><time>2026-03-22T19:24:07.982Z</time></trkpt><trkpt lat="53.6064808" lon="-1.8657359"><ele>280.5</ele><time>2026-03-22T19:24:08.985Z</time></trkpt><trkpt lat="53.6066042" lon="-1.8657685"><ele>281.0</ele><time>2026-03-22T19:24:09.984Z</time></trkpt><trkpt lat="53.6067227" lon="-1.8657939"><ele>281.0</ele><time>2026-03-22T19:24:10.986Z</time></trkpt><trkpt lat="53.606833" lon="-1.8658169"><ele>281.0</ele><time>2026-03-22T19:24:11.98Z</time></trkpt><trkpt lat="53.6069454" lon="-1.8658466"><ele>281.0</ele><time>2026-03-22T19:24:12.981Z</time></trkpt><trkpt lat="53.6070594" lon="-1.8658829"><ele>281.0</ele><time>2026-03-22T19:24:13.981Z</time></trkpt><trkpt lat="53.6071784" lon="-1.8659214"><ele>282.0</ele><time>2026-03-22T19:24:14.981Z</time></trkpt><trkpt lat="53.6073013" lon="-1.8659634"><ele>283.0</ele><time>2026-03-22T19:24:15.981Z</time></trkpt><trkpt lat="53.6074309" lon="-1.8660076"><ele>284.0</ele><time>2026-03-22T19:24:16.978Z</time></trkpt><trkpt lat="53.6075644" lon="-1.866053"><ele>285.0</ele><time>2026-03-22T19:24:17.979Z</time></trkpt><trkpt lat="53.6076992" lon="-1.8660958"><ele>285.0</ele><time>2026-03-22T19:24:18.984Z</time></trkpt><trkpt lat="53.6078359" lon="-1.8661375"><ele>285.0</ele><time>2026-03-22T19:24:19.982Z</time></trkpt><trkpt lat="53.6079707" lon="-1.8661792"><ele>285.0</ele><time>2026-03-22T19:24:20.98Z</time></trkpt><trkpt lat="53.6081024" lon="-1.8662237"><ele>285.0</ele><time>2026-03-22T19:24:21.978Z</time></trkpt><trkpt lat="53.6082272" lon="-1.8662625"><ele>285.0</ele><time>2026-03-22T19:24:22.98Z</time></trkpt><trkpt lat="53.6083559" lon="-1.8663049"><ele>285.0</ele><time>2026-03-22T19:24:23.982Z</time></trkpt><trkpt lat="53.6084825" lon="-1.8663432"><ele>285.0</ele><time>2026-03-22T19:24:24.985Z</time></trkpt><trkpt lat="53.6086116" lon="-1.8663835"><ele>285.0</ele><time>2026-03-22T19:24:25.98Z</time></trkpt><trkpt lat="53.6087422" lon="-1.866422"><ele>285.75</ele><time>2026-03-22T19:24:26.981Z</time></trkpt><trkpt lat="53.6088716" lon="-1.8664605"><ele>286.5</ele><time>2026-03-22T19:24:27.985Z</time></trkpt><trkpt lat="53.6090032" lon="-1.8665013"><ele>287.25</ele><time>2026-03-22T19:24:28.987Z</time></trkpt><trkpt lat="53.6091397" lon="-1.8665501"><ele>288.0</ele><time>2026-03-22T19:24:29.985Z</time></trkpt><trkpt lat="53.6092805" lon="-1.8666013"><ele>288.0</ele><time>2026-03-22T19:24:30.984Z</time></trkpt><trkpt lat="53.6094208" lon="-1.8666491"><ele>288.0</ele><time>2026-03-22T19:24:31.982Z</time></trkpt><trkpt lat="53.6095549" lon="-1.8666927"><ele>288.0</ele><time>2026-03-22T19:24:32.983Z</time></trkpt><trkpt lat="53.6096896" lon="-1.8667396"><ele>288.0</ele><time>2026-03-22T19:24:33.985Z</time></trkpt><trkpt lat="53.6098235" lon="-1.8667891"><ele>288.75</ele><time>2026-03-22T19:24:34.983Z</time></trkpt><trkpt lat="53.6099576" lon="-1.8668404"><ele>289.5</ele><time>2026-03-22T19:24:35.989Z</time></trkpt><trkpt lat="53.6100966" lon="-1.8668913"><ele>290.25</ele><time>2026-03-22T19:24:36.983Z</time></trkpt><trkpt lat="53.6102344" lon="-1.866948"><ele>291.0</ele><time>2026-03-22T19:24:37.984Z</time></trkpt><trkpt lat="53.6103771" lon="-1.8669995"><ele>291.0</ele><time>2026-03-22T19:24:38.984Z</time></trkpt><trkpt lat="53.6105158" lon="-1.8670458"><ele>291.0</ele><time>2026-03-22T19:24:39.987Z</time></trkpt><trkpt lat="53.6106514" lon="-1.8670872"><ele>291.0</ele><time>2026-03-22T19:24:40.988Z</time></trkpt><trkpt lat="53.6107797" lon="-1.8671219"><ele>291.0</ele><time>2026-03-22T19:24:41.985Z</time></trkpt><trkpt lat="53.6109041" lon="-1.8671473"><ele>291.0</ele><time>2026-03-22T19:24:42.986Z</time></trkpt><trkpt lat="53.6110207" lon="-1.8671787"><ele>291.0</ele><time>2026-03-22T19:24:43.981Z</time></trkpt><trkpt lat="53.6111409" lon="-1.867217"><ele>291.0</ele><time>2026-03-22T19:24:44.984Z</time></trkpt><trkpt lat="53.6112597" lon="-1.867265"><ele>291.0</ele><time>2026-03-22T19:24:45.982Z</time></trkpt><trkpt lat="53.6113827" lon="-1.8673157"><ele>291.0</ele><time>2026-03-22T19:24:46.982Z</time></trkpt><trkpt lat="53.6115087" lon="-1.8673624"><ele>291.0</ele><time>2026-03-22T19:24:47.982Z</time></trkpt><trkpt lat="53.6116342" lon="-1.8674009"><ele>291.0</ele><time>2026-03-22T19:24:48.982Z</time></trkpt><trkpt lat="53.6117529" lon="-1.8674355"><ele>291.0</ele><time>2026-03-22T19:24:49.981Z</time></trkpt><trkpt lat="53.611871" lon="-1.8674672"><ele>291.0</ele><time>2026-03-22T19:24:50.985Z</time></trkpt><trkpt lat="53.6119856" lon="-1.8675002"><ele>291.0</ele><time>2026-03-22T19:24:51.98Z</time></trkpt><trkpt lat="53.6120972" lon="-1.8675333"><ele>291.0</ele><time>2026-03-22T19:24:52.981Z</time></trkpt><trkpt lat="53.6122028" lon="-1.8675616"><ele>291.0</ele><time>2026-03-22T19:24:53.98Z</time></trkpt><trkpt lat="53.6123134" lon="-1.8675988"><ele>291.0</ele><time>2026-03-22T19:24:54.981Z</time></trkpt><trkpt lat="53.6124242" lon="-1.8676388"><ele>290.5</ele><time>2026-03-22T19:24:55.982Z</time></trkpt><trkpt lat="53.6125348" lon="-1.8676778"><ele>290.0</ele><time>2026-03-22T19:24:56.983Z</time></trkpt><trkpt lat="53.6126472" lon="-1.8677121"><ele>289.5</ele><time>2026-03-22T19:24:57.981Z</time></trkpt><trkpt lat="53.6127631" lon="-1.8677482"><ele>289.0</ele><time>2026-03-22T19:24:58.981Z</time></trkpt><trkpt lat="53.6128816" lon="-1.8677815"><ele>288.59999999999997</ele><time>2026-03-22T19:24:59.982Z</time></trkpt><trkpt lat="53.6129932" lon="-1.8678083"><ele>288.2</ele><time>2026-03-22T19:25:00.982Z</time></trkpt><trkpt lat="53.6130959" lon="-1.8678446"><ele>287.79999999999995</ele><time>2026-03-22T19:25:01.986Z</time></trkpt><trkpt lat="53.6131848" lon="-1.8678792"><ele>287.4</ele><time>2026-03-22T19:25:02.983Z</time></trkpt><trkpt lat="53.6132554" lon="-1.8679058"><ele>287.0</ele><time>2026-03-22T19:25:03.984Z</time></trkpt><trkpt lat="53.6133584" lon="-1.8679355"><ele>287.0</ele><time>2026-03-22T19:25:05.985Z</time></trkpt><trkpt lat="53.6134222" lon="-1.8679581"><ele>287.0</ele><time>2026-03-22T19:25:07.986Z</time></trkpt><trkpt lat="53.6134674" lon="-1.8680339"><ele>287.0</ele><time>2026-03-22T19:25:37.977Z</time></trkpt><trkpt lat="53.6134635" lon="-1.868267"><ele>287.0</ele><time>2026-03-22T19:25:39.994Z</time></trkpt><trkpt lat="53.6134404" lon="-1.8684509"><ele>287.0</ele><time>2026-03-22T19:25:40.989Z</time></trkpt><trkpt lat="53.6134027" lon="-1.8686586"><ele>285.75</ele><time>2026-03-22T19:25:41.984Z</time></trkpt><trkpt lat="53.6133619" lon="-1.8688711"><ele>284.5</ele><time>2026-03-22T19:25:42.979Z</time></trkpt><trkpt lat="53.6133249" lon="-1.8690798"><ele>283.25</ele><time>2026-03-22T19:25:43.975Z</time></trkpt><trkpt lat="53.6132826" lon="-1.8692736"><ele>282.0</ele><time>2026-03-22T19:25:44.98Z</time></trkpt><trkpt lat="53.6132107" lon="-1.8694845"><ele>279.75</ele><time>2026-03-22T19:25:45.984Z</time></trkpt><trkpt lat="53.6131463" lon="-1.8696616"><ele>277.5</ele><time>2026-03-22T19:25:46.984Z</time></trkpt><trkpt lat="53.6130828" lon="-1.8698259"><ele>275.25</ele><time>2026-03-22T19:25:47.986Z</time></trkpt><trkpt lat="53.6130095" lon="-1.8699792"><ele>273.0</ele><time>2026-03-22T19:25:48.988Z</time></trkpt><trkpt lat="53.612926" lon="-1.870123"><ele>273.3333333333333</ele><time>2026-03-22T19:25:49.982Z</time></trkpt><trkpt lat="53.6128542" lon="-1.8702638"><ele>273.6666666666667</ele><time>2026-03-22T19:25:50.984Z</time></trkpt><trkpt lat="53.6127931" lon="-1.8703874"><ele>274.0</ele><time>2026-03-22T19:25:51.984Z</time></trkpt><trkpt lat="53.6127468" lon="-1.870486"><ele>274.33333333333337</ele><time>2026-03-22T19:25:52.979Z</time></trkpt><trkpt lat="53.6126859" lon="-1.8706197"><ele>274.6666666666667</ele><time>2026-03-22T19:25:54.985Z</time></trkpt><trkpt lat="53.6126552" lon="-1.8707222"><ele>275.0</ele><time>2026-03-22T19:25:56.984Z</time></trkpt><trkpt lat="53.612734" lon="-1.8707852"><ele>275.0</ele><time>2026-03-22T19:25:59.987Z</time></trkpt><trkpt lat="53.6127953" lon="-1.8707499"><ele>275.0</ele><time>2026-03-22T19:26:00.986Z</time></trkpt><trkpt lat="53.6128718" lon="-1.8706754"><ele>275.0</ele><time>2026-03-22T19:26:01.99Z</time></trkpt><trkpt lat="53.6129602" lon="-1.8705827"><ele>275.0</ele><time>2026-03-22T19:26:02.987Z</time></trkpt><trkpt lat="53.6130749" lon="-1.8704776"><ele>275.0</ele><time>2026-03-22T19:26:03.983Z</time></trkpt><trkpt lat="53.6132123" lon="-1.8703508"><ele>274.33333333333337</ele><time>2026-03-22T19:26:04.984Z</time></trkpt><trkpt lat="53.6133696" lon="-1.8702253"><ele>273.6666666666667</ele><time>2026-03-22T19:26:05.984Z</time></trkpt><trkpt lat="53.6135047" lon="-1.870114"><ele>273.0</ele><time>2026-03-22T19:26:06.987Z</time></trkpt><trkpt lat="53.6136382" lon="-1.8700305"><ele>269.3333333333333</ele><time>2026-03-22T19:26:07.982Z</time></trkpt><trkpt lat="53.6137801" lon="-1.8699471"><ele>265.66666666666663</ele><time>2026-03-22T19:26:08.986Z</time></trkpt><trkpt lat="53.6139278" lon="-1.869858"><ele>262.0</ele><time>2026-03-22T19:26:09.981Z</time></trkpt><trkpt lat="53.6140761" lon="-1.8697625"><ele>262.0</ele><time>2026-03-22T19:26:10.982Z</time></trkpt><trkpt lat="53.6142145" lon="-1.8696601"><ele>262.0</ele><time>2026-03-22T19:26:11.976Z</time></trkpt><trkpt lat="53.6143481" lon="-1.8695496"><ele>262.0</ele><time>2026-03-22T19:26:12.976Z</time></trkpt><trkpt lat="53.6144801" lon="-1.8694252"><ele>261.0</ele><time>2026-03-22T19:26:13.977Z</time></trkpt><trkpt lat="53.6146091" lon="-1.8692856"><ele>260.0</ele><time>2026-03-22T19:26:14.977Z</time></trkpt><trkpt lat="53.6147373" lon="-1.8691344"><ele>259.0</ele><time>2026-03-22T19:26:15.977Z</time></trkpt><trkpt lat="53.6148648" lon="-1.8689798"><ele>259.0</ele><time>2026-03-22T19:26:16.976Z</time></trkpt><trkpt lat="53.6149918" lon="-1.8688312"><ele>259.0</ele><time>2026-03-22T19:26:17.977Z</time></trkpt><trkpt lat="53.6151111" lon="-1.8686795"><ele>259.0</ele><time>2026-03-22T19:26:18.979Z</time></trkpt><trkpt lat="53.6152307" lon="-1.8685307"><ele>258.0</ele><time>2026-03-22T19:26:19.972Z</time></trkpt><trkpt lat="53.615353" lon="-1.8683904"><ele>257.0</ele><time>2026-03-22T19:26:20.979Z</time></trkpt><trkpt lat="53.6154756" lon="-1.8682551"><ele>256.0</ele><time>2026-03-22T19:26:21.975Z</time></trkpt><trkpt lat="53.615596" lon="-1.8681222"><ele>255.0</ele><time>2026-03-22T19:26:22.977Z</time></trkpt><trkpt lat="53.6157156" lon="-1.8680016"><ele>255.0</ele><time>2026-03-22T19:26:23.974Z</time></trkpt><trkpt lat="53.6158373" lon="-1.8678832"><ele>255.0</ele><time>2026-03-22T19:26:24.976Z</time></trkpt><trkpt lat="53.6159595" lon="-1.8677694"><ele>255.0</ele><time>2026-03-22T19:26:25.978Z</time></trkpt><trkpt lat="53.6160762" lon="-1.8676585"><ele>255.0</ele><time>2026-03-22T19:26:26.98Z</time></trkpt><trkpt lat="53.6161882" lon="-1.8675507"><ele>254.0</ele><time>2026-03-22T19:26:27.979Z</time></trkpt><trkpt lat="53.6162921" lon="-1.8674537"><ele>253.0</ele><time>2026-03-22T19:26:28.978Z</time></trkpt><trkpt lat="53.6163925" lon="-1.8673633"><ele>252.0</ele><time>2026-03-22T19:26:29.977Z</time></trkpt><trkpt lat="53.6164831" lon="-1.8672766"><ele>251.0</ele><time>2026-03-22T19:26:30.977Z</time></trkpt><trkpt lat="53.6165717" lon="-1.8671865"><ele>250.0</ele><time>2026-03-22T19:26:31.983Z</time></trkpt><trkpt lat="53.6166589" lon="-1.8670963"><ele>249.99999999999997</ele><time>2026-03-22T19:26:32.985Z</time></trkpt><trkpt lat="53.6167428" lon="-1.8670152"><ele>250.0</ele><time>2026-03-22T19:26:33.985Z</time></trkpt><trkpt lat="53.6168177" lon="-1.8669442"><ele>250.0</ele><time>2026-03-22T19:26:34.982Z</time></trkpt><trkpt lat="53.6168804" lon="-1.8668889"><ele>250.0</ele><time>2026-03-22T19:26:35.982Z</time></trkpt><trkpt lat="53.6169713" lon="-1.8668045"><ele>249.99999999999997</ele><time>2026-03-22T19:26:37.986Z</time></trkpt><trkpt lat="53.6170473" lon="-1.8668113"><ele>250.0</ele><time>2026-03-22T19:26:40.983Z</time></trkpt><trkpt lat="53.6170567" lon="-1.8670361"><ele>248.0</ele><time>2026-03-22T19:26:42.979Z</time></trkpt><trkpt lat="53.617045" lon="-1.8672168"><ele>246.0</ele><time>2026-03-22T19:26:43.979Z</time></trkpt><trkpt lat="53.617041" lon="-1.8674232"><ele>244.0</ele><time>2026-03-22T19:26:44.98Z</time></trkpt><trkpt lat="53.6170607" lon="-1.8676299"><ele>242.0</ele><time>2026-03-22T19:26:45.976Z</time></trkpt><trkpt lat="53.6170988" lon="-1.8678337"><ele>241.6</ele><time>2026-03-22T19:26:46.976Z</time></trkpt><trkpt lat="53.6171634" lon="-1.8680204"><ele>241.2</ele><time>2026-03-22T19:26:47.976Z</time></trkpt><trkpt lat="53.6172329" lon="-1.8681817"><ele>240.8</ele><time>2026-03-22T19:26:48.979Z</time></trkpt><trkpt lat="53.6173034" lon="-1.8683065"><ele>240.4</ele><time>2026-03-22T19:26:49.979Z</time></trkpt><trkpt lat="53.6173667" lon="-1.8684216"><ele>240.0</ele><time>2026-03-22T19:26:50.978Z</time></trkpt><trkpt lat="53.6174287" lon="-1.8685465"><ele>238.75</ele><time>2026-03-22T19:26:51.978Z</time></trkpt><trkpt lat="53.6174801" lon="-1.8687002"><ele>237.5</ele><time>2026-03-22T19:26:52.979Z</time></trkpt><trkpt lat="53.6175128" lon="-1.8688824"><ele>236.25</ele><time>2026-03-22T19:26:53.98Z</time></trkpt><trkpt lat="53.6175202" lon="-1.8690911"><ele>235.0</ele><time>2026-03-22T19:26:54.979Z</time></trkpt><trkpt lat="53.6175059" lon="-1.8693063"><ele>233.75</ele><time>2026-03-22T19:26:55.977Z</time></trkpt><trkpt lat="53.6174846" lon="-1.8695302"><ele>232.5</ele><time>2026-03-22T19:26:56.98Z</time></trkpt><trkpt lat="53.6174652" lon="-1.8697368"><ele>231.25</ele><time>2026-03-22T19:26:57.979Z</time></trkpt><trkpt lat="53.6174429" lon="-1.8699292"><ele>230.0</ele><time>2026-03-22T19:26:58.979Z</time></trkpt><trkpt lat="53.6174298" lon="-1.8701103"><ele>229.2</ele><time>2026-03-22T19:26:59.982Z</time></trkpt><trkpt lat="53.6174242" lon="-1.8702921"><ele>228.4</ele><time>2026-03-22T19:27:00.98Z</time></trkpt><trkpt lat="53.6174236" lon="-1.8704779"><ele>227.60000000000002</ele><time>2026-03-22T19:27:01.986Z</time></trkpt><trkpt lat="53.6174239" lon="-1.8706589"><ele>226.8</ele><time>2026-03-22T19:27:02.983Z</time></trkpt><trkpt lat="53.617422" lon="-1.870831"><ele>226.0</ele><time>2026-03-22T19:27:03.988Z</time></trkpt><trkpt lat="53.6174169" lon="-1.8709894"><ele>225.33333333333331</ele><time>2026-03-22T19:27:04.985Z</time></trkpt><trkpt lat="53.6174055" lon="-1.8711345"><ele>224.66666666666666</ele><time>2026-03-22T19:27:05.984Z</time></trkpt><trkpt lat="53.6173852" lon="-1.871262"><ele>224.0</ele><time>2026-03-22T19:27:06.982Z</time></trkpt><trkpt lat="53.6173557" lon="-1.8713627"><ele>223.33333333333331</ele><time>2026-03-22T19:27:07.983Z</time></trkpt><trkpt lat="53.6173147" lon="-1.8714988"><ele>222.66666666666666</ele><time>2026-03-22T19:27:09.984Z</time></trkpt><trkpt lat="53.617396" lon="-1.871649"><ele>222.0</ele><time>2026-03-22T19:27:11.977Z</time></trkpt><trkpt lat="53.6175014" lon="-1.8717313"><ele>221.25</ele><time>2026-03-22T19:27:12.979Z</time></trkpt><trkpt lat="53.6176223" lon="-1.8718194"><ele>220.5</ele><time>2026-03-22T19:27:13.978Z</time></trkpt><trkpt lat="53.6177366" lon="-1.871922"><ele>219.75</ele><time>2026-03-22T19:27:14.978Z</time></trkpt><trkpt lat="53.617845" lon="-1.8720247"><ele>219.0</ele><time>2026-03-22T19:27:15.977Z</time></trkpt><trkpt lat="53.6179466" lon="-1.8721269"><ele>217.6</ele><time>2026-03-22T19:27:16.976Z</time></trkpt><trkpt lat="53.6180329" lon="-1.8722303"><ele>216.2</ele><time>2026-03-22T19:27:17.977Z</time></trkpt><trkpt lat="53.6180966" lon="-1.8723408"><ele>214.79999999999998</ele><time>2026-03-22T19:27:18.976Z</time></trkpt><trkpt lat="53.6181486" lon="-1.8724411"><ele>213.39999999999998</ele><time>2026-03-22T19:27:19.98Z</time></trkpt><trkpt lat="53.6181957" lon="-1.8725143"><ele>212.0</ele><time>2026-03-22T19:27:20.978Z</time></trkpt><trkpt lat="53.6183142" lon="-1.87257"><ele>212.0</ele><time>2026-03-22T19:27:22.978Z</time></trkpt><trkpt lat="53.6183939" lon="-1.8725463"><ele>212.0</ele><time>2026-03-22T19:27:23.982Z</time></trkpt><trkpt lat="53.6184837" lon="-1.8724778"><ele>212.0</ele><time>2026-03-22T19:27:24.979Z</time></trkpt><trkpt lat="53.618573" lon="-1.8723754"><ele>212.0</ele><time>2026-03-22T19:27:25.98Z</time></trkpt><trkpt lat="53.6186568" lon="-1.8722761"><ele>212.0</ele><time>2026-03-22T19:27:26.979Z</time></trkpt><trkpt lat="53.6187408" lon="-1.8721893"><ele>209.6</ele><time>2026-03-22T19:27:27.977Z</time></trkpt><trkpt lat="53.6188279" lon="-1.8721349"><ele>207.2</ele><time>2026-03-22T19:27:28.978Z</time></trkpt><trkpt lat="53.6189205" lon="-1.8721248"><ele>204.8</ele><time>2026-03-22T19:27:29.978Z</time></trkpt><trkpt lat="53.6190193" lon="-1.8721667"><ele>202.4</ele><time>2026-03-22T19:27:30.979Z</time></trkpt><trkpt lat="53.619109" lon="-1.8722377"><ele>200.0</ele><time>2026-03-22T19:27:31.981Z</time></trkpt><trkpt lat="53.6191864" lon="-1.8723473"><ele>200.0</ele><time>2026-03-22T19:27:32.982Z</time></trkpt><trkpt lat="53.6192477" lon="-1.87248"><ele>200.0</ele><time>2026-03-22T19:27:33.984Z</time></trkpt><trkpt lat="53.619287" lon="-1.8726276"><ele>200.0</ele><time>2026-03-22T19:27:34.984Z</time></trkpt><trkpt lat="53.6192977" lon="-1.8727874"><ele>200.0</ele><time>2026-03-22T19:27:35.985Z</time></trkpt><trkpt lat="53.6192798" lon="-1.8729397"><ele>200.0</ele><time>2026-03-22T19:27:36.983Z</time></trkpt><trkpt lat="53.6192473" lon="-1.8730785"><ele>198.6</ele><time>2026-03-22T19:27:37.983Z</time></trkpt><trkpt lat="53.6192146" lon="-1.8731947"><ele>197.2</ele><time>2026-03-22T19:27:38.983Z</time></trkpt><trkpt lat="53.619216" lon="-1.8733787"><ele>195.8</ele><time>2026-03-22T19:27:40.985Z</time></trkpt><trkpt lat="53.6192809" lon="-1.8734341"><ele>194.4</ele><time>2026-03-22T19:27:41.976Z</time></trkpt><trkpt lat="53.6193811" lon="-1.8734595"><ele>193.0</ele><time>2026-03-22T19:27:42.976Z</time></trkpt><trkpt lat="53.6195029" lon="-1.8734494"><ele>190.2</ele><time>2026-03-22T19:27:43.976Z</time></trkpt><trkpt lat="53.6196351" lon="-1.8734517"><ele>187.4</ele><time>2026-03-22T19:27:44.978Z</time></trkpt><trkpt lat="53.6197631" lon="-1.8734678"><ele>184.6</ele><time>2026-03-22T19:27:45.976Z</time></trkpt><trkpt lat="53.6198652" lon="-1.8734971"><ele>181.79999999999998</ele><time>2026-03-22T19:27:46.983Z</time></trkpt><trkpt lat="53.6199456" lon="-1.8735293"><ele>179.0</ele><time>2026-03-22T19:27:47.982Z</time></trkpt><trkpt lat="53.6200259" lon="-1.8735768"><ele>179.0</ele><time>2026-03-22T19:27:48.984Z</time></trkpt><trkpt lat="53.6201186" lon="-1.8736395"><ele>179.0</ele><time>2026-03-22T19:27:49.978Z</time></trkpt><trkpt lat="53.6202253" lon="-1.8737108"><ele>179.0</ele><time>2026-03-22T19:27:50.975Z</time></trkpt><trkpt lat="53.6203355" lon="-1.8737856"><ele>179.0</ele><time>2026-03-22T19:27:51.976Z</time></trkpt><trkpt lat="53.6204357" lon="-1.873853"><ele>179.0</ele><time>2026-03-22T19:27:52.977Z</time></trkpt><trkpt lat="53.6205334" lon="-1.8739004"><ele>177.0</ele><time>2026-03-22T19:27:53.977Z</time></trkpt><trkpt lat="53.6206374" lon="-1.8739159"><ele>175.0</ele><time>2026-03-22T19:27:54.975Z</time></trkpt><trkpt lat="53.6207521" lon="-1.8739056"><ele>173.0</ele><time>2026-03-22T19:27:55.977Z</time></trkpt><trkpt lat="53.6208764" lon="-1.8738758"><ele>171.0</ele><time>2026-03-22T19:27:56.977Z</time></trkpt><trkpt lat="53.6209967" lon="-1.8738395"><ele>171.0</ele><time>2026-03-22T19:27:57.976Z</time></trkpt><trkpt lat="53.6211094" lon="-1.8738079"><ele>171.0</ele><time>2026-03-22T19:27:58.983Z</time></trkpt><trkpt lat="53.621217" lon="-1.8737717"><ele>171.0</ele><time>2026-03-22T19:27:59.98Z</time></trkpt><trkpt lat="53.6213185" lon="-1.8737146"><ele>171.0</ele><time>2026-03-22T19:28:00.978Z</time></trkpt><trkpt lat="53.6214181" lon="-1.8736402"><ele>171.0</ele><time>2026-03-22T19:28:01.98Z</time></trkpt><trkpt lat="53.6215061" lon="-1.8735595"><ele>169.5</ele><time>2026-03-22T19:28:02.981Z</time></trkpt><trkpt lat="53.6215861" lon="-1.8734852"><ele>168.0</ele><time>2026-03-22T19:28:03.982Z</time></trkpt><trkpt lat="53.6216594" lon="-1.8734288"><ele>166.5</ele><time>2026-03-22T19:28:04.981Z</time></trkpt><trkpt lat="53.6217319" lon="-1.8734005"><ele>165.0</ele><time>2026-03-22T19:28:05.981Z</time></trkpt><trkpt lat="53.621807" lon="-1.8734189"><ele>163.5</ele><time>2026-03-22T19:28:06.982Z</time></trkpt><trkpt lat="53.6218864" lon="-1.8734849"><ele>162.0</ele><time>2026-03-22T19:28:07.98Z</time></trkpt><trkpt lat="53.6219608" lon="-1.873589"><ele>158.4</ele><time>2026-03-22T19:28:08.982Z</time></trkpt><trkpt lat="53.6220176" lon="-1.8736982"><ele>154.79999999999998</ele><time>2026-03-22T19:28:09.981Z</time></trkpt><trkpt lat="53.6220642" lon="-1.8738093"><ele>151.2</ele><time>2026-03-22T19:28:10.981Z</time></trkpt><trkpt lat="53.6221233" lon="-1.8739571"><ele>147.6</ele><time>2026-03-22T19:28:12.982Z</time></trkpt><trkpt lat="53.622143" lon="-1.8740625"><ele>144.0</ele><time>2026-03-22T19:28:15.978Z</time></trkpt><trkpt lat="53.62214" lon="-1.8742609"><ele>143.6</ele><time>2026-03-22T19:28:17.974Z</time></trkpt><trkpt lat="53.6221248" lon="-1.8744184"><ele>143.2</ele><time>2026-03-22T19:28:18.978Z</time></trkpt><trkpt lat="53.6221047" lon="-1.8745988"><ele>142.79999999999998</ele><time>2026-03-22T19:28:19.976Z</time></trkpt><trkpt lat="53.6220912" lon="-1.8747868"><ele>142.4</ele><time>2026-03-22T19:28:20.976Z</time></trkpt><trkpt lat="53.6220655" lon="-1.874977"><ele>142.0</ele><time>2026-03-22T19:28:21.975Z</time></trkpt><trkpt lat="53.6220403" lon="-1.8751592"><ele>141.0</ele><time>2026-03-22T19:28:22.975Z</time></trkpt><trkpt lat="53.6220182" lon="-1.8753399"><ele>140.0</ele><time>2026-03-22T19:28:23.979Z</time></trkpt><trkpt lat="53.6219877" lon="-1.8755052"><ele>139.0</ele><time>2026-03-22T19:28:24.976Z</time></trkpt><trkpt lat="53.621967" lon="-1.8756576"><ele>138.0</ele><time>2026-03-22T19:28:25.974Z</time></trkpt><trkpt lat="53.62194" lon="-1.8758133"><ele>137.0</ele><time>2026-03-22T19:28:26.975Z</time></trkpt><trkpt lat="53.6219153" lon="-1.8759915"><ele>138.6</ele><time>2026-03-22T19:28:27.971Z</time></trkpt><trkpt lat="53.6218803" lon="-1.8761634"><ele>140.2</ele><time>2026-03-22T19:28:28.977Z</time></trkpt><trkpt lat="53.6218426" lon="-1.876342"><ele>141.8</ele><time>2026-03-22T19:28:29.973Z</time></trkpt><trkpt lat="53.6218058" lon="-1.8765234"><ele>143.4</ele><time>2026-03-22T19:28:30.974Z</time></trkpt><trkpt lat="53.621769" lon="-1.8767018"><ele>145.0</ele><time>2026-03-22T19:28:31.978Z</time></trkpt><trkpt lat="53.6217353" lon="-1.8768839"><ele>145.0</ele><time>2026-03-22T19:28:32.98Z</time></trkpt><trkpt lat="53.6217065" lon="-1.8770637"><ele>145.0</ele><time>2026-03-22T19:28:33.98Z</time></trkpt><trkpt lat="53.6216779" lon="-1.8772363"><ele>145.0</ele><time>2026-03-22T19:28:34.982Z</time></trkpt><trkpt lat="53.6216493" lon="-1.8774064"><ele>145.0</ele><time>2026-03-22T19:28:35.981Z</time></trkpt><trkpt lat="53.6216142" lon="-1.8775764"><ele>145.0</ele><time>2026-03-22T19:28:36.981Z</time></trkpt><trkpt lat="53.6215716" lon="-1.8777311"><ele>144.2</ele><time>2026-03-22T19:28:37.981Z</time></trkpt><trkpt lat="53.621525" lon="-1.8778767"><ele>143.4</ele><time>2026-03-22T19:28:38.98Z</time></trkpt><trkpt lat="53.6214732" lon="-1.8780198"><ele>142.6</ele><time>2026-03-22T19:28:39.979Z</time></trkpt><trkpt lat="53.6214162" lon="-1.8781574"><ele>141.8</ele><time>2026-03-22T19:28:40.979Z</time></trkpt><trkpt lat="53.6213529" lon="-1.878299"><ele>141.0</ele><time>2026-03-22T19:28:41.977Z</time></trkpt><trkpt lat="53.6212814" lon="-1.8784484"><ele>140.6</ele><time>2026-03-22T19:28:42.974Z</time></trkpt><trkpt lat="53.6212108" lon="-1.8786007"><ele>140.2</ele><time>2026-03-22T19:28:43.979Z</time></trkpt><trkpt lat="53.6211457" lon="-1.8787497"><ele>139.8</ele><time>2026-03-22T19:28:44.976Z</time></trkpt><trkpt lat="53.6210909" lon="-1.8788897"><ele>139.4</ele><time>2026-03-22T19:28:45.983Z</time></trkpt><trkpt lat="53.6210481" lon="-1.8790267"><ele>139.0</ele><time>2026-03-22T19:28:46.977Z</time></trkpt><trkpt lat="53.6210056" lon="-1.879161"><ele>141.0</ele><time>2026-03-22T19:28:47.971Z</time></trkpt><trkpt lat="53.6209738" lon="-1.8792713"><ele>143.0</ele><time>2026-03-22T19:28:48.977Z</time></trkpt><trkpt lat="53.6209481" lon="-1.8793819"><ele>145.0</ele><time>2026-03-22T19:28:49.975Z</time></trkpt><trkpt lat="53.6209117" lon="-1.8795709"><ele>147.0</ele><time>2026-03-22T19:28:51.98Z</time></trkpt><trkpt lat="53.6208998" lon="-1.8797281"><ele>149.0</ele><time>2026-03-22T19:28:53.977Z</time></trkpt><trkpt lat="53.6209169" lon="-1.8799148"><ele>149.0</ele><time>2026-03-22T19:28:55.977Z</time></trkpt><trkpt lat="53.620936" lon="-1.8800234"><ele>149.0</ele><time>2026-03-22T19:28:56.976Z</time></trkpt><trkpt lat="53.62095" lon="-1.8801338"><ele>149.0</ele><time>2026-03-22T19:28:57.978Z</time></trkpt><trkpt lat="53.6209667" lon="-1.880249"><ele>149.0</ele><time>2026-03-22T19:28:58.977Z</time></trkpt><trkpt lat="53.6209838" lon="-1.8803554"><ele>149.0</ele><time>2026-03-22T19:28:59.976Z</time></trkpt><trkpt lat="53.6210255" lon="-1.8805377"><ele>149.0</ele><time>2026-03-22T19:29:01.983Z</time></trkpt><trkpt lat="53.6211007" lon="-1.8806331"><ele>147.33333333333331</ele><time>2026-03-22T19:29:03.983Z</time></trkpt><trkpt lat="53.6211988" lon="-1.8806612"><ele>145.66666666666666</ele><time>2026-03-22T19:29:05.982Z</time></trkpt><trkpt lat="53.6212935" lon="-1.880674"><ele>144.0</ele><time>2026-03-22T19:29:07.982Z</time></trkpt><trkpt lat="53.621379" lon="-1.8806961"><ele>142.33333333333334</ele><time>2026-03-22T19:29:09.982Z</time></trkpt><trkpt lat="53.621449" lon="-1.880693"><ele>140.66666666666669</ele><time>2026-03-22T19:29:24.981Z</time></trkpt><trkpt lat="53.6215335" lon="-1.880726"><ele>139.0</ele><time>2026-03-22T19:29:26.983Z</time></trkpt><trkpt lat="53.6216531" lon="-1.8807844"><ele>139.0</ele><time>2026-03-22T19:29:28.984Z</time></trkpt><trkpt lat="53.6217208" lon="-1.880822"><ele>139.0</ele><time>2026-03-22T19:29:29.983Z</time></trkpt><trkpt lat="53.6217857" lon="-1.880864"><ele>139.0</ele><time>2026-03-22T19:29:30.984Z</time></trkpt><trkpt lat="53.6218527" lon="-1.8809114"><ele>139.0</ele><time>2026-03-22T19:29:31.987Z</time></trkpt><trkpt lat="53.6219197" lon="-1.8809573"><ele>139.0</ele><time>2026-03-22T19:29:32.988Z</time></trkpt><trkpt lat="53.6219861" lon="-1.8809957"><ele>139.0</ele><time>2026-03-22T19:29:33.989Z</time></trkpt><trkpt lat="53.6220532" lon="-1.8810375"><ele>139.0</ele><time>2026-03-22T19:29:34.983Z</time></trkpt><trkpt lat="53.6221223" lon="-1.88109"><ele>139.33333333333334</ele><time>2026-03-22T19:29:35.985Z</time></trkpt><trkpt lat="53.6221917" lon="-1.8811464"><ele>139.66666666666669</ele><time>2026-03-22T19:29:36.988Z</time></trkpt><trkpt lat="53.6222535" lon="-1.8811918"><ele>140.0</ele><time>2026-03-22T19:29:37.983Z</time></trkpt><trkpt lat="53.6223479" lon="-1.8812582"><ele>140.33333333333334</ele><time>2026-03-22T19:29:39.983Z</time></trkpt><trkpt lat="53.6224198" lon="-1.8813363"><ele>140.66666666666666</ele><time>2026-03-22T19:29:41.977Z</time></trkpt><trkpt lat="53.6225082" lon="-1.8813208"><ele>141.0</ele><time>2026-03-22T19:29:44.985Z</time></trkpt><trkpt lat="53.6225529" lon="-1.881182"><ele>141.0</ele><time>2026-03-22T19:29:46.983Z</time></trkpt><trkpt lat="53.6225753" lon="-1.88105"><ele>141.0</ele><time>2026-03-22T19:29:48.984Z</time></trkpt><trkpt lat="53.6226057" lon="-1.8809424"><ele>141.0</ele><time>2026-03-22T19:29:50.982Z</time></trkpt><trkpt lat="53.6226456" lon="-1.8808224"><ele>141.0</ele><time>2026-03-22T19:29:52.983Z</time></trkpt><trkpt lat="53.6227013" lon="-1.8806539"><ele>141.0</ele><time>2026-03-22T19:29:54.984Z</time></trkpt><trkpt lat="53.6227351" lon="-1.8805486"><ele>141.0</ele><time>2026-03-22T19:29:55.983Z</time></trkpt><trkpt lat="53.6227723" lon="-1.8804348"><ele>141.14285714285714</ele><time>2026-03-22T19:29:56.983Z</time></trkpt><trkpt lat="53.6228079" lon="-1.8803289"><ele>141.28571428571428</ele><time>2026-03-22T19:29:57.977Z</time></trkpt><trkpt lat="53.6228412" lon="-1.8802323"><ele>141.42857142857142</ele><time>2026-03-22T19:29:58.981Z</time></trkpt><trkpt lat="53.622876" lon="-1.8801436"><ele>141.57142857142856</ele><time>2026-03-22T19:29:59.982Z</time></trkpt><trkpt lat="53.622918" lon="-1.8800555"><ele>141.7142857142857</ele><time>2026-03-22T19:30:00.984Z</time></trkpt><trkpt lat="53.6229619" lon="-1.8799703"><ele>141.85714285714286</ele><time>2026-03-22T19:30:01.981Z</time></trkpt><trkpt lat="53.623003" lon="-1.8798898"><ele>142.0</ele><time>2026-03-22T19:30:02.982Z</time></trkpt><trkpt lat="53.6230819" lon="-1.8797592"><ele>142.0</ele><time>2026-03-22T19:30:04.983Z</time></trkpt><trkpt lat="53.6231699" lon="-1.8796621"><ele>142.0</ele><time>2026-03-22T19:30:06.984Z</time></trkpt><trkpt lat="53.6232682" lon="-1.8795796"><ele>142.0</ele><time>2026-03-22T19:30:08.988Z</time></trkpt><trkpt lat="53.6233399" lon="-1.8795444"><ele>142.0</ele><time>2026-03-22T19:30:09.988Z</time></trkpt><trkpt lat="53.6234208" lon="-1.8795023"><ele>142.0</ele><time>2026-03-22T19:30:10.989Z</time></trkpt><trkpt lat="53.6234976" lon="-1.8794527"><ele>142.0</ele><time>2026-03-22T19:30:11.99Z</time></trkpt><trkpt lat="53.6235641" lon="-1.8793883"><ele>142.0</ele><time>2026-03-22T19:30:12.99Z</time></trkpt><trkpt lat="53.6236237" lon="-1.8793115"><ele>142.0</ele><time>2026-03-22T19:30:13.988Z</time></trkpt><trkpt lat="53.6236813" lon="-1.8792297"><ele>142.0</ele><time>2026-03-22T19:30:14.988Z</time></trkpt><trkpt lat="53.6237423" lon="-1.8791382"><ele>142.0</ele><time>2026-03-22T19:30:15.984Z</time></trkpt><trkpt lat="53.623804" lon="-1.8790503"><ele>142.0</ele><time>2026-03-22T19:30:16.984Z</time></trkpt><trkpt lat="53.6238632" lon="-1.8789743"><ele>142.0</ele><time>2026-03-22T19:30:17.981Z</time></trkpt><trkpt lat="53.6239164" lon="-1.8788991"><ele>142.0</ele><time>2026-03-22T19:30:18.983Z</time></trkpt><trkpt lat="53.6239711" lon="-1.8788175"><ele>142.0</ele><time>2026-03-22T19:30:19.983Z</time></trkpt><trkpt lat="53.6240293" lon="-1.8787277"><ele>142.0</ele><time>2026-03-22T19:30:20.982Z</time></trkpt><trkpt lat="53.6240983" lon="-1.8786317"><ele>142.0</ele><time>2026-03-22T19:30:21.98Z</time></trkpt><trkpt lat="53.6241749" lon="-1.8785237"><ele>142.0</ele><time>2026-03-22T19:30:22.981Z</time></trkpt><trkpt lat="53.6242535" lon="-1.8784098"><ele>142.0</ele><time>2026-03-22T19:30:23.979Z</time></trkpt><trkpt lat="53.6243334" lon="-1.8782925"><ele>142.0</ele><time>2026-03-22T19:30:24.981Z</time></trkpt><trkpt lat="53.6244133" lon="-1.8781778"><ele>142.0</ele><time>2026-03-22T19:30:25.982Z</time></trkpt><trkpt lat="53.6244945" lon="-1.8780648"><ele>142.0</ele><time>2026-03-22T19:30:26.98Z</time></trkpt><trkpt lat="53.6245787" lon="-1.8779537"><ele>142.0</ele><time>2026-03-22T19:30:27.981Z</time></trkpt><trkpt lat="53.6246676" lon="-1.8778423"><ele>143.0</ele><time>2026-03-22T19:30:28.983Z</time></trkpt><trkpt lat="53.6247639" lon="-1.8777318"><ele>144.0</ele><time>2026-03-22T19:30:29.982Z</time></trkpt><trkpt lat="53.6248609" lon="-1.8776195"><ele>145.0</ele><time>2026-03-22T19:30:30.981Z</time></trkpt><trkpt lat="53.6249485" lon="-1.8775033"><ele>146.0</ele><time>2026-03-22T19:30:31.982Z</time></trkpt><trkpt lat="53.6250234" lon="-1.8773813"><ele>146.0</ele><time>2026-03-22T19:30:32.982Z</time></trkpt><trkpt lat="53.6250818" lon="-1.8772463"><ele>146.0</ele><time>2026-03-22T19:30:33.982Z</time></trkpt><trkpt lat="53.6251296" lon="-1.8771102"><ele>146.0</ele><time>2026-03-22T19:30:34.982Z</time></trkpt><trkpt lat="53.6251701" lon="-1.876993"><ele>146.0</ele><time>2026-03-22T19:30:35.981Z</time></trkpt><trkpt lat="53.6252168" lon="-1.8769099"><ele>146.0</ele><time>2026-03-22T19:30:36.982Z</time></trkpt><trkpt lat="53.6253326" lon="-1.8768979"><ele>147.2</ele><time>2026-03-22T19:30:38.982Z</time></trkpt><trkpt lat="53.6254083" lon="-1.876967"><ele>148.39999999999998</ele><time>2026-03-22T19:30:39.98Z</time></trkpt><trkpt lat="53.6254934" lon="-1.8770738"><ele>149.6</ele><time>2026-03-22T19:30:40.98Z</time></trkpt><trkpt lat="53.6255726" lon="-1.8771874"><ele>150.79999999999998</ele><time>2026-03-22T19:30:41.979Z</time></trkpt><trkpt lat="53.6256459" lon="-1.8773043"><ele>152.0</ele><time>2026-03-22T19:30:42.979Z</time></trkpt><trkpt lat="53.6257369" lon="-1.8773782"><ele>152.0</ele><time>2026-03-22T19:30:43.983Z</time></trkpt><trkpt lat="53.6258127" lon="-1.8774451"><ele>152.0</ele><time>2026-03-22T19:30:44.981Z</time></trkpt><trkpt lat="53.6258908" lon="-1.8775194"><ele>152.0</ele><time>2026-03-22T19:30:45.981Z</time></trkpt><trkpt lat="53.6259525" lon="-1.8775694"><ele>152.0</ele><time>2026-03-22T19:30:46.982Z</time></trkpt><trkpt lat="53.6260246" lon="-1.8776121"><ele>152.0</ele><time>2026-03-22T19:30:47.981Z</time></trkpt><trkpt lat="53.6261004" lon="-1.8776387"><ele>152.0</ele><time>2026-03-22T19:30:48.983Z</time></trkpt><trkpt lat="53.6261709" lon="-1.8776581"><ele>152.33333333333331</ele><time>2026-03-22T19:30:49.983Z</time></trkpt><trkpt lat="53.6262418" lon="-1.8776761"><ele>152.66666666666666</ele><time>2026-03-22T19:30:50.985Z</time></trkpt><trkpt lat="53.6263248" lon="-1.8776603"><ele>153.0</ele><time>2026-03-22T19:30:51.98Z</time></trkpt><trkpt lat="53.6263967" lon="-1.8776024"><ele>153.33333333333334</ele><time>2026-03-22T19:30:52.977Z</time></trkpt><trkpt lat="53.6264567" lon="-1.8775073"><ele>153.66666666666669</ele><time>2026-03-22T19:30:53.978Z</time></trkpt><trkpt lat="53.6264982" lon="-1.8774149"><ele>154.0</ele><time>2026-03-22T19:30:54.982Z</time></trkpt><trkpt lat="53.6265418" lon="-1.8773328"><ele>154.0</ele><time>2026-03-22T19:30:55.984Z</time></trkpt><trkpt lat="53.6266442" lon="-1.8772595"><ele>154.0</ele><time>2026-03-22T19:30:57.979Z</time></trkpt><trkpt lat="53.6267554" lon="-1.8773357"><ele>154.0</ele><time>2026-03-22T19:30:59.981Z</time></trkpt><trkpt lat="53.6268137" lon="-1.8774434"><ele>154.0</ele><time>2026-03-22T19:31:00.986Z</time></trkpt><trkpt lat="53.6268616" lon="-1.8775918"><ele>154.0</ele><time>2026-03-22T19:31:01.987Z</time></trkpt><trkpt lat="53.6268893" lon="-1.8777748"><ele>154.0</ele><time>2026-03-22T19:31:02.982Z</time></trkpt><trkpt lat="53.6269016" lon="-1.8779472"><ele>154.0</ele><time>2026-03-22T19:31:03.986Z</time></trkpt><trkpt lat="53.626939" lon="-1.8780904"><ele>154.0</ele><time>2026-03-22T19:31:04.984Z</time></trkpt><trkpt lat="53.6270105" lon="-1.8782139"><ele>154.0</ele><time>2026-03-22T19:31:05.983Z</time></trkpt><trkpt lat="53.6270882" lon="-1.878315"><ele>154.0</ele><time>2026-03-22T19:31:06.985Z</time></trkpt><trkpt lat="53.6271695" lon="-1.8783968"><ele>154.75</ele><time>2026-03-22T19:31:07.981Z</time></trkpt><trkpt lat="53.6272649" lon="-1.8784763"><ele>155.5</ele><time>2026-03-22T19:31:08.982Z</time></trkpt><trkpt lat="53.6273815" lon="-1.8785637"><ele>156.25</ele><time>2026-03-22T19:31:09.979Z</time></trkpt><trkpt lat="53.6275217" lon="-1.8786574"><ele>157.0</ele><time>2026-03-22T19:31:10.98Z</time></trkpt><trkpt lat="53.6276743" lon="-1.8787511"><ele>158.0</ele><time>2026-03-22T19:31:11.982Z</time></trkpt><trkpt lat="53.6278327" lon="-1.8788434"><ele>159.0</ele><time>2026-03-22T19:31:12.98Z</time></trkpt><trkpt lat="53.6279898" lon="-1.8789451"><ele>160.0</ele><time>2026-03-22T19:31:13.978Z</time></trkpt><trkpt lat="53.6281456" lon="-1.8790641"><ele>160.0</ele><time>2026-03-22T19:31:14.979Z</time></trkpt><trkpt lat="53.6282973" lon="-1.879195"><ele>160.0</ele><time>2026-03-22T19:31:15.979Z</time></trkpt><trkpt lat="53.6284422" lon="-1.8793262"><ele>160.0</ele><time>2026-03-22T19:31:16.984Z</time></trkpt><trkpt lat="53.6285775" lon="-1.8794502"><ele>161.4</ele><time>2026-03-22T19:31:17.979Z</time></trkpt><trkpt lat="53.6286988" lon="-1.8795582"><ele>162.8</ele><time>2026-03-22T19:31:18.976Z</time></trkpt><trkpt lat="53.6288011" lon="-1.8796471"><ele>164.2</ele><time>2026-03-22T19:31:19.982Z</time></trkpt><trkpt lat="53.6288887" lon="-1.8796995"><ele>165.6</ele><time>2026-03-22T19:31:20.983Z</time></trkpt><trkpt lat="53.6289764" lon="-1.8797252"><ele>167.0</ele><time>2026-03-22T19:31:21.981Z</time></trkpt><trkpt lat="53.6290805" lon="-1.8797355"><ele>167.0</ele><time>2026-03-22T19:31:22.982Z</time></trkpt><trkpt lat="53.62919" lon="-1.8797326"><ele>167.0</ele><time>2026-03-22T19:31:23.979Z</time></trkpt><trkpt lat="53.6293053" lon="-1.8797312"><ele>167.0</ele><time>2026-03-22T19:31:24.978Z</time></trkpt><trkpt lat="53.6294253" lon="-1.8797079"><ele>167.0</ele><time>2026-03-22T19:31:25.982Z</time></trkpt><trkpt lat="53.6295486" lon="-1.8796556"><ele>168.5</ele><time>2026-03-22T19:31:26.98Z</time></trkpt><trkpt lat="53.6296718" lon="-1.8795774"><ele>170.0</ele><time>2026-03-22T19:31:27.975Z</time></trkpt><trkpt lat="53.6298134" lon="-1.8794918"><ele>171.5</ele><time>2026-03-22T19:31:28.979Z</time></trkpt><trkpt lat="53.6299624" lon="-1.8794059"><ele>173.0</ele><time>2026-03-22T19:31:29.978Z</time></trkpt><trkpt lat="53.63013" lon="-1.8793077"><ele>175.66666666666666</ele><time>2026-03-22T19:31:30.978Z</time></trkpt><trkpt lat="53.630297" lon="-1.8792088"><ele>178.33333333333334</ele><time>2026-03-22T19:31:31.975Z</time></trkpt><trkpt lat="53.630465" lon="-1.8791036"><ele>181.0</ele><time>2026-03-22T19:31:32.976Z</time></trkpt><trkpt lat="53.6306356" lon="-1.8789971"><ele>181.75</ele><time>2026-03-22T19:31:33.974Z</time></trkpt><trkpt lat="53.6307837" lon="-1.8788989"><ele>182.5</ele><time>2026-03-22T19:31:34.976Z</time></trkpt><trkpt lat="53.6309156" lon="-1.8788187"><ele>183.25</ele><time>2026-03-22T19:31:35.973Z</time></trkpt><trkpt lat="53.6310185" lon="-1.878739"><ele>184.0</ele><time>2026-03-22T19:31:36.973Z</time></trkpt><trkpt lat="53.6310847" lon="-1.8786672"><ele>185.2</ele><time>2026-03-22T19:31:37.974Z</time></trkpt><trkpt lat="53.631159" lon="-1.8785554"><ele>186.39999999999998</ele><time>2026-03-22T19:31:39.986Z</time></trkpt><trkpt lat="53.6311126" lon="-1.8784172"><ele>187.6</ele><time>2026-03-22T19:31:41.967Z</time></trkpt><trkpt lat="53.6310411" lon="-1.8783367"><ele>188.8</ele><time>2026-03-22T19:31:42.986Z</time></trkpt><trkpt lat="53.6309568" lon="-1.8782679"><ele>190.0</ele><time>2026-03-22T19:31:43.984Z</time></trkpt><trkpt lat="53.6308864" lon="-1.8781804"><ele>191.16666666666669</ele><time>2026-03-22T19:31:44.98Z</time></trkpt><trkpt lat="53.6308558" lon="-1.878085"><ele>192.33333333333334</ele><time>2026-03-22T19:31:45.979Z</time></trkpt><trkpt lat="53.6308731" lon="-1.8779738"><ele>193.5</ele><time>2026-03-22T19:31:46.98Z</time></trkpt><trkpt lat="53.6309116" lon="-1.8778772"><ele>194.66666666666669</ele><time>2026-03-22T19:31:47.979Z</time></trkpt><trkpt lat="53.6309873" lon="-1.8778065"><ele>195.83333333333334</ele><time>2026-03-22T19:31:48.981Z</time></trkpt><trkpt lat="53.6310953" lon="-1.8777135"><ele>197.0</ele><time>2026-03-22T19:31:49.982Z</time></trkpt><trkpt lat="53.6312293" lon="-1.8776085"><ele>202.33333333333334</ele><time>2026-03-22T19:31:50.976Z</time></trkpt><trkpt lat="53.631386" lon="-1.8775049"><ele>207.66666666666669</ele><time>2026-03-22T19:31:51.979Z</time></trkpt><trkpt lat="53.6315488" lon="-1.8773788"><ele>213.0</ele><time>2026-03-22T19:31:52.979Z</time></trkpt><trkpt lat="53.6317078" lon="-1.8772582"><ele>213.0</ele><time>2026-03-22T19:31:53.976Z</time></trkpt><trkpt lat="53.6318677" lon="-1.877163"><ele>213.0</ele><time>2026-03-22T19:31:54.976Z</time></trkpt><trkpt lat="53.6320232" lon="-1.8771118"><ele>213.0</ele><time>2026-03-22T19:31:55.984Z</time></trkpt><trkpt lat="53.6321812" lon="-1.8770862"><ele>211.66666666666669</ele><time>2026-03-22T19:31:56.984Z</time></trkpt><trkpt lat="53.6323332" lon="-1.8770625"><ele>210.33333333333334</ele><time>2026-03-22T19:31:57.984Z</time></trkpt><trkpt lat="53.6324869" lon="-1.8770482"><ele>209.0</ele><time>2026-03-22T19:31:58.987Z</time></trkpt><trkpt lat="53.6326473" lon="-1.877051"><ele>209.0</ele><time>2026-03-22T19:31:59.985Z</time></trkpt><trkpt lat="53.6328015" lon="-1.8770632"><ele>209.0</ele><time>2026-03-22T19:32:00.986Z</time></trkpt><trkpt lat="53.6329397" lon="-1.8770757"><ele>209.0</ele><time>2026-03-22T19:32:01.985Z</time></trkpt><trkpt lat="53.6330666" lon="-1.8770674"><ele>209.0</ele><time>2026-03-22T19:32:02.983Z</time></trkpt><trkpt lat="53.6331897" lon="-1.877027"><ele>210.25</ele><time>2026-03-22T19:32:03.986Z</time></trkpt><trkpt lat="53.6333064" lon="-1.8769581"><ele>211.5</ele><time>2026-03-22T19:32:04.983Z</time></trkpt><trkpt lat="53.6334306" lon="-1.8768572"><ele>212.75</ele><time>2026-03-22T19:32:05.977Z</time></trkpt><trkpt lat="53.6335496" lon="-1.8767316"><ele>214.0</ele><time>2026-03-22T19:32:06.98Z</time></trkpt><trkpt lat="53.6336811" lon="-1.8766249"><ele>220.66666666666666</ele><time>2026-03-22T19:32:07.976Z</time></trkpt><trkpt lat="53.6338241" lon="-1.8765476"><ele>227.33333333333331</ele><time>2026-03-22T19:32:08.976Z</time></trkpt><trkpt lat="53.6339691" lon="-1.876495"><ele>234.0</ele><time>2026-03-22T19:32:09.976Z</time></trkpt><trkpt lat="53.6341256" lon="-1.8764608"><ele>234.0</ele><time>2026-03-22T19:32:10.977Z</time></trkpt><trkpt lat="53.6342959" lon="-1.8764516"><ele>234.0</ele><time>2026-03-22T19:32:11.977Z</time></trkpt><trkpt lat="53.6344813" lon="-1.8764547"><ele>234.0</ele><time>2026-03-22T19:32:12.976Z</time></trkpt><trkpt lat="53.6346852" lon="-1.8764797"><ele>236.33333333333331</ele><time>2026-03-22T19:32:13.978Z</time></trkpt><trkpt lat="53.6349023" lon="-1.8765052"><ele>238.66666666666666</ele><time>2026-03-22T19:32:14.979Z</time></trkpt><trkpt lat="53.6351148" lon="-1.8765291"><ele>241.0</ele><time>2026-03-22T19:32:15.978Z</time></trkpt><trkpt lat="53.6353155" lon="-1.8765491"><ele>244.66666666666666</ele><time>2026-03-22T19:32:16.977Z</time></trkpt><trkpt lat="53.6355042" lon="-1.8765637"><ele>248.33333333333331</ele><time>2026-03-22T19:32:17.979Z</time></trkpt><trkpt lat="53.6356904" lon="-1.876589"><ele>252.0</ele><time>2026-03-22T19:32:18.978Z</time></trkpt><trkpt lat="53.6358703" lon="-1.8766295"><ele>252.0</ele><time>2026-03-22T19:32:19.976Z</time></trkpt><trkpt lat="53.6360422" lon="-1.8766695"><ele>252.0</ele><time>2026-03-22T19:32:20.976Z</time></trkpt><trkpt lat="53.6362141" lon="-1.8767154"><ele>252.0</ele><time>2026-03-22T19:32:21.976Z</time></trkpt><trkpt lat="53.6363817" lon="-1.8767585"><ele>253.0</ele><time>2026-03-22T19:32:22.975Z</time></trkpt><trkpt lat="53.6365428" lon="-1.876798"><ele>254.0</ele><time>2026-03-22T19:32:23.978Z</time></trkpt><trkpt lat="53.6367045" lon="-1.8768571"><ele>255.0</ele><time>2026-03-22T19:32:24.975Z</time></trkpt><trkpt lat="53.6368644" lon="-1.8769433"><ele>263.0</ele><time>2026-03-22T19:32:25.975Z</time></trkpt><trkpt lat="53.6370292" lon="-1.877078"><ele>271.0</ele><time>2026-03-22T19:32:26.975Z</time></trkpt><trkpt lat="53.6371875" lon="-1.8772413"><ele>279.0</ele><time>2026-03-22T19:32:27.975Z</time></trkpt><trkpt lat="53.6373328" lon="-1.8774264"><ele>276.3333333333333</ele><time>2026-03-22T19:32:28.979Z</time></trkpt><trkpt lat="53.6374662" lon="-1.8776236"><ele>273.66666666666663</ele><time>2026-03-22T19:32:29.975Z</time></trkpt><trkpt lat="53.6375954" lon="-1.8778305"><ele>271.0</ele><time>2026-03-22T19:32:30.975Z</time></trkpt><trkpt lat="53.6377182" lon="-1.878036"><ele>274.0</ele><time>2026-03-22T19:32:31.975Z</time></trkpt><trkpt lat="53.6378309" lon="-1.8782271"><ele>277.0</ele><time>2026-03-22T19:32:32.977Z</time></trkpt><trkpt lat="53.6379432" lon="-1.8784037"><ele>280.0</ele><time>2026-03-22T19:32:33.979Z</time></trkpt><trkpt lat="53.6380676" lon="-1.8785455"><ele>280.0</ele><time>2026-03-22T19:32:34.977Z</time></trkpt><trkpt lat="53.6382057" lon="-1.8786634"><ele>280.0</ele><time>2026-03-22T19:32:35.976Z</time></trkpt><trkpt lat="53.6383443" lon="-1.8787635"><ele>280.0</ele><time>2026-03-22T19:32:36.977Z</time></trkpt><trkpt lat="53.638484" lon="-1.8788311"><ele>280.0</ele><time>2026-03-22T19:32:37.979Z</time></trkpt><trkpt lat="53.6386216" lon="-1.8788583"><ele>280.0</ele><time>2026-03-22T19:32:38.981Z</time></trkpt><trkpt lat="53.6387517" lon="-1.878862"><ele>280.0</ele><time>2026-03-22T19:32:39.978Z</time></trkpt><trkpt lat="53.6388827" lon="-1.878864"><ele>280.0</ele><time>2026-03-22T19:32:40.981Z</time></trkpt><trkpt lat="53.6390218" lon="-1.878866"><ele>282.75</ele><time>2026-03-22T19:32:41.977Z</time></trkpt><trkpt lat="53.6391552" lon="-1.8788577"><ele>285.5</ele><time>2026-03-22T19:32:42.984Z</time></trkpt><trkpt lat="53.6392766" lon="-1.8788125"><ele>288.25</ele><time>2026-03-22T19:32:43.979Z</time></trkpt><trkpt lat="53.6393902" lon="-1.87873"><ele>291.0</ele><time>2026-03-22T19:32:44.979Z</time></trkpt><trkpt lat="53.6395021" lon="-1.8786191"><ele>293.25</ele><time>2026-03-22T19:32:45.98Z</time></trkpt><trkpt lat="53.6396157" lon="-1.8784858"><ele>295.5</ele><time>2026-03-22T19:32:46.984Z</time></trkpt><trkpt lat="53.6397254" lon="-1.8783359"><ele>297.75</ele><time>2026-03-22T19:32:47.985Z</time></trkpt><trkpt lat="53.6398386" lon="-1.8781905"><ele>300.0</ele><time>2026-03-22T19:32:48.983Z</time></trkpt><trkpt lat="53.6399557" lon="-1.8780454"><ele>300.25</ele><time>2026-03-22T19:32:49.981Z</time></trkpt><trkpt lat="53.6400652" lon="-1.8779041"><ele>300.5</ele><time>2026-03-22T19:32:50.98Z</time></trkpt><trkpt lat="53.6401703" lon="-1.8777552"><ele>300.75</ele><time>2026-03-22T19:32:51.983Z</time></trkpt><trkpt lat="53.6402675" lon="-1.8775944"><ele>301.0</ele><time>2026-03-22T19:32:52.988Z</time></trkpt><trkpt lat="53.6403457" lon="-1.8774069"><ele>303.0</ele><time>2026-03-22T19:32:53.986Z</time></trkpt><trkpt lat="53.6403948" lon="-1.8771918"><ele>305.0</ele><time>2026-03-22T19:32:54.985Z</time></trkpt><trkpt lat="53.6404187" lon="-1.8769551"><ele>307.0</ele><time>2026-03-22T19:32:55.981Z</time></trkpt><trkpt lat="53.6404156" lon="-1.8767171"><ele>309.0</ele><time>2026-03-22T19:32:56.98Z</time></trkpt><trkpt lat="53.6404193" lon="-1.8764768"><ele>310.0</ele><time>2026-03-22T19:32:57.979Z</time></trkpt><trkpt lat="53.6404327" lon="-1.8762459"><ele>311.0</ele><time>2026-03-22T19:32:58.98Z</time></trkpt><trkpt lat="53.6404626" lon="-1.8760297"><ele>312.0</ele><time>2026-03-22T19:32:59.981Z</time></trkpt><trkpt lat="53.6405019" lon="-1.8758491"><ele>313.0</ele><time>2026-03-22T19:33:00.978Z</time></trkpt><trkpt lat="53.640551" lon="-1.875693"><ele>313.66666666666663</ele><time>2026-03-22T19:33:01.983Z</time></trkpt><trkpt lat="53.6406029" lon="-1.8755672"><ele>314.3333333333333</ele><time>2026-03-22T19:33:02.979Z</time></trkpt><trkpt lat="53.6406511" lon="-1.8754845"><ele>315.0</ele><time>2026-03-22T19:33:03.981Z</time></trkpt><trkpt lat="53.6407084" lon="-1.8753832"><ele>315.6666666666667</ele><time>2026-03-22T19:33:05.987Z</time></trkpt><trkpt lat="53.6407204" lon="-1.8752344"><ele>316.33333333333337</ele><time>2026-03-22T19:33:08.988Z</time></trkpt><trkpt lat="53.6406959" lon="-1.8750709"><ele>317.0</ele><time>2026-03-22T19:33:10.985Z</time></trkpt><trkpt lat="53.6406866" lon="-1.8749016"><ele>317.1666666666667</ele><time>2026-03-22T19:33:12.985Z</time></trkpt><trkpt lat="53.6406914" lon="-1.8747281"><ele>317.33333333333337</ele><time>2026-03-22T19:33:14.987Z</time></trkpt><trkpt lat="53.640704" lon="-1.8746096"><ele>317.5</ele><time>2026-03-22T19:33:15.988Z</time></trkpt><trkpt lat="53.6407181" lon="-1.874488"><ele>317.6666666666667</ele><time>2026-03-22T19:33:16.985Z</time></trkpt><trkpt lat="53.640732" lon="-1.8743776"><ele>317.8333333333333</ele><time>2026-03-22T19:33:17.988Z</time></trkpt><trkpt lat="53.6407459" lon="-1.8742657"><ele>318.0</ele><time>2026-03-22T19:33:18.989Z</time></trkpt><trkpt lat="53.6407663" lon="-1.8741426"><ele>317.6</ele><time>2026-03-22T19:33:19.987Z</time></trkpt><trkpt lat="53.6407862" lon="-1.8740054"><ele>317.20000000000005</ele><time>2026-03-22T19:33:20.985Z</time></trkpt><trkpt lat="53.6408096" lon="-1.8738665"><ele>316.8</ele><time>2026-03-22T19:33:21.983Z</time></trkpt><trkpt lat="53.6408406" lon="-1.8737269"><ele>316.40000000000003</ele><time>2026-03-22T19:33:22.985Z</time></trkpt><trkpt lat="53.6408792" lon="-1.8735825"><ele>316.0</ele><time>2026-03-22T19:33:23.987Z</time></trkpt><trkpt lat="53.6409233" lon="-1.8734267"><ele>314.8</ele><time>2026-03-22T19:33:24.986Z</time></trkpt><trkpt lat="53.6409777" lon="-1.8732706"><ele>313.6</ele><time>2026-03-22T19:33:25.984Z</time></trkpt><trkpt lat="53.6410327" lon="-1.8731059"><ele>312.4</ele><time>2026-03-22T19:33:26.985Z</time></trkpt><trkpt lat="53.6410869" lon="-1.8729394"><ele>311.2</ele><time>2026-03-22T19:33:27.986Z</time></trkpt><trkpt lat="53.6411358" lon="-1.8727754"><ele>310.0</ele><time>2026-03-22T19:33:28.985Z</time></trkpt><trkpt lat="53.6411843" lon="-1.8726177"><ele>311.6</ele><time>2026-03-22T19:33:29.987Z</time></trkpt><trkpt lat="53.6412343" lon="-1.8724647"><ele>313.2</ele><time>2026-03-22T19:33:30.985Z</time></trkpt><trkpt lat="53.6412858" lon="-1.8723092"><ele>314.8</ele><time>2026-03-22T19:33:31.976Z</time></trkpt><trkpt lat="53.6413386" lon="-1.872147"><ele>316.4</ele><time>2026-03-22T19:33:32.983Z</time></trkpt><trkpt lat="53.6413926" lon="-1.8719809"><ele>318.0</ele><time>2026-03-22T19:33:33.987Z</time></trkpt><trkpt lat="53.641447" lon="-1.871808"><ele>315.5</ele><time>2026-03-22T19:33:34.977Z</time></trkpt><trkpt lat="53.6415038" lon="-1.8716364"><ele>313.0</ele><time>2026-03-22T19:33:35.978Z</time></trkpt><trkpt lat="53.6415574" lon="-1.8714741"><ele>310.5</ele><time>2026-03-22T19:33:36.976Z</time></trkpt><trkpt lat="53.6416132" lon="-1.8712972"><ele>308.0</ele><time>2026-03-22T19:33:37.979Z</time></trkpt><trkpt lat="53.6416723" lon="-1.8711186"><ele>306.0</ele><time>2026-03-22T19:33:38.979Z</time></trkpt><trkpt lat="53.6417354" lon="-1.8709239"><ele>304.0</ele><time>2026-03-22T19:33:39.977Z</time></trkpt><trkpt lat="53.6418005" lon="-1.8707228"><ele>302.0</ele><time>2026-03-22T19:33:40.979Z</time></trkpt><trkpt lat="53.6418615" lon="-1.8705278"><ele>300.0</ele><time>2026-03-22T19:33:41.977Z</time></trkpt><trkpt lat="53.6419122" lon="-1.8703208"><ele>300.0</ele><time>2026-03-22T19:33:42.98Z</time></trkpt><trkpt lat="53.6419425" lon="-1.870117"><ele>300.0</ele><time>2026-03-22T19:33:43.978Z</time></trkpt><trkpt lat="53.6419614" lon="-1.8699088"><ele>300.0</ele><time>2026-03-22T19:33:44.978Z</time></trkpt><trkpt lat="53.6419825" lon="-1.8697038"><ele>300.0</ele><time>2026-03-22T19:33:45.979Z</time></trkpt><trkpt lat="53.6419928" lon="-1.8694855"><ele>301.75</ele><time>2026-03-22T19:33:46.979Z</time></trkpt><trkpt lat="53.6420091" lon="-1.8692687"><ele>303.5</ele><time>2026-03-22T19:33:47.977Z</time></trkpt><trkpt lat="53.6420267" lon="-1.8690562"><ele>305.25</ele><time>2026-03-22T19:33:48.978Z</time></trkpt><trkpt lat="53.642044" lon="-1.8688385"><ele>307.0</ele><time>2026-03-22T19:33:49.977Z</time></trkpt><trkpt lat="53.64206" lon="-1.8686258"><ele>305.25</ele><time>2026-03-22T19:33:50.98Z</time></trkpt><trkpt lat="53.6420712" lon="-1.8684156"><ele>303.5</ele><time>2026-03-22T19:33:51.979Z</time></trkpt><trkpt lat="53.6420813" lon="-1.868214"><ele>301.75</ele><time>2026-03-22T19:33:52.978Z</time></trkpt><trkpt lat="53.6420945" lon="-1.8680148"><ele>300.0</ele><time>2026-03-22T19:33:53.982Z</time></trkpt><trkpt lat="53.642111" lon="-1.8678161"><ele>300.0</ele><time>2026-03-22T19:33:54.979Z</time></trkpt><trkpt lat="53.6421323" lon="-1.8676133"><ele>300.0</ele><time>2026-03-22T19:33:55.977Z</time></trkpt><trkpt lat="53.6421585" lon="-1.8674038"><ele>300.0</ele><time>2026-03-22T19:33:56.98Z</time></trkpt><trkpt lat="53.6421907" lon="-1.8672054"><ele>300.0</ele><time>2026-03-22T19:33:57.979Z</time></trkpt><trkpt lat="53.642224" lon="-1.8669976"><ele>298.4</ele><time>2026-03-22T19:33:58.978Z</time></trkpt><trkpt lat="53.6422664" lon="-1.8668081"><ele>296.8</ele><time>2026-03-22T19:33:59.977Z</time></trkpt><trkpt lat="53.6423062" lon="-1.8666382"><ele>295.2</ele><time>2026-03-22T19:34:00.979Z</time></trkpt><trkpt lat="53.6423388" lon="-1.8664747"><ele>293.6</ele><time>2026-03-22T19:34:01.979Z</time></trkpt><trkpt lat="53.6423373" lon="-1.8663176"><ele>292.0</ele><time>2026-03-22T19:34:02.978Z</time></trkpt><trkpt lat="53.6422851" lon="-1.866172"><ele>290.25</ele><time>2026-03-22T19:34:03.98Z</time></trkpt><trkpt lat="53.6421969" lon="-1.8660403"><ele>288.5</ele><time>2026-03-22T19:34:04.979Z</time></trkpt><trkpt lat="53.6420864" lon="-1.8659144"><ele>286.75</ele><time>2026-03-22T19:34:05.983Z</time></trkpt><trkpt lat="53.6419732" lon="-1.8658084"><ele>285.0</ele><time>2026-03-22T19:34:06.983Z</time></trkpt><trkpt lat="53.6418681" lon="-1.8656968"><ele>281.0</ele><time>2026-03-22T19:34:07.981Z</time></trkpt><trkpt lat="53.6417672" lon="-1.865583"><ele>277.0</ele><time>2026-03-22T19:34:08.987Z</time></trkpt><trkpt lat="53.6416746" lon="-1.8654679"><ele>273.0</ele><time>2026-03-22T19:34:09.984Z</time></trkpt><trkpt lat="53.6415858" lon="-1.8653735"><ele>269.0</ele><time>2026-03-22T19:34:10.979Z</time></trkpt><trkpt lat="53.6415007" lon="-1.865285"><ele>265.0</ele><time>2026-03-22T19:34:11.981Z</time></trkpt><trkpt lat="53.641423" lon="-1.865197"><ele>264.6</ele><time>2026-03-22T19:34:12.981Z</time></trkpt><trkpt lat="53.6413511" lon="-1.8650921"><ele>264.2</ele><time>2026-03-22T19:34:13.983Z</time></trkpt><trkpt lat="53.6412817" lon="-1.8649712"><ele>263.8</ele><time>2026-03-22T19:34:14.981Z</time></trkpt><trkpt lat="53.6412209" lon="-1.8648213"><ele>263.4</ele><time>2026-03-22T19:34:15.983Z</time></trkpt><trkpt lat="53.641178" lon="-1.8646423"><ele>263.0</ele><time>2026-03-22T19:34:16.985Z</time></trkpt><trkpt lat="53.6411551" lon="-1.8644446"><ele>262.75</ele><time>2026-03-22T19:34:17.983Z</time></trkpt><trkpt lat="53.641145" lon="-1.8642369"><ele>262.5</ele><time>2026-03-22T19:34:18.981Z</time></trkpt><trkpt lat="53.6411459" lon="-1.8640297"><ele>262.25</ele><time>2026-03-22T19:34:19.974Z</time></trkpt><trkpt lat="53.6411396" lon="-1.8638191"><ele>262.0</ele><time>2026-03-22T19:34:20.979Z</time></trkpt><trkpt lat="53.6411261" lon="-1.8636175"><ele>258.25</ele><time>2026-03-22T19:34:21.979Z</time></trkpt><trkpt lat="53.6411102" lon="-1.8634254"><ele>254.5</ele><time>2026-03-22T19:34:22.976Z</time></trkpt><trkpt lat="53.6410918" lon="-1.8632331"><ele>250.75</ele><time>2026-03-22T19:34:23.978Z</time></trkpt><trkpt lat="53.6410727" lon="-1.8630494"><ele>247.0</ele><time>2026-03-22T19:34:24.978Z</time></trkpt><trkpt lat="53.6410527" lon="-1.8628661"><ele>247.0</ele><time>2026-03-22T19:34:25.985Z</time></trkpt><trkpt lat="53.6410309" lon="-1.8626812"><ele>247.0</ele><time>2026-03-22T19:34:26.979Z</time></trkpt><trkpt lat="53.6410118" lon="-1.8624981"><ele>247.0</ele><time>2026-03-22T19:34:27.983Z</time></trkpt><trkpt lat="53.6409953" lon="-1.8623141"><ele>247.0</ele><time>2026-03-22T19:34:28.98Z</time></trkpt><trkpt lat="53.6409838" lon="-1.8621232"><ele>247.0</ele><time>2026-03-22T19:34:29.98Z</time></trkpt><trkpt lat="53.6409808" lon="-1.8619303"><ele>245.0</ele><time>2026-03-22T19:34:30.979Z</time></trkpt><trkpt lat="53.6409846" lon="-1.8617306"><ele>243.0</ele><time>2026-03-22T19:34:31.979Z</time></trkpt><trkpt lat="53.6409884" lon="-1.8615303"><ele>241.0</ele><time>2026-03-22T19:34:32.98Z</time></trkpt><trkpt lat="53.6409915" lon="-1.8613328"><ele>239.0</ele><time>2026-03-22T19:34:33.981Z</time></trkpt><trkpt lat="53.6409957" lon="-1.8611354"><ele>238.0</ele><time>2026-03-22T19:34:34.979Z</time></trkpt><trkpt lat="53.6410006" lon="-1.8609342"><ele>237.0</ele><time>2026-03-22T19:34:35.979Z</time></trkpt><trkpt lat="53.6410018" lon="-1.8607346"><ele>236.0</ele><time>2026-03-22T19:34:36.982Z</time></trkpt><trkpt lat="53.6410019" lon="-1.8605395"><ele>235.0</ele><time>2026-03-22T19:34:37.98Z</time></trkpt><trkpt lat="53.6410012" lon="-1.8603451"><ele>235.0</ele><time>2026-03-22T19:34:38.979Z</time></trkpt><trkpt lat="53.640996" lon="-1.8601479"><ele>235.0</ele><time>2026-03-22T19:34:39.978Z</time></trkpt><trkpt lat="53.6409766" lon="-1.8599536"><ele>235.0</ele><time>2026-03-22T19:34:40.978Z</time></trkpt><trkpt lat="53.6409638" lon="-1.8597489"><ele>235.0</ele><time>2026-03-22T19:34:41.978Z</time></trkpt><trkpt lat="53.6409486" lon="-1.8595416"><ele>233.75</ele><time>2026-03-22T19:34:42.979Z</time></trkpt><trkpt lat="53.6409307" lon="-1.8593415"><ele>232.5</ele><time>2026-03-22T19:34:43.983Z</time></trkpt><trkpt lat="53.6409188" lon="-1.8591458"><ele>231.25</ele><time>2026-03-22T19:34:44.983Z</time></trkpt><trkpt lat="53.6409101" lon="-1.858949"><ele>230.0</ele><time>2026-03-22T19:34:45.983Z</time></trkpt><trkpt lat="53.6409043" lon="-1.8587579"><ele>229.2</ele><time>2026-03-22T19:34:46.981Z</time></trkpt><trkpt lat="53.640897" lon="-1.8585755"><ele>228.4</ele><time>2026-03-22T19:34:47.979Z</time></trkpt><trkpt lat="53.6408862" lon="-1.8583905"><ele>227.60000000000002</ele><time>2026-03-22T19:34:48.978Z</time></trkpt><trkpt lat="53.6408714" lon="-1.8582014"><ele>226.8</ele><time>2026-03-22T19:34:49.978Z</time></trkpt><trkpt lat="53.6408529" lon="-1.8580133"><ele>226.0</ele><time>2026-03-22T19:34:50.981Z</time></trkpt><trkpt lat="53.6408279" lon="-1.8578269"><ele>225.0</ele><time>2026-03-22T19:34:51.979Z</time></trkpt><trkpt lat="53.6407971" lon="-1.8576399"><ele>224.0</ele><time>2026-03-22T19:34:52.979Z</time></trkpt><trkpt lat="53.6407638" lon="-1.8574555"><ele>223.0</ele><time>2026-03-22T19:34:53.986Z</time></trkpt><trkpt lat="53.6407215" lon="-1.8572749"><ele>222.0</ele><time>2026-03-22T19:34:54.983Z</time></trkpt><trkpt lat="53.6406727" lon="-1.857098"><ele>221.6</ele><time>2026-03-22T19:34:55.984Z</time></trkpt><trkpt lat="53.6406199" lon="-1.8569296"><ele>221.2</ele><time>2026-03-22T19:34:56.984Z</time></trkpt><trkpt lat="53.6405647" lon="-1.8567638"><ele>220.8</ele><time>2026-03-22T19:34:57.988Z</time></trkpt><trkpt lat="53.6405066" lon="-1.8566073"><ele>220.4</ele><time>2026-03-22T19:34:58.98Z</time></trkpt><trkpt lat="53.6404556" lon="-1.8564713"><ele>220.0</ele><time>2026-03-22T19:34:59.98Z</time></trkpt><trkpt lat="53.6404148" lon="-1.85636"><ele>219.8</ele><time>2026-03-22T19:35:00.98Z</time></trkpt><trkpt lat="53.640352" lon="-1.8562128"><ele>219.6</ele><time>2026-03-22T19:35:02.979Z</time></trkpt><trkpt lat="53.6403026" lon="-1.8560487"><ele>219.39999999999998</ele><time>2026-03-22T19:35:04.98Z</time></trkpt><trkpt lat="53.6403042" lon="-1.8559371"><ele>219.2</ele><time>2026-03-22T19:35:05.981Z</time></trkpt><trkpt lat="53.6403408" lon="-1.8558097"><ele>219.0</ele><time>2026-03-22T19:35:06.982Z</time></trkpt><trkpt lat="53.6404079" lon="-1.8556857"><ele>218.6</ele><time>2026-03-22T19:35:07.982Z</time></trkpt><trkpt lat="53.6404987" lon="-1.8555829"><ele>218.2</ele><time>2026-03-22T19:35:08.982Z</time></trkpt><trkpt lat="53.6405962" lon="-1.855518"><ele>217.79999999999998</ele><time>2026-03-22T19:35:09.981Z</time></trkpt><trkpt lat="53.6407012" lon="-1.855468"><ele>217.39999999999998</ele><time>2026-03-22T19:35:10.983Z</time></trkpt><trkpt lat="53.6408035" lon="-1.8554205"><ele>217.0</ele><time>2026-03-22T19:35:11.983Z</time></trkpt><trkpt lat="53.6409001" lon="-1.8553604"><ele>217.0</ele><time>2026-03-22T19:35:12.98Z</time></trkpt><trkpt lat="53.6409847" lon="-1.8552828"><ele>217.0</ele><time>2026-03-22T19:35:13.981Z</time></trkpt><trkpt lat="53.6410648" lon="-1.8551826"><ele>217.0</ele><time>2026-03-22T19:35:14.986Z</time></trkpt><trkpt lat="53.6411363" lon="-1.8550766"><ele>217.0</ele><time>2026-03-22T19:35:15.98Z</time></trkpt><trkpt lat="53.6412056" lon="-1.8549613"><ele>217.0</ele><time>2026-03-22T19:35:16.979Z</time></trkpt><trkpt lat="53.6412752" lon="-1.8548362"><ele>216.0</ele><time>2026-03-22T19:35:17.982Z</time></trkpt><trkpt lat="53.6413543" lon="-1.8546978"><ele>215.0</ele><time>2026-03-22T19:35:18.98Z</time></trkpt><trkpt lat="53.6414392" lon="-1.8545358"><ele>214.0</ele><time>2026-03-22T19:35:19.979Z</time></trkpt><trkpt lat="53.641522" lon="-1.8543662"><ele>213.0</ele><time>2026-03-22T19:35:20.98Z</time></trkpt><trkpt lat="53.6416093" lon="-1.8541864"><ele>213.0</ele><time>2026-03-22T19:35:21.979Z</time></trkpt><trkpt lat="53.6416918" lon="-1.8540091"><ele>213.0</ele><time>2026-03-22T19:35:22.982Z</time></trkpt><trkpt lat="53.641771" lon="-1.8538467"><ele>213.0</ele><time>2026-03-22T19:35:23.981Z</time></trkpt><trkpt lat="53.6418387" lon="-1.8536969"><ele>213.0</ele><time>2026-03-22T19:35:24.981Z</time></trkpt><trkpt lat="53.6418995" lon="-1.8535564"><ele>212.60000000000002</ele><time>2026-03-22T19:35:25.978Z</time></trkpt><trkpt lat="53.6419612" lon="-1.853421"><ele>212.20000000000002</ele><time>2026-03-22T19:35:26.978Z</time></trkpt><trkpt lat="53.6420311" lon="-1.8532907"><ele>211.8</ele><time>2026-03-22T19:35:27.979Z</time></trkpt><trkpt lat="53.6421006" lon="-1.8531619"><ele>211.4</ele><time>2026-03-22T19:35:28.978Z</time></trkpt><trkpt lat="53.642176" lon="-1.8530265"><ele>211.0</ele><time>2026-03-22T19:35:29.978Z</time></trkpt><trkpt lat="53.6422552" lon="-1.8529045"><ele>210.5</ele><time>2026-03-22T19:35:30.978Z</time></trkpt><trkpt lat="53.6423513" lon="-1.8527919"><ele>210.0</ele><time>2026-03-22T19:35:31.979Z</time></trkpt><trkpt lat="53.6424599" lon="-1.8527139"><ele>209.5</ele><time>2026-03-22T19:35:32.985Z</time></trkpt><trkpt lat="53.6425749" lon="-1.852672"><ele>209.0</ele><time>2026-03-22T19:35:33.981Z</time></trkpt><trkpt lat="53.6426818" lon="-1.852662"><ele>209.0</ele><time>2026-03-22T19:35:34.978Z</time></trkpt><trkpt lat="53.6427857" lon="-1.8526622"><ele>209.0</ele><time>2026-03-22T19:35:35.98Z</time></trkpt><trkpt lat="53.642889" lon="-1.8526535"><ele>209.0</ele><time>2026-03-22T19:35:36.982Z</time></trkpt><trkpt lat="53.6429954" lon="-1.8526359"><ele>209.0</ele><time>2026-03-22T19:35:37.979Z</time></trkpt><trkpt lat="53.6431056" lon="-1.8526212"><ele>209.0</ele><time>2026-03-22T19:35:38.98Z</time></trkpt><trkpt lat="53.6432215" lon="-1.852592"><ele>208.0</ele><time>2026-03-22T19:35:39.981Z</time></trkpt><trkpt lat="53.6433343" lon="-1.8525414"><ele>207.0</ele><time>2026-03-22T19:35:40.981Z</time></trkpt><trkpt lat="53.643441" lon="-1.852468"><ele>206.0</ele><time>2026-03-22T19:35:41.977Z</time></trkpt><trkpt lat="53.643536" lon="-1.852363"><ele>205.0</ele><time>2026-03-22T19:35:42.978Z</time></trkpt><trkpt lat="53.6436035" lon="-1.8522196"><ele>204.75</ele><time>2026-03-22T19:35:43.983Z</time></trkpt><trkpt lat="53.6436519" lon="-1.8520296"><ele>204.5</ele><time>2026-03-22T19:35:44.979Z</time></trkpt><trkpt lat="53.6437027" lon="-1.851829"><ele>204.25</ele><time>2026-03-22T19:35:45.98Z</time></trkpt><trkpt lat="53.6437563" lon="-1.8516368"><ele>204.0</ele><time>2026-03-22T19:35:46.982Z</time></trkpt><trkpt lat="53.6438016" lon="-1.8514686"><ele>203.39999999999998</ele><time>2026-03-22T19:35:47.981Z</time></trkpt><trkpt lat="53.6438472" lon="-1.8513262"><ele>202.8</ele><time>2026-03-22T19:35:48.987Z</time></trkpt><trkpt lat="53.6438856" lon="-1.8511887"><ele>202.2</ele><time>2026-03-22T19:35:49.983Z</time></trkpt><trkpt lat="53.6439282" lon="-1.8510358"><ele>201.60000000000002</ele><time>2026-03-22T19:35:50.98Z</time></trkpt><trkpt lat="53.6439782" lon="-1.8508887"><ele>201.0</ele><time>2026-03-22T19:35:51.979Z</time></trkpt><trkpt lat="53.6440363" lon="-1.850723"><ele>200.5</ele><time>2026-03-22T19:35:52.979Z</time></trkpt><trkpt lat="53.644099" lon="-1.8505613"><ele>200.0</ele><time>2026-03-22T19:35:53.981Z</time></trkpt><trkpt lat="53.6441601" lon="-1.8503865"><ele>199.5</ele><time>2026-03-22T19:35:54.981Z</time></trkpt><trkpt lat="53.6442217" lon="-1.8502114"><ele>199.0</ele><time>2026-03-22T19:35:55.981Z</time></trkpt><trkpt lat="53.6442748" lon="-1.8500257"><ele>198.75</ele><time>2026-03-22T19:35:56.982Z</time></trkpt><trkpt lat="53.64432" lon="-1.8498316"><ele>198.5</ele><time>2026-03-22T19:35:57.982Z</time></trkpt><trkpt lat="53.6443596" lon="-1.8496321"><ele>198.25</ele><time>2026-03-22T19:35:58.983Z</time></trkpt><trkpt lat="53.644395" lon="-1.8494181"><ele>198.0</ele><time>2026-03-22T19:35:59.984Z</time></trkpt><trkpt lat="53.644431" lon="-1.8492114"><ele>196.8</ele><time>2026-03-22T19:36:00.983Z</time></trkpt><trkpt lat="53.6444651" lon="-1.84902"><ele>195.60000000000002</ele><time>2026-03-22T19:36:01.981Z</time></trkpt><trkpt lat="53.6444994" lon="-1.8488547"><ele>194.39999999999998</ele><time>2026-03-22T19:36:02.983Z</time></trkpt><trkpt lat="53.6445356" lon="-1.8486986"><ele>193.2</ele><time>2026-03-22T19:36:03.985Z</time></trkpt><trkpt lat="53.6445688" lon="-1.8485589"><ele>192.0</ele><time>2026-03-22T19:36:04.981Z</time></trkpt><trkpt lat="53.6445961" lon="-1.8484313"><ele>191.83333333333334</ele><time>2026-03-22T19:36:05.981Z</time></trkpt><trkpt lat="53.6446166" lon="-1.8483189"><ele>191.66666666666666</ele><time>2026-03-22T19:36:06.982Z</time></trkpt><trkpt lat="53.6445878" lon="-1.8481414"><ele>191.5</ele><time>2026-03-22T19:36:08.986Z</time></trkpt><trkpt lat="53.6444738" lon="-1.8480379"><ele>191.33333333333331</ele><time>2026-03-22T19:36:10.981Z</time></trkpt><trkpt lat="53.6444058" lon="-1.8480222"><ele>191.16666666666666</ele><time>2026-03-22T19:36:11.984Z</time></trkpt><trkpt lat="53.6443414" lon="-1.8480101"><ele>191.0</ele><time>2026-03-22T19:36:12.982Z</time></trkpt><trkpt lat="53.6442765" lon="-1.8479854"><ele>191.0</ele><time>2026-03-22T19:36:13.984Z</time></trkpt><trkpt lat="53.6441619" lon="-1.8479482"><ele>191.0</ele><time>2026-03-22T19:36:15.985Z</time></trkpt><trkpt lat="53.6440644" lon="-1.8479387"><ele>191.0</ele><time>2026-03-22T19:36:17.987Z</time></trkpt><trkpt lat="53.6439879" lon="-1.8479191"><ele>191.0</ele><time>2026-03-22T19:36:19.986Z</time></trkpt><trkpt lat="53.6439534" lon="-1.8478149"><ele>191.0</ele><time>2026-03-22T19:36:21.983Z</time></trkpt><trkpt lat="53.6439604" lon="-1.8476601"><ele>190.2857142857143</ele><time>2026-03-22T19:36:23.981Z</time></trkpt><trkpt lat="53.6439805" lon="-1.8475296"><ele>189.57142857142856</ele><time>2026-03-22T19:36:25.98Z</time></trkpt><trkpt lat="53.6440125" lon="-1.8474076"><ele>188.85714285714286</ele><time>2026-03-22T19:36:27.984Z</time></trkpt><trkpt lat="53.6440496" lon="-1.8473094"><ele>188.14285714285717</ele><time>2026-03-22T19:36:29.98Z</time></trkpt><trkpt lat="53.6440818" lon="-1.8472167"><ele>187.42857142857144</ele><time>2026-03-22T19:36:31.982Z</time></trkpt><trkpt lat="53.6441069" lon="-1.84711"><ele>186.71428571428572</ele><time>2026-03-22T19:36:33.983Z</time></trkpt><trkpt lat="53.6441422" lon="-1.8470104"><ele>186.0</ele><time>2026-03-22T19:36:35.983Z</time></trkpt><trkpt lat="53.6441706" lon="-1.8468986"><ele>186.00000000000003</ele><time>2026-03-22T19:36:37.983Z</time></trkpt><trkpt lat="53.6442015" lon="-1.846796"><ele>186.0</ele><time>2026-03-22T19:36:39.983Z</time></trkpt><trkpt lat="53.6442335" lon="-1.846688"><ele>186.0</ele><time>2026-03-22T19:36:41.982Z</time></trkpt><trkpt lat="53.644269" lon="-1.8465842"><ele>186.0</ele><time>2026-03-22T19:36:43.981Z</time></trkpt><trkpt lat="53.6442999" lon="-1.8464797"><ele>186.0</ele><time>2026-03-22T19:36:45.986Z</time></trkpt><trkpt lat="53.6443194" lon="-1.8463777"><ele>186.00000000000003</ele><time>2026-03-22T19:36:47.987Z</time></trkpt><trkpt lat="53.6443744" lon="-1.8462563"><ele>186.0</ele><time>2026-03-22T19:36:50.981Z</time></trkpt><trkpt lat="53.6444396" lon="-1.846229"><ele>183.0</ele><time>2026-03-22T19:37:46.982Z</time></trkpt></trkseg></trk></gpx>